<?xml version="1.0" encoding="UTF-8" standalone="no" ?>
<gpx xmlns="http://www.topografix.com/GPX/1/1" xmlns:xsi="http://www.w3.org/2001/XMLSchema-instance" xsi:schemaLocation="http://www.topografix.com/GPX/1/1 http://www.topografix.com/GPX/1/1/gpx.xsd" version="1.1" creator="VisuGPX - https://www.visugpx.com">
  <metadata>
    <name>St Jeannet le Broc</name>
    <desc><![CDATA[Départ classique de St Jeannet jusqu'à la piste du gaz puis à droite un bout de piste le long des pylones et à gauche un kerne qui marque le début du single qui descend vers le broc. On retombe en bas sur la piste.
Là, haut lieu de remonter comme dab par la piste nous avons testé une variante marquée jaune mais malheureusement nous l'avons perdue en arrivant à qq maisons en ruines et avons un peu jardiné pour redescendre sur la piste.
Ensuite nous voulions faire le tour par Coursegoule puis la mine et retour par le Castel mais le mauvais temps et le brouillard nous ont poussé à faire demi-tour pour rentrer par la voie classique mais belle qui finie dans le vallon de la Cagnes.]]></desc>
  </metadata>
  <trk>
    <name><![CDATA[20190224163828-M61Ui]]></name>
    <trkseg>
      <trkpt lat="43.74266" lon="7.14466">
        <ele>325</ele>
        <time>2019-02-23T08:01:39.000Z</time>
      </trkpt>
      <trkpt lat="43.74266" lon="7.14467">
        <ele>325.39999389648</ele>
        <time>2019-02-23T08:01:45.000Z</time>
      </trkpt>
      <trkpt lat="43.74266" lon="7.14466">
        <ele>324.79998779297</ele>
        <time>2019-02-23T08:01:52.000Z</time>
      </trkpt>
      <trkpt lat="43.74266" lon="7.14465">
        <ele>324.79998779297</ele>
        <time>2019-02-23T08:01:59.000Z</time>
      </trkpt>
      <trkpt lat="43.74266" lon="7.14465">
        <ele>324.79998779297</ele>
        <time>2019-02-23T08:02:05.000Z</time>
      </trkpt>
      <trkpt lat="43.74267" lon="7.14464">
        <ele>324.60000610352</ele>
        <time>2019-02-23T08:02:07.000Z</time>
      </trkpt>
      <trkpt lat="43.74268" lon="7.14461">
        <ele>324.79998779297</ele>
        <time>2019-02-23T08:02:09.000Z</time>
      </trkpt>
      <trkpt lat="43.74272" lon="7.14458">
        <ele>325.20001220703</ele>
        <time>2019-02-23T08:02:13.000Z</time>
      </trkpt>
      <trkpt lat="43.74274" lon="7.14457">
        <ele>325.60000610352</ele>
        <time>2019-02-23T08:02:15.000Z</time>
      </trkpt>
      <trkpt lat="43.74282" lon="7.14451">
        <ele>326</ele>
        <time>2019-02-23T08:02:22.000Z</time>
      </trkpt>
      <trkpt lat="43.74287" lon="7.14452">
        <ele>326.20001220703</ele>
        <time>2019-02-23T08:02:25.000Z</time>
      </trkpt>
      <trkpt lat="43.74293" lon="7.14452">
        <ele>326.60000610352</ele>
        <time>2019-02-23T08:02:29.000Z</time>
      </trkpt>
      <trkpt lat="43.74304" lon="7.1445">
        <ele>326.79998779297</ele>
        <time>2019-02-23T08:02:35.000Z</time>
      </trkpt>
      <trkpt lat="43.74311" lon="7.1445">
        <ele>327.39999389648</ele>
        <time>2019-02-23T08:02:39.000Z</time>
      </trkpt>
      <trkpt lat="43.74314" lon="7.14453">
        <ele>327.60000610352</ele>
        <time>2019-02-23T08:02:41.000Z</time>
      </trkpt>
      <trkpt lat="43.74322" lon="7.1446">
        <ele>328.39999389648</ele>
        <time>2019-02-23T08:02:46.000Z</time>
      </trkpt>
      <trkpt lat="43.7433" lon="7.14464">
        <ele>328.79998779297</ele>
        <time>2019-02-23T08:02:50.000Z</time>
      </trkpt>
      <trkpt lat="43.74338" lon="7.14457">
        <ele>329</ele>
        <time>2019-02-23T08:02:55.000Z</time>
      </trkpt>
      <trkpt lat="43.74341" lon="7.14447">
        <ele>329.39999389648</ele>
        <time>2019-02-23T08:02:59.000Z</time>
      </trkpt>
      <trkpt lat="43.74342" lon="7.14442">
        <ele>329.60000610352</ele>
        <time>2019-02-23T08:03:01.000Z</time>
      </trkpt>
      <trkpt lat="43.74346" lon="7.14439">
        <ele>330.20001220703</ele>
        <time>2019-02-23T08:03:05.000Z</time>
      </trkpt>
      <trkpt lat="43.74348" lon="7.1444">
        <ele>330.79998779297</ele>
        <time>2019-02-23T08:03:07.000Z</time>
      </trkpt>
      <trkpt lat="43.74352" lon="7.1444">
        <ele>331.60000610352</ele>
        <time>2019-02-23T08:03:10.000Z</time>
      </trkpt>
      <trkpt lat="43.74355" lon="7.1444">
        <ele>331.79998779297</ele>
        <time>2019-02-23T08:03:12.000Z</time>
      </trkpt>
      <trkpt lat="43.74363" lon="7.14437">
        <ele>333</ele>
        <time>2019-02-23T08:03:18.000Z</time>
      </trkpt>
      <trkpt lat="43.74365" lon="7.14436">
        <ele>333.39999389648</ele>
        <time>2019-02-23T08:03:20.000Z</time>
      </trkpt>
      <trkpt lat="43.74372" lon="7.14434">
        <ele>334.20001220703</ele>
        <time>2019-02-23T08:03:25.000Z</time>
      </trkpt>
      <trkpt lat="43.74376" lon="7.14434">
        <ele>334.60000610352</ele>
        <time>2019-02-23T08:03:28.000Z</time>
      </trkpt>
      <trkpt lat="43.74381" lon="7.14435">
        <ele>335.20001220703</ele>
        <time>2019-02-23T08:03:32.000Z</time>
      </trkpt>
      <trkpt lat="43.74383" lon="7.14435">
        <ele>335.39999389648</ele>
        <time>2019-02-23T08:03:33.000Z</time>
      </trkpt>
      <trkpt lat="43.74386" lon="7.14433">
        <ele>335.79998779297</ele>
        <time>2019-02-23T08:03:36.000Z</time>
      </trkpt>
      <trkpt lat="43.74388" lon="7.14431">
        <ele>336.39999389648</ele>
        <time>2019-02-23T08:03:38.000Z</time>
      </trkpt>
      <trkpt lat="43.74395" lon="7.1443">
        <ele>337.39999389648</ele>
        <time>2019-02-23T08:03:43.000Z</time>
      </trkpt>
      <trkpt lat="43.74396" lon="7.14431">
        <ele>337.60000610352</ele>
        <time>2019-02-23T08:03:44.000Z</time>
      </trkpt>
      <trkpt lat="43.74402" lon="7.14431">
        <ele>338.39999389648</ele>
        <time>2019-02-23T08:03:49.000Z</time>
      </trkpt>
      <trkpt lat="43.74403" lon="7.1443">
        <ele>338.60000610352</ele>
        <time>2019-02-23T08:03:50.000Z</time>
      </trkpt>
      <trkpt lat="43.74407" lon="7.14428">
        <ele>339</ele>
        <time>2019-02-23T08:03:53.000Z</time>
      </trkpt>
      <trkpt lat="43.74409" lon="7.1443">
        <ele>339.39999389648</ele>
        <time>2019-02-23T08:03:55.000Z</time>
      </trkpt>
      <trkpt lat="43.7441" lon="7.1443">
        <ele>339.79998779297</ele>
        <time>2019-02-23T08:03:56.000Z</time>
      </trkpt>
      <trkpt lat="43.74415" lon="7.14428">
        <ele>340.39999389648</ele>
        <time>2019-02-23T08:04:01.000Z</time>
      </trkpt>
      <trkpt lat="43.74416" lon="7.14427">
        <ele>340.60000610352</ele>
        <time>2019-02-23T08:04:02.000Z</time>
      </trkpt>
      <trkpt lat="43.74421" lon="7.14428">
        <ele>341.60000610352</ele>
        <time>2019-02-23T08:04:06.000Z</time>
      </trkpt>
      <trkpt lat="43.74422" lon="7.14428">
        <ele>341.79998779297</ele>
        <time>2019-02-23T08:04:07.000Z</time>
      </trkpt>
      <trkpt lat="43.74426" lon="7.14425">
        <ele>342.79998779297</ele>
        <time>2019-02-23T08:04:13.000Z</time>
      </trkpt>
      <trkpt lat="43.74431" lon="7.14426">
        <ele>344</ele>
        <time>2019-02-23T08:04:18.000Z</time>
      </trkpt>
      <trkpt lat="43.74433" lon="7.14424">
        <ele>344.20001220703</ele>
        <time>2019-02-23T08:04:20.000Z</time>
      </trkpt>
      <trkpt lat="43.74436" lon="7.14422">
        <ele>344.79998779297</ele>
        <time>2019-02-23T08:04:23.000Z</time>
      </trkpt>
      <trkpt lat="43.74438" lon="7.14423">
        <ele>345.20001220703</ele>
        <time>2019-02-23T08:04:24.000Z</time>
      </trkpt>
      <trkpt lat="43.74442" lon="7.14424">
        <ele>346.20001220703</ele>
        <time>2019-02-23T08:04:29.000Z</time>
      </trkpt>
      <trkpt lat="43.74444" lon="7.14423">
        <ele>346.79998779297</ele>
        <time>2019-02-23T08:04:31.000Z</time>
      </trkpt>
      <trkpt lat="43.74447" lon="7.14422">
        <ele>347.39999389648</ele>
        <time>2019-02-23T08:04:34.000Z</time>
      </trkpt>
      <trkpt lat="43.74452" lon="7.14418">
        <ele>348.39999389648</ele>
        <time>2019-02-23T08:04:39.000Z</time>
      </trkpt>
      <trkpt lat="43.74455" lon="7.14416">
        <ele>349</ele>
        <time>2019-02-23T08:04:42.000Z</time>
      </trkpt>
      <trkpt lat="43.74457" lon="7.14417">
        <ele>349.60000610352</ele>
        <time>2019-02-23T08:04:44.000Z</time>
      </trkpt>
      <trkpt lat="43.74458" lon="7.14418">
        <ele>349.79998779297</ele>
        <time>2019-02-23T08:04:45.000Z</time>
      </trkpt>
      <trkpt lat="43.74459" lon="7.14418">
        <ele>350</ele>
        <time>2019-02-23T08:04:46.000Z</time>
      </trkpt>
      <trkpt lat="43.7446" lon="7.14418">
        <ele>350.20001220703</ele>
        <time>2019-02-23T08:04:47.000Z</time>
      </trkpt>
      <trkpt lat="43.74461" lon="7.14417">
        <ele>350.60000610352</ele>
        <time>2019-02-23T08:04:49.000Z</time>
      </trkpt>
      <trkpt lat="43.74461" lon="7.14415">
        <ele>350.79998779297</ele>
        <time>2019-02-23T08:04:50.000Z</time>
      </trkpt>
      <trkpt lat="43.74463" lon="7.14413">
        <ele>351</ele>
        <time>2019-02-23T08:04:52.000Z</time>
      </trkpt>
      <trkpt lat="43.74465" lon="7.14413">
        <ele>351.39999389648</ele>
        <time>2019-02-23T08:04:54.000Z</time>
      </trkpt>
      <trkpt lat="43.74466" lon="7.14414">
        <ele>351.79998779297</ele>
        <time>2019-02-23T08:04:55.000Z</time>
      </trkpt>
      <trkpt lat="43.74467" lon="7.14414">
        <ele>352</ele>
        <time>2019-02-23T08:04:56.000Z</time>
      </trkpt>
      <trkpt lat="43.7447" lon="7.14413">
        <ele>352.79998779297</ele>
        <time>2019-02-23T08:04:59.000Z</time>
      </trkpt>
      <trkpt lat="43.74472" lon="7.14411">
        <ele>353.20001220703</ele>
        <time>2019-02-23T08:05:01.000Z</time>
      </trkpt>
      <trkpt lat="43.74472" lon="7.14406">
        <ele>353.60000610352</ele>
        <time>2019-02-23T08:05:04.000Z</time>
      </trkpt>
      <trkpt lat="43.74471" lon="7.14402">
        <ele>353.79998779297</ele>
        <time>2019-02-23T08:05:06.000Z</time>
      </trkpt>
      <trkpt lat="43.74471" lon="7.144">
        <ele>354</ele>
        <time>2019-02-23T08:05:07.000Z</time>
      </trkpt>
      <trkpt lat="43.74471" lon="7.14392">
        <ele>354.79998779297</ele>
        <time>2019-02-23T08:05:12.000Z</time>
      </trkpt>
      <trkpt lat="43.74471" lon="7.14387">
        <ele>355.20001220703</ele>
        <time>2019-02-23T08:05:15.000Z</time>
      </trkpt>
      <trkpt lat="43.74471" lon="7.14381">
        <ele>356</ele>
        <time>2019-02-23T08:05:19.000Z</time>
      </trkpt>
      <trkpt lat="43.74472" lon="7.14375">
        <ele>356.60000610352</ele>
        <time>2019-02-23T08:05:23.000Z</time>
      </trkpt>
      <trkpt lat="43.74473" lon="7.14374">
        <ele>356.79998779297</ele>
        <time>2019-02-23T08:05:24.000Z</time>
      </trkpt>
      <trkpt lat="43.74474" lon="7.14373">
        <ele>357.20001220703</ele>
        <time>2019-02-23T08:05:25.000Z</time>
      </trkpt>
      <trkpt lat="43.74477" lon="7.14373">
        <ele>357.60000610352</ele>
        <time>2019-02-23T08:05:28.000Z</time>
      </trkpt>
      <trkpt lat="43.74482" lon="7.14377">
        <ele>358.20001220703</ele>
        <time>2019-02-23T08:05:32.000Z</time>
      </trkpt>
      <trkpt lat="43.74483" lon="7.1438">
        <ele>358.39999389648</ele>
        <time>2019-02-23T08:05:34.000Z</time>
      </trkpt>
      <trkpt lat="43.74485" lon="7.14385">
        <ele>358.79998779297</ele>
        <time>2019-02-23T08:05:37.000Z</time>
      </trkpt>
      <trkpt lat="43.74487" lon="7.1439">
        <ele>359.20001220703</ele>
        <time>2019-02-23T08:05:40.000Z</time>
      </trkpt>
      <trkpt lat="43.74489" lon="7.14396">
        <ele>359.79998779297</ele>
        <time>2019-02-23T08:05:44.000Z</time>
      </trkpt>
      <trkpt lat="43.74491" lon="7.14401">
        <ele>360.20001220703</ele>
        <time>2019-02-23T08:05:47.000Z</time>
      </trkpt>
      <trkpt lat="43.74496" lon="7.1441">
        <ele>360.79998779297</ele>
        <time>2019-02-23T08:05:53.000Z</time>
      </trkpt>
      <trkpt lat="43.74499" lon="7.14415">
        <ele>361.39999389648</ele>
        <time>2019-02-23T08:05:56.000Z</time>
      </trkpt>
      <trkpt lat="43.74503" lon="7.14423">
        <ele>362.20001220703</ele>
        <time>2019-02-23T08:06:01.000Z</time>
      </trkpt>
      <trkpt lat="43.74505" lon="7.14426">
        <ele>362.39999389648</ele>
        <time>2019-02-23T08:06:03.000Z</time>
      </trkpt>
      <trkpt lat="43.74511" lon="7.14438">
        <ele>363.39999389648</ele>
        <time>2019-02-23T08:06:10.000Z</time>
      </trkpt>
      <trkpt lat="43.74517" lon="7.14452">
        <ele>364.20001220703</ele>
        <time>2019-02-23T08:06:18.000Z</time>
      </trkpt>
      <trkpt lat="43.74519" lon="7.14455">
        <ele>364.60000610352</ele>
        <time>2019-02-23T08:06:20.000Z</time>
      </trkpt>
      <trkpt lat="43.74521" lon="7.14462">
        <ele>364.79998779297</ele>
        <time>2019-02-23T08:06:24.000Z</time>
      </trkpt>
      <trkpt lat="43.74523" lon="7.14464">
        <ele>365</ele>
        <time>2019-02-23T08:06:26.000Z</time>
      </trkpt>
      <trkpt lat="43.74527" lon="7.14462">
        <ele>365.39999389648</ele>
        <time>2019-02-23T08:06:29.000Z</time>
      </trkpt>
      <trkpt lat="43.74528" lon="7.14461">
        <ele>365.60000610352</ele>
        <time>2019-02-23T08:06:30.000Z</time>
      </trkpt>
      <trkpt lat="43.74529" lon="7.14452">
        <ele>366.60000610352</ele>
        <time>2019-02-23T08:06:35.000Z</time>
      </trkpt>
      <trkpt lat="43.74528" lon="7.1444">
        <ele>367.79998779297</ele>
        <time>2019-02-23T08:06:42.000Z</time>
      </trkpt>
      <trkpt lat="43.74528" lon="7.14436">
        <ele>368</ele>
        <time>2019-02-23T08:06:44.000Z</time>
      </trkpt>
      <trkpt lat="43.74527" lon="7.14429">
        <ele>369</ele>
        <time>2019-02-23T08:06:48.000Z</time>
      </trkpt>
      <trkpt lat="43.74528" lon="7.14423">
        <ele>370</ele>
        <time>2019-02-23T08:06:52.000Z</time>
      </trkpt>
      <trkpt lat="43.74528" lon="7.14416">
        <ele>371.20001220703</ele>
        <time>2019-02-23T08:06:56.000Z</time>
      </trkpt>
      <trkpt lat="43.74528" lon="7.1441">
        <ele>371.79998779297</ele>
        <time>2019-02-23T08:07:00.000Z</time>
      </trkpt>
      <trkpt lat="43.74527" lon="7.14405">
        <ele>372.39999389648</ele>
        <time>2019-02-23T08:07:03.000Z</time>
      </trkpt>
      <trkpt lat="43.74526" lon="7.14399">
        <ele>373.39999389648</ele>
        <time>2019-02-23T08:07:07.000Z</time>
      </trkpt>
      <trkpt lat="43.74527" lon="7.14395">
        <ele>374</ele>
        <time>2019-02-23T08:07:09.000Z</time>
      </trkpt>
      <trkpt lat="43.74527" lon="7.14392">
        <ele>374.39999389648</ele>
        <time>2019-02-23T08:07:11.000Z</time>
      </trkpt>
      <trkpt lat="43.74527" lon="7.14391">
        <ele>374.79998779297</ele>
        <time>2019-02-23T08:07:12.000Z</time>
      </trkpt>
      <trkpt lat="43.74526" lon="7.14386">
        <ele>375.20001220703</ele>
        <time>2019-02-23T08:07:15.000Z</time>
      </trkpt>
      <trkpt lat="43.74526" lon="7.14385">
        <ele>375.39999389648</ele>
        <time>2019-02-23T08:07:16.000Z</time>
      </trkpt>
      <trkpt lat="43.74526" lon="7.14383">
        <ele>375.60000610352</ele>
        <time>2019-02-23T08:07:17.000Z</time>
      </trkpt>
      <trkpt lat="43.74526" lon="7.14376">
        <ele>376.79998779297</ele>
        <time>2019-02-23T08:07:22.000Z</time>
      </trkpt>
      <trkpt lat="43.74526" lon="7.14374">
        <ele>377</ele>
        <time>2019-02-23T08:07:23.000Z</time>
      </trkpt>
      <trkpt lat="43.74526" lon="7.14369">
        <ele>378</ele>
        <time>2019-02-23T08:07:27.000Z</time>
      </trkpt>
      <trkpt lat="43.74525" lon="7.14366">
        <ele>378.39999389648</ele>
        <time>2019-02-23T08:07:29.000Z</time>
      </trkpt>
      <trkpt lat="43.74526" lon="7.14361">
        <ele>379</ele>
        <time>2019-02-23T08:07:32.000Z</time>
      </trkpt>
      <trkpt lat="43.74526" lon="7.14354">
        <ele>379.79998779297</ele>
        <time>2019-02-23T08:07:37.000Z</time>
      </trkpt>
      <trkpt lat="43.74526" lon="7.14353">
        <ele>380</ele>
        <time>2019-02-23T08:07:38.000Z</time>
      </trkpt>
      <trkpt lat="43.74527" lon="7.1435">
        <ele>380.39999389648</ele>
        <time>2019-02-23T08:07:40.000Z</time>
      </trkpt>
      <trkpt lat="43.74527" lon="7.14346">
        <ele>381.39999389648</ele>
        <time>2019-02-23T08:07:43.000Z</time>
      </trkpt>
      <trkpt lat="43.74526" lon="7.14339">
        <ele>382.60000610352</ele>
        <time>2019-02-23T08:07:48.000Z</time>
      </trkpt>
      <trkpt lat="43.74525" lon="7.14337">
        <ele>383</ele>
        <time>2019-02-23T08:07:50.000Z</time>
      </trkpt>
      <trkpt lat="43.74525" lon="7.14334">
        <ele>383.39999389648</ele>
        <time>2019-02-23T08:07:52.000Z</time>
      </trkpt>
      <trkpt lat="43.74527" lon="7.14332">
        <ele>383.60000610352</ele>
        <time>2019-02-23T08:07:54.000Z</time>
      </trkpt>
      <trkpt lat="43.74529" lon="7.1433">
        <ele>384</ele>
        <time>2019-02-23T08:07:56.000Z</time>
      </trkpt>
      <trkpt lat="43.74532" lon="7.1433">
        <ele>384.79998779297</ele>
        <time>2019-02-23T08:07:59.000Z</time>
      </trkpt>
      <trkpt lat="43.74535" lon="7.14334">
        <ele>385.39999389648</ele>
        <time>2019-02-23T08:08:02.000Z</time>
      </trkpt>
      <trkpt lat="43.74536" lon="7.14335">
        <ele>385.60000610352</ele>
        <time>2019-02-23T08:08:03.000Z</time>
      </trkpt>
      <trkpt lat="43.74537" lon="7.14339">
        <ele>385.79998779297</ele>
        <time>2019-02-23T08:08:06.000Z</time>
      </trkpt>
      <trkpt lat="43.74539" lon="7.14344">
        <ele>386.39999389648</ele>
        <time>2019-02-23T08:08:10.000Z</time>
      </trkpt>
      <trkpt lat="43.74541" lon="7.14349">
        <ele>387</ele>
        <time>2019-02-23T08:08:14.000Z</time>
      </trkpt>
      <trkpt lat="43.74543" lon="7.14352">
        <ele>387.39999389648</ele>
        <time>2019-02-23T08:08:16.000Z</time>
      </trkpt>
      <trkpt lat="43.74543" lon="7.14356">
        <ele>388</ele>
        <time>2019-02-23T08:08:19.000Z</time>
      </trkpt>
      <trkpt lat="43.74544" lon="7.14362">
        <ele>388.60000610352</ele>
        <time>2019-02-23T08:08:23.000Z</time>
      </trkpt>
      <trkpt lat="43.74544" lon="7.14366">
        <ele>389</ele>
        <time>2019-02-23T08:08:26.000Z</time>
      </trkpt>
      <trkpt lat="43.74544" lon="7.14369">
        <ele>389.20001220703</ele>
        <time>2019-02-23T08:08:28.000Z</time>
      </trkpt>
      <trkpt lat="43.74551" lon="7.14372">
        <ele>389.79998779297</ele>
        <time>2019-02-23T08:08:34.000Z</time>
      </trkpt>
      <trkpt lat="43.74552" lon="7.14372">
        <ele>390</ele>
        <time>2019-02-23T08:08:35.000Z</time>
      </trkpt>
      <trkpt lat="43.74555" lon="7.14368">
        <ele>390.60000610352</ele>
        <time>2019-02-23T08:08:39.000Z</time>
      </trkpt>
      <trkpt lat="43.74557" lon="7.14362">
        <ele>391</ele>
        <time>2019-02-23T08:08:42.000Z</time>
      </trkpt>
      <trkpt lat="43.74557" lon="7.14361">
        <ele>391</ele>
        <time>2019-02-23T08:08:43.000Z</time>
      </trkpt>
      <trkpt lat="43.74557" lon="7.14357">
        <ele>391.39999389648</ele>
        <time>2019-02-23T08:08:45.000Z</time>
      </trkpt>
      <trkpt lat="43.74557" lon="7.14353">
        <ele>391.79998779297</ele>
        <time>2019-02-23T08:08:48.000Z</time>
      </trkpt>
      <trkpt lat="43.74556" lon="7.14349">
        <ele>392.20001220703</ele>
        <time>2019-02-23T08:08:50.000Z</time>
      </trkpt>
      <trkpt lat="43.74556" lon="7.14343">
        <ele>393.20001220703</ele>
        <time>2019-02-23T08:08:54.000Z</time>
      </trkpt>
      <trkpt lat="43.74555" lon="7.14337">
        <ele>394.39999389648</ele>
        <time>2019-02-23T08:08:58.000Z</time>
      </trkpt>
      <trkpt lat="43.74555" lon="7.1433">
        <ele>395.20001220703</ele>
        <time>2019-02-23T08:09:02.000Z</time>
      </trkpt>
      <trkpt lat="43.74555" lon="7.14329">
        <ele>395.60000610352</ele>
        <time>2019-02-23T08:09:03.000Z</time>
      </trkpt>
      <trkpt lat="43.74555" lon="7.14326">
        <ele>396</ele>
        <time>2019-02-23T08:09:05.000Z</time>
      </trkpt>
      <trkpt lat="43.74553" lon="7.1432">
        <ele>396.79998779297</ele>
        <time>2019-02-23T08:09:09.000Z</time>
      </trkpt>
      <trkpt lat="43.74554" lon="7.14319">
        <ele>397</ele>
        <time>2019-02-23T08:09:10.000Z</time>
      </trkpt>
      <trkpt lat="43.74555" lon="7.14316">
        <ele>397.79998779297</ele>
        <time>2019-02-23T08:09:13.000Z</time>
      </trkpt>
      <trkpt lat="43.74555" lon="7.14314">
        <ele>398.20001220703</ele>
        <time>2019-02-23T08:09:14.000Z</time>
      </trkpt>
      <trkpt lat="43.74554" lon="7.14309">
        <ele>399</ele>
        <time>2019-02-23T08:09:18.000Z</time>
      </trkpt>
      <trkpt lat="43.74553" lon="7.14304">
        <ele>399.60000610352</ele>
        <time>2019-02-23T08:09:21.000Z</time>
      </trkpt>
      <trkpt lat="43.74554" lon="7.14301">
        <ele>399.79998779297</ele>
        <time>2019-02-23T08:09:23.000Z</time>
      </trkpt>
      <trkpt lat="43.74555" lon="7.14301">
        <ele>400</ele>
        <time>2019-02-23T08:09:24.000Z</time>
      </trkpt>
      <trkpt lat="43.74556" lon="7.14303">
        <ele>400.39999389648</ele>
        <time>2019-02-23T08:09:25.000Z</time>
      </trkpt>
      <trkpt lat="43.74558" lon="7.14307">
        <ele>401.20001220703</ele>
        <time>2019-02-23T08:09:28.000Z</time>
      </trkpt>
      <trkpt lat="43.74562" lon="7.14315">
        <ele>401.39999389648</ele>
        <time>2019-02-23T08:09:33.000Z</time>
      </trkpt>
      <trkpt lat="43.74562" lon="7.14316">
        <ele>401.39999389648</ele>
        <time>2019-02-23T08:09:34.000Z</time>
      </trkpt>
      <trkpt lat="43.74565" lon="7.14324">
        <ele>402.20001220703</ele>
        <time>2019-02-23T08:09:39.000Z</time>
      </trkpt>
      <trkpt lat="43.74565" lon="7.14326">
        <ele>402.20001220703</ele>
        <time>2019-02-23T08:09:40.000Z</time>
      </trkpt>
      <trkpt lat="43.74566" lon="7.14327">
        <ele>402.39999389648</ele>
        <time>2019-02-23T08:09:41.000Z</time>
      </trkpt>
      <trkpt lat="43.7457" lon="7.14334">
        <ele>403.20001220703</ele>
        <time>2019-02-23T08:09:46.000Z</time>
      </trkpt>
      <trkpt lat="43.74573" lon="7.14343">
        <ele>404.20001220703</ele>
        <time>2019-02-23T08:09:52.000Z</time>
      </trkpt>
      <trkpt lat="43.74574" lon="7.14346">
        <ele>404.60000610352</ele>
        <time>2019-02-23T08:09:54.000Z</time>
      </trkpt>
      <trkpt lat="43.74577" lon="7.14356">
        <ele>405.39999389648</ele>
        <time>2019-02-23T08:10:00.000Z</time>
      </trkpt>
      <trkpt lat="43.74578" lon="7.14357">
        <ele>405.60000610352</ele>
        <time>2019-02-23T08:10:01.000Z</time>
      </trkpt>
      <trkpt lat="43.74582" lon="7.14363">
        <ele>406.60000610352</ele>
        <time>2019-02-23T08:10:06.000Z</time>
      </trkpt>
      <trkpt lat="43.74584" lon="7.14366">
        <ele>406.79998779297</ele>
        <time>2019-02-23T08:10:08.000Z</time>
      </trkpt>
      <trkpt lat="43.74591" lon="7.14379">
        <ele>407</ele>
        <time>2019-02-23T08:10:15.000Z</time>
      </trkpt>
      <trkpt lat="43.74601" lon="7.14397">
        <ele>406.60000610352</ele>
        <time>2019-02-23T08:10:22.000Z</time>
      </trkpt>
      <trkpt lat="43.74611" lon="7.14413">
        <ele>406.39999389648</ele>
        <time>2019-02-23T08:10:27.000Z</time>
      </trkpt>
      <trkpt lat="43.74626" lon="7.14424">
        <ele>406</ele>
        <time>2019-02-23T08:10:33.000Z</time>
      </trkpt>
      <trkpt lat="43.74639" lon="7.14425">
        <ele>406</ele>
        <time>2019-02-23T08:10:37.000Z</time>
      </trkpt>
      <trkpt lat="43.74642" lon="7.14425">
        <ele>406</ele>
        <time>2019-02-23T08:10:38.000Z</time>
      </trkpt>
      <trkpt lat="43.74655" lon="7.14428">
        <ele>405.60000610352</ele>
        <time>2019-02-23T08:10:42.000Z</time>
      </trkpt>
      <trkpt lat="43.7466" lon="7.1443">
        <ele>405.39999389648</ele>
        <time>2019-02-23T08:10:44.000Z</time>
      </trkpt>
      <trkpt lat="43.74672" lon="7.14436">
        <ele>405.79998779297</ele>
        <time>2019-02-23T08:10:50.000Z</time>
      </trkpt>
      <trkpt lat="43.74674" lon="7.14437">
        <ele>406</ele>
        <time>2019-02-23T08:10:54.000Z</time>
      </trkpt>
      <trkpt lat="43.74674" lon="7.14437">
        <ele>406</ele>
        <time>2019-02-23T08:11:00.000Z</time>
      </trkpt>
      <trkpt lat="43.74674" lon="7.14437">
        <ele>405.39999389648</ele>
        <time>2019-02-23T08:11:06.000Z</time>
      </trkpt>
      <trkpt lat="43.74676" lon="7.14435">
        <ele>405.60000610352</ele>
        <time>2019-02-23T08:11:11.000Z</time>
      </trkpt>
      <trkpt lat="43.74676" lon="7.14435">
        <ele>405.60000610352</ele>
        <time>2019-02-23T08:11:17.000Z</time>
      </trkpt>
      <trkpt lat="43.74676" lon="7.14436">
        <ele>405.60000610352</ele>
        <time>2019-02-23T08:11:24.000Z</time>
      </trkpt>
      <trkpt lat="43.74678" lon="7.14437">
        <ele>405.20001220703</ele>
        <time>2019-02-23T08:11:30.000Z</time>
      </trkpt>
      <trkpt lat="43.74677" lon="7.14437">
        <ele>404.60000610352</ele>
        <time>2019-02-23T08:11:37.000Z</time>
      </trkpt>
      <trkpt lat="43.74677" lon="7.14438">
        <ele>405.60000610352</ele>
        <time>2019-02-23T08:11:44.000Z</time>
      </trkpt>
      <trkpt lat="43.74677" lon="7.14438">
        <ele>405.39999389648</ele>
        <time>2019-02-23T08:11:45.000Z</time>
      </trkpt>
      <trkpt lat="43.74677" lon="7.14438">
        <ele>405.20001220703</ele>
        <time>2019-02-23T08:11:53.000Z</time>
      </trkpt>
      <trkpt lat="43.74677" lon="7.14439">
        <ele>405.20001220703</ele>
        <time>2019-02-23T08:12:04.000Z</time>
      </trkpt>
      <trkpt lat="43.74677" lon="7.14439">
        <ele>405.20001220703</ele>
        <time>2019-02-23T08:12:12.000Z</time>
      </trkpt>
      <trkpt lat="43.74676" lon="7.1444">
        <ele>404.79998779297</ele>
        <time>2019-02-23T08:12:21.000Z</time>
      </trkpt>
      <trkpt lat="43.74676" lon="7.14439">
        <ele>404.79998779297</ele>
        <time>2019-02-23T08:12:31.000Z</time>
      </trkpt>
      <trkpt lat="43.74676" lon="7.1444">
        <ele>405</ele>
        <time>2019-02-23T08:12:38.000Z</time>
      </trkpt>
      <trkpt lat="43.74675" lon="7.14441">
        <ele>404.60000610352</ele>
        <time>2019-02-23T08:12:44.000Z</time>
      </trkpt>
      <trkpt lat="43.74675" lon="7.14441">
        <ele>404.79998779297</ele>
        <time>2019-02-23T08:12:52.000Z</time>
      </trkpt>
      <trkpt lat="43.74675" lon="7.14442">
        <ele>404.39999389648</ele>
        <time>2019-02-23T08:12:59.000Z</time>
      </trkpt>
      <trkpt lat="43.74675" lon="7.14442">
        <ele>404.39999389648</ele>
        <time>2019-02-23T08:13:02.000Z</time>
      </trkpt>
      <trkpt lat="43.74676" lon="7.14443">
        <ele>404.60000610352</ele>
        <time>2019-02-23T08:13:09.000Z</time>
      </trkpt>
      <trkpt lat="43.74675" lon="7.14442">
        <ele>405</ele>
        <time>2019-02-23T08:13:18.000Z</time>
      </trkpt>
      <trkpt lat="43.74675" lon="7.14444">
        <ele>405.20001220703</ele>
        <time>2019-02-23T08:13:21.000Z</time>
      </trkpt>
      <trkpt lat="43.74675" lon="7.14443">
        <ele>405</ele>
        <time>2019-02-23T08:13:22.000Z</time>
      </trkpt>
      <trkpt lat="43.74675" lon="7.14444">
        <ele>405</ele>
        <time>2019-02-23T08:13:32.000Z</time>
      </trkpt>
      <trkpt lat="43.74676" lon="7.14444">
        <ele>404.60000610352</ele>
        <time>2019-02-23T08:13:40.000Z</time>
      </trkpt>
      <trkpt lat="43.74676" lon="7.14442">
        <ele>405</ele>
        <time>2019-02-23T08:13:52.000Z</time>
      </trkpt>
      <trkpt lat="43.74676" lon="7.14441">
        <ele>404.79998779297</ele>
        <time>2019-02-23T08:13:56.000Z</time>
      </trkpt>
      <trkpt lat="43.74676" lon="7.14441">
        <ele>404.60000610352</ele>
        <time>2019-02-23T08:14:06.000Z</time>
      </trkpt>
      <trkpt lat="43.74676" lon="7.14442">
        <ele>404.79998779297</ele>
        <time>2019-02-23T08:14:15.000Z</time>
      </trkpt>
      <trkpt lat="43.74677" lon="7.14443">
        <ele>404.79998779297</ele>
        <time>2019-02-23T08:14:16.000Z</time>
      </trkpt>
      <trkpt lat="43.74686" lon="7.14453">
        <ele>404.79998779297</ele>
        <time>2019-02-23T08:14:22.000Z</time>
      </trkpt>
      <trkpt lat="43.74703" lon="7.14465">
        <ele>405.39999389648</ele>
        <time>2019-02-23T08:14:30.000Z</time>
      </trkpt>
      <trkpt lat="43.74705" lon="7.14467">
        <ele>405.60000610352</ele>
        <time>2019-02-23T08:14:31.000Z</time>
      </trkpt>
      <trkpt lat="43.74723" lon="7.14483">
        <ele>406.79998779297</ele>
        <time>2019-02-23T08:14:40.000Z</time>
      </trkpt>
      <trkpt lat="43.74728" lon="7.14487">
        <ele>407</ele>
        <time>2019-02-23T08:14:42.000Z</time>
      </trkpt>
      <trkpt lat="43.7474" lon="7.14498">
        <ele>407.79998779297</ele>
        <time>2019-02-23T08:14:48.000Z</time>
      </trkpt>
      <trkpt lat="43.74742" lon="7.145">
        <ele>407.79998779297</ele>
        <time>2019-02-23T08:14:49.000Z</time>
      </trkpt>
      <trkpt lat="43.74757" lon="7.14505">
        <ele>408.79998779297</ele>
        <time>2019-02-23T08:14:55.000Z</time>
      </trkpt>
      <trkpt lat="43.74759" lon="7.14505">
        <ele>409</ele>
        <time>2019-02-23T08:14:56.000Z</time>
      </trkpt>
      <trkpt lat="43.74771" lon="7.14503">
        <ele>409.39999389648</ele>
        <time>2019-02-23T08:15:01.000Z</time>
      </trkpt>
      <trkpt lat="43.74783" lon="7.145">
        <ele>409.79998779297</ele>
        <time>2019-02-23T08:15:06.000Z</time>
      </trkpt>
      <trkpt lat="43.74785" lon="7.14499">
        <ele>410</ele>
        <time>2019-02-23T08:15:07.000Z</time>
      </trkpt>
      <trkpt lat="43.74792" lon="7.14496">
        <ele>410.60000610352</ele>
        <time>2019-02-23T08:15:11.000Z</time>
      </trkpt>
      <trkpt lat="43.74795" lon="7.14494">
        <ele>411</ele>
        <time>2019-02-23T08:15:13.000Z</time>
      </trkpt>
      <trkpt lat="43.74806" lon="7.14491">
        <ele>412.20001220703</ele>
        <time>2019-02-23T08:15:20.000Z</time>
      </trkpt>
      <trkpt lat="43.74812" lon="7.14489">
        <ele>413.20001220703</ele>
        <time>2019-02-23T08:15:25.000Z</time>
      </trkpt>
      <trkpt lat="43.74816" lon="7.14487">
        <ele>414</ele>
        <time>2019-02-23T08:15:28.000Z</time>
      </trkpt>
      <trkpt lat="43.74819" lon="7.14486">
        <ele>414.60000610352</ele>
        <time>2019-02-23T08:15:30.000Z</time>
      </trkpt>
      <trkpt lat="43.74825" lon="7.14483">
        <ele>415.60000610352</ele>
        <time>2019-02-23T08:15:35.000Z</time>
      </trkpt>
      <trkpt lat="43.74831" lon="7.14481">
        <ele>416.20001220703</ele>
        <time>2019-02-23T08:15:39.000Z</time>
      </trkpt>
      <trkpt lat="43.74833" lon="7.14481">
        <ele>416.60000610352</ele>
        <time>2019-02-23T08:15:41.000Z</time>
      </trkpt>
      <trkpt lat="43.74836" lon="7.14481">
        <ele>417</ele>
        <time>2019-02-23T08:15:43.000Z</time>
      </trkpt>
      <trkpt lat="43.74839" lon="7.1448">
        <ele>417.60000610352</ele>
        <time>2019-02-23T08:15:46.000Z</time>
      </trkpt>
      <trkpt lat="43.74844" lon="7.14479">
        <ele>418.20001220703</ele>
        <time>2019-02-23T08:15:49.000Z</time>
      </trkpt>
      <trkpt lat="43.74846" lon="7.1448">
        <ele>418.60000610352</ele>
        <time>2019-02-23T08:15:51.000Z</time>
      </trkpt>
      <trkpt lat="43.74851" lon="7.1448">
        <ele>419.39999389648</ele>
        <time>2019-02-23T08:15:55.000Z</time>
      </trkpt>
      <trkpt lat="43.74853" lon="7.14478">
        <ele>419.79998779297</ele>
        <time>2019-02-23T08:15:57.000Z</time>
      </trkpt>
      <trkpt lat="43.74859" lon="7.14478">
        <ele>420.60000610352</ele>
        <time>2019-02-23T08:16:01.000Z</time>
      </trkpt>
      <trkpt lat="43.7486" lon="7.14478">
        <ele>420.79998779297</ele>
        <time>2019-02-23T08:16:02.000Z</time>
      </trkpt>
      <trkpt lat="43.74864" lon="7.14477">
        <ele>421.39999389648</ele>
        <time>2019-02-23T08:16:05.000Z</time>
      </trkpt>
      <trkpt lat="43.74868" lon="7.14474">
        <ele>422</ele>
        <time>2019-02-23T08:16:08.000Z</time>
      </trkpt>
      <trkpt lat="43.74877" lon="7.14469">
        <ele>423.20001220703</ele>
        <time>2019-02-23T08:16:15.000Z</time>
      </trkpt>
      <trkpt lat="43.74878" lon="7.14468">
        <ele>423.20001220703</ele>
        <time>2019-02-23T08:16:16.000Z</time>
      </trkpt>
      <trkpt lat="43.74884" lon="7.14466">
        <ele>424.20001220703</ele>
        <time>2019-02-23T08:16:21.000Z</time>
      </trkpt>
      <trkpt lat="43.74886" lon="7.14464">
        <ele>424.39999389648</ele>
        <time>2019-02-23T08:16:23.000Z</time>
      </trkpt>
      <trkpt lat="43.74893" lon="7.14462">
        <ele>425.20001220703</ele>
        <time>2019-02-23T08:16:29.000Z</time>
      </trkpt>
      <trkpt lat="43.74895" lon="7.14462">
        <ele>425.39999389648</ele>
        <time>2019-02-23T08:16:30.000Z</time>
      </trkpt>
      <trkpt lat="43.749" lon="7.14459">
        <ele>426.20001220703</ele>
        <time>2019-02-23T08:16:35.000Z</time>
      </trkpt>
      <trkpt lat="43.74902" lon="7.14459">
        <ele>426.39999389648</ele>
        <time>2019-02-23T08:16:36.000Z</time>
      </trkpt>
      <trkpt lat="43.74903" lon="7.1446">
        <ele>426.60000610352</ele>
        <time>2019-02-23T08:16:37.000Z</time>
      </trkpt>
      <trkpt lat="43.74908" lon="7.14462">
        <ele>427.39999389648</ele>
        <time>2019-02-23T08:16:41.000Z</time>
      </trkpt>
      <trkpt lat="43.74913" lon="7.14462">
        <ele>428</ele>
        <time>2019-02-23T08:16:45.000Z</time>
      </trkpt>
      <trkpt lat="43.74916" lon="7.14462">
        <ele>428.39999389648</ele>
        <time>2019-02-23T08:16:47.000Z</time>
      </trkpt>
      <trkpt lat="43.74921" lon="7.14465">
        <ele>429</ele>
        <time>2019-02-23T08:16:51.000Z</time>
      </trkpt>
      <trkpt lat="43.74925" lon="7.14466">
        <ele>429.39999389648</ele>
        <time>2019-02-23T08:16:54.000Z</time>
      </trkpt>
      <trkpt lat="43.74932" lon="7.14468">
        <ele>430.39999389648</ele>
        <time>2019-02-23T08:17:00.000Z</time>
      </trkpt>
      <trkpt lat="43.74933" lon="7.14469">
        <ele>430.39999389648</ele>
        <time>2019-02-23T08:17:01.000Z</time>
      </trkpt>
      <trkpt lat="43.74934" lon="7.14472">
        <ele>430.79998779297</ele>
        <time>2019-02-23T08:17:03.000Z</time>
      </trkpt>
      <trkpt lat="43.74933" lon="7.14475">
        <ele>431</ele>
        <time>2019-02-23T08:17:05.000Z</time>
      </trkpt>
      <trkpt lat="43.74931" lon="7.14475">
        <ele>431.39999389648</ele>
        <time>2019-02-23T08:17:10.000Z</time>
      </trkpt>
      <trkpt lat="43.74931" lon="7.14474">
        <ele>430.79998779297</ele>
        <time>2019-02-23T08:17:35.000Z</time>
      </trkpt>
      <trkpt lat="43.74931" lon="7.14473">
        <ele>430.39999389648</ele>
        <time>2019-02-23T08:17:59.000Z</time>
      </trkpt>
      <trkpt lat="43.7493" lon="7.14473">
        <ele>430.20001220703</ele>
        <time>2019-02-23T08:18:24.000Z</time>
      </trkpt>
      <trkpt lat="43.7493" lon="7.14472">
        <ele>430.20001220703</ele>
        <time>2019-02-23T08:18:51.000Z</time>
      </trkpt>
      <trkpt lat="43.7493" lon="7.14471">
        <ele>429.60000610352</ele>
        <time>2019-02-23T08:18:57.000Z</time>
      </trkpt>
      <trkpt lat="43.74929" lon="7.14471">
        <ele>430.20001220703</ele>
        <time>2019-02-23T08:19:11.000Z</time>
      </trkpt>
      <trkpt lat="43.74929" lon="7.1447">
        <ele>430.20001220703</ele>
        <time>2019-02-23T08:19:22.000Z</time>
      </trkpt>
      <trkpt lat="43.7493" lon="7.1447">
        <ele>430.20001220703</ele>
        <time>2019-02-23T08:19:33.000Z</time>
      </trkpt>
      <trkpt lat="43.7493" lon="7.14469">
        <ele>430.39999389648</ele>
        <time>2019-02-23T08:19:41.000Z</time>
      </trkpt>
      <trkpt lat="43.74931" lon="7.14468">
        <ele>430.39999389648</ele>
        <time>2019-02-23T08:19:42.000Z</time>
      </trkpt>
      <trkpt lat="43.7494" lon="7.14467">
        <ele>430.39999389648</ele>
        <time>2019-02-23T08:19:47.000Z</time>
      </trkpt>
      <trkpt lat="43.74949" lon="7.14471">
        <ele>431.60000610352</ele>
        <time>2019-02-23T08:19:53.000Z</time>
      </trkpt>
      <trkpt lat="43.7495" lon="7.14471">
        <ele>431.79998779297</ele>
        <time>2019-02-23T08:19:54.000Z</time>
      </trkpt>
      <trkpt lat="43.74957" lon="7.14472">
        <ele>432.79998779297</ele>
        <time>2019-02-23T08:19:58.000Z</time>
      </trkpt>
      <trkpt lat="43.74961" lon="7.14474">
        <ele>433.60000610352</ele>
        <time>2019-02-23T08:20:01.000Z</time>
      </trkpt>
      <trkpt lat="43.74962" lon="7.14475">
        <ele>433.79998779297</ele>
        <time>2019-02-23T08:20:02.000Z</time>
      </trkpt>
      <trkpt lat="43.74969" lon="7.14482">
        <ele>435</ele>
        <time>2019-02-23T08:20:07.000Z</time>
      </trkpt>
      <trkpt lat="43.74971" lon="7.14485">
        <ele>435</ele>
        <time>2019-02-23T08:20:08.000Z</time>
      </trkpt>
      <trkpt lat="43.74975" lon="7.14503">
        <ele>435</ele>
        <time>2019-02-23T08:20:13.000Z</time>
      </trkpt>
      <trkpt lat="43.74969" lon="7.14512">
        <ele>435</ele>
        <time>2019-02-23T08:20:17.000Z</time>
      </trkpt>
      <trkpt lat="43.74966" lon="7.14519">
        <ele>435.60000610352</ele>
        <time>2019-02-23T08:20:20.000Z</time>
      </trkpt>
      <trkpt lat="43.74967" lon="7.14523">
        <ele>435.79998779297</ele>
        <time>2019-02-23T08:20:22.000Z</time>
      </trkpt>
      <trkpt lat="43.74969" lon="7.14522">
        <ele>436</ele>
        <time>2019-02-23T08:20:23.000Z</time>
      </trkpt>
      <trkpt lat="43.74974" lon="7.1452">
        <ele>436.39999389648</ele>
        <time>2019-02-23T08:20:26.000Z</time>
      </trkpt>
      <trkpt lat="43.7498" lon="7.14518">
        <ele>437</ele>
        <time>2019-02-23T08:20:29.000Z</time>
      </trkpt>
      <trkpt lat="43.74982" lon="7.14517">
        <ele>437</ele>
        <time>2019-02-23T08:20:30.000Z</time>
      </trkpt>
      <trkpt lat="43.74987" lon="7.14518">
        <ele>437.39999389648</ele>
        <time>2019-02-23T08:20:32.000Z</time>
      </trkpt>
      <trkpt lat="43.74997" lon="7.14514">
        <ele>438</ele>
        <time>2019-02-23T08:20:37.000Z</time>
      </trkpt>
      <trkpt lat="43.75" lon="7.14511">
        <ele>438.39999389648</ele>
        <time>2019-02-23T08:20:39.000Z</time>
      </trkpt>
      <trkpt lat="43.75006" lon="7.14503">
        <ele>439.20001220703</ele>
        <time>2019-02-23T08:20:43.000Z</time>
      </trkpt>
      <trkpt lat="43.75009" lon="7.14498">
        <ele>439.60000610352</ele>
        <time>2019-02-23T08:20:45.000Z</time>
      </trkpt>
      <trkpt lat="43.75016" lon="7.1449">
        <ele>440.39999389648</ele>
        <time>2019-02-23T08:20:49.000Z</time>
      </trkpt>
      <trkpt lat="43.75019" lon="7.14486">
        <ele>440.60000610352</ele>
        <time>2019-02-23T08:20:51.000Z</time>
      </trkpt>
      <trkpt lat="43.75025" lon="7.14474">
        <ele>441.39999389648</ele>
        <time>2019-02-23T08:20:56.000Z</time>
      </trkpt>
      <trkpt lat="43.75028" lon="7.14463">
        <ele>442</ele>
        <time>2019-02-23T08:21:00.000Z</time>
      </trkpt>
      <trkpt lat="43.75029" lon="7.14455">
        <ele>442.39999389648</ele>
        <time>2019-02-23T08:21:03.000Z</time>
      </trkpt>
      <trkpt lat="43.7503" lon="7.14442">
        <ele>443.20001220703</ele>
        <time>2019-02-23T08:21:08.000Z</time>
      </trkpt>
      <trkpt lat="43.7503" lon="7.14439">
        <ele>443.39999389648</ele>
        <time>2019-02-23T08:21:09.000Z</time>
      </trkpt>
      <trkpt lat="43.7503" lon="7.14424">
        <ele>444.20001220703</ele>
        <time>2019-02-23T08:21:15.000Z</time>
      </trkpt>
      <trkpt lat="43.75031" lon="7.14419">
        <ele>444.60000610352</ele>
        <time>2019-02-23T08:21:17.000Z</time>
      </trkpt>
      <trkpt lat="43.75034" lon="7.14418">
        <ele>445</ele>
        <time>2019-02-23T08:21:19.000Z</time>
      </trkpt>
      <trkpt lat="43.75037" lon="7.14423">
        <ele>445.39999389648</ele>
        <time>2019-02-23T08:21:22.000Z</time>
      </trkpt>
      <trkpt lat="43.75037" lon="7.14426">
        <ele>445.60000610352</ele>
        <time>2019-02-23T08:21:23.000Z</time>
      </trkpt>
      <trkpt lat="43.75037" lon="7.14443">
        <ele>446.79998779297</ele>
        <time>2019-02-23T08:21:30.000Z</time>
      </trkpt>
      <trkpt lat="43.75037" lon="7.14452">
        <ele>447.39999389648</ele>
        <time>2019-02-23T08:21:34.000Z</time>
      </trkpt>
      <trkpt lat="43.75037" lon="7.14457">
        <ele>447.60000610352</ele>
        <time>2019-02-23T08:21:36.000Z</time>
      </trkpt>
      <trkpt lat="43.75036" lon="7.1446">
        <ele>447.79998779297</ele>
        <time>2019-02-23T08:21:37.000Z</time>
      </trkpt>
      <trkpt lat="43.75036" lon="7.14462">
        <ele>448</ele>
        <time>2019-02-23T08:21:38.000Z</time>
      </trkpt>
      <trkpt lat="43.75034" lon="7.14474">
        <ele>448.79998779297</ele>
        <time>2019-02-23T08:21:43.000Z</time>
      </trkpt>
      <trkpt lat="43.75034" lon="7.14491">
        <ele>450</ele>
        <time>2019-02-23T08:21:50.000Z</time>
      </trkpt>
      <trkpt lat="43.75034" lon="7.14498">
        <ele>450.60000610352</ele>
        <time>2019-02-23T08:21:53.000Z</time>
      </trkpt>
      <trkpt lat="43.75034" lon="7.14503">
        <ele>451</ele>
        <time>2019-02-23T08:21:55.000Z</time>
      </trkpt>
      <trkpt lat="43.75035" lon="7.14515">
        <ele>452</ele>
        <time>2019-02-23T08:22:00.000Z</time>
      </trkpt>
      <trkpt lat="43.75035" lon="7.14517">
        <ele>452.20001220703</ele>
        <time>2019-02-23T08:22:01.000Z</time>
      </trkpt>
      <trkpt lat="43.75037" lon="7.14532">
        <ele>453.39999389648</ele>
        <time>2019-02-23T08:22:07.000Z</time>
      </trkpt>
      <trkpt lat="43.75036" lon="7.1455">
        <ele>454.39999389648</ele>
        <time>2019-02-23T08:22:14.000Z</time>
      </trkpt>
      <trkpt lat="43.75037" lon="7.14578">
        <ele>455</ele>
        <time>2019-02-23T08:22:23.000Z</time>
      </trkpt>
      <trkpt lat="43.75039" lon="7.14591">
        <ele>455.60000610352</ele>
        <time>2019-02-23T08:22:28.000Z</time>
      </trkpt>
      <trkpt lat="43.7504" lon="7.14598">
        <ele>456.39999389648</ele>
        <time>2019-02-23T08:22:31.000Z</time>
      </trkpt>
      <trkpt lat="43.7504" lon="7.146">
        <ele>456.79998779297</ele>
        <time>2019-02-23T08:22:32.000Z</time>
      </trkpt>
      <trkpt lat="43.75037" lon="7.14615">
        <ele>457.79998779297</ele>
        <time>2019-02-23T08:22:39.000Z</time>
      </trkpt>
      <trkpt lat="43.75037" lon="7.14625">
        <ele>458.39999389648</ele>
        <time>2019-02-23T08:22:44.000Z</time>
      </trkpt>
      <trkpt lat="43.75038" lon="7.14626">
        <ele>458.60000610352</ele>
        <time>2019-02-23T08:22:45.000Z</time>
      </trkpt>
      <trkpt lat="43.7504" lon="7.14629">
        <ele>458.79998779297</ele>
        <time>2019-02-23T08:22:47.000Z</time>
      </trkpt>
      <trkpt lat="43.75046" lon="7.14635">
        <ele>460</ele>
        <time>2019-02-23T08:22:53.000Z</time>
      </trkpt>
      <trkpt lat="43.75047" lon="7.14636">
        <ele>460.39999389648</ele>
        <time>2019-02-23T08:22:54.000Z</time>
      </trkpt>
      <trkpt lat="43.7505" lon="7.14642">
        <ele>461</ele>
        <time>2019-02-23T08:22:58.000Z</time>
      </trkpt>
      <trkpt lat="43.75052" lon="7.14645">
        <ele>461.60000610352</ele>
        <time>2019-02-23T08:23:01.000Z</time>
      </trkpt>
      <trkpt lat="43.75055" lon="7.14649">
        <ele>462.39999389648</ele>
        <time>2019-02-23T08:23:04.000Z</time>
      </trkpt>
      <trkpt lat="43.75059" lon="7.14654">
        <ele>463.20001220703</ele>
        <time>2019-02-23T08:23:08.000Z</time>
      </trkpt>
      <trkpt lat="43.7506" lon="7.14655">
        <ele>463.39999389648</ele>
        <time>2019-02-23T08:23:09.000Z</time>
      </trkpt>
      <trkpt lat="43.75064" lon="7.14662">
        <ele>464.60000610352</ele>
        <time>2019-02-23T08:23:14.000Z</time>
      </trkpt>
      <trkpt lat="43.75064" lon="7.14664">
        <ele>465</ele>
        <time>2019-02-23T08:23:15.000Z</time>
      </trkpt>
      <trkpt lat="43.75065" lon="7.14664">
        <ele>465.20001220703</ele>
        <time>2019-02-23T08:23:16.000Z</time>
      </trkpt>
      <trkpt lat="43.75067" lon="7.14664">
        <ele>465.79998779297</ele>
        <time>2019-02-23T08:23:18.000Z</time>
      </trkpt>
      <trkpt lat="43.75069" lon="7.14661">
        <ele>466</ele>
        <time>2019-02-23T08:23:20.000Z</time>
      </trkpt>
      <trkpt lat="43.75072" lon="7.14654">
        <ele>466.79998779297</ele>
        <time>2019-02-23T08:23:25.000Z</time>
      </trkpt>
      <trkpt lat="43.75073" lon="7.14652">
        <ele>467</ele>
        <time>2019-02-23T08:23:26.000Z</time>
      </trkpt>
      <trkpt lat="43.75076" lon="7.14645">
        <ele>467.79998779297</ele>
        <time>2019-02-23T08:23:31.000Z</time>
      </trkpt>
      <trkpt lat="43.75076" lon="7.14642">
        <ele>468.60000610352</ele>
        <time>2019-02-23T08:23:34.000Z</time>
      </trkpt>
      <trkpt lat="43.75076" lon="7.14642">
        <ele>468.60000610352</ele>
        <time>2019-02-23T08:23:35.000Z</time>
      </trkpt>
      <trkpt lat="43.75075" lon="7.14641">
        <ele>468.79998779297</ele>
        <time>2019-02-23T08:23:37.000Z</time>
      </trkpt>
      <trkpt lat="43.75075" lon="7.14641">
        <ele>469</ele>
        <time>2019-02-23T08:23:38.000Z</time>
      </trkpt>
      <trkpt lat="43.75076" lon="7.14642">
        <ele>469.20001220703</ele>
        <time>2019-02-23T08:23:44.000Z</time>
      </trkpt>
      <trkpt lat="43.75077" lon="7.14642">
        <ele>469</ele>
        <time>2019-02-23T08:23:50.000Z</time>
      </trkpt>
      <trkpt lat="43.75077" lon="7.14642">
        <ele>468.79998779297</ele>
        <time>2019-02-23T08:23:54.000Z</time>
      </trkpt>
      <trkpt lat="43.75077" lon="7.14642">
        <ele>469</ele>
        <time>2019-02-23T08:24:05.000Z</time>
      </trkpt>
      <trkpt lat="43.75078" lon="7.14643">
        <ele>468.79998779297</ele>
        <time>2019-02-23T08:24:15.000Z</time>
      </trkpt>
      <trkpt lat="43.75078" lon="7.14644">
        <ele>468.20001220703</ele>
        <time>2019-02-23T08:24:26.000Z</time>
      </trkpt>
      <trkpt lat="43.75077" lon="7.14645">
        <ele>468.39999389648</ele>
        <time>2019-02-23T08:24:31.000Z</time>
      </trkpt>
      <trkpt lat="43.75078" lon="7.14645">
        <ele>468.79998779297</ele>
        <time>2019-02-23T08:24:40.000Z</time>
      </trkpt>
      <trkpt lat="43.75078" lon="7.14644">
        <ele>469</ele>
        <time>2019-02-23T08:24:48.000Z</time>
      </trkpt>
      <trkpt lat="43.75078" lon="7.14645">
        <ele>469</ele>
        <time>2019-02-23T08:24:58.000Z</time>
      </trkpt>
      <trkpt lat="43.75077" lon="7.14644">
        <ele>468.60000610352</ele>
        <time>2019-02-23T08:25:04.000Z</time>
      </trkpt>
      <trkpt lat="43.75078" lon="7.14642">
        <ele>469</ele>
        <time>2019-02-23T08:25:09.000Z</time>
      </trkpt>
      <trkpt lat="43.75084" lon="7.14636">
        <ele>469.39999389648</ele>
        <time>2019-02-23T08:25:15.000Z</time>
      </trkpt>
      <trkpt lat="43.75086" lon="7.14633">
        <ele>470</ele>
        <time>2019-02-23T08:25:17.000Z</time>
      </trkpt>
      <trkpt lat="43.75091" lon="7.14631">
        <ele>471</ele>
        <time>2019-02-23T08:25:21.000Z</time>
      </trkpt>
      <trkpt lat="43.75092" lon="7.1463">
        <ele>471.39999389648</ele>
        <time>2019-02-23T08:25:22.000Z</time>
      </trkpt>
      <trkpt lat="43.75095" lon="7.14629">
        <ele>472.20001220703</ele>
        <time>2019-02-23T08:25:25.000Z</time>
      </trkpt>
      <trkpt lat="43.75098" lon="7.14628">
        <ele>473.39999389648</ele>
        <time>2019-02-23T08:25:28.000Z</time>
      </trkpt>
      <trkpt lat="43.75099" lon="7.14628">
        <ele>473.60000610352</ele>
        <time>2019-02-23T08:25:29.000Z</time>
      </trkpt>
      <trkpt lat="43.75101" lon="7.14626">
        <ele>474.60000610352</ele>
        <time>2019-02-23T08:25:32.000Z</time>
      </trkpt>
      <trkpt lat="43.75105" lon="7.14622">
        <ele>475.39999389648</ele>
        <time>2019-02-23T08:25:35.000Z</time>
      </trkpt>
      <trkpt lat="43.75106" lon="7.14622">
        <ele>475.60000610352</ele>
        <time>2019-02-23T08:25:36.000Z</time>
      </trkpt>
      <trkpt lat="43.75107" lon="7.1462">
        <ele>476.39999389648</ele>
        <time>2019-02-23T08:25:38.000Z</time>
      </trkpt>
      <trkpt lat="43.75108" lon="7.14619">
        <ele>476.79998779297</ele>
        <time>2019-02-23T08:25:39.000Z</time>
      </trkpt>
      <trkpt lat="43.75113" lon="7.14614">
        <ele>478</ele>
        <time>2019-02-23T08:25:44.000Z</time>
      </trkpt>
      <trkpt lat="43.75114" lon="7.14613">
        <ele>478.39999389648</ele>
        <time>2019-02-23T08:25:45.000Z</time>
      </trkpt>
      <trkpt lat="43.75117" lon="7.1461">
        <ele>479.20001220703</ele>
        <time>2019-02-23T08:25:49.000Z</time>
      </trkpt>
      <trkpt lat="43.75121" lon="7.14604">
        <ele>480.39999389648</ele>
        <time>2019-02-23T08:25:54.000Z</time>
      </trkpt>
      <trkpt lat="43.75122" lon="7.14603">
        <ele>480.60000610352</ele>
        <time>2019-02-23T08:25:55.000Z</time>
      </trkpt>
      <trkpt lat="43.75126" lon="7.14596">
        <ele>481.39999389648</ele>
        <time>2019-02-23T08:26:00.000Z</time>
      </trkpt>
      <trkpt lat="43.75127" lon="7.14594">
        <ele>481.79998779297</ele>
        <time>2019-02-23T08:26:02.000Z</time>
      </trkpt>
      <trkpt lat="43.7513" lon="7.14588">
        <ele>482.60000610352</ele>
        <time>2019-02-23T08:26:07.000Z</time>
      </trkpt>
      <trkpt lat="43.75132" lon="7.14584">
        <ele>483</ele>
        <time>2019-02-23T08:26:10.000Z</time>
      </trkpt>
      <trkpt lat="43.75133" lon="7.14578">
        <ele>483.60000610352</ele>
        <time>2019-02-23T08:26:14.000Z</time>
      </trkpt>
      <trkpt lat="43.75135" lon="7.1457">
        <ele>484.39999389648</ele>
        <time>2019-02-23T08:26:19.000Z</time>
      </trkpt>
      <trkpt lat="43.75139" lon="7.14566">
        <ele>484.79998779297</ele>
        <time>2019-02-23T08:26:22.000Z</time>
      </trkpt>
      <trkpt lat="43.7514" lon="7.14565">
        <ele>485</ele>
        <time>2019-02-23T08:26:24.000Z</time>
      </trkpt>
      <trkpt lat="43.7514" lon="7.14558">
        <ele>486</ele>
        <time>2019-02-23T08:26:28.000Z</time>
      </trkpt>
      <trkpt lat="43.75141" lon="7.14557">
        <ele>486</ele>
        <time>2019-02-23T08:26:29.000Z</time>
      </trkpt>
      <trkpt lat="43.75142" lon="7.14554">
        <ele>486.39999389648</ele>
        <time>2019-02-23T08:26:31.000Z</time>
      </trkpt>
      <trkpt lat="43.75144" lon="7.14551">
        <ele>487</ele>
        <time>2019-02-23T08:26:34.000Z</time>
      </trkpt>
      <trkpt lat="43.75146" lon="7.14543">
        <ele>488.20001220703</ele>
        <time>2019-02-23T08:26:40.000Z</time>
      </trkpt>
      <trkpt lat="43.75147" lon="7.14542">
        <ele>488.39999389648</ele>
        <time>2019-02-23T08:26:41.000Z</time>
      </trkpt>
      <trkpt lat="43.75149" lon="7.14537">
        <ele>489.39999389648</ele>
        <time>2019-02-23T08:26:45.000Z</time>
      </trkpt>
      <trkpt lat="43.75151" lon="7.14534">
        <ele>490</ele>
        <time>2019-02-23T08:26:48.000Z</time>
      </trkpt>
      <trkpt lat="43.75151" lon="7.14533">
        <ele>490.20001220703</ele>
        <time>2019-02-23T08:26:49.000Z</time>
      </trkpt>
      <trkpt lat="43.75151" lon="7.14531">
        <ele>490.60000610352</ele>
        <time>2019-02-23T08:26:50.000Z</time>
      </trkpt>
      <trkpt lat="43.75152" lon="7.14527">
        <ele>491.20001220703</ele>
        <time>2019-02-23T08:26:53.000Z</time>
      </trkpt>
      <trkpt lat="43.75153" lon="7.14526">
        <ele>491.39999389648</ele>
        <time>2019-02-23T08:26:54.000Z</time>
      </trkpt>
      <trkpt lat="43.75154" lon="7.14525">
        <ele>491.60000610352</ele>
        <time>2019-02-23T08:26:55.000Z</time>
      </trkpt>
      <trkpt lat="43.75156" lon="7.14521">
        <ele>492.60000610352</ele>
        <time>2019-02-23T08:26:59.000Z</time>
      </trkpt>
      <trkpt lat="43.75157" lon="7.14519">
        <ele>492.79998779297</ele>
        <time>2019-02-23T08:27:00.000Z</time>
      </trkpt>
      <trkpt lat="43.75158" lon="7.14515">
        <ele>493.60000610352</ele>
        <time>2019-02-23T08:27:03.000Z</time>
      </trkpt>
      <trkpt lat="43.7516" lon="7.14513">
        <ele>494.60000610352</ele>
        <time>2019-02-23T08:27:06.000Z</time>
      </trkpt>
      <trkpt lat="43.75161" lon="7.14512">
        <ele>494.79998779297</ele>
        <time>2019-02-23T08:27:07.000Z</time>
      </trkpt>
      <trkpt lat="43.75161" lon="7.14511">
        <ele>495</ele>
        <time>2019-02-23T08:27:08.000Z</time>
      </trkpt>
      <trkpt lat="43.75163" lon="7.14507">
        <ele>495.79998779297</ele>
        <time>2019-02-23T08:27:11.000Z</time>
      </trkpt>
      <trkpt lat="43.75166" lon="7.14504">
        <ele>497</ele>
        <time>2019-02-23T08:27:15.000Z</time>
      </trkpt>
      <trkpt lat="43.75167" lon="7.14503">
        <ele>497.39999389648</ele>
        <time>2019-02-23T08:27:16.000Z</time>
      </trkpt>
      <trkpt lat="43.75168" lon="7.14499">
        <ele>498.20001220703</ele>
        <time>2019-02-23T08:27:19.000Z</time>
      </trkpt>
      <trkpt lat="43.7517" lon="7.14495">
        <ele>499</ele>
        <time>2019-02-23T08:27:22.000Z</time>
      </trkpt>
      <trkpt lat="43.75171" lon="7.14494">
        <ele>499.20001220703</ele>
        <time>2019-02-23T08:27:23.000Z</time>
      </trkpt>
      <trkpt lat="43.75173" lon="7.14491">
        <ele>500</ele>
        <time>2019-02-23T08:27:26.000Z</time>
      </trkpt>
      <trkpt lat="43.75174" lon="7.14489">
        <ele>500.20001220703</ele>
        <time>2019-02-23T08:27:27.000Z</time>
      </trkpt>
      <trkpt lat="43.75175" lon="7.14487">
        <ele>500.79998779297</ele>
        <time>2019-02-23T08:27:29.000Z</time>
      </trkpt>
      <trkpt lat="43.75177" lon="7.14483">
        <ele>501.39999389648</ele>
        <time>2019-02-23T08:27:32.000Z</time>
      </trkpt>
      <trkpt lat="43.75179" lon="7.14479">
        <ele>502.39999389648</ele>
        <time>2019-02-23T08:27:35.000Z</time>
      </trkpt>
      <trkpt lat="43.75179" lon="7.14478">
        <ele>502.60000610352</ele>
        <time>2019-02-23T08:27:36.000Z</time>
      </trkpt>
      <trkpt lat="43.75179" lon="7.14475">
        <ele>503.20001220703</ele>
        <time>2019-02-23T08:27:38.000Z</time>
      </trkpt>
      <trkpt lat="43.7518" lon="7.14472">
        <ele>503.79998779297</ele>
        <time>2019-02-23T08:27:40.000Z</time>
      </trkpt>
      <trkpt lat="43.75182" lon="7.14468">
        <ele>505</ele>
        <time>2019-02-23T08:27:44.000Z</time>
      </trkpt>
      <trkpt lat="43.75183" lon="7.14467">
        <ele>505.20001220703</ele>
        <time>2019-02-23T08:27:45.000Z</time>
      </trkpt>
      <trkpt lat="43.75186" lon="7.14457">
        <ele>506</ele>
        <time>2019-02-23T08:27:52.000Z</time>
      </trkpt>
      <trkpt lat="43.75187" lon="7.14448">
        <ele>507</ele>
        <time>2019-02-23T08:27:57.000Z</time>
      </trkpt>
      <trkpt lat="43.75187" lon="7.14444">
        <ele>507.60000610352</ele>
        <time>2019-02-23T08:28:00.000Z</time>
      </trkpt>
      <trkpt lat="43.75186" lon="7.14435">
        <ele>508</ele>
        <time>2019-02-23T08:28:05.000Z</time>
      </trkpt>
      <trkpt lat="43.75188" lon="7.14426">
        <ele>508.39999389648</ele>
        <time>2019-02-23T08:28:11.000Z</time>
      </trkpt>
      <trkpt lat="43.75193" lon="7.14413">
        <ele>509</ele>
        <time>2019-02-23T08:28:19.000Z</time>
      </trkpt>
      <trkpt lat="43.75194" lon="7.14412">
        <ele>509.20001220703</ele>
        <time>2019-02-23T08:28:20.000Z</time>
      </trkpt>
      <trkpt lat="43.75199" lon="7.14401">
        <ele>510.20001220703</ele>
        <time>2019-02-23T08:28:27.000Z</time>
      </trkpt>
      <trkpt lat="43.75203" lon="7.14393">
        <ele>511.20001220703</ele>
        <time>2019-02-23T08:28:32.000Z</time>
      </trkpt>
      <trkpt lat="43.75207" lon="7.14389">
        <ele>512</ele>
        <time>2019-02-23T08:28:35.000Z</time>
      </trkpt>
      <trkpt lat="43.75208" lon="7.14388">
        <ele>512.20001220703</ele>
        <time>2019-02-23T08:28:36.000Z</time>
      </trkpt>
      <trkpt lat="43.75212" lon="7.14384">
        <ele>513.20001220703</ele>
        <time>2019-02-23T08:28:40.000Z</time>
      </trkpt>
      <trkpt lat="43.75215" lon="7.1438">
        <ele>514.20001220703</ele>
        <time>2019-02-23T08:28:44.000Z</time>
      </trkpt>
      <trkpt lat="43.75216" lon="7.14379">
        <ele>514.40002441406</ele>
        <time>2019-02-23T08:28:45.000Z</time>
      </trkpt>
      <trkpt lat="43.75225" lon="7.14374">
        <ele>515.40002441406</ele>
        <time>2019-02-23T08:28:52.000Z</time>
      </trkpt>
      <trkpt lat="43.75235" lon="7.14367">
        <ele>515.59997558594</ele>
        <time>2019-02-23T08:28:58.000Z</time>
      </trkpt>
      <trkpt lat="43.75248" lon="7.14351">
        <ele>513.79998779297</ele>
        <time>2019-02-23T08:29:03.000Z</time>
      </trkpt>
      <trkpt lat="43.75246" lon="7.14339">
        <ele>512.59997558594</ele>
        <time>2019-02-23T08:29:06.000Z</time>
      </trkpt>
      <trkpt lat="43.75239" lon="7.14335">
        <ele>512.59997558594</ele>
        <time>2019-02-23T08:29:10.000Z</time>
      </trkpt>
      <trkpt lat="43.75233" lon="7.14329">
        <ele>514</ele>
        <time>2019-02-23T08:29:14.000Z</time>
      </trkpt>
      <trkpt lat="43.75229" lon="7.14324">
        <ele>514.59997558594</ele>
        <time>2019-02-23T08:29:17.000Z</time>
      </trkpt>
      <trkpt lat="43.75228" lon="7.14323">
        <ele>515</ele>
        <time>2019-02-23T08:29:18.000Z</time>
      </trkpt>
      <trkpt lat="43.75223" lon="7.14316">
        <ele>516</ele>
        <time>2019-02-23T08:29:22.000Z</time>
      </trkpt>
      <trkpt lat="43.75218" lon="7.1431">
        <ele>517</ele>
        <time>2019-02-23T08:29:26.000Z</time>
      </trkpt>
      <trkpt lat="43.75217" lon="7.14309">
        <ele>517.20001220703</ele>
        <time>2019-02-23T08:29:27.000Z</time>
      </trkpt>
      <trkpt lat="43.75209" lon="7.14301">
        <ele>518.20001220703</ele>
        <time>2019-02-23T08:29:33.000Z</time>
      </trkpt>
      <trkpt lat="43.75208" lon="7.14299">
        <ele>518.40002441406</ele>
        <time>2019-02-23T08:29:34.000Z</time>
      </trkpt>
      <trkpt lat="43.75194" lon="7.14287">
        <ele>519</ele>
        <time>2019-02-23T08:29:42.000Z</time>
      </trkpt>
      <trkpt lat="43.75186" lon="7.14279">
        <ele>519.40002441406</ele>
        <time>2019-02-23T08:29:47.000Z</time>
      </trkpt>
      <trkpt lat="43.75176" lon="7.14268">
        <ele>520</ele>
        <time>2019-02-23T08:29:53.000Z</time>
      </trkpt>
      <trkpt lat="43.75155" lon="7.14249">
        <ele>520</ele>
        <time>2019-02-23T08:30:04.000Z</time>
      </trkpt>
      <trkpt lat="43.7515" lon="7.14243">
        <ele>520.40002441406</ele>
        <time>2019-02-23T08:30:07.000Z</time>
      </trkpt>
      <trkpt lat="43.75143" lon="7.14234">
        <ele>521.40002441406</ele>
        <time>2019-02-23T08:30:12.000Z</time>
      </trkpt>
      <trkpt lat="43.75142" lon="7.14232">
        <ele>521.79998779297</ele>
        <time>2019-02-23T08:30:13.000Z</time>
      </trkpt>
      <trkpt lat="43.75138" lon="7.14227">
        <ele>522.79998779297</ele>
        <time>2019-02-23T08:30:16.000Z</time>
      </trkpt>
      <trkpt lat="43.75133" lon="7.14222">
        <ele>524</ele>
        <time>2019-02-23T08:30:19.000Z</time>
      </trkpt>
      <trkpt lat="43.75132" lon="7.14221">
        <ele>524</ele>
        <time>2019-02-23T08:30:20.000Z</time>
      </trkpt>
      <trkpt lat="43.75124" lon="7.14215">
        <ele>525</ele>
        <time>2019-02-23T08:30:25.000Z</time>
      </trkpt>
      <trkpt lat="43.75115" lon="7.14208">
        <ele>525.40002441406</ele>
        <time>2019-02-23T08:30:30.000Z</time>
      </trkpt>
      <trkpt lat="43.75107" lon="7.14201">
        <ele>526</ele>
        <time>2019-02-23T08:30:35.000Z</time>
      </trkpt>
      <trkpt lat="43.75103" lon="7.14195">
        <ele>526.79998779297</ele>
        <time>2019-02-23T08:30:38.000Z</time>
      </trkpt>
      <trkpt lat="43.751" lon="7.14193">
        <ele>527.20001220703</ele>
        <time>2019-02-23T08:30:40.000Z</time>
      </trkpt>
      <trkpt lat="43.75093" lon="7.14187">
        <ele>528</ele>
        <time>2019-02-23T08:30:44.000Z</time>
      </trkpt>
      <trkpt lat="43.75091" lon="7.14186">
        <ele>528.20001220703</ele>
        <time>2019-02-23T08:30:45.000Z</time>
      </trkpt>
      <trkpt lat="43.75079" lon="7.14179">
        <ele>528.79998779297</ele>
        <time>2019-02-23T08:30:51.000Z</time>
      </trkpt>
      <trkpt lat="43.75059" lon="7.1417">
        <ele>528.20001220703</ele>
        <time>2019-02-23T08:30:59.000Z</time>
      </trkpt>
      <trkpt lat="43.75051" lon="7.14167">
        <ele>528.20001220703</ele>
        <time>2019-02-23T08:31:04.000Z</time>
      </trkpt>
      <trkpt lat="43.75053" lon="7.14162">
        <ele>528</ele>
        <time>2019-02-23T08:31:07.000Z</time>
      </trkpt>
      <trkpt lat="43.75058" lon="7.14163">
        <ele>528.59997558594</ele>
        <time>2019-02-23T08:31:11.000Z</time>
      </trkpt>
      <trkpt lat="43.75062" lon="7.14165">
        <ele>529.40002441406</ele>
        <time>2019-02-23T08:31:15.000Z</time>
      </trkpt>
      <trkpt lat="43.75063" lon="7.14165">
        <ele>529.40002441406</ele>
        <time>2019-02-23T08:31:16.000Z</time>
      </trkpt>
      <trkpt lat="43.75064" lon="7.14165">
        <ele>530.40002441406</ele>
        <time>2019-02-23T08:31:21.000Z</time>
      </trkpt>
      <trkpt lat="43.75065" lon="7.14165">
        <ele>530.79998779297</ele>
        <time>2019-02-23T08:31:26.000Z</time>
      </trkpt>
      <trkpt lat="43.75066" lon="7.14165">
        <ele>530.79998779297</ele>
        <time>2019-02-23T08:31:32.000Z</time>
      </trkpt>
      <trkpt lat="43.75065" lon="7.14165">
        <ele>531</ele>
        <time>2019-02-23T08:31:34.000Z</time>
      </trkpt>
      <trkpt lat="43.75064" lon="7.14167">
        <ele>531</ele>
        <time>2019-02-23T08:31:36.000Z</time>
      </trkpt>
      <trkpt lat="43.75064" lon="7.14167">
        <ele>530.59997558594</ele>
        <time>2019-02-23T08:31:40.000Z</time>
      </trkpt>
      <trkpt lat="43.75068" lon="7.14166">
        <ele>531</ele>
        <time>2019-02-23T08:31:46.000Z</time>
      </trkpt>
      <trkpt lat="43.75072" lon="7.14167">
        <ele>531.40002441406</ele>
        <time>2019-02-23T08:31:52.000Z</time>
      </trkpt>
      <trkpt lat="43.75073" lon="7.14166">
        <ele>531.79998779297</ele>
        <time>2019-02-23T08:31:54.000Z</time>
      </trkpt>
      <trkpt lat="43.75074" lon="7.14167">
        <ele>532.40002441406</ele>
        <time>2019-02-23T08:31:59.000Z</time>
      </trkpt>
      <trkpt lat="43.75074" lon="7.14167">
        <ele>532</ele>
        <time>2019-02-23T08:32:06.000Z</time>
      </trkpt>
      <trkpt lat="43.75074" lon="7.14167">
        <ele>532</ele>
        <time>2019-02-23T08:32:12.000Z</time>
      </trkpt>
      <trkpt lat="43.75076" lon="7.14169">
        <ele>532.40002441406</ele>
        <time>2019-02-23T08:32:20.000Z</time>
      </trkpt>
      <trkpt lat="43.75084" lon="7.14172">
        <ele>533</ele>
        <time>2019-02-23T08:32:27.000Z</time>
      </trkpt>
      <trkpt lat="43.75089" lon="7.14173">
        <ele>533.59997558594</ele>
        <time>2019-02-23T08:32:30.000Z</time>
      </trkpt>
      <trkpt lat="43.75094" lon="7.14175">
        <ele>534.59997558594</ele>
        <time>2019-02-23T08:32:34.000Z</time>
      </trkpt>
      <trkpt lat="43.75096" lon="7.14176">
        <ele>534.79998779297</ele>
        <time>2019-02-23T08:32:35.000Z</time>
      </trkpt>
      <trkpt lat="43.75102" lon="7.14179">
        <ele>535.59997558594</ele>
        <time>2019-02-23T08:32:39.000Z</time>
      </trkpt>
      <trkpt lat="43.75103" lon="7.14179">
        <ele>535.79998779297</ele>
        <time>2019-02-23T08:32:40.000Z</time>
      </trkpt>
      <trkpt lat="43.75106" lon="7.1418">
        <ele>536.79998779297</ele>
        <time>2019-02-23T08:32:42.000Z</time>
      </trkpt>
      <trkpt lat="43.75109" lon="7.1418">
        <ele>537.40002441406</ele>
        <time>2019-02-23T08:32:45.000Z</time>
      </trkpt>
      <trkpt lat="43.75112" lon="7.1418">
        <ele>538</ele>
        <time>2019-02-23T08:32:47.000Z</time>
      </trkpt>
      <trkpt lat="43.75117" lon="7.14181">
        <ele>539</ele>
        <time>2019-02-23T08:32:52.000Z</time>
      </trkpt>
      <trkpt lat="43.75125" lon="7.14183">
        <ele>540.20001220703</ele>
        <time>2019-02-23T08:32:59.000Z</time>
      </trkpt>
      <trkpt lat="43.75133" lon="7.14187">
        <ele>541.20001220703</ele>
        <time>2019-02-23T08:33:06.000Z</time>
      </trkpt>
      <trkpt lat="43.75134" lon="7.14187">
        <ele>541.40002441406</ele>
        <time>2019-02-23T08:33:07.000Z</time>
      </trkpt>
      <trkpt lat="43.7514" lon="7.1419">
        <ele>542.40002441406</ele>
        <time>2019-02-23T08:33:13.000Z</time>
      </trkpt>
      <trkpt lat="43.75142" lon="7.1419">
        <ele>542.59997558594</ele>
        <time>2019-02-23T08:33:14.000Z</time>
      </trkpt>
      <trkpt lat="43.75149" lon="7.14195">
        <ele>543</ele>
        <time>2019-02-23T08:33:21.000Z</time>
      </trkpt>
      <trkpt lat="43.75159" lon="7.14202">
        <ele>543.40002441406</ele>
        <time>2019-02-23T08:33:29.000Z</time>
      </trkpt>
      <trkpt lat="43.75162" lon="7.14204">
        <ele>543.59997558594</ele>
        <time>2019-02-23T08:33:31.000Z</time>
      </trkpt>
      <trkpt lat="43.75171" lon="7.1421">
        <ele>544</ele>
        <time>2019-02-23T08:33:38.000Z</time>
      </trkpt>
      <trkpt lat="43.75175" lon="7.14214">
        <ele>544.59997558594</ele>
        <time>2019-02-23T08:33:42.000Z</time>
      </trkpt>
      <trkpt lat="43.75178" lon="7.14215">
        <ele>545.20001220703</ele>
        <time>2019-02-23T08:33:44.000Z</time>
      </trkpt>
      <trkpt lat="43.75181" lon="7.14215">
        <ele>545.79998779297</ele>
        <time>2019-02-23T08:33:46.000Z</time>
      </trkpt>
      <trkpt lat="43.75184" lon="7.14215">
        <ele>546.40002441406</ele>
        <time>2019-02-23T08:33:49.000Z</time>
      </trkpt>
      <trkpt lat="43.75188" lon="7.14217">
        <ele>547</ele>
        <time>2019-02-23T08:33:52.000Z</time>
      </trkpt>
      <trkpt lat="43.75193" lon="7.14221">
        <ele>547.59997558594</ele>
        <time>2019-02-23T08:33:57.000Z</time>
      </trkpt>
      <trkpt lat="43.75198" lon="7.14224">
        <ele>548</ele>
        <time>2019-02-23T08:34:00.000Z</time>
      </trkpt>
      <trkpt lat="43.75204" lon="7.1423">
        <ele>548.59997558594</ele>
        <time>2019-02-23T08:34:05.000Z</time>
      </trkpt>
      <trkpt lat="43.75207" lon="7.14233">
        <ele>549</ele>
        <time>2019-02-23T08:34:07.000Z</time>
      </trkpt>
      <trkpt lat="43.75212" lon="7.14238">
        <ele>549.40002441406</ele>
        <time>2019-02-23T08:34:11.000Z</time>
      </trkpt>
      <trkpt lat="43.75219" lon="7.14241">
        <ele>550</ele>
        <time>2019-02-23T08:34:15.000Z</time>
      </trkpt>
      <trkpt lat="43.75225" lon="7.14243">
        <ele>551.20001220703</ele>
        <time>2019-02-23T08:34:19.000Z</time>
      </trkpt>
      <trkpt lat="43.75227" lon="7.14244">
        <ele>551.79998779297</ele>
        <time>2019-02-23T08:34:21.000Z</time>
      </trkpt>
      <trkpt lat="43.75229" lon="7.14244">
        <ele>552.40002441406</ele>
        <time>2019-02-23T08:34:23.000Z</time>
      </trkpt>
      <trkpt lat="43.75233" lon="7.14245">
        <ele>553.20001220703</ele>
        <time>2019-02-23T08:34:26.000Z</time>
      </trkpt>
      <trkpt lat="43.75234" lon="7.14246">
        <ele>553.40002441406</ele>
        <time>2019-02-23T08:34:27.000Z</time>
      </trkpt>
      <trkpt lat="43.75242" lon="7.14247">
        <ele>554.59997558594</ele>
        <time>2019-02-23T08:34:33.000Z</time>
      </trkpt>
      <trkpt lat="43.75244" lon="7.14247">
        <ele>554.79998779297</ele>
        <time>2019-02-23T08:34:34.000Z</time>
      </trkpt>
      <trkpt lat="43.75249" lon="7.14248">
        <ele>555.79998779297</ele>
        <time>2019-02-23T08:34:38.000Z</time>
      </trkpt>
      <trkpt lat="43.75253" lon="7.14249">
        <ele>556.59997558594</ele>
        <time>2019-02-23T08:34:41.000Z</time>
      </trkpt>
      <trkpt lat="43.75254" lon="7.14249">
        <ele>557</ele>
        <time>2019-02-23T08:34:42.000Z</time>
      </trkpt>
      <trkpt lat="43.7526" lon="7.14249">
        <ele>558</ele>
        <time>2019-02-23T08:34:46.000Z</time>
      </trkpt>
      <trkpt lat="43.75261" lon="7.1425">
        <ele>558.20001220703</ele>
        <time>2019-02-23T08:34:47.000Z</time>
      </trkpt>
      <trkpt lat="43.75265" lon="7.14249">
        <ele>559</ele>
        <time>2019-02-23T08:34:50.000Z</time>
      </trkpt>
      <trkpt lat="43.75269" lon="7.1425">
        <ele>559.79998779297</ele>
        <time>2019-02-23T08:34:54.000Z</time>
      </trkpt>
      <trkpt lat="43.75271" lon="7.14249">
        <ele>560</ele>
        <time>2019-02-23T08:34:55.000Z</time>
      </trkpt>
      <trkpt lat="43.75274" lon="7.1425">
        <ele>560.79998779297</ele>
        <time>2019-02-23T08:34:58.000Z</time>
      </trkpt>
      <trkpt lat="43.75277" lon="7.14252">
        <ele>561.40002441406</ele>
        <time>2019-02-23T08:35:01.000Z</time>
      </trkpt>
      <trkpt lat="43.75282" lon="7.14251">
        <ele>562</ele>
        <time>2019-02-23T08:35:05.000Z</time>
      </trkpt>
      <trkpt lat="43.75284" lon="7.14251">
        <ele>562.20001220703</ele>
        <time>2019-02-23T08:35:06.000Z</time>
      </trkpt>
      <trkpt lat="43.75285" lon="7.14252">
        <ele>562.40002441406</ele>
        <time>2019-02-23T08:35:07.000Z</time>
      </trkpt>
      <trkpt lat="43.7529" lon="7.14254">
        <ele>563.20001220703</ele>
        <time>2019-02-23T08:35:11.000Z</time>
      </trkpt>
      <trkpt lat="43.75292" lon="7.14255">
        <ele>563.59997558594</ele>
        <time>2019-02-23T08:35:13.000Z</time>
      </trkpt>
      <trkpt lat="43.75298" lon="7.14257">
        <ele>564.40002441406</ele>
        <time>2019-02-23T08:35:18.000Z</time>
      </trkpt>
      <trkpt lat="43.75302" lon="7.1426">
        <ele>564.79998779297</ele>
        <time>2019-02-23T08:35:22.000Z</time>
      </trkpt>
      <trkpt lat="43.75303" lon="7.14261">
        <ele>564.79998779297</ele>
        <time>2019-02-23T08:35:23.000Z</time>
      </trkpt>
      <trkpt lat="43.7531" lon="7.14269">
        <ele>565.79998779297</ele>
        <time>2019-02-23T08:35:31.000Z</time>
      </trkpt>
      <trkpt lat="43.75318" lon="7.14277">
        <ele>566.59997558594</ele>
        <time>2019-02-23T08:35:39.000Z</time>
      </trkpt>
      <trkpt lat="43.75321" lon="7.14279">
        <ele>566.79998779297</ele>
        <time>2019-02-23T08:35:41.000Z</time>
      </trkpt>
      <trkpt lat="43.75328" lon="7.14282">
        <ele>567.20001220703</ele>
        <time>2019-02-23T08:35:46.000Z</time>
      </trkpt>
      <trkpt lat="43.75332" lon="7.14283">
        <ele>568</ele>
        <time>2019-02-23T08:35:49.000Z</time>
      </trkpt>
      <trkpt lat="43.75338" lon="7.14284">
        <ele>568.59997558594</ele>
        <time>2019-02-23T08:35:54.000Z</time>
      </trkpt>
      <trkpt lat="43.75342" lon="7.14285">
        <ele>569</ele>
        <time>2019-02-23T08:35:57.000Z</time>
      </trkpt>
      <trkpt lat="43.75348" lon="7.14287">
        <ele>569.79998779297</ele>
        <time>2019-02-23T08:36:01.000Z</time>
      </trkpt>
      <trkpt lat="43.75349" lon="7.14288">
        <ele>570.20001220703</ele>
        <time>2019-02-23T08:36:02.000Z</time>
      </trkpt>
      <trkpt lat="43.75352" lon="7.1429">
        <ele>571.40002441406</ele>
        <time>2019-02-23T08:36:05.000Z</time>
      </trkpt>
      <trkpt lat="43.75356" lon="7.14292">
        <ele>571.59997558594</ele>
        <time>2019-02-23T08:36:08.000Z</time>
      </trkpt>
      <trkpt lat="43.75361" lon="7.14293">
        <ele>572.40002441406</ele>
        <time>2019-02-23T08:36:12.000Z</time>
      </trkpt>
      <trkpt lat="43.75362" lon="7.14294">
        <ele>572.59997558594</ele>
        <time>2019-02-23T08:36:13.000Z</time>
      </trkpt>
      <trkpt lat="43.75366" lon="7.14296">
        <ele>573.59997558594</ele>
        <time>2019-02-23T08:36:17.000Z</time>
      </trkpt>
      <trkpt lat="43.7537" lon="7.14298">
        <ele>574.20001220703</ele>
        <time>2019-02-23T08:36:20.000Z</time>
      </trkpt>
      <trkpt lat="43.75374" lon="7.14299">
        <ele>574.79998779297</ele>
        <time>2019-02-23T08:36:23.000Z</time>
      </trkpt>
      <trkpt lat="43.75379" lon="7.143">
        <ele>576</ele>
        <time>2019-02-23T08:36:27.000Z</time>
      </trkpt>
      <trkpt lat="43.75381" lon="7.14302">
        <ele>576.20001220703</ele>
        <time>2019-02-23T08:36:29.000Z</time>
      </trkpt>
      <trkpt lat="43.75383" lon="7.14304">
        <ele>576.59997558594</ele>
        <time>2019-02-23T08:36:31.000Z</time>
      </trkpt>
      <trkpt lat="43.75384" lon="7.14305">
        <ele>577.20001220703</ele>
        <time>2019-02-23T08:36:33.000Z</time>
      </trkpt>
      <trkpt lat="43.75387" lon="7.14306">
        <ele>578.20001220703</ele>
        <time>2019-02-23T08:36:36.000Z</time>
      </trkpt>
      <trkpt lat="43.75389" lon="7.14304">
        <ele>578.79998779297</ele>
        <time>2019-02-23T08:36:38.000Z</time>
      </trkpt>
      <trkpt lat="43.75389" lon="7.143">
        <ele>579.20001220703</ele>
        <time>2019-02-23T08:36:41.000Z</time>
      </trkpt>
      <trkpt lat="43.75388" lon="7.14297">
        <ele>579.59997558594</ele>
        <time>2019-02-23T08:36:43.000Z</time>
      </trkpt>
      <trkpt lat="43.75385" lon="7.14295">
        <ele>579.79998779297</ele>
        <time>2019-02-23T08:36:45.000Z</time>
      </trkpt>
      <trkpt lat="43.75381" lon="7.14294">
        <ele>580.20001220703</ele>
        <time>2019-02-23T08:36:48.000Z</time>
      </trkpt>
      <trkpt lat="43.75379" lon="7.14292">
        <ele>580.40002441406</ele>
        <time>2019-02-23T08:36:50.000Z</time>
      </trkpt>
      <trkpt lat="43.75376" lon="7.1429">
        <ele>581.20001220703</ele>
        <time>2019-02-23T08:36:53.000Z</time>
      </trkpt>
      <trkpt lat="43.75374" lon="7.14288">
        <ele>581.59997558594</ele>
        <time>2019-02-23T08:36:54.000Z</time>
      </trkpt>
      <trkpt lat="43.7537" lon="7.14283">
        <ele>582.79998779297</ele>
        <time>2019-02-23T08:36:59.000Z</time>
      </trkpt>
      <trkpt lat="43.75369" lon="7.14282">
        <ele>583</ele>
        <time>2019-02-23T08:37:00.000Z</time>
      </trkpt>
      <trkpt lat="43.75365" lon="7.14278">
        <ele>584</ele>
        <time>2019-02-23T08:37:04.000Z</time>
      </trkpt>
      <trkpt lat="43.75363" lon="7.14275">
        <ele>584.59997558594</ele>
        <time>2019-02-23T08:37:06.000Z</time>
      </trkpt>
      <trkpt lat="43.7536" lon="7.14272">
        <ele>585</ele>
        <time>2019-02-23T08:37:09.000Z</time>
      </trkpt>
      <trkpt lat="43.75358" lon="7.14266">
        <ele>586.40002441406</ele>
        <time>2019-02-23T08:37:13.000Z</time>
      </trkpt>
      <trkpt lat="43.7536" lon="7.14262">
        <ele>587.59997558594</ele>
        <time>2019-02-23T08:37:16.000Z</time>
      </trkpt>
      <trkpt lat="43.75361" lon="7.14261">
        <ele>587.79998779297</ele>
        <time>2019-02-23T08:37:17.000Z</time>
      </trkpt>
      <trkpt lat="43.75367" lon="7.14263">
        <ele>588.59997558594</ele>
        <time>2019-02-23T08:37:21.000Z</time>
      </trkpt>
      <trkpt lat="43.75368" lon="7.14264">
        <ele>589</ele>
        <time>2019-02-23T08:37:22.000Z</time>
      </trkpt>
      <trkpt lat="43.75371" lon="7.14264">
        <ele>589.59997558594</ele>
        <time>2019-02-23T08:37:26.000Z</time>
      </trkpt>
      <trkpt lat="43.75374" lon="7.14264">
        <ele>589.79998779297</ele>
        <time>2019-02-23T08:37:28.000Z</time>
      </trkpt>
      <trkpt lat="43.75378" lon="7.14266">
        <ele>590.59997558594</ele>
        <time>2019-02-23T08:37:32.000Z</time>
      </trkpt>
      <trkpt lat="43.75379" lon="7.14266">
        <ele>591</ele>
        <time>2019-02-23T08:37:33.000Z</time>
      </trkpt>
      <trkpt lat="43.75382" lon="7.14266">
        <ele>591.79998779297</ele>
        <time>2019-02-23T08:37:36.000Z</time>
      </trkpt>
      <trkpt lat="43.75386" lon="7.14266">
        <ele>592.40002441406</ele>
        <time>2019-02-23T08:37:39.000Z</time>
      </trkpt>
      <trkpt lat="43.75387" lon="7.14266">
        <ele>592.79998779297</ele>
        <time>2019-02-23T08:37:40.000Z</time>
      </trkpt>
      <trkpt lat="43.75393" lon="7.14267">
        <ele>593.79998779297</ele>
        <time>2019-02-23T08:37:45.000Z</time>
      </trkpt>
      <trkpt lat="43.75398" lon="7.14269">
        <ele>595</ele>
        <time>2019-02-23T08:37:50.000Z</time>
      </trkpt>
      <trkpt lat="43.75404" lon="7.14272">
        <ele>595.79998779297</ele>
        <time>2019-02-23T08:37:55.000Z</time>
      </trkpt>
      <trkpt lat="43.75405" lon="7.14273">
        <ele>596</ele>
        <time>2019-02-23T08:37:56.000Z</time>
      </trkpt>
      <trkpt lat="43.75406" lon="7.14274">
        <ele>596.20001220703</ele>
        <time>2019-02-23T08:37:57.000Z</time>
      </trkpt>
      <trkpt lat="43.75408" lon="7.14276">
        <ele>597</ele>
        <time>2019-02-23T08:38:00.000Z</time>
      </trkpt>
      <trkpt lat="43.75413" lon="7.14279">
        <ele>598.20001220703</ele>
        <time>2019-02-23T08:38:05.000Z</time>
      </trkpt>
      <trkpt lat="43.75416" lon="7.14281">
        <ele>598.40002441406</ele>
        <time>2019-02-23T08:38:07.000Z</time>
      </trkpt>
      <trkpt lat="43.75422" lon="7.14284">
        <ele>599.20001220703</ele>
        <time>2019-02-23T08:38:13.000Z</time>
      </trkpt>
      <trkpt lat="43.75426" lon="7.14288">
        <ele>599.59997558594</ele>
        <time>2019-02-23T08:38:17.000Z</time>
      </trkpt>
      <trkpt lat="43.75428" lon="7.14289">
        <ele>600</ele>
        <time>2019-02-23T08:38:19.000Z</time>
      </trkpt>
      <trkpt lat="43.75429" lon="7.1429">
        <ele>600.20001220703</ele>
        <time>2019-02-23T08:38:20.000Z</time>
      </trkpt>
      <trkpt lat="43.75435" lon="7.14293">
        <ele>601</ele>
        <time>2019-02-23T08:38:25.000Z</time>
      </trkpt>
      <trkpt lat="43.75439" lon="7.14295">
        <ele>601.20001220703</ele>
        <time>2019-02-23T08:38:28.000Z</time>
      </trkpt>
      <trkpt lat="43.75442" lon="7.14298">
        <ele>602</ele>
        <time>2019-02-23T08:38:31.000Z</time>
      </trkpt>
      <trkpt lat="43.75444" lon="7.143">
        <ele>602.40002441406</ele>
        <time>2019-02-23T08:38:33.000Z</time>
      </trkpt>
      <trkpt lat="43.75449" lon="7.14303">
        <ele>603.40002441406</ele>
        <time>2019-02-23T08:38:38.000Z</time>
      </trkpt>
      <trkpt lat="43.75451" lon="7.14303">
        <ele>603.59997558594</ele>
        <time>2019-02-23T08:38:39.000Z</time>
      </trkpt>
      <trkpt lat="43.75459" lon="7.14308">
        <ele>603.79998779297</ele>
        <time>2019-02-23T08:38:45.000Z</time>
      </trkpt>
      <trkpt lat="43.75465" lon="7.14314">
        <ele>604.79998779297</ele>
        <time>2019-02-23T08:38:51.000Z</time>
      </trkpt>
      <trkpt lat="43.75467" lon="7.14315">
        <ele>604.79998779297</ele>
        <time>2019-02-23T08:38:52.000Z</time>
      </trkpt>
      <trkpt lat="43.75472" lon="7.14317">
        <ele>605.20001220703</ele>
        <time>2019-02-23T08:38:57.000Z</time>
      </trkpt>
      <trkpt lat="43.75474" lon="7.14318">
        <ele>605.79998779297</ele>
        <time>2019-02-23T08:39:01.000Z</time>
      </trkpt>
      <trkpt lat="43.75474" lon="7.14318">
        <ele>606</ele>
        <time>2019-02-23T08:39:02.000Z</time>
      </trkpt>
      <trkpt lat="43.75476" lon="7.14319">
        <ele>606.79998779297</ele>
        <time>2019-02-23T08:39:06.000Z</time>
      </trkpt>
      <trkpt lat="43.75478" lon="7.14319">
        <ele>607.40002441406</ele>
        <time>2019-02-23T08:39:09.000Z</time>
      </trkpt>
      <trkpt lat="43.75477" lon="7.14319">
        <ele>607.40002441406</ele>
        <time>2019-02-23T08:39:25.000Z</time>
      </trkpt>
      <trkpt lat="43.75479" lon="7.14319">
        <ele>607.59997558594</ele>
        <time>2019-02-23T08:39:45.000Z</time>
      </trkpt>
      <trkpt lat="43.75482" lon="7.14319">
        <ele>607.40002441406</ele>
        <time>2019-02-23T08:39:51.000Z</time>
      </trkpt>
      <trkpt lat="43.75489" lon="7.14324">
        <ele>608</ele>
        <time>2019-02-23T08:39:57.000Z</time>
      </trkpt>
      <trkpt lat="43.7549" lon="7.14324">
        <ele>608.40002441406</ele>
        <time>2019-02-23T08:39:58.000Z</time>
      </trkpt>
      <trkpt lat="43.75497" lon="7.14327">
        <ele>609.20001220703</ele>
        <time>2019-02-23T08:40:03.000Z</time>
      </trkpt>
      <trkpt lat="43.75504" lon="7.1433">
        <ele>610.20001220703</ele>
        <time>2019-02-23T08:40:08.000Z</time>
      </trkpt>
      <trkpt lat="43.75507" lon="7.14331">
        <ele>610.59997558594</ele>
        <time>2019-02-23T08:40:10.000Z</time>
      </trkpt>
      <trkpt lat="43.75515" lon="7.14334">
        <ele>611.20001220703</ele>
        <time>2019-02-23T08:40:15.000Z</time>
      </trkpt>
      <trkpt lat="43.75516" lon="7.14334">
        <ele>611.59997558594</ele>
        <time>2019-02-23T08:40:16.000Z</time>
      </trkpt>
      <trkpt lat="43.75521" lon="7.14335">
        <ele>612.40002441406</ele>
        <time>2019-02-23T08:40:19.000Z</time>
      </trkpt>
      <trkpt lat="43.75525" lon="7.14335">
        <ele>613.40002441406</ele>
        <time>2019-02-23T08:40:22.000Z</time>
      </trkpt>
      <trkpt lat="43.75526" lon="7.14335">
        <ele>613.59997558594</ele>
        <time>2019-02-23T08:40:23.000Z</time>
      </trkpt>
      <trkpt lat="43.75531" lon="7.14337">
        <ele>614.40002441406</ele>
        <time>2019-02-23T08:40:27.000Z</time>
      </trkpt>
      <trkpt lat="43.75532" lon="7.14336">
        <ele>614.79998779297</ele>
        <time>2019-02-23T08:40:28.000Z</time>
      </trkpt>
      <trkpt lat="43.75538" lon="7.14331">
        <ele>616</ele>
        <time>2019-02-23T08:40:33.000Z</time>
      </trkpt>
      <trkpt lat="43.75539" lon="7.14331">
        <ele>616.40002441406</ele>
        <time>2019-02-23T08:40:34.000Z</time>
      </trkpt>
      <trkpt lat="43.75541" lon="7.14331">
        <ele>617.40002441406</ele>
        <time>2019-02-23T08:40:36.000Z</time>
      </trkpt>
      <trkpt lat="43.75545" lon="7.14331">
        <ele>618.59997558594</ele>
        <time>2019-02-23T08:40:40.000Z</time>
      </trkpt>
      <trkpt lat="43.75546" lon="7.14331">
        <ele>618.79998779297</ele>
        <time>2019-02-23T08:40:41.000Z</time>
      </trkpt>
      <trkpt lat="43.75552" lon="7.14331">
        <ele>619.59997558594</ele>
        <time>2019-02-23T08:40:46.000Z</time>
      </trkpt>
      <trkpt lat="43.75553" lon="7.14331">
        <ele>619.79998779297</ele>
        <time>2019-02-23T08:40:47.000Z</time>
      </trkpt>
      <trkpt lat="43.75557" lon="7.14332">
        <ele>620.59997558594</ele>
        <time>2019-02-23T08:40:51.000Z</time>
      </trkpt>
      <trkpt lat="43.75558" lon="7.14332">
        <ele>620.79998779297</ele>
        <time>2019-02-23T08:40:52.000Z</time>
      </trkpt>
      <trkpt lat="43.75565" lon="7.14332">
        <ele>621.59997558594</ele>
        <time>2019-02-23T08:40:57.000Z</time>
      </trkpt>
      <trkpt lat="43.75566" lon="7.14331">
        <ele>621.79998779297</ele>
        <time>2019-02-23T08:40:58.000Z</time>
      </trkpt>
      <trkpt lat="43.75573" lon="7.14331">
        <ele>622.79998779297</ele>
        <time>2019-02-23T08:41:04.000Z</time>
      </trkpt>
      <trkpt lat="43.75574" lon="7.14331">
        <ele>622.79998779297</ele>
        <time>2019-02-23T08:41:05.000Z</time>
      </trkpt>
      <trkpt lat="43.75576" lon="7.14331">
        <ele>623</ele>
        <time>2019-02-23T08:41:06.000Z</time>
      </trkpt>
      <trkpt lat="43.7558" lon="7.14333">
        <ele>623.59997558594</ele>
        <time>2019-02-23T08:41:10.000Z</time>
      </trkpt>
      <trkpt lat="43.75581" lon="7.14333">
        <ele>623.79998779297</ele>
        <time>2019-02-23T08:41:11.000Z</time>
      </trkpt>
      <trkpt lat="43.75586" lon="7.14332">
        <ele>624.40002441406</ele>
        <time>2019-02-23T08:41:15.000Z</time>
      </trkpt>
      <trkpt lat="43.75589" lon="7.14332">
        <ele>624.79998779297</ele>
        <time>2019-02-23T08:41:18.000Z</time>
      </trkpt>
      <trkpt lat="43.75594" lon="7.14333">
        <ele>625.79998779297</ele>
        <time>2019-02-23T08:41:22.000Z</time>
      </trkpt>
      <trkpt lat="43.75603" lon="7.14331">
        <ele>627</ele>
        <time>2019-02-23T08:41:29.000Z</time>
      </trkpt>
      <trkpt lat="43.75608" lon="7.14329">
        <ele>628</ele>
        <time>2019-02-23T08:41:33.000Z</time>
      </trkpt>
      <trkpt lat="43.7561" lon="7.14328">
        <ele>628.59997558594</ele>
        <time>2019-02-23T08:41:35.000Z</time>
      </trkpt>
      <trkpt lat="43.75612" lon="7.14328">
        <ele>629.20001220703</ele>
        <time>2019-02-23T08:41:37.000Z</time>
      </trkpt>
      <trkpt lat="43.75616" lon="7.14327">
        <ele>630.40002441406</ele>
        <time>2019-02-23T08:41:41.000Z</time>
      </trkpt>
      <trkpt lat="43.75621" lon="7.14326">
        <ele>631</ele>
        <time>2019-02-23T08:41:46.000Z</time>
      </trkpt>
      <trkpt lat="43.75623" lon="7.14326">
        <ele>631.59997558594</ele>
        <time>2019-02-23T08:41:48.000Z</time>
      </trkpt>
      <trkpt lat="43.75626" lon="7.14325">
        <ele>632.20001220703</ele>
        <time>2019-02-23T08:41:51.000Z</time>
      </trkpt>
      <trkpt lat="43.7563" lon="7.14325">
        <ele>632.59997558594</ele>
        <time>2019-02-23T08:41:54.000Z</time>
      </trkpt>
      <trkpt lat="43.75632" lon="7.14324">
        <ele>633</ele>
        <time>2019-02-23T08:41:56.000Z</time>
      </trkpt>
      <trkpt lat="43.75634" lon="7.14322">
        <ele>633.79998779297</ele>
        <time>2019-02-23T08:41:59.000Z</time>
      </trkpt>
      <trkpt lat="43.75635" lon="7.14321">
        <ele>634</ele>
        <time>2019-02-23T08:42:00.000Z</time>
      </trkpt>
      <trkpt lat="43.75637" lon="7.1432">
        <ele>634.40002441406</ele>
        <time>2019-02-23T08:42:02.000Z</time>
      </trkpt>
      <trkpt lat="43.75639" lon="7.1432">
        <ele>634.79998779297</ele>
        <time>2019-02-23T08:42:04.000Z</time>
      </trkpt>
      <trkpt lat="43.75642" lon="7.14321">
        <ele>635.40002441406</ele>
        <time>2019-02-23T08:42:07.000Z</time>
      </trkpt>
      <trkpt lat="43.75643" lon="7.14321">
        <ele>635.40002441406</ele>
        <time>2019-02-23T08:42:08.000Z</time>
      </trkpt>
      <trkpt lat="43.75647" lon="7.14321">
        <ele>635.79998779297</ele>
        <time>2019-02-23T08:42:11.000Z</time>
      </trkpt>
      <trkpt lat="43.75648" lon="7.14321">
        <ele>636.40002441406</ele>
        <time>2019-02-23T08:42:14.000Z</time>
      </trkpt>
      <trkpt lat="43.75648" lon="7.14321">
        <ele>637</ele>
        <time>2019-02-23T08:42:17.000Z</time>
      </trkpt>
      <trkpt lat="43.75649" lon="7.1432">
        <ele>637</ele>
        <time>2019-02-23T08:42:26.000Z</time>
      </trkpt>
      <trkpt lat="43.75651" lon="7.14319">
        <ele>637.79998779297</ele>
        <time>2019-02-23T08:42:34.000Z</time>
      </trkpt>
      <trkpt lat="43.75651" lon="7.14319">
        <ele>637.79998779297</ele>
        <time>2019-02-23T08:42:35.000Z</time>
      </trkpt>
      <trkpt lat="43.75652" lon="7.1432">
        <ele>638</ele>
        <time>2019-02-23T08:42:37.000Z</time>
      </trkpt>
      <trkpt lat="43.75652" lon="7.14319">
        <ele>638</ele>
        <time>2019-02-23T08:42:38.000Z</time>
      </trkpt>
      <trkpt lat="43.75652" lon="7.1432">
        <ele>637.79998779297</ele>
        <time>2019-02-23T08:42:46.000Z</time>
      </trkpt>
      <trkpt lat="43.75656" lon="7.14321">
        <ele>638</ele>
        <time>2019-02-23T08:42:55.000Z</time>
      </trkpt>
      <trkpt lat="43.75664" lon="7.14321">
        <ele>639</ele>
        <time>2019-02-23T08:43:01.000Z</time>
      </trkpt>
      <trkpt lat="43.7567" lon="7.14319">
        <ele>640.20001220703</ele>
        <time>2019-02-23T08:43:05.000Z</time>
      </trkpt>
      <trkpt lat="43.75673" lon="7.14317">
        <ele>640.79998779297</ele>
        <time>2019-02-23T08:43:07.000Z</time>
      </trkpt>
      <trkpt lat="43.75677" lon="7.14318">
        <ele>641.40002441406</ele>
        <time>2019-02-23T08:43:10.000Z</time>
      </trkpt>
      <trkpt lat="43.75678" lon="7.14318">
        <ele>641.59997558594</ele>
        <time>2019-02-23T08:43:11.000Z</time>
      </trkpt>
      <trkpt lat="43.7568" lon="7.14318">
        <ele>642</ele>
        <time>2019-02-23T08:43:13.000Z</time>
      </trkpt>
      <trkpt lat="43.75681" lon="7.14318">
        <ele>642.40002441406</ele>
        <time>2019-02-23T08:43:14.000Z</time>
      </trkpt>
      <trkpt lat="43.75685" lon="7.14316">
        <ele>643</ele>
        <time>2019-02-23T08:43:16.000Z</time>
      </trkpt>
      <trkpt lat="43.75687" lon="7.14315">
        <ele>643.59997558594</ele>
        <time>2019-02-23T08:43:18.000Z</time>
      </trkpt>
      <trkpt lat="43.75691" lon="7.14313">
        <ele>644.20001220703</ele>
        <time>2019-02-23T08:43:21.000Z</time>
      </trkpt>
      <trkpt lat="43.75694" lon="7.14313">
        <ele>645</ele>
        <time>2019-02-23T08:43:23.000Z</time>
      </trkpt>
      <trkpt lat="43.75695" lon="7.14313">
        <ele>645.20001220703</ele>
        <time>2019-02-23T08:43:24.000Z</time>
      </trkpt>
      <trkpt lat="43.75698" lon="7.14312">
        <ele>645.59997558594</ele>
        <time>2019-02-23T08:43:26.000Z</time>
      </trkpt>
      <trkpt lat="43.75699" lon="7.14312">
        <ele>646</ele>
        <time>2019-02-23T08:43:29.000Z</time>
      </trkpt>
      <trkpt lat="43.75699" lon="7.14312">
        <ele>646.20001220703</ele>
        <time>2019-02-23T08:43:30.000Z</time>
      </trkpt>
      <trkpt lat="43.757" lon="7.14312">
        <ele>646.40002441406</ele>
        <time>2019-02-23T08:43:36.000Z</time>
      </trkpt>
      <trkpt lat="43.75701" lon="7.14313">
        <ele>646.40002441406</ele>
        <time>2019-02-23T08:43:37.000Z</time>
      </trkpt>
      <trkpt lat="43.75707" lon="7.14316">
        <ele>646.59997558594</ele>
        <time>2019-02-23T08:43:42.000Z</time>
      </trkpt>
      <trkpt lat="43.75708" lon="7.14317">
        <ele>647.20001220703</ele>
        <time>2019-02-23T08:43:43.000Z</time>
      </trkpt>
      <trkpt lat="43.75716" lon="7.1432">
        <ele>648</ele>
        <time>2019-02-23T08:43:49.000Z</time>
      </trkpt>
      <trkpt lat="43.75717" lon="7.1432">
        <ele>648.20001220703</ele>
        <time>2019-02-23T08:43:50.000Z</time>
      </trkpt>
      <trkpt lat="43.75725" lon="7.14323">
        <ele>648.59997558594</ele>
        <time>2019-02-23T08:43:55.000Z</time>
      </trkpt>
      <trkpt lat="43.75731" lon="7.14326">
        <ele>649.40002441406</ele>
        <time>2019-02-23T08:43:59.000Z</time>
      </trkpt>
      <trkpt lat="43.75733" lon="7.14327">
        <ele>650</ele>
        <time>2019-02-23T08:44:01.000Z</time>
      </trkpt>
      <trkpt lat="43.75735" lon="7.14328">
        <ele>650.40002441406</ele>
        <time>2019-02-23T08:44:03.000Z</time>
      </trkpt>
      <trkpt lat="43.7574" lon="7.14329">
        <ele>650.40002441406</ele>
        <time>2019-02-23T08:44:07.000Z</time>
      </trkpt>
      <trkpt lat="43.75744" lon="7.14329">
        <ele>651</ele>
        <time>2019-02-23T08:44:12.000Z</time>
      </trkpt>
      <trkpt lat="43.75751" lon="7.14333">
        <ele>651</ele>
        <time>2019-02-23T08:44:19.000Z</time>
      </trkpt>
      <trkpt lat="43.75755" lon="7.14334">
        <ele>651.20001220703</ele>
        <time>2019-02-23T08:44:22.000Z</time>
      </trkpt>
      <trkpt lat="43.75758" lon="7.14333">
        <ele>651.20001220703</ele>
        <time>2019-02-23T08:44:25.000Z</time>
      </trkpt>
      <trkpt lat="43.75763" lon="7.14332">
        <ele>651.40002441406</ele>
        <time>2019-02-23T08:44:28.000Z</time>
      </trkpt>
      <trkpt lat="43.75766" lon="7.14333">
        <ele>651.79998779297</ele>
        <time>2019-02-23T08:44:30.000Z</time>
      </trkpt>
      <trkpt lat="43.75775" lon="7.14334">
        <ele>652.59997558594</ele>
        <time>2019-02-23T08:44:36.000Z</time>
      </trkpt>
      <trkpt lat="43.75776" lon="7.14334">
        <ele>652.59997558594</ele>
        <time>2019-02-23T08:44:37.000Z</time>
      </trkpt>
      <trkpt lat="43.75786" lon="7.1433">
        <ele>653</ele>
        <time>2019-02-23T08:44:43.000Z</time>
      </trkpt>
      <trkpt lat="43.75795" lon="7.14325">
        <ele>653.20001220703</ele>
        <time>2019-02-23T08:44:48.000Z</time>
      </trkpt>
      <trkpt lat="43.75798" lon="7.14323">
        <ele>653.59997558594</ele>
        <time>2019-02-23T08:44:50.000Z</time>
      </trkpt>
      <trkpt lat="43.75804" lon="7.14321">
        <ele>654.79998779297</ele>
        <time>2019-02-23T08:44:54.000Z</time>
      </trkpt>
      <trkpt lat="43.75805" lon="7.1432">
        <ele>654.79998779297</ele>
        <time>2019-02-23T08:44:55.000Z</time>
      </trkpt>
      <trkpt lat="43.75817" lon="7.14314">
        <ele>654.79998779297</ele>
        <time>2019-02-23T08:45:01.000Z</time>
      </trkpt>
      <trkpt lat="43.75833" lon="7.14308">
        <ele>655.59997558594</ele>
        <time>2019-02-23T08:45:09.000Z</time>
      </trkpt>
      <trkpt lat="43.75835" lon="7.14307">
        <ele>656</ele>
        <time>2019-02-23T08:45:10.000Z</time>
      </trkpt>
      <trkpt lat="43.75845" lon="7.14306">
        <ele>657</ele>
        <time>2019-02-23T08:45:16.000Z</time>
      </trkpt>
      <trkpt lat="43.75847" lon="7.14306">
        <ele>657</ele>
        <time>2019-02-23T08:45:17.000Z</time>
      </trkpt>
      <trkpt lat="43.75867" lon="7.14302">
        <ele>658</ele>
        <time>2019-02-23T08:45:26.000Z</time>
      </trkpt>
      <trkpt lat="43.75874" lon="7.143">
        <ele>659.20001220703</ele>
        <time>2019-02-23T08:45:30.000Z</time>
      </trkpt>
      <trkpt lat="43.75879" lon="7.14299">
        <ele>659.59997558594</ele>
        <time>2019-02-23T08:45:33.000Z</time>
      </trkpt>
      <trkpt lat="43.75891" lon="7.14301">
        <ele>660</ele>
        <time>2019-02-23T08:45:39.000Z</time>
      </trkpt>
      <trkpt lat="43.75901" lon="7.14308">
        <ele>659.59997558594</ele>
        <time>2019-02-23T08:45:42.000Z</time>
      </trkpt>
      <trkpt lat="43.75903" lon="7.14308">
        <ele>659.20001220703</ele>
        <time>2019-02-23T08:45:43.000Z</time>
      </trkpt>
      <trkpt lat="43.75912" lon="7.14306">
        <ele>659.59997558594</ele>
        <time>2019-02-23T08:45:48.000Z</time>
      </trkpt>
      <trkpt lat="43.75915" lon="7.14307">
        <ele>660.40002441406</ele>
        <time>2019-02-23T08:45:50.000Z</time>
      </trkpt>
      <trkpt lat="43.75927" lon="7.14313">
        <ele>661.40002441406</ele>
        <time>2019-02-23T08:45:58.000Z</time>
      </trkpt>
      <trkpt lat="43.75928" lon="7.14314">
        <ele>661.59997558594</ele>
        <time>2019-02-23T08:45:59.000Z</time>
      </trkpt>
      <trkpt lat="43.75936" lon="7.14315">
        <ele>662.59997558594</ele>
        <time>2019-02-23T08:46:03.000Z</time>
      </trkpt>
      <trkpt lat="43.75944" lon="7.14316">
        <ele>663.59997558594</ele>
        <time>2019-02-23T08:46:08.000Z</time>
      </trkpt>
      <trkpt lat="43.75946" lon="7.14316">
        <ele>663.79998779297</ele>
        <time>2019-02-23T08:46:09.000Z</time>
      </trkpt>
      <trkpt lat="43.75954" lon="7.14314">
        <ele>664.79998779297</ele>
        <time>2019-02-23T08:46:15.000Z</time>
      </trkpt>
      <trkpt lat="43.75956" lon="7.14314">
        <ele>665</ele>
        <time>2019-02-23T08:46:16.000Z</time>
      </trkpt>
      <trkpt lat="43.75964" lon="7.14314">
        <ele>666</ele>
        <time>2019-02-23T08:46:22.000Z</time>
      </trkpt>
      <trkpt lat="43.75972" lon="7.14315">
        <ele>666.59997558594</ele>
        <time>2019-02-23T08:46:28.000Z</time>
      </trkpt>
      <trkpt lat="43.75974" lon="7.14316">
        <ele>667</ele>
        <time>2019-02-23T08:46:30.000Z</time>
      </trkpt>
      <trkpt lat="43.75981" lon="7.14316">
        <ele>667.59997558594</ele>
        <time>2019-02-23T08:46:35.000Z</time>
      </trkpt>
      <trkpt lat="43.75985" lon="7.14316">
        <ele>668</ele>
        <time>2019-02-23T08:46:38.000Z</time>
      </trkpt>
      <trkpt lat="43.75994" lon="7.14316">
        <ele>668.59997558594</ele>
        <time>2019-02-23T08:46:44.000Z</time>
      </trkpt>
      <trkpt lat="43.76" lon="7.14318">
        <ele>669.20001220703</ele>
        <time>2019-02-23T08:46:48.000Z</time>
      </trkpt>
      <trkpt lat="43.76005" lon="7.14318">
        <ele>669.40002441406</ele>
        <time>2019-02-23T08:46:51.000Z</time>
      </trkpt>
      <trkpt lat="43.76015" lon="7.14318">
        <ele>670.20001220703</ele>
        <time>2019-02-23T08:46:57.000Z</time>
      </trkpt>
      <trkpt lat="43.76021" lon="7.1432">
        <ele>670.20001220703</ele>
        <time>2019-02-23T08:47:00.000Z</time>
      </trkpt>
      <trkpt lat="43.76033" lon="7.14326">
        <ele>670.59997558594</ele>
        <time>2019-02-23T08:47:07.000Z</time>
      </trkpt>
      <trkpt lat="43.76039" lon="7.1433">
        <ele>671.40002441406</ele>
        <time>2019-02-23T08:47:11.000Z</time>
      </trkpt>
      <trkpt lat="43.76042" lon="7.14333">
        <ele>671.59997558594</ele>
        <time>2019-02-23T08:47:13.000Z</time>
      </trkpt>
      <trkpt lat="43.76054" lon="7.14341">
        <ele>672.59997558594</ele>
        <time>2019-02-23T08:47:20.000Z</time>
      </trkpt>
      <trkpt lat="43.76056" lon="7.14342">
        <ele>672.59997558594</ele>
        <time>2019-02-23T08:47:21.000Z</time>
      </trkpt>
      <trkpt lat="43.76066" lon="7.1435">
        <ele>673.59997558594</ele>
        <time>2019-02-23T08:47:27.000Z</time>
      </trkpt>
      <trkpt lat="43.76069" lon="7.14352">
        <ele>673.79998779297</ele>
        <time>2019-02-23T08:47:29.000Z</time>
      </trkpt>
      <trkpt lat="43.76081" lon="7.14361">
        <ele>674.79998779297</ele>
        <time>2019-02-23T08:47:36.000Z</time>
      </trkpt>
      <trkpt lat="43.76094" lon="7.1437">
        <ele>675.79998779297</ele>
        <time>2019-02-23T08:47:44.000Z</time>
      </trkpt>
      <trkpt lat="43.76096" lon="7.14371">
        <ele>676</ele>
        <time>2019-02-23T08:47:45.000Z</time>
      </trkpt>
      <trkpt lat="43.76106" lon="7.14381">
        <ele>676.79998779297</ele>
        <time>2019-02-23T08:47:52.000Z</time>
      </trkpt>
      <trkpt lat="43.76109" lon="7.14383">
        <ele>677</ele>
        <time>2019-02-23T08:47:54.000Z</time>
      </trkpt>
      <trkpt lat="43.76118" lon="7.14387">
        <ele>677.59997558594</ele>
        <time>2019-02-23T08:47:59.000Z</time>
      </trkpt>
      <trkpt lat="43.7613" lon="7.14393">
        <ele>678</ele>
        <time>2019-02-23T08:48:05.000Z</time>
      </trkpt>
      <trkpt lat="43.76134" lon="7.14395">
        <ele>678.20001220703</ele>
        <time>2019-02-23T08:48:07.000Z</time>
      </trkpt>
      <trkpt lat="43.76144" lon="7.14403">
        <ele>679.20001220703</ele>
        <time>2019-02-23T08:48:14.000Z</time>
      </trkpt>
      <trkpt lat="43.76145" lon="7.14405">
        <ele>679.20001220703</ele>
        <time>2019-02-23T08:48:15.000Z</time>
      </trkpt>
      <trkpt lat="43.76152" lon="7.1441">
        <ele>680.20001220703</ele>
        <time>2019-02-23T08:48:20.000Z</time>
      </trkpt>
      <trkpt lat="43.76154" lon="7.14411">
        <ele>680.40002441406</ele>
        <time>2019-02-23T08:48:21.000Z</time>
      </trkpt>
      <trkpt lat="43.76162" lon="7.14413">
        <ele>681</ele>
        <time>2019-02-23T08:48:26.000Z</time>
      </trkpt>
      <trkpt lat="43.76172" lon="7.14415">
        <ele>681.40002441406</ele>
        <time>2019-02-23T08:48:31.000Z</time>
      </trkpt>
      <trkpt lat="43.76176" lon="7.14417">
        <ele>681.40002441406</ele>
        <time>2019-02-23T08:48:33.000Z</time>
      </trkpt>
      <trkpt lat="43.7619" lon="7.1442">
        <ele>682</ele>
        <time>2019-02-23T08:48:40.000Z</time>
      </trkpt>
      <trkpt lat="43.76197" lon="7.1442">
        <ele>682.40002441406</ele>
        <time>2019-02-23T08:48:43.000Z</time>
      </trkpt>
      <trkpt lat="43.76204" lon="7.14421">
        <ele>682.59997558594</ele>
        <time>2019-02-23T08:48:46.000Z</time>
      </trkpt>
      <trkpt lat="43.76219" lon="7.14428">
        <ele>683.40002441406</ele>
        <time>2019-02-23T08:48:53.000Z</time>
      </trkpt>
      <trkpt lat="43.76221" lon="7.14429">
        <ele>683.59997558594</ele>
        <time>2019-02-23T08:48:54.000Z</time>
      </trkpt>
      <trkpt lat="43.76238" lon="7.14437">
        <ele>684.40002441406</ele>
        <time>2019-02-23T08:49:02.000Z</time>
      </trkpt>
      <trkpt lat="43.7624" lon="7.14437">
        <ele>684.59997558594</ele>
        <time>2019-02-23T08:49:03.000Z</time>
      </trkpt>
      <trkpt lat="43.76251" lon="7.14439">
        <ele>685</ele>
        <time>2019-02-23T08:49:08.000Z</time>
      </trkpt>
      <trkpt lat="43.76264" lon="7.14442">
        <ele>685.79998779297</ele>
        <time>2019-02-23T08:49:14.000Z</time>
      </trkpt>
      <trkpt lat="43.7627" lon="7.14443">
        <ele>686.20001220703</ele>
        <time>2019-02-23T08:49:17.000Z</time>
      </trkpt>
      <trkpt lat="43.76276" lon="7.14444">
        <ele>686.79998779297</ele>
        <time>2019-02-23T08:49:20.000Z</time>
      </trkpt>
      <trkpt lat="43.76284" lon="7.14446">
        <ele>687</ele>
        <time>2019-02-23T08:49:24.000Z</time>
      </trkpt>
      <trkpt lat="43.76295" lon="7.14451">
        <ele>687.79998779297</ele>
        <time>2019-02-23T08:49:30.000Z</time>
      </trkpt>
      <trkpt lat="43.76297" lon="7.14451">
        <ele>688</ele>
        <time>2019-02-23T08:49:31.000Z</time>
      </trkpt>
      <trkpt lat="43.76306" lon="7.14457">
        <ele>689</ele>
        <time>2019-02-23T08:49:37.000Z</time>
      </trkpt>
      <trkpt lat="43.76307" lon="7.14458">
        <ele>689.20001220703</ele>
        <time>2019-02-23T08:49:38.000Z</time>
      </trkpt>
      <trkpt lat="43.76316" lon="7.14458">
        <ele>689.79998779297</ele>
        <time>2019-02-23T08:49:44.000Z</time>
      </trkpt>
      <trkpt lat="43.76324" lon="7.14457">
        <ele>690</ele>
        <time>2019-02-23T08:49:49.000Z</time>
      </trkpt>
      <trkpt lat="43.76328" lon="7.14458">
        <ele>690.20001220703</ele>
        <time>2019-02-23T08:49:51.000Z</time>
      </trkpt>
      <trkpt lat="43.76347" lon="7.14456">
        <ele>690.79998779297</ele>
        <time>2019-02-23T08:50:01.000Z</time>
      </trkpt>
      <trkpt lat="43.76355" lon="7.14453">
        <ele>691</ele>
        <time>2019-02-23T08:50:05.000Z</time>
      </trkpt>
      <trkpt lat="43.76364" lon="7.14449">
        <ele>691.40002441406</ele>
        <time>2019-02-23T08:50:10.000Z</time>
      </trkpt>
      <trkpt lat="43.76377" lon="7.1445">
        <ele>692.20001220703</ele>
        <time>2019-02-23T08:50:17.000Z</time>
      </trkpt>
      <trkpt lat="43.76385" lon="7.14454">
        <ele>692.79998779297</ele>
        <time>2019-02-23T08:50:22.000Z</time>
      </trkpt>
      <trkpt lat="43.76391" lon="7.14456">
        <ele>693.20001220703</ele>
        <time>2019-02-23T08:50:25.000Z</time>
      </trkpt>
      <trkpt lat="43.76397" lon="7.14456">
        <ele>693.79998779297</ele>
        <time>2019-02-23T08:50:28.000Z</time>
      </trkpt>
      <trkpt lat="43.76401" lon="7.14455">
        <ele>694.20001220703</ele>
        <time>2019-02-23T08:50:30.000Z</time>
      </trkpt>
      <trkpt lat="43.76412" lon="7.14453">
        <ele>695</ele>
        <time>2019-02-23T08:50:36.000Z</time>
      </trkpt>
      <trkpt lat="43.76419" lon="7.14453">
        <ele>695.20001220703</ele>
        <time>2019-02-23T08:50:39.000Z</time>
      </trkpt>
      <trkpt lat="43.76429" lon="7.14456">
        <ele>696.20001220703</ele>
        <time>2019-02-23T08:50:44.000Z</time>
      </trkpt>
      <trkpt lat="43.7643" lon="7.14457">
        <ele>696.40002441406</ele>
        <time>2019-02-23T08:50:45.000Z</time>
      </trkpt>
      <trkpt lat="43.76436" lon="7.14459">
        <ele>697</ele>
        <time>2019-02-23T08:50:49.000Z</time>
      </trkpt>
      <trkpt lat="43.76438" lon="7.1446">
        <ele>697.40002441406</ele>
        <time>2019-02-23T08:50:51.000Z</time>
      </trkpt>
      <trkpt lat="43.76446" lon="7.14463">
        <ele>698.40002441406</ele>
        <time>2019-02-23T08:50:57.000Z</time>
      </trkpt>
      <trkpt lat="43.76447" lon="7.14463">
        <ele>698.59997558594</ele>
        <time>2019-02-23T08:50:58.000Z</time>
      </trkpt>
      <trkpt lat="43.76456" lon="7.14465">
        <ele>699.59997558594</ele>
        <time>2019-02-23T08:51:05.000Z</time>
      </trkpt>
      <trkpt lat="43.76458" lon="7.14466">
        <ele>699.79998779297</ele>
        <time>2019-02-23T08:51:07.000Z</time>
      </trkpt>
      <trkpt lat="43.76467" lon="7.14467">
        <ele>700.79998779297</ele>
        <time>2019-02-23T08:51:14.000Z</time>
      </trkpt>
      <trkpt lat="43.76468" lon="7.14466">
        <ele>701</ele>
        <time>2019-02-23T08:51:15.000Z</time>
      </trkpt>
      <trkpt lat="43.76476" lon="7.14464">
        <ele>701.79998779297</ele>
        <time>2019-02-23T08:51:21.000Z</time>
      </trkpt>
      <trkpt lat="43.76478" lon="7.14464">
        <ele>702</ele>
        <time>2019-02-23T08:51:23.000Z</time>
      </trkpt>
      <trkpt lat="43.76484" lon="7.14465">
        <ele>702.79998779297</ele>
        <time>2019-02-23T08:51:27.000Z</time>
      </trkpt>
      <trkpt lat="43.76486" lon="7.14464">
        <ele>703.20001220703</ele>
        <time>2019-02-23T08:51:29.000Z</time>
      </trkpt>
      <trkpt lat="43.76491" lon="7.14463">
        <ele>703.79998779297</ele>
        <time>2019-02-23T08:51:33.000Z</time>
      </trkpt>
      <trkpt lat="43.76494" lon="7.14462">
        <ele>704.20001220703</ele>
        <time>2019-02-23T08:51:36.000Z</time>
      </trkpt>
      <trkpt lat="43.76498" lon="7.1446">
        <ele>704.79998779297</ele>
        <time>2019-02-23T08:51:39.000Z</time>
      </trkpt>
      <trkpt lat="43.76502" lon="7.14459">
        <ele>705.40002441406</ele>
        <time>2019-02-23T08:51:42.000Z</time>
      </trkpt>
      <trkpt lat="43.76505" lon="7.14459">
        <ele>705.79998779297</ele>
        <time>2019-02-23T08:51:44.000Z</time>
      </trkpt>
      <trkpt lat="43.76506" lon="7.14459">
        <ele>706</ele>
        <time>2019-02-23T08:51:45.000Z</time>
      </trkpt>
      <trkpt lat="43.76509" lon="7.14456">
        <ele>706.59997558594</ele>
        <time>2019-02-23T08:51:48.000Z</time>
      </trkpt>
      <trkpt lat="43.76515" lon="7.14453">
        <ele>707.59997558594</ele>
        <time>2019-02-23T08:51:53.000Z</time>
      </trkpt>
      <trkpt lat="43.76516" lon="7.14453">
        <ele>707.79998779297</ele>
        <time>2019-02-23T08:51:54.000Z</time>
      </trkpt>
      <trkpt lat="43.76521" lon="7.14452">
        <ele>708.59997558594</ele>
        <time>2019-02-23T08:51:58.000Z</time>
      </trkpt>
      <trkpt lat="43.76522" lon="7.14451">
        <ele>708.79998779297</ele>
        <time>2019-02-23T08:51:59.000Z</time>
      </trkpt>
      <trkpt lat="43.76523" lon="7.1445">
        <ele>709</ele>
        <time>2019-02-23T08:52:00.000Z</time>
      </trkpt>
      <trkpt lat="43.76527" lon="7.14447">
        <ele>709.59997558594</ele>
        <time>2019-02-23T08:52:04.000Z</time>
      </trkpt>
      <trkpt lat="43.7653" lon="7.14446">
        <ele>709.79998779297</ele>
        <time>2019-02-23T08:52:06.000Z</time>
      </trkpt>
      <trkpt lat="43.76535" lon="7.14445">
        <ele>710.40002441406</ele>
        <time>2019-02-23T08:52:10.000Z</time>
      </trkpt>
      <trkpt lat="43.7654" lon="7.14441">
        <ele>710.79998779297</ele>
        <time>2019-02-23T08:52:14.000Z</time>
      </trkpt>
      <trkpt lat="43.76544" lon="7.1444">
        <ele>711.40002441406</ele>
        <time>2019-02-23T08:52:17.000Z</time>
      </trkpt>
      <trkpt lat="43.76553" lon="7.14441">
        <ele>712</ele>
        <time>2019-02-23T08:52:24.000Z</time>
      </trkpt>
      <trkpt lat="43.76555" lon="7.14441">
        <ele>712</ele>
        <time>2019-02-23T08:52:25.000Z</time>
      </trkpt>
      <trkpt lat="43.76568" lon="7.14442">
        <ele>713</ele>
        <time>2019-02-23T08:52:35.000Z</time>
      </trkpt>
      <trkpt lat="43.7658" lon="7.14443">
        <ele>713.40002441406</ele>
        <time>2019-02-23T08:52:43.000Z</time>
      </trkpt>
      <trkpt lat="43.76587" lon="7.14442">
        <ele>714</ele>
        <time>2019-02-23T08:52:48.000Z</time>
      </trkpt>
      <trkpt lat="43.76592" lon="7.1444">
        <ele>714.20001220703</ele>
        <time>2019-02-23T08:52:51.000Z</time>
      </trkpt>
      <trkpt lat="43.76603" lon="7.14436">
        <ele>715</ele>
        <time>2019-02-23T08:52:59.000Z</time>
      </trkpt>
      <trkpt lat="43.76605" lon="7.14436">
        <ele>715.20001220703</ele>
        <time>2019-02-23T08:53:00.000Z</time>
      </trkpt>
      <trkpt lat="43.76617" lon="7.14436">
        <ele>716.20001220703</ele>
        <time>2019-02-23T08:53:07.000Z</time>
      </trkpt>
      <trkpt lat="43.76619" lon="7.14436">
        <ele>716.40002441406</ele>
        <time>2019-02-23T08:53:08.000Z</time>
      </trkpt>
      <trkpt lat="43.7662" lon="7.14437">
        <ele>716.59997558594</ele>
        <time>2019-02-23T08:53:09.000Z</time>
      </trkpt>
      <trkpt lat="43.76623" lon="7.14439">
        <ele>717.20001220703</ele>
        <time>2019-02-23T08:53:11.000Z</time>
      </trkpt>
      <trkpt lat="43.76624" lon="7.14439">
        <ele>717.20001220703</ele>
        <time>2019-02-23T08:53:12.000Z</time>
      </trkpt>
      <trkpt lat="43.76632" lon="7.14438">
        <ele>718.59997558594</ele>
        <time>2019-02-23T08:53:17.000Z</time>
      </trkpt>
      <trkpt lat="43.76645" lon="7.14438">
        <ele>719.79998779297</ele>
        <time>2019-02-23T08:53:24.000Z</time>
      </trkpt>
      <trkpt lat="43.76651" lon="7.14439">
        <ele>720.79998779297</ele>
        <time>2019-02-23T08:53:28.000Z</time>
      </trkpt>
      <trkpt lat="43.76654" lon="7.1444">
        <ele>721</ele>
        <time>2019-02-23T08:53:30.000Z</time>
      </trkpt>
      <trkpt lat="43.76662" lon="7.1444">
        <ele>722.20001220703</ele>
        <time>2019-02-23T08:53:35.000Z</time>
      </trkpt>
      <trkpt lat="43.76663" lon="7.1444">
        <ele>722.40002441406</ele>
        <time>2019-02-23T08:53:36.000Z</time>
      </trkpt>
      <trkpt lat="43.7667" lon="7.14442">
        <ele>723</ele>
        <time>2019-02-23T08:53:42.000Z</time>
      </trkpt>
      <trkpt lat="43.7667" lon="7.14442">
        <ele>723.20001220703</ele>
        <time>2019-02-23T08:53:43.000Z</time>
      </trkpt>
      <trkpt lat="43.76672" lon="7.1444">
        <ele>723.79998779297</ele>
        <time>2019-02-23T08:53:48.000Z</time>
      </trkpt>
      <trkpt lat="43.76673" lon="7.14441">
        <ele>724</ele>
        <time>2019-02-23T08:53:55.000Z</time>
      </trkpt>
      <trkpt lat="43.76674" lon="7.14441">
        <ele>724.40002441406</ele>
        <time>2019-02-23T08:53:57.000Z</time>
      </trkpt>
      <trkpt lat="43.76677" lon="7.14442">
        <ele>724.79998779297</ele>
        <time>2019-02-23T08:54:00.000Z</time>
      </trkpt>
      <trkpt lat="43.76682" lon="7.14444">
        <ele>725.59997558594</ele>
        <time>2019-02-23T08:54:04.000Z</time>
      </trkpt>
      <trkpt lat="43.76686" lon="7.14447">
        <ele>726.20001220703</ele>
        <time>2019-02-23T08:54:08.000Z</time>
      </trkpt>
      <trkpt lat="43.7669" lon="7.14448">
        <ele>726.59997558594</ele>
        <time>2019-02-23T08:54:11.000Z</time>
      </trkpt>
      <trkpt lat="43.76695" lon="7.14448">
        <ele>727.59997558594</ele>
        <time>2019-02-23T08:54:15.000Z</time>
      </trkpt>
      <trkpt lat="43.76696" lon="7.14449">
        <ele>727.79998779297</ele>
        <time>2019-02-23T08:54:16.000Z</time>
      </trkpt>
      <trkpt lat="43.767" lon="7.14451">
        <ele>728.40002441406</ele>
        <time>2019-02-23T08:54:20.000Z</time>
      </trkpt>
      <trkpt lat="43.76704" lon="7.14451">
        <ele>728.79998779297</ele>
        <time>2019-02-23T08:54:24.000Z</time>
      </trkpt>
      <trkpt lat="43.76706" lon="7.14451">
        <ele>728.79998779297</ele>
        <time>2019-02-23T08:54:25.000Z</time>
      </trkpt>
      <trkpt lat="43.76707" lon="7.14452">
        <ele>729</ele>
        <time>2019-02-23T08:54:26.000Z</time>
      </trkpt>
      <trkpt lat="43.76709" lon="7.14454">
        <ele>729</ele>
        <time>2019-02-23T08:54:28.000Z</time>
      </trkpt>
      <trkpt lat="43.76714" lon="7.14456">
        <ele>730</ele>
        <time>2019-02-23T08:54:32.000Z</time>
      </trkpt>
      <trkpt lat="43.76715" lon="7.14456">
        <ele>730.20001220703</ele>
        <time>2019-02-23T08:54:33.000Z</time>
      </trkpt>
      <trkpt lat="43.76716" lon="7.14457">
        <ele>731</ele>
        <time>2019-02-23T08:54:34.000Z</time>
      </trkpt>
      <trkpt lat="43.76723" lon="7.14461">
        <ele>732.20001220703</ele>
        <time>2019-02-23T08:54:40.000Z</time>
      </trkpt>
      <trkpt lat="43.76724" lon="7.14462">
        <ele>732.20001220703</ele>
        <time>2019-02-23T08:54:41.000Z</time>
      </trkpt>
      <trkpt lat="43.76732" lon="7.14466">
        <ele>733.20001220703</ele>
        <time>2019-02-23T08:54:48.000Z</time>
      </trkpt>
      <trkpt lat="43.7674" lon="7.1447">
        <ele>733.40002441406</ele>
        <time>2019-02-23T08:54:54.000Z</time>
      </trkpt>
      <trkpt lat="43.76742" lon="7.14471">
        <ele>734.20001220703</ele>
        <time>2019-02-23T08:54:58.000Z</time>
      </trkpt>
      <trkpt lat="43.76743" lon="7.14472">
        <ele>734.40002441406</ele>
        <time>2019-02-23T08:54:59.000Z</time>
      </trkpt>
      <trkpt lat="43.76748" lon="7.14472">
        <ele>734.59997558594</ele>
        <time>2019-02-23T08:55:04.000Z</time>
      </trkpt>
      <trkpt lat="43.76749" lon="7.14471">
        <ele>734.79998779297</ele>
        <time>2019-02-23T08:55:05.000Z</time>
      </trkpt>
      <trkpt lat="43.76756" lon="7.14464">
        <ele>734.59997558594</ele>
        <time>2019-02-23T08:55:10.000Z</time>
      </trkpt>
      <trkpt lat="43.76759" lon="7.14464">
        <ele>735.59997558594</ele>
        <time>2019-02-23T08:55:13.000Z</time>
      </trkpt>
      <trkpt lat="43.76763" lon="7.14465">
        <ele>736.79998779297</ele>
        <time>2019-02-23T08:55:16.000Z</time>
      </trkpt>
      <trkpt lat="43.76764" lon="7.14465">
        <ele>737</ele>
        <time>2019-02-23T08:55:17.000Z</time>
      </trkpt>
      <trkpt lat="43.76768" lon="7.14467">
        <ele>737.79998779297</ele>
        <time>2019-02-23T08:55:21.000Z</time>
      </trkpt>
      <trkpt lat="43.76772" lon="7.14469">
        <ele>738.20001220703</ele>
        <time>2019-02-23T08:55:24.000Z</time>
      </trkpt>
      <trkpt lat="43.76779" lon="7.14473">
        <ele>738.59997558594</ele>
        <time>2019-02-23T08:55:29.000Z</time>
      </trkpt>
      <trkpt lat="43.7678" lon="7.14474">
        <ele>738.79998779297</ele>
        <time>2019-02-23T08:55:30.000Z</time>
      </trkpt>
      <trkpt lat="43.76785" lon="7.14477">
        <ele>739.59997558594</ele>
        <time>2019-02-23T08:55:34.000Z</time>
      </trkpt>
      <trkpt lat="43.7679" lon="7.14478">
        <ele>739.79998779297</ele>
        <time>2019-02-23T08:55:37.000Z</time>
      </trkpt>
      <trkpt lat="43.76796" lon="7.14478">
        <ele>740.79998779297</ele>
        <time>2019-02-23T08:55:41.000Z</time>
      </trkpt>
      <trkpt lat="43.76797" lon="7.14478">
        <ele>741</ele>
        <time>2019-02-23T08:55:42.000Z</time>
      </trkpt>
      <trkpt lat="43.76804" lon="7.14479">
        <ele>741.79998779297</ele>
        <time>2019-02-23T08:55:48.000Z</time>
      </trkpt>
      <trkpt lat="43.76806" lon="7.1448">
        <ele>742.20001220703</ele>
        <time>2019-02-23T08:55:50.000Z</time>
      </trkpt>
      <trkpt lat="43.76812" lon="7.1448">
        <ele>743</ele>
        <time>2019-02-23T08:55:55.000Z</time>
      </trkpt>
      <trkpt lat="43.76815" lon="7.1448">
        <ele>743.40002441406</ele>
        <time>2019-02-23T08:55:57.000Z</time>
      </trkpt>
      <trkpt lat="43.76821" lon="7.14481">
        <ele>744.59997558594</ele>
        <time>2019-02-23T08:56:02.000Z</time>
      </trkpt>
      <trkpt lat="43.76827" lon="7.14483">
        <ele>745.59997558594</ele>
        <time>2019-02-23T08:56:07.000Z</time>
      </trkpt>
      <trkpt lat="43.76832" lon="7.14484">
        <ele>746.59997558594</ele>
        <time>2019-02-23T08:56:12.000Z</time>
      </trkpt>
      <trkpt lat="43.76839" lon="7.14484">
        <ele>747</ele>
        <time>2019-02-23T08:56:17.000Z</time>
      </trkpt>
      <trkpt lat="43.76844" lon="7.14484">
        <ele>747.79998779297</ele>
        <time>2019-02-23T08:56:22.000Z</time>
      </trkpt>
      <trkpt lat="43.76847" lon="7.14485">
        <ele>748.20001220703</ele>
        <time>2019-02-23T08:56:24.000Z</time>
      </trkpt>
      <trkpt lat="43.76853" lon="7.14486">
        <ele>748.79998779297</ele>
        <time>2019-02-23T08:56:28.000Z</time>
      </trkpt>
      <trkpt lat="43.76855" lon="7.14487">
        <ele>749.20001220703</ele>
        <time>2019-02-23T08:56:30.000Z</time>
      </trkpt>
      <trkpt lat="43.76862" lon="7.14488">
        <ele>750</ele>
        <time>2019-02-23T08:56:36.000Z</time>
      </trkpt>
      <trkpt lat="43.76871" lon="7.1449">
        <ele>751</ele>
        <time>2019-02-23T08:56:42.000Z</time>
      </trkpt>
      <trkpt lat="43.76879" lon="7.1449">
        <ele>751.59997558594</ele>
        <time>2019-02-23T08:56:48.000Z</time>
      </trkpt>
      <trkpt lat="43.76885" lon="7.1449">
        <ele>752</ele>
        <time>2019-02-23T08:56:52.000Z</time>
      </trkpt>
      <trkpt lat="43.76889" lon="7.1449">
        <ele>752.20001220703</ele>
        <time>2019-02-23T08:56:55.000Z</time>
      </trkpt>
      <trkpt lat="43.76899" lon="7.1449">
        <ele>752.79998779297</ele>
        <time>2019-02-23T08:57:02.000Z</time>
      </trkpt>
      <trkpt lat="43.76902" lon="7.1449">
        <ele>753</ele>
        <time>2019-02-23T08:57:04.000Z</time>
      </trkpt>
      <trkpt lat="43.7691" lon="7.14487">
        <ele>753.59997558594</ele>
        <time>2019-02-23T08:57:09.000Z</time>
      </trkpt>
      <trkpt lat="43.76922" lon="7.14485">
        <ele>754.20001220703</ele>
        <time>2019-02-23T08:57:16.000Z</time>
      </trkpt>
      <trkpt lat="43.76925" lon="7.14484">
        <ele>754.59997558594</ele>
        <time>2019-02-23T08:57:18.000Z</time>
      </trkpt>
      <trkpt lat="43.7693" lon="7.14483">
        <ele>755.20001220703</ele>
        <time>2019-02-23T08:57:22.000Z</time>
      </trkpt>
      <trkpt lat="43.76934" lon="7.14482">
        <ele>756</ele>
        <time>2019-02-23T08:57:25.000Z</time>
      </trkpt>
      <trkpt lat="43.76937" lon="7.14481">
        <ele>756.20001220703</ele>
        <time>2019-02-23T08:57:27.000Z</time>
      </trkpt>
      <trkpt lat="43.76941" lon="7.14479">
        <ele>756.59997558594</ele>
        <time>2019-02-23T08:57:31.000Z</time>
      </trkpt>
      <trkpt lat="43.76944" lon="7.14478">
        <ele>757.20001220703</ele>
        <time>2019-02-23T08:57:34.000Z</time>
      </trkpt>
      <trkpt lat="43.76948" lon="7.14476">
        <ele>758</ele>
        <time>2019-02-23T08:57:38.000Z</time>
      </trkpt>
      <trkpt lat="43.76952" lon="7.14476">
        <ele>758.20001220703</ele>
        <time>2019-02-23T08:57:41.000Z</time>
      </trkpt>
      <trkpt lat="43.76956" lon="7.14476">
        <ele>758.59997558594</ele>
        <time>2019-02-23T08:57:44.000Z</time>
      </trkpt>
      <trkpt lat="43.76968" lon="7.14475">
        <ele>759</ele>
        <time>2019-02-23T08:57:52.000Z</time>
      </trkpt>
      <trkpt lat="43.76976" lon="7.14475">
        <ele>759.40002441406</ele>
        <time>2019-02-23T08:57:56.000Z</time>
      </trkpt>
      <trkpt lat="43.76981" lon="7.14474">
        <ele>759.59997558594</ele>
        <time>2019-02-23T08:57:59.000Z</time>
      </trkpt>
      <trkpt lat="43.76993" lon="7.14468">
        <ele>760.40002441406</ele>
        <time>2019-02-23T08:58:06.000Z</time>
      </trkpt>
      <trkpt lat="43.77004" lon="7.14466">
        <ele>761.20001220703</ele>
        <time>2019-02-23T08:58:12.000Z</time>
      </trkpt>
      <trkpt lat="43.77006" lon="7.14465">
        <ele>761.59997558594</ele>
        <time>2019-02-23T08:58:13.000Z</time>
      </trkpt>
      <trkpt lat="43.77015" lon="7.1446">
        <ele>762.20001220703</ele>
        <time>2019-02-23T08:58:19.000Z</time>
      </trkpt>
      <trkpt lat="43.77023" lon="7.14453">
        <ele>762.59997558594</ele>
        <time>2019-02-23T08:58:25.000Z</time>
      </trkpt>
      <trkpt lat="43.77024" lon="7.14452">
        <ele>762.79998779297</ele>
        <time>2019-02-23T08:58:26.000Z</time>
      </trkpt>
      <trkpt lat="43.77034" lon="7.14444">
        <ele>763.40002441406</ele>
        <time>2019-02-23T08:58:33.000Z</time>
      </trkpt>
      <trkpt lat="43.77037" lon="7.14442">
        <ele>763.59997558594</ele>
        <time>2019-02-23T08:58:35.000Z</time>
      </trkpt>
      <trkpt lat="43.77045" lon="7.14437">
        <ele>764.20001220703</ele>
        <time>2019-02-23T08:58:40.000Z</time>
      </trkpt>
      <trkpt lat="43.77051" lon="7.14434">
        <ele>764.20001220703</ele>
        <time>2019-02-23T08:58:44.000Z</time>
      </trkpt>
      <trkpt lat="43.77054" lon="7.14431">
        <ele>764.20001220703</ele>
        <time>2019-02-23T08:58:46.000Z</time>
      </trkpt>
      <trkpt lat="43.77058" lon="7.14427">
        <ele>764.59997558594</ele>
        <time>2019-02-23T08:58:49.000Z</time>
      </trkpt>
      <trkpt lat="43.77059" lon="7.14426">
        <ele>764.59997558594</ele>
        <time>2019-02-23T08:58:50.000Z</time>
      </trkpt>
      <trkpt lat="43.77063" lon="7.14422">
        <ele>765</ele>
        <time>2019-02-23T08:58:53.000Z</time>
      </trkpt>
      <trkpt lat="43.77073" lon="7.14412">
        <ele>765.20001220703</ele>
        <time>2019-02-23T08:59:00.000Z</time>
      </trkpt>
      <trkpt lat="43.77082" lon="7.14408">
        <ele>765.79998779297</ele>
        <time>2019-02-23T08:59:05.000Z</time>
      </trkpt>
      <trkpt lat="43.77085" lon="7.14406">
        <ele>765.79998779297</ele>
        <time>2019-02-23T08:59:07.000Z</time>
      </trkpt>
      <trkpt lat="43.77097" lon="7.144">
        <ele>766.20001220703</ele>
        <time>2019-02-23T08:59:14.000Z</time>
      </trkpt>
      <trkpt lat="43.77109" lon="7.14389">
        <ele>766.59997558594</ele>
        <time>2019-02-23T08:59:22.000Z</time>
      </trkpt>
      <trkpt lat="43.77112" lon="7.14386">
        <ele>766.79998779297</ele>
        <time>2019-02-23T08:59:24.000Z</time>
      </trkpt>
      <trkpt lat="43.77118" lon="7.14379">
        <ele>767</ele>
        <time>2019-02-23T08:59:28.000Z</time>
      </trkpt>
      <trkpt lat="43.77132" lon="7.14362">
        <ele>767.79998779297</ele>
        <time>2019-02-23T08:59:38.000Z</time>
      </trkpt>
      <trkpt lat="43.77133" lon="7.1436">
        <ele>767.79998779297</ele>
        <time>2019-02-23T08:59:39.000Z</time>
      </trkpt>
      <trkpt lat="43.77141" lon="7.14349">
        <ele>768.40002441406</ele>
        <time>2019-02-23T08:59:45.000Z</time>
      </trkpt>
      <trkpt lat="43.77146" lon="7.14342">
        <ele>768.79998779297</ele>
        <time>2019-02-23T08:59:49.000Z</time>
      </trkpt>
      <trkpt lat="43.77148" lon="7.14341">
        <ele>769</ele>
        <time>2019-02-23T08:59:50.000Z</time>
      </trkpt>
      <trkpt lat="43.77157" lon="7.14331">
        <ele>770</ele>
        <time>2019-02-23T08:59:57.000Z</time>
      </trkpt>
      <trkpt lat="43.7716" lon="7.14328">
        <ele>770</ele>
        <time>2019-02-23T08:59:59.000Z</time>
      </trkpt>
      <trkpt lat="43.77169" lon="7.14317">
        <ele>770.40002441406</ele>
        <time>2019-02-23T09:00:06.000Z</time>
      </trkpt>
      <trkpt lat="43.7718" lon="7.14301">
        <ele>770.79998779297</ele>
        <time>2019-02-23T09:00:14.000Z</time>
      </trkpt>
      <trkpt lat="43.77183" lon="7.14294">
        <ele>771</ele>
        <time>2019-02-23T09:00:17.000Z</time>
      </trkpt>
      <trkpt lat="43.77189" lon="7.14284">
        <ele>771.59997558594</ele>
        <time>2019-02-23T09:00:22.000Z</time>
      </trkpt>
      <trkpt lat="43.77201" lon="7.14274">
        <ele>771.59997558594</ele>
        <time>2019-02-23T09:00:29.000Z</time>
      </trkpt>
      <trkpt lat="43.77208" lon="7.14269">
        <ele>772</ele>
        <time>2019-02-23T09:00:33.000Z</time>
      </trkpt>
      <trkpt lat="43.77211" lon="7.14266">
        <ele>772.20001220703</ele>
        <time>2019-02-23T09:00:35.000Z</time>
      </trkpt>
      <trkpt lat="43.77214" lon="7.14261">
        <ele>772.59997558594</ele>
        <time>2019-02-23T09:00:38.000Z</time>
      </trkpt>
      <trkpt lat="43.77214" lon="7.14258">
        <ele>772.79998779297</ele>
        <time>2019-02-23T09:00:40.000Z</time>
      </trkpt>
      <trkpt lat="43.77214" lon="7.14255">
        <ele>773</ele>
        <time>2019-02-23T09:00:41.000Z</time>
      </trkpt>
      <trkpt lat="43.77218" lon="7.14251">
        <ele>773.40002441406</ele>
        <time>2019-02-23T09:00:44.000Z</time>
      </trkpt>
      <trkpt lat="43.7723" lon="7.1424">
        <ele>774</ele>
        <time>2019-02-23T09:00:51.000Z</time>
      </trkpt>
      <trkpt lat="43.77231" lon="7.14238">
        <ele>774</ele>
        <time>2019-02-23T09:00:52.000Z</time>
      </trkpt>
      <trkpt lat="43.77241" lon="7.14226">
        <ele>774.79998779297</ele>
        <time>2019-02-23T09:00:59.000Z</time>
      </trkpt>
      <trkpt lat="43.77244" lon="7.14222">
        <ele>775</ele>
        <time>2019-02-23T09:01:01.000Z</time>
      </trkpt>
      <trkpt lat="43.77248" lon="7.14211">
        <ele>776</ele>
        <time>2019-02-23T09:01:06.000Z</time>
      </trkpt>
      <trkpt lat="43.7725" lon="7.14207">
        <ele>776</ele>
        <time>2019-02-23T09:01:08.000Z</time>
      </trkpt>
      <trkpt lat="43.7725" lon="7.14197">
        <ele>776.59997558594</ele>
        <time>2019-02-23T09:01:12.000Z</time>
      </trkpt>
      <trkpt lat="43.77245" lon="7.14183">
        <ele>777.20001220703</ele>
        <time>2019-02-23T09:01:18.000Z</time>
      </trkpt>
      <trkpt lat="43.77246" lon="7.1418">
        <ele>777.40002441406</ele>
        <time>2019-02-23T09:01:19.000Z</time>
      </trkpt>
      <trkpt lat="43.77253" lon="7.14167">
        <ele>778.20001220703</ele>
        <time>2019-02-23T09:01:26.000Z</time>
      </trkpt>
      <trkpt lat="43.77255" lon="7.14165">
        <ele>778.40002441406</ele>
        <time>2019-02-23T09:01:27.000Z</time>
      </trkpt>
      <trkpt lat="43.77261" lon="7.14157">
        <ele>778.79998779297</ele>
        <time>2019-02-23T09:01:32.000Z</time>
      </trkpt>
      <trkpt lat="43.77266" lon="7.14151">
        <ele>779.40002441406</ele>
        <time>2019-02-23T09:01:36.000Z</time>
      </trkpt>
      <trkpt lat="43.77271" lon="7.14143">
        <ele>780.20001220703</ele>
        <time>2019-02-23T09:01:41.000Z</time>
      </trkpt>
      <trkpt lat="43.77274" lon="7.14138">
        <ele>780.40002441406</ele>
        <time>2019-02-23T09:01:44.000Z</time>
      </trkpt>
      <trkpt lat="43.77277" lon="7.14133">
        <ele>780.79998779297</ele>
        <time>2019-02-23T09:01:47.000Z</time>
      </trkpt>
      <trkpt lat="43.7728" lon="7.14127">
        <ele>781.59997558594</ele>
        <time>2019-02-23T09:01:51.000Z</time>
      </trkpt>
      <trkpt lat="43.77283" lon="7.14122">
        <ele>782</ele>
        <time>2019-02-23T09:01:54.000Z</time>
      </trkpt>
      <trkpt lat="43.77288" lon="7.14113">
        <ele>782.59997558594</ele>
        <time>2019-02-23T09:02:00.000Z</time>
      </trkpt>
      <trkpt lat="43.77289" lon="7.14112">
        <ele>782.59997558594</ele>
        <time>2019-02-23T09:02:01.000Z</time>
      </trkpt>
      <trkpt lat="43.7729" lon="7.14109">
        <ele>782.79998779297</ele>
        <time>2019-02-23T09:02:03.000Z</time>
      </trkpt>
      <trkpt lat="43.77293" lon="7.14102">
        <ele>783.59997558594</ele>
        <time>2019-02-23T09:02:07.000Z</time>
      </trkpt>
      <trkpt lat="43.77295" lon="7.14094">
        <ele>783.79998779297</ele>
        <time>2019-02-23T09:02:11.000Z</time>
      </trkpt>
      <trkpt lat="43.77299" lon="7.14088">
        <ele>784.59997558594</ele>
        <time>2019-02-23T09:02:15.000Z</time>
      </trkpt>
      <trkpt lat="43.77303" lon="7.14082">
        <ele>785.20001220703</ele>
        <time>2019-02-23T09:02:19.000Z</time>
      </trkpt>
      <trkpt lat="43.77306" lon="7.14079">
        <ele>785.79998779297</ele>
        <time>2019-02-23T09:02:22.000Z</time>
      </trkpt>
      <trkpt lat="43.77311" lon="7.14075">
        <ele>786.20001220703</ele>
        <time>2019-02-23T09:02:26.000Z</time>
      </trkpt>
      <trkpt lat="43.77317" lon="7.14067">
        <ele>787</ele>
        <time>2019-02-23T09:02:32.000Z</time>
      </trkpt>
      <trkpt lat="43.77327" lon="7.14058">
        <ele>788</ele>
        <time>2019-02-23T09:02:40.000Z</time>
      </trkpt>
      <trkpt lat="43.77334" lon="7.14054">
        <ele>788.59997558594</ele>
        <time>2019-02-23T09:02:46.000Z</time>
      </trkpt>
      <trkpt lat="43.77338" lon="7.14053">
        <ele>789.20001220703</ele>
        <time>2019-02-23T09:02:49.000Z</time>
      </trkpt>
      <trkpt lat="43.77346" lon="7.1405">
        <ele>790.20001220703</ele>
        <time>2019-02-23T09:02:55.000Z</time>
      </trkpt>
      <trkpt lat="43.77353" lon="7.14048">
        <ele>791.20001220703</ele>
        <time>2019-02-23T09:03:00.000Z</time>
      </trkpt>
      <trkpt lat="43.77354" lon="7.14048">
        <ele>791.20001220703</ele>
        <time>2019-02-23T09:03:01.000Z</time>
      </trkpt>
      <trkpt lat="43.77356" lon="7.14047">
        <ele>791.79998779297</ele>
        <time>2019-02-23T09:03:03.000Z</time>
      </trkpt>
      <trkpt lat="43.77359" lon="7.14046">
        <ele>792.40002441406</ele>
        <time>2019-02-23T09:03:06.000Z</time>
      </trkpt>
      <trkpt lat="43.77364" lon="7.14043">
        <ele>793.59997558594</ele>
        <time>2019-02-23T09:03:11.000Z</time>
      </trkpt>
      <trkpt lat="43.77367" lon="7.14042">
        <ele>794.20001220703</ele>
        <time>2019-02-23T09:03:13.000Z</time>
      </trkpt>
      <trkpt lat="43.77368" lon="7.14041">
        <ele>794.59997558594</ele>
        <time>2019-02-23T09:03:15.000Z</time>
      </trkpt>
      <trkpt lat="43.77372" lon="7.14033">
        <ele>795.59997558594</ele>
        <time>2019-02-23T09:03:20.000Z</time>
      </trkpt>
      <trkpt lat="43.77373" lon="7.14026">
        <ele>795.79998779297</ele>
        <time>2019-02-23T09:03:24.000Z</time>
      </trkpt>
      <trkpt lat="43.77376" lon="7.14018">
        <ele>796</ele>
        <time>2019-02-23T09:03:29.000Z</time>
      </trkpt>
      <trkpt lat="43.77384" lon="7.14012">
        <ele>796.59997558594</ele>
        <time>2019-02-23T09:03:35.000Z</time>
      </trkpt>
      <trkpt lat="43.77387" lon="7.14011">
        <ele>796.79998779297</ele>
        <time>2019-02-23T09:03:37.000Z</time>
      </trkpt>
      <trkpt lat="43.77394" lon="7.14012">
        <ele>797.40002441406</ele>
        <time>2019-02-23T09:03:42.000Z</time>
      </trkpt>
      <trkpt lat="43.77398" lon="7.14013">
        <ele>798</ele>
        <time>2019-02-23T09:03:45.000Z</time>
      </trkpt>
      <trkpt lat="43.77401" lon="7.14014">
        <ele>798.20001220703</ele>
        <time>2019-02-23T09:03:48.000Z</time>
      </trkpt>
      <trkpt lat="43.77411" lon="7.1401">
        <ele>798.79998779297</ele>
        <time>2019-02-23T09:03:55.000Z</time>
      </trkpt>
      <trkpt lat="43.77412" lon="7.14009">
        <ele>799</ele>
        <time>2019-02-23T09:03:56.000Z</time>
      </trkpt>
      <trkpt lat="43.77421" lon="7.14002">
        <ele>799.59997558594</ele>
        <time>2019-02-23T09:04:03.000Z</time>
      </trkpt>
      <trkpt lat="43.77427" lon="7.13998">
        <ele>800</ele>
        <time>2019-02-23T09:04:07.000Z</time>
      </trkpt>
      <trkpt lat="43.77434" lon="7.13995">
        <ele>800.59997558594</ele>
        <time>2019-02-23T09:04:13.000Z</time>
      </trkpt>
      <trkpt lat="43.77441" lon="7.13987">
        <ele>801</ele>
        <time>2019-02-23T09:04:19.000Z</time>
      </trkpt>
      <trkpt lat="43.77441" lon="7.13984">
        <ele>801.20001220703</ele>
        <time>2019-02-23T09:04:20.000Z</time>
      </trkpt>
      <trkpt lat="43.77448" lon="7.13966">
        <ele>801.40002441406</ele>
        <time>2019-02-23T09:04:28.000Z</time>
      </trkpt>
      <trkpt lat="43.77453" lon="7.13959">
        <ele>802.20001220703</ele>
        <time>2019-02-23T09:04:32.000Z</time>
      </trkpt>
      <trkpt lat="43.77454" lon="7.13957">
        <ele>802.40002441406</ele>
        <time>2019-02-23T09:04:33.000Z</time>
      </trkpt>
      <trkpt lat="43.77455" lon="7.13952">
        <ele>803.20001220703</ele>
        <time>2019-02-23T09:04:36.000Z</time>
      </trkpt>
      <trkpt lat="43.77455" lon="7.1395">
        <ele>803.40002441406</ele>
        <time>2019-02-23T09:04:37.000Z</time>
      </trkpt>
      <trkpt lat="43.77458" lon="7.13947">
        <ele>803.79998779297</ele>
        <time>2019-02-23T09:04:39.000Z</time>
      </trkpt>
      <trkpt lat="43.7746" lon="7.13946">
        <ele>804.20001220703</ele>
        <time>2019-02-23T09:04:41.000Z</time>
      </trkpt>
      <trkpt lat="43.77462" lon="7.13946">
        <ele>804.59997558594</ele>
        <time>2019-02-23T09:04:43.000Z</time>
      </trkpt>
      <trkpt lat="43.77463" lon="7.13947">
        <ele>804.79998779297</ele>
        <time>2019-02-23T09:04:44.000Z</time>
      </trkpt>
      <trkpt lat="43.77465" lon="7.13949">
        <ele>805.20001220703</ele>
        <time>2019-02-23T09:04:47.000Z</time>
      </trkpt>
      <trkpt lat="43.77469" lon="7.1395">
        <ele>805.20001220703</ele>
        <time>2019-02-23T09:04:50.000Z</time>
      </trkpt>
      <trkpt lat="43.7747" lon="7.13948">
        <ele>805.20001220703</ele>
        <time>2019-02-23T09:04:52.000Z</time>
      </trkpt>
      <trkpt lat="43.7747" lon="7.13947">
        <ele>805.40002441406</ele>
        <time>2019-02-23T09:04:53.000Z</time>
      </trkpt>
      <trkpt lat="43.7747" lon="7.13946">
        <ele>805.59997558594</ele>
        <time>2019-02-23T09:04:54.000Z</time>
      </trkpt>
      <trkpt lat="43.77469" lon="7.13943">
        <ele>806</ele>
        <time>2019-02-23T09:04:57.000Z</time>
      </trkpt>
      <trkpt lat="43.77467" lon="7.13943">
        <ele>806.20001220703</ele>
        <time>2019-02-23T09:05:00.000Z</time>
      </trkpt>
      <trkpt lat="43.77467" lon="7.13945">
        <ele>806</ele>
        <time>2019-02-23T09:05:06.000Z</time>
      </trkpt>
      <trkpt lat="43.77469" lon="7.13945">
        <ele>806.40002441406</ele>
        <time>2019-02-23T09:05:12.000Z</time>
      </trkpt>
      <trkpt lat="43.77469" lon="7.13945">
        <ele>806.40002441406</ele>
        <time>2019-02-23T09:05:13.000Z</time>
      </trkpt>
      <trkpt lat="43.7747" lon="7.13945">
        <ele>806</ele>
        <time>2019-02-23T09:05:18.000Z</time>
      </trkpt>
      <trkpt lat="43.77472" lon="7.13944">
        <ele>806</ele>
        <time>2019-02-23T09:05:32.000Z</time>
      </trkpt>
      <trkpt lat="43.77471" lon="7.13945">
        <ele>806.20001220703</ele>
        <time>2019-02-23T09:05:46.000Z</time>
      </trkpt>
      <trkpt lat="43.77469" lon="7.13944">
        <ele>806.40002441406</ele>
        <time>2019-02-23T09:05:52.000Z</time>
      </trkpt>
      <trkpt lat="43.77467" lon="7.13943">
        <ele>806.40002441406</ele>
        <time>2019-02-23T09:05:58.000Z</time>
      </trkpt>
      <trkpt lat="43.77467" lon="7.13943">
        <ele>806.40002441406</ele>
        <time>2019-02-23T09:06:06.000Z</time>
      </trkpt>
      <trkpt lat="43.77467" lon="7.13942">
        <ele>806.40002441406</ele>
        <time>2019-02-23T09:06:16.000Z</time>
      </trkpt>
      <trkpt lat="43.77466" lon="7.13941">
        <ele>806.59997558594</ele>
        <time>2019-02-23T09:06:25.000Z</time>
      </trkpt>
      <trkpt lat="43.77466" lon="7.1394">
        <ele>806.40002441406</ele>
        <time>2019-02-23T09:06:32.000Z</time>
      </trkpt>
      <trkpt lat="43.77466" lon="7.1394">
        <ele>806.20001220703</ele>
        <time>2019-02-23T09:06:41.000Z</time>
      </trkpt>
      <trkpt lat="43.77465" lon="7.13941">
        <ele>806.20001220703</ele>
        <time>2019-02-23T09:06:51.000Z</time>
      </trkpt>
      <trkpt lat="43.77465" lon="7.13941">
        <ele>806.40002441406</ele>
        <time>2019-02-23T09:07:10.000Z</time>
      </trkpt>
      <trkpt lat="43.77465" lon="7.13941">
        <ele>806.40002441406</ele>
        <time>2019-02-23T09:07:22.000Z</time>
      </trkpt>
      <trkpt lat="43.77465" lon="7.13942">
        <ele>806.40002441406</ele>
        <time>2019-02-23T09:07:36.000Z</time>
      </trkpt>
      <trkpt lat="43.77466" lon="7.13943">
        <ele>806.40002441406</ele>
        <time>2019-02-23T09:07:54.000Z</time>
      </trkpt>
      <trkpt lat="43.77466" lon="7.13944">
        <ele>806.40002441406</ele>
        <time>2019-02-23T09:08:02.000Z</time>
      </trkpt>
      <trkpt lat="43.77467" lon="7.13944">
        <ele>806.40002441406</ele>
        <time>2019-02-23T09:08:12.000Z</time>
      </trkpt>
      <trkpt lat="43.77469" lon="7.13944">
        <ele>806.20001220703</ele>
        <time>2019-02-23T09:08:27.000Z</time>
      </trkpt>
      <trkpt lat="43.7747" lon="7.13944">
        <ele>806.40002441406</ele>
        <time>2019-02-23T09:08:34.000Z</time>
      </trkpt>
      <trkpt lat="43.77471" lon="7.13945">
        <ele>806.20001220703</ele>
        <time>2019-02-23T09:08:45.000Z</time>
      </trkpt>
      <trkpt lat="43.77472" lon="7.13953">
        <ele>805.79998779297</ele>
        <time>2019-02-23T09:08:53.000Z</time>
      </trkpt>
      <trkpt lat="43.77471" lon="7.13955">
        <ele>805.40002441406</ele>
        <time>2019-02-23T09:08:55.000Z</time>
      </trkpt>
      <trkpt lat="43.77471" lon="7.13958">
        <ele>805.40002441406</ele>
        <time>2019-02-23T09:08:59.000Z</time>
      </trkpt>
      <trkpt lat="43.77471" lon="7.13958">
        <ele>805.59997558594</ele>
        <time>2019-02-23T09:09:00.000Z</time>
      </trkpt>
      <trkpt lat="43.77471" lon="7.13962">
        <ele>805.79998779297</ele>
        <time>2019-02-23T09:09:03.000Z</time>
      </trkpt>
      <trkpt lat="43.7747" lon="7.13965">
        <ele>806</ele>
        <time>2019-02-23T09:09:06.000Z</time>
      </trkpt>
      <trkpt lat="43.7747" lon="7.13968">
        <ele>806</ele>
        <time>2019-02-23T09:09:10.000Z</time>
      </trkpt>
      <trkpt lat="43.7747" lon="7.13969">
        <ele>805.79998779297</ele>
        <time>2019-02-23T09:09:11.000Z</time>
      </trkpt>
      <trkpt lat="43.7747" lon="7.1397">
        <ele>805.79998779297</ele>
        <time>2019-02-23T09:09:12.000Z</time>
      </trkpt>
      <trkpt lat="43.77469" lon="7.13972">
        <ele>805.79998779297</ele>
        <time>2019-02-23T09:09:16.000Z</time>
      </trkpt>
      <trkpt lat="43.77467" lon="7.13977">
        <ele>805.59997558594</ele>
        <time>2019-02-23T09:09:23.000Z</time>
      </trkpt>
      <trkpt lat="43.77463" lon="7.13977">
        <ele>805.20001220703</ele>
        <time>2019-02-23T09:09:29.000Z</time>
      </trkpt>
      <trkpt lat="43.77464" lon="7.13977">
        <ele>805.59997558594</ele>
        <time>2019-02-23T09:09:36.000Z</time>
      </trkpt>
      <trkpt lat="43.77468" lon="7.13979">
        <ele>805.79998779297</ele>
        <time>2019-02-23T09:09:44.000Z</time>
      </trkpt>
      <trkpt lat="43.77472" lon="7.13977">
        <ele>805.79998779297</ele>
        <time>2019-02-23T09:09:50.000Z</time>
      </trkpt>
      <trkpt lat="43.77475" lon="7.13977">
        <ele>806.40002441406</ele>
        <time>2019-02-23T09:09:55.000Z</time>
      </trkpt>
      <trkpt lat="43.77476" lon="7.13978">
        <ele>806.59997558594</ele>
        <time>2019-02-23T09:09:56.000Z</time>
      </trkpt>
      <trkpt lat="43.77478" lon="7.13979">
        <ele>807</ele>
        <time>2019-02-23T09:10:01.000Z</time>
      </trkpt>
      <trkpt lat="43.77479" lon="7.13983">
        <ele>807</ele>
        <time>2019-02-23T09:10:07.000Z</time>
      </trkpt>
      <trkpt lat="43.77479" lon="7.13985">
        <ele>806.40002441406</ele>
        <time>2019-02-23T09:10:12.000Z</time>
      </trkpt>
      <trkpt lat="43.77478" lon="7.13984">
        <ele>806.40002441406</ele>
        <time>2019-02-23T09:10:17.000Z</time>
      </trkpt>
      <trkpt lat="43.77477" lon="7.13978">
        <ele>806.79998779297</ele>
        <time>2019-02-23T09:10:25.000Z</time>
      </trkpt>
      <trkpt lat="43.77476" lon="7.13978">
        <ele>807.20001220703</ele>
        <time>2019-02-23T09:10:34.000Z</time>
      </trkpt>
      <trkpt lat="43.77475" lon="7.13977">
        <ele>807.20001220703</ele>
        <time>2019-02-23T09:10:47.000Z</time>
      </trkpt>
      <trkpt lat="43.77474" lon="7.13978">
        <ele>806.79998779297</ele>
        <time>2019-02-23T09:10:57.000Z</time>
      </trkpt>
      <trkpt lat="43.77474" lon="7.13977">
        <ele>807.20001220703</ele>
        <time>2019-02-23T09:11:04.000Z</time>
      </trkpt>
      <trkpt lat="43.77475" lon="7.13977">
        <ele>807</ele>
        <time>2019-02-23T09:11:09.000Z</time>
      </trkpt>
      <trkpt lat="43.77475" lon="7.13977">
        <ele>807.40002441406</ele>
        <time>2019-02-23T09:11:16.000Z</time>
      </trkpt>
      <trkpt lat="43.77475" lon="7.13977">
        <ele>807.40002441406</ele>
        <time>2019-02-23T09:11:20.000Z</time>
      </trkpt>
      <trkpt lat="43.77475" lon="7.13978">
        <ele>807.40002441406</ele>
        <time>2019-02-23T09:11:30.000Z</time>
      </trkpt>
      <trkpt lat="43.77475" lon="7.13979">
        <ele>806.79998779297</ele>
        <time>2019-02-23T09:11:43.000Z</time>
      </trkpt>
      <trkpt lat="43.77474" lon="7.13979">
        <ele>807</ele>
        <time>2019-02-23T09:12:00.000Z</time>
      </trkpt>
      <trkpt lat="43.77475" lon="7.13979">
        <ele>806.40002441406</ele>
        <time>2019-02-23T09:12:17.000Z</time>
      </trkpt>
      <trkpt lat="43.77474" lon="7.13978">
        <ele>806.40002441406</ele>
        <time>2019-02-23T09:12:19.000Z</time>
      </trkpt>
      <trkpt lat="43.7747" lon="7.13976">
        <ele>806.59997558594</ele>
        <time>2019-02-23T09:12:25.000Z</time>
      </trkpt>
      <trkpt lat="43.7747" lon="7.13975">
        <ele>806.59997558594</ele>
        <time>2019-02-23T09:12:26.000Z</time>
      </trkpt>
      <trkpt lat="43.77468" lon="7.13973">
        <ele>806.20001220703</ele>
        <time>2019-02-23T09:12:33.000Z</time>
      </trkpt>
      <trkpt lat="43.77465" lon="7.13968">
        <ele>805.79998779297</ele>
        <time>2019-02-23T09:12:39.000Z</time>
      </trkpt>
      <trkpt lat="43.77466" lon="7.13966">
        <ele>805.79998779297</ele>
        <time>2019-02-23T09:12:40.000Z</time>
      </trkpt>
      <trkpt lat="43.77468" lon="7.13963">
        <ele>805.59997558594</ele>
        <time>2019-02-23T09:12:44.000Z</time>
      </trkpt>
      <trkpt lat="43.7747" lon="7.1396">
        <ele>805.40002441406</ele>
        <time>2019-02-23T09:12:47.000Z</time>
      </trkpt>
      <trkpt lat="43.77469" lon="7.13958">
        <ele>805.40002441406</ele>
        <time>2019-02-23T09:12:49.000Z</time>
      </trkpt>
      <trkpt lat="43.77469" lon="7.13953">
        <ele>805</ele>
        <time>2019-02-23T09:12:52.000Z</time>
      </trkpt>
      <trkpt lat="43.77467" lon="7.13947">
        <ele>804.79998779297</ele>
        <time>2019-02-23T09:12:57.000Z</time>
      </trkpt>
      <trkpt lat="43.77467" lon="7.13945">
        <ele>805</ele>
        <time>2019-02-23T09:13:03.000Z</time>
      </trkpt>
      <trkpt lat="43.77466" lon="7.13944">
        <ele>805.40002441406</ele>
        <time>2019-02-23T09:13:17.000Z</time>
      </trkpt>
      <trkpt lat="43.77465" lon="7.13943">
        <ele>805.20001220703</ele>
        <time>2019-02-23T09:13:26.000Z</time>
      </trkpt>
      <trkpt lat="43.77464" lon="7.13943">
        <ele>805.59997558594</ele>
        <time>2019-02-23T09:13:41.000Z</time>
      </trkpt>
      <trkpt lat="43.77464" lon="7.13941">
        <ele>805.20001220703</ele>
        <time>2019-02-23T09:13:45.000Z</time>
      </trkpt>
      <trkpt lat="43.77464" lon="7.13938">
        <ele>805</ele>
        <time>2019-02-23T09:13:51.000Z</time>
      </trkpt>
      <trkpt lat="43.77462" lon="7.13933">
        <ele>805.40002441406</ele>
        <time>2019-02-23T09:13:55.000Z</time>
      </trkpt>
      <trkpt lat="43.77459" lon="7.1392">
        <ele>805.79998779297</ele>
        <time>2019-02-23T09:14:04.000Z</time>
      </trkpt>
      <trkpt lat="43.77462" lon="7.13911">
        <ele>806.40002441406</ele>
        <time>2019-02-23T09:14:10.000Z</time>
      </trkpt>
      <trkpt lat="43.77462" lon="7.13909">
        <ele>806.59997558594</ele>
        <time>2019-02-23T09:14:11.000Z</time>
      </trkpt>
      <trkpt lat="43.77466" lon="7.139">
        <ele>807.20001220703</ele>
        <time>2019-02-23T09:14:17.000Z</time>
      </trkpt>
      <trkpt lat="43.77468" lon="7.13897">
        <ele>807.59997558594</ele>
        <time>2019-02-23T09:14:20.000Z</time>
      </trkpt>
      <trkpt lat="43.77469" lon="7.13895">
        <ele>808</ele>
        <time>2019-02-23T09:14:22.000Z</time>
      </trkpt>
      <trkpt lat="43.77471" lon="7.13893">
        <ele>808</ele>
        <time>2019-02-23T09:14:24.000Z</time>
      </trkpt>
      <trkpt lat="43.77475" lon="7.13889">
        <ele>808.59997558594</ele>
        <time>2019-02-23T09:14:28.000Z</time>
      </trkpt>
      <trkpt lat="43.77477" lon="7.13888">
        <ele>808.59997558594</ele>
        <time>2019-02-23T09:14:29.000Z</time>
      </trkpt>
      <trkpt lat="43.77483" lon="7.13887">
        <ele>809.59997558594</ele>
        <time>2019-02-23T09:14:34.000Z</time>
      </trkpt>
      <trkpt lat="43.77486" lon="7.13887">
        <ele>809.79998779297</ele>
        <time>2019-02-23T09:14:36.000Z</time>
      </trkpt>
      <trkpt lat="43.77492" lon="7.13888">
        <ele>810</ele>
        <time>2019-02-23T09:14:41.000Z</time>
      </trkpt>
      <trkpt lat="43.77498" lon="7.13886">
        <ele>810.79998779297</ele>
        <time>2019-02-23T09:14:46.000Z</time>
      </trkpt>
      <trkpt lat="43.77499" lon="7.13885">
        <ele>811.20001220703</ele>
        <time>2019-02-23T09:14:47.000Z</time>
      </trkpt>
      <trkpt lat="43.77502" lon="7.13883">
        <ele>812</ele>
        <time>2019-02-23T09:14:50.000Z</time>
      </trkpt>
      <trkpt lat="43.77505" lon="7.1388">
        <ele>812.59997558594</ele>
        <time>2019-02-23T09:14:53.000Z</time>
      </trkpt>
      <trkpt lat="43.77506" lon="7.13876">
        <ele>813.20001220703</ele>
        <time>2019-02-23T09:14:55.000Z</time>
      </trkpt>
      <trkpt lat="43.77508" lon="7.13873">
        <ele>814</ele>
        <time>2019-02-23T09:14:58.000Z</time>
      </trkpt>
      <trkpt lat="43.77509" lon="7.13872">
        <ele>814.40002441406</ele>
        <time>2019-02-23T09:14:59.000Z</time>
      </trkpt>
      <trkpt lat="43.77511" lon="7.13867">
        <ele>815.59997558594</ele>
        <time>2019-02-23T09:15:03.000Z</time>
      </trkpt>
      <trkpt lat="43.77512" lon="7.13866">
        <ele>815.79998779297</ele>
        <time>2019-02-23T09:15:04.000Z</time>
      </trkpt>
      <trkpt lat="43.77514" lon="7.13862">
        <ele>816.59997558594</ele>
        <time>2019-02-23T09:15:07.000Z</time>
      </trkpt>
      <trkpt lat="43.77517" lon="7.13858">
        <ele>817.20001220703</ele>
        <time>2019-02-23T09:15:10.000Z</time>
      </trkpt>
      <trkpt lat="43.77519" lon="7.13857">
        <ele>817.79998779297</ele>
        <time>2019-02-23T09:15:12.000Z</time>
      </trkpt>
      <trkpt lat="43.77522" lon="7.13854">
        <ele>818.79998779297</ele>
        <time>2019-02-23T09:15:15.000Z</time>
      </trkpt>
      <trkpt lat="43.77522" lon="7.13854">
        <ele>819</ele>
        <time>2019-02-23T09:15:16.000Z</time>
      </trkpt>
      <trkpt lat="43.77526" lon="7.1385">
        <ele>820.20001220703</ele>
        <time>2019-02-23T09:15:21.000Z</time>
      </trkpt>
      <trkpt lat="43.77528" lon="7.13849">
        <ele>820.59997558594</ele>
        <time>2019-02-23T09:15:23.000Z</time>
      </trkpt>
      <trkpt lat="43.77529" lon="7.13851">
        <ele>821.20001220703</ele>
        <time>2019-02-23T09:15:25.000Z</time>
      </trkpt>
      <trkpt lat="43.77529" lon="7.13853">
        <ele>821.40002441406</ele>
        <time>2019-02-23T09:15:26.000Z</time>
      </trkpt>
      <trkpt lat="43.77529" lon="7.13858">
        <ele>821.79998779297</ele>
        <time>2019-02-23T09:15:29.000Z</time>
      </trkpt>
      <trkpt lat="43.7753" lon="7.1386">
        <ele>821.79998779297</ele>
        <time>2019-02-23T09:15:31.000Z</time>
      </trkpt>
      <trkpt lat="43.77531" lon="7.1386">
        <ele>821.40002441406</ele>
        <time>2019-02-23T09:15:36.000Z</time>
      </trkpt>
      <trkpt lat="43.77533" lon="7.1386">
        <ele>822.40002441406</ele>
        <time>2019-02-23T09:15:41.000Z</time>
      </trkpt>
      <trkpt lat="43.77534" lon="7.1386">
        <ele>822.59997558594</ele>
        <time>2019-02-23T09:15:42.000Z</time>
      </trkpt>
      <trkpt lat="43.77536" lon="7.1386">
        <ele>823.59997558594</ele>
        <time>2019-02-23T09:15:48.000Z</time>
      </trkpt>
      <trkpt lat="43.77537" lon="7.1386">
        <ele>824.20001220703</ele>
        <time>2019-02-23T09:15:51.000Z</time>
      </trkpt>
      <trkpt lat="43.77538" lon="7.13859">
        <ele>824.59997558594</ele>
        <time>2019-02-23T09:15:54.000Z</time>
      </trkpt>
      <trkpt lat="43.77539" lon="7.13859">
        <ele>825.40002441406</ele>
        <time>2019-02-23T09:15:57.000Z</time>
      </trkpt>
      <trkpt lat="43.7754" lon="7.13858">
        <ele>825.79998779297</ele>
        <time>2019-02-23T09:15:59.000Z</time>
      </trkpt>
      <trkpt lat="43.77542" lon="7.13857">
        <ele>826.79998779297</ele>
        <time>2019-02-23T09:16:04.000Z</time>
      </trkpt>
      <trkpt lat="43.77543" lon="7.13857">
        <ele>827</ele>
        <time>2019-02-23T09:16:05.000Z</time>
      </trkpt>
      <trkpt lat="43.77545" lon="7.13855">
        <ele>828.20001220703</ele>
        <time>2019-02-23T09:16:11.000Z</time>
      </trkpt>
      <trkpt lat="43.77547" lon="7.13855">
        <ele>829</ele>
        <time>2019-02-23T09:16:17.000Z</time>
      </trkpt>
      <trkpt lat="43.77548" lon="7.13856">
        <ele>829.20001220703</ele>
        <time>2019-02-23T09:16:19.000Z</time>
      </trkpt>
      <trkpt lat="43.77551" lon="7.13858">
        <ele>830</ele>
        <time>2019-02-23T09:16:24.000Z</time>
      </trkpt>
      <trkpt lat="43.77551" lon="7.13857">
        <ele>830.20001220703</ele>
        <time>2019-02-23T09:16:26.000Z</time>
      </trkpt>
      <trkpt lat="43.77553" lon="7.13855">
        <ele>831</ele>
        <time>2019-02-23T09:16:30.000Z</time>
      </trkpt>
      <trkpt lat="43.77554" lon="7.13854">
        <ele>831.40002441406</ele>
        <time>2019-02-23T09:16:32.000Z</time>
      </trkpt>
      <trkpt lat="43.77556" lon="7.13852">
        <ele>831.79998779297</ele>
        <time>2019-02-23T09:16:37.000Z</time>
      </trkpt>
      <trkpt lat="43.77558" lon="7.13851">
        <ele>832.40002441406</ele>
        <time>2019-02-23T09:16:40.000Z</time>
      </trkpt>
      <trkpt lat="43.7756" lon="7.13849">
        <ele>832.79998779297</ele>
        <time>2019-02-23T09:16:43.000Z</time>
      </trkpt>
      <trkpt lat="43.77563" lon="7.13847">
        <ele>833.40002441406</ele>
        <time>2019-02-23T09:16:48.000Z</time>
      </trkpt>
      <trkpt lat="43.77564" lon="7.13847">
        <ele>833.40002441406</ele>
        <time>2019-02-23T09:16:50.000Z</time>
      </trkpt>
      <trkpt lat="43.77568" lon="7.13845">
        <ele>834.59997558594</ele>
        <time>2019-02-23T09:16:57.000Z</time>
      </trkpt>
      <trkpt lat="43.77568" lon="7.13845">
        <ele>834.59997558594</ele>
        <time>2019-02-23T09:16:58.000Z</time>
      </trkpt>
      <trkpt lat="43.77569" lon="7.13849">
        <ele>835.59997558594</ele>
        <time>2019-02-23T09:17:05.000Z</time>
      </trkpt>
      <trkpt lat="43.7757" lon="7.13853">
        <ele>836.40002441406</ele>
        <time>2019-02-23T09:17:12.000Z</time>
      </trkpt>
      <trkpt lat="43.77572" lon="7.13851">
        <ele>836.59997558594</ele>
        <time>2019-02-23T09:17:15.000Z</time>
      </trkpt>
      <trkpt lat="43.77574" lon="7.13848">
        <ele>837.20001220703</ele>
        <time>2019-02-23T09:17:19.000Z</time>
      </trkpt>
      <trkpt lat="43.77577" lon="7.13846">
        <ele>837.79998779297</ele>
        <time>2019-02-23T09:17:24.000Z</time>
      </trkpt>
      <trkpt lat="43.77579" lon="7.13845">
        <ele>838</ele>
        <time>2019-02-23T09:17:27.000Z</time>
      </trkpt>
      <trkpt lat="43.77581" lon="7.13845">
        <ele>838.59997558594</ele>
        <time>2019-02-23T09:17:34.000Z</time>
      </trkpt>
      <trkpt lat="43.77581" lon="7.13844">
        <ele>838.59997558594</ele>
        <time>2019-02-23T09:17:39.000Z</time>
      </trkpt>
      <trkpt lat="43.77584" lon="7.13843">
        <ele>838.59997558594</ele>
        <time>2019-02-23T09:17:44.000Z</time>
      </trkpt>
      <trkpt lat="43.77587" lon="7.13843">
        <ele>839</ele>
        <time>2019-02-23T09:17:47.000Z</time>
      </trkpt>
      <trkpt lat="43.77591" lon="7.13842">
        <ele>839.59997558594</ele>
        <time>2019-02-23T09:17:51.000Z</time>
      </trkpt>
      <trkpt lat="43.77593" lon="7.13842">
        <ele>840</ele>
        <time>2019-02-23T09:17:53.000Z</time>
      </trkpt>
      <trkpt lat="43.77594" lon="7.13842">
        <ele>840</ele>
        <time>2019-02-23T09:17:54.000Z</time>
      </trkpt>
      <trkpt lat="43.77597" lon="7.1384">
        <ele>840.59997558594</ele>
        <time>2019-02-23T09:17:57.000Z</time>
      </trkpt>
      <trkpt lat="43.77599" lon="7.1384">
        <ele>841</ele>
        <time>2019-02-23T09:17:59.000Z</time>
      </trkpt>
      <trkpt lat="43.77602" lon="7.13838">
        <ele>841.79998779297</ele>
        <time>2019-02-23T09:18:02.000Z</time>
      </trkpt>
      <trkpt lat="43.77603" lon="7.13837">
        <ele>842.20001220703</ele>
        <time>2019-02-23T09:18:03.000Z</time>
      </trkpt>
      <trkpt lat="43.77606" lon="7.13835">
        <ele>843.20001220703</ele>
        <time>2019-02-23T09:18:07.000Z</time>
      </trkpt>
      <trkpt lat="43.77606" lon="7.13835">
        <ele>843.40002441406</ele>
        <time>2019-02-23T09:18:08.000Z</time>
      </trkpt>
      <trkpt lat="43.77609" lon="7.13834">
        <ele>843.79998779297</ele>
        <time>2019-02-23T09:18:13.000Z</time>
      </trkpt>
      <trkpt lat="43.77611" lon="7.13832">
        <ele>844.40002441406</ele>
        <time>2019-02-23T09:18:16.000Z</time>
      </trkpt>
      <trkpt lat="43.77613" lon="7.13828">
        <ele>845</ele>
        <time>2019-02-23T09:18:20.000Z</time>
      </trkpt>
      <trkpt lat="43.77616" lon="7.13825">
        <ele>845.40002441406</ele>
        <time>2019-02-23T09:18:24.000Z</time>
      </trkpt>
      <trkpt lat="43.77619" lon="7.13824">
        <ele>845.79998779297</ele>
        <time>2019-02-23T09:18:27.000Z</time>
      </trkpt>
      <trkpt lat="43.7762" lon="7.13823">
        <ele>846.59997558594</ele>
        <time>2019-02-23T09:18:31.000Z</time>
      </trkpt>
      <trkpt lat="43.77623" lon="7.13822">
        <ele>846.79998779297</ele>
        <time>2019-02-23T09:18:33.000Z</time>
      </trkpt>
      <trkpt lat="43.77623" lon="7.13821">
        <ele>846.79998779297</ele>
        <time>2019-02-23T09:18:34.000Z</time>
      </trkpt>
      <trkpt lat="43.77628" lon="7.13819">
        <ele>847.59997558594</ele>
        <time>2019-02-23T09:18:41.000Z</time>
      </trkpt>
      <trkpt lat="43.77628" lon="7.13818">
        <ele>847.79998779297</ele>
        <time>2019-02-23T09:18:42.000Z</time>
      </trkpt>
      <trkpt lat="43.77631" lon="7.13816">
        <ele>848.79998779297</ele>
        <time>2019-02-23T09:18:48.000Z</time>
      </trkpt>
      <trkpt lat="43.77631" lon="7.13816">
        <ele>849</ele>
        <time>2019-02-23T09:18:49.000Z</time>
      </trkpt>
      <trkpt lat="43.77635" lon="7.13811">
        <ele>849.79998779297</ele>
        <time>2019-02-23T09:18:57.000Z</time>
      </trkpt>
      <trkpt lat="43.77635" lon="7.13811">
        <ele>850</ele>
        <time>2019-02-23T09:18:58.000Z</time>
      </trkpt>
      <trkpt lat="43.77639" lon="7.13807">
        <ele>850.59997558594</ele>
        <time>2019-02-23T09:19:04.000Z</time>
      </trkpt>
      <trkpt lat="43.77641" lon="7.13804">
        <ele>851</ele>
        <time>2019-02-23T09:19:07.000Z</time>
      </trkpt>
      <trkpt lat="43.77643" lon="7.13804">
        <ele>851.40002441406</ele>
        <time>2019-02-23T09:19:10.000Z</time>
      </trkpt>
      <trkpt lat="43.77646" lon="7.13803">
        <ele>852.20001220703</ele>
        <time>2019-02-23T09:19:15.000Z</time>
      </trkpt>
      <trkpt lat="43.77647" lon="7.13802">
        <ele>852.59997558594</ele>
        <time>2019-02-23T09:19:17.000Z</time>
      </trkpt>
      <trkpt lat="43.77652" lon="7.13797">
        <ele>853.20001220703</ele>
        <time>2019-02-23T09:19:25.000Z</time>
      </trkpt>
      <trkpt lat="43.77657" lon="7.13795">
        <ele>854</ele>
        <time>2019-02-23T09:19:31.000Z</time>
      </trkpt>
      <trkpt lat="43.7766" lon="7.13792">
        <ele>854.40002441406</ele>
        <time>2019-02-23T09:19:35.000Z</time>
      </trkpt>
      <trkpt lat="43.77661" lon="7.13791">
        <ele>854.40002441406</ele>
        <time>2019-02-23T09:19:37.000Z</time>
      </trkpt>
      <trkpt lat="43.77668" lon="7.13785">
        <ele>855</ele>
        <time>2019-02-23T09:19:43.000Z</time>
      </trkpt>
      <trkpt lat="43.77676" lon="7.13779">
        <ele>855.59997558594</ele>
        <time>2019-02-23T09:19:49.000Z</time>
      </trkpt>
      <trkpt lat="43.77683" lon="7.13776">
        <ele>856.20001220703</ele>
        <time>2019-02-23T09:19:54.000Z</time>
      </trkpt>
      <trkpt lat="43.77685" lon="7.13774">
        <ele>856.59997558594</ele>
        <time>2019-02-23T09:19:56.000Z</time>
      </trkpt>
      <trkpt lat="43.77693" lon="7.13767">
        <ele>856.79998779297</ele>
        <time>2019-02-23T09:20:01.000Z</time>
      </trkpt>
      <trkpt lat="43.77703" lon="7.13754">
        <ele>856.59997558594</ele>
        <time>2019-02-23T09:20:07.000Z</time>
      </trkpt>
      <trkpt lat="43.77708" lon="7.13749">
        <ele>856.79998779297</ele>
        <time>2019-02-23T09:20:11.000Z</time>
      </trkpt>
      <trkpt lat="43.77711" lon="7.13746">
        <ele>857.59997558594</ele>
        <time>2019-02-23T09:20:14.000Z</time>
      </trkpt>
      <trkpt lat="43.77712" lon="7.13746">
        <ele>858.40002441406</ele>
        <time>2019-02-23T09:20:15.000Z</time>
      </trkpt>
      <trkpt lat="43.77713" lon="7.13744">
        <ele>858.59997558594</ele>
        <time>2019-02-23T09:20:16.000Z</time>
      </trkpt>
      <trkpt lat="43.77716" lon="7.13742">
        <ele>859.20001220703</ele>
        <time>2019-02-23T09:20:21.000Z</time>
      </trkpt>
      <trkpt lat="43.77717" lon="7.13741">
        <ele>859.40002441406</ele>
        <time>2019-02-23T09:20:24.000Z</time>
      </trkpt>
      <trkpt lat="43.7772" lon="7.13738">
        <ele>860</ele>
        <time>2019-02-23T09:20:28.000Z</time>
      </trkpt>
      <trkpt lat="43.77721" lon="7.13735">
        <ele>860.59997558594</ele>
        <time>2019-02-23T09:20:31.000Z</time>
      </trkpt>
      <trkpt lat="43.77722" lon="7.13732">
        <ele>861.20001220703</ele>
        <time>2019-02-23T09:20:33.000Z</time>
      </trkpt>
      <trkpt lat="43.77724" lon="7.1373">
        <ele>861.40002441406</ele>
        <time>2019-02-23T09:20:35.000Z</time>
      </trkpt>
      <trkpt lat="43.77726" lon="7.13726">
        <ele>861</ele>
        <time>2019-02-23T09:20:38.000Z</time>
      </trkpt>
      <trkpt lat="43.77729" lon="7.13718">
        <ele>861.59997558594</ele>
        <time>2019-02-23T09:20:44.000Z</time>
      </trkpt>
      <trkpt lat="43.7773" lon="7.13711">
        <ele>862.40002441406</ele>
        <time>2019-02-23T09:20:51.000Z</time>
      </trkpt>
      <trkpt lat="43.77731" lon="7.13708">
        <ele>862.79998779297</ele>
        <time>2019-02-23T09:20:54.000Z</time>
      </trkpt>
      <trkpt lat="43.77732" lon="7.13702">
        <ele>863.20001220703</ele>
        <time>2019-02-23T09:20:59.000Z</time>
      </trkpt>
      <trkpt lat="43.77734" lon="7.13699">
        <ele>863.79998779297</ele>
        <time>2019-02-23T09:21:02.000Z</time>
      </trkpt>
      <trkpt lat="43.77737" lon="7.13696">
        <ele>864</ele>
        <time>2019-02-23T09:21:06.000Z</time>
      </trkpt>
      <trkpt lat="43.77741" lon="7.13696">
        <ele>864.79998779297</ele>
        <time>2019-02-23T09:21:10.000Z</time>
      </trkpt>
      <trkpt lat="43.77744" lon="7.13695">
        <ele>865</ele>
        <time>2019-02-23T09:21:13.000Z</time>
      </trkpt>
      <trkpt lat="43.77748" lon="7.1369">
        <ele>865.59997558594</ele>
        <time>2019-02-23T09:21:19.000Z</time>
      </trkpt>
      <trkpt lat="43.7775" lon="7.13689">
        <ele>865.79998779297</ele>
        <time>2019-02-23T09:21:21.000Z</time>
      </trkpt>
      <trkpt lat="43.77753" lon="7.13687">
        <ele>866.40002441406</ele>
        <time>2019-02-23T09:21:25.000Z</time>
      </trkpt>
      <trkpt lat="43.77756" lon="7.13684">
        <ele>866.79998779297</ele>
        <time>2019-02-23T09:21:31.000Z</time>
      </trkpt>
      <trkpt lat="43.77757" lon="7.13682">
        <ele>867.20001220703</ele>
        <time>2019-02-23T09:21:32.000Z</time>
      </trkpt>
      <trkpt lat="43.77758" lon="7.13679">
        <ele>868</ele>
        <time>2019-02-23T09:21:36.000Z</time>
      </trkpt>
      <trkpt lat="43.7776" lon="7.13675">
        <ele>868.40002441406</ele>
        <time>2019-02-23T09:21:39.000Z</time>
      </trkpt>
      <trkpt lat="43.77763" lon="7.13672">
        <ele>869</ele>
        <time>2019-02-23T09:21:43.000Z</time>
      </trkpt>
      <trkpt lat="43.77763" lon="7.13672">
        <ele>869.20001220703</ele>
        <time>2019-02-23T09:21:45.000Z</time>
      </trkpt>
      <trkpt lat="43.77767" lon="7.1367">
        <ele>869.20001220703</ele>
        <time>2019-02-23T09:21:51.000Z</time>
      </trkpt>
      <trkpt lat="43.77774" lon="7.13666">
        <ele>870</ele>
        <time>2019-02-23T09:21:57.000Z</time>
      </trkpt>
      <trkpt lat="43.77776" lon="7.13666">
        <ele>870.20001220703</ele>
        <time>2019-02-23T09:21:58.000Z</time>
      </trkpt>
      <trkpt lat="43.7778" lon="7.13666">
        <ele>870.40002441406</ele>
        <time>2019-02-23T09:22:01.000Z</time>
      </trkpt>
      <trkpt lat="43.77786" lon="7.13668">
        <ele>870.59997558594</ele>
        <time>2019-02-23T09:22:05.000Z</time>
      </trkpt>
      <trkpt lat="43.77789" lon="7.1367">
        <ele>870.59997558594</ele>
        <time>2019-02-23T09:22:07.000Z</time>
      </trkpt>
      <trkpt lat="43.77795" lon="7.13667">
        <ele>870.59997558594</ele>
        <time>2019-02-23T09:22:10.000Z</time>
      </trkpt>
      <trkpt lat="43.77798" lon="7.13665">
        <ele>870.59997558594</ele>
        <time>2019-02-23T09:22:12.000Z</time>
      </trkpt>
      <trkpt lat="43.778" lon="7.13663">
        <ele>870.79998779297</ele>
        <time>2019-02-23T09:22:14.000Z</time>
      </trkpt>
      <trkpt lat="43.77802" lon="7.13663">
        <ele>871</ele>
        <time>2019-02-23T09:22:15.000Z</time>
      </trkpt>
      <trkpt lat="43.77804" lon="7.13661">
        <ele>871.20001220703</ele>
        <time>2019-02-23T09:22:17.000Z</time>
      </trkpt>
      <trkpt lat="43.77808" lon="7.13658">
        <ele>871.59997558594</ele>
        <time>2019-02-23T09:22:20.000Z</time>
      </trkpt>
      <trkpt lat="43.77816" lon="7.13656">
        <ele>872.20001220703</ele>
        <time>2019-02-23T09:22:27.000Z</time>
      </trkpt>
      <trkpt lat="43.77821" lon="7.13658">
        <ele>872.79998779297</ele>
        <time>2019-02-23T09:22:32.000Z</time>
      </trkpt>
      <trkpt lat="43.77823" lon="7.13661">
        <ele>873</ele>
        <time>2019-02-23T09:22:35.000Z</time>
      </trkpt>
      <trkpt lat="43.77824" lon="7.13663">
        <ele>873.40002441406</ele>
        <time>2019-02-23T09:22:37.000Z</time>
      </trkpt>
      <trkpt lat="43.77825" lon="7.13665">
        <ele>873.79998779297</ele>
        <time>2019-02-23T09:22:39.000Z</time>
      </trkpt>
      <trkpt lat="43.77826" lon="7.13668">
        <ele>874</ele>
        <time>2019-02-23T09:22:41.000Z</time>
      </trkpt>
      <trkpt lat="43.7783" lon="7.13671">
        <ele>874.40002441406</ele>
        <time>2019-02-23T09:22:45.000Z</time>
      </trkpt>
      <trkpt lat="43.77831" lon="7.13674">
        <ele>874.40002441406</ele>
        <time>2019-02-23T09:22:47.000Z</time>
      </trkpt>
      <trkpt lat="43.77833" lon="7.13676">
        <ele>874.59997558594</ele>
        <time>2019-02-23T09:22:50.000Z</time>
      </trkpt>
      <trkpt lat="43.77834" lon="7.13676">
        <ele>874.59997558594</ele>
        <time>2019-02-23T09:22:51.000Z</time>
      </trkpt>
      <trkpt lat="43.77838" lon="7.13678">
        <ele>874.79998779297</ele>
        <time>2019-02-23T09:22:55.000Z</time>
      </trkpt>
      <trkpt lat="43.7784" lon="7.13678">
        <ele>875.20001220703</ele>
        <time>2019-02-23T09:22:57.000Z</time>
      </trkpt>
      <trkpt lat="43.77844" lon="7.1368">
        <ele>875.59997558594</ele>
        <time>2019-02-23T09:23:01.000Z</time>
      </trkpt>
      <trkpt lat="43.77845" lon="7.1368">
        <ele>875.59997558594</ele>
        <time>2019-02-23T09:23:02.000Z</time>
      </trkpt>
      <trkpt lat="43.77847" lon="7.13678">
        <ele>876.20001220703</ele>
        <time>2019-02-23T09:23:05.000Z</time>
      </trkpt>
      <trkpt lat="43.77848" lon="7.13676">
        <ele>876.40002441406</ele>
        <time>2019-02-23T09:23:08.000Z</time>
      </trkpt>
      <trkpt lat="43.77849" lon="7.13675">
        <ele>876.59997558594</ele>
        <time>2019-02-23T09:23:09.000Z</time>
      </trkpt>
      <trkpt lat="43.77851" lon="7.13675">
        <ele>876.59997558594</ele>
        <time>2019-02-23T09:23:10.000Z</time>
      </trkpt>
      <trkpt lat="43.77854" lon="7.13674">
        <ele>876.59997558594</ele>
        <time>2019-02-23T09:23:12.000Z</time>
      </trkpt>
      <trkpt lat="43.77859" lon="7.13675">
        <ele>876.59997558594</ele>
        <time>2019-02-23T09:23:15.000Z</time>
      </trkpt>
      <trkpt lat="43.77872" lon="7.13674">
        <ele>877</ele>
        <time>2019-02-23T09:23:22.000Z</time>
      </trkpt>
      <trkpt lat="43.7788" lon="7.13674">
        <ele>877.20001220703</ele>
        <time>2019-02-23T09:23:26.000Z</time>
      </trkpt>
      <trkpt lat="43.77882" lon="7.13673">
        <ele>877</ele>
        <time>2019-02-23T09:23:27.000Z</time>
      </trkpt>
      <trkpt lat="43.77886" lon="7.1367">
        <ele>877.59997558594</ele>
        <time>2019-02-23T09:23:30.000Z</time>
      </trkpt>
      <trkpt lat="43.77888" lon="7.13669">
        <ele>878</ele>
        <time>2019-02-23T09:23:32.000Z</time>
      </trkpt>
      <trkpt lat="43.77892" lon="7.13667">
        <ele>878.20001220703</ele>
        <time>2019-02-23T09:23:35.000Z</time>
      </trkpt>
      <trkpt lat="43.77894" lon="7.13666">
        <ele>878.40002441406</ele>
        <time>2019-02-23T09:23:36.000Z</time>
      </trkpt>
      <trkpt lat="43.77909" lon="7.13668">
        <ele>878.40002441406</ele>
        <time>2019-02-23T09:23:42.000Z</time>
      </trkpt>
      <trkpt lat="43.77921" lon="7.13671">
        <ele>878.59997558594</ele>
        <time>2019-02-23T09:23:48.000Z</time>
      </trkpt>
      <trkpt lat="43.7793" lon="7.13675">
        <ele>879.20001220703</ele>
        <time>2019-02-23T09:23:53.000Z</time>
      </trkpt>
      <trkpt lat="43.77937" lon="7.13681">
        <ele>879.79998779297</ele>
        <time>2019-02-23T09:23:58.000Z</time>
      </trkpt>
      <trkpt lat="43.77939" lon="7.13682">
        <ele>879.79998779297</ele>
        <time>2019-02-23T09:23:59.000Z</time>
      </trkpt>
      <trkpt lat="43.77946" lon="7.13685">
        <ele>880.79998779297</ele>
        <time>2019-02-23T09:24:05.000Z</time>
      </trkpt>
      <trkpt lat="43.77947" lon="7.13684">
        <ele>881</ele>
        <time>2019-02-23T09:24:06.000Z</time>
      </trkpt>
      <trkpt lat="43.77948" lon="7.13684">
        <ele>882</ele>
        <time>2019-02-23T09:24:09.000Z</time>
      </trkpt>
      <trkpt lat="43.77949" lon="7.13684">
        <ele>882.40002441406</ele>
        <time>2019-02-23T09:24:11.000Z</time>
      </trkpt>
      <trkpt lat="43.77952" lon="7.1368">
        <ele>883</ele>
        <time>2019-02-23T09:24:17.000Z</time>
      </trkpt>
      <trkpt lat="43.77952" lon="7.13675">
        <ele>884</ele>
        <time>2019-02-23T09:24:23.000Z</time>
      </trkpt>
      <trkpt lat="43.7795" lon="7.1367">
        <ele>885.20001220703</ele>
        <time>2019-02-23T09:24:29.000Z</time>
      </trkpt>
      <trkpt lat="43.77948" lon="7.13663">
        <ele>886.20001220703</ele>
        <time>2019-02-23T09:24:36.000Z</time>
      </trkpt>
      <trkpt lat="43.77948" lon="7.13662">
        <ele>886.20001220703</ele>
        <time>2019-02-23T09:24:37.000Z</time>
      </trkpt>
      <trkpt lat="43.77947" lon="7.13658">
        <ele>886.79998779297</ele>
        <time>2019-02-23T09:24:40.000Z</time>
      </trkpt>
      <trkpt lat="43.77949" lon="7.13654">
        <ele>887.40002441406</ele>
        <time>2019-02-23T09:24:44.000Z</time>
      </trkpt>
      <trkpt lat="43.7795" lon="7.13653">
        <ele>887.59997558594</ele>
        <time>2019-02-23T09:24:45.000Z</time>
      </trkpt>
      <trkpt lat="43.77953" lon="7.1365">
        <ele>888.59997558594</ele>
        <time>2019-02-23T09:24:50.000Z</time>
      </trkpt>
      <trkpt lat="43.77954" lon="7.13649">
        <ele>888.79998779297</ele>
        <time>2019-02-23T09:24:52.000Z</time>
      </trkpt>
      <trkpt lat="43.77955" lon="7.13645">
        <ele>889.59997558594</ele>
        <time>2019-02-23T09:24:57.000Z</time>
      </trkpt>
      <trkpt lat="43.77954" lon="7.13643">
        <ele>889.40002441406</ele>
        <time>2019-02-23T09:25:03.000Z</time>
      </trkpt>
      <trkpt lat="43.77953" lon="7.1364">
        <ele>889.40002441406</ele>
        <time>2019-02-23T09:25:06.000Z</time>
      </trkpt>
      <trkpt lat="43.77953" lon="7.1364">
        <ele>889.59997558594</ele>
        <time>2019-02-23T09:25:08.000Z</time>
      </trkpt>
      <trkpt lat="43.77951" lon="7.13637">
        <ele>890</ele>
        <time>2019-02-23T09:25:14.000Z</time>
      </trkpt>
      <trkpt lat="43.7795" lon="7.13634">
        <ele>890.40002441406</ele>
        <time>2019-02-23T09:25:20.000Z</time>
      </trkpt>
      <trkpt lat="43.7795" lon="7.13634">
        <ele>890.59997558594</ele>
        <time>2019-02-23T09:25:21.000Z</time>
      </trkpt>
      <trkpt lat="43.77951" lon="7.13627">
        <ele>890.79998779297</ele>
        <time>2019-02-23T09:25:25.000Z</time>
      </trkpt>
      <trkpt lat="43.77951" lon="7.13615">
        <ele>891.20001220703</ele>
        <time>2019-02-23T09:25:30.000Z</time>
      </trkpt>
      <trkpt lat="43.77952" lon="7.13606">
        <ele>891.79998779297</ele>
        <time>2019-02-23T09:25:35.000Z</time>
      </trkpt>
      <trkpt lat="43.77953" lon="7.13598">
        <ele>892.59997558594</ele>
        <time>2019-02-23T09:25:40.000Z</time>
      </trkpt>
      <trkpt lat="43.77958" lon="7.13591">
        <ele>892.79998779297</ele>
        <time>2019-02-23T09:25:46.000Z</time>
      </trkpt>
      <trkpt lat="43.77959" lon="7.13588">
        <ele>892.79998779297</ele>
        <time>2019-02-23T09:25:47.000Z</time>
      </trkpt>
      <trkpt lat="43.7796" lon="7.13586">
        <ele>892.79998779297</ele>
        <time>2019-02-23T09:25:48.000Z</time>
      </trkpt>
      <trkpt lat="43.77964" lon="7.13579">
        <ele>893.20001220703</ele>
        <time>2019-02-23T09:25:51.000Z</time>
      </trkpt>
      <trkpt lat="43.77972" lon="7.1357">
        <ele>893.20001220703</ele>
        <time>2019-02-23T09:25:57.000Z</time>
      </trkpt>
      <trkpt lat="43.77975" lon="7.13563">
        <ele>893.40002441406</ele>
        <time>2019-02-23T09:26:01.000Z</time>
      </trkpt>
      <trkpt lat="43.77976" lon="7.13562">
        <ele>893.20001220703</ele>
        <time>2019-02-23T09:26:02.000Z</time>
      </trkpt>
      <trkpt lat="43.77979" lon="7.13561">
        <ele>893.59997558594</ele>
        <time>2019-02-23T09:26:05.000Z</time>
      </trkpt>
      <trkpt lat="43.77981" lon="7.13558">
        <ele>894.20001220703</ele>
        <time>2019-02-23T09:26:07.000Z</time>
      </trkpt>
      <trkpt lat="43.77983" lon="7.13548">
        <ele>894.59997558594</ele>
        <time>2019-02-23T09:26:12.000Z</time>
      </trkpt>
      <trkpt lat="43.77992" lon="7.1354">
        <ele>894.40002441406</ele>
        <time>2019-02-23T09:26:17.000Z</time>
      </trkpt>
      <trkpt lat="43.77996" lon="7.13536">
        <ele>894.79998779297</ele>
        <time>2019-02-23T09:26:20.000Z</time>
      </trkpt>
      <trkpt lat="43.78001" lon="7.13533">
        <ele>895.40002441406</ele>
        <time>2019-02-23T09:26:23.000Z</time>
      </trkpt>
      <trkpt lat="43.78009" lon="7.13525">
        <ele>896.20001220703</ele>
        <time>2019-02-23T09:26:29.000Z</time>
      </trkpt>
      <trkpt lat="43.78011" lon="7.13523">
        <ele>896.40002441406</ele>
        <time>2019-02-23T09:26:31.000Z</time>
      </trkpt>
      <trkpt lat="43.78015" lon="7.1352">
        <ele>896.79998779297</ele>
        <time>2019-02-23T09:26:34.000Z</time>
      </trkpt>
      <trkpt lat="43.78017" lon="7.13519">
        <ele>897</ele>
        <time>2019-02-23T09:26:35.000Z</time>
      </trkpt>
      <trkpt lat="43.78022" lon="7.13519">
        <ele>897.40002441406</ele>
        <time>2019-02-23T09:26:39.000Z</time>
      </trkpt>
      <trkpt lat="43.78023" lon="7.13519">
        <ele>897.59997558594</ele>
        <time>2019-02-23T09:26:40.000Z</time>
      </trkpt>
      <trkpt lat="43.78032" lon="7.13517">
        <ele>898.20001220703</ele>
        <time>2019-02-23T09:26:46.000Z</time>
      </trkpt>
      <trkpt lat="43.78038" lon="7.13517">
        <ele>898.59997558594</ele>
        <time>2019-02-23T09:26:50.000Z</time>
      </trkpt>
      <trkpt lat="43.7804" lon="7.13518">
        <ele>898.79998779297</ele>
        <time>2019-02-23T09:26:51.000Z</time>
      </trkpt>
      <trkpt lat="43.78047" lon="7.13524">
        <ele>899.59997558594</ele>
        <time>2019-02-23T09:26:56.000Z</time>
      </trkpt>
      <trkpt lat="43.78052" lon="7.13525">
        <ele>899.59997558594</ele>
        <time>2019-02-23T09:26:59.000Z</time>
      </trkpt>
      <trkpt lat="43.78056" lon="7.13523">
        <ele>900</ele>
        <time>2019-02-23T09:27:01.000Z</time>
      </trkpt>
      <trkpt lat="43.7806" lon="7.13521">
        <ele>900.40002441406</ele>
        <time>2019-02-23T09:27:03.000Z</time>
      </trkpt>
      <trkpt lat="43.78063" lon="7.1352">
        <ele>900.79998779297</ele>
        <time>2019-02-23T09:27:05.000Z</time>
      </trkpt>
      <trkpt lat="43.78069" lon="7.13519">
        <ele>900.79998779297</ele>
        <time>2019-02-23T09:27:08.000Z</time>
      </trkpt>
      <trkpt lat="43.7808" lon="7.13511">
        <ele>901.59997558594</ele>
        <time>2019-02-23T09:27:15.000Z</time>
      </trkpt>
      <trkpt lat="43.78085" lon="7.13506">
        <ele>901.79998779297</ele>
        <time>2019-02-23T09:27:19.000Z</time>
      </trkpt>
      <trkpt lat="43.78094" lon="7.135">
        <ele>901.79998779297</ele>
        <time>2019-02-23T09:27:24.000Z</time>
      </trkpt>
      <trkpt lat="43.78107" lon="7.13494">
        <ele>902</ele>
        <time>2019-02-23T09:27:31.000Z</time>
      </trkpt>
      <trkpt lat="43.78113" lon="7.13489">
        <ele>902.59997558594</ele>
        <time>2019-02-23T09:27:36.000Z</time>
      </trkpt>
      <trkpt lat="43.78116" lon="7.13484">
        <ele>903.20001220703</ele>
        <time>2019-02-23T09:27:40.000Z</time>
      </trkpt>
      <trkpt lat="43.78117" lon="7.13482">
        <ele>903.40002441406</ele>
        <time>2019-02-23T09:27:41.000Z</time>
      </trkpt>
      <trkpt lat="43.78118" lon="7.1348">
        <ele>903.40002441406</ele>
        <time>2019-02-23T09:27:42.000Z</time>
      </trkpt>
      <trkpt lat="43.78117" lon="7.13477">
        <ele>904.20001220703</ele>
        <time>2019-02-23T09:27:44.000Z</time>
      </trkpt>
      <trkpt lat="43.78116" lon="7.13476">
        <ele>904.20001220703</ele>
        <time>2019-02-23T09:27:45.000Z</time>
      </trkpt>
      <trkpt lat="43.78115" lon="7.13475">
        <ele>904.79998779297</ele>
        <time>2019-02-23T09:27:49.000Z</time>
      </trkpt>
      <trkpt lat="43.78115" lon="7.13474">
        <ele>905.20001220703</ele>
        <time>2019-02-23T09:27:50.000Z</time>
      </trkpt>
      <trkpt lat="43.78115" lon="7.13473">
        <ele>905.40002441406</ele>
        <time>2019-02-23T09:27:51.000Z</time>
      </trkpt>
      <trkpt lat="43.78115" lon="7.13472">
        <ele>905.59997558594</ele>
        <time>2019-02-23T09:27:52.000Z</time>
      </trkpt>
      <trkpt lat="43.78117" lon="7.1347">
        <ele>906</ele>
        <time>2019-02-23T09:27:55.000Z</time>
      </trkpt>
      <trkpt lat="43.7812" lon="7.1347">
        <ele>906.40002441406</ele>
        <time>2019-02-23T09:28:00.000Z</time>
      </trkpt>
      <trkpt lat="43.78121" lon="7.1347">
        <ele>906.59997558594</ele>
        <time>2019-02-23T09:28:01.000Z</time>
      </trkpt>
      <trkpt lat="43.78126" lon="7.13468">
        <ele>907.40002441406</ele>
        <time>2019-02-23T09:28:08.000Z</time>
      </trkpt>
      <trkpt lat="43.78132" lon="7.13469">
        <ele>908.20001220703</ele>
        <time>2019-02-23T09:28:16.000Z</time>
      </trkpt>
      <trkpt lat="43.78134" lon="7.1347">
        <ele>908.59997558594</ele>
        <time>2019-02-23T09:28:18.000Z</time>
      </trkpt>
      <trkpt lat="43.78137" lon="7.13469">
        <ele>909.59997558594</ele>
        <time>2019-02-23T09:28:23.000Z</time>
      </trkpt>
      <trkpt lat="43.78137" lon="7.1347">
        <ele>909.59997558594</ele>
        <time>2019-02-23T09:28:24.000Z</time>
      </trkpt>
      <trkpt lat="43.78138" lon="7.13467">
        <ele>910.20001220703</ele>
        <time>2019-02-23T09:28:30.000Z</time>
      </trkpt>
      <trkpt lat="43.78138" lon="7.1346">
        <ele>910.59997558594</ele>
        <time>2019-02-23T09:28:36.000Z</time>
      </trkpt>
      <trkpt lat="43.78138" lon="7.13459">
        <ele>910.79998779297</ele>
        <time>2019-02-23T09:28:37.000Z</time>
      </trkpt>
      <trkpt lat="43.78141" lon="7.13451">
        <ele>911.20001220703</ele>
        <time>2019-02-23T09:28:44.000Z</time>
      </trkpt>
      <trkpt lat="43.78143" lon="7.13447">
        <ele>911.79998779297</ele>
        <time>2019-02-23T09:28:48.000Z</time>
      </trkpt>
      <trkpt lat="43.78145" lon="7.13445">
        <ele>912.20001220703</ele>
        <time>2019-02-23T09:28:51.000Z</time>
      </trkpt>
      <trkpt lat="43.78149" lon="7.13441">
        <ele>913</ele>
        <time>2019-02-23T09:28:57.000Z</time>
      </trkpt>
      <trkpt lat="43.78153" lon="7.13436">
        <ele>914</ele>
        <time>2019-02-23T09:29:03.000Z</time>
      </trkpt>
      <trkpt lat="43.78154" lon="7.13436">
        <ele>914.20001220703</ele>
        <time>2019-02-23T09:29:05.000Z</time>
      </trkpt>
      <trkpt lat="43.78158" lon="7.13431">
        <ele>914.40002441406</ele>
        <time>2019-02-23T09:29:10.000Z</time>
      </trkpt>
      <trkpt lat="43.78167" lon="7.13422">
        <ele>915</ele>
        <time>2019-02-23T09:29:17.000Z</time>
      </trkpt>
      <trkpt lat="43.78174" lon="7.13419">
        <ele>916</ele>
        <time>2019-02-23T09:29:21.000Z</time>
      </trkpt>
      <trkpt lat="43.78175" lon="7.13419">
        <ele>915.79998779297</ele>
        <time>2019-02-23T09:29:22.000Z</time>
      </trkpt>
      <trkpt lat="43.78177" lon="7.13418">
        <ele>916.20001220703</ele>
        <time>2019-02-23T09:29:23.000Z</time>
      </trkpt>
      <trkpt lat="43.78183" lon="7.13417">
        <ele>917.59997558594</ele>
        <time>2019-02-23T09:29:27.000Z</time>
      </trkpt>
      <trkpt lat="43.78185" lon="7.13418">
        <ele>918</ele>
        <time>2019-02-23T09:29:29.000Z</time>
      </trkpt>
      <trkpt lat="43.78187" lon="7.13418">
        <ele>918.79998779297</ele>
        <time>2019-02-23T09:29:31.000Z</time>
      </trkpt>
      <trkpt lat="43.78188" lon="7.13419">
        <ele>919</ele>
        <time>2019-02-23T09:29:32.000Z</time>
      </trkpt>
      <trkpt lat="43.7819" lon="7.13419">
        <ele>919.59997558594</ele>
        <time>2019-02-23T09:29:34.000Z</time>
      </trkpt>
      <trkpt lat="43.78193" lon="7.13418">
        <ele>919.59997558594</ele>
        <time>2019-02-23T09:29:37.000Z</time>
      </trkpt>
      <trkpt lat="43.78195" lon="7.13416">
        <ele>919.79998779297</ele>
        <time>2019-02-23T09:29:38.000Z</time>
      </trkpt>
      <trkpt lat="43.782" lon="7.13413">
        <ele>920.59997558594</ele>
        <time>2019-02-23T09:29:43.000Z</time>
      </trkpt>
      <trkpt lat="43.78201" lon="7.13412">
        <ele>920.79998779297</ele>
        <time>2019-02-23T09:29:44.000Z</time>
      </trkpt>
      <trkpt lat="43.78207" lon="7.13407">
        <ele>921.40002441406</ele>
        <time>2019-02-23T09:29:48.000Z</time>
      </trkpt>
      <trkpt lat="43.78208" lon="7.13407">
        <ele>921.40002441406</ele>
        <time>2019-02-23T09:29:49.000Z</time>
      </trkpt>
      <trkpt lat="43.78209" lon="7.13406">
        <ele>921.40002441406</ele>
        <time>2019-02-23T09:29:50.000Z</time>
      </trkpt>
      <trkpt lat="43.78213" lon="7.13406">
        <ele>921.59997558594</ele>
        <time>2019-02-23T09:29:53.000Z</time>
      </trkpt>
      <trkpt lat="43.78215" lon="7.13406">
        <ele>922</ele>
        <time>2019-02-23T09:29:54.000Z</time>
      </trkpt>
      <trkpt lat="43.7822" lon="7.13404">
        <ele>922.79998779297</ele>
        <time>2019-02-23T09:29:59.000Z</time>
      </trkpt>
      <trkpt lat="43.78224" lon="7.13405">
        <ele>923</ele>
        <time>2019-02-23T09:30:02.000Z</time>
      </trkpt>
      <trkpt lat="43.78224" lon="7.13405">
        <ele>923.40002441406</ele>
        <time>2019-02-23T09:30:04.000Z</time>
      </trkpt>
      <trkpt lat="43.78229" lon="7.13403">
        <ele>923.79998779297</ele>
        <time>2019-02-23T09:30:11.000Z</time>
      </trkpt>
      <trkpt lat="43.78231" lon="7.13401">
        <ele>924.20001220703</ele>
        <time>2019-02-23T09:30:15.000Z</time>
      </trkpt>
      <trkpt lat="43.78234" lon="7.13401">
        <ele>924.79998779297</ele>
        <time>2019-02-23T09:30:19.000Z</time>
      </trkpt>
      <trkpt lat="43.78235" lon="7.13401">
        <ele>924.79998779297</ele>
        <time>2019-02-23T09:30:26.000Z</time>
      </trkpt>
      <trkpt lat="43.78237" lon="7.13401">
        <ele>924.79998779297</ele>
        <time>2019-02-23T09:30:27.000Z</time>
      </trkpt>
      <trkpt lat="43.78241" lon="7.134">
        <ele>924.79998779297</ele>
        <time>2019-02-23T09:30:30.000Z</time>
      </trkpt>
      <trkpt lat="43.78242" lon="7.134">
        <ele>924.79998779297</ele>
        <time>2019-02-23T09:30:31.000Z</time>
      </trkpt>
      <trkpt lat="43.78247" lon="7.13398">
        <ele>924.79998779297</ele>
        <time>2019-02-23T09:30:34.000Z</time>
      </trkpt>
      <trkpt lat="43.78251" lon="7.13397">
        <ele>925.40002441406</ele>
        <time>2019-02-23T09:30:37.000Z</time>
      </trkpt>
      <trkpt lat="43.78254" lon="7.13397">
        <ele>925.79998779297</ele>
        <time>2019-02-23T09:30:39.000Z</time>
      </trkpt>
      <trkpt lat="43.78257" lon="7.13398">
        <ele>926.40002441406</ele>
        <time>2019-02-23T09:30:41.000Z</time>
      </trkpt>
      <trkpt lat="43.7826" lon="7.13397">
        <ele>927</ele>
        <time>2019-02-23T09:30:44.000Z</time>
      </trkpt>
      <trkpt lat="43.78262" lon="7.13396">
        <ele>927.20001220703</ele>
        <time>2019-02-23T09:30:46.000Z</time>
      </trkpt>
      <trkpt lat="43.78268" lon="7.13398">
        <ele>927</ele>
        <time>2019-02-23T09:30:49.000Z</time>
      </trkpt>
      <trkpt lat="43.78272" lon="7.134">
        <ele>927.40002441406</ele>
        <time>2019-02-23T09:30:52.000Z</time>
      </trkpt>
      <trkpt lat="43.78273" lon="7.13399">
        <ele>927.59997558594</ele>
        <time>2019-02-23T09:30:53.000Z</time>
      </trkpt>
      <trkpt lat="43.78277" lon="7.13398">
        <ele>927.79998779297</ele>
        <time>2019-02-23T09:30:55.000Z</time>
      </trkpt>
      <trkpt lat="43.78287" lon="7.13402">
        <ele>928.20001220703</ele>
        <time>2019-02-23T09:31:01.000Z</time>
      </trkpt>
      <trkpt lat="43.78291" lon="7.13402">
        <ele>928.40002441406</ele>
        <time>2019-02-23T09:31:04.000Z</time>
      </trkpt>
      <trkpt lat="43.78293" lon="7.13402">
        <ele>928.40002441406</ele>
        <time>2019-02-23T09:31:05.000Z</time>
      </trkpt>
      <trkpt lat="43.78297" lon="7.13402">
        <ele>928.79998779297</ele>
        <time>2019-02-23T09:31:07.000Z</time>
      </trkpt>
      <trkpt lat="43.78313" lon="7.13405">
        <ele>928.79998779297</ele>
        <time>2019-02-23T09:31:15.000Z</time>
      </trkpt>
      <trkpt lat="43.78324" lon="7.13407">
        <ele>929.40002441406</ele>
        <time>2019-02-23T09:31:21.000Z</time>
      </trkpt>
      <trkpt lat="43.78336" lon="7.13408">
        <ele>929.59997558594</ele>
        <time>2019-02-23T09:31:27.000Z</time>
      </trkpt>
      <trkpt lat="43.78338" lon="7.13408">
        <ele>929.59997558594</ele>
        <time>2019-02-23T09:31:28.000Z</time>
      </trkpt>
      <trkpt lat="43.78348" lon="7.13406">
        <ele>930.59997558594</ele>
        <time>2019-02-23T09:31:33.000Z</time>
      </trkpt>
      <trkpt lat="43.7835" lon="7.13406">
        <ele>930.79998779297</ele>
        <time>2019-02-23T09:31:34.000Z</time>
      </trkpt>
      <trkpt lat="43.7836" lon="7.13406">
        <ele>931.20001220703</ele>
        <time>2019-02-23T09:31:39.000Z</time>
      </trkpt>
      <trkpt lat="43.78369" lon="7.13404">
        <ele>931.79998779297</ele>
        <time>2019-02-23T09:31:43.000Z</time>
      </trkpt>
      <trkpt lat="43.78373" lon="7.13402">
        <ele>932.20001220703</ele>
        <time>2019-02-23T09:31:46.000Z</time>
      </trkpt>
      <trkpt lat="43.7838" lon="7.13396">
        <ele>932.40002441406</ele>
        <time>2019-02-23T09:31:51.000Z</time>
      </trkpt>
      <trkpt lat="43.78381" lon="7.13395">
        <ele>932.79998779297</ele>
        <time>2019-02-23T09:31:52.000Z</time>
      </trkpt>
      <trkpt lat="43.78387" lon="7.13394">
        <ele>933.59997558594</ele>
        <time>2019-02-23T09:31:57.000Z</time>
      </trkpt>
      <trkpt lat="43.78396" lon="7.13389">
        <ele>933.40002441406</ele>
        <time>2019-02-23T09:32:02.000Z</time>
      </trkpt>
      <trkpt lat="43.78402" lon="7.13386">
        <ele>933.79998779297</ele>
        <time>2019-02-23T09:32:05.000Z</time>
      </trkpt>
      <trkpt lat="43.78407" lon="7.13382">
        <ele>933.79998779297</ele>
        <time>2019-02-23T09:32:09.000Z</time>
      </trkpt>
      <trkpt lat="43.78414" lon="7.13375">
        <ele>934.20001220703</ele>
        <time>2019-02-23T09:32:14.000Z</time>
      </trkpt>
      <trkpt lat="43.78424" lon="7.13361">
        <ele>934.40002441406</ele>
        <time>2019-02-23T09:32:21.000Z</time>
      </trkpt>
      <trkpt lat="43.78432" lon="7.13353">
        <ele>934.40002441406</ele>
        <time>2019-02-23T09:32:26.000Z</time>
      </trkpt>
      <trkpt lat="43.78442" lon="7.13348">
        <ele>934.20001220703</ele>
        <time>2019-02-23T09:32:31.000Z</time>
      </trkpt>
      <trkpt lat="43.78452" lon="7.13347">
        <ele>934.40002441406</ele>
        <time>2019-02-23T09:32:36.000Z</time>
      </trkpt>
      <trkpt lat="43.78453" lon="7.13346">
        <ele>934.40002441406</ele>
        <time>2019-02-23T09:32:37.000Z</time>
      </trkpt>
      <trkpt lat="43.78461" lon="7.13344">
        <ele>934.40002441406</ele>
        <time>2019-02-23T09:32:41.000Z</time>
      </trkpt>
      <trkpt lat="43.78464" lon="7.13345">
        <ele>934.59997558594</ele>
        <time>2019-02-23T09:32:43.000Z</time>
      </trkpt>
      <trkpt lat="43.7847" lon="7.13346">
        <ele>934.59997558594</ele>
        <time>2019-02-23T09:32:46.000Z</time>
      </trkpt>
      <trkpt lat="43.78472" lon="7.13346">
        <ele>934.79998779297</ele>
        <time>2019-02-23T09:32:47.000Z</time>
      </trkpt>
      <trkpt lat="43.78482" lon="7.1335">
        <ele>934.79998779297</ele>
        <time>2019-02-23T09:32:53.000Z</time>
      </trkpt>
      <trkpt lat="43.78483" lon="7.1335">
        <ele>935</ele>
        <time>2019-02-23T09:32:54.000Z</time>
      </trkpt>
      <trkpt lat="43.7849" lon="7.13349">
        <ele>935.20001220703</ele>
        <time>2019-02-23T09:32:57.000Z</time>
      </trkpt>
      <trkpt lat="43.78496" lon="7.13348">
        <ele>935.79998779297</ele>
        <time>2019-02-23T09:33:01.000Z</time>
      </trkpt>
      <trkpt lat="43.78505" lon="7.13344">
        <ele>936.40002441406</ele>
        <time>2019-02-23T09:33:06.000Z</time>
      </trkpt>
      <trkpt lat="43.78514" lon="7.13341">
        <ele>936.79998779297</ele>
        <time>2019-02-23T09:33:11.000Z</time>
      </trkpt>
      <trkpt lat="43.78518" lon="7.1334">
        <ele>936.79998779297</ele>
        <time>2019-02-23T09:33:13.000Z</time>
      </trkpt>
      <trkpt lat="43.78526" lon="7.13338">
        <ele>937</ele>
        <time>2019-02-23T09:33:17.000Z</time>
      </trkpt>
      <trkpt lat="43.78535" lon="7.13337">
        <ele>937</ele>
        <time>2019-02-23T09:33:22.000Z</time>
      </trkpt>
      <trkpt lat="43.78558" lon="7.13333">
        <ele>937.59997558594</ele>
        <time>2019-02-23T09:33:30.000Z</time>
      </trkpt>
      <trkpt lat="43.78571" lon="7.13329">
        <ele>937.79998779297</ele>
        <time>2019-02-23T09:33:35.000Z</time>
      </trkpt>
      <trkpt lat="43.78574" lon="7.13329">
        <ele>937.79998779297</ele>
        <time>2019-02-23T09:33:36.000Z</time>
      </trkpt>
      <trkpt lat="43.78588" lon="7.1333">
        <ele>937.79998779297</ele>
        <time>2019-02-23T09:33:41.000Z</time>
      </trkpt>
      <trkpt lat="43.78599" lon="7.13331">
        <ele>937.59997558594</ele>
        <time>2019-02-23T09:33:46.000Z</time>
      </trkpt>
      <trkpt lat="43.78606" lon="7.1333">
        <ele>938</ele>
        <time>2019-02-23T09:33:52.000Z</time>
      </trkpt>
      <trkpt lat="43.78607" lon="7.13329">
        <ele>938.20001220703</ele>
        <time>2019-02-23T09:34:12.000Z</time>
      </trkpt>
      <trkpt lat="43.78608" lon="7.13328">
        <ele>938.79998779297</ele>
        <time>2019-02-23T09:34:26.000Z</time>
      </trkpt>
      <trkpt lat="43.78609" lon="7.13327">
        <ele>938.40002441406</ele>
        <time>2019-02-23T09:34:40.000Z</time>
      </trkpt>
      <trkpt lat="43.78616" lon="7.13325">
        <ele>938.20001220703</ele>
        <time>2019-02-23T09:34:45.000Z</time>
      </trkpt>
      <trkpt lat="43.78627" lon="7.13321">
        <ele>938.40002441406</ele>
        <time>2019-02-23T09:34:52.000Z</time>
      </trkpt>
      <trkpt lat="43.78638" lon="7.13318">
        <ele>939</ele>
        <time>2019-02-23T09:34:58.000Z</time>
      </trkpt>
      <trkpt lat="43.78647" lon="7.13318">
        <ele>939.20001220703</ele>
        <time>2019-02-23T09:35:02.000Z</time>
      </trkpt>
      <trkpt lat="43.78668" lon="7.13319">
        <ele>939</ele>
        <time>2019-02-23T09:35:11.000Z</time>
      </trkpt>
      <trkpt lat="43.78681" lon="7.1332">
        <ele>938.79998779297</ele>
        <time>2019-02-23T09:35:16.000Z</time>
      </trkpt>
      <trkpt lat="43.78684" lon="7.1332">
        <ele>938.40002441406</ele>
        <time>2019-02-23T09:35:17.000Z</time>
      </trkpt>
      <trkpt lat="43.78689" lon="7.13323">
        <ele>938.20001220703</ele>
        <time>2019-02-23T09:35:19.000Z</time>
      </trkpt>
      <trkpt lat="43.78693" lon="7.13324">
        <ele>938</ele>
        <time>2019-02-23T09:35:20.000Z</time>
      </trkpt>
      <trkpt lat="43.78695" lon="7.13325">
        <ele>937.59997558594</ele>
        <time>2019-02-23T09:35:21.000Z</time>
      </trkpt>
      <trkpt lat="43.78698" lon="7.13327">
        <ele>937.59997558594</ele>
        <time>2019-02-23T09:35:23.000Z</time>
      </trkpt>
      <trkpt lat="43.78705" lon="7.1333">
        <ele>937.79998779297</ele>
        <time>2019-02-23T09:35:28.000Z</time>
      </trkpt>
      <trkpt lat="43.78708" lon="7.13329">
        <ele>938.40002441406</ele>
        <time>2019-02-23T09:35:30.000Z</time>
      </trkpt>
      <trkpt lat="43.78711" lon="7.13326">
        <ele>938.79998779297</ele>
        <time>2019-02-23T09:35:32.000Z</time>
      </trkpt>
      <trkpt lat="43.78714" lon="7.13322">
        <ele>939</ele>
        <time>2019-02-23T09:35:34.000Z</time>
      </trkpt>
      <trkpt lat="43.78717" lon="7.13319">
        <ele>939</ele>
        <time>2019-02-23T09:35:35.000Z</time>
      </trkpt>
      <trkpt lat="43.78721" lon="7.1332">
        <ele>939.20001220703</ele>
        <time>2019-02-23T09:35:37.000Z</time>
      </trkpt>
      <trkpt lat="43.7873" lon="7.13326">
        <ele>940</ele>
        <time>2019-02-23T09:35:42.000Z</time>
      </trkpt>
      <trkpt lat="43.78731" lon="7.13328">
        <ele>940.20001220703</ele>
        <time>2019-02-23T09:35:43.000Z</time>
      </trkpt>
      <trkpt lat="43.78737" lon="7.13331">
        <ele>941.20001220703</ele>
        <time>2019-02-23T09:35:46.000Z</time>
      </trkpt>
      <trkpt lat="43.78741" lon="7.13332">
        <ele>941.59997558594</ele>
        <time>2019-02-23T09:35:48.000Z</time>
      </trkpt>
      <trkpt lat="43.78749" lon="7.13335">
        <ele>942.20001220703</ele>
        <time>2019-02-23T09:35:53.000Z</time>
      </trkpt>
      <trkpt lat="43.78751" lon="7.13335">
        <ele>942.59997558594</ele>
        <time>2019-02-23T09:35:54.000Z</time>
      </trkpt>
      <trkpt lat="43.78759" lon="7.13333">
        <ele>943</ele>
        <time>2019-02-23T09:35:58.000Z</time>
      </trkpt>
      <trkpt lat="43.78761" lon="7.13334">
        <ele>943.40002441406</ele>
        <time>2019-02-23T09:35:59.000Z</time>
      </trkpt>
      <trkpt lat="43.78767" lon="7.13333">
        <ele>944</ele>
        <time>2019-02-23T09:36:02.000Z</time>
      </trkpt>
      <trkpt lat="43.78774" lon="7.13331">
        <ele>944.40002441406</ele>
        <time>2019-02-23T09:36:06.000Z</time>
      </trkpt>
      <trkpt lat="43.78776" lon="7.1333">
        <ele>944.59997558594</ele>
        <time>2019-02-23T09:36:07.000Z</time>
      </trkpt>
      <trkpt lat="43.78801" lon="7.13319">
        <ele>945.20001220703</ele>
        <time>2019-02-23T09:36:17.000Z</time>
      </trkpt>
      <trkpt lat="43.78808" lon="7.13316">
        <ele>945.40002441406</ele>
        <time>2019-02-23T09:36:20.000Z</time>
      </trkpt>
      <trkpt lat="43.78819" lon="7.13308">
        <ele>945.59997558594</ele>
        <time>2019-02-23T09:36:25.000Z</time>
      </trkpt>
      <trkpt lat="43.78832" lon="7.13292">
        <ele>946</ele>
        <time>2019-02-23T09:36:32.000Z</time>
      </trkpt>
      <trkpt lat="43.78836" lon="7.13278">
        <ele>945.59997558594</ele>
        <time>2019-02-23T09:36:37.000Z</time>
      </trkpt>
      <trkpt lat="43.78848" lon="7.13267">
        <ele>944.79998779297</ele>
        <time>2019-02-23T09:36:42.000Z</time>
      </trkpt>
      <trkpt lat="43.7885" lon="7.13266">
        <ele>944.79998779297</ele>
        <time>2019-02-23T09:36:43.000Z</time>
      </trkpt>
      <trkpt lat="43.78861" lon="7.1326">
        <ele>944.79998779297</ele>
        <time>2019-02-23T09:36:47.000Z</time>
      </trkpt>
      <trkpt lat="43.78882" lon="7.13243">
        <ele>945</ele>
        <time>2019-02-23T09:36:55.000Z</time>
      </trkpt>
      <trkpt lat="43.78898" lon="7.13236">
        <ele>945</ele>
        <time>2019-02-23T09:37:00.000Z</time>
      </trkpt>
      <trkpt lat="43.78913" lon="7.13231">
        <ele>945.20001220703</ele>
        <time>2019-02-23T09:37:05.000Z</time>
      </trkpt>
      <trkpt lat="43.78927" lon="7.13227">
        <ele>946</ele>
        <time>2019-02-23T09:37:10.000Z</time>
      </trkpt>
      <trkpt lat="43.78935" lon="7.13222">
        <ele>946.40002441406</ele>
        <time>2019-02-23T09:37:14.000Z</time>
      </trkpt>
      <trkpt lat="43.78937" lon="7.1322">
        <ele>946.59997558594</ele>
        <time>2019-02-23T09:37:15.000Z</time>
      </trkpt>
      <trkpt lat="43.78947" lon="7.13206">
        <ele>947.40002441406</ele>
        <time>2019-02-23T09:37:20.000Z</time>
      </trkpt>
      <trkpt lat="43.78949" lon="7.13204">
        <ele>947.59997558594</ele>
        <time>2019-02-23T09:37:21.000Z</time>
      </trkpt>
      <trkpt lat="43.78964" lon="7.13181">
        <ele>948.20001220703</ele>
        <time>2019-02-23T09:37:28.000Z</time>
      </trkpt>
      <trkpt lat="43.78981" lon="7.13163">
        <ele>947.79998779297</ele>
        <time>2019-02-23T09:37:34.000Z</time>
      </trkpt>
      <trkpt lat="43.78996" lon="7.13146">
        <ele>947</ele>
        <time>2019-02-23T09:37:38.000Z</time>
      </trkpt>
      <trkpt lat="43.79001" lon="7.13143">
        <ele>946.59997558594</ele>
        <time>2019-02-23T09:37:39.000Z</time>
      </trkpt>
      <trkpt lat="43.79016" lon="7.13133">
        <ele>945.20001220703</ele>
        <time>2019-02-23T09:37:42.000Z</time>
      </trkpt>
      <trkpt lat="43.79024" lon="7.13126">
        <ele>944.79998779297</ele>
        <time>2019-02-23T09:37:44.000Z</time>
      </trkpt>
      <trkpt lat="43.79033" lon="7.13108">
        <ele>944.20001220703</ele>
        <time>2019-02-23T09:37:48.000Z</time>
      </trkpt>
      <trkpt lat="43.79036" lon="7.13098">
        <ele>945.20001220703</ele>
        <time>2019-02-23T09:37:52.000Z</time>
      </trkpt>
      <trkpt lat="43.79043" lon="7.13091">
        <ele>946.40002441406</ele>
        <time>2019-02-23T09:37:57.000Z</time>
      </trkpt>
      <trkpt lat="43.79044" lon="7.1309">
        <ele>946.59997558594</ele>
        <time>2019-02-23T09:37:58.000Z</time>
      </trkpt>
      <trkpt lat="43.7905" lon="7.13085">
        <ele>947.59997558594</ele>
        <time>2019-02-23T09:38:02.000Z</time>
      </trkpt>
      <trkpt lat="43.79055" lon="7.13081">
        <ele>948.20001220703</ele>
        <time>2019-02-23T09:38:05.000Z</time>
      </trkpt>
      <trkpt lat="43.79061" lon="7.13077">
        <ele>949</ele>
        <time>2019-02-23T09:38:09.000Z</time>
      </trkpt>
      <trkpt lat="43.79061" lon="7.13077">
        <ele>949.20001220703</ele>
        <time>2019-02-23T09:38:10.000Z</time>
      </trkpt>
      <trkpt lat="43.79062" lon="7.13076">
        <ele>950</ele>
        <time>2019-02-23T09:38:13.000Z</time>
      </trkpt>
      <trkpt lat="43.79064" lon="7.13076">
        <ele>950.40002441406</ele>
        <time>2019-02-23T09:38:15.000Z</time>
      </trkpt>
      <trkpt lat="43.79066" lon="7.13074">
        <ele>951.20001220703</ele>
        <time>2019-02-23T09:38:21.000Z</time>
      </trkpt>
      <trkpt lat="43.79069" lon="7.13072">
        <ele>951.59997558594</ele>
        <time>2019-02-23T09:38:27.000Z</time>
      </trkpt>
      <trkpt lat="43.79071" lon="7.1307">
        <ele>952.40002441406</ele>
        <time>2019-02-23T09:38:31.000Z</time>
      </trkpt>
      <trkpt lat="43.79075" lon="7.13068">
        <ele>952.79998779297</ele>
        <time>2019-02-23T09:38:35.000Z</time>
      </trkpt>
      <trkpt lat="43.79079" lon="7.13067">
        <ele>953.40002441406</ele>
        <time>2019-02-23T09:38:40.000Z</time>
      </trkpt>
      <trkpt lat="43.7908" lon="7.13068">
        <ele>953.59997558594</ele>
        <time>2019-02-23T09:38:41.000Z</time>
      </trkpt>
      <trkpt lat="43.79084" lon="7.13072">
        <ele>954.40002441406</ele>
        <time>2019-02-23T09:38:47.000Z</time>
      </trkpt>
      <trkpt lat="43.79085" lon="7.13072">
        <ele>954.40002441406</ele>
        <time>2019-02-23T09:38:48.000Z</time>
      </trkpt>
      <trkpt lat="43.79087" lon="7.13073">
        <ele>955.40002441406</ele>
        <time>2019-02-23T09:38:54.000Z</time>
      </trkpt>
      <trkpt lat="43.79088" lon="7.13074">
        <ele>955.59997558594</ele>
        <time>2019-02-23T09:39:01.000Z</time>
      </trkpt>
      <trkpt lat="43.79089" lon="7.13072">
        <ele>955.40002441406</ele>
        <time>2019-02-23T09:39:11.000Z</time>
      </trkpt>
      <trkpt lat="43.79089" lon="7.13071">
        <ele>955.40002441406</ele>
        <time>2019-02-23T09:39:12.000Z</time>
      </trkpt>
      <trkpt lat="43.79093" lon="7.13067">
        <ele>955.59997558594</ele>
        <time>2019-02-23T09:39:15.000Z</time>
      </trkpt>
      <trkpt lat="43.791" lon="7.13062">
        <ele>956.59997558594</ele>
        <time>2019-02-23T09:39:20.000Z</time>
      </trkpt>
      <trkpt lat="43.79102" lon="7.13061">
        <ele>957</ele>
        <time>2019-02-23T09:39:21.000Z</time>
      </trkpt>
      <trkpt lat="43.79109" lon="7.13067">
        <ele>957.79998779297</ele>
        <time>2019-02-23T09:39:25.000Z</time>
      </trkpt>
      <trkpt lat="43.79114" lon="7.13071">
        <ele>958.59997558594</ele>
        <time>2019-02-23T09:39:29.000Z</time>
      </trkpt>
      <trkpt lat="43.79116" lon="7.13071">
        <ele>959</ele>
        <time>2019-02-23T09:39:30.000Z</time>
      </trkpt>
      <trkpt lat="43.79118" lon="7.13073">
        <ele>959.59997558594</ele>
        <time>2019-02-23T09:39:32.000Z</time>
      </trkpt>
      <trkpt lat="43.79119" lon="7.13073">
        <ele>960.20001220703</ele>
        <time>2019-02-23T09:39:33.000Z</time>
      </trkpt>
      <trkpt lat="43.79127" lon="7.13079">
        <ele>961.40002441406</ele>
        <time>2019-02-23T09:39:39.000Z</time>
      </trkpt>
      <trkpt lat="43.79129" lon="7.13081">
        <ele>961.59997558594</ele>
        <time>2019-02-23T09:39:41.000Z</time>
      </trkpt>
      <trkpt lat="43.79134" lon="7.13084">
        <ele>962.40002441406</ele>
        <time>2019-02-23T09:39:45.000Z</time>
      </trkpt>
      <trkpt lat="43.79135" lon="7.13086">
        <ele>962.79998779297</ele>
        <time>2019-02-23T09:39:47.000Z</time>
      </trkpt>
      <trkpt lat="43.79136" lon="7.13085">
        <ele>963.40002441406</ele>
        <time>2019-02-23T09:39:49.000Z</time>
      </trkpt>
      <trkpt lat="43.79136" lon="7.13085">
        <ele>963.79998779297</ele>
        <time>2019-02-23T09:39:53.000Z</time>
      </trkpt>
      <trkpt lat="43.79136" lon="7.13085">
        <ele>964</ele>
        <time>2019-02-23T09:40:23.000Z</time>
      </trkpt>
      <trkpt lat="43.79136" lon="7.13085">
        <ele>964</ele>
        <time>2019-02-23T09:40:41.000Z</time>
      </trkpt>
      <trkpt lat="43.79136" lon="7.13085">
        <ele>964.40002441406</ele>
        <time>2019-02-23T09:40:43.000Z</time>
      </trkpt>
      <trkpt lat="43.79136" lon="7.13085">
        <ele>964.40002441406</ele>
        <time>2019-02-23T09:40:50.000Z</time>
      </trkpt>
      <trkpt lat="43.79136" lon="7.13085">
        <ele>964.20001220703</ele>
        <time>2019-02-23T09:40:55.000Z</time>
      </trkpt>
      <trkpt lat="43.79137" lon="7.13085">
        <ele>964</ele>
        <time>2019-02-23T09:41:02.000Z</time>
      </trkpt>
      <trkpt lat="43.79143" lon="7.13085">
        <ele>964</ele>
        <time>2019-02-23T09:41:07.000Z</time>
      </trkpt>
      <trkpt lat="43.79146" lon="7.13084">
        <ele>964.79998779297</ele>
        <time>2019-02-23T09:41:12.000Z</time>
      </trkpt>
      <trkpt lat="43.79147" lon="7.13083">
        <ele>965.40002441406</ele>
        <time>2019-02-23T09:41:14.000Z</time>
      </trkpt>
      <trkpt lat="43.7915" lon="7.13082">
        <ele>966</ele>
        <time>2019-02-23T09:41:18.000Z</time>
      </trkpt>
      <trkpt lat="43.79153" lon="7.13082">
        <ele>966.59997558594</ele>
        <time>2019-02-23T09:41:21.000Z</time>
      </trkpt>
      <trkpt lat="43.79156" lon="7.13082">
        <ele>967.20001220703</ele>
        <time>2019-02-23T09:41:25.000Z</time>
      </trkpt>
      <trkpt lat="43.79158" lon="7.13082">
        <ele>967.59997558594</ele>
        <time>2019-02-23T09:41:28.000Z</time>
      </trkpt>
      <trkpt lat="43.79161" lon="7.13082">
        <ele>968.40002441406</ele>
        <time>2019-02-23T09:41:33.000Z</time>
      </trkpt>
      <trkpt lat="43.79162" lon="7.13083">
        <ele>968.59997558594</ele>
        <time>2019-02-23T09:41:35.000Z</time>
      </trkpt>
      <trkpt lat="43.79168" lon="7.13082">
        <ele>969.40002441406</ele>
        <time>2019-02-23T09:41:41.000Z</time>
      </trkpt>
      <trkpt lat="43.7917" lon="7.13082">
        <ele>969.79998779297</ele>
        <time>2019-02-23T09:41:43.000Z</time>
      </trkpt>
      <trkpt lat="43.79174" lon="7.13078">
        <ele>970.79998779297</ele>
        <time>2019-02-23T09:41:49.000Z</time>
      </trkpt>
      <trkpt lat="43.79178" lon="7.13075">
        <ele>971.79998779297</ele>
        <time>2019-02-23T09:41:55.000Z</time>
      </trkpt>
      <trkpt lat="43.79179" lon="7.13073">
        <ele>972</ele>
        <time>2019-02-23T09:41:57.000Z</time>
      </trkpt>
      <trkpt lat="43.79182" lon="7.1307">
        <ele>972.79998779297</ele>
        <time>2019-02-23T09:42:02.000Z</time>
      </trkpt>
      <trkpt lat="43.79185" lon="7.13066">
        <ele>973.40002441406</ele>
        <time>2019-02-23T09:42:07.000Z</time>
      </trkpt>
      <trkpt lat="43.79188" lon="7.13065">
        <ele>974</ele>
        <time>2019-02-23T09:42:10.000Z</time>
      </trkpt>
      <trkpt lat="43.79191" lon="7.13064">
        <ele>975.20001220703</ele>
        <time>2019-02-23T09:42:14.000Z</time>
      </trkpt>
      <trkpt lat="43.79192" lon="7.13064">
        <ele>975.20001220703</ele>
        <time>2019-02-23T09:42:15.000Z</time>
      </trkpt>
      <trkpt lat="43.79198" lon="7.13067">
        <ele>976.20001220703</ele>
        <time>2019-02-23T09:42:22.000Z</time>
      </trkpt>
      <trkpt lat="43.792" lon="7.13067">
        <ele>976.59997558594</ele>
        <time>2019-02-23T09:42:24.000Z</time>
      </trkpt>
      <trkpt lat="43.79202" lon="7.13067">
        <ele>977.20001220703</ele>
        <time>2019-02-23T09:42:27.000Z</time>
      </trkpt>
      <trkpt lat="43.79203" lon="7.13066">
        <ele>977.59997558594</ele>
        <time>2019-02-23T09:42:30.000Z</time>
      </trkpt>
      <trkpt lat="43.79204" lon="7.13065">
        <ele>978</ele>
        <time>2019-02-23T09:42:34.000Z</time>
      </trkpt>
      <trkpt lat="43.79207" lon="7.13064">
        <ele>978</ele>
        <time>2019-02-23T09:42:36.000Z</time>
      </trkpt>
      <trkpt lat="43.79211" lon="7.13061">
        <ele>978.40002441406</ele>
        <time>2019-02-23T09:42:39.000Z</time>
      </trkpt>
      <trkpt lat="43.79217" lon="7.13058">
        <ele>979.40002441406</ele>
        <time>2019-02-23T09:42:43.000Z</time>
      </trkpt>
      <trkpt lat="43.79223" lon="7.13058">
        <ele>980.59997558594</ele>
        <time>2019-02-23T09:42:47.000Z</time>
      </trkpt>
      <trkpt lat="43.79227" lon="7.13058">
        <ele>981.20001220703</ele>
        <time>2019-02-23T09:42:50.000Z</time>
      </trkpt>
      <trkpt lat="43.7923" lon="7.13057">
        <ele>981.59997558594</ele>
        <time>2019-02-23T09:42:53.000Z</time>
      </trkpt>
      <trkpt lat="43.79234" lon="7.13053">
        <ele>982</ele>
        <time>2019-02-23T09:42:56.000Z</time>
      </trkpt>
      <trkpt lat="43.79237" lon="7.13045">
        <ele>982.79998779297</ele>
        <time>2019-02-23T09:43:00.000Z</time>
      </trkpt>
      <trkpt lat="43.79238" lon="7.1304">
        <ele>983.40002441406</ele>
        <time>2019-02-23T09:43:02.000Z</time>
      </trkpt>
      <trkpt lat="43.79239" lon="7.13037">
        <ele>984</ele>
        <time>2019-02-23T09:43:04.000Z</time>
      </trkpt>
      <trkpt lat="43.79241" lon="7.13031">
        <ele>985</ele>
        <time>2019-02-23T09:43:08.000Z</time>
      </trkpt>
      <trkpt lat="43.79241" lon="7.1303">
        <ele>985.20001220703</ele>
        <time>2019-02-23T09:43:09.000Z</time>
      </trkpt>
      <trkpt lat="43.7924" lon="7.13018">
        <ele>986</ele>
        <time>2019-02-23T09:43:15.000Z</time>
      </trkpt>
      <trkpt lat="43.7924" lon="7.13016">
        <ele>986.20001220703</ele>
        <time>2019-02-23T09:43:16.000Z</time>
      </trkpt>
      <trkpt lat="43.79239" lon="7.13009">
        <ele>987.40002441406</ele>
        <time>2019-02-23T09:43:20.000Z</time>
      </trkpt>
      <trkpt lat="43.79239" lon="7.13007">
        <ele>987.79998779297</ele>
        <time>2019-02-23T09:43:21.000Z</time>
      </trkpt>
      <trkpt lat="43.79239" lon="7.13006">
        <ele>988</ele>
        <time>2019-02-23T09:43:22.000Z</time>
      </trkpt>
      <trkpt lat="43.79239" lon="7.13002">
        <ele>988.59997558594</ele>
        <time>2019-02-23T09:43:24.000Z</time>
      </trkpt>
      <trkpt lat="43.79238" lon="7.12998">
        <ele>989.40002441406</ele>
        <time>2019-02-23T09:43:27.000Z</time>
      </trkpt>
      <trkpt lat="43.79237" lon="7.12995">
        <ele>989.40002441406</ele>
        <time>2019-02-23T09:43:29.000Z</time>
      </trkpt>
      <trkpt lat="43.79237" lon="7.12993">
        <ele>989.59997558594</ele>
        <time>2019-02-23T09:43:30.000Z</time>
      </trkpt>
      <trkpt lat="43.79236" lon="7.12989">
        <ele>989.79998779297</ele>
        <time>2019-02-23T09:43:32.000Z</time>
      </trkpt>
      <trkpt lat="43.79234" lon="7.12984">
        <ele>990.40002441406</ele>
        <time>2019-02-23T09:43:35.000Z</time>
      </trkpt>
      <trkpt lat="43.79233" lon="7.12981">
        <ele>990.59997558594</ele>
        <time>2019-02-23T09:43:37.000Z</time>
      </trkpt>
      <trkpt lat="43.79233" lon="7.12974">
        <ele>991.40002441406</ele>
        <time>2019-02-23T09:43:41.000Z</time>
      </trkpt>
      <trkpt lat="43.79234" lon="7.12968">
        <ele>991.79998779297</ele>
        <time>2019-02-23T09:43:45.000Z</time>
      </trkpt>
      <trkpt lat="43.79234" lon="7.12964">
        <ele>992.20001220703</ele>
        <time>2019-02-23T09:43:47.000Z</time>
      </trkpt>
      <trkpt lat="43.79235" lon="7.12957">
        <ele>993</ele>
        <time>2019-02-23T09:43:52.000Z</time>
      </trkpt>
      <trkpt lat="43.79236" lon="7.12955">
        <ele>993.20001220703</ele>
        <time>2019-02-23T09:43:54.000Z</time>
      </trkpt>
      <trkpt lat="43.79236" lon="7.12952">
        <ele>993.59997558594</ele>
        <time>2019-02-23T09:43:57.000Z</time>
      </trkpt>
      <trkpt lat="43.79236" lon="7.12951">
        <ele>994</ele>
        <time>2019-02-23T09:43:59.000Z</time>
      </trkpt>
      <trkpt lat="43.79237" lon="7.12948">
        <ele>994.20001220703</ele>
        <time>2019-02-23T09:44:03.000Z</time>
      </trkpt>
      <trkpt lat="43.79238" lon="7.12944">
        <ele>995</ele>
        <time>2019-02-23T09:44:08.000Z</time>
      </trkpt>
      <trkpt lat="43.79238" lon="7.12942">
        <ele>995.40002441406</ele>
        <time>2019-02-23T09:44:11.000Z</time>
      </trkpt>
      <trkpt lat="43.79239" lon="7.12941">
        <ele>995.59997558594</ele>
        <time>2019-02-23T09:44:13.000Z</time>
      </trkpt>
      <trkpt lat="43.7924" lon="7.1294">
        <ele>996.20001220703</ele>
        <time>2019-02-23T09:44:16.000Z</time>
      </trkpt>
      <trkpt lat="43.79242" lon="7.1294">
        <ele>996.20001220703</ele>
        <time>2019-02-23T09:44:17.000Z</time>
      </trkpt>
      <trkpt lat="43.79245" lon="7.12938">
        <ele>997.20001220703</ele>
        <time>2019-02-23T09:44:23.000Z</time>
      </trkpt>
      <trkpt lat="43.79246" lon="7.12938">
        <ele>997.40002441406</ele>
        <time>2019-02-23T09:44:24.000Z</time>
      </trkpt>
      <trkpt lat="43.79249" lon="7.12933">
        <ele>998.40002441406</ele>
        <time>2019-02-23T09:44:31.000Z</time>
      </trkpt>
      <trkpt lat="43.7925" lon="7.12924">
        <ele>999.40002441406</ele>
        <time>2019-02-23T09:44:38.000Z</time>
      </trkpt>
      <trkpt lat="43.7925" lon="7.12922">
        <ele>999.79998779297</ele>
        <time>2019-02-23T09:44:40.000Z</time>
      </trkpt>
      <trkpt lat="43.79248" lon="7.12917">
        <ele>1000.5999755859</ele>
        <time>2019-02-23T09:44:46.000Z</time>
      </trkpt>
      <trkpt lat="43.79247" lon="7.12915">
        <ele>1000.799987793</ele>
        <time>2019-02-23T09:44:49.000Z</time>
      </trkpt>
      <trkpt lat="43.79245" lon="7.12914">
        <ele>1001.4000244141</ele>
        <time>2019-02-23T09:44:53.000Z</time>
      </trkpt>
      <trkpt lat="43.7924" lon="7.12909">
        <ele>1001.4000244141</ele>
        <time>2019-02-23T09:44:57.000Z</time>
      </trkpt>
      <trkpt lat="43.79239" lon="7.12909">
        <ele>1001.5999755859</ele>
        <time>2019-02-23T09:44:58.000Z</time>
      </trkpt>
      <trkpt lat="43.79238" lon="7.12909">
        <ele>1001.799987793</ele>
        <time>2019-02-23T09:44:59.000Z</time>
      </trkpt>
      <trkpt lat="43.79233" lon="7.12908">
        <ele>1002.200012207</ele>
        <time>2019-02-23T09:45:02.000Z</time>
      </trkpt>
      <trkpt lat="43.79231" lon="7.12906">
        <ele>1002.799987793</ele>
        <time>2019-02-23T09:45:04.000Z</time>
      </trkpt>
      <trkpt lat="43.79229" lon="7.12905">
        <ele>1003</ele>
        <time>2019-02-23T09:45:05.000Z</time>
      </trkpt>
      <trkpt lat="43.79229" lon="7.12897">
        <ele>1003.5999755859</ele>
        <time>2019-02-23T09:45:09.000Z</time>
      </trkpt>
      <trkpt lat="43.7923" lon="7.12896">
        <ele>1003.799987793</ele>
        <time>2019-02-23T09:45:10.000Z</time>
      </trkpt>
      <trkpt lat="43.7923" lon="7.12895">
        <ele>1004.200012207</ele>
        <time>2019-02-23T09:45:11.000Z</time>
      </trkpt>
      <trkpt lat="43.79234" lon="7.12893">
        <ele>1004.799987793</ele>
        <time>2019-02-23T09:45:14.000Z</time>
      </trkpt>
      <trkpt lat="43.79235" lon="7.12893">
        <ele>1005</ele>
        <time>2019-02-23T09:45:15.000Z</time>
      </trkpt>
      <trkpt lat="43.79243" lon="7.12893">
        <ele>1005.5999755859</ele>
        <time>2019-02-23T09:45:21.000Z</time>
      </trkpt>
      <trkpt lat="43.79248" lon="7.12892">
        <ele>1006</ele>
        <time>2019-02-23T09:45:24.000Z</time>
      </trkpt>
      <trkpt lat="43.79253" lon="7.12891">
        <ele>1006.5999755859</ele>
        <time>2019-02-23T09:45:28.000Z</time>
      </trkpt>
      <trkpt lat="43.79256" lon="7.1289">
        <ele>1007.200012207</ele>
        <time>2019-02-23T09:45:30.000Z</time>
      </trkpt>
      <trkpt lat="43.79259" lon="7.12889">
        <ele>1008.200012207</ele>
        <time>2019-02-23T09:45:33.000Z</time>
      </trkpt>
      <trkpt lat="43.79262" lon="7.12889">
        <ele>1009</ele>
        <time>2019-02-23T09:45:35.000Z</time>
      </trkpt>
      <trkpt lat="43.79263" lon="7.12889">
        <ele>1009.4000244141</ele>
        <time>2019-02-23T09:45:36.000Z</time>
      </trkpt>
      <trkpt lat="43.79268" lon="7.12895">
        <ele>1010.4000244141</ele>
        <time>2019-02-23T09:45:41.000Z</time>
      </trkpt>
      <trkpt lat="43.79268" lon="7.12897">
        <ele>1010.5999755859</ele>
        <time>2019-02-23T09:45:42.000Z</time>
      </trkpt>
      <trkpt lat="43.79274" lon="7.129">
        <ele>1011.4000244141</ele>
        <time>2019-02-23T09:45:47.000Z</time>
      </trkpt>
      <trkpt lat="43.79276" lon="7.129">
        <ele>1012</ele>
        <time>2019-02-23T09:45:49.000Z</time>
      </trkpt>
      <trkpt lat="43.79278" lon="7.129">
        <ele>1012.5999755859</ele>
        <time>2019-02-23T09:45:51.000Z</time>
      </trkpt>
      <trkpt lat="43.79281" lon="7.12898">
        <ele>1013</ele>
        <time>2019-02-23T09:45:54.000Z</time>
      </trkpt>
      <trkpt lat="43.79282" lon="7.12895">
        <ele>1013.200012207</ele>
        <time>2019-02-23T09:45:56.000Z</time>
      </trkpt>
      <trkpt lat="43.79282" lon="7.12889">
        <ele>1013.799987793</ele>
        <time>2019-02-23T09:46:00.000Z</time>
      </trkpt>
      <trkpt lat="43.79282" lon="7.12883">
        <ele>1014.4000244141</ele>
        <time>2019-02-23T09:46:03.000Z</time>
      </trkpt>
      <trkpt lat="43.79282" lon="7.12875">
        <ele>1015</ele>
        <time>2019-02-23T09:46:07.000Z</time>
      </trkpt>
      <trkpt lat="43.79282" lon="7.12874">
        <ele>1015.200012207</ele>
        <time>2019-02-23T09:46:08.000Z</time>
      </trkpt>
      <trkpt lat="43.79283" lon="7.12871">
        <ele>1015.5999755859</ele>
        <time>2019-02-23T09:46:10.000Z</time>
      </trkpt>
      <trkpt lat="43.79284" lon="7.12868">
        <ele>1016.200012207</ele>
        <time>2019-02-23T09:46:12.000Z</time>
      </trkpt>
      <trkpt lat="43.79285" lon="7.12862">
        <ele>1016.5999755859</ele>
        <time>2019-02-23T09:46:15.000Z</time>
      </trkpt>
      <trkpt lat="43.79287" lon="7.12855">
        <ele>1017.200012207</ele>
        <time>2019-02-23T09:46:18.000Z</time>
      </trkpt>
      <trkpt lat="43.79289" lon="7.1285">
        <ele>1018.200012207</ele>
        <time>2019-02-23T09:46:21.000Z</time>
      </trkpt>
      <trkpt lat="43.79289" lon="7.12848">
        <ele>1018.5999755859</ele>
        <time>2019-02-23T09:46:22.000Z</time>
      </trkpt>
      <trkpt lat="43.79289" lon="7.12842">
        <ele>1019.200012207</ele>
        <time>2019-02-23T09:46:25.000Z</time>
      </trkpt>
      <trkpt lat="43.7929" lon="7.1284">
        <ele>1019.4000244141</ele>
        <time>2019-02-23T09:46:26.000Z</time>
      </trkpt>
      <trkpt lat="43.7929" lon="7.12839">
        <ele>1019.5999755859</ele>
        <time>2019-02-23T09:46:27.000Z</time>
      </trkpt>
      <trkpt lat="43.79292" lon="7.12833">
        <ele>1020.4000244141</ele>
        <time>2019-02-23T09:46:31.000Z</time>
      </trkpt>
      <trkpt lat="43.79292" lon="7.12831">
        <ele>1020.799987793</ele>
        <time>2019-02-23T09:46:32.000Z</time>
      </trkpt>
      <trkpt lat="43.79293" lon="7.12823">
        <ele>1021.799987793</ele>
        <time>2019-02-23T09:46:36.000Z</time>
      </trkpt>
      <trkpt lat="43.79293" lon="7.12822">
        <ele>1022</ele>
        <time>2019-02-23T09:46:37.000Z</time>
      </trkpt>
      <trkpt lat="43.79295" lon="7.12816">
        <ele>1023</ele>
        <time>2019-02-23T09:46:41.000Z</time>
      </trkpt>
      <trkpt lat="43.79295" lon="7.12812">
        <ele>1023.200012207</ele>
        <time>2019-02-23T09:46:43.000Z</time>
      </trkpt>
      <trkpt lat="43.79296" lon="7.12805">
        <ele>1024</ele>
        <time>2019-02-23T09:46:48.000Z</time>
      </trkpt>
      <trkpt lat="43.79296" lon="7.12802">
        <ele>1024.1999511719</ele>
        <time>2019-02-23T09:46:50.000Z</time>
      </trkpt>
      <trkpt lat="43.79296" lon="7.12793">
        <ele>1025</ele>
        <time>2019-02-23T09:46:56.000Z</time>
      </trkpt>
      <trkpt lat="43.79296" lon="7.12791">
        <ele>1025</ele>
        <time>2019-02-23T09:46:57.000Z</time>
      </trkpt>
      <trkpt lat="43.79296" lon="7.12782">
        <ele>1025.4000244141</ele>
        <time>2019-02-23T09:47:02.000Z</time>
      </trkpt>
      <trkpt lat="43.79296" lon="7.12773">
        <ele>1026.1999511719</ele>
        <time>2019-02-23T09:47:07.000Z</time>
      </trkpt>
      <trkpt lat="43.79298" lon="7.12767">
        <ele>1026.5999755859</ele>
        <time>2019-02-23T09:47:11.000Z</time>
      </trkpt>
      <trkpt lat="43.79299" lon="7.12761">
        <ele>1027.1999511719</ele>
        <time>2019-02-23T09:47:15.000Z</time>
      </trkpt>
      <trkpt lat="43.79302" lon="7.12753">
        <ele>1027.5999755859</ele>
        <time>2019-02-23T09:47:20.000Z</time>
      </trkpt>
      <trkpt lat="43.79302" lon="7.1275">
        <ele>1028.1999511719</ele>
        <time>2019-02-23T09:47:25.000Z</time>
      </trkpt>
      <trkpt lat="43.79302" lon="7.1275">
        <ele>1028.1999511719</ele>
        <time>2019-02-23T09:47:26.000Z</time>
      </trkpt>
      <trkpt lat="43.79301" lon="7.1275">
        <ele>1027.8000488281</ele>
        <time>2019-02-23T09:47:31.000Z</time>
      </trkpt>
      <trkpt lat="43.79301" lon="7.12749">
        <ele>1028.4000244141</ele>
        <time>2019-02-23T09:47:38.000Z</time>
      </trkpt>
      <trkpt lat="43.793" lon="7.1275">
        <ele>1028</ele>
        <time>2019-02-23T09:47:42.000Z</time>
      </trkpt>
      <trkpt lat="43.793" lon="7.1275">
        <ele>1027.5999755859</ele>
        <time>2019-02-23T09:47:51.000Z</time>
      </trkpt>
      <trkpt lat="43.79299" lon="7.1275">
        <ele>1027.8000488281</ele>
        <time>2019-02-23T09:47:59.000Z</time>
      </trkpt>
      <trkpt lat="43.79299" lon="7.1275">
        <ele>1028.4000244141</ele>
        <time>2019-02-23T09:48:10.000Z</time>
      </trkpt>
      <trkpt lat="43.79298" lon="7.1275">
        <ele>1027.8000488281</ele>
        <time>2019-02-23T09:48:17.000Z</time>
      </trkpt>
      <trkpt lat="43.79298" lon="7.12749">
        <ele>1028</ele>
        <time>2019-02-23T09:48:27.000Z</time>
      </trkpt>
      <trkpt lat="43.79297" lon="7.1275">
        <ele>1028</ele>
        <time>2019-02-23T09:48:33.000Z</time>
      </trkpt>
      <trkpt lat="43.79297" lon="7.1275">
        <ele>1027.5999755859</ele>
        <time>2019-02-23T09:48:39.000Z</time>
      </trkpt>
      <trkpt lat="43.79296" lon="7.1275">
        <ele>1028</ele>
        <time>2019-02-23T09:48:43.000Z</time>
      </trkpt>
      <trkpt lat="43.79296" lon="7.1275">
        <ele>1028</ele>
        <time>2019-02-23T09:48:51.000Z</time>
      </trkpt>
      <trkpt lat="43.79296" lon="7.12749">
        <ele>1028</ele>
        <time>2019-02-23T09:48:57.000Z</time>
      </trkpt>
      <trkpt lat="43.79297" lon="7.12748">
        <ele>1028.1999511719</ele>
        <time>2019-02-23T09:49:04.000Z</time>
      </trkpt>
      <trkpt lat="43.79298" lon="7.12749">
        <ele>1028</ele>
        <time>2019-02-23T09:49:14.000Z</time>
      </trkpt>
      <trkpt lat="43.79298" lon="7.12749">
        <ele>1027.5999755859</ele>
        <time>2019-02-23T09:49:19.000Z</time>
      </trkpt>
      <trkpt lat="43.79298" lon="7.12749">
        <ele>1027.5999755859</ele>
        <time>2019-02-23T09:49:30.000Z</time>
      </trkpt>
      <trkpt lat="43.79298" lon="7.12749">
        <ele>1027.8000488281</ele>
        <time>2019-02-23T09:49:50.000Z</time>
      </trkpt>
      <trkpt lat="43.79298" lon="7.1275">
        <ele>1027.8000488281</ele>
        <time>2019-02-23T09:50:09.000Z</time>
      </trkpt>
      <trkpt lat="43.79298" lon="7.1275">
        <ele>1027.5999755859</ele>
        <time>2019-02-23T09:50:32.000Z</time>
      </trkpt>
      <trkpt lat="43.79298" lon="7.1275">
        <ele>1027.1999511719</ele>
        <time>2019-02-23T09:50:39.000Z</time>
      </trkpt>
      <trkpt lat="43.79298" lon="7.1275">
        <ele>1026.8000488281</ele>
        <time>2019-02-23T09:50:42.000Z</time>
      </trkpt>
      <trkpt lat="43.79298" lon="7.1275">
        <ele>1027.5999755859</ele>
        <time>2019-02-23T09:50:54.000Z</time>
      </trkpt>
      <trkpt lat="43.79298" lon="7.1275">
        <ele>1027.4000244141</ele>
        <time>2019-02-23T09:51:12.000Z</time>
      </trkpt>
      <trkpt lat="43.79297" lon="7.1275">
        <ele>1026.8000488281</ele>
        <time>2019-02-23T09:51:28.000Z</time>
      </trkpt>
      <trkpt lat="43.79298" lon="7.1275">
        <ele>1027</ele>
        <time>2019-02-23T09:51:35.000Z</time>
      </trkpt>
      <trkpt lat="43.79299" lon="7.12749">
        <ele>1027.1999511719</ele>
        <time>2019-02-23T09:51:44.000Z</time>
      </trkpt>
      <trkpt lat="43.793" lon="7.12747">
        <ele>1027.1999511719</ele>
        <time>2019-02-23T09:51:50.000Z</time>
      </trkpt>
      <trkpt lat="43.79303" lon="7.12744">
        <ele>1027.4000244141</ele>
        <time>2019-02-23T09:51:54.000Z</time>
      </trkpt>
      <trkpt lat="43.79305" lon="7.12743">
        <ele>1027.4000244141</ele>
        <time>2019-02-23T09:51:55.000Z</time>
      </trkpt>
      <trkpt lat="43.79314" lon="7.12735">
        <ele>1027.8000488281</ele>
        <time>2019-02-23T09:52:01.000Z</time>
      </trkpt>
      <trkpt lat="43.79319" lon="7.12729">
        <ele>1028.1999511719</ele>
        <time>2019-02-23T09:52:04.000Z</time>
      </trkpt>
      <trkpt lat="43.79321" lon="7.12728">
        <ele>1028.1999511719</ele>
        <time>2019-02-23T09:52:05.000Z</time>
      </trkpt>
      <trkpt lat="43.79333" lon="7.12722">
        <ele>1028.8000488281</ele>
        <time>2019-02-23T09:52:12.000Z</time>
      </trkpt>
      <trkpt lat="43.79342" lon="7.12722">
        <ele>1029</ele>
        <time>2019-02-23T09:52:17.000Z</time>
      </trkpt>
      <trkpt lat="43.79348" lon="7.12724">
        <ele>1028.8000488281</ele>
        <time>2019-02-23T09:52:22.000Z</time>
      </trkpt>
      <trkpt lat="43.79349" lon="7.12725">
        <ele>1028.8000488281</ele>
        <time>2019-02-23T09:52:29.000Z</time>
      </trkpt>
      <trkpt lat="43.79351" lon="7.12727">
        <ele>1029</ele>
        <time>2019-02-23T09:52:35.000Z</time>
      </trkpt>
      <trkpt lat="43.79355" lon="7.12739">
        <ele>1028.8000488281</ele>
        <time>2019-02-23T09:52:40.000Z</time>
      </trkpt>
      <trkpt lat="43.79355" lon="7.12754">
        <ele>1028.4000244141</ele>
        <time>2019-02-23T09:52:46.000Z</time>
      </trkpt>
      <trkpt lat="43.79361" lon="7.1277">
        <ele>1028.4000244141</ele>
        <time>2019-02-23T09:52:52.000Z</time>
      </trkpt>
      <trkpt lat="43.79366" lon="7.12794">
        <ele>1027.8000488281</ele>
        <time>2019-02-23T09:52:58.000Z</time>
      </trkpt>
      <trkpt lat="43.79367" lon="7.128">
        <ele>1027.4000244141</ele>
        <time>2019-02-23T09:52:59.000Z</time>
      </trkpt>
      <trkpt lat="43.79369" lon="7.12805">
        <ele>1027.1999511719</ele>
        <time>2019-02-23T09:53:00.000Z</time>
      </trkpt>
      <trkpt lat="43.79375" lon="7.12817">
        <ele>1027</ele>
        <time>2019-02-23T09:53:02.000Z</time>
      </trkpt>
      <trkpt lat="43.7938" lon="7.12829">
        <ele>1026</ele>
        <time>2019-02-23T09:53:04.000Z</time>
      </trkpt>
      <trkpt lat="43.79384" lon="7.12844">
        <ele>1024.8000488281</ele>
        <time>2019-02-23T09:53:06.000Z</time>
      </trkpt>
      <trkpt lat="43.79384" lon="7.12849">
        <ele>1024.4000244141</ele>
        <time>2019-02-23T09:53:07.000Z</time>
      </trkpt>
      <trkpt lat="43.79385" lon="7.12858">
        <ele>1024.1999511719</ele>
        <time>2019-02-23T09:53:09.000Z</time>
      </trkpt>
      <trkpt lat="43.79386" lon="7.12865">
        <ele>1024.4000244141</ele>
        <time>2019-02-23T09:53:11.000Z</time>
      </trkpt>
      <trkpt lat="43.79394" lon="7.12873">
        <ele>1025.5999755859</ele>
        <time>2019-02-23T09:53:15.000Z</time>
      </trkpt>
      <trkpt lat="43.79396" lon="7.12874">
        <ele>1026</ele>
        <time>2019-02-23T09:53:16.000Z</time>
      </trkpt>
      <trkpt lat="43.79402" lon="7.12879">
        <ele>1027.1999511719</ele>
        <time>2019-02-23T09:53:19.000Z</time>
      </trkpt>
      <trkpt lat="43.79409" lon="7.12885">
        <ele>1027.8000488281</ele>
        <time>2019-02-23T09:53:22.000Z</time>
      </trkpt>
      <trkpt lat="43.79419" lon="7.12903">
        <ele>1027.8000488281</ele>
        <time>2019-02-23T09:53:27.000Z</time>
      </trkpt>
      <trkpt lat="43.79429" lon="7.12933">
        <ele>1027</ele>
        <time>2019-02-23T09:53:35.000Z</time>
      </trkpt>
      <trkpt lat="43.79435" lon="7.12948">
        <ele>1027</ele>
        <time>2019-02-23T09:53:40.000Z</time>
      </trkpt>
      <trkpt lat="43.79447" lon="7.12963">
        <ele>1026.8000488281</ele>
        <time>2019-02-23T09:53:46.000Z</time>
      </trkpt>
      <trkpt lat="43.79453" lon="7.12983">
        <ele>1027.1999511719</ele>
        <time>2019-02-23T09:53:52.000Z</time>
      </trkpt>
      <trkpt lat="43.7946" lon="7.13003">
        <ele>1028</ele>
        <time>2019-02-23T09:54:00.000Z</time>
      </trkpt>
      <trkpt lat="43.79462" lon="7.13005">
        <ele>1028.4000244141</ele>
        <time>2019-02-23T09:54:01.000Z</time>
      </trkpt>
      <trkpt lat="43.79467" lon="7.1301">
        <ele>1028.5999755859</ele>
        <time>2019-02-23T09:54:04.000Z</time>
      </trkpt>
      <trkpt lat="43.79472" lon="7.13011">
        <ele>1028.8000488281</ele>
        <time>2019-02-23T09:54:06.000Z</time>
      </trkpt>
      <trkpt lat="43.79481" lon="7.1301">
        <ele>1029.4000244141</ele>
        <time>2019-02-23T09:54:10.000Z</time>
      </trkpt>
      <trkpt lat="43.79486" lon="7.1301">
        <ele>1029.8000488281</ele>
        <time>2019-02-23T09:54:12.000Z</time>
      </trkpt>
      <trkpt lat="43.79504" lon="7.13016">
        <ele>1030.1999511719</ele>
        <time>2019-02-23T09:54:19.000Z</time>
      </trkpt>
      <trkpt lat="43.79524" lon="7.13023">
        <ele>1030</ele>
        <time>2019-02-23T09:54:26.000Z</time>
      </trkpt>
      <trkpt lat="43.79537" lon="7.1303">
        <ele>1030</ele>
        <time>2019-02-23T09:54:32.000Z</time>
      </trkpt>
      <trkpt lat="43.79544" lon="7.13037">
        <ele>1030.4000244141</ele>
        <time>2019-02-23T09:54:36.000Z</time>
      </trkpt>
      <trkpt lat="43.79546" lon="7.13039">
        <ele>1030.8000488281</ele>
        <time>2019-02-23T09:54:37.000Z</time>
      </trkpt>
      <trkpt lat="43.79552" lon="7.13048">
        <ele>1031.5999755859</ele>
        <time>2019-02-23T09:54:41.000Z</time>
      </trkpt>
      <trkpt lat="43.79556" lon="7.13058">
        <ele>1032.1999511719</ele>
        <time>2019-02-23T09:54:45.000Z</time>
      </trkpt>
      <trkpt lat="43.79563" lon="7.13077">
        <ele>1032.4000244141</ele>
        <time>2019-02-23T09:54:52.000Z</time>
      </trkpt>
      <trkpt lat="43.79569" lon="7.13103">
        <ele>1032</ele>
        <time>2019-02-23T09:54:58.000Z</time>
      </trkpt>
      <trkpt lat="43.79568" lon="7.13125">
        <ele>1031.4000244141</ele>
        <time>2019-02-23T09:55:03.000Z</time>
      </trkpt>
      <trkpt lat="43.79561" lon="7.13154">
        <ele>1031.4000244141</ele>
        <time>2019-02-23T09:55:11.000Z</time>
      </trkpt>
      <trkpt lat="43.79552" lon="7.13175">
        <ele>1031</ele>
        <time>2019-02-23T09:55:17.000Z</time>
      </trkpt>
      <trkpt lat="43.79542" lon="7.13192">
        <ele>1031.8000488281</ele>
        <time>2019-02-23T09:55:24.000Z</time>
      </trkpt>
      <trkpt lat="43.79539" lon="7.13202">
        <ele>1032.1999511719</ele>
        <time>2019-02-23T09:55:28.000Z</time>
      </trkpt>
      <trkpt lat="43.79539" lon="7.13205">
        <ele>1032.4000244141</ele>
        <time>2019-02-23T09:55:29.000Z</time>
      </trkpt>
      <trkpt lat="43.7954" lon="7.13209">
        <ele>1032.8000488281</ele>
        <time>2019-02-23T09:55:31.000Z</time>
      </trkpt>
      <trkpt lat="43.79542" lon="7.13213">
        <ele>1033.4000244141</ele>
        <time>2019-02-23T09:55:33.000Z</time>
      </trkpt>
      <trkpt lat="43.79547" lon="7.13218">
        <ele>1034</ele>
        <time>2019-02-23T09:55:36.000Z</time>
      </trkpt>
      <trkpt lat="43.7956" lon="7.13236">
        <ele>1033.4000244141</ele>
        <time>2019-02-23T09:55:42.000Z</time>
      </trkpt>
      <trkpt lat="43.79578" lon="7.13246">
        <ele>1032.8000488281</ele>
        <time>2019-02-23T09:55:47.000Z</time>
      </trkpt>
      <trkpt lat="43.79595" lon="7.13243">
        <ele>1032.1999511719</ele>
        <time>2019-02-23T09:55:52.000Z</time>
      </trkpt>
      <trkpt lat="43.79599" lon="7.13242">
        <ele>1031.5999755859</ele>
        <time>2019-02-23T09:55:53.000Z</time>
      </trkpt>
      <trkpt lat="43.79616" lon="7.13242">
        <ele>1031</ele>
        <time>2019-02-23T09:55:58.000Z</time>
      </trkpt>
      <trkpt lat="43.7962" lon="7.13249">
        <ele>1030.5999755859</ele>
        <time>2019-02-23T09:56:01.000Z</time>
      </trkpt>
      <trkpt lat="43.79622" lon="7.13252">
        <ele>1030.4000244141</ele>
        <time>2019-02-23T09:56:03.000Z</time>
      </trkpt>
      <trkpt lat="43.79624" lon="7.13256">
        <ele>1030.4000244141</ele>
        <time>2019-02-23T09:56:05.000Z</time>
      </trkpt>
      <trkpt lat="43.79629" lon="7.13262">
        <ele>1030.4000244141</ele>
        <time>2019-02-23T09:56:10.000Z</time>
      </trkpt>
      <trkpt lat="43.79637" lon="7.13267">
        <ele>1029.4000244141</ele>
        <time>2019-02-23T09:56:16.000Z</time>
      </trkpt>
      <trkpt lat="43.79637" lon="7.13267">
        <ele>1028.4000244141</ele>
        <time>2019-02-23T09:56:20.000Z</time>
      </trkpt>
      <trkpt lat="43.79637" lon="7.13267">
        <ele>1028.1999511719</ele>
        <time>2019-02-23T09:56:21.000Z</time>
      </trkpt>
      <trkpt lat="43.79637" lon="7.13268">
        <ele>1028.5999755859</ele>
        <time>2019-02-23T09:56:37.000Z</time>
      </trkpt>
      <trkpt lat="43.79639" lon="7.13269">
        <ele>1028.4000244141</ele>
        <time>2019-02-23T09:56:49.000Z</time>
      </trkpt>
      <trkpt lat="43.79641" lon="7.13272">
        <ele>1028.4000244141</ele>
        <time>2019-02-23T09:56:50.000Z</time>
      </trkpt>
      <trkpt lat="43.79644" lon="7.1328">
        <ele>1028</ele>
        <time>2019-02-23T09:56:53.000Z</time>
      </trkpt>
      <trkpt lat="43.79646" lon="7.13288">
        <ele>1027.4000244141</ele>
        <time>2019-02-23T09:56:55.000Z</time>
      </trkpt>
      <trkpt lat="43.79648" lon="7.133">
        <ele>1026.4000244141</ele>
        <time>2019-02-23T09:56:57.000Z</time>
      </trkpt>
      <trkpt lat="43.79648" lon="7.13309">
        <ele>1025</ele>
        <time>2019-02-23T09:57:00.000Z</time>
      </trkpt>
      <trkpt lat="43.79648" lon="7.13311">
        <ele>1024</ele>
        <time>2019-02-23T09:57:06.000Z</time>
      </trkpt>
      <trkpt lat="43.79651" lon="7.13314">
        <ele>1025</ele>
        <time>2019-02-23T09:57:13.000Z</time>
      </trkpt>
      <trkpt lat="43.79652" lon="7.13317">
        <ele>1026</ele>
        <time>2019-02-23T09:57:20.000Z</time>
      </trkpt>
      <trkpt lat="43.79652" lon="7.13318">
        <ele>1026.1999511719</ele>
        <time>2019-02-23T09:57:21.000Z</time>
      </trkpt>
      <trkpt lat="43.79655" lon="7.13318">
        <ele>1027</ele>
        <time>2019-02-23T09:57:28.000Z</time>
      </trkpt>
      <trkpt lat="43.79656" lon="7.13318">
        <ele>1027.1999511719</ele>
        <time>2019-02-23T09:57:29.000Z</time>
      </trkpt>
      <trkpt lat="43.79659" lon="7.13318">
        <ele>1027.8000488281</ele>
        <time>2019-02-23T09:57:34.000Z</time>
      </trkpt>
      <trkpt lat="43.79661" lon="7.13319">
        <ele>1028</ele>
        <time>2019-02-23T09:57:41.000Z</time>
      </trkpt>
      <trkpt lat="43.79662" lon="7.13319">
        <ele>1028.1999511719</ele>
        <time>2019-02-23T09:57:44.000Z</time>
      </trkpt>
      <trkpt lat="43.79663" lon="7.1332">
        <ele>1028.1999511719</ele>
        <time>2019-02-23T09:57:48.000Z</time>
      </trkpt>
      <trkpt lat="43.79664" lon="7.1332">
        <ele>1028.1999511719</ele>
        <time>2019-02-23T09:57:49.000Z</time>
      </trkpt>
      <trkpt lat="43.79667" lon="7.13322">
        <ele>1028.4000244141</ele>
        <time>2019-02-23T09:57:53.000Z</time>
      </trkpt>
      <trkpt lat="43.79667" lon="7.13323">
        <ele>1028.4000244141</ele>
        <time>2019-02-23T09:57:54.000Z</time>
      </trkpt>
      <trkpt lat="43.79668" lon="7.13328">
        <ele>1029</ele>
        <time>2019-02-23T09:57:59.000Z</time>
      </trkpt>
      <trkpt lat="43.79667" lon="7.13329">
        <ele>1029.1999511719</ele>
        <time>2019-02-23T09:58:00.000Z</time>
      </trkpt>
      <trkpt lat="43.7967" lon="7.13336">
        <ele>1030.4000244141</ele>
        <time>2019-02-23T09:58:06.000Z</time>
      </trkpt>
      <trkpt lat="43.79673" lon="7.13341">
        <ele>1031.4000244141</ele>
        <time>2019-02-23T09:58:12.000Z</time>
      </trkpt>
      <trkpt lat="43.79673" lon="7.13341">
        <ele>1031.4000244141</ele>
        <time>2019-02-23T09:58:13.000Z</time>
      </trkpt>
      <trkpt lat="43.79674" lon="7.13342">
        <ele>1031.5999755859</ele>
        <time>2019-02-23T09:58:15.000Z</time>
      </trkpt>
      <trkpt lat="43.79677" lon="7.13345">
        <ele>1031.8000488281</ele>
        <time>2019-02-23T09:58:18.000Z</time>
      </trkpt>
      <trkpt lat="43.79678" lon="7.13347">
        <ele>1031.8000488281</ele>
        <time>2019-02-23T09:58:19.000Z</time>
      </trkpt>
      <trkpt lat="43.79682" lon="7.13354">
        <ele>1032.1999511719</ele>
        <time>2019-02-23T09:58:23.000Z</time>
      </trkpt>
      <trkpt lat="43.79683" lon="7.13356">
        <ele>1032.5999755859</ele>
        <time>2019-02-23T09:58:24.000Z</time>
      </trkpt>
      <trkpt lat="43.79686" lon="7.13364">
        <ele>1033.1999511719</ele>
        <time>2019-02-23T09:58:28.000Z</time>
      </trkpt>
      <trkpt lat="43.79688" lon="7.13365">
        <ele>1033.1999511719</ele>
        <time>2019-02-23T09:58:29.000Z</time>
      </trkpt>
      <trkpt lat="43.79693" lon="7.1337">
        <ele>1033.5999755859</ele>
        <time>2019-02-23T09:58:33.000Z</time>
      </trkpt>
      <trkpt lat="43.79696" lon="7.13374">
        <ele>1033.5999755859</ele>
        <time>2019-02-23T09:58:36.000Z</time>
      </trkpt>
      <trkpt lat="43.797" lon="7.13377">
        <ele>1033.5999755859</ele>
        <time>2019-02-23T09:58:38.000Z</time>
      </trkpt>
      <trkpt lat="43.79704" lon="7.13383">
        <ele>1033.4000244141</ele>
        <time>2019-02-23T09:58:41.000Z</time>
      </trkpt>
      <trkpt lat="43.79707" lon="7.13393">
        <ele>1033.1999511719</ele>
        <time>2019-02-23T09:58:44.000Z</time>
      </trkpt>
      <trkpt lat="43.79707" lon="7.134">
        <ele>1032.4000244141</ele>
        <time>2019-02-23T09:58:47.000Z</time>
      </trkpt>
      <trkpt lat="43.79708" lon="7.13402">
        <ele>1032.1999511719</ele>
        <time>2019-02-23T09:58:48.000Z</time>
      </trkpt>
      <trkpt lat="43.7971" lon="7.13405">
        <ele>1031.8000488281</ele>
        <time>2019-02-23T09:58:51.000Z</time>
      </trkpt>
      <trkpt lat="43.7971" lon="7.13405">
        <ele>1031.4000244141</ele>
        <time>2019-02-23T09:58:52.000Z</time>
      </trkpt>
      <trkpt lat="43.7971" lon="7.13406">
        <ele>1031.1999511719</ele>
        <time>2019-02-23T09:58:53.000Z</time>
      </trkpt>
      <trkpt lat="43.79711" lon="7.13406">
        <ele>1031.1999511719</ele>
        <time>2019-02-23T09:58:59.000Z</time>
      </trkpt>
      <trkpt lat="43.79713" lon="7.13408">
        <ele>1031</ele>
        <time>2019-02-23T09:59:05.000Z</time>
      </trkpt>
      <trkpt lat="43.79714" lon="7.13412">
        <ele>1030.1999511719</ele>
        <time>2019-02-23T09:59:12.000Z</time>
      </trkpt>
      <trkpt lat="43.79715" lon="7.13415">
        <ele>1029.4000244141</ele>
        <time>2019-02-23T09:59:15.000Z</time>
      </trkpt>
      <trkpt lat="43.79717" lon="7.13419">
        <ele>1029.1999511719</ele>
        <time>2019-02-23T09:59:17.000Z</time>
      </trkpt>
      <trkpt lat="43.79719" lon="7.13421">
        <ele>1029.1999511719</ele>
        <time>2019-02-23T09:59:18.000Z</time>
      </trkpt>
      <trkpt lat="43.79723" lon="7.13422">
        <ele>1029.1999511719</ele>
        <time>2019-02-23T09:59:20.000Z</time>
      </trkpt>
      <trkpt lat="43.79727" lon="7.13424">
        <ele>1029.5999755859</ele>
        <time>2019-02-23T09:59:22.000Z</time>
      </trkpt>
      <trkpt lat="43.79734" lon="7.13426">
        <ele>1030.4000244141</ele>
        <time>2019-02-23T09:59:25.000Z</time>
      </trkpt>
      <trkpt lat="43.79744" lon="7.13434">
        <ele>1031</ele>
        <time>2019-02-23T09:59:30.000Z</time>
      </trkpt>
      <trkpt lat="43.79746" lon="7.13436">
        <ele>1031.1999511719</ele>
        <time>2019-02-23T09:59:31.000Z</time>
      </trkpt>
      <trkpt lat="43.79747" lon="7.13439">
        <ele>1031.4000244141</ele>
        <time>2019-02-23T09:59:32.000Z</time>
      </trkpt>
      <trkpt lat="43.7975" lon="7.13446">
        <ele>1031.5999755859</ele>
        <time>2019-02-23T09:59:35.000Z</time>
      </trkpt>
      <trkpt lat="43.79748" lon="7.13453">
        <ele>1031.5999755859</ele>
        <time>2019-02-23T09:59:39.000Z</time>
      </trkpt>
      <trkpt lat="43.79743" lon="7.1346">
        <ele>1031.8000488281</ele>
        <time>2019-02-23T09:59:43.000Z</time>
      </trkpt>
      <trkpt lat="43.79743" lon="7.13462">
        <ele>1031.5999755859</ele>
        <time>2019-02-23T09:59:44.000Z</time>
      </trkpt>
      <trkpt lat="43.79745" lon="7.13468">
        <ele>1031.5999755859</ele>
        <time>2019-02-23T09:59:48.000Z</time>
      </trkpt>
      <trkpt lat="43.79748" lon="7.1347">
        <ele>1031.5999755859</ele>
        <time>2019-02-23T09:59:50.000Z</time>
      </trkpt>
      <trkpt lat="43.79755" lon="7.13478">
        <ele>1031.4000244141</ele>
        <time>2019-02-23T09:59:55.000Z</time>
      </trkpt>
      <trkpt lat="43.79762" lon="7.13489">
        <ele>1031</ele>
        <time>2019-02-23T09:59:59.000Z</time>
      </trkpt>
      <trkpt lat="43.79765" lon="7.13491">
        <ele>1030.5999755859</ele>
        <time>2019-02-23T10:00:00.000Z</time>
      </trkpt>
      <trkpt lat="43.79768" lon="7.13498">
        <ele>1030.1999511719</ele>
        <time>2019-02-23T10:00:02.000Z</time>
      </trkpt>
      <trkpt lat="43.79769" lon="7.13502">
        <ele>1029.8000488281</ele>
        <time>2019-02-23T10:00:03.000Z</time>
      </trkpt>
      <trkpt lat="43.79767" lon="7.13512">
        <ele>1029</ele>
        <time>2019-02-23T10:00:05.000Z</time>
      </trkpt>
      <trkpt lat="43.79766" lon="7.13518">
        <ele>1028.5999755859</ele>
        <time>2019-02-23T10:00:06.000Z</time>
      </trkpt>
      <trkpt lat="43.79764" lon="7.13532">
        <ele>1027.5999755859</ele>
        <time>2019-02-23T10:00:08.000Z</time>
      </trkpt>
      <trkpt lat="43.79766" lon="7.13539">
        <ele>1026</ele>
        <time>2019-02-23T10:00:10.000Z</time>
      </trkpt>
      <trkpt lat="43.79771" lon="7.13544">
        <ele>1024.5999755859</ele>
        <time>2019-02-23T10:00:12.000Z</time>
      </trkpt>
      <trkpt lat="43.79776" lon="7.13549">
        <ele>1024</ele>
        <time>2019-02-23T10:00:15.000Z</time>
      </trkpt>
      <trkpt lat="43.79776" lon="7.1355">
        <ele>1024.1999511719</ele>
        <time>2019-02-23T10:00:18.000Z</time>
      </trkpt>
      <trkpt lat="43.7978" lon="7.13557">
        <ele>1024.1999511719</ele>
        <time>2019-02-23T10:00:26.000Z</time>
      </trkpt>
      <trkpt lat="43.79792" lon="7.13564">
        <ele>1023.4000244141</ele>
        <time>2019-02-23T10:00:30.000Z</time>
      </trkpt>
      <trkpt lat="43.79799" lon="7.1357">
        <ele>1022.4000244141</ele>
        <time>2019-02-23T10:00:32.000Z</time>
      </trkpt>
      <trkpt lat="43.79802" lon="7.13572">
        <ele>1021.5999755859</ele>
        <time>2019-02-23T10:00:33.000Z</time>
      </trkpt>
      <trkpt lat="43.79804" lon="7.13577">
        <ele>1020.799987793</ele>
        <time>2019-02-23T10:00:35.000Z</time>
      </trkpt>
      <trkpt lat="43.79805" lon="7.13579">
        <ele>1020</ele>
        <time>2019-02-23T10:00:36.000Z</time>
      </trkpt>
      <trkpt lat="43.79809" lon="7.13583">
        <ele>1019.200012207</ele>
        <time>2019-02-23T10:00:38.000Z</time>
      </trkpt>
      <trkpt lat="43.79811" lon="7.13586">
        <ele>1018.5999755859</ele>
        <time>2019-02-23T10:00:39.000Z</time>
      </trkpt>
      <trkpt lat="43.79814" lon="7.13589">
        <ele>1017.5999755859</ele>
        <time>2019-02-23T10:00:40.000Z</time>
      </trkpt>
      <trkpt lat="43.79819" lon="7.13593">
        <ele>1016.200012207</ele>
        <time>2019-02-23T10:00:42.000Z</time>
      </trkpt>
      <trkpt lat="43.7982" lon="7.13596">
        <ele>1015.5999755859</ele>
        <time>2019-02-23T10:00:43.000Z</time>
      </trkpt>
      <trkpt lat="43.7982" lon="7.1361">
        <ele>1015.4000244141</ele>
        <time>2019-02-23T10:00:46.000Z</time>
      </trkpt>
      <trkpt lat="43.7982" lon="7.1362">
        <ele>1015</ele>
        <time>2019-02-23T10:00:48.000Z</time>
      </trkpt>
      <trkpt lat="43.79819" lon="7.13643">
        <ele>1014.200012207</ele>
        <time>2019-02-23T10:00:54.000Z</time>
      </trkpt>
      <trkpt lat="43.7982" lon="7.1366">
        <ele>1014.200012207</ele>
        <time>2019-02-23T10:00:58.000Z</time>
      </trkpt>
      <trkpt lat="43.79819" lon="7.13673">
        <ele>1013.5999755859</ele>
        <time>2019-02-23T10:01:00.000Z</time>
      </trkpt>
      <trkpt lat="43.79818" lon="7.13679">
        <ele>1012.5999755859</ele>
        <time>2019-02-23T10:01:02.000Z</time>
      </trkpt>
      <trkpt lat="43.7982" lon="7.13682">
        <ele>1012.5999755859</ele>
        <time>2019-02-23T10:01:03.000Z</time>
      </trkpt>
      <trkpt lat="43.79824" lon="7.13695">
        <ele>1011.4000244141</ele>
        <time>2019-02-23T10:01:06.000Z</time>
      </trkpt>
      <trkpt lat="43.79826" lon="7.13699">
        <ele>1011.4000244141</ele>
        <time>2019-02-23T10:01:07.000Z</time>
      </trkpt>
      <trkpt lat="43.79829" lon="7.13706">
        <ele>1010.5999755859</ele>
        <time>2019-02-23T10:01:09.000Z</time>
      </trkpt>
      <trkpt lat="43.7983" lon="7.13709">
        <ele>1010.4000244141</ele>
        <time>2019-02-23T10:01:10.000Z</time>
      </trkpt>
      <trkpt lat="43.79838" lon="7.13719">
        <ele>1009</ele>
        <time>2019-02-23T10:01:14.000Z</time>
      </trkpt>
      <trkpt lat="43.79839" lon="7.1372">
        <ele>1008</ele>
        <time>2019-02-23T10:01:16.000Z</time>
      </trkpt>
      <trkpt lat="43.7984" lon="7.13721">
        <ele>1007.200012207</ele>
        <time>2019-02-23T10:01:19.000Z</time>
      </trkpt>
      <trkpt lat="43.79841" lon="7.13722">
        <ele>1007</ele>
        <time>2019-02-23T10:01:20.000Z</time>
      </trkpt>
      <trkpt lat="43.79842" lon="7.13723">
        <ele>1006.5999755859</ele>
        <time>2019-02-23T10:01:24.000Z</time>
      </trkpt>
      <trkpt lat="43.79843" lon="7.13725">
        <ele>1006.4000244141</ele>
        <time>2019-02-23T10:01:26.000Z</time>
      </trkpt>
      <trkpt lat="43.79847" lon="7.1373">
        <ele>1006.200012207</ele>
        <time>2019-02-23T10:01:29.000Z</time>
      </trkpt>
      <trkpt lat="43.7985" lon="7.13735">
        <ele>1005.799987793</ele>
        <time>2019-02-23T10:01:31.000Z</time>
      </trkpt>
      <trkpt lat="43.79857" lon="7.13744">
        <ele>1005</ele>
        <time>2019-02-23T10:01:34.000Z</time>
      </trkpt>
      <trkpt lat="43.79859" lon="7.1375">
        <ele>1004.5999755859</ele>
        <time>2019-02-23T10:01:35.000Z</time>
      </trkpt>
      <trkpt lat="43.79865" lon="7.13767">
        <ele>1003</ele>
        <time>2019-02-23T10:01:38.000Z</time>
      </trkpt>
      <trkpt lat="43.79869" lon="7.13781">
        <ele>1002</ele>
        <time>2019-02-23T10:01:41.000Z</time>
      </trkpt>
      <trkpt lat="43.79868" lon="7.13789">
        <ele>1001.799987793</ele>
        <time>2019-02-23T10:01:43.000Z</time>
      </trkpt>
      <trkpt lat="43.79862" lon="7.13807">
        <ele>1001.5999755859</ele>
        <time>2019-02-23T10:01:47.000Z</time>
      </trkpt>
      <trkpt lat="43.79856" lon="7.1383">
        <ele>1000.799987793</ele>
        <time>2019-02-23T10:01:52.000Z</time>
      </trkpt>
      <trkpt lat="43.7985" lon="7.13846">
        <ele>999.79998779297</ele>
        <time>2019-02-23T10:01:56.000Z</time>
      </trkpt>
      <trkpt lat="43.79848" lon="7.1385">
        <ele>999.40002441406</ele>
        <time>2019-02-23T10:01:57.000Z</time>
      </trkpt>
      <trkpt lat="43.79843" lon="7.13865">
        <ele>997.59997558594</ele>
        <time>2019-02-23T10:02:00.000Z</time>
      </trkpt>
      <trkpt lat="43.79842" lon="7.1387">
        <ele>996.79998779297</ele>
        <time>2019-02-23T10:02:01.000Z</time>
      </trkpt>
      <trkpt lat="43.79841" lon="7.13876">
        <ele>996.20001220703</ele>
        <time>2019-02-23T10:02:02.000Z</time>
      </trkpt>
      <trkpt lat="43.7984" lon="7.13893">
        <ele>994.79998779297</ele>
        <time>2019-02-23T10:02:05.000Z</time>
      </trkpt>
      <trkpt lat="43.7984" lon="7.13898">
        <ele>995</ele>
        <time>2019-02-23T10:02:06.000Z</time>
      </trkpt>
      <trkpt lat="43.79839" lon="7.13905">
        <ele>994.59997558594</ele>
        <time>2019-02-23T10:02:07.000Z</time>
      </trkpt>
      <trkpt lat="43.79839" lon="7.13916">
        <ele>993.79998779297</ele>
        <time>2019-02-23T10:02:10.000Z</time>
      </trkpt>
      <trkpt lat="43.79838" lon="7.1392">
        <ele>993.59997558594</ele>
        <time>2019-02-23T10:02:11.000Z</time>
      </trkpt>
      <trkpt lat="43.79835" lon="7.13928">
        <ele>992.79998779297</ele>
        <time>2019-02-23T10:02:14.000Z</time>
      </trkpt>
      <trkpt lat="43.79834" lon="7.13935">
        <ele>992</ele>
        <time>2019-02-23T10:02:16.000Z</time>
      </trkpt>
      <trkpt lat="43.79833" lon="7.13939">
        <ele>991.20001220703</ele>
        <time>2019-02-23T10:02:17.000Z</time>
      </trkpt>
      <trkpt lat="43.79832" lon="7.13943">
        <ele>990.59997558594</ele>
        <time>2019-02-23T10:02:18.000Z</time>
      </trkpt>
      <trkpt lat="43.7983" lon="7.13952">
        <ele>990.20001220703</ele>
        <time>2019-02-23T10:02:20.000Z</time>
      </trkpt>
      <trkpt lat="43.79827" lon="7.13961">
        <ele>989</ele>
        <time>2019-02-23T10:02:22.000Z</time>
      </trkpt>
      <trkpt lat="43.79821" lon="7.13972">
        <ele>987.20001220703</ele>
        <time>2019-02-23T10:02:25.000Z</time>
      </trkpt>
      <trkpt lat="43.79817" lon="7.1398">
        <ele>987</ele>
        <time>2019-02-23T10:02:27.000Z</time>
      </trkpt>
      <trkpt lat="43.79812" lon="7.14001">
        <ele>986.20001220703</ele>
        <time>2019-02-23T10:02:32.000Z</time>
      </trkpt>
      <trkpt lat="43.7981" lon="7.14006">
        <ele>985.59997558594</ele>
        <time>2019-02-23T10:02:33.000Z</time>
      </trkpt>
      <trkpt lat="43.79806" lon="7.14018">
        <ele>984</ele>
        <time>2019-02-23T10:02:36.000Z</time>
      </trkpt>
      <trkpt lat="43.79803" lon="7.14026">
        <ele>982.79998779297</ele>
        <time>2019-02-23T10:02:38.000Z</time>
      </trkpt>
      <trkpt lat="43.79799" lon="7.14033">
        <ele>981.59997558594</ele>
        <time>2019-02-23T10:02:42.000Z</time>
      </trkpt>
      <trkpt lat="43.79797" lon="7.14035">
        <ele>980.79998779297</ele>
        <time>2019-02-23T10:02:48.000Z</time>
      </trkpt>
      <trkpt lat="43.79796" lon="7.14035">
        <ele>980.59997558594</ele>
        <time>2019-02-23T10:02:49.000Z</time>
      </trkpt>
      <trkpt lat="43.79794" lon="7.14037">
        <ele>980</ele>
        <time>2019-02-23T10:02:52.000Z</time>
      </trkpt>
      <trkpt lat="43.79793" lon="7.1404">
        <ele>979.59997558594</ele>
        <time>2019-02-23T10:02:54.000Z</time>
      </trkpt>
      <trkpt lat="43.79793" lon="7.1404">
        <ele>979.59997558594</ele>
        <time>2019-02-23T10:02:55.000Z</time>
      </trkpt>
      <trkpt lat="43.79792" lon="7.14041">
        <ele>979.59997558594</ele>
        <time>2019-02-23T10:02:59.000Z</time>
      </trkpt>
      <trkpt lat="43.79792" lon="7.14042">
        <ele>979.59997558594</ele>
        <time>2019-02-23T10:03:06.000Z</time>
      </trkpt>
      <trkpt lat="43.79792" lon="7.14043">
        <ele>979.59997558594</ele>
        <time>2019-02-23T10:03:16.000Z</time>
      </trkpt>
      <trkpt lat="43.79791" lon="7.14043">
        <ele>979.40002441406</ele>
        <time>2019-02-23T10:03:23.000Z</time>
      </trkpt>
      <trkpt lat="43.79791" lon="7.14048">
        <ele>979.40002441406</ele>
        <time>2019-02-23T10:03:32.000Z</time>
      </trkpt>
      <trkpt lat="43.79791" lon="7.14051">
        <ele>978.79998779297</ele>
        <time>2019-02-23T10:03:37.000Z</time>
      </trkpt>
      <trkpt lat="43.79791" lon="7.14051">
        <ele>978.59997558594</ele>
        <time>2019-02-23T10:03:40.000Z</time>
      </trkpt>
      <trkpt lat="43.79791" lon="7.14059">
        <ele>978.59997558594</ele>
        <time>2019-02-23T10:03:44.000Z</time>
      </trkpt>
      <trkpt lat="43.7979" lon="7.14081">
        <ele>977.40002441406</ele>
        <time>2019-02-23T10:03:49.000Z</time>
      </trkpt>
      <trkpt lat="43.7979" lon="7.14083">
        <ele>977</ele>
        <time>2019-02-23T10:03:50.000Z</time>
      </trkpt>
      <trkpt lat="43.79789" lon="7.14083">
        <ele>976.40002441406</ele>
        <time>2019-02-23T10:03:52.000Z</time>
      </trkpt>
      <trkpt lat="43.79789" lon="7.14085">
        <ele>976.20001220703</ele>
        <time>2019-02-23T10:03:53.000Z</time>
      </trkpt>
      <trkpt lat="43.79788" lon="7.14088">
        <ele>975.59997558594</ele>
        <time>2019-02-23T10:03:59.000Z</time>
      </trkpt>
      <trkpt lat="43.79787" lon="7.14093">
        <ele>975.20001220703</ele>
        <time>2019-02-23T10:04:02.000Z</time>
      </trkpt>
      <trkpt lat="43.79788" lon="7.14103">
        <ele>974.79998779297</ele>
        <time>2019-02-23T10:04:05.000Z</time>
      </trkpt>
      <trkpt lat="43.79788" lon="7.14119">
        <ele>973.79998779297</ele>
        <time>2019-02-23T10:04:08.000Z</time>
      </trkpt>
      <trkpt lat="43.79789" lon="7.14124">
        <ele>973.40002441406</ele>
        <time>2019-02-23T10:04:09.000Z</time>
      </trkpt>
      <trkpt lat="43.7979" lon="7.14131">
        <ele>972.79998779297</ele>
        <time>2019-02-23T10:04:11.000Z</time>
      </trkpt>
      <trkpt lat="43.79791" lon="7.14133">
        <ele>972.59997558594</ele>
        <time>2019-02-23T10:04:12.000Z</time>
      </trkpt>
      <trkpt lat="43.79791" lon="7.1414">
        <ele>971.59997558594</ele>
        <time>2019-02-23T10:04:15.000Z</time>
      </trkpt>
      <trkpt lat="43.79791" lon="7.1414">
        <ele>971</ele>
        <time>2019-02-23T10:04:17.000Z</time>
      </trkpt>
      <trkpt lat="43.79791" lon="7.14141">
        <ele>970.59997558594</ele>
        <time>2019-02-23T10:04:18.000Z</time>
      </trkpt>
      <trkpt lat="43.7979" lon="7.14142">
        <ele>970.40002441406</ele>
        <time>2019-02-23T10:04:19.000Z</time>
      </trkpt>
      <trkpt lat="43.79788" lon="7.14145">
        <ele>969.79998779297</ele>
        <time>2019-02-23T10:04:22.000Z</time>
      </trkpt>
      <trkpt lat="43.79787" lon="7.14145">
        <ele>969.59997558594</ele>
        <time>2019-02-23T10:04:25.000Z</time>
      </trkpt>
      <trkpt lat="43.79787" lon="7.14146">
        <ele>969.40002441406</ele>
        <time>2019-02-23T10:04:28.000Z</time>
      </trkpt>
      <trkpt lat="43.79787" lon="7.14147">
        <ele>969.20001220703</ele>
        <time>2019-02-23T10:04:34.000Z</time>
      </trkpt>
      <trkpt lat="43.79786" lon="7.14149">
        <ele>968.79998779297</ele>
        <time>2019-02-23T10:04:40.000Z</time>
      </trkpt>
      <trkpt lat="43.79785" lon="7.1415">
        <ele>968.79998779297</ele>
        <time>2019-02-23T10:04:41.000Z</time>
      </trkpt>
      <trkpt lat="43.79782" lon="7.14153">
        <ele>968.59997558594</ele>
        <time>2019-02-23T10:04:46.000Z</time>
      </trkpt>
      <trkpt lat="43.79779" lon="7.14156">
        <ele>968.40002441406</ele>
        <time>2019-02-23T10:04:51.000Z</time>
      </trkpt>
      <trkpt lat="43.79778" lon="7.14157">
        <ele>968.40002441406</ele>
        <time>2019-02-23T10:04:52.000Z</time>
      </trkpt>
      <trkpt lat="43.79777" lon="7.14161">
        <ele>967.79998779297</ele>
        <time>2019-02-23T10:04:57.000Z</time>
      </trkpt>
      <trkpt lat="43.79774" lon="7.14166">
        <ele>967.40002441406</ele>
        <time>2019-02-23T10:05:01.000Z</time>
      </trkpt>
      <trkpt lat="43.79767" lon="7.14181">
        <ele>965.59997558594</ele>
        <time>2019-02-23T10:05:08.000Z</time>
      </trkpt>
      <trkpt lat="43.79765" lon="7.1419">
        <ele>965</ele>
        <time>2019-02-23T10:05:11.000Z</time>
      </trkpt>
      <trkpt lat="43.79765" lon="7.14189">
        <ele>964.79998779297</ele>
        <time>2019-02-23T10:05:12.000Z</time>
      </trkpt>
      <trkpt lat="43.79763" lon="7.14192">
        <ele>964.59997558594</ele>
        <time>2019-02-23T10:05:16.000Z</time>
      </trkpt>
      <trkpt lat="43.79762" lon="7.14195">
        <ele>964.40002441406</ele>
        <time>2019-02-23T10:05:18.000Z</time>
      </trkpt>
      <trkpt lat="43.79759" lon="7.14207">
        <ele>963.40002441406</ele>
        <time>2019-02-23T10:05:23.000Z</time>
      </trkpt>
      <trkpt lat="43.79759" lon="7.14209">
        <ele>963.40002441406</ele>
        <time>2019-02-23T10:05:24.000Z</time>
      </trkpt>
      <trkpt lat="43.79759" lon="7.14214">
        <ele>963.20001220703</ele>
        <time>2019-02-23T10:05:26.000Z</time>
      </trkpt>
      <trkpt lat="43.79758" lon="7.14215">
        <ele>962.59997558594</ele>
        <time>2019-02-23T10:05:29.000Z</time>
      </trkpt>
      <trkpt lat="43.79757" lon="7.14217">
        <ele>962.40002441406</ele>
        <time>2019-02-23T10:05:31.000Z</time>
      </trkpt>
      <trkpt lat="43.79758" lon="7.14223">
        <ele>962.20001220703</ele>
        <time>2019-02-23T10:05:35.000Z</time>
      </trkpt>
      <trkpt lat="43.79761" lon="7.14235">
        <ele>961.59997558594</ele>
        <time>2019-02-23T10:05:39.000Z</time>
      </trkpt>
      <trkpt lat="43.79762" lon="7.14237">
        <ele>961.20001220703</ele>
        <time>2019-02-23T10:05:40.000Z</time>
      </trkpt>
      <trkpt lat="43.79763" lon="7.14238">
        <ele>960.79998779297</ele>
        <time>2019-02-23T10:05:41.000Z</time>
      </trkpt>
      <trkpt lat="43.79766" lon="7.14241">
        <ele>960.20001220703</ele>
        <time>2019-02-23T10:05:43.000Z</time>
      </trkpt>
      <trkpt lat="43.79768" lon="7.14243">
        <ele>960</ele>
        <time>2019-02-23T10:05:44.000Z</time>
      </trkpt>
      <trkpt lat="43.79768" lon="7.14245">
        <ele>959.79998779297</ele>
        <time>2019-02-23T10:05:45.000Z</time>
      </trkpt>
      <trkpt lat="43.79769" lon="7.14248">
        <ele>959.40002441406</ele>
        <time>2019-02-23T10:05:47.000Z</time>
      </trkpt>
      <trkpt lat="43.79772" lon="7.1425">
        <ele>959.40002441406</ele>
        <time>2019-02-23T10:05:49.000Z</time>
      </trkpt>
      <trkpt lat="43.79776" lon="7.14255">
        <ele>958.79998779297</ele>
        <time>2019-02-23T10:05:52.000Z</time>
      </trkpt>
      <trkpt lat="43.79777" lon="7.14258">
        <ele>958.20001220703</ele>
        <time>2019-02-23T10:05:56.000Z</time>
      </trkpt>
      <trkpt lat="43.79778" lon="7.1426">
        <ele>957.79998779297</ele>
        <time>2019-02-23T10:06:00.000Z</time>
      </trkpt>
      <trkpt lat="43.79779" lon="7.1426">
        <ele>957.79998779297</ele>
        <time>2019-02-23T10:06:01.000Z</time>
      </trkpt>
      <trkpt lat="43.79784" lon="7.14268">
        <ele>957.59997558594</ele>
        <time>2019-02-23T10:06:07.000Z</time>
      </trkpt>
      <trkpt lat="43.79795" lon="7.14278">
        <ele>956.79998779297</ele>
        <time>2019-02-23T10:06:13.000Z</time>
      </trkpt>
      <trkpt lat="43.79802" lon="7.14286">
        <ele>955.40002441406</ele>
        <time>2019-02-23T10:06:16.000Z</time>
      </trkpt>
      <trkpt lat="43.79807" lon="7.14289">
        <ele>954.20001220703</ele>
        <time>2019-02-23T10:06:19.000Z</time>
      </trkpt>
      <trkpt lat="43.79808" lon="7.1429">
        <ele>954.59997558594</ele>
        <time>2019-02-23T10:06:23.000Z</time>
      </trkpt>
      <trkpt lat="43.79807" lon="7.1429">
        <ele>955.20001220703</ele>
        <time>2019-02-23T10:06:37.000Z</time>
      </trkpt>
      <trkpt lat="43.79807" lon="7.1429">
        <ele>955</ele>
        <time>2019-02-23T10:06:52.000Z</time>
      </trkpt>
      <trkpt lat="43.79811" lon="7.14292">
        <ele>954.79998779297</ele>
        <time>2019-02-23T10:06:58.000Z</time>
      </trkpt>
      <trkpt lat="43.79815" lon="7.14297">
        <ele>955</ele>
        <time>2019-02-23T10:07:01.000Z</time>
      </trkpt>
      <trkpt lat="43.79817" lon="7.14302">
        <ele>955</ele>
        <time>2019-02-23T10:07:03.000Z</time>
      </trkpt>
      <trkpt lat="43.79821" lon="7.14308">
        <ele>954.40002441406</ele>
        <time>2019-02-23T10:07:05.000Z</time>
      </trkpt>
      <trkpt lat="43.79825" lon="7.14312">
        <ele>953.40002441406</ele>
        <time>2019-02-23T10:07:07.000Z</time>
      </trkpt>
      <trkpt lat="43.79828" lon="7.14313">
        <ele>953</ele>
        <time>2019-02-23T10:07:08.000Z</time>
      </trkpt>
      <trkpt lat="43.79838" lon="7.14318">
        <ele>952.59997558594</ele>
        <time>2019-02-23T10:07:12.000Z</time>
      </trkpt>
      <trkpt lat="43.7984" lon="7.14321">
        <ele>952</ele>
        <time>2019-02-23T10:07:13.000Z</time>
      </trkpt>
      <trkpt lat="43.79842" lon="7.14324">
        <ele>951.59997558594</ele>
        <time>2019-02-23T10:07:14.000Z</time>
      </trkpt>
      <trkpt lat="43.79852" lon="7.14329">
        <ele>950.20001220703</ele>
        <time>2019-02-23T10:07:17.000Z</time>
      </trkpt>
      <trkpt lat="43.79857" lon="7.14337">
        <ele>949</ele>
        <time>2019-02-23T10:07:19.000Z</time>
      </trkpt>
      <trkpt lat="43.79859" lon="7.14342">
        <ele>948.40002441406</ele>
        <time>2019-02-23T10:07:20.000Z</time>
      </trkpt>
      <trkpt lat="43.79861" lon="7.14347">
        <ele>948</ele>
        <time>2019-02-23T10:07:21.000Z</time>
      </trkpt>
      <trkpt lat="43.79866" lon="7.14354">
        <ele>947.40002441406</ele>
        <time>2019-02-23T10:07:23.000Z</time>
      </trkpt>
      <trkpt lat="43.79871" lon="7.14363">
        <ele>947</ele>
        <time>2019-02-23T10:07:25.000Z</time>
      </trkpt>
      <trkpt lat="43.79877" lon="7.14373">
        <ele>946.79998779297</ele>
        <time>2019-02-23T10:07:27.000Z</time>
      </trkpt>
      <trkpt lat="43.79883" lon="7.14383">
        <ele>946.79998779297</ele>
        <time>2019-02-23T10:07:29.000Z</time>
      </trkpt>
      <trkpt lat="43.79892" lon="7.14392">
        <ele>946.20001220703</ele>
        <time>2019-02-23T10:07:31.000Z</time>
      </trkpt>
      <trkpt lat="43.79896" lon="7.14396">
        <ele>945.79998779297</ele>
        <time>2019-02-23T10:07:32.000Z</time>
      </trkpt>
      <trkpt lat="43.799" lon="7.144">
        <ele>945.40002441406</ele>
        <time>2019-02-23T10:07:33.000Z</time>
      </trkpt>
      <trkpt lat="43.79903" lon="7.14403">
        <ele>945</ele>
        <time>2019-02-23T10:07:34.000Z</time>
      </trkpt>
      <trkpt lat="43.79906" lon="7.14406">
        <ele>944.59997558594</ele>
        <time>2019-02-23T10:07:35.000Z</time>
      </trkpt>
      <trkpt lat="43.79914" lon="7.14413">
        <ele>944.59997558594</ele>
        <time>2019-02-23T10:07:38.000Z</time>
      </trkpt>
      <trkpt lat="43.79924" lon="7.14421">
        <ele>945.59997558594</ele>
        <time>2019-02-23T10:07:43.000Z</time>
      </trkpt>
      <trkpt lat="43.79926" lon="7.14423">
        <ele>945.79998779297</ele>
        <time>2019-02-23T10:07:44.000Z</time>
      </trkpt>
      <trkpt lat="43.79939" lon="7.14429">
        <ele>945.79998779297</ele>
        <time>2019-02-23T10:07:49.000Z</time>
      </trkpt>
      <trkpt lat="43.79955" lon="7.14434">
        <ele>945.20001220703</ele>
        <time>2019-02-23T10:07:55.000Z</time>
      </trkpt>
      <trkpt lat="43.79966" lon="7.1443">
        <ele>946.20001220703</ele>
        <time>2019-02-23T10:08:00.000Z</time>
      </trkpt>
      <trkpt lat="43.79984" lon="7.14428">
        <ele>945.59997558594</ele>
        <time>2019-02-23T10:08:05.000Z</time>
      </trkpt>
      <trkpt lat="43.80014" lon="7.14425">
        <ele>945</ele>
        <time>2019-02-23T10:08:14.000Z</time>
      </trkpt>
      <trkpt lat="43.80017" lon="7.14425">
        <ele>944.79998779297</ele>
        <time>2019-02-23T10:08:15.000Z</time>
      </trkpt>
      <trkpt lat="43.80027" lon="7.14425">
        <ele>945.20001220703</ele>
        <time>2019-02-23T10:08:19.000Z</time>
      </trkpt>
      <trkpt lat="43.80036" lon="7.14436">
        <ele>945.40002441406</ele>
        <time>2019-02-23T10:08:23.000Z</time>
      </trkpt>
      <trkpt lat="43.80047" lon="7.1445">
        <ele>945.40002441406</ele>
        <time>2019-02-23T10:08:27.000Z</time>
      </trkpt>
      <trkpt lat="43.80055" lon="7.14464">
        <ele>944.40002441406</ele>
        <time>2019-02-23T10:08:30.000Z</time>
      </trkpt>
      <trkpt lat="43.80059" lon="7.14476">
        <ele>944</ele>
        <time>2019-02-23T10:08:32.000Z</time>
      </trkpt>
      <trkpt lat="43.80062" lon="7.14482">
        <ele>943.59997558594</ele>
        <time>2019-02-23T10:08:33.000Z</time>
      </trkpt>
      <trkpt lat="43.80068" lon="7.14493">
        <ele>942.79998779297</ele>
        <time>2019-02-23T10:08:35.000Z</time>
      </trkpt>
      <trkpt lat="43.8007" lon="7.14498">
        <ele>942.40002441406</ele>
        <time>2019-02-23T10:08:36.000Z</time>
      </trkpt>
      <trkpt lat="43.80071" lon="7.14503">
        <ele>941.79998779297</ele>
        <time>2019-02-23T10:08:37.000Z</time>
      </trkpt>
      <trkpt lat="43.80074" lon="7.14511">
        <ele>941.20001220703</ele>
        <time>2019-02-23T10:08:39.000Z</time>
      </trkpt>
      <trkpt lat="43.80078" lon="7.14519">
        <ele>940.59997558594</ele>
        <time>2019-02-23T10:08:41.000Z</time>
      </trkpt>
      <trkpt lat="43.80084" lon="7.14526">
        <ele>940</ele>
        <time>2019-02-23T10:08:43.000Z</time>
      </trkpt>
      <trkpt lat="43.8009" lon="7.14537">
        <ele>939.59997558594</ele>
        <time>2019-02-23T10:08:46.000Z</time>
      </trkpt>
      <trkpt lat="43.80095" lon="7.14545">
        <ele>938.59997558594</ele>
        <time>2019-02-23T10:08:48.000Z</time>
      </trkpt>
      <trkpt lat="43.80103" lon="7.14555">
        <ele>936.40002441406</ele>
        <time>2019-02-23T10:08:51.000Z</time>
      </trkpt>
      <trkpt lat="43.80108" lon="7.14562">
        <ele>935.20001220703</ele>
        <time>2019-02-23T10:08:53.000Z</time>
      </trkpt>
      <trkpt lat="43.80112" lon="7.14569">
        <ele>933.59997558594</ele>
        <time>2019-02-23T10:08:55.000Z</time>
      </trkpt>
      <trkpt lat="43.80116" lon="7.14577">
        <ele>931.79998779297</ele>
        <time>2019-02-23T10:08:57.000Z</time>
      </trkpt>
      <trkpt lat="43.80118" lon="7.14582">
        <ele>930.59997558594</ele>
        <time>2019-02-23T10:08:58.000Z</time>
      </trkpt>
      <trkpt lat="43.80119" lon="7.14585">
        <ele>930.20001220703</ele>
        <time>2019-02-23T10:08:59.000Z</time>
      </trkpt>
      <trkpt lat="43.8012" lon="7.14591">
        <ele>929.40002441406</ele>
        <time>2019-02-23T10:09:01.000Z</time>
      </trkpt>
      <trkpt lat="43.8012" lon="7.14593">
        <ele>928.40002441406</ele>
        <time>2019-02-23T10:09:04.000Z</time>
      </trkpt>
      <trkpt lat="43.80119" lon="7.14593">
        <ele>928</ele>
        <time>2019-02-23T10:09:21.000Z</time>
      </trkpt>
      <trkpt lat="43.80119" lon="7.14593">
        <ele>928.20001220703</ele>
        <time>2019-02-23T10:09:33.000Z</time>
      </trkpt>
      <trkpt lat="43.80119" lon="7.14594">
        <ele>928</ele>
        <time>2019-02-23T10:09:54.000Z</time>
      </trkpt>
      <trkpt lat="43.8012" lon="7.14593">
        <ele>928.40002441406</ele>
        <time>2019-02-23T10:10:09.000Z</time>
      </trkpt>
      <trkpt lat="43.8012" lon="7.14593">
        <ele>928.40002441406</ele>
        <time>2019-02-23T10:10:19.000Z</time>
      </trkpt>
      <trkpt lat="43.80119" lon="7.14593">
        <ele>927.79998779297</ele>
        <time>2019-02-23T10:10:33.000Z</time>
      </trkpt>
      <trkpt lat="43.8012" lon="7.14594">
        <ele>927.59997558594</ele>
        <time>2019-02-23T10:10:51.000Z</time>
      </trkpt>
      <trkpt lat="43.80123" lon="7.14603">
        <ele>927.59997558594</ele>
        <time>2019-02-23T10:10:55.000Z</time>
      </trkpt>
      <trkpt lat="43.80127" lon="7.14614">
        <ele>927.20001220703</ele>
        <time>2019-02-23T10:10:58.000Z</time>
      </trkpt>
      <trkpt lat="43.80128" lon="7.1462">
        <ele>926.79998779297</ele>
        <time>2019-02-23T10:10:59.000Z</time>
      </trkpt>
      <trkpt lat="43.80129" lon="7.14626">
        <ele>926</ele>
        <time>2019-02-23T10:11:00.000Z</time>
      </trkpt>
      <trkpt lat="43.8013" lon="7.14639">
        <ele>924.40002441406</ele>
        <time>2019-02-23T10:11:02.000Z</time>
      </trkpt>
      <trkpt lat="43.80132" lon="7.14646">
        <ele>923.40002441406</ele>
        <time>2019-02-23T10:11:03.000Z</time>
      </trkpt>
      <trkpt lat="43.80133" lon="7.14652">
        <ele>922.59997558594</ele>
        <time>2019-02-23T10:11:04.000Z</time>
      </trkpt>
      <trkpt lat="43.80135" lon="7.1466">
        <ele>922.20001220703</ele>
        <time>2019-02-23T10:11:05.000Z</time>
      </trkpt>
      <trkpt lat="43.80138" lon="7.14675">
        <ele>921</ele>
        <time>2019-02-23T10:11:07.000Z</time>
      </trkpt>
      <trkpt lat="43.80139" lon="7.14689">
        <ele>919.20001220703</ele>
        <time>2019-02-23T10:11:09.000Z</time>
      </trkpt>
      <trkpt lat="43.80139" lon="7.14695">
        <ele>918.40002441406</ele>
        <time>2019-02-23T10:11:10.000Z</time>
      </trkpt>
      <trkpt lat="43.8014" lon="7.14701">
        <ele>917.59997558594</ele>
        <time>2019-02-23T10:11:11.000Z</time>
      </trkpt>
      <trkpt lat="43.80142" lon="7.14713">
        <ele>916.20001220703</ele>
        <time>2019-02-23T10:11:13.000Z</time>
      </trkpt>
      <trkpt lat="43.80143" lon="7.14717">
        <ele>915.59997558594</ele>
        <time>2019-02-23T10:11:14.000Z</time>
      </trkpt>
      <trkpt lat="43.80146" lon="7.14726">
        <ele>914.79998779297</ele>
        <time>2019-02-23T10:11:16.000Z</time>
      </trkpt>
      <trkpt lat="43.80146" lon="7.14732">
        <ele>914.40002441406</ele>
        <time>2019-02-23T10:11:17.000Z</time>
      </trkpt>
      <trkpt lat="43.80147" lon="7.14739">
        <ele>914.40002441406</ele>
        <time>2019-02-23T10:11:18.000Z</time>
      </trkpt>
      <trkpt lat="43.80149" lon="7.14755">
        <ele>913</ele>
        <time>2019-02-23T10:11:20.000Z</time>
      </trkpt>
      <trkpt lat="43.80151" lon="7.1477">
        <ele>911.20001220703</ele>
        <time>2019-02-23T10:11:22.000Z</time>
      </trkpt>
      <trkpt lat="43.80153" lon="7.14777">
        <ele>909.59997558594</ele>
        <time>2019-02-23T10:11:23.000Z</time>
      </trkpt>
      <trkpt lat="43.80154" lon="7.14783">
        <ele>908.40002441406</ele>
        <time>2019-02-23T10:11:24.000Z</time>
      </trkpt>
      <trkpt lat="43.80157" lon="7.14797">
        <ele>906.20001220703</ele>
        <time>2019-02-23T10:11:26.000Z</time>
      </trkpt>
      <trkpt lat="43.80158" lon="7.14802">
        <ele>905.20001220703</ele>
        <time>2019-02-23T10:11:27.000Z</time>
      </trkpt>
      <trkpt lat="43.80161" lon="7.14812">
        <ele>904</ele>
        <time>2019-02-23T10:11:29.000Z</time>
      </trkpt>
      <trkpt lat="43.80162" lon="7.14818">
        <ele>903.40002441406</ele>
        <time>2019-02-23T10:11:30.000Z</time>
      </trkpt>
      <trkpt lat="43.80163" lon="7.14823">
        <ele>902.79998779297</ele>
        <time>2019-02-23T10:11:31.000Z</time>
      </trkpt>
      <trkpt lat="43.80166" lon="7.14834">
        <ele>901.59997558594</ele>
        <time>2019-02-23T10:11:33.000Z</time>
      </trkpt>
      <trkpt lat="43.80171" lon="7.14857">
        <ele>899.79998779297</ele>
        <time>2019-02-23T10:11:36.000Z</time>
      </trkpt>
      <trkpt lat="43.80175" lon="7.14874">
        <ele>897.59997558594</ele>
        <time>2019-02-23T10:11:38.000Z</time>
      </trkpt>
      <trkpt lat="43.80176" lon="7.14882">
        <ele>896.20001220703</ele>
        <time>2019-02-23T10:11:39.000Z</time>
      </trkpt>
      <trkpt lat="43.80178" lon="7.14897">
        <ele>894.59997558594</ele>
        <time>2019-02-23T10:11:41.000Z</time>
      </trkpt>
      <trkpt lat="43.80183" lon="7.1491">
        <ele>893.40002441406</ele>
        <time>2019-02-23T10:11:43.000Z</time>
      </trkpt>
      <trkpt lat="43.80187" lon="7.14925">
        <ele>892.59997558594</ele>
        <time>2019-02-23T10:11:45.000Z</time>
      </trkpt>
      <trkpt lat="43.80189" lon="7.14931">
        <ele>892.20001220703</ele>
        <time>2019-02-23T10:11:46.000Z</time>
      </trkpt>
      <trkpt lat="43.80191" lon="7.14937">
        <ele>891.40002441406</ele>
        <time>2019-02-23T10:11:47.000Z</time>
      </trkpt>
      <trkpt lat="43.80195" lon="7.14947">
        <ele>890.79998779297</ele>
        <time>2019-02-23T10:11:49.000Z</time>
      </trkpt>
      <trkpt lat="43.80197" lon="7.14951">
        <ele>889.79998779297</ele>
        <time>2019-02-23T10:11:51.000Z</time>
      </trkpt>
      <trkpt lat="43.80198" lon="7.14949">
        <ele>889.40002441406</ele>
        <time>2019-02-23T10:11:52.000Z</time>
      </trkpt>
      <trkpt lat="43.802" lon="7.14943">
        <ele>888.20001220703</ele>
        <time>2019-02-23T10:11:54.000Z</time>
      </trkpt>
      <trkpt lat="43.80199" lon="7.14943">
        <ele>887.20001220703</ele>
        <time>2019-02-23T10:11:56.000Z</time>
      </trkpt>
      <trkpt lat="43.80199" lon="7.14942">
        <ele>887</ele>
        <time>2019-02-23T10:11:57.000Z</time>
      </trkpt>
      <trkpt lat="43.802" lon="7.14941">
        <ele>886.40002441406</ele>
        <time>2019-02-23T10:12:04.000Z</time>
      </trkpt>
      <trkpt lat="43.80201" lon="7.14937">
        <ele>886.40002441406</ele>
        <time>2019-02-23T10:12:08.000Z</time>
      </trkpt>
      <trkpt lat="43.80206" lon="7.14919">
        <ele>886</ele>
        <time>2019-02-23T10:12:12.000Z</time>
      </trkpt>
      <trkpt lat="43.80209" lon="7.14908">
        <ele>884.79998779297</ele>
        <time>2019-02-23T10:12:14.000Z</time>
      </trkpt>
      <trkpt lat="43.80212" lon="7.14902">
        <ele>884</ele>
        <time>2019-02-23T10:12:15.000Z</time>
      </trkpt>
      <trkpt lat="43.80213" lon="7.14897">
        <ele>883</ele>
        <time>2019-02-23T10:12:16.000Z</time>
      </trkpt>
      <trkpt lat="43.80215" lon="7.14891">
        <ele>881.79998779297</ele>
        <time>2019-02-23T10:12:17.000Z</time>
      </trkpt>
      <trkpt lat="43.80217" lon="7.14885">
        <ele>880.79998779297</ele>
        <time>2019-02-23T10:12:18.000Z</time>
      </trkpt>
      <trkpt lat="43.80221" lon="7.14871">
        <ele>879.20001220703</ele>
        <time>2019-02-23T10:12:20.000Z</time>
      </trkpt>
      <trkpt lat="43.80223" lon="7.14865">
        <ele>878.79998779297</ele>
        <time>2019-02-23T10:12:21.000Z</time>
      </trkpt>
      <trkpt lat="43.80225" lon="7.1486">
        <ele>878.59997558594</ele>
        <time>2019-02-23T10:12:22.000Z</time>
      </trkpt>
      <trkpt lat="43.80226" lon="7.14853">
        <ele>878.20001220703</ele>
        <time>2019-02-23T10:12:23.000Z</time>
      </trkpt>
      <trkpt lat="43.80229" lon="7.14837">
        <ele>876.59997558594</ele>
        <time>2019-02-23T10:12:25.000Z</time>
      </trkpt>
      <trkpt lat="43.80232" lon="7.14821">
        <ele>875.20001220703</ele>
        <time>2019-02-23T10:12:27.000Z</time>
      </trkpt>
      <trkpt lat="43.80233" lon="7.14814">
        <ele>874.40002441406</ele>
        <time>2019-02-23T10:12:28.000Z</time>
      </trkpt>
      <trkpt lat="43.80234" lon="7.14808">
        <ele>873.40002441406</ele>
        <time>2019-02-23T10:12:29.000Z</time>
      </trkpt>
      <trkpt lat="43.80241" lon="7.14792">
        <ele>872.20001220703</ele>
        <time>2019-02-23T10:12:32.000Z</time>
      </trkpt>
      <trkpt lat="43.80242" lon="7.14786">
        <ele>871.40002441406</ele>
        <time>2019-02-23T10:12:33.000Z</time>
      </trkpt>
      <trkpt lat="43.80244" lon="7.14782">
        <ele>871</ele>
        <time>2019-02-23T10:12:34.000Z</time>
      </trkpt>
      <trkpt lat="43.80246" lon="7.14777">
        <ele>870.59997558594</ele>
        <time>2019-02-23T10:12:35.000Z</time>
      </trkpt>
      <trkpt lat="43.80248" lon="7.14772">
        <ele>870.20001220703</ele>
        <time>2019-02-23T10:12:36.000Z</time>
      </trkpt>
      <trkpt lat="43.8025" lon="7.14766">
        <ele>869.40002441406</ele>
        <time>2019-02-23T10:12:37.000Z</time>
      </trkpt>
      <trkpt lat="43.80253" lon="7.14757">
        <ele>867.59997558594</ele>
        <time>2019-02-23T10:12:39.000Z</time>
      </trkpt>
      <trkpt lat="43.80255" lon="7.14752">
        <ele>867</ele>
        <time>2019-02-23T10:12:40.000Z</time>
      </trkpt>
      <trkpt lat="43.80258" lon="7.14746">
        <ele>866.59997558594</ele>
        <time>2019-02-23T10:12:41.000Z</time>
      </trkpt>
      <trkpt lat="43.80261" lon="7.14734">
        <ele>865</ele>
        <time>2019-02-23T10:12:43.000Z</time>
      </trkpt>
      <trkpt lat="43.80263" lon="7.1473">
        <ele>863.79998779297</ele>
        <time>2019-02-23T10:12:44.000Z</time>
      </trkpt>
      <trkpt lat="43.80265" lon="7.1473">
        <ele>863</ele>
        <time>2019-02-23T10:12:45.000Z</time>
      </trkpt>
      <trkpt lat="43.80267" lon="7.14731">
        <ele>862</ele>
        <time>2019-02-23T10:12:46.000Z</time>
      </trkpt>
      <trkpt lat="43.80268" lon="7.14739">
        <ele>861</ele>
        <time>2019-02-23T10:12:48.000Z</time>
      </trkpt>
      <trkpt lat="43.80269" lon="7.14749">
        <ele>860.20001220703</ele>
        <time>2019-02-23T10:12:50.000Z</time>
      </trkpt>
      <trkpt lat="43.80272" lon="7.1476">
        <ele>859.79998779297</ele>
        <time>2019-02-23T10:12:52.000Z</time>
      </trkpt>
      <trkpt lat="43.80277" lon="7.14776">
        <ele>858.40002441406</ele>
        <time>2019-02-23T10:12:55.000Z</time>
      </trkpt>
      <trkpt lat="43.80278" lon="7.14781">
        <ele>858</ele>
        <time>2019-02-23T10:12:56.000Z</time>
      </trkpt>
      <trkpt lat="43.80281" lon="7.14788">
        <ele>857.20001220703</ele>
        <time>2019-02-23T10:12:57.000Z</time>
      </trkpt>
      <trkpt lat="43.80283" lon="7.14793">
        <ele>857</ele>
        <time>2019-02-23T10:12:58.000Z</time>
      </trkpt>
      <trkpt lat="43.80285" lon="7.14798">
        <ele>856.79998779297</ele>
        <time>2019-02-23T10:12:59.000Z</time>
      </trkpt>
      <trkpt lat="43.8029" lon="7.14809">
        <ele>855.79998779297</ele>
        <time>2019-02-23T10:13:01.000Z</time>
      </trkpt>
      <trkpt lat="43.80294" lon="7.14816">
        <ele>854</ele>
        <time>2019-02-23T10:13:03.000Z</time>
      </trkpt>
      <trkpt lat="43.80296" lon="7.14819">
        <ele>853.20001220703</ele>
        <time>2019-02-23T10:13:04.000Z</time>
      </trkpt>
      <trkpt lat="43.80298" lon="7.14823">
        <ele>852.40002441406</ele>
        <time>2019-02-23T10:13:05.000Z</time>
      </trkpt>
      <trkpt lat="43.80302" lon="7.14831">
        <ele>850.40002441406</ele>
        <time>2019-02-23T10:13:07.000Z</time>
      </trkpt>
      <trkpt lat="43.80308" lon="7.14841">
        <ele>848.79998779297</ele>
        <time>2019-02-23T10:13:09.000Z</time>
      </trkpt>
      <trkpt lat="43.8031" lon="7.14847">
        <ele>848.40002441406</ele>
        <time>2019-02-23T10:13:10.000Z</time>
      </trkpt>
      <trkpt lat="43.80312" lon="7.14854">
        <ele>847.59997558594</ele>
        <time>2019-02-23T10:13:11.000Z</time>
      </trkpt>
      <trkpt lat="43.80317" lon="7.14868">
        <ele>846.20001220703</ele>
        <time>2019-02-23T10:13:13.000Z</time>
      </trkpt>
      <trkpt lat="43.80319" lon="7.14879">
        <ele>844.79998779297</ele>
        <time>2019-02-23T10:13:15.000Z</time>
      </trkpt>
      <trkpt lat="43.80321" lon="7.14885">
        <ele>844.59997558594</ele>
        <time>2019-02-23T10:13:16.000Z</time>
      </trkpt>
      <trkpt lat="43.80326" lon="7.14895">
        <ele>843.79998779297</ele>
        <time>2019-02-23T10:13:18.000Z</time>
      </trkpt>
      <trkpt lat="43.80331" lon="7.14903">
        <ele>843</ele>
        <time>2019-02-23T10:13:20.000Z</time>
      </trkpt>
      <trkpt lat="43.80335" lon="7.14908">
        <ele>842.20001220703</ele>
        <time>2019-02-23T10:13:21.000Z</time>
      </trkpt>
      <trkpt lat="43.80346" lon="7.1492">
        <ele>840.40002441406</ele>
        <time>2019-02-23T10:13:24.000Z</time>
      </trkpt>
      <trkpt lat="43.80352" lon="7.14927">
        <ele>839</ele>
        <time>2019-02-23T10:13:26.000Z</time>
      </trkpt>
      <trkpt lat="43.80355" lon="7.1493">
        <ele>838.20001220703</ele>
        <time>2019-02-23T10:13:27.000Z</time>
      </trkpt>
      <trkpt lat="43.80357" lon="7.14933">
        <ele>837.79998779297</ele>
        <time>2019-02-23T10:13:28.000Z</time>
      </trkpt>
      <trkpt lat="43.80358" lon="7.14934">
        <ele>836.40002441406</ele>
        <time>2019-02-23T10:13:31.000Z</time>
      </trkpt>
      <trkpt lat="43.80361" lon="7.14938">
        <ele>835.59997558594</ele>
        <time>2019-02-23T10:13:44.000Z</time>
      </trkpt>
      <trkpt lat="43.80372" lon="7.14945">
        <ele>835.40002441406</ele>
        <time>2019-02-23T10:13:49.000Z</time>
      </trkpt>
      <trkpt lat="43.80376" lon="7.14947">
        <ele>835.40002441406</ele>
        <time>2019-02-23T10:13:50.000Z</time>
      </trkpt>
      <trkpt lat="43.80385" lon="7.14954">
        <ele>834.20001220703</ele>
        <time>2019-02-23T10:13:53.000Z</time>
      </trkpt>
      <trkpt lat="43.80381" lon="7.14967">
        <ele>832.79998779297</ele>
        <time>2019-02-23T10:13:56.000Z</time>
      </trkpt>
      <trkpt lat="43.80377" lon="7.1497">
        <ele>832.40002441406</ele>
        <time>2019-02-23T10:13:58.000Z</time>
      </trkpt>
      <trkpt lat="43.80376" lon="7.14971">
        <ele>832.40002441406</ele>
        <time>2019-02-23T10:13:59.000Z</time>
      </trkpt>
      <trkpt lat="43.80376" lon="7.14973">
        <ele>832</ele>
        <time>2019-02-23T10:14:00.000Z</time>
      </trkpt>
      <trkpt lat="43.80376" lon="7.14975">
        <ele>831.20001220703</ele>
        <time>2019-02-23T10:14:01.000Z</time>
      </trkpt>
      <trkpt lat="43.80378" lon="7.14977">
        <ele>830.59997558594</ele>
        <time>2019-02-23T10:14:02.000Z</time>
      </trkpt>
      <trkpt lat="43.80381" lon="7.14978">
        <ele>830</ele>
        <time>2019-02-23T10:14:03.000Z</time>
      </trkpt>
      <trkpt lat="43.80383" lon="7.14978">
        <ele>829.79998779297</ele>
        <time>2019-02-23T10:14:04.000Z</time>
      </trkpt>
      <trkpt lat="43.80386" lon="7.14981">
        <ele>829</ele>
        <time>2019-02-23T10:14:05.000Z</time>
      </trkpt>
      <trkpt lat="43.80386" lon="7.14985">
        <ele>828.40002441406</ele>
        <time>2019-02-23T10:14:06.000Z</time>
      </trkpt>
      <trkpt lat="43.80381" lon="7.14989">
        <ele>827</ele>
        <time>2019-02-23T10:14:08.000Z</time>
      </trkpt>
      <trkpt lat="43.8038" lon="7.14991">
        <ele>826.20001220703</ele>
        <time>2019-02-23T10:14:09.000Z</time>
      </trkpt>
      <trkpt lat="43.80379" lon="7.14995">
        <ele>825.59997558594</ele>
        <time>2019-02-23T10:14:10.000Z</time>
      </trkpt>
      <trkpt lat="43.80379" lon="7.15007">
        <ele>824.40002441406</ele>
        <time>2019-02-23T10:14:12.000Z</time>
      </trkpt>
      <trkpt lat="43.80382" lon="7.15021">
        <ele>823.59997558594</ele>
        <time>2019-02-23T10:14:14.000Z</time>
      </trkpt>
      <trkpt lat="43.80384" lon="7.1503">
        <ele>823</ele>
        <time>2019-02-23T10:14:15.000Z</time>
      </trkpt>
      <trkpt lat="43.80387" lon="7.15038">
        <ele>822.40002441406</ele>
        <time>2019-02-23T10:14:16.000Z</time>
      </trkpt>
      <trkpt lat="43.80391" lon="7.15046">
        <ele>821.59997558594</ele>
        <time>2019-02-23T10:14:17.000Z</time>
      </trkpt>
      <trkpt lat="43.80395" lon="7.15059">
        <ele>819.79998779297</ele>
        <time>2019-02-23T10:14:19.000Z</time>
      </trkpt>
      <trkpt lat="43.80403" lon="7.15077">
        <ele>818.79998779297</ele>
        <time>2019-02-23T10:14:22.000Z</time>
      </trkpt>
      <trkpt lat="43.80408" lon="7.1509">
        <ele>818.20001220703</ele>
        <time>2019-02-23T10:14:24.000Z</time>
      </trkpt>
      <trkpt lat="43.80411" lon="7.15097">
        <ele>817.59997558594</ele>
        <time>2019-02-23T10:14:25.000Z</time>
      </trkpt>
      <trkpt lat="43.80413" lon="7.15102">
        <ele>817.20001220703</ele>
        <time>2019-02-23T10:14:26.000Z</time>
      </trkpt>
      <trkpt lat="43.80416" lon="7.15106">
        <ele>816.20001220703</ele>
        <time>2019-02-23T10:14:28.000Z</time>
      </trkpt>
      <trkpt lat="43.80417" lon="7.15104">
        <ele>815.79998779297</ele>
        <time>2019-02-23T10:14:29.000Z</time>
      </trkpt>
      <trkpt lat="43.80418" lon="7.15096">
        <ele>814.59997558594</ele>
        <time>2019-02-23T10:14:31.000Z</time>
      </trkpt>
      <trkpt lat="43.80421" lon="7.15092">
        <ele>814</ele>
        <time>2019-02-23T10:14:32.000Z</time>
      </trkpt>
      <trkpt lat="43.80424" lon="7.1509">
        <ele>813.40002441406</ele>
        <time>2019-02-23T10:14:33.000Z</time>
      </trkpt>
      <trkpt lat="43.80427" lon="7.1509">
        <ele>812.79998779297</ele>
        <time>2019-02-23T10:14:34.000Z</time>
      </trkpt>
      <trkpt lat="43.80432" lon="7.15094">
        <ele>812.40002441406</ele>
        <time>2019-02-23T10:14:35.000Z</time>
      </trkpt>
      <trkpt lat="43.80438" lon="7.15098">
        <ele>811.79998779297</ele>
        <time>2019-02-23T10:14:37.000Z</time>
      </trkpt>
      <trkpt lat="43.80441" lon="7.15099">
        <ele>810.59997558594</ele>
        <time>2019-02-23T10:14:38.000Z</time>
      </trkpt>
      <trkpt lat="43.80451" lon="7.151">
        <ele>809</ele>
        <time>2019-02-23T10:14:40.000Z</time>
      </trkpt>
      <trkpt lat="43.80453" lon="7.15103">
        <ele>807.79998779297</ele>
        <time>2019-02-23T10:14:41.000Z</time>
      </trkpt>
      <trkpt lat="43.8046" lon="7.15117">
        <ele>806</ele>
        <time>2019-02-23T10:14:44.000Z</time>
      </trkpt>
      <trkpt lat="43.80469" lon="7.15126">
        <ele>805</ele>
        <time>2019-02-23T10:14:46.000Z</time>
      </trkpt>
      <trkpt lat="43.80476" lon="7.15136">
        <ele>803.79998779297</ele>
        <time>2019-02-23T10:14:48.000Z</time>
      </trkpt>
      <trkpt lat="43.80481" lon="7.15142">
        <ele>802.59997558594</ele>
        <time>2019-02-23T10:14:50.000Z</time>
      </trkpt>
      <trkpt lat="43.80482" lon="7.15143">
        <ele>802.40002441406</ele>
        <time>2019-02-23T10:14:51.000Z</time>
      </trkpt>
      <trkpt lat="43.80483" lon="7.15143">
        <ele>801.20001220703</ele>
        <time>2019-02-23T10:14:53.000Z</time>
      </trkpt>
      <trkpt lat="43.80483" lon="7.15144">
        <ele>800.59997558594</ele>
        <time>2019-02-23T10:14:55.000Z</time>
      </trkpt>
      <trkpt lat="43.80483" lon="7.15146">
        <ele>800.20001220703</ele>
        <time>2019-02-23T10:15:00.000Z</time>
      </trkpt>
      <trkpt lat="43.80483" lon="7.15146">
        <ele>800</ele>
        <time>2019-02-23T10:15:01.000Z</time>
      </trkpt>
      <trkpt lat="43.80487" lon="7.15149">
        <ele>799.40002441406</ele>
        <time>2019-02-23T10:15:08.000Z</time>
      </trkpt>
      <trkpt lat="43.80488" lon="7.15151">
        <ele>799</ele>
        <time>2019-02-23T10:15:11.000Z</time>
      </trkpt>
      <trkpt lat="43.80492" lon="7.15154">
        <ele>799</ele>
        <time>2019-02-23T10:15:13.000Z</time>
      </trkpt>
      <trkpt lat="43.80506" lon="7.15169">
        <ele>798.59997558594</ele>
        <time>2019-02-23T10:15:17.000Z</time>
      </trkpt>
      <trkpt lat="43.80513" lon="7.15177">
        <ele>797.79998779297</ele>
        <time>2019-02-23T10:15:19.000Z</time>
      </trkpt>
      <trkpt lat="43.8052" lon="7.15184">
        <ele>797.20001220703</ele>
        <time>2019-02-23T10:15:21.000Z</time>
      </trkpt>
      <trkpt lat="43.80523" lon="7.15186">
        <ele>796.79998779297</ele>
        <time>2019-02-23T10:15:22.000Z</time>
      </trkpt>
      <trkpt lat="43.80542" lon="7.15196">
        <ele>796</ele>
        <time>2019-02-23T10:15:27.000Z</time>
      </trkpt>
      <trkpt lat="43.80546" lon="7.15198">
        <ele>795.40002441406</ele>
        <time>2019-02-23T10:15:28.000Z</time>
      </trkpt>
      <trkpt lat="43.8055" lon="7.152">
        <ele>794.79998779297</ele>
        <time>2019-02-23T10:15:29.000Z</time>
      </trkpt>
      <trkpt lat="43.80554" lon="7.15202">
        <ele>793.59997558594</ele>
        <time>2019-02-23T10:15:30.000Z</time>
      </trkpt>
      <trkpt lat="43.80558" lon="7.15204">
        <ele>792.79998779297</ele>
        <time>2019-02-23T10:15:31.000Z</time>
      </trkpt>
      <trkpt lat="43.80561" lon="7.15207">
        <ele>792.40002441406</ele>
        <time>2019-02-23T10:15:32.000Z</time>
      </trkpt>
      <trkpt lat="43.80566" lon="7.15207">
        <ele>790.79998779297</ele>
        <time>2019-02-23T10:15:34.000Z</time>
      </trkpt>
      <trkpt lat="43.80566" lon="7.15205">
        <ele>789.59997558594</ele>
        <time>2019-02-23T10:15:35.000Z</time>
      </trkpt>
      <trkpt lat="43.80566" lon="7.15201">
        <ele>788.40002441406</ele>
        <time>2019-02-23T10:15:36.000Z</time>
      </trkpt>
      <trkpt lat="43.80567" lon="7.15199">
        <ele>787.40002441406</ele>
        <time>2019-02-23T10:15:37.000Z</time>
      </trkpt>
      <trkpt lat="43.8057" lon="7.15199">
        <ele>786.79998779297</ele>
        <time>2019-02-23T10:15:38.000Z</time>
      </trkpt>
      <trkpt lat="43.80582" lon="7.15211">
        <ele>785.79998779297</ele>
        <time>2019-02-23T10:15:41.000Z</time>
      </trkpt>
      <trkpt lat="43.80586" lon="7.15216">
        <ele>785.20001220703</ele>
        <time>2019-02-23T10:15:42.000Z</time>
      </trkpt>
      <trkpt lat="43.80591" lon="7.15221">
        <ele>784.40002441406</ele>
        <time>2019-02-23T10:15:43.000Z</time>
      </trkpt>
      <trkpt lat="43.80596" lon="7.15228">
        <ele>783.40002441406</ele>
        <time>2019-02-23T10:15:44.000Z</time>
      </trkpt>
      <trkpt lat="43.80601" lon="7.15235">
        <ele>782.40002441406</ele>
        <time>2019-02-23T10:15:45.000Z</time>
      </trkpt>
      <trkpt lat="43.80606" lon="7.15241">
        <ele>781.40002441406</ele>
        <time>2019-02-23T10:15:46.000Z</time>
      </trkpt>
      <trkpt lat="43.80616" lon="7.15254">
        <ele>779.59997558594</ele>
        <time>2019-02-23T10:15:48.000Z</time>
      </trkpt>
      <trkpt lat="43.8062" lon="7.15258">
        <ele>779</ele>
        <time>2019-02-23T10:15:49.000Z</time>
      </trkpt>
      <trkpt lat="43.80623" lon="7.15262">
        <ele>778.20001220703</ele>
        <time>2019-02-23T10:15:50.000Z</time>
      </trkpt>
      <trkpt lat="43.80631" lon="7.15265">
        <ele>776.79998779297</ele>
        <time>2019-02-23T10:15:52.000Z</time>
      </trkpt>
      <trkpt lat="43.80637" lon="7.15267">
        <ele>775.59997558594</ele>
        <time>2019-02-23T10:15:53.000Z</time>
      </trkpt>
      <trkpt lat="43.80641" lon="7.1527">
        <ele>775</ele>
        <time>2019-02-23T10:15:54.000Z</time>
      </trkpt>
      <trkpt lat="43.80645" lon="7.15273">
        <ele>774.20001220703</ele>
        <time>2019-02-23T10:15:55.000Z</time>
      </trkpt>
      <trkpt lat="43.80649" lon="7.15276">
        <ele>773.20001220703</ele>
        <time>2019-02-23T10:15:56.000Z</time>
      </trkpt>
      <trkpt lat="43.80652" lon="7.15279">
        <ele>772.59997558594</ele>
        <time>2019-02-23T10:15:57.000Z</time>
      </trkpt>
      <trkpt lat="43.80656" lon="7.15284">
        <ele>770.59997558594</ele>
        <time>2019-02-23T10:15:59.000Z</time>
      </trkpt>
      <trkpt lat="43.80657" lon="7.15287">
        <ele>770</ele>
        <time>2019-02-23T10:16:00.000Z</time>
      </trkpt>
      <trkpt lat="43.8066" lon="7.15293">
        <ele>769.20001220703</ele>
        <time>2019-02-23T10:16:02.000Z</time>
      </trkpt>
      <trkpt lat="43.80666" lon="7.15301">
        <ele>768.20001220703</ele>
        <time>2019-02-23T10:16:05.000Z</time>
      </trkpt>
      <trkpt lat="43.80673" lon="7.15316">
        <ele>766.79998779297</ele>
        <time>2019-02-23T10:16:08.000Z</time>
      </trkpt>
      <trkpt lat="43.80676" lon="7.15322">
        <ele>766.20001220703</ele>
        <time>2019-02-23T10:16:09.000Z</time>
      </trkpt>
      <trkpt lat="43.80678" lon="7.15327">
        <ele>765.79998779297</ele>
        <time>2019-02-23T10:16:10.000Z</time>
      </trkpt>
      <trkpt lat="43.80685" lon="7.15333">
        <ele>764.40002441406</ele>
        <time>2019-02-23T10:16:13.000Z</time>
      </trkpt>
      <trkpt lat="43.80687" lon="7.15327">
        <ele>763.20001220703</ele>
        <time>2019-02-23T10:16:15.000Z</time>
      </trkpt>
      <trkpt lat="43.80688" lon="7.15322">
        <ele>762.40002441406</ele>
        <time>2019-02-23T10:16:16.000Z</time>
      </trkpt>
      <trkpt lat="43.8069" lon="7.15315">
        <ele>762</ele>
        <time>2019-02-23T10:16:17.000Z</time>
      </trkpt>
      <trkpt lat="43.8069" lon="7.15309">
        <ele>761.20001220703</ele>
        <time>2019-02-23T10:16:18.000Z</time>
      </trkpt>
      <trkpt lat="43.80692" lon="7.15305">
        <ele>760.79998779297</ele>
        <time>2019-02-23T10:16:19.000Z</time>
      </trkpt>
      <trkpt lat="43.80695" lon="7.15305">
        <ele>759.59997558594</ele>
        <time>2019-02-23T10:16:20.000Z</time>
      </trkpt>
      <trkpt lat="43.80697" lon="7.15308">
        <ele>759</ele>
        <time>2019-02-23T10:16:21.000Z</time>
      </trkpt>
      <trkpt lat="43.807" lon="7.15312">
        <ele>758.40002441406</ele>
        <time>2019-02-23T10:16:22.000Z</time>
      </trkpt>
      <trkpt lat="43.80703" lon="7.15318">
        <ele>757.79998779297</ele>
        <time>2019-02-23T10:16:23.000Z</time>
      </trkpt>
      <trkpt lat="43.80706" lon="7.15324">
        <ele>757.40002441406</ele>
        <time>2019-02-23T10:16:24.000Z</time>
      </trkpt>
      <trkpt lat="43.80714" lon="7.15338">
        <ele>756.79998779297</ele>
        <time>2019-02-23T10:16:26.000Z</time>
      </trkpt>
      <trkpt lat="43.80721" lon="7.1535">
        <ele>755.40002441406</ele>
        <time>2019-02-23T10:16:28.000Z</time>
      </trkpt>
      <trkpt lat="43.80725" lon="7.15355">
        <ele>754.79998779297</ele>
        <time>2019-02-23T10:16:29.000Z</time>
      </trkpt>
      <trkpt lat="43.80728" lon="7.15359">
        <ele>753.79998779297</ele>
        <time>2019-02-23T10:16:30.000Z</time>
      </trkpt>
      <trkpt lat="43.80733" lon="7.15366">
        <ele>752.59997558594</ele>
        <time>2019-02-23T10:16:32.000Z</time>
      </trkpt>
      <trkpt lat="43.80735" lon="7.15369">
        <ele>752.40002441406</ele>
        <time>2019-02-23T10:16:33.000Z</time>
      </trkpt>
      <trkpt lat="43.80741" lon="7.15378">
        <ele>751.40002441406</ele>
        <time>2019-02-23T10:16:36.000Z</time>
      </trkpt>
      <trkpt lat="43.80743" lon="7.15383">
        <ele>751</ele>
        <time>2019-02-23T10:16:37.000Z</time>
      </trkpt>
      <trkpt lat="43.80747" lon="7.15387">
        <ele>750.79998779297</ele>
        <time>2019-02-23T10:16:38.000Z</time>
      </trkpt>
      <trkpt lat="43.80756" lon="7.15401">
        <ele>750</ele>
        <time>2019-02-23T10:16:41.000Z</time>
      </trkpt>
      <trkpt lat="43.80759" lon="7.15406">
        <ele>749.59997558594</ele>
        <time>2019-02-23T10:16:42.000Z</time>
      </trkpt>
      <trkpt lat="43.80762" lon="7.15412">
        <ele>749</ele>
        <time>2019-02-23T10:16:43.000Z</time>
      </trkpt>
      <trkpt lat="43.80763" lon="7.15418">
        <ele>748.59997558594</ele>
        <time>2019-02-23T10:16:44.000Z</time>
      </trkpt>
      <trkpt lat="43.80766" lon="7.15429">
        <ele>747.20001220703</ele>
        <time>2019-02-23T10:16:46.000Z</time>
      </trkpt>
      <trkpt lat="43.80772" lon="7.15448">
        <ele>745.59997558594</ele>
        <time>2019-02-23T10:16:49.000Z</time>
      </trkpt>
      <trkpt lat="43.80779" lon="7.15466">
        <ele>743.79998779297</ele>
        <time>2019-02-23T10:16:52.000Z</time>
      </trkpt>
      <trkpt lat="43.8078" lon="7.15474">
        <ele>743</ele>
        <time>2019-02-23T10:16:53.000Z</time>
      </trkpt>
      <trkpt lat="43.80781" lon="7.1548">
        <ele>742.59997558594</ele>
        <time>2019-02-23T10:16:54.000Z</time>
      </trkpt>
      <trkpt lat="43.80781" lon="7.15487">
        <ele>741.59997558594</ele>
        <time>2019-02-23T10:16:55.000Z</time>
      </trkpt>
      <trkpt lat="43.80782" lon="7.15494">
        <ele>741.20001220703</ele>
        <time>2019-02-23T10:16:56.000Z</time>
      </trkpt>
      <trkpt lat="43.80785" lon="7.15503">
        <ele>739.59997558594</ele>
        <time>2019-02-23T10:16:58.000Z</time>
      </trkpt>
      <trkpt lat="43.80786" lon="7.15507">
        <ele>738.79998779297</ele>
        <time>2019-02-23T10:16:59.000Z</time>
      </trkpt>
      <trkpt lat="43.80787" lon="7.15517">
        <ele>738.20001220703</ele>
        <time>2019-02-23T10:17:01.000Z</time>
      </trkpt>
      <trkpt lat="43.8079" lon="7.15524">
        <ele>738</ele>
        <time>2019-02-23T10:17:03.000Z</time>
      </trkpt>
      <trkpt lat="43.80792" lon="7.15526">
        <ele>737.59997558594</ele>
        <time>2019-02-23T10:17:04.000Z</time>
      </trkpt>
      <trkpt lat="43.80794" lon="7.15531">
        <ele>737</ele>
        <time>2019-02-23T10:17:05.000Z</time>
      </trkpt>
      <trkpt lat="43.80795" lon="7.15535">
        <ele>736.59997558594</ele>
        <time>2019-02-23T10:17:06.000Z</time>
      </trkpt>
      <trkpt lat="43.80796" lon="7.1554">
        <ele>735.79998779297</ele>
        <time>2019-02-23T10:17:08.000Z</time>
      </trkpt>
      <trkpt lat="43.80797" lon="7.15546">
        <ele>735.40002441406</ele>
        <time>2019-02-23T10:17:10.000Z</time>
      </trkpt>
      <trkpt lat="43.80801" lon="7.15561">
        <ele>735</ele>
        <time>2019-02-23T10:17:15.000Z</time>
      </trkpt>
      <trkpt lat="43.80802" lon="7.15567">
        <ele>734.79998779297</ele>
        <time>2019-02-23T10:17:17.000Z</time>
      </trkpt>
      <trkpt lat="43.80802" lon="7.15576">
        <ele>734.79998779297</ele>
        <time>2019-02-23T10:17:20.000Z</time>
      </trkpt>
      <trkpt lat="43.80804" lon="7.15593">
        <ele>734.59997558594</ele>
        <time>2019-02-23T10:17:25.000Z</time>
      </trkpt>
      <trkpt lat="43.80809" lon="7.15606">
        <ele>733.59997558594</ele>
        <time>2019-02-23T10:17:29.000Z</time>
      </trkpt>
      <trkpt lat="43.80811" lon="7.15625">
        <ele>732.59997558594</ele>
        <time>2019-02-23T10:17:33.000Z</time>
      </trkpt>
      <trkpt lat="43.80812" lon="7.15626">
        <ele>732.59997558594</ele>
        <time>2019-02-23T10:17:34.000Z</time>
      </trkpt>
      <trkpt lat="43.80818" lon="7.15626">
        <ele>732</ele>
        <time>2019-02-23T10:17:36.000Z</time>
      </trkpt>
      <trkpt lat="43.80824" lon="7.15632">
        <ele>731.20001220703</ele>
        <time>2019-02-23T10:17:39.000Z</time>
      </trkpt>
      <trkpt lat="43.80832" lon="7.15644">
        <ele>730</ele>
        <time>2019-02-23T10:17:42.000Z</time>
      </trkpt>
      <trkpt lat="43.80836" lon="7.15652">
        <ele>729.40002441406</ele>
        <time>2019-02-23T10:17:44.000Z</time>
      </trkpt>
      <trkpt lat="43.80841" lon="7.15659">
        <ele>729</ele>
        <time>2019-02-23T10:17:46.000Z</time>
      </trkpt>
      <trkpt lat="43.80849" lon="7.15665">
        <ele>728.59997558594</ele>
        <time>2019-02-23T10:17:49.000Z</time>
      </trkpt>
      <trkpt lat="43.8085" lon="7.15668">
        <ele>728.59997558594</ele>
        <time>2019-02-23T10:17:50.000Z</time>
      </trkpt>
      <trkpt lat="43.80852" lon="7.15673">
        <ele>728.59997558594</ele>
        <time>2019-02-23T10:17:52.000Z</time>
      </trkpt>
      <trkpt lat="43.8086" lon="7.15678">
        <ele>728.40002441406</ele>
        <time>2019-02-23T10:17:55.000Z</time>
      </trkpt>
      <trkpt lat="43.80863" lon="7.1568">
        <ele>728.40002441406</ele>
        <time>2019-02-23T10:17:56.000Z</time>
      </trkpt>
      <trkpt lat="43.80877" lon="7.15691">
        <ele>728.40002441406</ele>
        <time>2019-02-23T10:18:02.000Z</time>
      </trkpt>
      <trkpt lat="43.80882" lon="7.15699">
        <ele>727.79998779297</ele>
        <time>2019-02-23T10:18:05.000Z</time>
      </trkpt>
      <trkpt lat="43.80884" lon="7.15703">
        <ele>727.40002441406</ele>
        <time>2019-02-23T10:18:07.000Z</time>
      </trkpt>
      <trkpt lat="43.80886" lon="7.15705">
        <ele>726.40002441406</ele>
        <time>2019-02-23T10:18:10.000Z</time>
      </trkpt>
      <trkpt lat="43.80887" lon="7.15707">
        <ele>726</ele>
        <time>2019-02-23T10:18:11.000Z</time>
      </trkpt>
      <trkpt lat="43.80895" lon="7.15714">
        <ele>725</ele>
        <time>2019-02-23T10:18:16.000Z</time>
      </trkpt>
      <trkpt lat="43.80897" lon="7.15716">
        <ele>724.79998779297</ele>
        <time>2019-02-23T10:18:17.000Z</time>
      </trkpt>
      <trkpt lat="43.80903" lon="7.15719">
        <ele>723.59997558594</ele>
        <time>2019-02-23T10:18:20.000Z</time>
      </trkpt>
      <trkpt lat="43.80908" lon="7.15724">
        <ele>722.40002441406</ele>
        <time>2019-02-23T10:18:24.000Z</time>
      </trkpt>
      <trkpt lat="43.80911" lon="7.15725">
        <ele>722.20001220703</ele>
        <time>2019-02-23T10:18:25.000Z</time>
      </trkpt>
      <trkpt lat="43.80915" lon="7.1573">
        <ele>721.20001220703</ele>
        <time>2019-02-23T10:18:27.000Z</time>
      </trkpt>
      <trkpt lat="43.80917" lon="7.15734">
        <ele>720.79998779297</ele>
        <time>2019-02-23T10:18:28.000Z</time>
      </trkpt>
      <trkpt lat="43.8092" lon="7.15738">
        <ele>720.20001220703</ele>
        <time>2019-02-23T10:18:29.000Z</time>
      </trkpt>
      <trkpt lat="43.80923" lon="7.15743">
        <ele>719.79998779297</ele>
        <time>2019-02-23T10:18:30.000Z</time>
      </trkpt>
      <trkpt lat="43.80927" lon="7.15745">
        <ele>719.20001220703</ele>
        <time>2019-02-23T10:18:31.000Z</time>
      </trkpt>
      <trkpt lat="43.80931" lon="7.15746">
        <ele>718.79998779297</ele>
        <time>2019-02-23T10:18:32.000Z</time>
      </trkpt>
      <trkpt lat="43.80944" lon="7.15754">
        <ele>718</ele>
        <time>2019-02-23T10:18:36.000Z</time>
      </trkpt>
      <trkpt lat="43.80962" lon="7.1577">
        <ele>717.59997558594</ele>
        <time>2019-02-23T10:18:42.000Z</time>
      </trkpt>
      <trkpt lat="43.80972" lon="7.15771">
        <ele>716.59997558594</ele>
        <time>2019-02-23T10:18:45.000Z</time>
      </trkpt>
      <trkpt lat="43.80979" lon="7.15773">
        <ele>715</ele>
        <time>2019-02-23T10:18:47.000Z</time>
      </trkpt>
      <trkpt lat="43.80983" lon="7.15775">
        <ele>714</ele>
        <time>2019-02-23T10:18:48.000Z</time>
      </trkpt>
      <trkpt lat="43.80996" lon="7.15778">
        <ele>712</ele>
        <time>2019-02-23T10:18:51.000Z</time>
      </trkpt>
      <trkpt lat="43.81003" lon="7.15779">
        <ele>710.79998779297</ele>
        <time>2019-02-23T10:18:53.000Z</time>
      </trkpt>
      <trkpt lat="43.81008" lon="7.15782">
        <ele>709.79998779297</ele>
        <time>2019-02-23T10:18:55.000Z</time>
      </trkpt>
      <trkpt lat="43.81013" lon="7.15789">
        <ele>710.79998779297</ele>
        <time>2019-02-23T10:19:00.000Z</time>
      </trkpt>
      <trkpt lat="43.81014" lon="7.1579">
        <ele>711</ele>
        <time>2019-02-23T10:19:01.000Z</time>
      </trkpt>
      <trkpt lat="43.81014" lon="7.15792">
        <ele>710.79998779297</ele>
        <time>2019-02-23T10:19:06.000Z</time>
      </trkpt>
      <trkpt lat="43.81018" lon="7.15794">
        <ele>711.79998779297</ele>
        <time>2019-02-23T10:19:14.000Z</time>
      </trkpt>
      <trkpt lat="43.81019" lon="7.15793">
        <ele>712</ele>
        <time>2019-02-23T10:19:16.000Z</time>
      </trkpt>
      <trkpt lat="43.8102" lon="7.15793">
        <ele>711.79998779297</ele>
        <time>2019-02-23T10:19:23.000Z</time>
      </trkpt>
      <trkpt lat="43.8102" lon="7.15789">
        <ele>712</ele>
        <time>2019-02-23T10:19:34.000Z</time>
      </trkpt>
      <trkpt lat="43.8102" lon="7.15788">
        <ele>712.20001220703</ele>
        <time>2019-02-23T10:19:42.000Z</time>
      </trkpt>
      <trkpt lat="43.8102" lon="7.15788">
        <ele>712.20001220703</ele>
        <time>2019-02-23T10:19:54.000Z</time>
      </trkpt>
      <trkpt lat="43.81022" lon="7.15785">
        <ele>712.20001220703</ele>
        <time>2019-02-23T10:20:03.000Z</time>
      </trkpt>
      <trkpt lat="43.81022" lon="7.15784">
        <ele>712.40002441406</ele>
        <time>2019-02-23T10:20:08.000Z</time>
      </trkpt>
      <trkpt lat="43.81023" lon="7.15783">
        <ele>712.40002441406</ele>
        <time>2019-02-23T10:20:11.000Z</time>
      </trkpt>
      <trkpt lat="43.81025" lon="7.1578">
        <ele>712.40002441406</ele>
        <time>2019-02-23T10:20:14.000Z</time>
      </trkpt>
      <trkpt lat="43.81031" lon="7.15771">
        <ele>712.59997558594</ele>
        <time>2019-02-23T10:20:20.000Z</time>
      </trkpt>
      <trkpt lat="43.81033" lon="7.15767">
        <ele>712.59997558594</ele>
        <time>2019-02-23T10:20:25.000Z</time>
      </trkpt>
      <trkpt lat="43.81033" lon="7.15767">
        <ele>712.59997558594</ele>
        <time>2019-02-23T10:20:32.000Z</time>
      </trkpt>
      <trkpt lat="43.81033" lon="7.15767">
        <ele>713</ele>
        <time>2019-02-23T10:20:57.000Z</time>
      </trkpt>
      <trkpt lat="43.81033" lon="7.15767">
        <ele>713</ele>
        <time>2019-02-23T10:21:00.000Z</time>
      </trkpt>
      <trkpt lat="43.81035" lon="7.15764">
        <ele>712.79998779297</ele>
        <time>2019-02-23T10:21:06.000Z</time>
      </trkpt>
      <trkpt lat="43.81043" lon="7.15752">
        <ele>712.59997558594</ele>
        <time>2019-02-23T10:21:12.000Z</time>
      </trkpt>
      <trkpt lat="43.81059" lon="7.15735">
        <ele>712</ele>
        <time>2019-02-23T10:21:18.000Z</time>
      </trkpt>
      <trkpt lat="43.81074" lon="7.15715">
        <ele>711</ele>
        <time>2019-02-23T10:21:22.000Z</time>
      </trkpt>
      <trkpt lat="43.81078" lon="7.15709">
        <ele>710.79998779297</ele>
        <time>2019-02-23T10:21:23.000Z</time>
      </trkpt>
      <trkpt lat="43.81089" lon="7.15693">
        <ele>709.79998779297</ele>
        <time>2019-02-23T10:21:25.000Z</time>
      </trkpt>
      <trkpt lat="43.81099" lon="7.15678">
        <ele>708.59997558594</ele>
        <time>2019-02-23T10:21:27.000Z</time>
      </trkpt>
      <trkpt lat="43.81106" lon="7.15663">
        <ele>706.79998779297</ele>
        <time>2019-02-23T10:21:29.000Z</time>
      </trkpt>
      <trkpt lat="43.81114" lon="7.15649">
        <ele>705.59997558594</ele>
        <time>2019-02-23T10:21:31.000Z</time>
      </trkpt>
      <trkpt lat="43.81118" lon="7.15644">
        <ele>704.79998779297</ele>
        <time>2019-02-23T10:21:32.000Z</time>
      </trkpt>
      <trkpt lat="43.81121" lon="7.1564">
        <ele>704.40002441406</ele>
        <time>2019-02-23T10:21:33.000Z</time>
      </trkpt>
      <trkpt lat="43.81124" lon="7.15637">
        <ele>704</ele>
        <time>2019-02-23T10:21:34.000Z</time>
      </trkpt>
      <trkpt lat="43.81128" lon="7.15635">
        <ele>703.20001220703</ele>
        <time>2019-02-23T10:21:35.000Z</time>
      </trkpt>
      <trkpt lat="43.81136" lon="7.1563">
        <ele>702</ele>
        <time>2019-02-23T10:21:37.000Z</time>
      </trkpt>
      <trkpt lat="43.81141" lon="7.15628">
        <ele>701.40002441406</ele>
        <time>2019-02-23T10:21:38.000Z</time>
      </trkpt>
      <trkpt lat="43.81146" lon="7.15626">
        <ele>700.59997558594</ele>
        <time>2019-02-23T10:21:39.000Z</time>
      </trkpt>
      <trkpt lat="43.81152" lon="7.15624">
        <ele>699.20001220703</ele>
        <time>2019-02-23T10:21:40.000Z</time>
      </trkpt>
      <trkpt lat="43.81159" lon="7.15622">
        <ele>697.79998779297</ele>
        <time>2019-02-23T10:21:41.000Z</time>
      </trkpt>
      <trkpt lat="43.81165" lon="7.15621">
        <ele>696.40002441406</ele>
        <time>2019-02-23T10:21:42.000Z</time>
      </trkpt>
      <trkpt lat="43.8117" lon="7.1562">
        <ele>695.40002441406</ele>
        <time>2019-02-23T10:21:43.000Z</time>
      </trkpt>
      <trkpt lat="43.81179" lon="7.15618">
        <ele>693.20001220703</ele>
        <time>2019-02-23T10:21:45.000Z</time>
      </trkpt>
      <trkpt lat="43.81183" lon="7.15615">
        <ele>691.59997558594</ele>
        <time>2019-02-23T10:21:47.000Z</time>
      </trkpt>
      <trkpt lat="43.81183" lon="7.15614">
        <ele>690.59997558594</ele>
        <time>2019-02-23T10:21:48.000Z</time>
      </trkpt>
      <trkpt lat="43.81183" lon="7.15615">
        <ele>690</ele>
        <time>2019-02-23T10:21:49.000Z</time>
      </trkpt>
      <trkpt lat="43.81183" lon="7.15615">
        <ele>689.59997558594</ele>
        <time>2019-02-23T10:21:50.000Z</time>
      </trkpt>
      <trkpt lat="43.81184" lon="7.15614">
        <ele>689.59997558594</ele>
        <time>2019-02-23T10:21:56.000Z</time>
      </trkpt>
      <trkpt lat="43.81184" lon="7.15614">
        <ele>689</ele>
        <time>2019-02-23T10:22:01.000Z</time>
      </trkpt>
      <trkpt lat="43.81184" lon="7.15614">
        <ele>689</ele>
        <time>2019-02-23T10:22:02.000Z</time>
      </trkpt>
      <trkpt lat="43.81184" lon="7.15614">
        <ele>688.79998779297</ele>
        <time>2019-02-23T10:22:10.000Z</time>
      </trkpt>
      <trkpt lat="43.81184" lon="7.15615">
        <ele>689.20001220703</ele>
        <time>2019-02-23T10:22:19.000Z</time>
      </trkpt>
      <trkpt lat="43.81184" lon="7.15612">
        <ele>688.59997558594</ele>
        <time>2019-02-23T10:22:27.000Z</time>
      </trkpt>
      <trkpt lat="43.81177" lon="7.15605">
        <ele>688</ele>
        <time>2019-02-23T10:22:32.000Z</time>
      </trkpt>
      <trkpt lat="43.81174" lon="7.15601">
        <ele>687.79998779297</ele>
        <time>2019-02-23T10:22:33.000Z</time>
      </trkpt>
      <trkpt lat="43.81171" lon="7.15596">
        <ele>687.59997558594</ele>
        <time>2019-02-23T10:22:34.000Z</time>
      </trkpt>
      <trkpt lat="43.81169" lon="7.15589">
        <ele>687.20001220703</ele>
        <time>2019-02-23T10:22:35.000Z</time>
      </trkpt>
      <trkpt lat="43.81168" lon="7.1558">
        <ele>686.59997558594</ele>
        <time>2019-02-23T10:22:36.000Z</time>
      </trkpt>
      <trkpt lat="43.81172" lon="7.15562">
        <ele>685</ele>
        <time>2019-02-23T10:22:38.000Z</time>
      </trkpt>
      <trkpt lat="43.81177" lon="7.15549">
        <ele>683.40002441406</ele>
        <time>2019-02-23T10:22:40.000Z</time>
      </trkpt>
      <trkpt lat="43.8118" lon="7.15546">
        <ele>682.40002441406</ele>
        <time>2019-02-23T10:22:41.000Z</time>
      </trkpt>
      <trkpt lat="43.81188" lon="7.15545">
        <ele>680.59997558594</ele>
        <time>2019-02-23T10:22:43.000Z</time>
      </trkpt>
      <trkpt lat="43.81192" lon="7.15546">
        <ele>679.59997558594</ele>
        <time>2019-02-23T10:22:44.000Z</time>
      </trkpt>
      <trkpt lat="43.812" lon="7.15549">
        <ele>677.79998779297</ele>
        <time>2019-02-23T10:22:46.000Z</time>
      </trkpt>
      <trkpt lat="43.81203" lon="7.15551">
        <ele>676.59997558594</ele>
        <time>2019-02-23T10:22:47.000Z</time>
      </trkpt>
      <trkpt lat="43.81206" lon="7.15552">
        <ele>675.59997558594</ele>
        <time>2019-02-23T10:22:48.000Z</time>
      </trkpt>
      <trkpt lat="43.8121" lon="7.15554">
        <ele>674</ele>
        <time>2019-02-23T10:22:50.000Z</time>
      </trkpt>
      <trkpt lat="43.81214" lon="7.15553">
        <ele>672.59997558594</ele>
        <time>2019-02-23T10:22:52.000Z</time>
      </trkpt>
      <trkpt lat="43.81215" lon="7.15553">
        <ele>672.20001220703</ele>
        <time>2019-02-23T10:22:53.000Z</time>
      </trkpt>
      <trkpt lat="43.81215" lon="7.15552">
        <ele>671.59997558594</ele>
        <time>2019-02-23T10:22:54.000Z</time>
      </trkpt>
      <trkpt lat="43.81215" lon="7.15552">
        <ele>670.40002441406</ele>
        <time>2019-02-23T10:22:56.000Z</time>
      </trkpt>
      <trkpt lat="43.81215" lon="7.15552">
        <ele>670</ele>
        <time>2019-02-23T10:22:57.000Z</time>
      </trkpt>
      <trkpt lat="43.81214" lon="7.1555">
        <ele>669.79998779297</ele>
        <time>2019-02-23T10:23:05.000Z</time>
      </trkpt>
      <trkpt lat="43.81212" lon="7.15548">
        <ele>669.40002441406</ele>
        <time>2019-02-23T10:23:16.000Z</time>
      </trkpt>
      <trkpt lat="43.81212" lon="7.15547">
        <ele>669.40002441406</ele>
        <time>2019-02-23T10:23:20.000Z</time>
      </trkpt>
      <trkpt lat="43.81212" lon="7.15544">
        <ele>669.40002441406</ele>
        <time>2019-02-23T10:23:25.000Z</time>
      </trkpt>
      <trkpt lat="43.81207" lon="7.15538">
        <ele>670.40002441406</ele>
        <time>2019-02-23T10:23:33.000Z</time>
      </trkpt>
      <trkpt lat="43.81202" lon="7.15531">
        <ele>671.40002441406</ele>
        <time>2019-02-23T10:23:43.000Z</time>
      </trkpt>
      <trkpt lat="43.81202" lon="7.15531">
        <ele>671.40002441406</ele>
        <time>2019-02-23T10:23:45.000Z</time>
      </trkpt>
      <trkpt lat="43.81202" lon="7.15531">
        <ele>671.59997558594</ele>
        <time>2019-02-23T10:23:50.000Z</time>
      </trkpt>
      <trkpt lat="43.81203" lon="7.15532">
        <ele>671.20001220703</ele>
        <time>2019-02-23T10:23:58.000Z</time>
      </trkpt>
      <trkpt lat="43.81202" lon="7.15532">
        <ele>671</ele>
        <time>2019-02-23T10:23:59.000Z</time>
      </trkpt>
      <trkpt lat="43.81205" lon="7.1553">
        <ele>670.59997558594</ele>
        <time>2019-02-23T10:24:05.000Z</time>
      </trkpt>
      <trkpt lat="43.81204" lon="7.15531">
        <ele>670.79998779297</ele>
        <time>2019-02-23T10:24:15.000Z</time>
      </trkpt>
      <trkpt lat="43.81203" lon="7.15531">
        <ele>670.59997558594</ele>
        <time>2019-02-23T10:24:23.000Z</time>
      </trkpt>
      <trkpt lat="43.81204" lon="7.15529">
        <ele>670.79998779297</ele>
        <time>2019-02-23T10:24:31.000Z</time>
      </trkpt>
      <trkpt lat="43.81204" lon="7.15529">
        <ele>670.79998779297</ele>
        <time>2019-02-23T10:24:40.000Z</time>
      </trkpt>
      <trkpt lat="43.81204" lon="7.15529">
        <ele>671.20001220703</ele>
        <time>2019-02-23T10:24:48.000Z</time>
      </trkpt>
      <trkpt lat="43.81203" lon="7.15529">
        <ele>671</ele>
        <time>2019-02-23T10:24:55.000Z</time>
      </trkpt>
      <trkpt lat="43.81203" lon="7.15529">
        <ele>671.20001220703</ele>
        <time>2019-02-23T10:25:02.000Z</time>
      </trkpt>
      <trkpt lat="43.81203" lon="7.15529">
        <ele>670.79998779297</ele>
        <time>2019-02-23T10:25:09.000Z</time>
      </trkpt>
      <trkpt lat="43.81203" lon="7.15529">
        <ele>671.40002441406</ele>
        <time>2019-02-23T10:25:21.000Z</time>
      </trkpt>
      <trkpt lat="43.81202" lon="7.1553">
        <ele>671.40002441406</ele>
        <time>2019-02-23T10:25:28.000Z</time>
      </trkpt>
      <trkpt lat="43.81202" lon="7.1553">
        <ele>671.79998779297</ele>
        <time>2019-02-23T10:25:35.000Z</time>
      </trkpt>
      <trkpt lat="43.81199" lon="7.15525">
        <ele>672.20001220703</ele>
        <time>2019-02-23T10:25:42.000Z</time>
      </trkpt>
      <trkpt lat="43.81197" lon="7.15522">
        <ele>672.40002441406</ele>
        <time>2019-02-23T10:25:46.000Z</time>
      </trkpt>
      <trkpt lat="43.81197" lon="7.15522">
        <ele>672.79998779297</ele>
        <time>2019-02-23T10:25:50.000Z</time>
      </trkpt>
      <trkpt lat="43.81197" lon="7.15521">
        <ele>673</ele>
        <time>2019-02-23T10:25:57.000Z</time>
      </trkpt>
      <trkpt lat="43.81197" lon="7.15521">
        <ele>673.20001220703</ele>
        <time>2019-02-23T10:26:08.000Z</time>
      </trkpt>
      <trkpt lat="43.81196" lon="7.15519">
        <ele>673</ele>
        <time>2019-02-23T10:26:11.000Z</time>
      </trkpt>
      <trkpt lat="43.81194" lon="7.15516">
        <ele>672.79998779297</ele>
        <time>2019-02-23T10:26:13.000Z</time>
      </trkpt>
      <trkpt lat="43.81191" lon="7.1551">
        <ele>673</ele>
        <time>2019-02-23T10:26:16.000Z</time>
      </trkpt>
      <trkpt lat="43.81186" lon="7.15502">
        <ele>673.20001220703</ele>
        <time>2019-02-23T10:26:20.000Z</time>
      </trkpt>
      <trkpt lat="43.81182" lon="7.15496">
        <ele>673.59997558594</ele>
        <time>2019-02-23T10:26:24.000Z</time>
      </trkpt>
      <trkpt lat="43.81178" lon="7.15489">
        <ele>674.20001220703</ele>
        <time>2019-02-23T10:26:28.000Z</time>
      </trkpt>
      <trkpt lat="43.81175" lon="7.15482">
        <ele>674.59997558594</ele>
        <time>2019-02-23T10:26:32.000Z</time>
      </trkpt>
      <trkpt lat="43.81173" lon="7.15475">
        <ele>675.40002441406</ele>
        <time>2019-02-23T10:26:36.000Z</time>
      </trkpt>
      <trkpt lat="43.81171" lon="7.15472">
        <ele>675.79998779297</ele>
        <time>2019-02-23T10:26:38.000Z</time>
      </trkpt>
      <trkpt lat="43.81169" lon="7.15466">
        <ele>676.59997558594</ele>
        <time>2019-02-23T10:26:42.000Z</time>
      </trkpt>
      <trkpt lat="43.81166" lon="7.15461">
        <ele>677</ele>
        <time>2019-02-23T10:26:45.000Z</time>
      </trkpt>
      <trkpt lat="43.81163" lon="7.15455">
        <ele>677.79998779297</ele>
        <time>2019-02-23T10:26:49.000Z</time>
      </trkpt>
      <trkpt lat="43.81162" lon="7.15454">
        <ele>678</ele>
        <time>2019-02-23T10:26:50.000Z</time>
      </trkpt>
      <trkpt lat="43.81158" lon="7.15448">
        <ele>679</ele>
        <time>2019-02-23T10:26:54.000Z</time>
      </trkpt>
      <trkpt lat="43.81157" lon="7.15447">
        <ele>679.20001220703</ele>
        <time>2019-02-23T10:26:55.000Z</time>
      </trkpt>
      <trkpt lat="43.81152" lon="7.1544">
        <ele>680.20001220703</ele>
        <time>2019-02-23T10:27:00.000Z</time>
      </trkpt>
      <trkpt lat="43.81151" lon="7.15439">
        <ele>680.40002441406</ele>
        <time>2019-02-23T10:27:01.000Z</time>
      </trkpt>
      <trkpt lat="43.81148" lon="7.15431">
        <ele>681.20001220703</ele>
        <time>2019-02-23T10:27:06.000Z</time>
      </trkpt>
      <trkpt lat="43.81146" lon="7.15427">
        <ele>681.79998779297</ele>
        <time>2019-02-23T10:27:09.000Z</time>
      </trkpt>
      <trkpt lat="43.81144" lon="7.15423">
        <ele>682.20001220703</ele>
        <time>2019-02-23T10:27:11.000Z</time>
      </trkpt>
      <trkpt lat="43.81141" lon="7.15415">
        <ele>682.79998779297</ele>
        <time>2019-02-23T10:27:16.000Z</time>
      </trkpt>
      <trkpt lat="43.8114" lon="7.1541">
        <ele>683.40002441406</ele>
        <time>2019-02-23T10:27:19.000Z</time>
      </trkpt>
      <trkpt lat="43.81138" lon="7.15403">
        <ele>684</ele>
        <time>2019-02-23T10:27:23.000Z</time>
      </trkpt>
      <trkpt lat="43.81138" lon="7.154">
        <ele>684.40002441406</ele>
        <time>2019-02-23T10:27:25.000Z</time>
      </trkpt>
      <trkpt lat="43.81136" lon="7.15391">
        <ele>685.59997558594</ele>
        <time>2019-02-23T10:27:30.000Z</time>
      </trkpt>
      <trkpt lat="43.81134" lon="7.15384">
        <ele>686.59997558594</ele>
        <time>2019-02-23T10:27:35.000Z</time>
      </trkpt>
      <trkpt lat="43.81133" lon="7.15381">
        <ele>687</ele>
        <time>2019-02-23T10:27:37.000Z</time>
      </trkpt>
      <trkpt lat="43.8113" lon="7.15374">
        <ele>687.79998779297</ele>
        <time>2019-02-23T10:27:42.000Z</time>
      </trkpt>
      <trkpt lat="43.81128" lon="7.15369">
        <ele>688.20001220703</ele>
        <time>2019-02-23T10:27:45.000Z</time>
      </trkpt>
      <trkpt lat="43.81125" lon="7.15362">
        <ele>688.79998779297</ele>
        <time>2019-02-23T10:27:49.000Z</time>
      </trkpt>
      <trkpt lat="43.81123" lon="7.15358">
        <ele>689.20001220703</ele>
        <time>2019-02-23T10:27:52.000Z</time>
      </trkpt>
      <trkpt lat="43.81119" lon="7.15349">
        <ele>689.79998779297</ele>
        <time>2019-02-23T10:27:56.000Z</time>
      </trkpt>
      <trkpt lat="43.81116" lon="7.15344">
        <ele>690.59997558594</ele>
        <time>2019-02-23T10:27:59.000Z</time>
      </trkpt>
      <trkpt lat="43.81115" lon="7.15343">
        <ele>691</ele>
        <time>2019-02-23T10:28:00.000Z</time>
      </trkpt>
      <trkpt lat="43.81112" lon="7.15337">
        <ele>692</ele>
        <time>2019-02-23T10:28:04.000Z</time>
      </trkpt>
      <trkpt lat="43.81109" lon="7.15333">
        <ele>692.59997558594</ele>
        <time>2019-02-23T10:28:07.000Z</time>
      </trkpt>
      <trkpt lat="43.81104" lon="7.15325">
        <ele>693.20001220703</ele>
        <time>2019-02-23T10:28:12.000Z</time>
      </trkpt>
      <trkpt lat="43.81101" lon="7.15318">
        <ele>693.59997558594</ele>
        <time>2019-02-23T10:28:16.000Z</time>
      </trkpt>
      <trkpt lat="43.81096" lon="7.1531">
        <ele>694.40002441406</ele>
        <time>2019-02-23T10:28:22.000Z</time>
      </trkpt>
      <trkpt lat="43.81094" lon="7.15307">
        <ele>694.79998779297</ele>
        <time>2019-02-23T10:28:24.000Z</time>
      </trkpt>
      <trkpt lat="43.81091" lon="7.15301">
        <ele>695.40002441406</ele>
        <time>2019-02-23T10:28:28.000Z</time>
      </trkpt>
      <trkpt lat="43.81088" lon="7.15294">
        <ele>696.20001220703</ele>
        <time>2019-02-23T10:28:32.000Z</time>
      </trkpt>
      <trkpt lat="43.81087" lon="7.15293">
        <ele>696.59997558594</ele>
        <time>2019-02-23T10:28:33.000Z</time>
      </trkpt>
      <trkpt lat="43.81084" lon="7.15287">
        <ele>697.59997558594</ele>
        <time>2019-02-23T10:28:37.000Z</time>
      </trkpt>
      <trkpt lat="43.81083" lon="7.15284">
        <ele>697.79998779297</ele>
        <time>2019-02-23T10:28:39.000Z</time>
      </trkpt>
      <trkpt lat="43.81079" lon="7.15275">
        <ele>698.59997558594</ele>
        <time>2019-02-23T10:28:45.000Z</time>
      </trkpt>
      <trkpt lat="43.81078" lon="7.15274">
        <ele>698.79998779297</ele>
        <time>2019-02-23T10:28:46.000Z</time>
      </trkpt>
      <trkpt lat="43.81075" lon="7.15268">
        <ele>699.59997558594</ele>
        <time>2019-02-23T10:28:50.000Z</time>
      </trkpt>
      <trkpt lat="43.81072" lon="7.15263">
        <ele>700.40002441406</ele>
        <time>2019-02-23T10:28:54.000Z</time>
      </trkpt>
      <trkpt lat="43.81071" lon="7.1526">
        <ele>700.79998779297</ele>
        <time>2019-02-23T10:28:56.000Z</time>
      </trkpt>
      <trkpt lat="43.81067" lon="7.15254">
        <ele>701.59997558594</ele>
        <time>2019-02-23T10:29:01.000Z</time>
      </trkpt>
      <trkpt lat="43.81066" lon="7.15252">
        <ele>701.79998779297</ele>
        <time>2019-02-23T10:29:02.000Z</time>
      </trkpt>
      <trkpt lat="43.81062" lon="7.15245">
        <ele>703</ele>
        <time>2019-02-23T10:29:08.000Z</time>
      </trkpt>
      <trkpt lat="43.81061" lon="7.15244">
        <ele>703</ele>
        <time>2019-02-23T10:29:09.000Z</time>
      </trkpt>
      <trkpt lat="43.81059" lon="7.15241">
        <ele>703.59997558594</ele>
        <time>2019-02-23T10:29:16.000Z</time>
      </trkpt>
      <trkpt lat="43.81058" lon="7.15241">
        <ele>703.40002441406</ele>
        <time>2019-02-23T10:29:26.000Z</time>
      </trkpt>
      <trkpt lat="43.81059" lon="7.15239">
        <ele>703.79998779297</ele>
        <time>2019-02-23T10:29:40.000Z</time>
      </trkpt>
      <trkpt lat="43.81059" lon="7.15241">
        <ele>703.79998779297</ele>
        <time>2019-02-23T10:29:54.000Z</time>
      </trkpt>
      <trkpt lat="43.81058" lon="7.15243">
        <ele>703.79998779297</ele>
        <time>2019-02-23T10:29:56.000Z</time>
      </trkpt>
      <trkpt lat="43.81058" lon="7.15243">
        <ele>703.59997558594</ele>
        <time>2019-02-23T10:29:58.000Z</time>
      </trkpt>
      <trkpt lat="43.81058" lon="7.15243">
        <ele>703.79998779297</ele>
        <time>2019-02-23T10:30:05.000Z</time>
      </trkpt>
      <trkpt lat="43.81058" lon="7.15243">
        <ele>704</ele>
        <time>2019-02-23T10:30:06.000Z</time>
      </trkpt>
      <trkpt lat="43.81056" lon="7.15241">
        <ele>704.20001220703</ele>
        <time>2019-02-23T10:30:08.000Z</time>
      </trkpt>
      <trkpt lat="43.81057" lon="7.15241">
        <ele>704</ele>
        <time>2019-02-23T10:30:10.000Z</time>
      </trkpt>
      <trkpt lat="43.81052" lon="7.1524">
        <ele>704.40002441406</ele>
        <time>2019-02-23T10:30:17.000Z</time>
      </trkpt>
      <trkpt lat="43.81052" lon="7.1524">
        <ele>705.20001220703</ele>
        <time>2019-02-23T10:30:20.000Z</time>
      </trkpt>
      <trkpt lat="43.81052" lon="7.1524">
        <ele>705.79998779297</ele>
        <time>2019-02-23T10:30:22.000Z</time>
      </trkpt>
      <trkpt lat="43.8105" lon="7.1524">
        <ele>706.20001220703</ele>
        <time>2019-02-23T10:30:25.000Z</time>
      </trkpt>
      <trkpt lat="43.81049" lon="7.1524">
        <ele>706.59997558594</ele>
        <time>2019-02-23T10:30:29.000Z</time>
      </trkpt>
      <trkpt lat="43.81048" lon="7.15239">
        <ele>707.20001220703</ele>
        <time>2019-02-23T10:30:33.000Z</time>
      </trkpt>
      <trkpt lat="43.81047" lon="7.15239">
        <ele>707.59997558594</ele>
        <time>2019-02-23T10:30:35.000Z</time>
      </trkpt>
      <trkpt lat="43.81046" lon="7.15239">
        <ele>708.20001220703</ele>
        <time>2019-02-23T10:30:38.000Z</time>
      </trkpt>
      <trkpt lat="43.81046" lon="7.15239">
        <ele>708.59997558594</ele>
        <time>2019-02-23T10:30:44.000Z</time>
      </trkpt>
      <trkpt lat="43.81045" lon="7.15242">
        <ele>708.79998779297</ele>
        <time>2019-02-23T10:30:49.000Z</time>
      </trkpt>
      <trkpt lat="43.81044" lon="7.15245">
        <ele>709.40002441406</ele>
        <time>2019-02-23T10:30:54.000Z</time>
      </trkpt>
      <trkpt lat="43.81043" lon="7.15246">
        <ele>709.79998779297</ele>
        <time>2019-02-23T10:30:57.000Z</time>
      </trkpt>
      <trkpt lat="43.81042" lon="7.15247">
        <ele>710.59997558594</ele>
        <time>2019-02-23T10:31:02.000Z</time>
      </trkpt>
      <trkpt lat="43.81041" lon="7.15248">
        <ele>710.59997558594</ele>
        <time>2019-02-23T10:31:03.000Z</time>
      </trkpt>
      <trkpt lat="43.81039" lon="7.15249">
        <ele>711.59997558594</ele>
        <time>2019-02-23T10:31:09.000Z</time>
      </trkpt>
      <trkpt lat="43.81036" lon="7.15251">
        <ele>712.59997558594</ele>
        <time>2019-02-23T10:31:15.000Z</time>
      </trkpt>
      <trkpt lat="43.81036" lon="7.15252">
        <ele>712.59997558594</ele>
        <time>2019-02-23T10:31:16.000Z</time>
      </trkpt>
      <trkpt lat="43.81033" lon="7.15255">
        <ele>713</ele>
        <time>2019-02-23T10:31:20.000Z</time>
      </trkpt>
      <trkpt lat="43.81032" lon="7.15254">
        <ele>713.40002441406</ele>
        <time>2019-02-23T10:31:24.000Z</time>
      </trkpt>
      <trkpt lat="43.81031" lon="7.15254">
        <ele>713.79998779297</ele>
        <time>2019-02-23T10:31:26.000Z</time>
      </trkpt>
      <trkpt lat="43.81031" lon="7.1525">
        <ele>713.59997558594</ele>
        <time>2019-02-23T10:31:29.000Z</time>
      </trkpt>
      <trkpt lat="43.8103" lon="7.15249">
        <ele>713.59997558594</ele>
        <time>2019-02-23T10:31:30.000Z</time>
      </trkpt>
      <trkpt lat="43.81027" lon="7.15241">
        <ele>713.79998779297</ele>
        <time>2019-02-23T10:31:34.000Z</time>
      </trkpt>
      <trkpt lat="43.8102" lon="7.15225">
        <ele>715</ele>
        <time>2019-02-23T10:31:42.000Z</time>
      </trkpt>
      <trkpt lat="43.81017" lon="7.15213">
        <ele>716</ele>
        <time>2019-02-23T10:31:48.000Z</time>
      </trkpt>
      <trkpt lat="43.81017" lon="7.1521">
        <ele>716</ele>
        <time>2019-02-23T10:31:49.000Z</time>
      </trkpt>
      <trkpt lat="43.81015" lon="7.15189">
        <ele>715.79998779297</ele>
        <time>2019-02-23T10:31:54.000Z</time>
      </trkpt>
      <trkpt lat="43.81008" lon="7.15175">
        <ele>715.40002441406</ele>
        <time>2019-02-23T10:31:59.000Z</time>
      </trkpt>
      <trkpt lat="43.81002" lon="7.15162">
        <ele>716.59997558594</ele>
        <time>2019-02-23T10:32:05.000Z</time>
      </trkpt>
      <trkpt lat="43.80998" lon="7.15156">
        <ele>717.20001220703</ele>
        <time>2019-02-23T10:32:08.000Z</time>
      </trkpt>
      <trkpt lat="43.80992" lon="7.15143">
        <ele>717.79998779297</ele>
        <time>2019-02-23T10:32:14.000Z</time>
      </trkpt>
      <trkpt lat="43.8099" lon="7.15136">
        <ele>718.40002441406</ele>
        <time>2019-02-23T10:32:17.000Z</time>
      </trkpt>
      <trkpt lat="43.80989" lon="7.15131">
        <ele>718.59997558594</ele>
        <time>2019-02-23T10:32:19.000Z</time>
      </trkpt>
      <trkpt lat="43.80985" lon="7.15119">
        <ele>719.20001220703</ele>
        <time>2019-02-23T10:32:25.000Z</time>
      </trkpt>
      <trkpt lat="43.80984" lon="7.15118">
        <ele>719.40002441406</ele>
        <time>2019-02-23T10:32:26.000Z</time>
      </trkpt>
      <trkpt lat="43.8098" lon="7.15116">
        <ele>720.59997558594</ele>
        <time>2019-02-23T10:32:30.000Z</time>
      </trkpt>
      <trkpt lat="43.80979" lon="7.15124">
        <ele>721.20001220703</ele>
        <time>2019-02-23T10:32:35.000Z</time>
      </trkpt>
      <trkpt lat="43.80979" lon="7.15126">
        <ele>721.59997558594</ele>
        <time>2019-02-23T10:32:37.000Z</time>
      </trkpt>
      <trkpt lat="43.80979" lon="7.15131">
        <ele>722.40002441406</ele>
        <time>2019-02-23T10:32:40.000Z</time>
      </trkpt>
      <trkpt lat="43.80979" lon="7.15133">
        <ele>722.59997558594</ele>
        <time>2019-02-23T10:32:41.000Z</time>
      </trkpt>
      <trkpt lat="43.80976" lon="7.15139">
        <ele>723.79998779297</ele>
        <time>2019-02-23T10:32:46.000Z</time>
      </trkpt>
      <trkpt lat="43.80973" lon="7.15148">
        <ele>725</ele>
        <time>2019-02-23T10:32:53.000Z</time>
      </trkpt>
      <trkpt lat="43.8097" lon="7.15157">
        <ele>726</ele>
        <time>2019-02-23T10:32:58.000Z</time>
      </trkpt>
      <trkpt lat="43.80969" lon="7.1516">
        <ele>726.40002441406</ele>
        <time>2019-02-23T10:33:00.000Z</time>
      </trkpt>
      <trkpt lat="43.80967" lon="7.15164">
        <ele>727.20001220703</ele>
        <time>2019-02-23T10:33:03.000Z</time>
      </trkpt>
      <trkpt lat="43.80965" lon="7.15167">
        <ele>727.79998779297</ele>
        <time>2019-02-23T10:33:06.000Z</time>
      </trkpt>
      <trkpt lat="43.80964" lon="7.15172">
        <ele>728.20001220703</ele>
        <time>2019-02-23T10:33:10.000Z</time>
      </trkpt>
      <trkpt lat="43.80962" lon="7.15176">
        <ele>728.40002441406</ele>
        <time>2019-02-23T10:33:12.000Z</time>
      </trkpt>
      <trkpt lat="43.80959" lon="7.15179">
        <ele>729.20001220703</ele>
        <time>2019-02-23T10:33:17.000Z</time>
      </trkpt>
      <trkpt lat="43.80959" lon="7.15179">
        <ele>729.40002441406</ele>
        <time>2019-02-23T10:33:18.000Z</time>
      </trkpt>
      <trkpt lat="43.80958" lon="7.15181">
        <ele>729.59997558594</ele>
        <time>2019-02-23T10:33:19.000Z</time>
      </trkpt>
      <trkpt lat="43.80956" lon="7.15184">
        <ele>730</ele>
        <time>2019-02-23T10:33:22.000Z</time>
      </trkpt>
      <trkpt lat="43.80952" lon="7.15189">
        <ele>730.59997558594</ele>
        <time>2019-02-23T10:33:27.000Z</time>
      </trkpt>
      <trkpt lat="43.80951" lon="7.15191">
        <ele>730.79998779297</ele>
        <time>2019-02-23T10:33:28.000Z</time>
      </trkpt>
      <trkpt lat="43.80946" lon="7.15195">
        <ele>731.59997558594</ele>
        <time>2019-02-23T10:33:33.000Z</time>
      </trkpt>
      <trkpt lat="43.80941" lon="7.15202">
        <ele>732.79998779297</ele>
        <time>2019-02-23T10:33:39.000Z</time>
      </trkpt>
      <trkpt lat="43.80936" lon="7.15205">
        <ele>733.59997558594</ele>
        <time>2019-02-23T10:33:44.000Z</time>
      </trkpt>
      <trkpt lat="43.80936" lon="7.15206">
        <ele>733.79998779297</ele>
        <time>2019-02-23T10:33:45.000Z</time>
      </trkpt>
      <trkpt lat="43.80935" lon="7.15206">
        <ele>734</ele>
        <time>2019-02-23T10:33:46.000Z</time>
      </trkpt>
      <trkpt lat="43.80932" lon="7.15206">
        <ele>734.40002441406</ele>
        <time>2019-02-23T10:33:50.000Z</time>
      </trkpt>
      <trkpt lat="43.80931" lon="7.15208">
        <ele>734.59997558594</ele>
        <time>2019-02-23T10:33:51.000Z</time>
      </trkpt>
      <trkpt lat="43.80929" lon="7.15211">
        <ele>735</ele>
        <time>2019-02-23T10:33:54.000Z</time>
      </trkpt>
      <trkpt lat="43.80928" lon="7.15213">
        <ele>735.20001220703</ele>
        <time>2019-02-23T10:33:56.000Z</time>
      </trkpt>
      <trkpt lat="43.80922" lon="7.15218">
        <ele>736</ele>
        <time>2019-02-23T10:34:01.000Z</time>
      </trkpt>
      <trkpt lat="43.80922" lon="7.15219">
        <ele>736.20001220703</ele>
        <time>2019-02-23T10:34:02.000Z</time>
      </trkpt>
      <trkpt lat="43.80914" lon="7.15233">
        <ele>736.40002441406</ele>
        <time>2019-02-23T10:34:10.000Z</time>
      </trkpt>
      <trkpt lat="43.8091" lon="7.15239">
        <ele>737.20001220703</ele>
        <time>2019-02-23T10:34:15.000Z</time>
      </trkpt>
      <trkpt lat="43.80909" lon="7.1524">
        <ele>737.40002441406</ele>
        <time>2019-02-23T10:34:16.000Z</time>
      </trkpt>
      <trkpt lat="43.80907" lon="7.15239">
        <ele>737.59997558594</ele>
        <time>2019-02-23T10:34:20.000Z</time>
      </trkpt>
      <trkpt lat="43.80906" lon="7.15239">
        <ele>737.59997558594</ele>
        <time>2019-02-23T10:34:29.000Z</time>
      </trkpt>
      <trkpt lat="43.80906" lon="7.1524">
        <ele>737.40002441406</ele>
        <time>2019-02-23T10:34:46.000Z</time>
      </trkpt>
      <trkpt lat="43.80907" lon="7.15239">
        <ele>736.79998779297</ele>
        <time>2019-02-23T10:35:15.000Z</time>
      </trkpt>
      <trkpt lat="43.80905" lon="7.15236">
        <ele>736.79998779297</ele>
        <time>2019-02-23T10:35:19.000Z</time>
      </trkpt>
      <trkpt lat="43.80905" lon="7.15234">
        <ele>736.79998779297</ele>
        <time>2019-02-23T10:35:20.000Z</time>
      </trkpt>
      <trkpt lat="43.80903" lon="7.15229">
        <ele>736.79998779297</ele>
        <time>2019-02-23T10:35:23.000Z</time>
      </trkpt>
      <trkpt lat="43.80901" lon="7.15223">
        <ele>736.59997558594</ele>
        <time>2019-02-23T10:35:26.000Z</time>
      </trkpt>
      <trkpt lat="43.80896" lon="7.15213">
        <ele>736.79998779297</ele>
        <time>2019-02-23T10:35:31.000Z</time>
      </trkpt>
      <trkpt lat="43.80891" lon="7.15203">
        <ele>737.20001220703</ele>
        <time>2019-02-23T10:35:36.000Z</time>
      </trkpt>
      <trkpt lat="43.80883" lon="7.15195">
        <ele>738</ele>
        <time>2019-02-23T10:35:42.000Z</time>
      </trkpt>
      <trkpt lat="43.80875" lon="7.15187">
        <ele>738.40002441406</ele>
        <time>2019-02-23T10:35:48.000Z</time>
      </trkpt>
      <trkpt lat="43.80868" lon="7.15176">
        <ele>739</ele>
        <time>2019-02-23T10:35:55.000Z</time>
      </trkpt>
      <trkpt lat="43.80867" lon="7.15171">
        <ele>739.40002441406</ele>
        <time>2019-02-23T10:35:58.000Z</time>
      </trkpt>
      <trkpt lat="43.80867" lon="7.15166">
        <ele>739.59997558594</ele>
        <time>2019-02-23T10:36:01.000Z</time>
      </trkpt>
      <trkpt lat="43.80865" lon="7.15152">
        <ele>739.59997558594</ele>
        <time>2019-02-23T10:36:07.000Z</time>
      </trkpt>
      <trkpt lat="43.8086" lon="7.15135">
        <ele>739.59997558594</ele>
        <time>2019-02-23T10:36:14.000Z</time>
      </trkpt>
      <trkpt lat="43.80853" lon="7.15121">
        <ele>740</ele>
        <time>2019-02-23T10:36:21.000Z</time>
      </trkpt>
      <trkpt lat="43.8085" lon="7.15107">
        <ele>740</ele>
        <time>2019-02-23T10:36:27.000Z</time>
      </trkpt>
      <trkpt lat="43.80848" lon="7.151">
        <ele>740.40002441406</ele>
        <time>2019-02-23T10:36:30.000Z</time>
      </trkpt>
      <trkpt lat="43.80843" lon="7.15087">
        <ele>740.40002441406</ele>
        <time>2019-02-23T10:36:35.000Z</time>
      </trkpt>
      <trkpt lat="43.80835" lon="7.15066">
        <ele>741</ele>
        <time>2019-02-23T10:36:44.000Z</time>
      </trkpt>
      <trkpt lat="43.80831" lon="7.15059">
        <ele>741.40002441406</ele>
        <time>2019-02-23T10:36:47.000Z</time>
      </trkpt>
      <trkpt lat="43.80826" lon="7.1505">
        <ele>742.20001220703</ele>
        <time>2019-02-23T10:36:52.000Z</time>
      </trkpt>
      <trkpt lat="43.80824" lon="7.15046">
        <ele>742.40002441406</ele>
        <time>2019-02-23T10:36:54.000Z</time>
      </trkpt>
      <trkpt lat="43.80818" lon="7.15034">
        <ele>743</ele>
        <time>2019-02-23T10:37:00.000Z</time>
      </trkpt>
      <trkpt lat="43.80815" lon="7.15027">
        <ele>743.59997558594</ele>
        <time>2019-02-23T10:37:04.000Z</time>
      </trkpt>
      <trkpt lat="43.80812" lon="7.15021">
        <ele>744</ele>
        <time>2019-02-23T10:37:07.000Z</time>
      </trkpt>
      <trkpt lat="43.80805" lon="7.15008">
        <ele>744.59997558594</ele>
        <time>2019-02-23T10:37:14.000Z</time>
      </trkpt>
      <trkpt lat="43.80805" lon="7.15005">
        <ele>744.79998779297</ele>
        <time>2019-02-23T10:37:15.000Z</time>
      </trkpt>
      <trkpt lat="43.80799" lon="7.14978">
        <ele>745</ele>
        <time>2019-02-23T10:37:26.000Z</time>
      </trkpt>
      <trkpt lat="43.80791" lon="7.14956">
        <ele>744.59997558594</ele>
        <time>2019-02-23T10:37:35.000Z</time>
      </trkpt>
      <trkpt lat="43.80782" lon="7.14934">
        <ele>745</ele>
        <time>2019-02-23T10:37:45.000Z</time>
      </trkpt>
      <trkpt lat="43.80781" lon="7.14931">
        <ele>745</ele>
        <time>2019-02-23T10:37:49.000Z</time>
      </trkpt>
      <trkpt lat="43.80779" lon="7.14927">
        <ele>744.79998779297</ele>
        <time>2019-02-23T10:37:57.000Z</time>
      </trkpt>
      <trkpt lat="43.80778" lon="7.14924">
        <ele>744.40002441406</ele>
        <time>2019-02-23T10:38:03.000Z</time>
      </trkpt>
      <trkpt lat="43.80778" lon="7.14922">
        <ele>744.40002441406</ele>
        <time>2019-02-23T10:38:11.000Z</time>
      </trkpt>
      <trkpt lat="43.80777" lon="7.1492">
        <ele>744.40002441406</ele>
        <time>2019-02-23T10:38:18.000Z</time>
      </trkpt>
      <trkpt lat="43.80777" lon="7.14919">
        <ele>744.40002441406</ele>
        <time>2019-02-23T10:38:25.000Z</time>
      </trkpt>
      <trkpt lat="43.80776" lon="7.14915">
        <ele>744.40002441406</ele>
        <time>2019-02-23T10:38:32.000Z</time>
      </trkpt>
      <trkpt lat="43.80775" lon="7.14911">
        <ele>744</ele>
        <time>2019-02-23T10:38:37.000Z</time>
      </trkpt>
      <trkpt lat="43.80776" lon="7.1491">
        <ele>744</ele>
        <time>2019-02-23T10:38:40.000Z</time>
      </trkpt>
      <trkpt lat="43.80776" lon="7.14907">
        <ele>744</ele>
        <time>2019-02-23T10:38:42.000Z</time>
      </trkpt>
      <trkpt lat="43.80774" lon="7.14894">
        <ele>743.79998779297</ele>
        <time>2019-02-23T10:38:48.000Z</time>
      </trkpt>
      <trkpt lat="43.80772" lon="7.14881">
        <ele>743.79998779297</ele>
        <time>2019-02-23T10:38:53.000Z</time>
      </trkpt>
      <trkpt lat="43.80771" lon="7.14873">
        <ele>743.59997558594</ele>
        <time>2019-02-23T10:38:56.000Z</time>
      </trkpt>
      <trkpt lat="43.8077" lon="7.14867">
        <ele>743.40002441406</ele>
        <time>2019-02-23T10:38:58.000Z</time>
      </trkpt>
      <trkpt lat="43.80767" lon="7.14843">
        <ele>742.79998779297</ele>
        <time>2019-02-23T10:39:05.000Z</time>
      </trkpt>
      <trkpt lat="43.80766" lon="7.14839">
        <ele>742.40002441406</ele>
        <time>2019-02-23T10:39:09.000Z</time>
      </trkpt>
      <trkpt lat="43.80766" lon="7.14836">
        <ele>742</ele>
        <time>2019-02-23T10:39:17.000Z</time>
      </trkpt>
      <trkpt lat="43.80765" lon="7.14833">
        <ele>742.40002441406</ele>
        <time>2019-02-23T10:39:23.000Z</time>
      </trkpt>
      <trkpt lat="43.80763" lon="7.14829">
        <ele>742.20001220703</ele>
        <time>2019-02-23T10:39:30.000Z</time>
      </trkpt>
      <trkpt lat="43.8076" lon="7.14824">
        <ele>742.59997558594</ele>
        <time>2019-02-23T10:39:38.000Z</time>
      </trkpt>
      <trkpt lat="43.80756" lon="7.1482">
        <ele>743.40002441406</ele>
        <time>2019-02-23T10:39:46.000Z</time>
      </trkpt>
      <trkpt lat="43.80755" lon="7.14817">
        <ele>744.20001220703</ele>
        <time>2019-02-23T10:39:53.000Z</time>
      </trkpt>
      <trkpt lat="43.80754" lon="7.14811">
        <ele>744</ele>
        <time>2019-02-23T10:39:59.000Z</time>
      </trkpt>
      <trkpt lat="43.80754" lon="7.14801">
        <ele>744.20001220703</ele>
        <time>2019-02-23T10:40:04.000Z</time>
      </trkpt>
      <trkpt lat="43.80753" lon="7.14791">
        <ele>744.40002441406</ele>
        <time>2019-02-23T10:40:08.000Z</time>
      </trkpt>
      <trkpt lat="43.80753" lon="7.14788">
        <ele>744.40002441406</ele>
        <time>2019-02-23T10:40:09.000Z</time>
      </trkpt>
      <trkpt lat="43.80751" lon="7.14779">
        <ele>744.40002441406</ele>
        <time>2019-02-23T10:40:13.000Z</time>
      </trkpt>
      <trkpt lat="43.80748" lon="7.14768">
        <ele>744.79998779297</ele>
        <time>2019-02-23T10:40:19.000Z</time>
      </trkpt>
      <trkpt lat="43.80748" lon="7.14767">
        <ele>745</ele>
        <time>2019-02-23T10:40:20.000Z</time>
      </trkpt>
      <trkpt lat="43.80748" lon="7.14766">
        <ele>745.59997558594</ele>
        <time>2019-02-23T10:40:23.000Z</time>
      </trkpt>
      <trkpt lat="43.80748" lon="7.14766">
        <ele>745.59997558594</ele>
        <time>2019-02-23T10:40:27.000Z</time>
      </trkpt>
      <trkpt lat="43.80746" lon="7.14759">
        <ele>745.59997558594</ele>
        <time>2019-02-23T10:40:34.000Z</time>
      </trkpt>
      <trkpt lat="43.80741" lon="7.14752">
        <ele>745.59997558594</ele>
        <time>2019-02-23T10:40:39.000Z</time>
      </trkpt>
      <trkpt lat="43.80738" lon="7.14749">
        <ele>746.20001220703</ele>
        <time>2019-02-23T10:40:42.000Z</time>
      </trkpt>
      <trkpt lat="43.80736" lon="7.14748">
        <ele>746.59997558594</ele>
        <time>2019-02-23T10:40:44.000Z</time>
      </trkpt>
      <trkpt lat="43.80734" lon="7.14748">
        <ele>746.79998779297</ele>
        <time>2019-02-23T10:40:45.000Z</time>
      </trkpt>
      <trkpt lat="43.80729" lon="7.14743">
        <ele>746.79998779297</ele>
        <time>2019-02-23T10:40:49.000Z</time>
      </trkpt>
      <trkpt lat="43.80728" lon="7.14742">
        <ele>746.59997558594</ele>
        <time>2019-02-23T10:40:50.000Z</time>
      </trkpt>
      <trkpt lat="43.80727" lon="7.14741">
        <ele>746.79998779297</ele>
        <time>2019-02-23T10:40:51.000Z</time>
      </trkpt>
      <trkpt lat="43.80724" lon="7.14739">
        <ele>747.40002441406</ele>
        <time>2019-02-23T10:40:55.000Z</time>
      </trkpt>
      <trkpt lat="43.80722" lon="7.14738">
        <ele>747.79998779297</ele>
        <time>2019-02-23T10:40:58.000Z</time>
      </trkpt>
      <trkpt lat="43.80721" lon="7.14738">
        <ele>747.79998779297</ele>
        <time>2019-02-23T10:41:01.000Z</time>
      </trkpt>
      <trkpt lat="43.80719" lon="7.14737">
        <ele>748.40002441406</ele>
        <time>2019-02-23T10:41:06.000Z</time>
      </trkpt>
      <trkpt lat="43.80716" lon="7.14734">
        <ele>748.59997558594</ele>
        <time>2019-02-23T10:41:12.000Z</time>
      </trkpt>
      <trkpt lat="43.80714" lon="7.14727">
        <ele>748.79998779297</ele>
        <time>2019-02-23T10:41:16.000Z</time>
      </trkpt>
      <trkpt lat="43.80712" lon="7.14724">
        <ele>749</ele>
        <time>2019-02-23T10:41:18.000Z</time>
      </trkpt>
      <trkpt lat="43.80704" lon="7.14717">
        <ele>749.59997558594</ele>
        <time>2019-02-23T10:41:24.000Z</time>
      </trkpt>
      <trkpt lat="43.80703" lon="7.14715">
        <ele>749.79998779297</ele>
        <time>2019-02-23T10:41:25.000Z</time>
      </trkpt>
      <trkpt lat="43.80703" lon="7.14713">
        <ele>749.79998779297</ele>
        <time>2019-02-23T10:41:26.000Z</time>
      </trkpt>
      <trkpt lat="43.80699" lon="7.14705">
        <ele>750.59997558594</ele>
        <time>2019-02-23T10:41:31.000Z</time>
      </trkpt>
      <trkpt lat="43.80699" lon="7.147">
        <ele>750.79998779297</ele>
        <time>2019-02-23T10:41:33.000Z</time>
      </trkpt>
      <trkpt lat="43.80699" lon="7.14699">
        <ele>751</ele>
        <time>2019-02-23T10:41:34.000Z</time>
      </trkpt>
      <trkpt lat="43.80699" lon="7.14696">
        <ele>751.20001220703</ele>
        <time>2019-02-23T10:41:35.000Z</time>
      </trkpt>
      <trkpt lat="43.80698" lon="7.14694">
        <ele>751.40002441406</ele>
        <time>2019-02-23T10:41:36.000Z</time>
      </trkpt>
      <trkpt lat="43.80698" lon="7.14679">
        <ele>752</ele>
        <time>2019-02-23T10:41:43.000Z</time>
      </trkpt>
      <trkpt lat="43.807" lon="7.14667">
        <ele>752.79998779297</ele>
        <time>2019-02-23T10:41:48.000Z</time>
      </trkpt>
      <trkpt lat="43.80699" lon="7.14654">
        <ele>753.20001220703</ele>
        <time>2019-02-23T10:41:54.000Z</time>
      </trkpt>
      <trkpt lat="43.80696" lon="7.14646">
        <ele>754.40002441406</ele>
        <time>2019-02-23T10:41:58.000Z</time>
      </trkpt>
      <trkpt lat="43.80696" lon="7.14644">
        <ele>754.79998779297</ele>
        <time>2019-02-23T10:42:00.000Z</time>
      </trkpt>
      <trkpt lat="43.80695" lon="7.14642">
        <ele>755.40002441406</ele>
        <time>2019-02-23T10:42:05.000Z</time>
      </trkpt>
      <trkpt lat="43.80694" lon="7.14641">
        <ele>755.40002441406</ele>
        <time>2019-02-23T10:42:06.000Z</time>
      </trkpt>
      <trkpt lat="43.80692" lon="7.14637">
        <ele>755.20001220703</ele>
        <time>2019-02-23T10:42:12.000Z</time>
      </trkpt>
      <trkpt lat="43.8069" lon="7.14632">
        <ele>756.20001220703</ele>
        <time>2019-02-23T10:42:19.000Z</time>
      </trkpt>
      <trkpt lat="43.8069" lon="7.14632">
        <ele>756.59997558594</ele>
        <time>2019-02-23T10:42:20.000Z</time>
      </trkpt>
      <trkpt lat="43.80688" lon="7.1463">
        <ele>757.59997558594</ele>
        <time>2019-02-23T10:42:24.000Z</time>
      </trkpt>
      <trkpt lat="43.80688" lon="7.14629">
        <ele>757.79998779297</ele>
        <time>2019-02-23T10:42:26.000Z</time>
      </trkpt>
      <trkpt lat="43.80683" lon="7.14625">
        <ele>757.79998779297</ele>
        <time>2019-02-23T10:42:35.000Z</time>
      </trkpt>
      <trkpt lat="43.80672" lon="7.14618">
        <ele>757.59997558594</ele>
        <time>2019-02-23T10:42:42.000Z</time>
      </trkpt>
      <trkpt lat="43.80669" lon="7.14617">
        <ele>758.20001220703</ele>
        <time>2019-02-23T10:42:44.000Z</time>
      </trkpt>
      <trkpt lat="43.80667" lon="7.14616">
        <ele>758.40002441406</ele>
        <time>2019-02-23T10:42:46.000Z</time>
      </trkpt>
      <trkpt lat="43.80665" lon="7.14615">
        <ele>758.59997558594</ele>
        <time>2019-02-23T10:42:47.000Z</time>
      </trkpt>
      <trkpt lat="43.80661" lon="7.14614">
        <ele>758.59997558594</ele>
        <time>2019-02-23T10:42:51.000Z</time>
      </trkpt>
      <trkpt lat="43.80659" lon="7.14612">
        <ele>758.79998779297</ele>
        <time>2019-02-23T10:42:57.000Z</time>
      </trkpt>
      <trkpt lat="43.80656" lon="7.1461">
        <ele>759.40002441406</ele>
        <time>2019-02-23T10:43:03.000Z</time>
      </trkpt>
      <trkpt lat="43.80655" lon="7.14609">
        <ele>759.59997558594</ele>
        <time>2019-02-23T10:43:04.000Z</time>
      </trkpt>
      <trkpt lat="43.80655" lon="7.14609">
        <ele>760</ele>
        <time>2019-02-23T10:43:08.000Z</time>
      </trkpt>
      <trkpt lat="43.80651" lon="7.14607">
        <ele>759.79998779297</ele>
        <time>2019-02-23T10:43:15.000Z</time>
      </trkpt>
      <trkpt lat="43.80645" lon="7.14603">
        <ele>760.59997558594</ele>
        <time>2019-02-23T10:43:20.000Z</time>
      </trkpt>
      <trkpt lat="43.80644" lon="7.14602">
        <ele>760.79998779297</ele>
        <time>2019-02-23T10:43:21.000Z</time>
      </trkpt>
      <trkpt lat="43.80635" lon="7.14596">
        <ele>761.40002441406</ele>
        <time>2019-02-23T10:43:27.000Z</time>
      </trkpt>
      <trkpt lat="43.80634" lon="7.14596">
        <ele>761.59997558594</ele>
        <time>2019-02-23T10:43:28.000Z</time>
      </trkpt>
      <trkpt lat="43.80632" lon="7.14595">
        <ele>762</ele>
        <time>2019-02-23T10:43:30.000Z</time>
      </trkpt>
      <trkpt lat="43.80628" lon="7.14594">
        <ele>762.79998779297</ele>
        <time>2019-02-23T10:43:33.000Z</time>
      </trkpt>
      <trkpt lat="43.80618" lon="7.14589">
        <ele>763.40002441406</ele>
        <time>2019-02-23T10:43:39.000Z</time>
      </trkpt>
      <trkpt lat="43.80614" lon="7.14586">
        <ele>763.79998779297</ele>
        <time>2019-02-23T10:43:42.000Z</time>
      </trkpt>
      <trkpt lat="43.80606" lon="7.14582">
        <ele>764.59997558594</ele>
        <time>2019-02-23T10:43:47.000Z</time>
      </trkpt>
      <trkpt lat="43.80605" lon="7.14581">
        <ele>764.79998779297</ele>
        <time>2019-02-23T10:43:48.000Z</time>
      </trkpt>
      <trkpt lat="43.80599" lon="7.14578">
        <ele>766</ele>
        <time>2019-02-23T10:43:53.000Z</time>
      </trkpt>
      <trkpt lat="43.80596" lon="7.14578">
        <ele>766.20001220703</ele>
        <time>2019-02-23T10:43:55.000Z</time>
      </trkpt>
      <trkpt lat="43.80587" lon="7.14574">
        <ele>767</ele>
        <time>2019-02-23T10:44:00.000Z</time>
      </trkpt>
      <trkpt lat="43.80586" lon="7.14574">
        <ele>767.20001220703</ele>
        <time>2019-02-23T10:44:01.000Z</time>
      </trkpt>
      <trkpt lat="43.80582" lon="7.14572">
        <ele>768</ele>
        <time>2019-02-23T10:44:05.000Z</time>
      </trkpt>
      <trkpt lat="43.8058" lon="7.14571">
        <ele>768.40002441406</ele>
        <time>2019-02-23T10:44:06.000Z</time>
      </trkpt>
      <trkpt lat="43.80576" lon="7.14569">
        <ele>769.20001220703</ele>
        <time>2019-02-23T10:44:09.000Z</time>
      </trkpt>
      <trkpt lat="43.80572" lon="7.14565">
        <ele>769.59997558594</ele>
        <time>2019-02-23T10:44:13.000Z</time>
      </trkpt>
      <trkpt lat="43.80569" lon="7.1456">
        <ele>770.20001220703</ele>
        <time>2019-02-23T10:44:16.000Z</time>
      </trkpt>
      <trkpt lat="43.80566" lon="7.14557">
        <ele>770.79998779297</ele>
        <time>2019-02-23T10:44:20.000Z</time>
      </trkpt>
      <trkpt lat="43.80564" lon="7.14554">
        <ele>771</ele>
        <time>2019-02-23T10:44:28.000Z</time>
      </trkpt>
      <trkpt lat="43.80563" lon="7.14553">
        <ele>771.40002441406</ele>
        <time>2019-02-23T10:44:30.000Z</time>
      </trkpt>
      <trkpt lat="43.8056" lon="7.1455">
        <ele>772</ele>
        <time>2019-02-23T10:44:35.000Z</time>
      </trkpt>
      <trkpt lat="43.80559" lon="7.14549">
        <ele>772.40002441406</ele>
        <time>2019-02-23T10:44:38.000Z</time>
      </trkpt>
      <trkpt lat="43.80556" lon="7.14549">
        <ele>773.20001220703</ele>
        <time>2019-02-23T10:44:42.000Z</time>
      </trkpt>
      <trkpt lat="43.80555" lon="7.14549">
        <ele>773.59997558594</ele>
        <time>2019-02-23T10:44:44.000Z</time>
      </trkpt>
      <trkpt lat="43.80552" lon="7.14546">
        <ele>774</ele>
        <time>2019-02-23T10:44:48.000Z</time>
      </trkpt>
      <trkpt lat="43.80552" lon="7.14544">
        <ele>774.40002441406</ele>
        <time>2019-02-23T10:44:50.000Z</time>
      </trkpt>
      <trkpt lat="43.80551" lon="7.14543">
        <ele>774.59997558594</ele>
        <time>2019-02-23T10:44:52.000Z</time>
      </trkpt>
      <trkpt lat="43.80549" lon="7.14536">
        <ele>775.59997558594</ele>
        <time>2019-02-23T10:44:59.000Z</time>
      </trkpt>
      <trkpt lat="43.80549" lon="7.14535">
        <ele>775.59997558594</ele>
        <time>2019-02-23T10:45:00.000Z</time>
      </trkpt>
      <trkpt lat="43.80545" lon="7.14527">
        <ele>776.40002441406</ele>
        <time>2019-02-23T10:45:08.000Z</time>
      </trkpt>
      <trkpt lat="43.80545" lon="7.14526">
        <ele>776.79998779297</ele>
        <time>2019-02-23T10:45:10.000Z</time>
      </trkpt>
      <trkpt lat="43.80542" lon="7.14523">
        <ele>777.59997558594</ele>
        <time>2019-02-23T10:45:15.000Z</time>
      </trkpt>
      <trkpt lat="43.80541" lon="7.14522">
        <ele>777.79998779297</ele>
        <time>2019-02-23T10:45:17.000Z</time>
      </trkpt>
      <trkpt lat="43.80537" lon="7.14519">
        <ele>778.79998779297</ele>
        <time>2019-02-23T10:45:23.000Z</time>
      </trkpt>
      <trkpt lat="43.80536" lon="7.14517">
        <ele>779.20001220703</ele>
        <time>2019-02-23T10:45:25.000Z</time>
      </trkpt>
      <trkpt lat="43.80535" lon="7.14514">
        <ele>779.79998779297</ele>
        <time>2019-02-23T10:45:29.000Z</time>
      </trkpt>
      <trkpt lat="43.80533" lon="7.14508">
        <ele>780.59997558594</ele>
        <time>2019-02-23T10:45:35.000Z</time>
      </trkpt>
      <trkpt lat="43.80532" lon="7.14505">
        <ele>781</ele>
        <time>2019-02-23T10:45:39.000Z</time>
      </trkpt>
      <trkpt lat="43.80532" lon="7.14503">
        <ele>781.40002441406</ele>
        <time>2019-02-23T10:45:42.000Z</time>
      </trkpt>
      <trkpt lat="43.80532" lon="7.14502">
        <ele>782.20001220703</ele>
        <time>2019-02-23T10:45:47.000Z</time>
      </trkpt>
      <trkpt lat="43.80532" lon="7.14501">
        <ele>782.20001220703</ele>
        <time>2019-02-23T10:45:48.000Z</time>
      </trkpt>
      <trkpt lat="43.80532" lon="7.14499">
        <ele>782.20001220703</ele>
        <time>2019-02-23T10:45:50.000Z</time>
      </trkpt>
      <trkpt lat="43.80531" lon="7.14493">
        <ele>782.59997558594</ele>
        <time>2019-02-23T10:45:54.000Z</time>
      </trkpt>
      <trkpt lat="43.80529" lon="7.14488">
        <ele>783.40002441406</ele>
        <time>2019-02-23T10:45:57.000Z</time>
      </trkpt>
      <trkpt lat="43.80528" lon="7.14484">
        <ele>784</ele>
        <time>2019-02-23T10:46:00.000Z</time>
      </trkpt>
      <trkpt lat="43.80528" lon="7.14482">
        <ele>784.40002441406</ele>
        <time>2019-02-23T10:46:01.000Z</time>
      </trkpt>
      <trkpt lat="43.80528" lon="7.14478">
        <ele>785.40002441406</ele>
        <time>2019-02-23T10:46:04.000Z</time>
      </trkpt>
      <trkpt lat="43.80528" lon="7.14477">
        <ele>785.59997558594</ele>
        <time>2019-02-23T10:46:05.000Z</time>
      </trkpt>
      <trkpt lat="43.80528" lon="7.14475">
        <ele>785.79998779297</ele>
        <time>2019-02-23T10:46:06.000Z</time>
      </trkpt>
      <trkpt lat="43.80528" lon="7.14474">
        <ele>786.20001220703</ele>
        <time>2019-02-23T10:46:07.000Z</time>
      </trkpt>
      <trkpt lat="43.8053" lon="7.14471">
        <ele>786.79998779297</ele>
        <time>2019-02-23T10:46:10.000Z</time>
      </trkpt>
      <trkpt lat="43.8053" lon="7.14463">
        <ele>787.79998779297</ele>
        <time>2019-02-23T10:46:15.000Z</time>
      </trkpt>
      <trkpt lat="43.8053" lon="7.14461">
        <ele>788</ele>
        <time>2019-02-23T10:46:16.000Z</time>
      </trkpt>
      <trkpt lat="43.80531" lon="7.1446">
        <ele>788.59997558594</ele>
        <time>2019-02-23T10:46:17.000Z</time>
      </trkpt>
      <trkpt lat="43.80532" lon="7.14457">
        <ele>789</ele>
        <time>2019-02-23T10:46:19.000Z</time>
      </trkpt>
      <trkpt lat="43.80533" lon="7.14455">
        <ele>789.59997558594</ele>
        <time>2019-02-23T10:46:21.000Z</time>
      </trkpt>
      <trkpt lat="43.80534" lon="7.1445">
        <ele>790.20001220703</ele>
        <time>2019-02-23T10:46:24.000Z</time>
      </trkpt>
      <trkpt lat="43.80535" lon="7.14445">
        <ele>791.40002441406</ele>
        <time>2019-02-23T10:46:29.000Z</time>
      </trkpt>
      <trkpt lat="43.80536" lon="7.14439">
        <ele>792.20001220703</ele>
        <time>2019-02-23T10:46:35.000Z</time>
      </trkpt>
      <trkpt lat="43.80536" lon="7.14436">
        <ele>792.40002441406</ele>
        <time>2019-02-23T10:46:40.000Z</time>
      </trkpt>
      <trkpt lat="43.80535" lon="7.14435">
        <ele>792.59997558594</ele>
        <time>2019-02-23T10:46:41.000Z</time>
      </trkpt>
      <trkpt lat="43.80535" lon="7.14431">
        <ele>793.59997558594</ele>
        <time>2019-02-23T10:46:46.000Z</time>
      </trkpt>
      <trkpt lat="43.80534" lon="7.14424">
        <ele>794.40002441406</ele>
        <time>2019-02-23T10:46:53.000Z</time>
      </trkpt>
      <trkpt lat="43.80534" lon="7.14424">
        <ele>794.59997558594</ele>
        <time>2019-02-23T10:46:55.000Z</time>
      </trkpt>
      <trkpt lat="43.80532" lon="7.14418">
        <ele>795.40002441406</ele>
        <time>2019-02-23T10:47:02.000Z</time>
      </trkpt>
      <trkpt lat="43.80532" lon="7.14416">
        <ele>795.59997558594</ele>
        <time>2019-02-23T10:47:04.000Z</time>
      </trkpt>
      <trkpt lat="43.80534" lon="7.14413">
        <ele>796.40002441406</ele>
        <time>2019-02-23T10:47:09.000Z</time>
      </trkpt>
      <trkpt lat="43.80535" lon="7.14412">
        <ele>796.20001220703</ele>
        <time>2019-02-23T10:47:14.000Z</time>
      </trkpt>
      <trkpt lat="43.80535" lon="7.14411">
        <ele>796</ele>
        <time>2019-02-23T10:47:19.000Z</time>
      </trkpt>
      <trkpt lat="43.80534" lon="7.14411">
        <ele>796</ele>
        <time>2019-02-23T10:47:25.000Z</time>
      </trkpt>
      <trkpt lat="43.80533" lon="7.14411">
        <ele>796.20001220703</ele>
        <time>2019-02-23T10:47:37.000Z</time>
      </trkpt>
      <trkpt lat="43.80533" lon="7.1441">
        <ele>795.79998779297</ele>
        <time>2019-02-23T10:47:46.000Z</time>
      </trkpt>
      <trkpt lat="43.80533" lon="7.1441">
        <ele>795.79998779297</ele>
        <time>2019-02-23T10:47:51.000Z</time>
      </trkpt>
      <trkpt lat="43.80533" lon="7.14409">
        <ele>796.20001220703</ele>
        <time>2019-02-23T10:48:01.000Z</time>
      </trkpt>
      <trkpt lat="43.80533" lon="7.14409">
        <ele>796.20001220703</ele>
        <time>2019-02-23T10:48:11.000Z</time>
      </trkpt>
      <trkpt lat="43.80532" lon="7.1441">
        <ele>796.20001220703</ele>
        <time>2019-02-23T10:48:16.000Z</time>
      </trkpt>
      <trkpt lat="43.80532" lon="7.1441">
        <ele>796.20001220703</ele>
        <time>2019-02-23T10:48:17.000Z</time>
      </trkpt>
      <trkpt lat="43.80531" lon="7.14405">
        <ele>796</ele>
        <time>2019-02-23T10:48:23.000Z</time>
      </trkpt>
      <trkpt lat="43.8053" lon="7.14401">
        <ele>796.79998779297</ele>
        <time>2019-02-23T10:48:27.000Z</time>
      </trkpt>
      <trkpt lat="43.80529" lon="7.14399">
        <ele>797.40002441406</ele>
        <time>2019-02-23T10:48:30.000Z</time>
      </trkpt>
      <trkpt lat="43.80529" lon="7.14396">
        <ele>797.79998779297</ele>
        <time>2019-02-23T10:48:33.000Z</time>
      </trkpt>
      <trkpt lat="43.80528" lon="7.14392">
        <ele>798.40002441406</ele>
        <time>2019-02-23T10:48:37.000Z</time>
      </trkpt>
      <trkpt lat="43.80528" lon="7.1439">
        <ele>798.79998779297</ele>
        <time>2019-02-23T10:48:39.000Z</time>
      </trkpt>
      <trkpt lat="43.80528" lon="7.14383">
        <ele>799.79998779297</ele>
        <time>2019-02-23T10:48:45.000Z</time>
      </trkpt>
      <trkpt lat="43.80529" lon="7.14375">
        <ele>801</ele>
        <time>2019-02-23T10:48:53.000Z</time>
      </trkpt>
      <trkpt lat="43.80529" lon="7.14373">
        <ele>801.20001220703</ele>
        <time>2019-02-23T10:48:55.000Z</time>
      </trkpt>
      <trkpt lat="43.8053" lon="7.14366">
        <ele>802</ele>
        <time>2019-02-23T10:49:01.000Z</time>
      </trkpt>
      <trkpt lat="43.8053" lon="7.14365">
        <ele>802.20001220703</ele>
        <time>2019-02-23T10:49:02.000Z</time>
      </trkpt>
      <trkpt lat="43.8053" lon="7.14357">
        <ele>803.20001220703</ele>
        <time>2019-02-23T10:49:10.000Z</time>
      </trkpt>
      <trkpt lat="43.8053" lon="7.14352">
        <ele>804.20001220703</ele>
        <time>2019-02-23T10:49:15.000Z</time>
      </trkpt>
      <trkpt lat="43.80529" lon="7.14347">
        <ele>804.79998779297</ele>
        <time>2019-02-23T10:49:20.000Z</time>
      </trkpt>
      <trkpt lat="43.80528" lon="7.14344">
        <ele>805.40002441406</ele>
        <time>2019-02-23T10:49:23.000Z</time>
      </trkpt>
      <trkpt lat="43.80525" lon="7.1434">
        <ele>806.20001220703</ele>
        <time>2019-02-23T10:49:28.000Z</time>
      </trkpt>
      <trkpt lat="43.80525" lon="7.14339">
        <ele>806.59997558594</ele>
        <time>2019-02-23T10:49:29.000Z</time>
      </trkpt>
      <trkpt lat="43.80521" lon="7.14332">
        <ele>807.59997558594</ele>
        <time>2019-02-23T10:49:36.000Z</time>
      </trkpt>
      <trkpt lat="43.80517" lon="7.14327">
        <ele>808.59997558594</ele>
        <time>2019-02-23T10:49:43.000Z</time>
      </trkpt>
      <trkpt lat="43.80516" lon="7.14325">
        <ele>809.20001220703</ele>
        <time>2019-02-23T10:49:46.000Z</time>
      </trkpt>
      <trkpt lat="43.80514" lon="7.14322">
        <ele>809.79998779297</ele>
        <time>2019-02-23T10:49:51.000Z</time>
      </trkpt>
      <trkpt lat="43.80511" lon="7.14318">
        <ele>810.79998779297</ele>
        <time>2019-02-23T10:49:57.000Z</time>
      </trkpt>
      <trkpt lat="43.80511" lon="7.14318">
        <ele>811</ele>
        <time>2019-02-23T10:49:58.000Z</time>
      </trkpt>
      <trkpt lat="43.80509" lon="7.14315">
        <ele>812.20001220703</ele>
        <time>2019-02-23T10:50:04.000Z</time>
      </trkpt>
      <trkpt lat="43.80508" lon="7.14314">
        <ele>812.40002441406</ele>
        <time>2019-02-23T10:50:05.000Z</time>
      </trkpt>
      <trkpt lat="43.80507" lon="7.14312">
        <ele>813.20001220703</ele>
        <time>2019-02-23T10:50:10.000Z</time>
      </trkpt>
      <trkpt lat="43.80506" lon="7.14311">
        <ele>813.59997558594</ele>
        <time>2019-02-23T10:50:12.000Z</time>
      </trkpt>
      <trkpt lat="43.80505" lon="7.14308">
        <ele>814.20001220703</ele>
        <time>2019-02-23T10:50:16.000Z</time>
      </trkpt>
      <trkpt lat="43.80504" lon="7.14306">
        <ele>815</ele>
        <time>2019-02-23T10:50:19.000Z</time>
      </trkpt>
      <trkpt lat="43.80503" lon="7.14303">
        <ele>815.40002441406</ele>
        <time>2019-02-23T10:50:23.000Z</time>
      </trkpt>
      <trkpt lat="43.80501" lon="7.14299">
        <ele>816</ele>
        <time>2019-02-23T10:50:28.000Z</time>
      </trkpt>
      <trkpt lat="43.805" lon="7.14297">
        <ele>816.40002441406</ele>
        <time>2019-02-23T10:50:31.000Z</time>
      </trkpt>
      <trkpt lat="43.805" lon="7.14296">
        <ele>817.20001220703</ele>
        <time>2019-02-23T10:50:36.000Z</time>
      </trkpt>
      <trkpt lat="43.805" lon="7.14295">
        <ele>817</ele>
        <time>2019-02-23T10:50:39.000Z</time>
      </trkpt>
      <trkpt lat="43.80499" lon="7.14292">
        <ele>817</ele>
        <time>2019-02-23T10:50:41.000Z</time>
      </trkpt>
      <trkpt lat="43.80497" lon="7.14285">
        <ele>817.40002441406</ele>
        <time>2019-02-23T10:50:45.000Z</time>
      </trkpt>
      <trkpt lat="43.80496" lon="7.14283">
        <ele>818</ele>
        <time>2019-02-23T10:50:47.000Z</time>
      </trkpt>
      <trkpt lat="43.80494" lon="7.14279">
        <ele>818.40002441406</ele>
        <time>2019-02-23T10:50:49.000Z</time>
      </trkpt>
      <trkpt lat="43.80492" lon="7.14272">
        <ele>819.79998779297</ele>
        <time>2019-02-23T10:50:54.000Z</time>
      </trkpt>
      <trkpt lat="43.80492" lon="7.1427">
        <ele>820</ele>
        <time>2019-02-23T10:50:55.000Z</time>
      </trkpt>
      <trkpt lat="43.80488" lon="7.14264">
        <ele>821</ele>
        <time>2019-02-23T10:51:00.000Z</time>
      </trkpt>
      <trkpt lat="43.80487" lon="7.14262">
        <ele>821.20001220703</ele>
        <time>2019-02-23T10:51:01.000Z</time>
      </trkpt>
      <trkpt lat="43.80485" lon="7.14255">
        <ele>822</ele>
        <time>2019-02-23T10:51:07.000Z</time>
      </trkpt>
      <trkpt lat="43.80485" lon="7.14255">
        <ele>822.20001220703</ele>
        <time>2019-02-23T10:51:08.000Z</time>
      </trkpt>
      <trkpt lat="43.80483" lon="7.14253">
        <ele>823</ele>
        <time>2019-02-23T10:51:14.000Z</time>
      </trkpt>
      <trkpt lat="43.80482" lon="7.14252">
        <ele>823.20001220703</ele>
        <time>2019-02-23T10:51:15.000Z</time>
      </trkpt>
      <trkpt lat="43.80481" lon="7.1425">
        <ele>824.20001220703</ele>
        <time>2019-02-23T10:51:20.000Z</time>
      </trkpt>
      <trkpt lat="43.8048" lon="7.14249">
        <ele>825</ele>
        <time>2019-02-23T10:51:23.000Z</time>
      </trkpt>
      <trkpt lat="43.80478" lon="7.14247">
        <ele>825.40002441406</ele>
        <time>2019-02-23T10:51:26.000Z</time>
      </trkpt>
      <trkpt lat="43.80478" lon="7.14243">
        <ele>826.20001220703</ele>
        <time>2019-02-23T10:51:31.000Z</time>
      </trkpt>
      <trkpt lat="43.80478" lon="7.14241">
        <ele>826.40002441406</ele>
        <time>2019-02-23T10:51:33.000Z</time>
      </trkpt>
      <trkpt lat="43.80477" lon="7.14237">
        <ele>827.40002441406</ele>
        <time>2019-02-23T10:51:39.000Z</time>
      </trkpt>
      <trkpt lat="43.80476" lon="7.14235">
        <ele>827.59997558594</ele>
        <time>2019-02-23T10:51:41.000Z</time>
      </trkpt>
      <trkpt lat="43.80474" lon="7.14229">
        <ele>828.59997558594</ele>
        <time>2019-02-23T10:51:48.000Z</time>
      </trkpt>
      <trkpt lat="43.80473" lon="7.14223">
        <ele>829.59997558594</ele>
        <time>2019-02-23T10:51:55.000Z</time>
      </trkpt>
      <trkpt lat="43.80472" lon="7.14222">
        <ele>829.79998779297</ele>
        <time>2019-02-23T10:51:56.000Z</time>
      </trkpt>
      <trkpt lat="43.80469" lon="7.14216">
        <ele>830.79998779297</ele>
        <time>2019-02-23T10:52:03.000Z</time>
      </trkpt>
      <trkpt lat="43.80466" lon="7.14212">
        <ele>832</ele>
        <time>2019-02-23T10:52:09.000Z</time>
      </trkpt>
      <trkpt lat="43.80465" lon="7.14209">
        <ele>832.40002441406</ele>
        <time>2019-02-23T10:52:12.000Z</time>
      </trkpt>
      <trkpt lat="43.80463" lon="7.14207">
        <ele>833</ele>
        <time>2019-02-23T10:52:15.000Z</time>
      </trkpt>
      <trkpt lat="43.80462" lon="7.14205">
        <ele>833.59997558594</ele>
        <time>2019-02-23T10:52:19.000Z</time>
      </trkpt>
      <trkpt lat="43.80461" lon="7.14203">
        <ele>834.20001220703</ele>
        <time>2019-02-23T10:52:22.000Z</time>
      </trkpt>
      <trkpt lat="43.80459" lon="7.142">
        <ele>835.20001220703</ele>
        <time>2019-02-23T10:52:27.000Z</time>
      </trkpt>
      <trkpt lat="43.80455" lon="7.14195">
        <ele>836.40002441406</ele>
        <time>2019-02-23T10:52:35.000Z</time>
      </trkpt>
      <trkpt lat="43.80452" lon="7.14191">
        <ele>837.20001220703</ele>
        <time>2019-02-23T10:52:41.000Z</time>
      </trkpt>
      <trkpt lat="43.80451" lon="7.1419">
        <ele>837.40002441406</ele>
        <time>2019-02-23T10:52:43.000Z</time>
      </trkpt>
      <trkpt lat="43.8045" lon="7.14189">
        <ele>838.20001220703</ele>
        <time>2019-02-23T10:52:49.000Z</time>
      </trkpt>
      <trkpt lat="43.80449" lon="7.14187">
        <ele>838.20001220703</ele>
        <time>2019-02-23T10:52:55.000Z</time>
      </trkpt>
      <trkpt lat="43.80446" lon="7.14183">
        <ele>838.20001220703</ele>
        <time>2019-02-23T10:53:00.000Z</time>
      </trkpt>
      <trkpt lat="43.80445" lon="7.14183">
        <ele>838.59997558594</ele>
        <time>2019-02-23T10:53:02.000Z</time>
      </trkpt>
      <trkpt lat="43.80444" lon="7.14182">
        <ele>838.79998779297</ele>
        <time>2019-02-23T10:53:03.000Z</time>
      </trkpt>
      <trkpt lat="43.80443" lon="7.1418">
        <ele>839.40002441406</ele>
        <time>2019-02-23T10:53:05.000Z</time>
      </trkpt>
      <trkpt lat="43.80443" lon="7.14179">
        <ele>839.59997558594</ele>
        <time>2019-02-23T10:53:06.000Z</time>
      </trkpt>
      <trkpt lat="43.8044" lon="7.14177">
        <ele>840</ele>
        <time>2019-02-23T10:53:11.000Z</time>
      </trkpt>
      <trkpt lat="43.80437" lon="7.14173">
        <ele>840.40002441406</ele>
        <time>2019-02-23T10:53:16.000Z</time>
      </trkpt>
      <trkpt lat="43.80436" lon="7.14172">
        <ele>840.59997558594</ele>
        <time>2019-02-23T10:53:18.000Z</time>
      </trkpt>
      <trkpt lat="43.80434" lon="7.1417">
        <ele>841.20001220703</ele>
        <time>2019-02-23T10:53:21.000Z</time>
      </trkpt>
      <trkpt lat="43.80433" lon="7.14169">
        <ele>842</ele>
        <time>2019-02-23T10:53:25.000Z</time>
      </trkpt>
      <trkpt lat="43.80431" lon="7.14166">
        <ele>842.79998779297</ele>
        <time>2019-02-23T10:53:28.000Z</time>
      </trkpt>
      <trkpt lat="43.80429" lon="7.14162">
        <ele>843</ele>
        <time>2019-02-23T10:53:33.000Z</time>
      </trkpt>
      <trkpt lat="43.80427" lon="7.14158">
        <ele>844.20001220703</ele>
        <time>2019-02-23T10:53:39.000Z</time>
      </trkpt>
      <trkpt lat="43.80424" lon="7.14155">
        <ele>845.20001220703</ele>
        <time>2019-02-23T10:53:45.000Z</time>
      </trkpt>
      <trkpt lat="43.80422" lon="7.14151">
        <ele>846.40002441406</ele>
        <time>2019-02-23T10:53:50.000Z</time>
      </trkpt>
      <trkpt lat="43.80422" lon="7.14151">
        <ele>846.59997558594</ele>
        <time>2019-02-23T10:53:51.000Z</time>
      </trkpt>
      <trkpt lat="43.80421" lon="7.1415">
        <ele>846.79998779297</ele>
        <time>2019-02-23T10:53:52.000Z</time>
      </trkpt>
      <trkpt lat="43.80419" lon="7.14149">
        <ele>847.20001220703</ele>
        <time>2019-02-23T10:53:55.000Z</time>
      </trkpt>
      <trkpt lat="43.80418" lon="7.14148">
        <ele>847.40002441406</ele>
        <time>2019-02-23T10:53:56.000Z</time>
      </trkpt>
      <trkpt lat="43.80415" lon="7.14146">
        <ele>848.20001220703</ele>
        <time>2019-02-23T10:54:01.000Z</time>
      </trkpt>
      <trkpt lat="43.80414" lon="7.14144">
        <ele>848.59997558594</ele>
        <time>2019-02-23T10:54:06.000Z</time>
      </trkpt>
      <trkpt lat="43.80413" lon="7.14144">
        <ele>848.79998779297</ele>
        <time>2019-02-23T10:54:07.000Z</time>
      </trkpt>
      <trkpt lat="43.8041" lon="7.1414">
        <ele>849.79998779297</ele>
        <time>2019-02-23T10:54:12.000Z</time>
      </trkpt>
      <trkpt lat="43.80409" lon="7.14139">
        <ele>850.20001220703</ele>
        <time>2019-02-23T10:54:14.000Z</time>
      </trkpt>
      <trkpt lat="43.80408" lon="7.14137">
        <ele>850.79998779297</ele>
        <time>2019-02-23T10:54:18.000Z</time>
      </trkpt>
      <trkpt lat="43.80407" lon="7.14135">
        <ele>851.40002441406</ele>
        <time>2019-02-23T10:54:21.000Z</time>
      </trkpt>
      <trkpt lat="43.80405" lon="7.14133">
        <ele>851.79998779297</ele>
        <time>2019-02-23T10:54:24.000Z</time>
      </trkpt>
      <trkpt lat="43.80404" lon="7.14132">
        <ele>852</ele>
        <time>2019-02-23T10:54:25.000Z</time>
      </trkpt>
      <trkpt lat="43.80403" lon="7.1413">
        <ele>852.40002441406</ele>
        <time>2019-02-23T10:54:27.000Z</time>
      </trkpt>
      <trkpt lat="43.80401" lon="7.14128">
        <ele>852.79998779297</ele>
        <time>2019-02-23T10:54:30.000Z</time>
      </trkpt>
      <trkpt lat="43.80399" lon="7.14126">
        <ele>853.40002441406</ele>
        <time>2019-02-23T10:54:34.000Z</time>
      </trkpt>
      <trkpt lat="43.80398" lon="7.14123">
        <ele>854</ele>
        <time>2019-02-23T10:54:38.000Z</time>
      </trkpt>
      <trkpt lat="43.80396" lon="7.14123">
        <ele>854.59997558594</ele>
        <time>2019-02-23T10:54:40.000Z</time>
      </trkpt>
      <trkpt lat="43.80395" lon="7.14122">
        <ele>855.20001220703</ele>
        <time>2019-02-23T10:54:42.000Z</time>
      </trkpt>
      <trkpt lat="43.80394" lon="7.14119">
        <ele>855.79998779297</ele>
        <time>2019-02-23T10:54:46.000Z</time>
      </trkpt>
      <trkpt lat="43.80392" lon="7.14117">
        <ele>856.20001220703</ele>
        <time>2019-02-23T10:54:49.000Z</time>
      </trkpt>
      <trkpt lat="43.80391" lon="7.14113">
        <ele>856.79998779297</ele>
        <time>2019-02-23T10:54:53.000Z</time>
      </trkpt>
      <trkpt lat="43.80391" lon="7.14111">
        <ele>857.20001220703</ele>
        <time>2019-02-23T10:54:56.000Z</time>
      </trkpt>
      <trkpt lat="43.8039" lon="7.14108">
        <ele>857.79998779297</ele>
        <time>2019-02-23T10:55:00.000Z</time>
      </trkpt>
      <trkpt lat="43.80389" lon="7.14106">
        <ele>858.20001220703</ele>
        <time>2019-02-23T10:55:02.000Z</time>
      </trkpt>
      <trkpt lat="43.80389" lon="7.14102">
        <ele>859.40002441406</ele>
        <time>2019-02-23T10:55:07.000Z</time>
      </trkpt>
      <trkpt lat="43.80386" lon="7.14098">
        <ele>860.40002441406</ele>
        <time>2019-02-23T10:55:15.000Z</time>
      </trkpt>
      <trkpt lat="43.80383" lon="7.14094">
        <ele>861.40002441406</ele>
        <time>2019-02-23T10:55:22.000Z</time>
      </trkpt>
      <trkpt lat="43.80381" lon="7.14092">
        <ele>862</ele>
        <time>2019-02-23T10:55:25.000Z</time>
      </trkpt>
      <trkpt lat="43.8038" lon="7.14089">
        <ele>862.40002441406</ele>
        <time>2019-02-23T10:55:30.000Z</time>
      </trkpt>
      <trkpt lat="43.80379" lon="7.14089">
        <ele>862.59997558594</ele>
        <time>2019-02-23T10:55:31.000Z</time>
      </trkpt>
      <trkpt lat="43.80375" lon="7.14083">
        <ele>863.59997558594</ele>
        <time>2019-02-23T10:55:39.000Z</time>
      </trkpt>
      <trkpt lat="43.80373" lon="7.14078">
        <ele>864.20001220703</ele>
        <time>2019-02-23T10:55:45.000Z</time>
      </trkpt>
      <trkpt lat="43.80372" lon="7.14077">
        <ele>864.59997558594</ele>
        <time>2019-02-23T10:55:47.000Z</time>
      </trkpt>
      <trkpt lat="43.8037" lon="7.14073">
        <ele>865.59997558594</ele>
        <time>2019-02-23T10:55:53.000Z</time>
      </trkpt>
      <trkpt lat="43.8037" lon="7.14072">
        <ele>865.79998779297</ele>
        <time>2019-02-23T10:55:54.000Z</time>
      </trkpt>
      <trkpt lat="43.80369" lon="7.14067">
        <ele>866.79998779297</ele>
        <time>2019-02-23T10:56:00.000Z</time>
      </trkpt>
      <trkpt lat="43.80368" lon="7.14066">
        <ele>867</ele>
        <time>2019-02-23T10:56:02.000Z</time>
      </trkpt>
      <trkpt lat="43.80366" lon="7.14064">
        <ele>867.79998779297</ele>
        <time>2019-02-23T10:56:07.000Z</time>
      </trkpt>
      <trkpt lat="43.80365" lon="7.14062">
        <ele>868.59997558594</ele>
        <time>2019-02-23T10:56:10.000Z</time>
      </trkpt>
      <trkpt lat="43.80364" lon="7.1406">
        <ele>869</ele>
        <time>2019-02-23T10:56:12.000Z</time>
      </trkpt>
      <trkpt lat="43.80363" lon="7.14057">
        <ele>870</ele>
        <time>2019-02-23T10:56:18.000Z</time>
      </trkpt>
      <trkpt lat="43.80362" lon="7.14056">
        <ele>870.20001220703</ele>
        <time>2019-02-23T10:56:19.000Z</time>
      </trkpt>
      <trkpt lat="43.8036" lon="7.14051">
        <ele>871</ele>
        <time>2019-02-23T10:56:26.000Z</time>
      </trkpt>
      <trkpt lat="43.80356" lon="7.14048">
        <ele>872.40002441406</ele>
        <time>2019-02-23T10:56:31.000Z</time>
      </trkpt>
      <trkpt lat="43.80354" lon="7.14048">
        <ele>873</ele>
        <time>2019-02-23T10:56:33.000Z</time>
      </trkpt>
      <trkpt lat="43.80346" lon="7.14048">
        <ele>873.20001220703</ele>
        <time>2019-02-23T10:56:41.000Z</time>
      </trkpt>
      <trkpt lat="43.80343" lon="7.14048">
        <ele>873.20001220703</ele>
        <time>2019-02-23T10:56:47.000Z</time>
      </trkpt>
      <trkpt lat="43.80342" lon="7.14047">
        <ele>873.59997558594</ele>
        <time>2019-02-23T10:56:50.000Z</time>
      </trkpt>
      <trkpt lat="43.80341" lon="7.14045">
        <ele>873.59997558594</ele>
        <time>2019-02-23T10:56:54.000Z</time>
      </trkpt>
      <trkpt lat="43.80339" lon="7.14039">
        <ele>874.40002441406</ele>
        <time>2019-02-23T10:57:01.000Z</time>
      </trkpt>
      <trkpt lat="43.80338" lon="7.14038">
        <ele>874.59997558594</ele>
        <time>2019-02-23T10:57:02.000Z</time>
      </trkpt>
      <trkpt lat="43.80333" lon="7.14033">
        <ele>875.59997558594</ele>
        <time>2019-02-23T10:57:09.000Z</time>
      </trkpt>
      <trkpt lat="43.80333" lon="7.14032">
        <ele>875.79998779297</ele>
        <time>2019-02-23T10:57:10.000Z</time>
      </trkpt>
      <trkpt lat="43.80331" lon="7.14028">
        <ele>876.40002441406</ele>
        <time>2019-02-23T10:57:15.000Z</time>
      </trkpt>
      <trkpt lat="43.80331" lon="7.14028">
        <ele>876.79998779297</ele>
        <time>2019-02-23T10:57:17.000Z</time>
      </trkpt>
      <trkpt lat="43.80329" lon="7.14025">
        <ele>877.40002441406</ele>
        <time>2019-02-23T10:57:21.000Z</time>
      </trkpt>
      <trkpt lat="43.80328" lon="7.14023">
        <ele>878</ele>
        <time>2019-02-23T10:57:24.000Z</time>
      </trkpt>
      <trkpt lat="43.80326" lon="7.1402">
        <ele>879</ele>
        <time>2019-02-23T10:57:29.000Z</time>
      </trkpt>
      <trkpt lat="43.80326" lon="7.14019">
        <ele>879.20001220703</ele>
        <time>2019-02-23T10:57:30.000Z</time>
      </trkpt>
      <trkpt lat="43.80324" lon="7.14018">
        <ele>879.79998779297</ele>
        <time>2019-02-23T10:57:34.000Z</time>
      </trkpt>
      <trkpt lat="43.80323" lon="7.14016">
        <ele>880</ele>
        <time>2019-02-23T10:57:36.000Z</time>
      </trkpt>
      <trkpt lat="43.80323" lon="7.14014">
        <ele>880.20001220703</ele>
        <time>2019-02-23T10:57:38.000Z</time>
      </trkpt>
      <trkpt lat="43.8032" lon="7.14007">
        <ele>881.20001220703</ele>
        <time>2019-02-23T10:57:46.000Z</time>
      </trkpt>
      <trkpt lat="43.80319" lon="7.14">
        <ele>882.20001220703</ele>
        <time>2019-02-23T10:57:53.000Z</time>
      </trkpt>
      <trkpt lat="43.80319" lon="7.13998">
        <ele>882.59997558594</ele>
        <time>2019-02-23T10:57:55.000Z</time>
      </trkpt>
      <trkpt lat="43.80318" lon="7.13994">
        <ele>883.20001220703</ele>
        <time>2019-02-23T10:58:00.000Z</time>
      </trkpt>
      <trkpt lat="43.80316" lon="7.13992">
        <ele>883.59997558594</ele>
        <time>2019-02-23T10:58:03.000Z</time>
      </trkpt>
      <trkpt lat="43.80316" lon="7.13988">
        <ele>884.40002441406</ele>
        <time>2019-02-23T10:58:08.000Z</time>
      </trkpt>
      <trkpt lat="43.80315" lon="7.13985">
        <ele>885</ele>
        <time>2019-02-23T10:58:11.000Z</time>
      </trkpt>
      <trkpt lat="43.80315" lon="7.13984">
        <ele>885.40002441406</ele>
        <time>2019-02-23T10:58:13.000Z</time>
      </trkpt>
      <trkpt lat="43.80313" lon="7.13981">
        <ele>886</ele>
        <time>2019-02-23T10:58:17.000Z</time>
      </trkpt>
      <trkpt lat="43.80311" lon="7.13977">
        <ele>886.59997558594</ele>
        <time>2019-02-23T10:58:22.000Z</time>
      </trkpt>
      <trkpt lat="43.8031" lon="7.13976">
        <ele>887</ele>
        <time>2019-02-23T10:58:25.000Z</time>
      </trkpt>
      <trkpt lat="43.8031" lon="7.13973">
        <ele>887.59997558594</ele>
        <time>2019-02-23T10:58:29.000Z</time>
      </trkpt>
      <trkpt lat="43.80309" lon="7.13971">
        <ele>888</ele>
        <time>2019-02-23T10:58:31.000Z</time>
      </trkpt>
      <trkpt lat="43.80308" lon="7.1397">
        <ele>888.79998779297</ele>
        <time>2019-02-23T10:58:34.000Z</time>
      </trkpt>
      <trkpt lat="43.80305" lon="7.13968">
        <ele>889.79998779297</ele>
        <time>2019-02-23T10:58:39.000Z</time>
      </trkpt>
      <trkpt lat="43.80301" lon="7.13964">
        <ele>890.59997558594</ele>
        <time>2019-02-23T10:58:47.000Z</time>
      </trkpt>
      <trkpt lat="43.80301" lon="7.13962">
        <ele>891</ele>
        <time>2019-02-23T10:58:49.000Z</time>
      </trkpt>
      <trkpt lat="43.80302" lon="7.13957">
        <ele>892</ele>
        <time>2019-02-23T10:58:54.000Z</time>
      </trkpt>
      <trkpt lat="43.80301" lon="7.13956">
        <ele>892.20001220703</ele>
        <time>2019-02-23T10:58:55.000Z</time>
      </trkpt>
      <trkpt lat="43.80298" lon="7.13953">
        <ele>892.79998779297</ele>
        <time>2019-02-23T10:59:00.000Z</time>
      </trkpt>
      <trkpt lat="43.80297" lon="7.13951">
        <ele>893.20001220703</ele>
        <time>2019-02-23T10:59:04.000Z</time>
      </trkpt>
      <trkpt lat="43.80296" lon="7.13948">
        <ele>893.59997558594</ele>
        <time>2019-02-23T10:59:07.000Z</time>
      </trkpt>
      <trkpt lat="43.80295" lon="7.13941">
        <ele>894</ele>
        <time>2019-02-23T10:59:14.000Z</time>
      </trkpt>
      <trkpt lat="43.80295" lon="7.13938">
        <ele>894.20001220703</ele>
        <time>2019-02-23T10:59:18.000Z</time>
      </trkpt>
      <trkpt lat="43.80294" lon="7.13937">
        <ele>894.79998779297</ele>
        <time>2019-02-23T10:59:22.000Z</time>
      </trkpt>
      <trkpt lat="43.80293" lon="7.13936">
        <ele>895.40002441406</ele>
        <time>2019-02-23T10:59:27.000Z</time>
      </trkpt>
      <trkpt lat="43.80293" lon="7.13934">
        <ele>895.20001220703</ele>
        <time>2019-02-23T10:59:31.000Z</time>
      </trkpt>
      <trkpt lat="43.80292" lon="7.13933">
        <ele>895.20001220703</ele>
        <time>2019-02-23T10:59:32.000Z</time>
      </trkpt>
      <trkpt lat="43.80292" lon="7.13928">
        <ele>896</ele>
        <time>2019-02-23T10:59:37.000Z</time>
      </trkpt>
      <trkpt lat="43.80293" lon="7.13927">
        <ele>896.40002441406</ele>
        <time>2019-02-23T10:59:38.000Z</time>
      </trkpt>
      <trkpt lat="43.80292" lon="7.13922">
        <ele>896.79998779297</ele>
        <time>2019-02-23T10:59:44.000Z</time>
      </trkpt>
      <trkpt lat="43.8029" lon="7.13917">
        <ele>896.79998779297</ele>
        <time>2019-02-23T10:59:50.000Z</time>
      </trkpt>
      <trkpt lat="43.80288" lon="7.13915">
        <ele>897.20001220703</ele>
        <time>2019-02-23T10:59:53.000Z</time>
      </trkpt>
      <trkpt lat="43.80288" lon="7.13914">
        <ele>897.40002441406</ele>
        <time>2019-02-23T10:59:54.000Z</time>
      </trkpt>
      <trkpt lat="43.80287" lon="7.13912">
        <ele>897.59997558594</ele>
        <time>2019-02-23T10:59:55.000Z</time>
      </trkpt>
      <trkpt lat="43.80284" lon="7.13905">
        <ele>898.20001220703</ele>
        <time>2019-02-23T11:00:03.000Z</time>
      </trkpt>
      <trkpt lat="43.80283" lon="7.13902">
        <ele>898.20001220703</ele>
        <time>2019-02-23T11:00:10.000Z</time>
      </trkpt>
      <trkpt lat="43.80282" lon="7.139">
        <ele>898.59997558594</ele>
        <time>2019-02-23T11:00:11.000Z</time>
      </trkpt>
      <trkpt lat="43.80281" lon="7.13895">
        <ele>899.79998779297</ele>
        <time>2019-02-23T11:00:17.000Z</time>
      </trkpt>
      <trkpt lat="43.80277" lon="7.13888">
        <ele>900.79998779297</ele>
        <time>2019-02-23T11:00:23.000Z</time>
      </trkpt>
      <trkpt lat="43.80277" lon="7.13887">
        <ele>900.79998779297</ele>
        <time>2019-02-23T11:00:24.000Z</time>
      </trkpt>
      <trkpt lat="43.80276" lon="7.13886">
        <ele>901</ele>
        <time>2019-02-23T11:00:25.000Z</time>
      </trkpt>
      <trkpt lat="43.80274" lon="7.13881">
        <ele>901.40002441406</ele>
        <time>2019-02-23T11:00:30.000Z</time>
      </trkpt>
      <trkpt lat="43.80272" lon="7.13879">
        <ele>901.59997558594</ele>
        <time>2019-02-23T11:00:33.000Z</time>
      </trkpt>
      <trkpt lat="43.80271" lon="7.13878">
        <ele>902</ele>
        <time>2019-02-23T11:00:35.000Z</time>
      </trkpt>
      <trkpt lat="43.80271" lon="7.13871">
        <ele>903</ele>
        <time>2019-02-23T11:00:41.000Z</time>
      </trkpt>
      <trkpt lat="43.8027" lon="7.1387">
        <ele>903</ele>
        <time>2019-02-23T11:00:42.000Z</time>
      </trkpt>
      <trkpt lat="43.80271" lon="7.13862">
        <ele>903.59997558594</ele>
        <time>2019-02-23T11:00:49.000Z</time>
      </trkpt>
      <trkpt lat="43.80271" lon="7.13858">
        <ele>904</ele>
        <time>2019-02-23T11:00:53.000Z</time>
      </trkpt>
      <trkpt lat="43.8027" lon="7.13855">
        <ele>904.40002441406</ele>
        <time>2019-02-23T11:00:56.000Z</time>
      </trkpt>
      <trkpt lat="43.80272" lon="7.13849">
        <ele>905.20001220703</ele>
        <time>2019-02-23T11:01:02.000Z</time>
      </trkpt>
      <trkpt lat="43.80272" lon="7.13848">
        <ele>905.20001220703</ele>
        <time>2019-02-23T11:01:03.000Z</time>
      </trkpt>
      <trkpt lat="43.80272" lon="7.13838">
        <ele>906</ele>
        <time>2019-02-23T11:01:11.000Z</time>
      </trkpt>
      <trkpt lat="43.80272" lon="7.13838">
        <ele>906.20001220703</ele>
        <time>2019-02-23T11:01:12.000Z</time>
      </trkpt>
      <trkpt lat="43.80271" lon="7.13837">
        <ele>906.20001220703</ele>
        <time>2019-02-23T11:01:13.000Z</time>
      </trkpt>
      <trkpt lat="43.8027" lon="7.13833">
        <ele>906.59997558594</ele>
        <time>2019-02-23T11:01:16.000Z</time>
      </trkpt>
      <trkpt lat="43.80269" lon="7.13832">
        <ele>906.59997558594</ele>
        <time>2019-02-23T11:01:17.000Z</time>
      </trkpt>
      <trkpt lat="43.8027" lon="7.13826">
        <ele>907</ele>
        <time>2019-02-23T11:01:22.000Z</time>
      </trkpt>
      <trkpt lat="43.8027" lon="7.13825">
        <ele>907.20001220703</ele>
        <time>2019-02-23T11:01:24.000Z</time>
      </trkpt>
      <trkpt lat="43.8027" lon="7.13818">
        <ele>908.20001220703</ele>
        <time>2019-02-23T11:01:30.000Z</time>
      </trkpt>
      <trkpt lat="43.8027" lon="7.13817">
        <ele>908.40002441406</ele>
        <time>2019-02-23T11:01:31.000Z</time>
      </trkpt>
      <trkpt lat="43.8027" lon="7.13812">
        <ele>909.20001220703</ele>
        <time>2019-02-23T11:01:36.000Z</time>
      </trkpt>
      <trkpt lat="43.8027" lon="7.1381">
        <ele>909.59997558594</ele>
        <time>2019-02-23T11:01:38.000Z</time>
      </trkpt>
      <trkpt lat="43.80268" lon="7.13807">
        <ele>910.20001220703</ele>
        <time>2019-02-23T11:01:43.000Z</time>
      </trkpt>
      <trkpt lat="43.80267" lon="7.13802">
        <ele>910.59997558594</ele>
        <time>2019-02-23T11:01:46.000Z</time>
      </trkpt>
      <trkpt lat="43.80266" lon="7.13796">
        <ele>911</ele>
        <time>2019-02-23T11:01:51.000Z</time>
      </trkpt>
      <trkpt lat="43.80266" lon="7.13794">
        <ele>911.59997558594</ele>
        <time>2019-02-23T11:01:55.000Z</time>
      </trkpt>
      <trkpt lat="43.80266" lon="7.13791">
        <ele>912</ele>
        <time>2019-02-23T11:01:57.000Z</time>
      </trkpt>
      <trkpt lat="43.80267" lon="7.1379">
        <ele>912.20001220703</ele>
        <time>2019-02-23T11:01:58.000Z</time>
      </trkpt>
      <trkpt lat="43.80268" lon="7.13786">
        <ele>912.59997558594</ele>
        <time>2019-02-23T11:02:02.000Z</time>
      </trkpt>
      <trkpt lat="43.80268" lon="7.13785">
        <ele>912.59997558594</ele>
        <time>2019-02-23T11:02:03.000Z</time>
      </trkpt>
      <trkpt lat="43.80269" lon="7.13782">
        <ele>913</ele>
        <time>2019-02-23T11:02:08.000Z</time>
      </trkpt>
      <trkpt lat="43.80269" lon="7.13777">
        <ele>913.79998779297</ele>
        <time>2019-02-23T11:02:13.000Z</time>
      </trkpt>
      <trkpt lat="43.8027" lon="7.13775">
        <ele>914.20001220703</ele>
        <time>2019-02-23T11:02:15.000Z</time>
      </trkpt>
      <trkpt lat="43.8027" lon="7.1377">
        <ele>914.79998779297</ele>
        <time>2019-02-23T11:02:20.000Z</time>
      </trkpt>
      <trkpt lat="43.8027" lon="7.13769">
        <ele>915</ele>
        <time>2019-02-23T11:02:22.000Z</time>
      </trkpt>
      <trkpt lat="43.80268" lon="7.13766">
        <ele>915.79998779297</ele>
        <time>2019-02-23T11:02:26.000Z</time>
      </trkpt>
      <trkpt lat="43.80266" lon="7.13762">
        <ele>916.79998779297</ele>
        <time>2019-02-23T11:02:31.000Z</time>
      </trkpt>
      <trkpt lat="43.80265" lon="7.13756">
        <ele>917.79998779297</ele>
        <time>2019-02-23T11:02:37.000Z</time>
      </trkpt>
      <trkpt lat="43.80265" lon="7.13754">
        <ele>918.20001220703</ele>
        <time>2019-02-23T11:02:39.000Z</time>
      </trkpt>
      <trkpt lat="43.80265" lon="7.13748">
        <ele>919</ele>
        <time>2019-02-23T11:02:45.000Z</time>
      </trkpt>
      <trkpt lat="43.80265" lon="7.13746">
        <ele>919.20001220703</ele>
        <time>2019-02-23T11:02:47.000Z</time>
      </trkpt>
      <trkpt lat="43.80265" lon="7.13739">
        <ele>920</ele>
        <time>2019-02-23T11:02:54.000Z</time>
      </trkpt>
      <trkpt lat="43.80265" lon="7.13737">
        <ele>920.20001220703</ele>
        <time>2019-02-23T11:02:56.000Z</time>
      </trkpt>
      <trkpt lat="43.80266" lon="7.13734">
        <ele>921.20001220703</ele>
        <time>2019-02-23T11:03:01.000Z</time>
      </trkpt>
      <trkpt lat="43.80266" lon="7.13733">
        <ele>921.40002441406</ele>
        <time>2019-02-23T11:03:02.000Z</time>
      </trkpt>
      <trkpt lat="43.80267" lon="7.13731">
        <ele>921.59997558594</ele>
        <time>2019-02-23T11:03:04.000Z</time>
      </trkpt>
      <trkpt lat="43.80268" lon="7.13729">
        <ele>921.59997558594</ele>
        <time>2019-02-23T11:03:06.000Z</time>
      </trkpt>
      <trkpt lat="43.80271" lon="7.1372">
        <ele>921.40002441406</ele>
        <time>2019-02-23T11:03:12.000Z</time>
      </trkpt>
      <trkpt lat="43.80274" lon="7.13712">
        <ele>921.59997558594</ele>
        <time>2019-02-23T11:03:17.000Z</time>
      </trkpt>
      <trkpt lat="43.80279" lon="7.13702">
        <ele>921.59997558594</ele>
        <time>2019-02-23T11:03:23.000Z</time>
      </trkpt>
      <trkpt lat="43.80282" lon="7.13693">
        <ele>922.20001220703</ele>
        <time>2019-02-23T11:03:29.000Z</time>
      </trkpt>
      <trkpt lat="43.80282" lon="7.13689">
        <ele>922.59997558594</ele>
        <time>2019-02-23T11:03:31.000Z</time>
      </trkpt>
      <trkpt lat="43.80283" lon="7.13687">
        <ele>922.79998779297</ele>
        <time>2019-02-23T11:03:32.000Z</time>
      </trkpt>
      <trkpt lat="43.80285" lon="7.1368">
        <ele>923.20001220703</ele>
        <time>2019-02-23T11:03:35.000Z</time>
      </trkpt>
      <trkpt lat="43.80285" lon="7.13674">
        <ele>924.59997558594</ele>
        <time>2019-02-23T11:03:39.000Z</time>
      </trkpt>
      <trkpt lat="43.80283" lon="7.13669">
        <ele>924.79998779297</ele>
        <time>2019-02-23T11:03:42.000Z</time>
      </trkpt>
      <trkpt lat="43.80283" lon="7.1366">
        <ele>925.40002441406</ele>
        <time>2019-02-23T11:03:48.000Z</time>
      </trkpt>
      <trkpt lat="43.80283" lon="7.13657">
        <ele>925.59997558594</ele>
        <time>2019-02-23T11:03:50.000Z</time>
      </trkpt>
      <trkpt lat="43.80284" lon="7.13652">
        <ele>925.59997558594</ele>
        <time>2019-02-23T11:03:53.000Z</time>
      </trkpt>
      <trkpt lat="43.80287" lon="7.13636">
        <ele>926</ele>
        <time>2019-02-23T11:04:01.000Z</time>
      </trkpt>
      <trkpt lat="43.8029" lon="7.13622">
        <ele>926.59997558594</ele>
        <time>2019-02-23T11:04:08.000Z</time>
      </trkpt>
      <trkpt lat="43.80291" lon="7.1362">
        <ele>926.59997558594</ele>
        <time>2019-02-23T11:04:09.000Z</time>
      </trkpt>
      <trkpt lat="43.80294" lon="7.13615">
        <ele>926.40002441406</ele>
        <time>2019-02-23T11:04:13.000Z</time>
      </trkpt>
      <trkpt lat="43.80301" lon="7.13614">
        <ele>926.59997558594</ele>
        <time>2019-02-23T11:04:18.000Z</time>
      </trkpt>
      <trkpt lat="43.80302" lon="7.13614">
        <ele>926.59997558594</ele>
        <time>2019-02-23T11:04:19.000Z</time>
      </trkpt>
      <trkpt lat="43.80307" lon="7.13609">
        <ele>927.40002441406</ele>
        <time>2019-02-23T11:04:23.000Z</time>
      </trkpt>
      <trkpt lat="43.80307" lon="7.13608">
        <ele>927.40002441406</ele>
        <time>2019-02-23T11:04:24.000Z</time>
      </trkpt>
      <trkpt lat="43.80308" lon="7.13605">
        <ele>927.79998779297</ele>
        <time>2019-02-23T11:04:25.000Z</time>
      </trkpt>
      <trkpt lat="43.80312" lon="7.13594">
        <ele>927.20001220703</ele>
        <time>2019-02-23T11:04:30.000Z</time>
      </trkpt>
      <trkpt lat="43.80313" lon="7.13582">
        <ele>927.20001220703</ele>
        <time>2019-02-23T11:04:36.000Z</time>
      </trkpt>
      <trkpt lat="43.80315" lon="7.13578">
        <ele>927.20001220703</ele>
        <time>2019-02-23T11:04:39.000Z</time>
      </trkpt>
      <trkpt lat="43.80316" lon="7.13577">
        <ele>927.20001220703</ele>
        <time>2019-02-23T11:04:41.000Z</time>
      </trkpt>
      <trkpt lat="43.80317" lon="7.13575">
        <ele>927.59997558594</ele>
        <time>2019-02-23T11:04:48.000Z</time>
      </trkpt>
      <trkpt lat="43.8032" lon="7.13572">
        <ele>928</ele>
        <time>2019-02-23T11:04:53.000Z</time>
      </trkpt>
      <trkpt lat="43.80323" lon="7.13566">
        <ele>928.59997558594</ele>
        <time>2019-02-23T11:05:01.000Z</time>
      </trkpt>
      <trkpt lat="43.80323" lon="7.13565">
        <ele>928.79998779297</ele>
        <time>2019-02-23T11:05:02.000Z</time>
      </trkpt>
      <trkpt lat="43.80325" lon="7.13561">
        <ele>930</ele>
        <time>2019-02-23T11:05:07.000Z</time>
      </trkpt>
      <trkpt lat="43.80325" lon="7.13561">
        <ele>930.20001220703</ele>
        <time>2019-02-23T11:05:08.000Z</time>
      </trkpt>
      <trkpt lat="43.80326" lon="7.1356">
        <ele>930.40002441406</ele>
        <time>2019-02-23T11:05:14.000Z</time>
      </trkpt>
      <trkpt lat="43.80325" lon="7.13558">
        <ele>930.59997558594</ele>
        <time>2019-02-23T11:05:21.000Z</time>
      </trkpt>
      <trkpt lat="43.80326" lon="7.13556">
        <ele>930.59997558594</ele>
        <time>2019-02-23T11:05:31.000Z</time>
      </trkpt>
      <trkpt lat="43.80325" lon="7.13554">
        <ele>930.20001220703</ele>
        <time>2019-02-23T11:05:39.000Z</time>
      </trkpt>
      <trkpt lat="43.80325" lon="7.13554">
        <ele>931.20001220703</ele>
        <time>2019-02-23T11:05:49.000Z</time>
      </trkpt>
      <trkpt lat="43.80325" lon="7.13554">
        <ele>931</ele>
        <time>2019-02-23T11:05:51.000Z</time>
      </trkpt>
      <trkpt lat="43.80325" lon="7.13553">
        <ele>930.20001220703</ele>
        <time>2019-02-23T11:05:58.000Z</time>
      </trkpt>
      <trkpt lat="43.80325" lon="7.13553">
        <ele>930</ele>
        <time>2019-02-23T11:05:59.000Z</time>
      </trkpt>
      <trkpt lat="43.80324" lon="7.13553">
        <ele>930.20001220703</ele>
        <time>2019-02-23T11:06:05.000Z</time>
      </trkpt>
      <trkpt lat="43.80324" lon="7.13553">
        <ele>930</ele>
        <time>2019-02-23T11:06:11.000Z</time>
      </trkpt>
      <trkpt lat="43.80326" lon="7.13548">
        <ele>930</ele>
        <time>2019-02-23T11:06:17.000Z</time>
      </trkpt>
      <trkpt lat="43.80325" lon="7.13536">
        <ele>930.20001220703</ele>
        <time>2019-02-23T11:06:22.000Z</time>
      </trkpt>
      <trkpt lat="43.80325" lon="7.13519">
        <ele>930.79998779297</ele>
        <time>2019-02-23T11:06:28.000Z</time>
      </trkpt>
      <trkpt lat="43.80324" lon="7.13506">
        <ele>930.59997558594</ele>
        <time>2019-02-23T11:06:33.000Z</time>
      </trkpt>
      <trkpt lat="43.80324" lon="7.13503">
        <ele>930.59997558594</ele>
        <time>2019-02-23T11:06:34.000Z</time>
      </trkpt>
      <trkpt lat="43.80326" lon="7.13491">
        <ele>930.20001220703</ele>
        <time>2019-02-23T11:06:39.000Z</time>
      </trkpt>
      <trkpt lat="43.80328" lon="7.13489">
        <ele>930</ele>
        <time>2019-02-23T11:06:40.000Z</time>
      </trkpt>
      <trkpt lat="43.80336" lon="7.13486">
        <ele>929.20001220703</ele>
        <time>2019-02-23T11:06:46.000Z</time>
      </trkpt>
      <trkpt lat="43.80347" lon="7.1349">
        <ele>929.20001220703</ele>
        <time>2019-02-23T11:06:52.000Z</time>
      </trkpt>
      <trkpt lat="43.80358" lon="7.13492">
        <ele>929.59997558594</ele>
        <time>2019-02-23T11:06:59.000Z</time>
      </trkpt>
      <trkpt lat="43.80366" lon="7.13489">
        <ele>930.59997558594</ele>
        <time>2019-02-23T11:07:05.000Z</time>
      </trkpt>
      <trkpt lat="43.80373" lon="7.13482">
        <ele>930.79998779297</ele>
        <time>2019-02-23T11:07:12.000Z</time>
      </trkpt>
      <trkpt lat="43.80376" lon="7.13472">
        <ele>929.20001220703</ele>
        <time>2019-02-23T11:07:17.000Z</time>
      </trkpt>
      <trkpt lat="43.80378" lon="7.1347">
        <ele>928.59997558594</ele>
        <time>2019-02-23T11:07:18.000Z</time>
      </trkpt>
      <trkpt lat="43.80379" lon="7.13469">
        <ele>928.40002441406</ele>
        <time>2019-02-23T11:07:19.000Z</time>
      </trkpt>
      <trkpt lat="43.80382" lon="7.13466">
        <ele>928</ele>
        <time>2019-02-23T11:07:21.000Z</time>
      </trkpt>
      <trkpt lat="43.80385" lon="7.13464">
        <ele>927.59997558594</ele>
        <time>2019-02-23T11:07:24.000Z</time>
      </trkpt>
      <trkpt lat="43.80387" lon="7.13463">
        <ele>927.40002441406</ele>
        <time>2019-02-23T11:07:25.000Z</time>
      </trkpt>
      <trkpt lat="43.80395" lon="7.13462">
        <ele>928</ele>
        <time>2019-02-23T11:07:30.000Z</time>
      </trkpt>
      <trkpt lat="43.80403" lon="7.1346">
        <ele>928.59997558594</ele>
        <time>2019-02-23T11:07:35.000Z</time>
      </trkpt>
      <trkpt lat="43.80406" lon="7.1346">
        <ele>928.59997558594</ele>
        <time>2019-02-23T11:07:37.000Z</time>
      </trkpt>
      <trkpt lat="43.80414" lon="7.13457">
        <ele>929</ele>
        <time>2019-02-23T11:07:43.000Z</time>
      </trkpt>
      <trkpt lat="43.80426" lon="7.13453">
        <ele>928.59997558594</ele>
        <time>2019-02-23T11:07:50.000Z</time>
      </trkpt>
      <trkpt lat="43.80432" lon="7.13449">
        <ele>929</ele>
        <time>2019-02-23T11:07:54.000Z</time>
      </trkpt>
      <trkpt lat="43.80441" lon="7.13448">
        <ele>928.79998779297</ele>
        <time>2019-02-23T11:07:58.000Z</time>
      </trkpt>
      <trkpt lat="43.8045" lon="7.13446">
        <ele>928.40002441406</ele>
        <time>2019-02-23T11:08:04.000Z</time>
      </trkpt>
      <trkpt lat="43.8046" lon="7.13444">
        <ele>928</ele>
        <time>2019-02-23T11:08:10.000Z</time>
      </trkpt>
      <trkpt lat="43.80471" lon="7.1344">
        <ele>928.40002441406</ele>
        <time>2019-02-23T11:08:16.000Z</time>
      </trkpt>
      <trkpt lat="43.80477" lon="7.13439">
        <ele>927.79998779297</ele>
        <time>2019-02-23T11:08:21.000Z</time>
      </trkpt>
      <trkpt lat="43.80477" lon="7.1344">
        <ele>928.20001220703</ele>
        <time>2019-02-23T11:08:27.000Z</time>
      </trkpt>
      <trkpt lat="43.80477" lon="7.13439">
        <ele>928.20001220703</ele>
        <time>2019-02-23T11:08:36.000Z</time>
      </trkpt>
      <trkpt lat="43.80478" lon="7.1344">
        <ele>928.20001220703</ele>
        <time>2019-02-23T11:08:39.000Z</time>
      </trkpt>
      <trkpt lat="43.8048" lon="7.13441">
        <ele>928.20001220703</ele>
        <time>2019-02-23T11:08:41.000Z</time>
      </trkpt>
      <trkpt lat="43.80481" lon="7.13443">
        <ele>928.20001220703</ele>
        <time>2019-02-23T11:08:43.000Z</time>
      </trkpt>
      <trkpt lat="43.80484" lon="7.13446">
        <ele>929.20001220703</ele>
        <time>2019-02-23T11:08:50.000Z</time>
      </trkpt>
      <trkpt lat="43.80484" lon="7.13446">
        <ele>929.59997558594</ele>
        <time>2019-02-23T11:08:53.000Z</time>
      </trkpt>
      <trkpt lat="43.80484" lon="7.13446">
        <ele>930</ele>
        <time>2019-02-23T11:08:56.000Z</time>
      </trkpt>
      <trkpt lat="43.80485" lon="7.13445">
        <ele>930.20001220703</ele>
        <time>2019-02-23T11:08:58.000Z</time>
      </trkpt>
      <trkpt lat="43.8049" lon="7.13445">
        <ele>930.20001220703</ele>
        <time>2019-02-23T11:09:01.000Z</time>
      </trkpt>
      <trkpt lat="43.805" lon="7.13452">
        <ele>929.40002441406</ele>
        <time>2019-02-23T11:09:07.000Z</time>
      </trkpt>
      <trkpt lat="43.80513" lon="7.13457">
        <ele>929</ele>
        <time>2019-02-23T11:09:13.000Z</time>
      </trkpt>
      <trkpt lat="43.80515" lon="7.13457">
        <ele>928.40002441406</ele>
        <time>2019-02-23T11:09:14.000Z</time>
      </trkpt>
      <trkpt lat="43.8052" lon="7.13458">
        <ele>927.40002441406</ele>
        <time>2019-02-23T11:09:17.000Z</time>
      </trkpt>
      <trkpt lat="43.80523" lon="7.13457">
        <ele>927.20001220703</ele>
        <time>2019-02-23T11:09:18.000Z</time>
      </trkpt>
      <trkpt lat="43.80539" lon="7.13458">
        <ele>926.79998779297</ele>
        <time>2019-02-23T11:09:24.000Z</time>
      </trkpt>
      <trkpt lat="43.80554" lon="7.13459">
        <ele>927.20001220703</ele>
        <time>2019-02-23T11:09:31.000Z</time>
      </trkpt>
      <trkpt lat="43.80566" lon="7.1346">
        <ele>927.79998779297</ele>
        <time>2019-02-23T11:09:37.000Z</time>
      </trkpt>
      <trkpt lat="43.80574" lon="7.1346">
        <ele>928.40002441406</ele>
        <time>2019-02-23T11:09:41.000Z</time>
      </trkpt>
      <trkpt lat="43.80578" lon="7.13465">
        <ele>928.59997558594</ele>
        <time>2019-02-23T11:09:44.000Z</time>
      </trkpt>
      <trkpt lat="43.80585" lon="7.13474">
        <ele>928.40002441406</ele>
        <time>2019-02-23T11:09:50.000Z</time>
      </trkpt>
      <trkpt lat="43.80589" lon="7.13465">
        <ele>927.40002441406</ele>
        <time>2019-02-23T11:09:53.000Z</time>
      </trkpt>
      <trkpt lat="43.80589" lon="7.13461">
        <ele>927.20001220703</ele>
        <time>2019-02-23T11:09:54.000Z</time>
      </trkpt>
      <trkpt lat="43.80592" lon="7.13449">
        <ele>926.40002441406</ele>
        <time>2019-02-23T11:09:58.000Z</time>
      </trkpt>
      <trkpt lat="43.80593" lon="7.13447">
        <ele>926.40002441406</ele>
        <time>2019-02-23T11:09:59.000Z</time>
      </trkpt>
      <trkpt lat="43.80594" lon="7.13436">
        <ele>926.20001220703</ele>
        <time>2019-02-23T11:10:04.000Z</time>
      </trkpt>
      <trkpt lat="43.80597" lon="7.13429">
        <ele>927.40002441406</ele>
        <time>2019-02-23T11:10:09.000Z</time>
      </trkpt>
      <trkpt lat="43.80597" lon="7.13429">
        <ele>927.59997558594</ele>
        <time>2019-02-23T11:10:10.000Z</time>
      </trkpt>
      <trkpt lat="43.80597" lon="7.13428">
        <ele>927.79998779297</ele>
        <time>2019-02-23T11:10:18.000Z</time>
      </trkpt>
      <trkpt lat="43.80598" lon="7.13426">
        <ele>928.20001220703</ele>
        <time>2019-02-23T11:10:25.000Z</time>
      </trkpt>
      <trkpt lat="43.806" lon="7.13421">
        <ele>928</ele>
        <time>2019-02-23T11:10:28.000Z</time>
      </trkpt>
      <trkpt lat="43.80599" lon="7.13416">
        <ele>928</ele>
        <time>2019-02-23T11:10:31.000Z</time>
      </trkpt>
      <trkpt lat="43.80599" lon="7.13412">
        <ele>927.79998779297</ele>
        <time>2019-02-23T11:10:33.000Z</time>
      </trkpt>
      <trkpt lat="43.806" lon="7.13403">
        <ele>928.79998779297</ele>
        <time>2019-02-23T11:10:41.000Z</time>
      </trkpt>
      <trkpt lat="43.80599" lon="7.13402">
        <ele>927.59997558594</ele>
        <time>2019-02-23T11:10:48.000Z</time>
      </trkpt>
      <trkpt lat="43.806" lon="7.134">
        <ele>928</ele>
        <time>2019-02-23T11:10:51.000Z</time>
      </trkpt>
      <trkpt lat="43.80601" lon="7.13392">
        <ele>928.40002441406</ele>
        <time>2019-02-23T11:10:58.000Z</time>
      </trkpt>
      <trkpt lat="43.80601" lon="7.13389">
        <ele>928.59997558594</ele>
        <time>2019-02-23T11:11:02.000Z</time>
      </trkpt>
      <trkpt lat="43.80601" lon="7.13388">
        <ele>928.79998779297</ele>
        <time>2019-02-23T11:11:04.000Z</time>
      </trkpt>
      <trkpt lat="43.80601" lon="7.13384">
        <ele>929.59997558594</ele>
        <time>2019-02-23T11:11:10.000Z</time>
      </trkpt>
      <trkpt lat="43.80603" lon="7.13375">
        <ele>928.40002441406</ele>
        <time>2019-02-23T11:11:17.000Z</time>
      </trkpt>
      <trkpt lat="43.80604" lon="7.13364">
        <ele>928.59997558594</ele>
        <time>2019-02-23T11:11:26.000Z</time>
      </trkpt>
      <trkpt lat="43.80605" lon="7.13362">
        <ele>929.20001220703</ele>
        <time>2019-02-23T11:11:32.000Z</time>
      </trkpt>
      <trkpt lat="43.80604" lon="7.13359">
        <ele>929.59997558594</ele>
        <time>2019-02-23T11:11:37.000Z</time>
      </trkpt>
      <trkpt lat="43.80603" lon="7.13358">
        <ele>929.79998779297</ele>
        <time>2019-02-23T11:11:38.000Z</time>
      </trkpt>
      <trkpt lat="43.80603" lon="7.13356">
        <ele>930.79998779297</ele>
        <time>2019-02-23T11:11:44.000Z</time>
      </trkpt>
      <trkpt lat="43.80603" lon="7.13356">
        <ele>931</ele>
        <time>2019-02-23T11:11:45.000Z</time>
      </trkpt>
      <trkpt lat="43.80603" lon="7.13353">
        <ele>932</ele>
        <time>2019-02-23T11:11:50.000Z</time>
      </trkpt>
      <trkpt lat="43.80602" lon="7.13351">
        <ele>932.59997558594</ele>
        <time>2019-02-23T11:11:53.000Z</time>
      </trkpt>
      <trkpt lat="43.80601" lon="7.13349">
        <ele>932.20001220703</ele>
        <time>2019-02-23T11:12:03.000Z</time>
      </trkpt>
      <trkpt lat="43.80599" lon="7.13344">
        <ele>932.59997558594</ele>
        <time>2019-02-23T11:12:10.000Z</time>
      </trkpt>
      <trkpt lat="43.80598" lon="7.13343">
        <ele>933</ele>
        <time>2019-02-23T11:12:12.000Z</time>
      </trkpt>
      <trkpt lat="43.80596" lon="7.13342">
        <ele>933.40002441406</ele>
        <time>2019-02-23T11:12:14.000Z</time>
      </trkpt>
      <trkpt lat="43.80596" lon="7.1334">
        <ele>933.79998779297</ele>
        <time>2019-02-23T11:12:16.000Z</time>
      </trkpt>
      <trkpt lat="43.80594" lon="7.13338">
        <ele>934</ele>
        <time>2019-02-23T11:12:19.000Z</time>
      </trkpt>
      <trkpt lat="43.80592" lon="7.13337">
        <ele>934</ele>
        <time>2019-02-23T11:12:21.000Z</time>
      </trkpt>
      <trkpt lat="43.80591" lon="7.13335">
        <ele>933.79998779297</ele>
        <time>2019-02-23T11:12:23.000Z</time>
      </trkpt>
      <trkpt lat="43.80584" lon="7.13327">
        <ele>933.40002441406</ele>
        <time>2019-02-23T11:12:32.000Z</time>
      </trkpt>
      <trkpt lat="43.80583" lon="7.13319">
        <ele>934.59997558594</ele>
        <time>2019-02-23T11:12:38.000Z</time>
      </trkpt>
      <trkpt lat="43.8058" lon="7.13313">
        <ele>934</ele>
        <time>2019-02-23T11:12:45.000Z</time>
      </trkpt>
      <trkpt lat="43.80575" lon="7.13307">
        <ele>932.40002441406</ele>
        <time>2019-02-23T11:12:49.000Z</time>
      </trkpt>
      <trkpt lat="43.80572" lon="7.13304">
        <ele>932.20001220703</ele>
        <time>2019-02-23T11:12:51.000Z</time>
      </trkpt>
      <trkpt lat="43.8056" lon="7.13289">
        <ele>932.20001220703</ele>
        <time>2019-02-23T11:12:59.000Z</time>
      </trkpt>
      <trkpt lat="43.80551" lon="7.13273">
        <ele>931.79998779297</ele>
        <time>2019-02-23T11:13:06.000Z</time>
      </trkpt>
      <trkpt lat="43.8055" lon="7.13269">
        <ele>931.59997558594</ele>
        <time>2019-02-23T11:13:11.000Z</time>
      </trkpt>
      <trkpt lat="43.80552" lon="7.13269">
        <ele>932</ele>
        <time>2019-02-23T11:13:16.000Z</time>
      </trkpt>
      <trkpt lat="43.8056" lon="7.13267">
        <ele>932.20001220703</ele>
        <time>2019-02-23T11:13:23.000Z</time>
      </trkpt>
      <trkpt lat="43.8056" lon="7.13265">
        <ele>932.20001220703</ele>
        <time>2019-02-23T11:13:24.000Z</time>
      </trkpt>
      <trkpt lat="43.80562" lon="7.13261">
        <ele>932.20001220703</ele>
        <time>2019-02-23T11:13:27.000Z</time>
      </trkpt>
      <trkpt lat="43.80562" lon="7.13258">
        <ele>932.59997558594</ele>
        <time>2019-02-23T11:13:29.000Z</time>
      </trkpt>
      <trkpt lat="43.8056" lon="7.13256">
        <ele>932.59997558594</ele>
        <time>2019-02-23T11:13:32.000Z</time>
      </trkpt>
      <trkpt lat="43.8056" lon="7.13255">
        <ele>932.40002441406</ele>
        <time>2019-02-23T11:13:33.000Z</time>
      </trkpt>
      <trkpt lat="43.80553" lon="7.1325">
        <ele>932.20001220703</ele>
        <time>2019-02-23T11:13:38.000Z</time>
      </trkpt>
      <trkpt lat="43.80547" lon="7.13245">
        <ele>932.79998779297</ele>
        <time>2019-02-23T11:13:43.000Z</time>
      </trkpt>
      <trkpt lat="43.80545" lon="7.13244">
        <ele>932.79998779297</ele>
        <time>2019-02-23T11:13:44.000Z</time>
      </trkpt>
      <trkpt lat="43.80539" lon="7.1324">
        <ele>933.59997558594</ele>
        <time>2019-02-23T11:13:48.000Z</time>
      </trkpt>
      <trkpt lat="43.80535" lon="7.13237">
        <ele>934.40002441406</ele>
        <time>2019-02-23T11:13:51.000Z</time>
      </trkpt>
      <trkpt lat="43.80535" lon="7.13236">
        <ele>934.59997558594</ele>
        <time>2019-02-23T11:13:52.000Z</time>
      </trkpt>
      <trkpt lat="43.8053" lon="7.1323">
        <ele>935.59997558594</ele>
        <time>2019-02-23T11:13:57.000Z</time>
      </trkpt>
      <trkpt lat="43.80529" lon="7.13227">
        <ele>935.59997558594</ele>
        <time>2019-02-23T11:13:59.000Z</time>
      </trkpt>
      <trkpt lat="43.80524" lon="7.13219">
        <ele>936.79998779297</ele>
        <time>2019-02-23T11:14:05.000Z</time>
      </trkpt>
      <trkpt lat="43.80523" lon="7.13218">
        <ele>937</ele>
        <time>2019-02-23T11:14:06.000Z</time>
      </trkpt>
      <trkpt lat="43.80521" lon="7.13215">
        <ele>937.40002441406</ele>
        <time>2019-02-23T11:14:08.000Z</time>
      </trkpt>
      <trkpt lat="43.8052" lon="7.13213">
        <ele>937.79998779297</ele>
        <time>2019-02-23T11:14:10.000Z</time>
      </trkpt>
      <trkpt lat="43.80519" lon="7.13212">
        <ele>937.79998779297</ele>
        <time>2019-02-23T11:14:11.000Z</time>
      </trkpt>
      <trkpt lat="43.80516" lon="7.13207">
        <ele>939.20001220703</ele>
        <time>2019-02-23T11:14:15.000Z</time>
      </trkpt>
      <trkpt lat="43.80516" lon="7.13207">
        <ele>939.59997558594</ele>
        <time>2019-02-23T11:14:16.000Z</time>
      </trkpt>
      <trkpt lat="43.80512" lon="7.13203">
        <ele>940.20001220703</ele>
        <time>2019-02-23T11:14:20.000Z</time>
      </trkpt>
      <trkpt lat="43.80512" lon="7.13203">
        <ele>940.40002441406</ele>
        <time>2019-02-23T11:14:21.000Z</time>
      </trkpt>
      <trkpt lat="43.80511" lon="7.13202">
        <ele>940.59997558594</ele>
        <time>2019-02-23T11:14:22.000Z</time>
      </trkpt>
      <trkpt lat="43.80509" lon="7.13199">
        <ele>941.40002441406</ele>
        <time>2019-02-23T11:14:27.000Z</time>
      </trkpt>
      <trkpt lat="43.80508" lon="7.13194">
        <ele>942</ele>
        <time>2019-02-23T11:14:33.000Z</time>
      </trkpt>
      <trkpt lat="43.80507" lon="7.13191">
        <ele>942.40002441406</ele>
        <time>2019-02-23T11:14:37.000Z</time>
      </trkpt>
      <trkpt lat="43.80507" lon="7.13187">
        <ele>943.20001220703</ele>
        <time>2019-02-23T11:14:41.000Z</time>
      </trkpt>
      <trkpt lat="43.80507" lon="7.13185">
        <ele>943.59997558594</ele>
        <time>2019-02-23T11:14:43.000Z</time>
      </trkpt>
      <trkpt lat="43.80506" lon="7.1318">
        <ele>944</ele>
        <time>2019-02-23T11:14:48.000Z</time>
      </trkpt>
      <trkpt lat="43.80505" lon="7.13177">
        <ele>944.59997558594</ele>
        <time>2019-02-23T11:14:52.000Z</time>
      </trkpt>
      <trkpt lat="43.80504" lon="7.13176">
        <ele>945.20001220703</ele>
        <time>2019-02-23T11:14:55.000Z</time>
      </trkpt>
      <trkpt lat="43.805" lon="7.13174">
        <ele>945.59997558594</ele>
        <time>2019-02-23T11:14:59.000Z</time>
      </trkpt>
      <trkpt lat="43.80496" lon="7.13171">
        <ele>945.79998779297</ele>
        <time>2019-02-23T11:15:04.000Z</time>
      </trkpt>
      <trkpt lat="43.80493" lon="7.1317">
        <ele>946.59997558594</ele>
        <time>2019-02-23T11:15:10.000Z</time>
      </trkpt>
      <trkpt lat="43.80493" lon="7.1317">
        <ele>946.59997558594</ele>
        <time>2019-02-23T11:15:15.000Z</time>
      </trkpt>
      <trkpt lat="43.80491" lon="7.13169">
        <ele>946.79998779297</ele>
        <time>2019-02-23T11:15:20.000Z</time>
      </trkpt>
      <trkpt lat="43.80484" lon="7.13162">
        <ele>947.20001220703</ele>
        <time>2019-02-23T11:15:29.000Z</time>
      </trkpt>
      <trkpt lat="43.80484" lon="7.13159">
        <ele>947.79998779297</ele>
        <time>2019-02-23T11:15:32.000Z</time>
      </trkpt>
      <trkpt lat="43.80483" lon="7.13155">
        <ele>948.59997558594</ele>
        <time>2019-02-23T11:15:37.000Z</time>
      </trkpt>
      <trkpt lat="43.80483" lon="7.13155">
        <ele>948.79998779297</ele>
        <time>2019-02-23T11:15:38.000Z</time>
      </trkpt>
      <trkpt lat="43.80483" lon="7.13151">
        <ele>950</ele>
        <time>2019-02-23T11:15:42.000Z</time>
      </trkpt>
      <trkpt lat="43.80483" lon="7.13148">
        <ele>951</ele>
        <time>2019-02-23T11:15:46.000Z</time>
      </trkpt>
      <trkpt lat="43.80482" lon="7.13146">
        <ele>951.59997558594</ele>
        <time>2019-02-23T11:15:48.000Z</time>
      </trkpt>
      <trkpt lat="43.80482" lon="7.13143">
        <ele>952.20001220703</ele>
        <time>2019-02-23T11:15:52.000Z</time>
      </trkpt>
      <trkpt lat="43.80483" lon="7.13139">
        <ele>952.79998779297</ele>
        <time>2019-02-23T11:15:56.000Z</time>
      </trkpt>
      <trkpt lat="43.80484" lon="7.13137">
        <ele>953.40002441406</ele>
        <time>2019-02-23T11:15:59.000Z</time>
      </trkpt>
      <trkpt lat="43.80484" lon="7.13132">
        <ele>954.59997558594</ele>
        <time>2019-02-23T11:16:05.000Z</time>
      </trkpt>
      <trkpt lat="43.80484" lon="7.13128">
        <ele>955.79998779297</ele>
        <time>2019-02-23T11:16:10.000Z</time>
      </trkpt>
      <trkpt lat="43.80485" lon="7.13128">
        <ele>955.79998779297</ele>
        <time>2019-02-23T11:16:11.000Z</time>
      </trkpt>
      <trkpt lat="43.80486" lon="7.13128">
        <ele>955.79998779297</ele>
        <time>2019-02-23T11:16:12.000Z</time>
      </trkpt>
      <trkpt lat="43.80488" lon="7.13128">
        <ele>956.20001220703</ele>
        <time>2019-02-23T11:16:15.000Z</time>
      </trkpt>
      <trkpt lat="43.8049" lon="7.13125">
        <ele>956.20001220703</ele>
        <time>2019-02-23T11:16:19.000Z</time>
      </trkpt>
      <trkpt lat="43.80491" lon="7.1312">
        <ele>956.79998779297</ele>
        <time>2019-02-23T11:16:23.000Z</time>
      </trkpt>
      <trkpt lat="43.8049" lon="7.13114">
        <ele>957.40002441406</ele>
        <time>2019-02-23T11:16:28.000Z</time>
      </trkpt>
      <trkpt lat="43.8049" lon="7.13111">
        <ele>957.79998779297</ele>
        <time>2019-02-23T11:16:31.000Z</time>
      </trkpt>
      <trkpt lat="43.80489" lon="7.13104">
        <ele>958.40002441406</ele>
        <time>2019-02-23T11:16:38.000Z</time>
      </trkpt>
      <trkpt lat="43.8049" lon="7.13101">
        <ele>958.79998779297</ele>
        <time>2019-02-23T11:16:41.000Z</time>
      </trkpt>
      <trkpt lat="43.80491" lon="7.131">
        <ele>959.59997558594</ele>
        <time>2019-02-23T11:16:46.000Z</time>
      </trkpt>
      <trkpt lat="43.80491" lon="7.131">
        <ele>959.40002441406</ele>
        <time>2019-02-23T11:16:59.000Z</time>
      </trkpt>
      <trkpt lat="43.80492" lon="7.13094">
        <ele>959.79998779297</ele>
        <time>2019-02-23T11:17:11.000Z</time>
      </trkpt>
      <trkpt lat="43.80491" lon="7.13092">
        <ele>960</ele>
        <time>2019-02-23T11:17:13.000Z</time>
      </trkpt>
      <trkpt lat="43.8049" lon="7.13086">
        <ele>960.79998779297</ele>
        <time>2019-02-23T11:17:17.000Z</time>
      </trkpt>
      <trkpt lat="43.8049" lon="7.13086">
        <ele>960.59997558594</ele>
        <time>2019-02-23T11:17:18.000Z</time>
      </trkpt>
      <trkpt lat="43.80492" lon="7.13079">
        <ele>961</ele>
        <time>2019-02-23T11:17:25.000Z</time>
      </trkpt>
      <trkpt lat="43.80492" lon="7.13071">
        <ele>961</ele>
        <time>2019-02-23T11:17:31.000Z</time>
      </trkpt>
      <trkpt lat="43.80491" lon="7.13062">
        <ele>960.40002441406</ele>
        <time>2019-02-23T11:17:38.000Z</time>
      </trkpt>
      <trkpt lat="43.80489" lon="7.13059">
        <ele>960.20001220703</ele>
        <time>2019-02-23T11:17:44.000Z</time>
      </trkpt>
      <trkpt lat="43.80489" lon="7.13058">
        <ele>960</ele>
        <time>2019-02-23T11:17:59.000Z</time>
      </trkpt>
      <trkpt lat="43.80488" lon="7.13055">
        <ele>959.79998779297</ele>
        <time>2019-02-23T11:18:06.000Z</time>
      </trkpt>
      <trkpt lat="43.80488" lon="7.13048">
        <ele>959</ele>
        <time>2019-02-23T11:18:11.000Z</time>
      </trkpt>
      <trkpt lat="43.80488" lon="7.13046">
        <ele>958.79998779297</ele>
        <time>2019-02-23T11:18:12.000Z</time>
      </trkpt>
      <trkpt lat="43.80488" lon="7.13045">
        <ele>958.59997558594</ele>
        <time>2019-02-23T11:18:13.000Z</time>
      </trkpt>
      <trkpt lat="43.80488" lon="7.13044">
        <ele>958</ele>
        <time>2019-02-23T11:18:16.000Z</time>
      </trkpt>
      <trkpt lat="43.80488" lon="7.13043">
        <ele>957.79998779297</ele>
        <time>2019-02-23T11:18:17.000Z</time>
      </trkpt>
      <trkpt lat="43.80488" lon="7.13041">
        <ele>958</ele>
        <time>2019-02-23T11:18:24.000Z</time>
      </trkpt>
      <trkpt lat="43.80487" lon="7.13039">
        <ele>958</ele>
        <time>2019-02-23T11:18:29.000Z</time>
      </trkpt>
      <trkpt lat="43.80487" lon="7.13039">
        <ele>957.59997558594</ele>
        <time>2019-02-23T11:18:37.000Z</time>
      </trkpt>
      <trkpt lat="43.80487" lon="7.13036">
        <ele>958</ele>
        <time>2019-02-23T11:18:39.000Z</time>
      </trkpt>
      <trkpt lat="43.80488" lon="7.13035">
        <ele>958</ele>
        <time>2019-02-23T11:18:41.000Z</time>
      </trkpt>
      <trkpt lat="43.80488" lon="7.13024">
        <ele>957.59997558594</ele>
        <time>2019-02-23T11:18:45.000Z</time>
      </trkpt>
      <trkpt lat="43.80488" lon="7.13021">
        <ele>956.79998779297</ele>
        <time>2019-02-23T11:18:48.000Z</time>
      </trkpt>
      <trkpt lat="43.80488" lon="7.13021">
        <ele>956.59997558594</ele>
        <time>2019-02-23T11:18:49.000Z</time>
      </trkpt>
      <trkpt lat="43.80489" lon="7.13016">
        <ele>956</ele>
        <time>2019-02-23T11:18:52.000Z</time>
      </trkpt>
      <trkpt lat="43.80489" lon="7.13014">
        <ele>956</ele>
        <time>2019-02-23T11:18:53.000Z</time>
      </trkpt>
      <trkpt lat="43.8049" lon="7.13014">
        <ele>956</ele>
        <time>2019-02-23T11:18:59.000Z</time>
      </trkpt>
      <trkpt lat="43.8049" lon="7.13014">
        <ele>955.79998779297</ele>
        <time>2019-02-23T11:19:04.000Z</time>
      </trkpt>
      <trkpt lat="43.80494" lon="7.13015">
        <ele>955.59997558594</ele>
        <time>2019-02-23T11:19:07.000Z</time>
      </trkpt>
      <trkpt lat="43.80495" lon="7.13016">
        <ele>955.59997558594</ele>
        <time>2019-02-23T11:19:08.000Z</time>
      </trkpt>
      <trkpt lat="43.80504" lon="7.1302">
        <ele>954.59997558594</ele>
        <time>2019-02-23T11:19:12.000Z</time>
      </trkpt>
      <trkpt lat="43.80506" lon="7.13021">
        <ele>954.20001220703</ele>
        <time>2019-02-23T11:19:13.000Z</time>
      </trkpt>
      <trkpt lat="43.80511" lon="7.13023">
        <ele>953.59997558594</ele>
        <time>2019-02-23T11:19:16.000Z</time>
      </trkpt>
      <trkpt lat="43.80513" lon="7.13023">
        <ele>953</ele>
        <time>2019-02-23T11:19:19.000Z</time>
      </trkpt>
      <trkpt lat="43.80512" lon="7.13023">
        <ele>952.40002441406</ele>
        <time>2019-02-23T11:19:21.000Z</time>
      </trkpt>
      <trkpt lat="43.80512" lon="7.13023">
        <ele>953</ele>
        <time>2019-02-23T11:19:26.000Z</time>
      </trkpt>
      <trkpt lat="43.80513" lon="7.13022">
        <ele>952</ele>
        <time>2019-02-23T11:19:33.000Z</time>
      </trkpt>
      <trkpt lat="43.80513" lon="7.1302">
        <ele>952.20001220703</ele>
        <time>2019-02-23T11:19:36.000Z</time>
      </trkpt>
      <trkpt lat="43.80513" lon="7.13019">
        <ele>952.20001220703</ele>
        <time>2019-02-23T11:19:39.000Z</time>
      </trkpt>
      <trkpt lat="43.80513" lon="7.13016">
        <ele>951.59997558594</ele>
        <time>2019-02-23T11:19:45.000Z</time>
      </trkpt>
      <trkpt lat="43.80513" lon="7.13016">
        <ele>951.20001220703</ele>
        <time>2019-02-23T11:19:47.000Z</time>
      </trkpt>
      <trkpt lat="43.80515" lon="7.13015">
        <ele>951.20001220703</ele>
        <time>2019-02-23T11:19:51.000Z</time>
      </trkpt>
      <trkpt lat="43.80515" lon="7.13015">
        <ele>951</ele>
        <time>2019-02-23T11:19:53.000Z</time>
      </trkpt>
      <trkpt lat="43.80517" lon="7.13013">
        <ele>950.20001220703</ele>
        <time>2019-02-23T11:19:59.000Z</time>
      </trkpt>
      <trkpt lat="43.80517" lon="7.13013">
        <ele>950.20001220703</ele>
        <time>2019-02-23T11:20:01.000Z</time>
      </trkpt>
      <trkpt lat="43.80517" lon="7.13011">
        <ele>950.59997558594</ele>
        <time>2019-02-23T11:20:07.000Z</time>
      </trkpt>
      <trkpt lat="43.80517" lon="7.13009">
        <ele>950</ele>
        <time>2019-02-23T11:20:14.000Z</time>
      </trkpt>
      <trkpt lat="43.80517" lon="7.13007">
        <ele>950</ele>
        <time>2019-02-23T11:20:22.000Z</time>
      </trkpt>
      <trkpt lat="43.80516" lon="7.13004">
        <ele>949</ele>
        <time>2019-02-23T11:20:28.000Z</time>
      </trkpt>
      <trkpt lat="43.80516" lon="7.13004">
        <ele>949</ele>
        <time>2019-02-23T11:20:29.000Z</time>
      </trkpt>
      <trkpt lat="43.80515" lon="7.12999">
        <ele>948.40002441406</ele>
        <time>2019-02-23T11:20:36.000Z</time>
      </trkpt>
      <trkpt lat="43.80514" lon="7.12998">
        <ele>948.59997558594</ele>
        <time>2019-02-23T11:20:40.000Z</time>
      </trkpt>
      <trkpt lat="43.80515" lon="7.12994">
        <ele>948.59997558594</ele>
        <time>2019-02-23T11:20:46.000Z</time>
      </trkpt>
      <trkpt lat="43.80516" lon="7.12984">
        <ele>948.59997558594</ele>
        <time>2019-02-23T11:20:50.000Z</time>
      </trkpt>
      <trkpt lat="43.80517" lon="7.12982">
        <ele>948.40002441406</ele>
        <time>2019-02-23T11:20:51.000Z</time>
      </trkpt>
      <trkpt lat="43.80518" lon="7.1298">
        <ele>948</ele>
        <time>2019-02-23T11:20:52.000Z</time>
      </trkpt>
      <trkpt lat="43.8052" lon="7.12972">
        <ele>947</ele>
        <time>2019-02-23T11:20:55.000Z</time>
      </trkpt>
      <trkpt lat="43.80519" lon="7.12969">
        <ele>946.40002441406</ele>
        <time>2019-02-23T11:20:56.000Z</time>
      </trkpt>
      <trkpt lat="43.80518" lon="7.12967">
        <ele>946</ele>
        <time>2019-02-23T11:20:57.000Z</time>
      </trkpt>
      <trkpt lat="43.80516" lon="7.12965">
        <ele>945</ele>
        <time>2019-02-23T11:21:00.000Z</time>
      </trkpt>
      <trkpt lat="43.80516" lon="7.12965">
        <ele>944.79998779297</ele>
        <time>2019-02-23T11:21:01.000Z</time>
      </trkpt>
      <trkpt lat="43.80515" lon="7.12959">
        <ele>945</ele>
        <time>2019-02-23T11:21:05.000Z</time>
      </trkpt>
      <trkpt lat="43.80511" lon="7.12944">
        <ele>944.20001220703</ele>
        <time>2019-02-23T11:21:11.000Z</time>
      </trkpt>
      <trkpt lat="43.80508" lon="7.12933">
        <ele>943.79998779297</ele>
        <time>2019-02-23T11:21:15.000Z</time>
      </trkpt>
      <trkpt lat="43.80509" lon="7.12925">
        <ele>943.40002441406</ele>
        <time>2019-02-23T11:21:18.000Z</time>
      </trkpt>
      <trkpt lat="43.80509" lon="7.12922">
        <ele>942.79998779297</ele>
        <time>2019-02-23T11:21:21.000Z</time>
      </trkpt>
      <trkpt lat="43.80509" lon="7.12921">
        <ele>941.79998779297</ele>
        <time>2019-02-23T11:21:24.000Z</time>
      </trkpt>
      <trkpt lat="43.80509" lon="7.12921">
        <ele>941.59997558594</ele>
        <time>2019-02-23T11:21:25.000Z</time>
      </trkpt>
      <trkpt lat="43.8051" lon="7.1292">
        <ele>941.59997558594</ele>
        <time>2019-02-23T11:21:33.000Z</time>
      </trkpt>
      <trkpt lat="43.80511" lon="7.12918">
        <ele>941.59997558594</ele>
        <time>2019-02-23T11:21:37.000Z</time>
      </trkpt>
      <trkpt lat="43.80511" lon="7.12916">
        <ele>941.40002441406</ele>
        <time>2019-02-23T11:21:39.000Z</time>
      </trkpt>
      <trkpt lat="43.80512" lon="7.12911">
        <ele>940.59997558594</ele>
        <time>2019-02-23T11:21:46.000Z</time>
      </trkpt>
      <trkpt lat="43.80512" lon="7.12909">
        <ele>939.59997558594</ele>
        <time>2019-02-23T11:21:53.000Z</time>
      </trkpt>
      <trkpt lat="43.80512" lon="7.12908">
        <ele>939.40002441406</ele>
        <time>2019-02-23T11:21:54.000Z</time>
      </trkpt>
      <trkpt lat="43.80514" lon="7.12906">
        <ele>938.79998779297</ele>
        <time>2019-02-23T11:22:00.000Z</time>
      </trkpt>
      <trkpt lat="43.80514" lon="7.12906">
        <ele>938.59997558594</ele>
        <time>2019-02-23T11:22:01.000Z</time>
      </trkpt>
      <trkpt lat="43.80515" lon="7.12902">
        <ele>937.59997558594</ele>
        <time>2019-02-23T11:22:09.000Z</time>
      </trkpt>
      <trkpt lat="43.80515" lon="7.12901">
        <ele>937.40002441406</ele>
        <time>2019-02-23T11:22:10.000Z</time>
      </trkpt>
      <trkpt lat="43.80516" lon="7.12901">
        <ele>936.40002441406</ele>
        <time>2019-02-23T11:22:14.000Z</time>
      </trkpt>
      <trkpt lat="43.80516" lon="7.12901">
        <ele>936.20001220703</ele>
        <time>2019-02-23T11:22:15.000Z</time>
      </trkpt>
      <trkpt lat="43.80516" lon="7.129">
        <ele>935.40002441406</ele>
        <time>2019-02-23T11:22:23.000Z</time>
      </trkpt>
      <trkpt lat="43.80516" lon="7.129">
        <ele>935.40002441406</ele>
        <time>2019-02-23T11:22:26.000Z</time>
      </trkpt>
      <trkpt lat="43.80517" lon="7.12898">
        <ele>935.40002441406</ele>
        <time>2019-02-23T11:22:32.000Z</time>
      </trkpt>
      <trkpt lat="43.80518" lon="7.12896">
        <ele>934.20001220703</ele>
        <time>2019-02-23T11:22:36.000Z</time>
      </trkpt>
      <trkpt lat="43.80519" lon="7.12895">
        <ele>934</ele>
        <time>2019-02-23T11:22:40.000Z</time>
      </trkpt>
      <trkpt lat="43.80519" lon="7.12895">
        <ele>933.20001220703</ele>
        <time>2019-02-23T11:22:45.000Z</time>
      </trkpt>
      <trkpt lat="43.80519" lon="7.12894">
        <ele>932.79998779297</ele>
        <time>2019-02-23T11:22:48.000Z</time>
      </trkpt>
      <trkpt lat="43.8052" lon="7.12892">
        <ele>932</ele>
        <time>2019-02-23T11:22:56.000Z</time>
      </trkpt>
      <trkpt lat="43.8052" lon="7.12892">
        <ele>932</ele>
        <time>2019-02-23T11:22:57.000Z</time>
      </trkpt>
      <trkpt lat="43.80521" lon="7.1289">
        <ele>931.79998779297</ele>
        <time>2019-02-23T11:23:06.000Z</time>
      </trkpt>
      <trkpt lat="43.80521" lon="7.12887">
        <ele>931.20001220703</ele>
        <time>2019-02-23T11:23:12.000Z</time>
      </trkpt>
      <trkpt lat="43.80521" lon="7.12886">
        <ele>931</ele>
        <time>2019-02-23T11:23:13.000Z</time>
      </trkpt>
      <trkpt lat="43.80522" lon="7.12883">
        <ele>930</ele>
        <time>2019-02-23T11:23:18.000Z</time>
      </trkpt>
      <trkpt lat="43.80522" lon="7.12878">
        <ele>929.20001220703</ele>
        <time>2019-02-23T11:23:25.000Z</time>
      </trkpt>
      <trkpt lat="43.80522" lon="7.12877">
        <ele>928.79998779297</ele>
        <time>2019-02-23T11:23:28.000Z</time>
      </trkpt>
      <trkpt lat="43.80522" lon="7.12874">
        <ele>928.20001220703</ele>
        <time>2019-02-23T11:23:33.000Z</time>
      </trkpt>
      <trkpt lat="43.80522" lon="7.12872">
        <ele>927.79998779297</ele>
        <time>2019-02-23T11:23:36.000Z</time>
      </trkpt>
      <trkpt lat="43.80523" lon="7.12871">
        <ele>926.79998779297</ele>
        <time>2019-02-23T11:23:40.000Z</time>
      </trkpt>
      <trkpt lat="43.80523" lon="7.12871">
        <ele>926.59997558594</ele>
        <time>2019-02-23T11:23:41.000Z</time>
      </trkpt>
      <trkpt lat="43.80525" lon="7.12868">
        <ele>926.59997558594</ele>
        <time>2019-02-23T11:23:48.000Z</time>
      </trkpt>
      <trkpt lat="43.80525" lon="7.12867">
        <ele>925.59997558594</ele>
        <time>2019-02-23T11:23:53.000Z</time>
      </trkpt>
      <trkpt lat="43.80526" lon="7.12868">
        <ele>925.40002441406</ele>
        <time>2019-02-23T11:23:55.000Z</time>
      </trkpt>
      <trkpt lat="43.80527" lon="7.12868">
        <ele>925.20001220703</ele>
        <time>2019-02-23T11:24:02.000Z</time>
      </trkpt>
      <trkpt lat="43.80528" lon="7.12867">
        <ele>924.40002441406</ele>
        <time>2019-02-23T11:24:05.000Z</time>
      </trkpt>
      <trkpt lat="43.8053" lon="7.12865">
        <ele>924.20001220703</ele>
        <time>2019-02-23T11:24:10.000Z</time>
      </trkpt>
      <trkpt lat="43.80531" lon="7.12861">
        <ele>923.40002441406</ele>
        <time>2019-02-23T11:24:14.000Z</time>
      </trkpt>
      <trkpt lat="43.80531" lon="7.1286">
        <ele>922.59997558594</ele>
        <time>2019-02-23T11:24:17.000Z</time>
      </trkpt>
      <trkpt lat="43.80531" lon="7.1286">
        <ele>922.20001220703</ele>
        <time>2019-02-23T11:24:18.000Z</time>
      </trkpt>
      <trkpt lat="43.80531" lon="7.12859">
        <ele>921.59997558594</ele>
        <time>2019-02-23T11:24:25.000Z</time>
      </trkpt>
      <trkpt lat="43.80532" lon="7.12856">
        <ele>921.59997558594</ele>
        <time>2019-02-23T11:24:32.000Z</time>
      </trkpt>
      <trkpt lat="43.80533" lon="7.12854">
        <ele>921.20001220703</ele>
        <time>2019-02-23T11:24:37.000Z</time>
      </trkpt>
      <trkpt lat="43.80533" lon="7.12853">
        <ele>920.79998779297</ele>
        <time>2019-02-23T11:24:42.000Z</time>
      </trkpt>
      <trkpt lat="43.80534" lon="7.12849">
        <ele>920.59997558594</ele>
        <time>2019-02-23T11:24:50.000Z</time>
      </trkpt>
      <trkpt lat="43.80533" lon="7.12847">
        <ele>920</ele>
        <time>2019-02-23T11:24:55.000Z</time>
      </trkpt>
      <trkpt lat="43.80533" lon="7.12847">
        <ele>920</ele>
        <time>2019-02-23T11:24:57.000Z</time>
      </trkpt>
      <trkpt lat="43.80531" lon="7.12845">
        <ele>920.20001220703</ele>
        <time>2019-02-23T11:25:03.000Z</time>
      </trkpt>
      <trkpt lat="43.80531" lon="7.12841">
        <ele>921</ele>
        <time>2019-02-23T11:25:09.000Z</time>
      </trkpt>
      <trkpt lat="43.80532" lon="7.12836">
        <ele>919.59997558594</ele>
        <time>2019-02-23T11:25:17.000Z</time>
      </trkpt>
      <trkpt lat="43.80534" lon="7.12833">
        <ele>919.20001220703</ele>
        <time>2019-02-23T11:25:26.000Z</time>
      </trkpt>
      <trkpt lat="43.80534" lon="7.12832">
        <ele>919</ele>
        <time>2019-02-23T11:25:28.000Z</time>
      </trkpt>
      <trkpt lat="43.80534" lon="7.12829">
        <ele>917.79998779297</ele>
        <time>2019-02-23T11:25:32.000Z</time>
      </trkpt>
      <trkpt lat="43.80534" lon="7.12828">
        <ele>917.59997558594</ele>
        <time>2019-02-23T11:25:33.000Z</time>
      </trkpt>
      <trkpt lat="43.80534" lon="7.12827">
        <ele>916.59997558594</ele>
        <time>2019-02-23T11:25:36.000Z</time>
      </trkpt>
      <trkpt lat="43.80533" lon="7.12826">
        <ele>916</ele>
        <time>2019-02-23T11:25:39.000Z</time>
      </trkpt>
      <trkpt lat="43.80533" lon="7.12823">
        <ele>916.20001220703</ele>
        <time>2019-02-23T11:25:44.000Z</time>
      </trkpt>
      <trkpt lat="43.80532" lon="7.12821">
        <ele>915.59997558594</ele>
        <time>2019-02-23T11:25:47.000Z</time>
      </trkpt>
      <trkpt lat="43.80534" lon="7.12818">
        <ele>914.79998779297</ele>
        <time>2019-02-23T11:25:51.000Z</time>
      </trkpt>
      <trkpt lat="43.80533" lon="7.12817">
        <ele>914.59997558594</ele>
        <time>2019-02-23T11:25:53.000Z</time>
      </trkpt>
      <trkpt lat="43.80533" lon="7.12814">
        <ele>913.79998779297</ele>
        <time>2019-02-23T11:25:58.000Z</time>
      </trkpt>
      <trkpt lat="43.80533" lon="7.12812">
        <ele>913.59997558594</ele>
        <time>2019-02-23T11:26:02.000Z</time>
      </trkpt>
      <trkpt lat="43.80533" lon="7.12812">
        <ele>913.40002441406</ele>
        <time>2019-02-23T11:26:04.000Z</time>
      </trkpt>
      <trkpt lat="43.80535" lon="7.12807">
        <ele>912.59997558594</ele>
        <time>2019-02-23T11:26:11.000Z</time>
      </trkpt>
      <trkpt lat="43.80535" lon="7.12806">
        <ele>912.40002441406</ele>
        <time>2019-02-23T11:26:12.000Z</time>
      </trkpt>
      <trkpt lat="43.80535" lon="7.12803">
        <ele>911.40002441406</ele>
        <time>2019-02-23T11:26:18.000Z</time>
      </trkpt>
      <trkpt lat="43.80535" lon="7.12802">
        <ele>911.40002441406</ele>
        <time>2019-02-23T11:26:19.000Z</time>
      </trkpt>
      <trkpt lat="43.80536" lon="7.12798">
        <ele>910.59997558594</ele>
        <time>2019-02-23T11:26:24.000Z</time>
      </trkpt>
      <trkpt lat="43.80536" lon="7.12796">
        <ele>910.20001220703</ele>
        <time>2019-02-23T11:26:26.000Z</time>
      </trkpt>
      <trkpt lat="43.80536" lon="7.12794">
        <ele>909.20001220703</ele>
        <time>2019-02-23T11:26:30.000Z</time>
      </trkpt>
      <trkpt lat="43.80537" lon="7.12792">
        <ele>909</ele>
        <time>2019-02-23T11:26:36.000Z</time>
      </trkpt>
      <trkpt lat="43.80536" lon="7.12788">
        <ele>908.59997558594</ele>
        <time>2019-02-23T11:26:44.000Z</time>
      </trkpt>
      <trkpt lat="43.80536" lon="7.12786">
        <ele>908.20001220703</ele>
        <time>2019-02-23T11:26:51.000Z</time>
      </trkpt>
      <trkpt lat="43.80536" lon="7.12786">
        <ele>908.20001220703</ele>
        <time>2019-02-23T11:26:52.000Z</time>
      </trkpt>
      <trkpt lat="43.80536" lon="7.12783">
        <ele>908</ele>
        <time>2019-02-23T11:26:58.000Z</time>
      </trkpt>
      <trkpt lat="43.80536" lon="7.12779">
        <ele>907.20001220703</ele>
        <time>2019-02-23T11:27:05.000Z</time>
      </trkpt>
      <trkpt lat="43.80537" lon="7.12779">
        <ele>907.20001220703</ele>
        <time>2019-02-23T11:27:06.000Z</time>
      </trkpt>
      <trkpt lat="43.80537" lon="7.12776">
        <ele>906.59997558594</ele>
        <time>2019-02-23T11:27:12.000Z</time>
      </trkpt>
      <trkpt lat="43.80537" lon="7.12774">
        <ele>906</ele>
        <time>2019-02-23T11:27:15.000Z</time>
      </trkpt>
      <trkpt lat="43.80538" lon="7.12772">
        <ele>905.40002441406</ele>
        <time>2019-02-23T11:27:18.000Z</time>
      </trkpt>
      <trkpt lat="43.80537" lon="7.12769">
        <ele>905.79998779297</ele>
        <time>2019-02-23T11:27:25.000Z</time>
      </trkpt>
      <trkpt lat="43.80537" lon="7.12766">
        <ele>905</ele>
        <time>2019-02-23T11:27:30.000Z</time>
      </trkpt>
      <trkpt lat="43.80537" lon="7.12766">
        <ele>904.79998779297</ele>
        <time>2019-02-23T11:27:31.000Z</time>
      </trkpt>
      <trkpt lat="43.80538" lon="7.12761">
        <ele>904.20001220703</ele>
        <time>2019-02-23T11:27:38.000Z</time>
      </trkpt>
      <trkpt lat="43.80539" lon="7.1276">
        <ele>904</ele>
        <time>2019-02-23T11:27:40.000Z</time>
      </trkpt>
      <trkpt lat="43.80539" lon="7.12758">
        <ele>903</ele>
        <time>2019-02-23T11:27:46.000Z</time>
      </trkpt>
      <trkpt lat="43.80539" lon="7.12756">
        <ele>902.79998779297</ele>
        <time>2019-02-23T11:27:47.000Z</time>
      </trkpt>
      <trkpt lat="43.80541" lon="7.12753">
        <ele>902.20001220703</ele>
        <time>2019-02-23T11:27:55.000Z</time>
      </trkpt>
      <trkpt lat="43.80542" lon="7.12751">
        <ele>901.79998779297</ele>
        <time>2019-02-23T11:27:58.000Z</time>
      </trkpt>
      <trkpt lat="43.80543" lon="7.12749">
        <ele>900.59997558594</ele>
        <time>2019-02-23T11:28:02.000Z</time>
      </trkpt>
      <trkpt lat="43.80543" lon="7.12747">
        <ele>900.40002441406</ele>
        <time>2019-02-23T11:28:04.000Z</time>
      </trkpt>
      <trkpt lat="43.80542" lon="7.12746">
        <ele>899.79998779297</ele>
        <time>2019-02-23T11:28:09.000Z</time>
      </trkpt>
      <trkpt lat="43.80542" lon="7.12745">
        <ele>899.59997558594</ele>
        <time>2019-02-23T11:28:13.000Z</time>
      </trkpt>
      <trkpt lat="43.80542" lon="7.12741">
        <ele>899.40002441406</ele>
        <time>2019-02-23T11:28:17.000Z</time>
      </trkpt>
      <trkpt lat="43.80541" lon="7.12736">
        <ele>898.59997558594</ele>
        <time>2019-02-23T11:28:23.000Z</time>
      </trkpt>
      <trkpt lat="43.80541" lon="7.12735">
        <ele>898.59997558594</ele>
        <time>2019-02-23T11:28:24.000Z</time>
      </trkpt>
      <trkpt lat="43.8054" lon="7.12729">
        <ele>898</ele>
        <time>2019-02-23T11:28:32.000Z</time>
      </trkpt>
      <trkpt lat="43.8054" lon="7.12729">
        <ele>897.59997558594</ele>
        <time>2019-02-23T11:28:34.000Z</time>
      </trkpt>
      <trkpt lat="43.80541" lon="7.12727">
        <ele>897.20001220703</ele>
        <time>2019-02-23T11:28:38.000Z</time>
      </trkpt>
      <trkpt lat="43.80541" lon="7.12723">
        <ele>896.59997558594</ele>
        <time>2019-02-23T11:28:44.000Z</time>
      </trkpt>
      <trkpt lat="43.80541" lon="7.12722">
        <ele>896.40002441406</ele>
        <time>2019-02-23T11:28:45.000Z</time>
      </trkpt>
      <trkpt lat="43.80541" lon="7.12718">
        <ele>896</ele>
        <time>2019-02-23T11:28:53.000Z</time>
      </trkpt>
      <trkpt lat="43.8054" lon="7.12713">
        <ele>895.79998779297</ele>
        <time>2019-02-23T11:28:59.000Z</time>
      </trkpt>
      <trkpt lat="43.80539" lon="7.12709">
        <ele>895.59997558594</ele>
        <time>2019-02-23T11:29:02.000Z</time>
      </trkpt>
      <trkpt lat="43.80539" lon="7.12707">
        <ele>895.20001220703</ele>
        <time>2019-02-23T11:29:06.000Z</time>
      </trkpt>
      <trkpt lat="43.80537" lon="7.12702">
        <ele>895.40002441406</ele>
        <time>2019-02-23T11:29:12.000Z</time>
      </trkpt>
      <trkpt lat="43.80537" lon="7.12697">
        <ele>894.59997558594</ele>
        <time>2019-02-23T11:29:19.000Z</time>
      </trkpt>
      <trkpt lat="43.80536" lon="7.12697">
        <ele>894.40002441406</ele>
        <time>2019-02-23T11:29:21.000Z</time>
      </trkpt>
      <trkpt lat="43.80536" lon="7.12696">
        <ele>894</ele>
        <time>2019-02-23T11:29:25.000Z</time>
      </trkpt>
      <trkpt lat="43.80535" lon="7.12691">
        <ele>893.79998779297</ele>
        <time>2019-02-23T11:29:31.000Z</time>
      </trkpt>
      <trkpt lat="43.80533" lon="7.12684">
        <ele>893.59997558594</ele>
        <time>2019-02-23T11:29:40.000Z</time>
      </trkpt>
      <trkpt lat="43.80533" lon="7.12683">
        <ele>893.20001220703</ele>
        <time>2019-02-23T11:29:42.000Z</time>
      </trkpt>
      <trkpt lat="43.80533" lon="7.1268">
        <ele>893</ele>
        <time>2019-02-23T11:29:46.000Z</time>
      </trkpt>
      <trkpt lat="43.80532" lon="7.12677">
        <ele>892.20001220703</ele>
        <time>2019-02-23T11:29:51.000Z</time>
      </trkpt>
      <trkpt lat="43.80532" lon="7.12675">
        <ele>892</ele>
        <time>2019-02-23T11:29:53.000Z</time>
      </trkpt>
      <trkpt lat="43.80532" lon="7.12669">
        <ele>891</ele>
        <time>2019-02-23T11:30:00.000Z</time>
      </trkpt>
      <trkpt lat="43.80531" lon="7.12662">
        <ele>890</ele>
        <time>2019-02-23T11:30:06.000Z</time>
      </trkpt>
      <trkpt lat="43.80531" lon="7.12661">
        <ele>889.79998779297</ele>
        <time>2019-02-23T11:30:07.000Z</time>
      </trkpt>
      <trkpt lat="43.8053" lon="7.12654">
        <ele>889</ele>
        <time>2019-02-23T11:30:14.000Z</time>
      </trkpt>
      <trkpt lat="43.8053" lon="7.12653">
        <ele>888.79998779297</ele>
        <time>2019-02-23T11:30:15.000Z</time>
      </trkpt>
      <trkpt lat="43.80529" lon="7.12647">
        <ele>887.79998779297</ele>
        <time>2019-02-23T11:30:20.000Z</time>
      </trkpt>
      <trkpt lat="43.80528" lon="7.12646">
        <ele>887.79998779297</ele>
        <time>2019-02-23T11:30:21.000Z</time>
      </trkpt>
      <trkpt lat="43.80528" lon="7.12639">
        <ele>886.79998779297</ele>
        <time>2019-02-23T11:30:27.000Z</time>
      </trkpt>
      <trkpt lat="43.80528" lon="7.12638">
        <ele>886.59997558594</ele>
        <time>2019-02-23T11:30:28.000Z</time>
      </trkpt>
      <trkpt lat="43.80526" lon="7.12629">
        <ele>885.59997558594</ele>
        <time>2019-02-23T11:30:35.000Z</time>
      </trkpt>
      <trkpt lat="43.80525" lon="7.12628">
        <ele>885.59997558594</ele>
        <time>2019-02-23T11:30:36.000Z</time>
      </trkpt>
      <trkpt lat="43.80521" lon="7.12618">
        <ele>886</ele>
        <time>2019-02-23T11:30:44.000Z</time>
      </trkpt>
      <trkpt lat="43.80519" lon="7.12614">
        <ele>886</ele>
        <time>2019-02-23T11:30:51.000Z</time>
      </trkpt>
      <trkpt lat="43.80516" lon="7.12607">
        <ele>885.79998779297</ele>
        <time>2019-02-23T11:30:57.000Z</time>
      </trkpt>
      <trkpt lat="43.80512" lon="7.12595">
        <ele>885.40002441406</ele>
        <time>2019-02-23T11:31:03.000Z</time>
      </trkpt>
      <trkpt lat="43.80508" lon="7.12581">
        <ele>884.40002441406</ele>
        <time>2019-02-23T11:31:09.000Z</time>
      </trkpt>
      <trkpt lat="43.80508" lon="7.12578">
        <ele>884</ele>
        <time>2019-02-23T11:31:10.000Z</time>
      </trkpt>
      <trkpt lat="43.80506" lon="7.12573">
        <ele>883.40002441406</ele>
        <time>2019-02-23T11:31:12.000Z</time>
      </trkpt>
      <trkpt lat="43.80502" lon="7.12567">
        <ele>882</ele>
        <time>2019-02-23T11:31:15.000Z</time>
      </trkpt>
      <trkpt lat="43.80498" lon="7.12559">
        <ele>881.20001220703</ele>
        <time>2019-02-23T11:31:21.000Z</time>
      </trkpt>
      <trkpt lat="43.80498" lon="7.12559">
        <ele>881</ele>
        <time>2019-02-23T11:31:25.000Z</time>
      </trkpt>
      <trkpt lat="43.80498" lon="7.12557">
        <ele>880.59997558594</ele>
        <time>2019-02-23T11:31:28.000Z</time>
      </trkpt>
      <trkpt lat="43.80495" lon="7.12552">
        <ele>880</ele>
        <time>2019-02-23T11:31:36.000Z</time>
      </trkpt>
      <trkpt lat="43.80494" lon="7.12551">
        <ele>879.79998779297</ele>
        <time>2019-02-23T11:31:37.000Z</time>
      </trkpt>
      <trkpt lat="43.80493" lon="7.12546">
        <ele>879.40002441406</ele>
        <time>2019-02-23T11:31:43.000Z</time>
      </trkpt>
      <trkpt lat="43.80491" lon="7.12543">
        <ele>878.79998779297</ele>
        <time>2019-02-23T11:31:48.000Z</time>
      </trkpt>
      <trkpt lat="43.80491" lon="7.12542">
        <ele>878.59997558594</ele>
        <time>2019-02-23T11:31:49.000Z</time>
      </trkpt>
      <trkpt lat="43.80487" lon="7.12537">
        <ele>878.40002441406</ele>
        <time>2019-02-23T11:31:55.000Z</time>
      </trkpt>
      <trkpt lat="43.80483" lon="7.1253">
        <ele>877.59997558594</ele>
        <time>2019-02-23T11:32:03.000Z</time>
      </trkpt>
      <trkpt lat="43.80481" lon="7.12527">
        <ele>877.79998779297</ele>
        <time>2019-02-23T11:32:06.000Z</time>
      </trkpt>
      <trkpt lat="43.80478" lon="7.12524">
        <ele>877</ele>
        <time>2019-02-23T11:32:10.000Z</time>
      </trkpt>
      <trkpt lat="43.80475" lon="7.12519">
        <ele>876.59997558594</ele>
        <time>2019-02-23T11:32:18.000Z</time>
      </trkpt>
      <trkpt lat="43.80475" lon="7.12517">
        <ele>876.40002441406</ele>
        <time>2019-02-23T11:32:20.000Z</time>
      </trkpt>
      <trkpt lat="43.80473" lon="7.12514">
        <ele>876.20001220703</ele>
        <time>2019-02-23T11:32:22.000Z</time>
      </trkpt>
      <trkpt lat="43.80471" lon="7.12512">
        <ele>875.40002441406</ele>
        <time>2019-02-23T11:32:25.000Z</time>
      </trkpt>
      <trkpt lat="43.8047" lon="7.12512">
        <ele>875.20001220703</ele>
        <time>2019-02-23T11:32:27.000Z</time>
      </trkpt>
      <trkpt lat="43.8047" lon="7.12508">
        <ele>875.20001220703</ele>
        <time>2019-02-23T11:32:37.000Z</time>
      </trkpt>
      <trkpt lat="43.8047" lon="7.12507">
        <ele>874.20001220703</ele>
        <time>2019-02-23T11:32:41.000Z</time>
      </trkpt>
      <trkpt lat="43.80468" lon="7.12505">
        <ele>873.59997558594</ele>
        <time>2019-02-23T11:32:44.000Z</time>
      </trkpt>
      <trkpt lat="43.80468" lon="7.12505">
        <ele>873.20001220703</ele>
        <time>2019-02-23T11:32:47.000Z</time>
      </trkpt>
      <trkpt lat="43.80467" lon="7.12502">
        <ele>873</ele>
        <time>2019-02-23T11:32:57.000Z</time>
      </trkpt>
      <trkpt lat="43.80463" lon="7.12496">
        <ele>872.79998779297</ele>
        <time>2019-02-23T11:33:05.000Z</time>
      </trkpt>
      <trkpt lat="43.80461" lon="7.12492">
        <ele>872.20001220703</ele>
        <time>2019-02-23T11:33:10.000Z</time>
      </trkpt>
      <trkpt lat="43.80461" lon="7.12493">
        <ele>871.79998779297</ele>
        <time>2019-02-23T11:33:11.000Z</time>
      </trkpt>
      <trkpt lat="43.80459" lon="7.1249">
        <ele>871.40002441406</ele>
        <time>2019-02-23T11:33:17.000Z</time>
      </trkpt>
      <trkpt lat="43.80458" lon="7.12487">
        <ele>871</ele>
        <time>2019-02-23T11:33:20.000Z</time>
      </trkpt>
      <trkpt lat="43.80457" lon="7.12485">
        <ele>870.59997558594</ele>
        <time>2019-02-23T11:33:23.000Z</time>
      </trkpt>
      <trkpt lat="43.80455" lon="7.12483">
        <ele>871</ele>
        <time>2019-02-23T11:33:29.000Z</time>
      </trkpt>
      <trkpt lat="43.80452" lon="7.12478">
        <ele>871.20001220703</ele>
        <time>2019-02-23T11:33:36.000Z</time>
      </trkpt>
      <trkpt lat="43.80448" lon="7.12473">
        <ele>871.20001220703</ele>
        <time>2019-02-23T11:33:44.000Z</time>
      </trkpt>
      <trkpt lat="43.80445" lon="7.12468">
        <ele>871.79998779297</ele>
        <time>2019-02-23T11:33:52.000Z</time>
      </trkpt>
      <trkpt lat="43.80441" lon="7.12466">
        <ele>872</ele>
        <time>2019-02-23T11:33:57.000Z</time>
      </trkpt>
      <trkpt lat="43.80441" lon="7.12465">
        <ele>872</ele>
        <time>2019-02-23T11:33:58.000Z</time>
      </trkpt>
      <trkpt lat="43.80438" lon="7.12458">
        <ele>872.20001220703</ele>
        <time>2019-02-23T11:34:06.000Z</time>
      </trkpt>
      <trkpt lat="43.80435" lon="7.12453">
        <ele>871.79998779297</ele>
        <time>2019-02-23T11:34:13.000Z</time>
      </trkpt>
      <trkpt lat="43.80432" lon="7.12448">
        <ele>871.79998779297</ele>
        <time>2019-02-23T11:34:20.000Z</time>
      </trkpt>
      <trkpt lat="43.80428" lon="7.12442">
        <ele>871.59997558594</ele>
        <time>2019-02-23T11:34:28.000Z</time>
      </trkpt>
      <trkpt lat="43.80424" lon="7.12436">
        <ele>871</ele>
        <time>2019-02-23T11:34:37.000Z</time>
      </trkpt>
      <trkpt lat="43.80423" lon="7.12435">
        <ele>871.20001220703</ele>
        <time>2019-02-23T11:34:46.000Z</time>
      </trkpt>
      <trkpt lat="43.80421" lon="7.12434">
        <ele>871.20001220703</ele>
        <time>2019-02-23T11:34:59.000Z</time>
      </trkpt>
      <trkpt lat="43.80421" lon="7.12433">
        <ele>871</ele>
        <time>2019-02-23T11:35:02.000Z</time>
      </trkpt>
      <trkpt lat="43.8042" lon="7.1243">
        <ele>870</ele>
        <time>2019-02-23T11:35:07.000Z</time>
      </trkpt>
      <trkpt lat="43.80419" lon="7.12429">
        <ele>869.79998779297</ele>
        <time>2019-02-23T11:35:09.000Z</time>
      </trkpt>
      <trkpt lat="43.80419" lon="7.12427">
        <ele>868.79998779297</ele>
        <time>2019-02-23T11:35:14.000Z</time>
      </trkpt>
      <trkpt lat="43.80418" lon="7.12426">
        <ele>868.59997558594</ele>
        <time>2019-02-23T11:35:15.000Z</time>
      </trkpt>
      <trkpt lat="43.80416" lon="7.12422">
        <ele>868</ele>
        <time>2019-02-23T11:35:21.000Z</time>
      </trkpt>
      <trkpt lat="43.80415" lon="7.12421">
        <ele>867.59997558594</ele>
        <time>2019-02-23T11:35:23.000Z</time>
      </trkpt>
      <trkpt lat="43.80411" lon="7.12417">
        <ele>868</ele>
        <time>2019-02-23T11:35:28.000Z</time>
      </trkpt>
      <trkpt lat="43.80409" lon="7.12414">
        <ele>868.20001220703</ele>
        <time>2019-02-23T11:35:36.000Z</time>
      </trkpt>
      <trkpt lat="43.80406" lon="7.12409">
        <ele>867.79998779297</ele>
        <time>2019-02-23T11:35:43.000Z</time>
      </trkpt>
      <trkpt lat="43.80404" lon="7.12404">
        <ele>867.20001220703</ele>
        <time>2019-02-23T11:35:49.000Z</time>
      </trkpt>
      <trkpt lat="43.80402" lon="7.12399">
        <ele>866.40002441406</ele>
        <time>2019-02-23T11:35:54.000Z</time>
      </trkpt>
      <trkpt lat="43.80401" lon="7.12397">
        <ele>866.20001220703</ele>
        <time>2019-02-23T11:35:56.000Z</time>
      </trkpt>
      <trkpt lat="43.80401" lon="7.12397">
        <ele>866</ele>
        <time>2019-02-23T11:35:57.000Z</time>
      </trkpt>
      <trkpt lat="43.80398" lon="7.12392">
        <ele>865.40002441406</ele>
        <time>2019-02-23T11:36:04.000Z</time>
      </trkpt>
      <trkpt lat="43.80397" lon="7.12391">
        <ele>865.59997558594</ele>
        <time>2019-02-23T11:36:05.000Z</time>
      </trkpt>
      <trkpt lat="43.80393" lon="7.12383">
        <ele>865.40002441406</ele>
        <time>2019-02-23T11:36:14.000Z</time>
      </trkpt>
      <trkpt lat="43.80391" lon="7.12377">
        <ele>864.40002441406</ele>
        <time>2019-02-23T11:36:20.000Z</time>
      </trkpt>
      <trkpt lat="43.8039" lon="7.12375">
        <ele>864.20001220703</ele>
        <time>2019-02-23T11:36:22.000Z</time>
      </trkpt>
      <trkpt lat="43.80388" lon="7.12368">
        <ele>863.40002441406</ele>
        <time>2019-02-23T11:36:28.000Z</time>
      </trkpt>
      <trkpt lat="43.80387" lon="7.12367">
        <ele>862.79998779297</ele>
        <time>2019-02-23T11:36:30.000Z</time>
      </trkpt>
      <trkpt lat="43.80383" lon="7.12361">
        <ele>862.79998779297</ele>
        <time>2019-02-23T11:36:36.000Z</time>
      </trkpt>
      <trkpt lat="43.80379" lon="7.12357">
        <ele>862.79998779297</ele>
        <time>2019-02-23T11:36:43.000Z</time>
      </trkpt>
      <trkpt lat="43.80379" lon="7.12354">
        <ele>862.79998779297</ele>
        <time>2019-02-23T11:37:00.000Z</time>
      </trkpt>
      <trkpt lat="43.80374" lon="7.1235">
        <ele>863</ele>
        <time>2019-02-23T11:37:07.000Z</time>
      </trkpt>
      <trkpt lat="43.80368" lon="7.12345">
        <ele>864</ele>
        <time>2019-02-23T11:37:16.000Z</time>
      </trkpt>
      <trkpt lat="43.80363" lon="7.1234">
        <ele>864</ele>
        <time>2019-02-23T11:37:24.000Z</time>
      </trkpt>
      <trkpt lat="43.80357" lon="7.12332">
        <ele>864</ele>
        <time>2019-02-23T11:37:32.000Z</time>
      </trkpt>
      <trkpt lat="43.80352" lon="7.12324">
        <ele>863.59997558594</ele>
        <time>2019-02-23T11:37:40.000Z</time>
      </trkpt>
      <trkpt lat="43.80346" lon="7.12318">
        <ele>862.79998779297</ele>
        <time>2019-02-23T11:37:48.000Z</time>
      </trkpt>
      <trkpt lat="43.80339" lon="7.1231">
        <ele>862.79998779297</ele>
        <time>2019-02-23T11:37:57.000Z</time>
      </trkpt>
      <trkpt lat="43.80333" lon="7.12303">
        <ele>863.20001220703</ele>
        <time>2019-02-23T11:38:04.000Z</time>
      </trkpt>
      <trkpt lat="43.80329" lon="7.12296">
        <ele>862.40002441406</ele>
        <time>2019-02-23T11:38:10.000Z</time>
      </trkpt>
      <trkpt lat="43.80328" lon="7.12295">
        <ele>862.20001220703</ele>
        <time>2019-02-23T11:38:11.000Z</time>
      </trkpt>
      <trkpt lat="43.80323" lon="7.1229">
        <ele>861.59997558594</ele>
        <time>2019-02-23T11:38:17.000Z</time>
      </trkpt>
      <trkpt lat="43.80316" lon="7.12286">
        <ele>861.79998779297</ele>
        <time>2019-02-23T11:38:25.000Z</time>
      </trkpt>
      <trkpt lat="43.80311" lon="7.12285">
        <ele>862.40002441406</ele>
        <time>2019-02-23T11:38:32.000Z</time>
      </trkpt>
      <trkpt lat="43.8031" lon="7.12284">
        <ele>862.79998779297</ele>
        <time>2019-02-23T11:38:37.000Z</time>
      </trkpt>
      <trkpt lat="43.80307" lon="7.12282">
        <ele>862.59997558594</ele>
        <time>2019-02-23T11:38:41.000Z</time>
      </trkpt>
      <trkpt lat="43.80306" lon="7.12282">
        <ele>863</ele>
        <time>2019-02-23T11:38:43.000Z</time>
      </trkpt>
      <trkpt lat="43.80306" lon="7.12282">
        <ele>863</ele>
        <time>2019-02-23T11:38:51.000Z</time>
      </trkpt>
      <trkpt lat="43.80305" lon="7.12283">
        <ele>863.20001220703</ele>
        <time>2019-02-23T11:38:58.000Z</time>
      </trkpt>
      <trkpt lat="43.80305" lon="7.12283">
        <ele>863.20001220703</ele>
        <time>2019-02-23T11:38:59.000Z</time>
      </trkpt>
      <trkpt lat="43.80305" lon="7.12283">
        <ele>863.40002441406</ele>
        <time>2019-02-23T11:39:11.000Z</time>
      </trkpt>
      <trkpt lat="43.80304" lon="7.12283">
        <ele>863.79998779297</ele>
        <time>2019-02-23T11:39:17.000Z</time>
      </trkpt>
      <trkpt lat="43.80304" lon="7.12283">
        <ele>863.40002441406</ele>
        <time>2019-02-23T11:39:22.000Z</time>
      </trkpt>
      <trkpt lat="43.80303" lon="7.12282">
        <ele>863.40002441406</ele>
        <time>2019-02-23T11:39:36.000Z</time>
      </trkpt>
      <trkpt lat="43.80303" lon="7.12282">
        <ele>864.40002441406</ele>
        <time>2019-02-23T11:39:41.000Z</time>
      </trkpt>
      <trkpt lat="43.80303" lon="7.12282">
        <ele>864</ele>
        <time>2019-02-23T11:39:49.000Z</time>
      </trkpt>
      <trkpt lat="43.80303" lon="7.12281">
        <ele>863.79998779297</ele>
        <time>2019-02-23T11:39:56.000Z</time>
      </trkpt>
      <trkpt lat="43.80304" lon="7.12281">
        <ele>863.40002441406</ele>
        <time>2019-02-23T11:40:01.000Z</time>
      </trkpt>
      <trkpt lat="43.80304" lon="7.1228">
        <ele>862.79998779297</ele>
        <time>2019-02-23T11:40:04.000Z</time>
      </trkpt>
      <trkpt lat="43.80303" lon="7.1228">
        <ele>862.59997558594</ele>
        <time>2019-02-23T11:40:10.000Z</time>
      </trkpt>
      <trkpt lat="43.80303" lon="7.12277">
        <ele>863</ele>
        <time>2019-02-23T11:40:17.000Z</time>
      </trkpt>
      <trkpt lat="43.80303" lon="7.12277">
        <ele>862.59997558594</ele>
        <time>2019-02-23T11:40:24.000Z</time>
      </trkpt>
      <trkpt lat="43.80302" lon="7.12276">
        <ele>862.59997558594</ele>
        <time>2019-02-23T11:40:34.000Z</time>
      </trkpt>
      <trkpt lat="43.803" lon="7.12276">
        <ele>862.59997558594</ele>
        <time>2019-02-23T11:40:40.000Z</time>
      </trkpt>
      <trkpt lat="43.80296" lon="7.1227">
        <ele>863.40002441406</ele>
        <time>2019-02-23T11:40:47.000Z</time>
      </trkpt>
      <trkpt lat="43.8029" lon="7.12262">
        <ele>862.20001220703</ele>
        <time>2019-02-23T11:40:56.000Z</time>
      </trkpt>
      <trkpt lat="43.80284" lon="7.12258">
        <ele>861.79998779297</ele>
        <time>2019-02-23T11:41:04.000Z</time>
      </trkpt>
      <trkpt lat="43.80279" lon="7.12253">
        <ele>861.79998779297</ele>
        <time>2019-02-23T11:41:11.000Z</time>
      </trkpt>
      <trkpt lat="43.80277" lon="7.12249">
        <ele>862</ele>
        <time>2019-02-23T11:41:15.000Z</time>
      </trkpt>
      <trkpt lat="43.80274" lon="7.12248">
        <ele>861.79998779297</ele>
        <time>2019-02-23T11:41:18.000Z</time>
      </trkpt>
      <trkpt lat="43.80269" lon="7.12245">
        <ele>862.59997558594</ele>
        <time>2019-02-23T11:41:26.000Z</time>
      </trkpt>
      <trkpt lat="43.80265" lon="7.1224">
        <ele>863.20001220703</ele>
        <time>2019-02-23T11:41:33.000Z</time>
      </trkpt>
      <trkpt lat="43.80263" lon="7.12236">
        <ele>863.40002441406</ele>
        <time>2019-02-23T11:41:39.000Z</time>
      </trkpt>
      <trkpt lat="43.8026" lon="7.12231">
        <ele>863.20001220703</ele>
        <time>2019-02-23T11:41:46.000Z</time>
      </trkpt>
      <trkpt lat="43.80261" lon="7.12226">
        <ele>863.40002441406</ele>
        <time>2019-02-23T11:41:52.000Z</time>
      </trkpt>
      <trkpt lat="43.80261" lon="7.12221">
        <ele>863.40002441406</ele>
        <time>2019-02-23T11:41:57.000Z</time>
      </trkpt>
      <trkpt lat="43.80261" lon="7.12208">
        <ele>863.20001220703</ele>
        <time>2019-02-23T11:42:02.000Z</time>
      </trkpt>
      <trkpt lat="43.80258" lon="7.12194">
        <ele>862.59997558594</ele>
        <time>2019-02-23T11:42:09.000Z</time>
      </trkpt>
      <trkpt lat="43.8026" lon="7.12188">
        <ele>862.20001220703</ele>
        <time>2019-02-23T11:42:12.000Z</time>
      </trkpt>
      <trkpt lat="43.80262" lon="7.12181">
        <ele>861</ele>
        <time>2019-02-23T11:42:15.000Z</time>
      </trkpt>
      <trkpt lat="43.80268" lon="7.12169">
        <ele>860</ele>
        <time>2019-02-23T11:42:21.000Z</time>
      </trkpt>
      <trkpt lat="43.80274" lon="7.12162">
        <ele>860</ele>
        <time>2019-02-23T11:42:25.000Z</time>
      </trkpt>
      <trkpt lat="43.80275" lon="7.12159">
        <ele>859.59997558594</ele>
        <time>2019-02-23T11:42:29.000Z</time>
      </trkpt>
      <trkpt lat="43.80275" lon="7.12158">
        <ele>859.20001220703</ele>
        <time>2019-02-23T11:42:36.000Z</time>
      </trkpt>
      <trkpt lat="43.80277" lon="7.12156">
        <ele>859.79998779297</ele>
        <time>2019-02-23T11:42:45.000Z</time>
      </trkpt>
      <trkpt lat="43.80278" lon="7.12154">
        <ele>860</ele>
        <time>2019-02-23T11:42:53.000Z</time>
      </trkpt>
      <trkpt lat="43.8028" lon="7.12156">
        <ele>860.40002441406</ele>
        <time>2019-02-23T11:42:59.000Z</time>
      </trkpt>
      <trkpt lat="43.80282" lon="7.12158">
        <ele>861</ele>
        <time>2019-02-23T11:43:05.000Z</time>
      </trkpt>
      <trkpt lat="43.80282" lon="7.12158">
        <ele>861.40002441406</ele>
        <time>2019-02-23T11:43:06.000Z</time>
      </trkpt>
      <trkpt lat="43.80282" lon="7.12158">
        <ele>862.20001220703</ele>
        <time>2019-02-23T11:43:09.000Z</time>
      </trkpt>
      <trkpt lat="43.80282" lon="7.12157">
        <ele>862.20001220703</ele>
        <time>2019-02-23T11:43:12.000Z</time>
      </trkpt>
      <trkpt lat="43.80283" lon="7.12156">
        <ele>862.40002441406</ele>
        <time>2019-02-23T11:43:18.000Z</time>
      </trkpt>
      <trkpt lat="43.80284" lon="7.12153">
        <ele>862.59997558594</ele>
        <time>2019-02-23T11:43:28.000Z</time>
      </trkpt>
      <trkpt lat="43.80283" lon="7.12153">
        <ele>862.40002441406</ele>
        <time>2019-02-23T11:43:35.000Z</time>
      </trkpt>
      <trkpt lat="43.80282" lon="7.12152">
        <ele>862.20001220703</ele>
        <time>2019-02-23T11:43:46.000Z</time>
      </trkpt>
      <trkpt lat="43.80282" lon="7.12151">
        <ele>862.79998779297</ele>
        <time>2019-02-23T11:43:51.000Z</time>
      </trkpt>
      <trkpt lat="43.80281" lon="7.12148">
        <ele>862.79998779297</ele>
        <time>2019-02-23T11:43:53.000Z</time>
      </trkpt>
      <trkpt lat="43.80282" lon="7.12142">
        <ele>863</ele>
        <time>2019-02-23T11:43:57.000Z</time>
      </trkpt>
      <trkpt lat="43.80282" lon="7.12138">
        <ele>863.20001220703</ele>
        <time>2019-02-23T11:43:59.000Z</time>
      </trkpt>
      <trkpt lat="43.80281" lon="7.12128">
        <ele>864</ele>
        <time>2019-02-23T11:44:04.000Z</time>
      </trkpt>
      <trkpt lat="43.80281" lon="7.1212">
        <ele>864.20001220703</ele>
        <time>2019-02-23T11:44:07.000Z</time>
      </trkpt>
      <trkpt lat="43.8028" lon="7.12113">
        <ele>864.40002441406</ele>
        <time>2019-02-23T11:44:10.000Z</time>
      </trkpt>
      <trkpt lat="43.80278" lon="7.12099">
        <ele>865.20001220703</ele>
        <time>2019-02-23T11:44:16.000Z</time>
      </trkpt>
      <trkpt lat="43.80277" lon="7.12094">
        <ele>865.59997558594</ele>
        <time>2019-02-23T11:44:18.000Z</time>
      </trkpt>
      <trkpt lat="43.80276" lon="7.12075">
        <ele>865.20001220703</ele>
        <time>2019-02-23T11:44:24.000Z</time>
      </trkpt>
      <trkpt lat="43.80268" lon="7.12041">
        <ele>865.20001220703</ele>
        <time>2019-02-23T11:44:32.000Z</time>
      </trkpt>
      <trkpt lat="43.80257" lon="7.12034">
        <ele>865.20001220703</ele>
        <time>2019-02-23T11:44:37.000Z</time>
      </trkpt>
      <trkpt lat="43.80246" lon="7.1203">
        <ele>866.20001220703</ele>
        <time>2019-02-23T11:44:42.000Z</time>
      </trkpt>
      <trkpt lat="43.80244" lon="7.1203">
        <ele>866.40002441406</ele>
        <time>2019-02-23T11:44:43.000Z</time>
      </trkpt>
      <trkpt lat="43.80238" lon="7.12027">
        <ele>867.40002441406</ele>
        <time>2019-02-23T11:44:47.000Z</time>
      </trkpt>
      <trkpt lat="43.80236" lon="7.12024">
        <ele>868</ele>
        <time>2019-02-23T11:44:49.000Z</time>
      </trkpt>
      <trkpt lat="43.80234" lon="7.12021">
        <ele>868.59997558594</ele>
        <time>2019-02-23T11:44:51.000Z</time>
      </trkpt>
      <trkpt lat="43.80232" lon="7.1201">
        <ele>869.20001220703</ele>
        <time>2019-02-23T11:44:56.000Z</time>
      </trkpt>
      <trkpt lat="43.80231" lon="7.12006">
        <ele>869.79998779297</ele>
        <time>2019-02-23T11:44:58.000Z</time>
      </trkpt>
      <trkpt lat="43.8023" lon="7.12002">
        <ele>870.40002441406</ele>
        <time>2019-02-23T11:45:00.000Z</time>
      </trkpt>
      <trkpt lat="43.8023" lon="7.11998">
        <ele>871</ele>
        <time>2019-02-23T11:45:02.000Z</time>
      </trkpt>
      <trkpt lat="43.8023" lon="7.1199">
        <ele>871.59997558594</ele>
        <time>2019-02-23T11:45:06.000Z</time>
      </trkpt>
      <trkpt lat="43.8023" lon="7.11988">
        <ele>871.59997558594</ele>
        <time>2019-02-23T11:45:07.000Z</time>
      </trkpt>
      <trkpt lat="43.80229" lon="7.11978">
        <ele>872</ele>
        <time>2019-02-23T11:45:11.000Z</time>
      </trkpt>
      <trkpt lat="43.8023" lon="7.11973">
        <ele>872.20001220703</ele>
        <time>2019-02-23T11:45:13.000Z</time>
      </trkpt>
      <trkpt lat="43.8023" lon="7.1197">
        <ele>872.40002441406</ele>
        <time>2019-02-23T11:45:14.000Z</time>
      </trkpt>
      <trkpt lat="43.80232" lon="7.1196">
        <ele>872.59997558594</ele>
        <time>2019-02-23T11:45:18.000Z</time>
      </trkpt>
      <trkpt lat="43.80233" lon="7.11957">
        <ele>872.59997558594</ele>
        <time>2019-02-23T11:45:19.000Z</time>
      </trkpt>
      <trkpt lat="43.80236" lon="7.11947">
        <ele>872.79998779297</ele>
        <time>2019-02-23T11:45:23.000Z</time>
      </trkpt>
      <trkpt lat="43.8024" lon="7.1194">
        <ele>873</ele>
        <time>2019-02-23T11:45:26.000Z</time>
      </trkpt>
      <trkpt lat="43.80243" lon="7.11935">
        <ele>873</ele>
        <time>2019-02-23T11:45:28.000Z</time>
      </trkpt>
      <trkpt lat="43.80252" lon="7.11922">
        <ele>873.20001220703</ele>
        <time>2019-02-23T11:45:34.000Z</time>
      </trkpt>
      <trkpt lat="43.8026" lon="7.11905">
        <ele>873.79998779297</ele>
        <time>2019-02-23T11:45:41.000Z</time>
      </trkpt>
      <trkpt lat="43.80262" lon="7.119">
        <ele>874.20001220703</ele>
        <time>2019-02-23T11:45:43.000Z</time>
      </trkpt>
      <trkpt lat="43.80264" lon="7.11887">
        <ele>875.40002441406</ele>
        <time>2019-02-23T11:45:48.000Z</time>
      </trkpt>
      <trkpt lat="43.80266" lon="7.11861">
        <ele>875.59997558594</ele>
        <time>2019-02-23T11:45:57.000Z</time>
      </trkpt>
      <trkpt lat="43.80267" lon="7.1184">
        <ele>875.79998779297</ele>
        <time>2019-02-23T11:46:04.000Z</time>
      </trkpt>
      <trkpt lat="43.80265" lon="7.11819">
        <ele>876.40002441406</ele>
        <time>2019-02-23T11:46:11.000Z</time>
      </trkpt>
      <trkpt lat="43.80264" lon="7.11813">
        <ele>876.59997558594</ele>
        <time>2019-02-23T11:46:13.000Z</time>
      </trkpt>
      <trkpt lat="43.8026" lon="7.11801">
        <ele>877.40002441406</ele>
        <time>2019-02-23T11:46:18.000Z</time>
      </trkpt>
      <trkpt lat="43.80258" lon="7.11797">
        <ele>877.79998779297</ele>
        <time>2019-02-23T11:46:20.000Z</time>
      </trkpt>
      <trkpt lat="43.80255" lon="7.11788">
        <ele>878.40002441406</ele>
        <time>2019-02-23T11:46:24.000Z</time>
      </trkpt>
      <trkpt lat="43.80252" lon="7.1178">
        <ele>879.40002441406</ele>
        <time>2019-02-23T11:46:28.000Z</time>
      </trkpt>
      <trkpt lat="43.80251" lon="7.11778">
        <ele>879.59997558594</ele>
        <time>2019-02-23T11:46:29.000Z</time>
      </trkpt>
      <trkpt lat="43.80246" lon="7.11765">
        <ele>880.20001220703</ele>
        <time>2019-02-23T11:46:35.000Z</time>
      </trkpt>
      <trkpt lat="43.80243" lon="7.11758">
        <ele>880.59997558594</ele>
        <time>2019-02-23T11:46:38.000Z</time>
      </trkpt>
      <trkpt lat="43.80239" lon="7.11744">
        <ele>881.40002441406</ele>
        <time>2019-02-23T11:46:44.000Z</time>
      </trkpt>
      <trkpt lat="43.80237" lon="7.11738">
        <ele>881.59997558594</ele>
        <time>2019-02-23T11:46:46.000Z</time>
      </trkpt>
      <trkpt lat="43.80233" lon="7.11723">
        <ele>882.79998779297</ele>
        <time>2019-02-23T11:46:52.000Z</time>
      </trkpt>
      <trkpt lat="43.80233" lon="7.11721">
        <ele>883</ele>
        <time>2019-02-23T11:46:53.000Z</time>
      </trkpt>
      <trkpt lat="43.80231" lon="7.11713">
        <ele>883.79998779297</ele>
        <time>2019-02-23T11:46:56.000Z</time>
      </trkpt>
      <trkpt lat="43.80229" lon="7.117">
        <ele>885</ele>
        <time>2019-02-23T11:47:01.000Z</time>
      </trkpt>
      <trkpt lat="43.80225" lon="7.11685">
        <ele>886.20001220703</ele>
        <time>2019-02-23T11:47:07.000Z</time>
      </trkpt>
      <trkpt lat="43.80224" lon="7.11681">
        <ele>886.59997558594</ele>
        <time>2019-02-23T11:47:09.000Z</time>
      </trkpt>
      <trkpt lat="43.80222" lon="7.11673">
        <ele>887.40002441406</ele>
        <time>2019-02-23T11:47:12.000Z</time>
      </trkpt>
      <trkpt lat="43.80218" lon="7.11658">
        <ele>888.40002441406</ele>
        <time>2019-02-23T11:47:18.000Z</time>
      </trkpt>
      <trkpt lat="43.80217" lon="7.11656">
        <ele>888.59997558594</ele>
        <time>2019-02-23T11:47:19.000Z</time>
      </trkpt>
      <trkpt lat="43.80212" lon="7.11645">
        <ele>889.40002441406</ele>
        <time>2019-02-23T11:47:24.000Z</time>
      </trkpt>
      <trkpt lat="43.80207" lon="7.11637">
        <ele>889.79998779297</ele>
        <time>2019-02-23T11:47:28.000Z</time>
      </trkpt>
      <trkpt lat="43.80202" lon="7.11631">
        <ele>890.59997558594</ele>
        <time>2019-02-23T11:47:31.000Z</time>
      </trkpt>
      <trkpt lat="43.80195" lon="7.11623">
        <ele>891.20001220703</ele>
        <time>2019-02-23T11:47:36.000Z</time>
      </trkpt>
      <trkpt lat="43.80187" lon="7.11615">
        <ele>891.59997558594</ele>
        <time>2019-02-23T11:47:41.000Z</time>
      </trkpt>
      <trkpt lat="43.80181" lon="7.11606">
        <ele>892.40002441406</ele>
        <time>2019-02-23T11:47:46.000Z</time>
      </trkpt>
      <trkpt lat="43.80175" lon="7.11599">
        <ele>892.79998779297</ele>
        <time>2019-02-23T11:47:50.000Z</time>
      </trkpt>
      <trkpt lat="43.80172" lon="7.11595">
        <ele>893</ele>
        <time>2019-02-23T11:47:52.000Z</time>
      </trkpt>
      <trkpt lat="43.80165" lon="7.11583">
        <ele>893.79998779297</ele>
        <time>2019-02-23T11:47:58.000Z</time>
      </trkpt>
      <trkpt lat="43.8016" lon="7.11575">
        <ele>894.40002441406</ele>
        <time>2019-02-23T11:48:02.000Z</time>
      </trkpt>
      <trkpt lat="43.80155" lon="7.11564">
        <ele>894.79998779297</ele>
        <time>2019-02-23T11:48:07.000Z</time>
      </trkpt>
      <trkpt lat="43.80152" lon="7.11557">
        <ele>895.40002441406</ele>
        <time>2019-02-23T11:48:10.000Z</time>
      </trkpt>
      <trkpt lat="43.80145" lon="7.1154">
        <ele>895.79998779297</ele>
        <time>2019-02-23T11:48:17.000Z</time>
      </trkpt>
      <trkpt lat="43.80142" lon="7.11533">
        <ele>896</ele>
        <time>2019-02-23T11:48:20.000Z</time>
      </trkpt>
      <trkpt lat="43.80136" lon="7.11518">
        <ele>897.20001220703</ele>
        <time>2019-02-23T11:48:26.000Z</time>
      </trkpt>
      <trkpt lat="43.80132" lon="7.11508">
        <ele>898</ele>
        <time>2019-02-23T11:48:30.000Z</time>
      </trkpt>
      <trkpt lat="43.80129" lon="7.11501">
        <ele>898.20001220703</ele>
        <time>2019-02-23T11:48:33.000Z</time>
      </trkpt>
      <trkpt lat="43.80123" lon="7.11486">
        <ele>899</ele>
        <time>2019-02-23T11:48:39.000Z</time>
      </trkpt>
      <trkpt lat="43.8012" lon="7.11479">
        <ele>899.20001220703</ele>
        <time>2019-02-23T11:48:42.000Z</time>
      </trkpt>
      <trkpt lat="43.80113" lon="7.11464">
        <ele>900</ele>
        <time>2019-02-23T11:48:48.000Z</time>
      </trkpt>
      <trkpt lat="43.8011" lon="7.11457">
        <ele>900.40002441406</ele>
        <time>2019-02-23T11:48:51.000Z</time>
      </trkpt>
      <trkpt lat="43.80104" lon="7.11443">
        <ele>901</ele>
        <time>2019-02-23T11:48:56.000Z</time>
      </trkpt>
      <trkpt lat="43.80099" lon="7.11432">
        <ele>901.40002441406</ele>
        <time>2019-02-23T11:49:00.000Z</time>
      </trkpt>
      <trkpt lat="43.80093" lon="7.11411">
        <ele>902.40002441406</ele>
        <time>2019-02-23T11:49:07.000Z</time>
      </trkpt>
      <trkpt lat="43.80093" lon="7.11408">
        <ele>902.40002441406</ele>
        <time>2019-02-23T11:49:08.000Z</time>
      </trkpt>
      <trkpt lat="43.80091" lon="7.11382">
        <ele>903.59997558594</ele>
        <time>2019-02-23T11:49:16.000Z</time>
      </trkpt>
      <trkpt lat="43.80091" lon="7.11354">
        <ele>904.59997558594</ele>
        <time>2019-02-23T11:49:24.000Z</time>
      </trkpt>
      <trkpt lat="43.80088" lon="7.11331">
        <ele>905</ele>
        <time>2019-02-23T11:49:31.000Z</time>
      </trkpt>
      <trkpt lat="43.80086" lon="7.11322">
        <ele>905.59997558594</ele>
        <time>2019-02-23T11:49:35.000Z</time>
      </trkpt>
      <trkpt lat="43.80085" lon="7.11318">
        <ele>906</ele>
        <time>2019-02-23T11:49:37.000Z</time>
      </trkpt>
      <trkpt lat="43.80081" lon="7.11308">
        <ele>906.40002441406</ele>
        <time>2019-02-23T11:49:43.000Z</time>
      </trkpt>
      <trkpt lat="43.8008" lon="7.11306">
        <ele>906.59997558594</ele>
        <time>2019-02-23T11:49:47.000Z</time>
      </trkpt>
      <trkpt lat="43.8008" lon="7.11306">
        <ele>906.79998779297</ele>
        <time>2019-02-23T11:49:48.000Z</time>
      </trkpt>
      <trkpt lat="43.8008" lon="7.11306">
        <ele>907.79998779297</ele>
        <time>2019-02-23T11:49:52.000Z</time>
      </trkpt>
      <trkpt lat="43.8008" lon="7.11306">
        <ele>908.40002441406</ele>
        <time>2019-02-23T11:49:55.000Z</time>
      </trkpt>
      <trkpt lat="43.80081" lon="7.11306">
        <ele>907.79998779297</ele>
        <time>2019-02-23T11:50:13.000Z</time>
      </trkpt>
      <trkpt lat="43.80082" lon="7.11306">
        <ele>907.59997558594</ele>
        <time>2019-02-23T11:50:33.000Z</time>
      </trkpt>
      <trkpt lat="43.80082" lon="7.11306">
        <ele>907.59997558594</ele>
        <time>2019-02-23T11:50:44.000Z</time>
      </trkpt>
      <trkpt lat="43.80081" lon="7.11305">
        <ele>907.79998779297</ele>
        <time>2019-02-23T11:51:06.000Z</time>
      </trkpt>
      <trkpt lat="43.80081" lon="7.11305">
        <ele>907.79998779297</ele>
        <time>2019-02-23T11:51:27.000Z</time>
      </trkpt>
      <trkpt lat="43.80081" lon="7.11305">
        <ele>908.40002441406</ele>
        <time>2019-02-23T11:51:37.000Z</time>
      </trkpt>
      <trkpt lat="43.80081" lon="7.11305">
        <ele>907.20001220703</ele>
        <time>2019-02-23T11:52:01.000Z</time>
      </trkpt>
      <trkpt lat="43.80079" lon="7.11301">
        <ele>907.59997558594</ele>
        <time>2019-02-23T11:52:12.000Z</time>
      </trkpt>
      <trkpt lat="43.80078" lon="7.113">
        <ele>907.59997558594</ele>
        <time>2019-02-23T11:52:13.000Z</time>
      </trkpt>
      <trkpt lat="43.80074" lon="7.11291">
        <ele>907.59997558594</ele>
        <time>2019-02-23T11:52:17.000Z</time>
      </trkpt>
      <trkpt lat="43.80065" lon="7.11272">
        <ele>907.40002441406</ele>
        <time>2019-02-23T11:52:24.000Z</time>
      </trkpt>
      <trkpt lat="43.80054" lon="7.11249">
        <ele>907.40002441406</ele>
        <time>2019-02-23T11:52:31.000Z</time>
      </trkpt>
      <trkpt lat="43.80048" lon="7.11223">
        <ele>907</ele>
        <time>2019-02-23T11:52:38.000Z</time>
      </trkpt>
      <trkpt lat="43.80048" lon="7.11219">
        <ele>907</ele>
        <time>2019-02-23T11:52:40.000Z</time>
      </trkpt>
      <trkpt lat="43.80049" lon="7.11214">
        <ele>906.79998779297</ele>
        <time>2019-02-23T11:52:42.000Z</time>
      </trkpt>
      <trkpt lat="43.80049" lon="7.11211">
        <ele>906.79998779297</ele>
        <time>2019-02-23T11:52:43.000Z</time>
      </trkpt>
      <trkpt lat="43.80048" lon="7.11208">
        <ele>906.59997558594</ele>
        <time>2019-02-23T11:52:44.000Z</time>
      </trkpt>
      <trkpt lat="43.80047" lon="7.11195">
        <ele>906.40002441406</ele>
        <time>2019-02-23T11:52:48.000Z</time>
      </trkpt>
      <trkpt lat="43.80044" lon="7.11172">
        <ele>906.40002441406</ele>
        <time>2019-02-23T11:52:55.000Z</time>
      </trkpt>
      <trkpt lat="43.80044" lon="7.11163">
        <ele>906.59997558594</ele>
        <time>2019-02-23T11:52:58.000Z</time>
      </trkpt>
      <trkpt lat="43.80043" lon="7.11155">
        <ele>906.59997558594</ele>
        <time>2019-02-23T11:53:00.000Z</time>
      </trkpt>
      <trkpt lat="43.8004" lon="7.11133">
        <ele>906.59997558594</ele>
        <time>2019-02-23T11:53:06.000Z</time>
      </trkpt>
      <trkpt lat="43.80036" lon="7.11108">
        <ele>906.20001220703</ele>
        <time>2019-02-23T11:53:13.000Z</time>
      </trkpt>
      <trkpt lat="43.80033" lon="7.11078">
        <ele>906.20001220703</ele>
        <time>2019-02-23T11:53:21.000Z</time>
      </trkpt>
      <trkpt lat="43.80032" lon="7.11071">
        <ele>905.79998779297</ele>
        <time>2019-02-23T11:53:23.000Z</time>
      </trkpt>
      <trkpt lat="43.80031" lon="7.11063">
        <ele>905.59997558594</ele>
        <time>2019-02-23T11:53:26.000Z</time>
      </trkpt>
      <trkpt lat="43.8003" lon="7.11061">
        <ele>906.20001220703</ele>
        <time>2019-02-23T11:53:32.000Z</time>
      </trkpt>
      <trkpt lat="43.80029" lon="7.1106">
        <ele>906.20001220703</ele>
        <time>2019-02-23T11:53:38.000Z</time>
      </trkpt>
      <trkpt lat="43.8003" lon="7.11059">
        <ele>905.40002441406</ele>
        <time>2019-02-23T11:53:47.000Z</time>
      </trkpt>
      <trkpt lat="43.80029" lon="7.11058">
        <ele>905.79998779297</ele>
        <time>2019-02-23T11:53:55.000Z</time>
      </trkpt>
      <trkpt lat="43.80029" lon="7.11058">
        <ele>905.79998779297</ele>
        <time>2019-02-23T11:54:07.000Z</time>
      </trkpt>
      <trkpt lat="43.80028" lon="7.11057">
        <ele>906.20001220703</ele>
        <time>2019-02-23T11:54:19.000Z</time>
      </trkpt>
      <trkpt lat="43.80028" lon="7.11058">
        <ele>905.40002441406</ele>
        <time>2019-02-23T11:54:29.000Z</time>
      </trkpt>
      <trkpt lat="43.80028" lon="7.11058">
        <ele>905.79998779297</ele>
        <time>2019-02-23T11:54:34.000Z</time>
      </trkpt>
      <trkpt lat="43.80027" lon="7.11058">
        <ele>906.40002441406</ele>
        <time>2019-02-23T11:54:46.000Z</time>
      </trkpt>
      <trkpt lat="43.80027" lon="7.11058">
        <ele>906.59997558594</ele>
        <time>2019-02-23T11:54:56.000Z</time>
      </trkpt>
      <trkpt lat="43.80027" lon="7.11058">
        <ele>906.40002441406</ele>
        <time>2019-02-23T11:55:07.000Z</time>
      </trkpt>
      <trkpt lat="43.80026" lon="7.11057">
        <ele>905.79998779297</ele>
        <time>2019-02-23T11:55:14.000Z</time>
      </trkpt>
      <trkpt lat="43.80026" lon="7.11057">
        <ele>906.20001220703</ele>
        <time>2019-02-23T11:55:18.000Z</time>
      </trkpt>
      <trkpt lat="43.80027" lon="7.11057">
        <ele>906.59997558594</ele>
        <time>2019-02-23T11:55:25.000Z</time>
      </trkpt>
      <trkpt lat="43.80027" lon="7.11058">
        <ele>906.20001220703</ele>
        <time>2019-02-23T11:55:32.000Z</time>
      </trkpt>
      <trkpt lat="43.80027" lon="7.11059">
        <ele>906.20001220703</ele>
        <time>2019-02-23T11:55:40.000Z</time>
      </trkpt>
      <trkpt lat="43.80026" lon="7.11058">
        <ele>906.20001220703</ele>
        <time>2019-02-23T11:55:45.000Z</time>
      </trkpt>
      <trkpt lat="43.80027" lon="7.11058">
        <ele>906.20001220703</ele>
        <time>2019-02-23T11:55:52.000Z</time>
      </trkpt>
      <trkpt lat="43.80027" lon="7.11058">
        <ele>905.79998779297</ele>
        <time>2019-02-23T11:56:00.000Z</time>
      </trkpt>
      <trkpt lat="43.80026" lon="7.11058">
        <ele>906.40002441406</ele>
        <time>2019-02-23T11:56:10.000Z</time>
      </trkpt>
      <trkpt lat="43.80027" lon="7.11058">
        <ele>906.79998779297</ele>
        <time>2019-02-23T11:56:14.000Z</time>
      </trkpt>
      <trkpt lat="43.80027" lon="7.11058">
        <ele>906.79998779297</ele>
        <time>2019-02-23T11:56:15.000Z</time>
      </trkpt>
      <trkpt lat="43.80027" lon="7.11057">
        <ele>906.59997558594</ele>
        <time>2019-02-23T11:56:24.000Z</time>
      </trkpt>
      <trkpt lat="43.80028" lon="7.11057">
        <ele>906.59997558594</ele>
        <time>2019-02-23T11:56:35.000Z</time>
      </trkpt>
      <trkpt lat="43.80027" lon="7.11055">
        <ele>906</ele>
        <time>2019-02-23T11:56:45.000Z</time>
      </trkpt>
      <trkpt lat="43.80025" lon="7.1105">
        <ele>906.20001220703</ele>
        <time>2019-02-23T11:56:49.000Z</time>
      </trkpt>
      <trkpt lat="43.80024" lon="7.11047">
        <ele>906.20001220703</ele>
        <time>2019-02-23T11:56:50.000Z</time>
      </trkpt>
      <trkpt lat="43.80023" lon="7.11025">
        <ele>906.40002441406</ele>
        <time>2019-02-23T11:56:55.000Z</time>
      </trkpt>
      <trkpt lat="43.80021" lon="7.10982">
        <ele>906.40002441406</ele>
        <time>2019-02-23T11:57:03.000Z</time>
      </trkpt>
      <trkpt lat="43.80017" lon="7.10919">
        <ele>906.20001220703</ele>
        <time>2019-02-23T11:57:13.000Z</time>
      </trkpt>
      <trkpt lat="43.80015" lon="7.1087">
        <ele>906.20001220703</ele>
        <time>2019-02-23T11:57:21.000Z</time>
      </trkpt>
      <trkpt lat="43.80011" lon="7.10832">
        <ele>905.79998779297</ele>
        <time>2019-02-23T11:57:27.000Z</time>
      </trkpt>
      <trkpt lat="43.8001" lon="7.10819">
        <ele>905.59997558594</ele>
        <time>2019-02-23T11:57:29.000Z</time>
      </trkpt>
      <trkpt lat="43.80006" lon="7.10782">
        <ele>904.79998779297</ele>
        <time>2019-02-23T11:57:35.000Z</time>
      </trkpt>
      <trkpt lat="43.80004" lon="7.10763">
        <ele>904.59997558594</ele>
        <time>2019-02-23T11:57:38.000Z</time>
      </trkpt>
      <trkpt lat="43.80001" lon="7.10734">
        <ele>904.40002441406</ele>
        <time>2019-02-23T11:57:43.000Z</time>
      </trkpt>
      <trkpt lat="43.79999" lon="7.10716">
        <ele>904.20001220703</ele>
        <time>2019-02-23T11:57:46.000Z</time>
      </trkpt>
      <trkpt lat="43.79996" lon="7.10669">
        <ele>903.79998779297</ele>
        <time>2019-02-23T11:57:54.000Z</time>
      </trkpt>
      <trkpt lat="43.79997" lon="7.10612">
        <ele>903.20001220703</ele>
        <time>2019-02-23T11:58:03.000Z</time>
      </trkpt>
      <trkpt lat="43.79999" lon="7.10563">
        <ele>902.59997558594</ele>
        <time>2019-02-23T11:58:11.000Z</time>
      </trkpt>
      <trkpt lat="43.79999" lon="7.10557">
        <ele>902.79998779297</ele>
        <time>2019-02-23T11:58:12.000Z</time>
      </trkpt>
      <trkpt lat="43.79998" lon="7.10514">
        <ele>902.40002441406</ele>
        <time>2019-02-23T11:58:19.000Z</time>
      </trkpt>
      <trkpt lat="43.79996" lon="7.10503">
        <ele>902.40002441406</ele>
        <time>2019-02-23T11:58:21.000Z</time>
      </trkpt>
      <trkpt lat="43.7999" lon="7.10488">
        <ele>902.20001220703</ele>
        <time>2019-02-23T11:58:24.000Z</time>
      </trkpt>
      <trkpt lat="43.79968" lon="7.10452">
        <ele>902.20001220703</ele>
        <time>2019-02-23T11:58:32.000Z</time>
      </trkpt>
      <trkpt lat="43.79942" lon="7.10427">
        <ele>902.40002441406</ele>
        <time>2019-02-23T11:58:40.000Z</time>
      </trkpt>
      <trkpt lat="43.79917" lon="7.10409">
        <ele>902.79998779297</ele>
        <time>2019-02-23T11:58:47.000Z</time>
      </trkpt>
      <trkpt lat="43.79909" lon="7.10389">
        <ele>902.79998779297</ele>
        <time>2019-02-23T11:58:51.000Z</time>
      </trkpt>
      <trkpt lat="43.79915" lon="7.10381">
        <ele>902.79998779297</ele>
        <time>2019-02-23T11:58:53.000Z</time>
      </trkpt>
      <trkpt lat="43.79924" lon="7.10378">
        <ele>903.20001220703</ele>
        <time>2019-02-23T11:58:55.000Z</time>
      </trkpt>
      <trkpt lat="43.79931" lon="7.10375">
        <ele>903.40002441406</ele>
        <time>2019-02-23T11:58:57.000Z</time>
      </trkpt>
      <trkpt lat="43.7996" lon="7.10366">
        <ele>902.79998779297</ele>
        <time>2019-02-23T11:59:03.000Z</time>
      </trkpt>
      <trkpt lat="43.79997" lon="7.10358">
        <ele>902</ele>
        <time>2019-02-23T11:59:10.000Z</time>
      </trkpt>
      <trkpt lat="43.80001" lon="7.10354">
        <ele>902</ele>
        <time>2019-02-23T11:59:11.000Z</time>
      </trkpt>
      <trkpt lat="43.80012" lon="7.10331">
        <ele>901.59997558594</ele>
        <time>2019-02-23T11:59:15.000Z</time>
      </trkpt>
      <trkpt lat="43.80014" lon="7.10304">
        <ele>901.20001220703</ele>
        <time>2019-02-23T11:59:19.000Z</time>
      </trkpt>
      <trkpt lat="43.80013" lon="7.10297">
        <ele>901</ele>
        <time>2019-02-23T11:59:20.000Z</time>
      </trkpt>
      <trkpt lat="43.80008" lon="7.10245">
        <ele>901.20001220703</ele>
        <time>2019-02-23T11:59:28.000Z</time>
      </trkpt>
      <trkpt lat="43.79997" lon="7.10183">
        <ele>901</ele>
        <time>2019-02-23T11:59:37.000Z</time>
      </trkpt>
      <trkpt lat="43.79988" lon="7.10114">
        <ele>900.79998779297</ele>
        <time>2019-02-23T11:59:47.000Z</time>
      </trkpt>
      <trkpt lat="43.79982" lon="7.10075">
        <ele>900.59997558594</ele>
        <time>2019-02-23T11:59:53.000Z</time>
      </trkpt>
      <trkpt lat="43.79979" lon="7.10062">
        <ele>900.59997558594</ele>
        <time>2019-02-23T11:59:55.000Z</time>
      </trkpt>
      <trkpt lat="43.79967" lon="7.09995">
        <ele>900.20001220703</ele>
        <time>2019-02-23T12:00:05.000Z</time>
      </trkpt>
      <trkpt lat="43.79957" lon="7.09938">
        <ele>900</ele>
        <time>2019-02-23T12:00:14.000Z</time>
      </trkpt>
      <trkpt lat="43.7995" lon="7.09879">
        <ele>899.59997558594</ele>
        <time>2019-02-23T12:00:23.000Z</time>
      </trkpt>
      <trkpt lat="43.79948" lon="7.09833">
        <ele>899.20001220703</ele>
        <time>2019-02-23T12:00:30.000Z</time>
      </trkpt>
      <trkpt lat="43.7995" lon="7.09822">
        <ele>899.40002441406</ele>
        <time>2019-02-23T12:00:34.000Z</time>
      </trkpt>
      <trkpt lat="43.79953" lon="7.098">
        <ele>899.40002441406</ele>
        <time>2019-02-23T12:00:40.000Z</time>
      </trkpt>
      <trkpt lat="43.79955" lon="7.09774">
        <ele>899.20001220703</ele>
        <time>2019-02-23T12:00:46.000Z</time>
      </trkpt>
      <trkpt lat="43.79963" lon="7.09734">
        <ele>898.59997558594</ele>
        <time>2019-02-23T12:00:55.000Z</time>
      </trkpt>
      <trkpt lat="43.79974" lon="7.09692">
        <ele>898.40002441406</ele>
        <time>2019-02-23T12:01:04.000Z</time>
      </trkpt>
      <trkpt lat="43.79979" lon="7.09663">
        <ele>898</ele>
        <time>2019-02-23T12:01:11.000Z</time>
      </trkpt>
      <trkpt lat="43.79985" lon="7.09621">
        <ele>898.20001220703</ele>
        <time>2019-02-23T12:01:20.000Z</time>
      </trkpt>
      <trkpt lat="43.79991" lon="7.09581">
        <ele>898.40002441406</ele>
        <time>2019-02-23T12:01:28.000Z</time>
      </trkpt>
      <trkpt lat="43.8" lon="7.09558">
        <ele>898</ele>
        <time>2019-02-23T12:01:33.000Z</time>
      </trkpt>
      <trkpt lat="43.80017" lon="7.09538">
        <ele>897.59997558594</ele>
        <time>2019-02-23T12:01:39.000Z</time>
      </trkpt>
      <trkpt lat="43.80023" lon="7.09532">
        <ele>897.59997558594</ele>
        <time>2019-02-23T12:01:41.000Z</time>
      </trkpt>
      <trkpt lat="43.80036" lon="7.09518">
        <ele>897</ele>
        <time>2019-02-23T12:01:45.000Z</time>
      </trkpt>
      <trkpt lat="43.80046" lon="7.09509">
        <ele>896.40002441406</ele>
        <time>2019-02-23T12:01:47.000Z</time>
      </trkpt>
      <trkpt lat="43.80055" lon="7.09497">
        <ele>895.40002441406</ele>
        <time>2019-02-23T12:01:49.000Z</time>
      </trkpt>
      <trkpt lat="43.80059" lon="7.09489">
        <ele>894.79998779297</ele>
        <time>2019-02-23T12:01:50.000Z</time>
      </trkpt>
      <trkpt lat="43.80066" lon="7.09471">
        <ele>893.59997558594</ele>
        <time>2019-02-23T12:01:52.000Z</time>
      </trkpt>
      <trkpt lat="43.80069" lon="7.09461">
        <ele>893</ele>
        <time>2019-02-23T12:01:53.000Z</time>
      </trkpt>
      <trkpt lat="43.80071" lon="7.09453">
        <ele>892.20001220703</ele>
        <time>2019-02-23T12:01:54.000Z</time>
      </trkpt>
      <trkpt lat="43.80076" lon="7.09435">
        <ele>891.20001220703</ele>
        <time>2019-02-23T12:01:56.000Z</time>
      </trkpt>
      <trkpt lat="43.80079" lon="7.0942">
        <ele>891</ele>
        <time>2019-02-23T12:01:58.000Z</time>
      </trkpt>
      <trkpt lat="43.80084" lon="7.09391">
        <ele>892.59997558594</ele>
        <time>2019-02-23T12:02:03.000Z</time>
      </trkpt>
      <trkpt lat="43.80085" lon="7.09369">
        <ele>893.59997558594</ele>
        <time>2019-02-23T12:02:08.000Z</time>
      </trkpt>
      <trkpt lat="43.80085" lon="7.09366">
        <ele>893.79998779297</ele>
        <time>2019-02-23T12:02:09.000Z</time>
      </trkpt>
      <trkpt lat="43.80085" lon="7.0934">
        <ele>894.79998779297</ele>
        <time>2019-02-23T12:02:15.000Z</time>
      </trkpt>
      <trkpt lat="43.80085" lon="7.09336">
        <ele>894.79998779297</ele>
        <time>2019-02-23T12:02:16.000Z</time>
      </trkpt>
      <trkpt lat="43.80081" lon="7.09311">
        <ele>895.79998779297</ele>
        <time>2019-02-23T12:02:22.000Z</time>
      </trkpt>
      <trkpt lat="43.80078" lon="7.09299">
        <ele>896.40002441406</ele>
        <time>2019-02-23T12:02:25.000Z</time>
      </trkpt>
      <trkpt lat="43.80076" lon="7.09291">
        <ele>896.79998779297</ele>
        <time>2019-02-23T12:02:27.000Z</time>
      </trkpt>
      <trkpt lat="43.8007" lon="7.09269">
        <ele>897.79998779297</ele>
        <time>2019-02-23T12:02:33.000Z</time>
      </trkpt>
      <trkpt lat="43.80063" lon="7.09248">
        <ele>898.79998779297</ele>
        <time>2019-02-23T12:02:39.000Z</time>
      </trkpt>
      <trkpt lat="43.80062" lon="7.0924">
        <ele>899.20001220703</ele>
        <time>2019-02-23T12:02:41.000Z</time>
      </trkpt>
      <trkpt lat="43.80057" lon="7.09225">
        <ele>900</ele>
        <time>2019-02-23T12:02:45.000Z</time>
      </trkpt>
      <trkpt lat="43.80054" lon="7.09212">
        <ele>900.40002441406</ele>
        <time>2019-02-23T12:02:49.000Z</time>
      </trkpt>
      <trkpt lat="43.80049" lon="7.09198">
        <ele>901.20001220703</ele>
        <time>2019-02-23T12:02:53.000Z</time>
      </trkpt>
      <trkpt lat="43.80044" lon="7.09181">
        <ele>902.20001220703</ele>
        <time>2019-02-23T12:02:58.000Z</time>
      </trkpt>
      <trkpt lat="43.80043" lon="7.09178">
        <ele>902.20001220703</ele>
        <time>2019-02-23T12:02:59.000Z</time>
      </trkpt>
      <trkpt lat="43.80037" lon="7.09156">
        <ele>903.40002441406</ele>
        <time>2019-02-23T12:03:06.000Z</time>
      </trkpt>
      <trkpt lat="43.80032" lon="7.09138">
        <ele>904.20001220703</ele>
        <time>2019-02-23T12:03:12.000Z</time>
      </trkpt>
      <trkpt lat="43.8003" lon="7.09133">
        <ele>904.40002441406</ele>
        <time>2019-02-23T12:03:14.000Z</time>
      </trkpt>
      <trkpt lat="43.80026" lon="7.09117">
        <ele>905.20001220703</ele>
        <time>2019-02-23T12:03:19.000Z</time>
      </trkpt>
      <trkpt lat="43.80024" lon="7.09112">
        <ele>905.59997558594</ele>
        <time>2019-02-23T12:03:21.000Z</time>
      </trkpt>
      <trkpt lat="43.8002" lon="7.09099">
        <ele>906.20001220703</ele>
        <time>2019-02-23T12:03:25.000Z</time>
      </trkpt>
      <trkpt lat="43.80017" lon="7.09089">
        <ele>906.59997558594</ele>
        <time>2019-02-23T12:03:28.000Z</time>
      </trkpt>
      <trkpt lat="43.80011" lon="7.09074">
        <ele>907.40002441406</ele>
        <time>2019-02-23T12:03:33.000Z</time>
      </trkpt>
      <trkpt lat="43.80009" lon="7.09068">
        <ele>907.59997558594</ele>
        <time>2019-02-23T12:03:35.000Z</time>
      </trkpt>
      <trkpt lat="43.80005" lon="7.09055">
        <ele>908.40002441406</ele>
        <time>2019-02-23T12:03:40.000Z</time>
      </trkpt>
      <trkpt lat="43.80003" lon="7.09048">
        <ele>908.79998779297</ele>
        <time>2019-02-23T12:03:43.000Z</time>
      </trkpt>
      <trkpt lat="43.79999" lon="7.09037">
        <ele>909.40002441406</ele>
        <time>2019-02-23T12:03:47.000Z</time>
      </trkpt>
      <trkpt lat="43.79995" lon="7.09028">
        <ele>909.79998779297</ele>
        <time>2019-02-23T12:03:50.000Z</time>
      </trkpt>
      <trkpt lat="43.79988" lon="7.0901">
        <ele>910.59997558594</ele>
        <time>2019-02-23T12:03:56.000Z</time>
      </trkpt>
      <trkpt lat="43.79985" lon="7.09002">
        <ele>910.79998779297</ele>
        <time>2019-02-23T12:03:59.000Z</time>
      </trkpt>
      <trkpt lat="43.79984" lon="7.08985">
        <ele>911.59997558594</ele>
        <time>2019-02-23T12:04:04.000Z</time>
      </trkpt>
      <trkpt lat="43.79985" lon="7.08979">
        <ele>912</ele>
        <time>2019-02-23T12:04:06.000Z</time>
      </trkpt>
      <trkpt lat="43.7999" lon="7.08965">
        <ele>912.79998779297</ele>
        <time>2019-02-23T12:04:11.000Z</time>
      </trkpt>
      <trkpt lat="43.79991" lon="7.08961">
        <ele>913.20001220703</ele>
        <time>2019-02-23T12:04:13.000Z</time>
      </trkpt>
      <trkpt lat="43.79995" lon="7.08956">
        <ele>913.59997558594</ele>
        <time>2019-02-23T12:04:17.000Z</time>
      </trkpt>
      <trkpt lat="43.80002" lon="7.08951">
        <ele>914</ele>
        <time>2019-02-23T12:04:24.000Z</time>
      </trkpt>
      <trkpt lat="43.80005" lon="7.0895">
        <ele>914.20001220703</ele>
        <time>2019-02-23T12:04:26.000Z</time>
      </trkpt>
      <trkpt lat="43.80012" lon="7.08946">
        <ele>914.40002441406</ele>
        <time>2019-02-23T12:04:32.000Z</time>
      </trkpt>
      <trkpt lat="43.80021" lon="7.08946">
        <ele>914.59997558594</ele>
        <time>2019-02-23T12:04:38.000Z</time>
      </trkpt>
      <trkpt lat="43.80035" lon="7.08952">
        <ele>915.20001220703</ele>
        <time>2019-02-23T12:04:46.000Z</time>
      </trkpt>
      <trkpt lat="43.80046" lon="7.08966">
        <ele>915.79998779297</ele>
        <time>2019-02-23T12:04:54.000Z</time>
      </trkpt>
      <trkpt lat="43.80051" lon="7.08973">
        <ele>916</ele>
        <time>2019-02-23T12:05:00.000Z</time>
      </trkpt>
      <trkpt lat="43.80051" lon="7.08972">
        <ele>916.20001220703</ele>
        <time>2019-02-23T12:05:01.000Z</time>
      </trkpt>
      <trkpt lat="43.80052" lon="7.08973">
        <ele>916.40002441406</ele>
        <time>2019-02-23T12:05:05.000Z</time>
      </trkpt>
      <trkpt lat="43.80051" lon="7.08973">
        <ele>916.20001220703</ele>
        <time>2019-02-23T12:05:17.000Z</time>
      </trkpt>
      <trkpt lat="43.80052" lon="7.08973">
        <ele>916.20001220703</ele>
        <time>2019-02-23T12:05:27.000Z</time>
      </trkpt>
      <trkpt lat="43.80052" lon="7.08973">
        <ele>916</ele>
        <time>2019-02-23T12:05:37.000Z</time>
      </trkpt>
      <trkpt lat="43.80051" lon="7.08973">
        <ele>915.79998779297</ele>
        <time>2019-02-23T12:05:47.000Z</time>
      </trkpt>
      <trkpt lat="43.80048" lon="7.08969">
        <ele>915.79998779297</ele>
        <time>2019-02-23T12:05:56.000Z</time>
      </trkpt>
      <trkpt lat="43.80045" lon="7.08958">
        <ele>916</ele>
        <time>2019-02-23T12:06:02.000Z</time>
      </trkpt>
      <trkpt lat="43.80041" lon="7.08943">
        <ele>917</ele>
        <time>2019-02-23T12:06:09.000Z</time>
      </trkpt>
      <trkpt lat="43.80041" lon="7.08935">
        <ele>917.20001220703</ele>
        <time>2019-02-23T12:06:13.000Z</time>
      </trkpt>
      <trkpt lat="43.80041" lon="7.08929">
        <ele>918.40002441406</ele>
        <time>2019-02-23T12:06:16.000Z</time>
      </trkpt>
      <trkpt lat="43.80041" lon="7.08926">
        <ele>919.40002441406</ele>
        <time>2019-02-23T12:06:18.000Z</time>
      </trkpt>
      <trkpt lat="43.8004" lon="7.08921">
        <ele>920.59997558594</ele>
        <time>2019-02-23T12:06:21.000Z</time>
      </trkpt>
      <trkpt lat="43.8004" lon="7.08919">
        <ele>920.79998779297</ele>
        <time>2019-02-23T12:06:22.000Z</time>
      </trkpt>
      <trkpt lat="43.80038" lon="7.08911">
        <ele>921.40002441406</ele>
        <time>2019-02-23T12:06:27.000Z</time>
      </trkpt>
      <trkpt lat="43.80038" lon="7.08909">
        <ele>921.40002441406</ele>
        <time>2019-02-23T12:06:28.000Z</time>
      </trkpt>
      <trkpt lat="43.80035" lon="7.08899">
        <ele>921.79998779297</ele>
        <time>2019-02-23T12:06:34.000Z</time>
      </trkpt>
      <trkpt lat="43.80034" lon="7.08898">
        <ele>921.79998779297</ele>
        <time>2019-02-23T12:06:35.000Z</time>
      </trkpt>
      <trkpt lat="43.80029" lon="7.08896">
        <ele>921.79998779297</ele>
        <time>2019-02-23T12:06:39.000Z</time>
      </trkpt>
      <trkpt lat="43.80027" lon="7.08895">
        <ele>921.59997558594</ele>
        <time>2019-02-23T12:06:45.000Z</time>
      </trkpt>
      <trkpt lat="43.80025" lon="7.08897">
        <ele>921.59997558594</ele>
        <time>2019-02-23T12:06:52.000Z</time>
      </trkpt>
      <trkpt lat="43.80023" lon="7.08899">
        <ele>921.40002441406</ele>
        <time>2019-02-23T12:06:57.000Z</time>
      </trkpt>
      <trkpt lat="43.80024" lon="7.08898">
        <ele>921</ele>
        <time>2019-02-23T12:07:04.000Z</time>
      </trkpt>
      <trkpt lat="43.80023" lon="7.08896">
        <ele>920.79998779297</ele>
        <time>2019-02-23T12:07:10.000Z</time>
      </trkpt>
      <trkpt lat="43.80021" lon="7.08896">
        <ele>920.59997558594</ele>
        <time>2019-02-23T12:07:13.000Z</time>
      </trkpt>
      <trkpt lat="43.80021" lon="7.08895">
        <ele>920.40002441406</ele>
        <time>2019-02-23T12:07:17.000Z</time>
      </trkpt>
      <trkpt lat="43.80021" lon="7.08897">
        <ele>920.59997558594</ele>
        <time>2019-02-23T12:07:36.000Z</time>
      </trkpt>
      <trkpt lat="43.80022" lon="7.08898">
        <ele>920.59997558594</ele>
        <time>2019-02-23T12:07:43.000Z</time>
      </trkpt>
      <trkpt lat="43.80022" lon="7.08897">
        <ele>920.59997558594</ele>
        <time>2019-02-23T12:07:44.000Z</time>
      </trkpt>
      <trkpt lat="43.80024" lon="7.08895">
        <ele>920.79998779297</ele>
        <time>2019-02-23T12:07:48.000Z</time>
      </trkpt>
      <trkpt lat="43.80027" lon="7.08894">
        <ele>920.79998779297</ele>
        <time>2019-02-23T12:07:54.000Z</time>
      </trkpt>
      <trkpt lat="43.80029" lon="7.08893">
        <ele>920.79998779297</ele>
        <time>2019-02-23T12:08:04.000Z</time>
      </trkpt>
      <trkpt lat="43.80032" lon="7.08893">
        <ele>920.79998779297</ele>
        <time>2019-02-23T12:08:10.000Z</time>
      </trkpt>
      <trkpt lat="43.80029" lon="7.0889">
        <ele>921.20001220703</ele>
        <time>2019-02-23T12:08:16.000Z</time>
      </trkpt>
      <trkpt lat="43.80027" lon="7.08887">
        <ele>921.40002441406</ele>
        <time>2019-02-23T12:08:21.000Z</time>
      </trkpt>
      <trkpt lat="43.80026" lon="7.08886">
        <ele>921.79998779297</ele>
        <time>2019-02-23T12:08:24.000Z</time>
      </trkpt>
      <trkpt lat="43.80024" lon="7.08885">
        <ele>922</ele>
        <time>2019-02-23T12:08:28.000Z</time>
      </trkpt>
      <trkpt lat="43.80024" lon="7.08885">
        <ele>922</ele>
        <time>2019-02-23T12:08:34.000Z</time>
      </trkpt>
      <trkpt lat="43.80024" lon="7.08885">
        <ele>922.20001220703</ele>
        <time>2019-02-23T12:08:40.000Z</time>
      </trkpt>
      <trkpt lat="43.80023" lon="7.08885">
        <ele>922.20001220703</ele>
        <time>2019-02-23T12:08:51.000Z</time>
      </trkpt>
      <trkpt lat="43.80023" lon="7.08883">
        <ele>921.79998779297</ele>
        <time>2019-02-23T12:09:00.000Z</time>
      </trkpt>
      <trkpt lat="43.80023" lon="7.08884">
        <ele>921.79998779297</ele>
        <time>2019-02-23T12:09:05.000Z</time>
      </trkpt>
      <trkpt lat="43.80024" lon="7.08884">
        <ele>922.20001220703</ele>
        <time>2019-02-23T12:09:09.000Z</time>
      </trkpt>
      <trkpt lat="43.80025" lon="7.08885">
        <ele>922.40002441406</ele>
        <time>2019-02-23T12:09:10.000Z</time>
      </trkpt>
      <trkpt lat="43.8003" lon="7.08889">
        <ele>921.40002441406</ele>
        <time>2019-02-23T12:09:17.000Z</time>
      </trkpt>
      <trkpt lat="43.80028" lon="7.08892">
        <ele>921.20001220703</ele>
        <time>2019-02-23T12:09:22.000Z</time>
      </trkpt>
      <trkpt lat="43.80026" lon="7.08891">
        <ele>920.59997558594</ele>
        <time>2019-02-23T12:09:26.000Z</time>
      </trkpt>
      <trkpt lat="43.80026" lon="7.08893">
        <ele>920.20001220703</ele>
        <time>2019-02-23T12:09:34.000Z</time>
      </trkpt>
      <trkpt lat="43.80025" lon="7.08895">
        <ele>919.79998779297</ele>
        <time>2019-02-23T12:09:43.000Z</time>
      </trkpt>
      <trkpt lat="43.80026" lon="7.08896">
        <ele>920</ele>
        <time>2019-02-23T12:09:51.000Z</time>
      </trkpt>
      <trkpt lat="43.80028" lon="7.08896">
        <ele>920</ele>
        <time>2019-02-23T12:10:09.000Z</time>
      </trkpt>
      <trkpt lat="43.80028" lon="7.08894">
        <ele>920</ele>
        <time>2019-02-23T12:10:22.000Z</time>
      </trkpt>
      <trkpt lat="43.80028" lon="7.08895">
        <ele>920</ele>
        <time>2019-02-23T12:10:28.000Z</time>
      </trkpt>
      <trkpt lat="43.80029" lon="7.08894">
        <ele>920.20001220703</ele>
        <time>2019-02-23T12:10:39.000Z</time>
      </trkpt>
      <trkpt lat="43.80029" lon="7.08894">
        <ele>920.20001220703</ele>
        <time>2019-02-23T12:10:50.000Z</time>
      </trkpt>
      <trkpt lat="43.80029" lon="7.08893">
        <ele>920.20001220703</ele>
        <time>2019-02-23T12:11:01.000Z</time>
      </trkpt>
      <trkpt lat="43.80029" lon="7.08893">
        <ele>920</ele>
        <time>2019-02-23T12:11:10.000Z</time>
      </trkpt>
      <trkpt lat="43.80029" lon="7.08894">
        <ele>920.79998779297</ele>
        <time>2019-02-23T12:11:24.000Z</time>
      </trkpt>
      <trkpt lat="43.8003" lon="7.08893">
        <ele>920.59997558594</ele>
        <time>2019-02-23T12:11:37.000Z</time>
      </trkpt>
      <trkpt lat="43.80033" lon="7.08892">
        <ele>920.59997558594</ele>
        <time>2019-02-23T12:11:49.000Z</time>
      </trkpt>
      <trkpt lat="43.80034" lon="7.08892">
        <ele>920.79998779297</ele>
        <time>2019-02-23T12:11:57.000Z</time>
      </trkpt>
      <trkpt lat="43.80033" lon="7.08892">
        <ele>920.20001220703</ele>
        <time>2019-02-23T12:12:09.000Z</time>
      </trkpt>
      <trkpt lat="43.80033" lon="7.08892">
        <ele>920</ele>
        <time>2019-02-23T12:12:19.000Z</time>
      </trkpt>
      <trkpt lat="43.80033" lon="7.08891">
        <ele>920.40002441406</ele>
        <time>2019-02-23T12:12:26.000Z</time>
      </trkpt>
      <trkpt lat="43.80032" lon="7.08891">
        <ele>920.59997558594</ele>
        <time>2019-02-23T12:12:34.000Z</time>
      </trkpt>
      <trkpt lat="43.80033" lon="7.08891">
        <ele>920.20001220703</ele>
        <time>2019-02-23T12:12:43.000Z</time>
      </trkpt>
      <trkpt lat="43.80032" lon="7.0889">
        <ele>920.20001220703</ele>
        <time>2019-02-23T12:12:53.000Z</time>
      </trkpt>
      <trkpt lat="43.80032" lon="7.0889">
        <ele>920.59997558594</ele>
        <time>2019-02-23T12:13:05.000Z</time>
      </trkpt>
      <trkpt lat="43.80032" lon="7.0889">
        <ele>920.59997558594</ele>
        <time>2019-02-23T12:13:13.000Z</time>
      </trkpt>
      <trkpt lat="43.80033" lon="7.0889">
        <ele>921</ele>
        <time>2019-02-23T12:13:25.000Z</time>
      </trkpt>
      <trkpt lat="43.80034" lon="7.0889">
        <ele>920.59997558594</ele>
        <time>2019-02-23T12:13:35.000Z</time>
      </trkpt>
      <trkpt lat="43.80034" lon="7.0889">
        <ele>920.59997558594</ele>
        <time>2019-02-23T12:13:48.000Z</time>
      </trkpt>
      <trkpt lat="43.80033" lon="7.0889">
        <ele>920.79998779297</ele>
        <time>2019-02-23T12:14:03.000Z</time>
      </trkpt>
      <trkpt lat="43.80033" lon="7.0889">
        <ele>920.79998779297</ele>
        <time>2019-02-23T12:14:12.000Z</time>
      </trkpt>
      <trkpt lat="43.80033" lon="7.0889">
        <ele>920.59997558594</ele>
        <time>2019-02-23T12:14:25.000Z</time>
      </trkpt>
      <trkpt lat="43.80034" lon="7.0889">
        <ele>920.59997558594</ele>
        <time>2019-02-23T12:14:34.000Z</time>
      </trkpt>
      <trkpt lat="43.80034" lon="7.08891">
        <ele>920.59997558594</ele>
        <time>2019-02-23T12:14:47.000Z</time>
      </trkpt>
      <trkpt lat="43.80034" lon="7.08891">
        <ele>920.79998779297</ele>
        <time>2019-02-23T12:15:01.000Z</time>
      </trkpt>
      <trkpt lat="43.80033" lon="7.08891">
        <ele>921.20001220703</ele>
        <time>2019-02-23T12:15:12.000Z</time>
      </trkpt>
      <trkpt lat="43.80034" lon="7.08891">
        <ele>920.59997558594</ele>
        <time>2019-02-23T12:15:22.000Z</time>
      </trkpt>
      <trkpt lat="43.80034" lon="7.0889">
        <ele>920.59997558594</ele>
        <time>2019-02-23T12:15:36.000Z</time>
      </trkpt>
      <trkpt lat="43.80033" lon="7.0889">
        <ele>921</ele>
        <time>2019-02-23T12:15:46.000Z</time>
      </trkpt>
      <trkpt lat="43.80032" lon="7.0889">
        <ele>920.79998779297</ele>
        <time>2019-02-23T12:16:00.000Z</time>
      </trkpt>
      <trkpt lat="43.80034" lon="7.0889">
        <ele>920.79998779297</ele>
        <time>2019-02-23T12:16:08.000Z</time>
      </trkpt>
      <trkpt lat="43.80035" lon="7.08891">
        <ele>920.79998779297</ele>
        <time>2019-02-23T12:16:19.000Z</time>
      </trkpt>
      <trkpt lat="43.80036" lon="7.08891">
        <ele>920.59997558594</ele>
        <time>2019-02-23T12:16:35.000Z</time>
      </trkpt>
      <trkpt lat="43.80035" lon="7.0889">
        <ele>920.79998779297</ele>
        <time>2019-02-23T12:16:50.000Z</time>
      </trkpt>
      <trkpt lat="43.80036" lon="7.0889">
        <ele>920.79998779297</ele>
        <time>2019-02-23T12:17:05.000Z</time>
      </trkpt>
      <trkpt lat="43.80035" lon="7.0889">
        <ele>921.20001220703</ele>
        <time>2019-02-23T12:17:18.000Z</time>
      </trkpt>
      <trkpt lat="43.80036" lon="7.0889">
        <ele>921.40002441406</ele>
        <time>2019-02-23T12:17:24.000Z</time>
      </trkpt>
      <trkpt lat="43.80035" lon="7.08889">
        <ele>921.40002441406</ele>
        <time>2019-02-23T12:17:34.000Z</time>
      </trkpt>
      <trkpt lat="43.80034" lon="7.08889">
        <ele>921</ele>
        <time>2019-02-23T12:17:41.000Z</time>
      </trkpt>
      <trkpt lat="43.80035" lon="7.08888">
        <ele>921</ele>
        <time>2019-02-23T12:17:52.000Z</time>
      </trkpt>
      <trkpt lat="43.80035" lon="7.08889">
        <ele>921.40002441406</ele>
        <time>2019-02-23T12:18:05.000Z</time>
      </trkpt>
      <trkpt lat="43.80036" lon="7.08889">
        <ele>921</ele>
        <time>2019-02-23T12:18:25.000Z</time>
      </trkpt>
      <trkpt lat="43.80036" lon="7.0889">
        <ele>921</ele>
        <time>2019-02-23T12:18:44.000Z</time>
      </trkpt>
      <trkpt lat="43.80037" lon="7.08891">
        <ele>921.20001220703</ele>
        <time>2019-02-23T12:19:00.000Z</time>
      </trkpt>
      <trkpt lat="43.80036" lon="7.08891">
        <ele>921</ele>
        <time>2019-02-23T12:19:10.000Z</time>
      </trkpt>
      <trkpt lat="43.80036" lon="7.08891">
        <ele>920.79998779297</ele>
        <time>2019-02-23T12:19:20.000Z</time>
      </trkpt>
      <trkpt lat="43.80036" lon="7.08891">
        <ele>921.20001220703</ele>
        <time>2019-02-23T12:19:31.000Z</time>
      </trkpt>
      <trkpt lat="43.80036" lon="7.0889">
        <ele>921.20001220703</ele>
        <time>2019-02-23T12:19:44.000Z</time>
      </trkpt>
      <trkpt lat="43.80035" lon="7.0889">
        <ele>921</ele>
        <time>2019-02-23T12:19:56.000Z</time>
      </trkpt>
      <trkpt lat="43.80034" lon="7.0889">
        <ele>921</ele>
        <time>2019-02-23T12:20:08.000Z</time>
      </trkpt>
      <trkpt lat="43.80032" lon="7.08889">
        <ele>921</ele>
        <time>2019-02-23T12:20:20.000Z</time>
      </trkpt>
      <trkpt lat="43.80031" lon="7.0889">
        <ele>921</ele>
        <time>2019-02-23T12:20:35.000Z</time>
      </trkpt>
      <trkpt lat="43.80031" lon="7.08888">
        <ele>921</ele>
        <time>2019-02-23T12:20:46.000Z</time>
      </trkpt>
      <trkpt lat="43.8003" lon="7.08888">
        <ele>921</ele>
        <time>2019-02-23T12:20:55.000Z</time>
      </trkpt>
      <trkpt lat="43.80033" lon="7.08888">
        <ele>921.20001220703</ele>
        <time>2019-02-23T12:21:09.000Z</time>
      </trkpt>
      <trkpt lat="43.80035" lon="7.08888">
        <ele>921.20001220703</ele>
        <time>2019-02-23T12:21:27.000Z</time>
      </trkpt>
      <trkpt lat="43.80035" lon="7.08888">
        <ele>921</ele>
        <time>2019-02-23T12:21:42.000Z</time>
      </trkpt>
      <trkpt lat="43.80034" lon="7.08887">
        <ele>921.40002441406</ele>
        <time>2019-02-23T12:22:00.000Z</time>
      </trkpt>
      <trkpt lat="43.80034" lon="7.08887">
        <ele>921.40002441406</ele>
        <time>2019-02-23T12:22:09.000Z</time>
      </trkpt>
      <trkpt lat="43.80035" lon="7.08889">
        <ele>921</ele>
        <time>2019-02-23T12:22:25.000Z</time>
      </trkpt>
      <trkpt lat="43.80037" lon="7.0889">
        <ele>921.40002441406</ele>
        <time>2019-02-23T12:22:48.000Z</time>
      </trkpt>
      <trkpt lat="43.80035" lon="7.0889">
        <ele>921.20001220703</ele>
        <time>2019-02-23T12:23:05.000Z</time>
      </trkpt>
      <trkpt lat="43.80035" lon="7.0889">
        <ele>921.20001220703</ele>
        <time>2019-02-23T12:23:18.000Z</time>
      </trkpt>
      <trkpt lat="43.80035" lon="7.0889">
        <ele>921.20001220703</ele>
        <time>2019-02-23T12:23:34.000Z</time>
      </trkpt>
      <trkpt lat="43.80035" lon="7.0889">
        <ele>921</ele>
        <time>2019-02-23T12:23:52.000Z</time>
      </trkpt>
      <trkpt lat="43.80032" lon="7.08889">
        <ele>921</ele>
        <time>2019-02-23T12:24:02.000Z</time>
      </trkpt>
      <trkpt lat="43.80032" lon="7.08889">
        <ele>921</ele>
        <time>2019-02-23T12:24:15.000Z</time>
      </trkpt>
      <trkpt lat="43.80031" lon="7.08889">
        <ele>920.79998779297</ele>
        <time>2019-02-23T12:24:27.000Z</time>
      </trkpt>
      <trkpt lat="43.8003" lon="7.08889">
        <ele>920.79998779297</ele>
        <time>2019-02-23T12:24:43.000Z</time>
      </trkpt>
      <trkpt lat="43.8003" lon="7.08888">
        <ele>921.20001220703</ele>
        <time>2019-02-23T12:25:04.000Z</time>
      </trkpt>
      <trkpt lat="43.8003" lon="7.08887">
        <ele>920.79998779297</ele>
        <time>2019-02-23T12:25:27.000Z</time>
      </trkpt>
      <trkpt lat="43.80032" lon="7.08887">
        <ele>920.79998779297</ele>
        <time>2019-02-23T12:25:48.000Z</time>
      </trkpt>
      <trkpt lat="43.80033" lon="7.08887">
        <ele>920.79998779297</ele>
        <time>2019-02-23T12:26:08.000Z</time>
      </trkpt>
      <trkpt lat="43.80033" lon="7.08888">
        <ele>920.59997558594</ele>
        <time>2019-02-23T12:26:20.000Z</time>
      </trkpt>
      <trkpt lat="43.80033" lon="7.08888">
        <ele>920.59997558594</ele>
        <time>2019-02-23T12:26:31.000Z</time>
      </trkpt>
      <trkpt lat="43.80034" lon="7.08888">
        <ele>920.79998779297</ele>
        <time>2019-02-23T12:26:40.000Z</time>
      </trkpt>
      <trkpt lat="43.80033" lon="7.08888">
        <ele>920.79998779297</ele>
        <time>2019-02-23T12:26:51.000Z</time>
      </trkpt>
      <trkpt lat="43.80033" lon="7.08888">
        <ele>921.20001220703</ele>
        <time>2019-02-23T12:27:00.000Z</time>
      </trkpt>
      <trkpt lat="43.80033" lon="7.08889">
        <ele>921.20001220703</ele>
        <time>2019-02-23T12:27:13.000Z</time>
      </trkpt>
      <trkpt lat="43.80034" lon="7.0889">
        <ele>921.40002441406</ele>
        <time>2019-02-23T12:27:20.000Z</time>
      </trkpt>
      <trkpt lat="43.80034" lon="7.0889">
        <ele>921.59997558594</ele>
        <time>2019-02-23T12:27:30.000Z</time>
      </trkpt>
      <trkpt lat="43.80034" lon="7.08889">
        <ele>921.59997558594</ele>
        <time>2019-02-23T12:27:36.000Z</time>
      </trkpt>
      <trkpt lat="43.80033" lon="7.08888">
        <ele>921.79998779297</ele>
        <time>2019-02-23T12:27:50.000Z</time>
      </trkpt>
      <trkpt lat="43.80033" lon="7.08888">
        <ele>921.40002441406</ele>
        <time>2019-02-23T12:28:02.000Z</time>
      </trkpt>
      <trkpt lat="43.80033" lon="7.08888">
        <ele>921.40002441406</ele>
        <time>2019-02-23T12:28:12.000Z</time>
      </trkpt>
      <trkpt lat="43.80034" lon="7.08889">
        <ele>921.20001220703</ele>
        <time>2019-02-23T12:28:22.000Z</time>
      </trkpt>
      <trkpt lat="43.80033" lon="7.08889">
        <ele>921.79998779297</ele>
        <time>2019-02-23T12:28:37.000Z</time>
      </trkpt>
      <trkpt lat="43.80033" lon="7.08889">
        <ele>921.59997558594</ele>
        <time>2019-02-23T12:28:48.000Z</time>
      </trkpt>
      <trkpt lat="43.80033" lon="7.0889">
        <ele>922</ele>
        <time>2019-02-23T12:28:57.000Z</time>
      </trkpt>
      <trkpt lat="43.80032" lon="7.08889">
        <ele>921.79998779297</ele>
        <time>2019-02-23T12:29:04.000Z</time>
      </trkpt>
      <trkpt lat="43.80032" lon="7.08889">
        <ele>921.79998779297</ele>
        <time>2019-02-23T12:29:13.000Z</time>
      </trkpt>
      <trkpt lat="43.80032" lon="7.08889">
        <ele>921.79998779297</ele>
        <time>2019-02-23T12:29:23.000Z</time>
      </trkpt>
      <trkpt lat="43.80032" lon="7.08889">
        <ele>922</ele>
        <time>2019-02-23T12:29:31.000Z</time>
      </trkpt>
      <trkpt lat="43.80031" lon="7.08888">
        <ele>921.79998779297</ele>
        <time>2019-02-23T12:29:42.000Z</time>
      </trkpt>
      <trkpt lat="43.80031" lon="7.08889">
        <ele>921.59997558594</ele>
        <time>2019-02-23T12:29:52.000Z</time>
      </trkpt>
      <trkpt lat="43.80031" lon="7.08889">
        <ele>922</ele>
        <time>2019-02-23T12:30:00.000Z</time>
      </trkpt>
      <trkpt lat="43.80031" lon="7.08889">
        <ele>922</ele>
        <time>2019-02-23T12:30:02.000Z</time>
      </trkpt>
      <trkpt lat="43.80031" lon="7.08889">
        <ele>921.59997558594</ele>
        <time>2019-02-23T12:30:10.000Z</time>
      </trkpt>
      <trkpt lat="43.8003" lon="7.08889">
        <ele>922</ele>
        <time>2019-02-23T12:30:16.000Z</time>
      </trkpt>
      <trkpt lat="43.8003" lon="7.08888">
        <ele>922.40002441406</ele>
        <time>2019-02-23T12:30:27.000Z</time>
      </trkpt>
      <trkpt lat="43.8003" lon="7.08888">
        <ele>921.79998779297</ele>
        <time>2019-02-23T12:30:39.000Z</time>
      </trkpt>
      <trkpt lat="43.80029" lon="7.08888">
        <ele>921.79998779297</ele>
        <time>2019-02-23T12:30:46.000Z</time>
      </trkpt>
      <trkpt lat="43.80028" lon="7.08889">
        <ele>922.20001220703</ele>
        <time>2019-02-23T12:30:55.000Z</time>
      </trkpt>
      <trkpt lat="43.80028" lon="7.08888">
        <ele>921.59997558594</ele>
        <time>2019-02-23T12:31:02.000Z</time>
      </trkpt>
      <trkpt lat="43.80028" lon="7.08889">
        <ele>922.40002441406</ele>
        <time>2019-02-23T12:31:11.000Z</time>
      </trkpt>
      <trkpt lat="43.80027" lon="7.08888">
        <ele>922</ele>
        <time>2019-02-23T12:31:19.000Z</time>
      </trkpt>
      <trkpt lat="43.80026" lon="7.08888">
        <ele>922</ele>
        <time>2019-02-23T12:31:28.000Z</time>
      </trkpt>
      <trkpt lat="43.80026" lon="7.08888">
        <ele>921.79998779297</ele>
        <time>2019-02-23T12:31:39.000Z</time>
      </trkpt>
      <trkpt lat="43.80026" lon="7.08888">
        <ele>922.20001220703</ele>
        <time>2019-02-23T12:31:48.000Z</time>
      </trkpt>
      <trkpt lat="43.80027" lon="7.08888">
        <ele>921.40002441406</ele>
        <time>2019-02-23T12:31:57.000Z</time>
      </trkpt>
      <trkpt lat="43.80028" lon="7.08888">
        <ele>921.59997558594</ele>
        <time>2019-02-23T12:32:06.000Z</time>
      </trkpt>
      <trkpt lat="43.8003" lon="7.0889">
        <ele>921.59997558594</ele>
        <time>2019-02-23T12:32:14.000Z</time>
      </trkpt>
      <trkpt lat="43.80032" lon="7.0889">
        <ele>921.40002441406</ele>
        <time>2019-02-23T12:32:20.000Z</time>
      </trkpt>
      <trkpt lat="43.8003" lon="7.08886">
        <ele>921.79998779297</ele>
        <time>2019-02-23T12:32:26.000Z</time>
      </trkpt>
      <trkpt lat="43.80027" lon="7.08884">
        <ele>922.40002441406</ele>
        <time>2019-02-23T12:32:29.000Z</time>
      </trkpt>
      <trkpt lat="43.80026" lon="7.08883">
        <ele>922.59997558594</ele>
        <time>2019-02-23T12:32:30.000Z</time>
      </trkpt>
      <trkpt lat="43.80026" lon="7.08883">
        <ele>922.79998779297</ele>
        <time>2019-02-23T12:32:32.000Z</time>
      </trkpt>
      <trkpt lat="43.80027" lon="7.08884">
        <ele>923.40002441406</ele>
        <time>2019-02-23T12:32:36.000Z</time>
      </trkpt>
      <trkpt lat="43.80027" lon="7.08886">
        <ele>923.40002441406</ele>
        <time>2019-02-23T12:32:38.000Z</time>
      </trkpt>
      <trkpt lat="43.80029" lon="7.08888">
        <ele>923.40002441406</ele>
        <time>2019-02-23T12:32:41.000Z</time>
      </trkpt>
      <trkpt lat="43.8003" lon="7.08889">
        <ele>923</ele>
        <time>2019-02-23T12:32:44.000Z</time>
      </trkpt>
      <trkpt lat="43.80028" lon="7.08895">
        <ele>922.59997558594</ele>
        <time>2019-02-23T12:32:50.000Z</time>
      </trkpt>
      <trkpt lat="43.80027" lon="7.08896">
        <ele>922.20001220703</ele>
        <time>2019-02-23T12:32:56.000Z</time>
      </trkpt>
      <trkpt lat="43.80031" lon="7.08897">
        <ele>921.79998779297</ele>
        <time>2019-02-23T12:33:07.000Z</time>
      </trkpt>
      <trkpt lat="43.80032" lon="7.08897">
        <ele>921.59997558594</ele>
        <time>2019-02-23T12:33:10.000Z</time>
      </trkpt>
      <trkpt lat="43.80032" lon="7.08897">
        <ele>921.59997558594</ele>
        <time>2019-02-23T12:33:13.000Z</time>
      </trkpt>
      <trkpt lat="43.80032" lon="7.08897">
        <ele>921.40002441406</ele>
        <time>2019-02-23T12:33:28.000Z</time>
      </trkpt>
      <trkpt lat="43.8003" lon="7.08898">
        <ele>921.59997558594</ele>
        <time>2019-02-23T12:33:33.000Z</time>
      </trkpt>
      <trkpt lat="43.80028" lon="7.089">
        <ele>921.59997558594</ele>
        <time>2019-02-23T12:33:38.000Z</time>
      </trkpt>
      <trkpt lat="43.80029" lon="7.08898">
        <ele>921.79998779297</ele>
        <time>2019-02-23T12:33:42.000Z</time>
      </trkpt>
      <trkpt lat="43.80029" lon="7.08897">
        <ele>921.79998779297</ele>
        <time>2019-02-23T12:33:43.000Z</time>
      </trkpt>
      <trkpt lat="43.80037" lon="7.08897">
        <ele>922.20001220703</ele>
        <time>2019-02-23T12:33:52.000Z</time>
      </trkpt>
      <trkpt lat="43.8004" lon="7.08901">
        <ele>922.20001220703</ele>
        <time>2019-02-23T12:34:00.000Z</time>
      </trkpt>
      <trkpt lat="43.80041" lon="7.08902">
        <ele>922.20001220703</ele>
        <time>2019-02-23T12:34:09.000Z</time>
      </trkpt>
      <trkpt lat="43.8004" lon="7.08902">
        <ele>922.59997558594</ele>
        <time>2019-02-23T12:34:14.000Z</time>
      </trkpt>
      <trkpt lat="43.8004" lon="7.08902">
        <ele>922.79998779297</ele>
        <time>2019-02-23T12:34:15.000Z</time>
      </trkpt>
      <trkpt lat="43.8004" lon="7.08901">
        <ele>923</ele>
        <time>2019-02-23T12:34:28.000Z</time>
      </trkpt>
      <trkpt lat="43.80041" lon="7.08908">
        <ele>922.79998779297</ele>
        <time>2019-02-23T12:34:35.000Z</time>
      </trkpt>
      <trkpt lat="43.80045" lon="7.0893">
        <ele>921.59997558594</ele>
        <time>2019-02-23T12:34:42.000Z</time>
      </trkpt>
      <trkpt lat="43.80045" lon="7.08934">
        <ele>921.40002441406</ele>
        <time>2019-02-23T12:34:43.000Z</time>
      </trkpt>
      <trkpt lat="43.80046" lon="7.08945">
        <ele>921</ele>
        <time>2019-02-23T12:34:45.000Z</time>
      </trkpt>
      <trkpt lat="43.80049" lon="7.08957">
        <ele>920</ele>
        <time>2019-02-23T12:34:47.000Z</time>
      </trkpt>
      <trkpt lat="43.80052" lon="7.08965">
        <ele>918.20001220703</ele>
        <time>2019-02-23T12:34:49.000Z</time>
      </trkpt>
      <trkpt lat="43.80051" lon="7.08968">
        <ele>917.79998779297</ele>
        <time>2019-02-23T12:34:50.000Z</time>
      </trkpt>
      <trkpt lat="43.80049" lon="7.08969">
        <ele>917</ele>
        <time>2019-02-23T12:34:51.000Z</time>
      </trkpt>
      <trkpt lat="43.80043" lon="7.08963">
        <ele>916.40002441406</ele>
        <time>2019-02-23T12:34:54.000Z</time>
      </trkpt>
      <trkpt lat="43.80041" lon="7.08961">
        <ele>916</ele>
        <time>2019-02-23T12:34:55.000Z</time>
      </trkpt>
      <trkpt lat="43.8004" lon="7.08958">
        <ele>916</ele>
        <time>2019-02-23T12:34:56.000Z</time>
      </trkpt>
      <trkpt lat="43.80032" lon="7.08948">
        <ele>916</ele>
        <time>2019-02-23T12:35:01.000Z</time>
      </trkpt>
      <trkpt lat="43.8002" lon="7.08942">
        <ele>915.40002441406</ele>
        <time>2019-02-23T12:35:08.000Z</time>
      </trkpt>
      <trkpt lat="43.80006" lon="7.08944">
        <ele>915.20001220703</ele>
        <time>2019-02-23T12:35:16.000Z</time>
      </trkpt>
      <trkpt lat="43.80003" lon="7.08946">
        <ele>915</ele>
        <time>2019-02-23T12:35:18.000Z</time>
      </trkpt>
      <trkpt lat="43.79995" lon="7.08953">
        <ele>914.59997558594</ele>
        <time>2019-02-23T12:35:23.000Z</time>
      </trkpt>
      <trkpt lat="43.79988" lon="7.08963">
        <ele>914</ele>
        <time>2019-02-23T12:35:28.000Z</time>
      </trkpt>
      <trkpt lat="43.79986" lon="7.08968">
        <ele>913.79998779297</ele>
        <time>2019-02-23T12:35:30.000Z</time>
      </trkpt>
      <trkpt lat="43.79981" lon="7.08989">
        <ele>912.79998779297</ele>
        <time>2019-02-23T12:35:37.000Z</time>
      </trkpt>
      <trkpt lat="43.79986" lon="7.0901">
        <ele>912</ele>
        <time>2019-02-23T12:35:43.000Z</time>
      </trkpt>
      <trkpt lat="43.79988" lon="7.09016">
        <ele>911.79998779297</ele>
        <time>2019-02-23T12:35:45.000Z</time>
      </trkpt>
      <trkpt lat="43.79995" lon="7.09034">
        <ele>911.20001220703</ele>
        <time>2019-02-23T12:35:49.000Z</time>
      </trkpt>
      <trkpt lat="43.79999" lon="7.09046">
        <ele>910.79998779297</ele>
        <time>2019-02-23T12:35:51.000Z</time>
      </trkpt>
      <trkpt lat="43.80009" lon="7.09075">
        <ele>909.79998779297</ele>
        <time>2019-02-23T12:35:55.000Z</time>
      </trkpt>
      <trkpt lat="43.80012" lon="7.09083">
        <ele>909.59997558594</ele>
        <time>2019-02-23T12:35:56.000Z</time>
      </trkpt>
      <trkpt lat="43.8002" lon="7.09109">
        <ele>908.40002441406</ele>
        <time>2019-02-23T12:35:59.000Z</time>
      </trkpt>
      <trkpt lat="43.80025" lon="7.09129">
        <ele>907.59997558594</ele>
        <time>2019-02-23T12:36:01.000Z</time>
      </trkpt>
      <trkpt lat="43.80028" lon="7.09139">
        <ele>907.20001220703</ele>
        <time>2019-02-23T12:36:02.000Z</time>
      </trkpt>
      <trkpt lat="43.80038" lon="7.0917">
        <ele>906</ele>
        <time>2019-02-23T12:36:05.000Z</time>
      </trkpt>
      <trkpt lat="43.80044" lon="7.09192">
        <ele>905.20001220703</ele>
        <time>2019-02-23T12:36:07.000Z</time>
      </trkpt>
      <trkpt lat="43.80048" lon="7.09203">
        <ele>904.79998779297</ele>
        <time>2019-02-23T12:36:08.000Z</time>
      </trkpt>
      <trkpt lat="43.80058" lon="7.09238">
        <ele>903.40002441406</ele>
        <time>2019-02-23T12:36:11.000Z</time>
      </trkpt>
      <trkpt lat="43.80065" lon="7.09262">
        <ele>902.20001220703</ele>
        <time>2019-02-23T12:36:13.000Z</time>
      </trkpt>
      <trkpt lat="43.80068" lon="7.09271">
        <ele>901.79998779297</ele>
        <time>2019-02-23T12:36:14.000Z</time>
      </trkpt>
      <trkpt lat="43.80071" lon="7.09282">
        <ele>901</ele>
        <time>2019-02-23T12:36:15.000Z</time>
      </trkpt>
      <trkpt lat="43.80078" lon="7.09306">
        <ele>899.59997558594</ele>
        <time>2019-02-23T12:36:17.000Z</time>
      </trkpt>
      <trkpt lat="43.80081" lon="7.09329">
        <ele>898.40002441406</ele>
        <time>2019-02-23T12:36:19.000Z</time>
      </trkpt>
      <trkpt lat="43.80082" lon="7.09342">
        <ele>898</ele>
        <time>2019-02-23T12:36:20.000Z</time>
      </trkpt>
      <trkpt lat="43.80082" lon="7.09366">
        <ele>897</ele>
        <time>2019-02-23T12:36:22.000Z</time>
      </trkpt>
      <trkpt lat="43.80081" lon="7.09389">
        <ele>895.79998779297</ele>
        <time>2019-02-23T12:36:24.000Z</time>
      </trkpt>
      <trkpt lat="43.80079" lon="7.09402">
        <ele>895.40002441406</ele>
        <time>2019-02-23T12:36:25.000Z</time>
      </trkpt>
      <trkpt lat="43.80075" lon="7.09424">
        <ele>894.40002441406</ele>
        <time>2019-02-23T12:36:27.000Z</time>
      </trkpt>
      <trkpt lat="43.80068" lon="7.0946">
        <ele>893.40002441406</ele>
        <time>2019-02-23T12:36:30.000Z</time>
      </trkpt>
      <trkpt lat="43.80065" lon="7.09471">
        <ele>892.79998779297</ele>
        <time>2019-02-23T12:36:31.000Z</time>
      </trkpt>
      <trkpt lat="43.80062" lon="7.09482">
        <ele>892.59997558594</ele>
        <time>2019-02-23T12:36:32.000Z</time>
      </trkpt>
      <trkpt lat="43.80059" lon="7.0949">
        <ele>892.20001220703</ele>
        <time>2019-02-23T12:36:33.000Z</time>
      </trkpt>
      <trkpt lat="43.80055" lon="7.09497">
        <ele>892</ele>
        <time>2019-02-23T12:36:34.000Z</time>
      </trkpt>
      <trkpt lat="43.80048" lon="7.09507">
        <ele>892.59997558594</ele>
        <time>2019-02-23T12:36:36.000Z</time>
      </trkpt>
      <trkpt lat="43.80043" lon="7.09513">
        <ele>893.79998779297</ele>
        <time>2019-02-23T12:36:38.000Z</time>
      </trkpt>
      <trkpt lat="43.80039" lon="7.09519">
        <ele>895</ele>
        <time>2019-02-23T12:36:41.000Z</time>
      </trkpt>
      <trkpt lat="43.80035" lon="7.09523">
        <ele>895.59997558594</ele>
        <time>2019-02-23T12:36:43.000Z</time>
      </trkpt>
      <trkpt lat="43.80029" lon="7.09528">
        <ele>896.20001220703</ele>
        <time>2019-02-23T12:36:46.000Z</time>
      </trkpt>
      <trkpt lat="43.80015" lon="7.0954">
        <ele>897</ele>
        <time>2019-02-23T12:36:52.000Z</time>
      </trkpt>
      <trkpt lat="43.80013" lon="7.09543">
        <ele>897.20001220703</ele>
        <time>2019-02-23T12:36:53.000Z</time>
      </trkpt>
      <trkpt lat="43.79997" lon="7.09565">
        <ele>897.79998779297</ele>
        <time>2019-02-23T12:37:00.000Z</time>
      </trkpt>
      <trkpt lat="43.79992" lon="7.09587">
        <ele>898.20001220703</ele>
        <time>2019-02-23T12:37:05.000Z</time>
      </trkpt>
      <trkpt lat="43.79991" lon="7.09592">
        <ele>898.20001220703</ele>
        <time>2019-02-23T12:37:06.000Z</time>
      </trkpt>
      <trkpt lat="43.79986" lon="7.09623">
        <ele>898.79998779297</ele>
        <time>2019-02-23T12:37:13.000Z</time>
      </trkpt>
      <trkpt lat="43.7998" lon="7.09674">
        <ele>899</ele>
        <time>2019-02-23T12:37:24.000Z</time>
      </trkpt>
      <trkpt lat="43.7997" lon="7.09724">
        <ele>898.79998779297</ele>
        <time>2019-02-23T12:37:34.000Z</time>
      </trkpt>
      <trkpt lat="43.79958" lon="7.09769">
        <ele>899</ele>
        <time>2019-02-23T12:37:43.000Z</time>
      </trkpt>
      <trkpt lat="43.79954" lon="7.09799">
        <ele>899.20001220703</ele>
        <time>2019-02-23T12:37:49.000Z</time>
      </trkpt>
      <trkpt lat="43.79952" lon="7.09823">
        <ele>899.40002441406</ele>
        <time>2019-02-23T12:37:54.000Z</time>
      </trkpt>
      <trkpt lat="43.79949" lon="7.09855">
        <ele>899.59997558594</ele>
        <time>2019-02-23T12:38:00.000Z</time>
      </trkpt>
      <trkpt lat="43.79951" lon="7.09896">
        <ele>899.59997558594</ele>
        <time>2019-02-23T12:38:08.000Z</time>
      </trkpt>
      <trkpt lat="43.79958" lon="7.0995">
        <ele>899.79998779297</ele>
        <time>2019-02-23T12:38:18.000Z</time>
      </trkpt>
      <trkpt lat="43.79968" lon="7.10011">
        <ele>900.40002441406</ele>
        <time>2019-02-23T12:38:29.000Z</time>
      </trkpt>
      <trkpt lat="43.79976" lon="7.1006">
        <ele>900.40002441406</ele>
        <time>2019-02-23T12:38:37.000Z</time>
      </trkpt>
      <trkpt lat="43.79986" lon="7.10127">
        <ele>900.79998779297</ele>
        <time>2019-02-23T12:38:48.000Z</time>
      </trkpt>
      <trkpt lat="43.79996" lon="7.10204">
        <ele>901.20001220703</ele>
        <time>2019-02-23T12:39:00.000Z</time>
      </trkpt>
      <trkpt lat="43.80002" lon="7.10235">
        <ele>901.40002441406</ele>
        <time>2019-02-23T12:39:05.000Z</time>
      </trkpt>
      <trkpt lat="43.80006" lon="7.10259">
        <ele>901.59997558594</ele>
        <time>2019-02-23T12:39:09.000Z</time>
      </trkpt>
      <trkpt lat="43.8001" lon="7.10314">
        <ele>902</ele>
        <time>2019-02-23T12:39:17.000Z</time>
      </trkpt>
      <trkpt lat="43.80008" lon="7.10335">
        <ele>901.59997558594</ele>
        <time>2019-02-23T12:39:20.000Z</time>
      </trkpt>
      <trkpt lat="43.80001" lon="7.10351">
        <ele>901.59997558594</ele>
        <time>2019-02-23T12:39:23.000Z</time>
      </trkpt>
      <trkpt lat="43.79986" lon="7.10363">
        <ele>901.59997558594</ele>
        <time>2019-02-23T12:39:27.000Z</time>
      </trkpt>
      <trkpt lat="43.79972" lon="7.10366">
        <ele>901.59997558594</ele>
        <time>2019-02-23T12:39:30.000Z</time>
      </trkpt>
      <trkpt lat="43.79959" lon="7.10367">
        <ele>901.79998779297</ele>
        <time>2019-02-23T12:39:33.000Z</time>
      </trkpt>
      <trkpt lat="43.7993" lon="7.10377">
        <ele>902.40002441406</ele>
        <time>2019-02-23T12:39:40.000Z</time>
      </trkpt>
      <trkpt lat="43.79911" lon="7.10384">
        <ele>903.40002441406</ele>
        <time>2019-02-23T12:39:45.000Z</time>
      </trkpt>
      <trkpt lat="43.79907" lon="7.10394">
        <ele>903.40002441406</ele>
        <time>2019-02-23T12:39:47.000Z</time>
      </trkpt>
      <trkpt lat="43.79911" lon="7.10411">
        <ele>903.20001220703</ele>
        <time>2019-02-23T12:39:50.000Z</time>
      </trkpt>
      <trkpt lat="43.79927" lon="7.10423">
        <ele>903</ele>
        <time>2019-02-23T12:39:54.000Z</time>
      </trkpt>
      <trkpt lat="43.79931" lon="7.10426">
        <ele>903</ele>
        <time>2019-02-23T12:39:55.000Z</time>
      </trkpt>
      <trkpt lat="43.79959" lon="7.1045">
        <ele>903.20001220703</ele>
        <time>2019-02-23T12:40:02.000Z</time>
      </trkpt>
      <trkpt lat="43.79986" lon="7.10489">
        <ele>902.59997558594</ele>
        <time>2019-02-23T12:40:10.000Z</time>
      </trkpt>
      <trkpt lat="43.79988" lon="7.10494">
        <ele>902.59997558594</ele>
        <time>2019-02-23T12:40:11.000Z</time>
      </trkpt>
      <trkpt lat="43.79995" lon="7.10517">
        <ele>902.79998779297</ele>
        <time>2019-02-23T12:40:15.000Z</time>
      </trkpt>
      <trkpt lat="43.79996" lon="7.1053">
        <ele>902.79998779297</ele>
        <time>2019-02-23T12:40:17.000Z</time>
      </trkpt>
      <trkpt lat="43.79997" lon="7.10542">
        <ele>902.79998779297</ele>
        <time>2019-02-23T12:40:19.000Z</time>
      </trkpt>
      <trkpt lat="43.79996" lon="7.10554">
        <ele>902.79998779297</ele>
        <time>2019-02-23T12:40:21.000Z</time>
      </trkpt>
      <trkpt lat="43.79992" lon="7.10626">
        <ele>903</ele>
        <time>2019-02-23T12:40:32.000Z</time>
      </trkpt>
      <trkpt lat="43.79992" lon="7.10686">
        <ele>903.79998779297</ele>
        <time>2019-02-23T12:40:41.000Z</time>
      </trkpt>
      <trkpt lat="43.79997" lon="7.10745">
        <ele>904.20001220703</ele>
        <time>2019-02-23T12:40:50.000Z</time>
      </trkpt>
      <trkpt lat="43.80001" lon="7.10778">
        <ele>904.40002441406</ele>
        <time>2019-02-23T12:40:55.000Z</time>
      </trkpt>
      <trkpt lat="43.80005" lon="7.10824">
        <ele>905</ele>
        <time>2019-02-23T12:41:02.000Z</time>
      </trkpt>
      <trkpt lat="43.80011" lon="7.10892">
        <ele>905.40002441406</ele>
        <time>2019-02-23T12:41:13.000Z</time>
      </trkpt>
      <trkpt lat="43.80012" lon="7.10917">
        <ele>905.59997558594</ele>
        <time>2019-02-23T12:41:17.000Z</time>
      </trkpt>
      <trkpt lat="43.80014" lon="7.1096">
        <ele>906</ele>
        <time>2019-02-23T12:41:24.000Z</time>
      </trkpt>
      <trkpt lat="43.80019" lon="7.11035">
        <ele>906.20001220703</ele>
        <time>2019-02-23T12:41:36.000Z</time>
      </trkpt>
      <trkpt lat="43.80019" lon="7.11041">
        <ele>906.20001220703</ele>
        <time>2019-02-23T12:41:37.000Z</time>
      </trkpt>
      <trkpt lat="43.80025" lon="7.1108">
        <ele>906.59997558594</ele>
        <time>2019-02-23T12:41:44.000Z</time>
      </trkpt>
      <trkpt lat="43.80026" lon="7.11086">
        <ele>906.59997558594</ele>
        <time>2019-02-23T12:41:45.000Z</time>
      </trkpt>
      <trkpt lat="43.80034" lon="7.11158">
        <ele>907.20001220703</ele>
        <time>2019-02-23T12:41:57.000Z</time>
      </trkpt>
      <trkpt lat="43.80041" lon="7.11213">
        <ele>907.59997558594</ele>
        <time>2019-02-23T12:42:06.000Z</time>
      </trkpt>
      <trkpt lat="43.80043" lon="7.11224">
        <ele>907.59997558594</ele>
        <time>2019-02-23T12:42:08.000Z</time>
      </trkpt>
      <trkpt lat="43.80052" lon="7.11255">
        <ele>908</ele>
        <time>2019-02-23T12:42:15.000Z</time>
      </trkpt>
      <trkpt lat="43.80063" lon="7.11276">
        <ele>908.20001220703</ele>
        <time>2019-02-23T12:42:22.000Z</time>
      </trkpt>
      <trkpt lat="43.80074" lon="7.11296">
        <ele>908.40002441406</ele>
        <time>2019-02-23T12:42:30.000Z</time>
      </trkpt>
      <trkpt lat="43.80076" lon="7.11308">
        <ele>908.59997558594</ele>
        <time>2019-02-23T12:42:37.000Z</time>
      </trkpt>
      <trkpt lat="43.80069" lon="7.11312">
        <ele>908.59997558594</ele>
        <time>2019-02-23T12:42:43.000Z</time>
      </trkpt>
      <trkpt lat="43.80065" lon="7.11318">
        <ele>908.59997558594</ele>
        <time>2019-02-23T12:42:47.000Z</time>
      </trkpt>
      <trkpt lat="43.80063" lon="7.11319">
        <ele>908.79998779297</ele>
        <time>2019-02-23T12:42:48.000Z</time>
      </trkpt>
      <trkpt lat="43.80054" lon="7.11335">
        <ele>909.40002441406</ele>
        <time>2019-02-23T12:42:55.000Z</time>
      </trkpt>
      <trkpt lat="43.80052" lon="7.11339">
        <ele>909.79998779297</ele>
        <time>2019-02-23T12:42:57.000Z</time>
      </trkpt>
      <trkpt lat="43.80047" lon="7.11352">
        <ele>910.79998779297</ele>
        <time>2019-02-23T12:43:03.000Z</time>
      </trkpt>
      <trkpt lat="43.80046" lon="7.11354">
        <ele>911</ele>
        <time>2019-02-23T12:43:04.000Z</time>
      </trkpt>
      <trkpt lat="43.80041" lon="7.11363">
        <ele>912</ele>
        <time>2019-02-23T12:43:09.000Z</time>
      </trkpt>
      <trkpt lat="43.80038" lon="7.11367">
        <ele>912.59997558594</ele>
        <time>2019-02-23T12:43:11.000Z</time>
      </trkpt>
      <trkpt lat="43.80037" lon="7.11369">
        <ele>913</ele>
        <time>2019-02-23T12:43:12.000Z</time>
      </trkpt>
      <trkpt lat="43.80034" lon="7.11373">
        <ele>914</ele>
        <time>2019-02-23T12:43:15.000Z</time>
      </trkpt>
      <trkpt lat="43.80031" lon="7.11379">
        <ele>915.20001220703</ele>
        <time>2019-02-23T12:43:19.000Z</time>
      </trkpt>
      <trkpt lat="43.80026" lon="7.11386">
        <ele>916.20001220703</ele>
        <time>2019-02-23T12:43:24.000Z</time>
      </trkpt>
      <trkpt lat="43.80023" lon="7.1139">
        <ele>916.79998779297</ele>
        <time>2019-02-23T12:43:27.000Z</time>
      </trkpt>
      <trkpt lat="43.8002" lon="7.11395">
        <ele>917.40002441406</ele>
        <time>2019-02-23T12:43:30.000Z</time>
      </trkpt>
      <trkpt lat="43.80016" lon="7.11399">
        <ele>918.59997558594</ele>
        <time>2019-02-23T12:43:34.000Z</time>
      </trkpt>
      <trkpt lat="43.8001" lon="7.11405">
        <ele>919.59997558594</ele>
        <time>2019-02-23T12:43:40.000Z</time>
      </trkpt>
      <trkpt lat="43.80009" lon="7.11406">
        <ele>919.79998779297</ele>
        <time>2019-02-23T12:43:41.000Z</time>
      </trkpt>
      <trkpt lat="43.80004" lon="7.1141">
        <ele>920.79998779297</ele>
        <time>2019-02-23T12:43:45.000Z</time>
      </trkpt>
      <trkpt lat="43.80001" lon="7.11412">
        <ele>921.20001220703</ele>
        <time>2019-02-23T12:43:48.000Z</time>
      </trkpt>
      <trkpt lat="43.79997" lon="7.11415">
        <ele>921.79998779297</ele>
        <time>2019-02-23T12:43:51.000Z</time>
      </trkpt>
      <trkpt lat="43.79993" lon="7.11419">
        <ele>922.40002441406</ele>
        <time>2019-02-23T12:43:54.000Z</time>
      </trkpt>
      <trkpt lat="43.79989" lon="7.11422">
        <ele>923</ele>
        <time>2019-02-23T12:43:57.000Z</time>
      </trkpt>
      <trkpt lat="43.79983" lon="7.11426">
        <ele>924</ele>
        <time>2019-02-23T12:44:01.000Z</time>
      </trkpt>
      <trkpt lat="43.79982" lon="7.11427">
        <ele>924.20001220703</ele>
        <time>2019-02-23T12:44:02.000Z</time>
      </trkpt>
      <trkpt lat="43.79975" lon="7.11433">
        <ele>925.20001220703</ele>
        <time>2019-02-23T12:44:08.000Z</time>
      </trkpt>
      <trkpt lat="43.79974" lon="7.11434">
        <ele>925.40002441406</ele>
        <time>2019-02-23T12:44:09.000Z</time>
      </trkpt>
      <trkpt lat="43.79968" lon="7.11438">
        <ele>926.20001220703</ele>
        <time>2019-02-23T12:44:14.000Z</time>
      </trkpt>
      <trkpt lat="43.79967" lon="7.11439">
        <ele>926.40002441406</ele>
        <time>2019-02-23T12:44:15.000Z</time>
      </trkpt>
      <trkpt lat="43.79959" lon="7.11442">
        <ele>927.40002441406</ele>
        <time>2019-02-23T12:44:21.000Z</time>
      </trkpt>
      <trkpt lat="43.79957" lon="7.11443">
        <ele>927.59997558594</ele>
        <time>2019-02-23T12:44:22.000Z</time>
      </trkpt>
      <trkpt lat="43.79948" lon="7.11447">
        <ele>928.20001220703</ele>
        <time>2019-02-23T12:44:29.000Z</time>
      </trkpt>
      <trkpt lat="43.79944" lon="7.11449">
        <ele>928.59997558594</ele>
        <time>2019-02-23T12:44:32.000Z</time>
      </trkpt>
      <trkpt lat="43.79938" lon="7.11451">
        <ele>929.20001220703</ele>
        <time>2019-02-23T12:44:36.000Z</time>
      </trkpt>
      <trkpt lat="43.79932" lon="7.11454">
        <ele>929.79998779297</ele>
        <time>2019-02-23T12:44:41.000Z</time>
      </trkpt>
      <trkpt lat="43.79925" lon="7.11458">
        <ele>930.40002441406</ele>
        <time>2019-02-23T12:44:46.000Z</time>
      </trkpt>
      <trkpt lat="43.79919" lon="7.11461">
        <ele>930.79998779297</ele>
        <time>2019-02-23T12:44:50.000Z</time>
      </trkpt>
      <trkpt lat="43.79914" lon="7.11461">
        <ele>931.20001220703</ele>
        <time>2019-02-23T12:44:53.000Z</time>
      </trkpt>
      <trkpt lat="43.79908" lon="7.11464">
        <ele>932</ele>
        <time>2019-02-23T12:44:57.000Z</time>
      </trkpt>
      <trkpt lat="43.79905" lon="7.11466">
        <ele>932.20001220703</ele>
        <time>2019-02-23T12:44:59.000Z</time>
      </trkpt>
      <trkpt lat="43.79898" lon="7.11468">
        <ele>933</ele>
        <time>2019-02-23T12:45:04.000Z</time>
      </trkpt>
      <trkpt lat="43.79895" lon="7.11469">
        <ele>933.59997558594</ele>
        <time>2019-02-23T12:45:06.000Z</time>
      </trkpt>
      <trkpt lat="43.79894" lon="7.11469">
        <ele>934</ele>
        <time>2019-02-23T12:45:07.000Z</time>
      </trkpt>
      <trkpt lat="43.79892" lon="7.1147">
        <ele>934.59997558594</ele>
        <time>2019-02-23T12:45:09.000Z</time>
      </trkpt>
      <trkpt lat="43.79888" lon="7.1147">
        <ele>935</ele>
        <time>2019-02-23T12:45:11.000Z</time>
      </trkpt>
      <trkpt lat="43.79884" lon="7.11472">
        <ele>935.20001220703</ele>
        <time>2019-02-23T12:45:14.000Z</time>
      </trkpt>
      <trkpt lat="43.79881" lon="7.11473">
        <ele>935.79998779297</ele>
        <time>2019-02-23T12:45:17.000Z</time>
      </trkpt>
      <trkpt lat="43.79872" lon="7.11475">
        <ele>936.40002441406</ele>
        <time>2019-02-23T12:45:23.000Z</time>
      </trkpt>
      <trkpt lat="43.79868" lon="7.11476">
        <ele>936.79998779297</ele>
        <time>2019-02-23T12:45:25.000Z</time>
      </trkpt>
      <trkpt lat="43.7986" lon="7.11478">
        <ele>937.79998779297</ele>
        <time>2019-02-23T12:45:30.000Z</time>
      </trkpt>
      <trkpt lat="43.79848" lon="7.11481">
        <ele>938.59997558594</ele>
        <time>2019-02-23T12:45:38.000Z</time>
      </trkpt>
      <trkpt lat="43.79836" lon="7.11482">
        <ele>939</ele>
        <time>2019-02-23T12:45:45.000Z</time>
      </trkpt>
      <trkpt lat="43.79834" lon="7.11482">
        <ele>939</ele>
        <time>2019-02-23T12:45:46.000Z</time>
      </trkpt>
      <trkpt lat="43.79822" lon="7.11487">
        <ele>939.79998779297</ele>
        <time>2019-02-23T12:45:54.000Z</time>
      </trkpt>
      <trkpt lat="43.7982" lon="7.11488">
        <ele>940</ele>
        <time>2019-02-23T12:45:55.000Z</time>
      </trkpt>
      <trkpt lat="43.79808" lon="7.11495">
        <ele>941</ele>
        <time>2019-02-23T12:46:04.000Z</time>
      </trkpt>
      <trkpt lat="43.79805" lon="7.11496">
        <ele>941.20001220703</ele>
        <time>2019-02-23T12:46:05.000Z</time>
      </trkpt>
      <trkpt lat="43.79798" lon="7.11499">
        <ele>942.20001220703</ele>
        <time>2019-02-23T12:46:09.000Z</time>
      </trkpt>
      <trkpt lat="43.79794" lon="7.11499">
        <ele>943</ele>
        <time>2019-02-23T12:46:11.000Z</time>
      </trkpt>
      <trkpt lat="43.79791" lon="7.11499">
        <ele>943.40002441406</ele>
        <time>2019-02-23T12:46:13.000Z</time>
      </trkpt>
      <trkpt lat="43.79785" lon="7.11502">
        <ele>944</ele>
        <time>2019-02-23T12:46:18.000Z</time>
      </trkpt>
      <trkpt lat="43.79783" lon="7.11502">
        <ele>944.20001220703</ele>
        <time>2019-02-23T12:46:19.000Z</time>
      </trkpt>
      <trkpt lat="43.7978" lon="7.11502">
        <ele>944.59997558594</ele>
        <time>2019-02-23T12:46:21.000Z</time>
      </trkpt>
      <trkpt lat="43.79777" lon="7.11501">
        <ele>945.20001220703</ele>
        <time>2019-02-23T12:46:23.000Z</time>
      </trkpt>
      <trkpt lat="43.79774" lon="7.115">
        <ele>945.79998779297</ele>
        <time>2019-02-23T12:46:25.000Z</time>
      </trkpt>
      <trkpt lat="43.79769" lon="7.11498">
        <ele>946.59997558594</ele>
        <time>2019-02-23T12:46:29.000Z</time>
      </trkpt>
      <trkpt lat="43.79769" lon="7.11498">
        <ele>946.79998779297</ele>
        <time>2019-02-23T12:46:30.000Z</time>
      </trkpt>
      <trkpt lat="43.79768" lon="7.11498">
        <ele>947.59997558594</ele>
        <time>2019-02-23T12:46:34.000Z</time>
      </trkpt>
      <trkpt lat="43.79767" lon="7.115">
        <ele>947.79998779297</ele>
        <time>2019-02-23T12:46:38.000Z</time>
      </trkpt>
      <trkpt lat="43.79764" lon="7.115">
        <ele>947.79998779297</ele>
        <time>2019-02-23T12:46:41.000Z</time>
      </trkpt>
      <trkpt lat="43.79762" lon="7.115">
        <ele>948.20001220703</ele>
        <time>2019-02-23T12:46:46.000Z</time>
      </trkpt>
      <trkpt lat="43.79758" lon="7.11501">
        <ele>948.79998779297</ele>
        <time>2019-02-23T12:46:50.000Z</time>
      </trkpt>
      <trkpt lat="43.79757" lon="7.11502">
        <ele>949.40002441406</ele>
        <time>2019-02-23T12:46:52.000Z</time>
      </trkpt>
      <trkpt lat="43.79753" lon="7.11504">
        <ele>949.79998779297</ele>
        <time>2019-02-23T12:46:56.000Z</time>
      </trkpt>
      <trkpt lat="43.79748" lon="7.11504">
        <ele>950.59997558594</ele>
        <time>2019-02-23T12:47:02.000Z</time>
      </trkpt>
      <trkpt lat="43.79747" lon="7.11504">
        <ele>951</ele>
        <time>2019-02-23T12:47:04.000Z</time>
      </trkpt>
      <trkpt lat="43.7974" lon="7.11507">
        <ele>952.20001220703</ele>
        <time>2019-02-23T12:47:12.000Z</time>
      </trkpt>
      <trkpt lat="43.79737" lon="7.11509">
        <ele>952.59997558594</ele>
        <time>2019-02-23T12:47:16.000Z</time>
      </trkpt>
      <trkpt lat="43.79736" lon="7.1151">
        <ele>953</ele>
        <time>2019-02-23T12:47:19.000Z</time>
      </trkpt>
      <trkpt lat="43.79735" lon="7.1151">
        <ele>953.40002441406</ele>
        <time>2019-02-23T12:47:21.000Z</time>
      </trkpt>
      <trkpt lat="43.79735" lon="7.1151">
        <ele>953.59997558594</ele>
        <time>2019-02-23T12:47:23.000Z</time>
      </trkpt>
      <trkpt lat="43.79729" lon="7.11509">
        <ele>953.59997558594</ele>
        <time>2019-02-23T12:47:30.000Z</time>
      </trkpt>
      <trkpt lat="43.79726" lon="7.11507">
        <ele>953.59997558594</ele>
        <time>2019-02-23T12:47:33.000Z</time>
      </trkpt>
      <trkpt lat="43.79723" lon="7.11506">
        <ele>953.59997558594</ele>
        <time>2019-02-23T12:47:35.000Z</time>
      </trkpt>
      <trkpt lat="43.79715" lon="7.11504">
        <ele>954.59997558594</ele>
        <time>2019-02-23T12:47:40.000Z</time>
      </trkpt>
      <trkpt lat="43.7971" lon="7.11502">
        <ele>955.59997558594</ele>
        <time>2019-02-23T12:47:44.000Z</time>
      </trkpt>
      <trkpt lat="43.79697" lon="7.11498">
        <ele>956.79998779297</ele>
        <time>2019-02-23T12:47:52.000Z</time>
      </trkpt>
      <trkpt lat="43.79685" lon="7.11495">
        <ele>958</ele>
        <time>2019-02-23T12:48:00.000Z</time>
      </trkpt>
      <trkpt lat="43.79677" lon="7.1149">
        <ele>959</ele>
        <time>2019-02-23T12:48:05.000Z</time>
      </trkpt>
      <trkpt lat="43.79672" lon="7.11489">
        <ele>959.40002441406</ele>
        <time>2019-02-23T12:48:08.000Z</time>
      </trkpt>
      <trkpt lat="43.79666" lon="7.11488">
        <ele>960</ele>
        <time>2019-02-23T12:48:12.000Z</time>
      </trkpt>
      <trkpt lat="43.79665" lon="7.11487">
        <ele>960.20001220703</ele>
        <time>2019-02-23T12:48:13.000Z</time>
      </trkpt>
      <trkpt lat="43.79655" lon="7.11482">
        <ele>961.20001220703</ele>
        <time>2019-02-23T12:48:20.000Z</time>
      </trkpt>
      <trkpt lat="43.79653" lon="7.11481">
        <ele>961.59997558594</ele>
        <time>2019-02-23T12:48:21.000Z</time>
      </trkpt>
      <trkpt lat="43.79648" lon="7.11479">
        <ele>962.40002441406</ele>
        <time>2019-02-23T12:48:25.000Z</time>
      </trkpt>
      <trkpt lat="43.79645" lon="7.11477">
        <ele>962.79998779297</ele>
        <time>2019-02-23T12:48:28.000Z</time>
      </trkpt>
      <trkpt lat="43.79638" lon="7.11477">
        <ele>963.40002441406</ele>
        <time>2019-02-23T12:48:32.000Z</time>
      </trkpt>
      <trkpt lat="43.79635" lon="7.11476">
        <ele>963.59997558594</ele>
        <time>2019-02-23T12:48:34.000Z</time>
      </trkpt>
      <trkpt lat="43.79624" lon="7.11473">
        <ele>965</ele>
        <time>2019-02-23T12:48:44.000Z</time>
      </trkpt>
      <trkpt lat="43.79624" lon="7.11478">
        <ele>965.59997558594</ele>
        <time>2019-02-23T12:48:48.000Z</time>
      </trkpt>
      <trkpt lat="43.79625" lon="7.11479">
        <ele>965.79998779297</ele>
        <time>2019-02-23T12:48:49.000Z</time>
      </trkpt>
      <trkpt lat="43.79628" lon="7.11483">
        <ele>966.20001220703</ele>
        <time>2019-02-23T12:48:52.000Z</time>
      </trkpt>
      <trkpt lat="43.79631" lon="7.11489">
        <ele>966.59997558594</ele>
        <time>2019-02-23T12:48:56.000Z</time>
      </trkpt>
      <trkpt lat="43.79632" lon="7.1149">
        <ele>966.79998779297</ele>
        <time>2019-02-23T12:48:57.000Z</time>
      </trkpt>
      <trkpt lat="43.79636" lon="7.11501">
        <ele>967.79998779297</ele>
        <time>2019-02-23T12:49:03.000Z</time>
      </trkpt>
      <trkpt lat="43.79639" lon="7.11515">
        <ele>968.79998779297</ele>
        <time>2019-02-23T12:49:11.000Z</time>
      </trkpt>
      <trkpt lat="43.79642" lon="7.11528">
        <ele>970.20001220703</ele>
        <time>2019-02-23T12:49:18.000Z</time>
      </trkpt>
      <trkpt lat="43.79642" lon="7.11535">
        <ele>971.20001220703</ele>
        <time>2019-02-23T12:49:22.000Z</time>
      </trkpt>
      <trkpt lat="43.79643" lon="7.1154">
        <ele>971.59997558594</ele>
        <time>2019-02-23T12:49:25.000Z</time>
      </trkpt>
      <trkpt lat="43.79643" lon="7.11544">
        <ele>972.40002441406</ele>
        <time>2019-02-23T12:49:28.000Z</time>
      </trkpt>
      <trkpt lat="43.79642" lon="7.11549">
        <ele>972.79998779297</ele>
        <time>2019-02-23T12:49:31.000Z</time>
      </trkpt>
      <trkpt lat="43.79642" lon="7.11554">
        <ele>973.59997558594</ele>
        <time>2019-02-23T12:49:35.000Z</time>
      </trkpt>
      <trkpt lat="43.79643" lon="7.11558">
        <ele>974.20001220703</ele>
        <time>2019-02-23T12:49:37.000Z</time>
      </trkpt>
      <trkpt lat="43.79645" lon="7.1156">
        <ele>974.79998779297</ele>
        <time>2019-02-23T12:49:39.000Z</time>
      </trkpt>
      <trkpt lat="43.79648" lon="7.11567">
        <ele>976.20001220703</ele>
        <time>2019-02-23T12:49:43.000Z</time>
      </trkpt>
      <trkpt lat="43.79648" lon="7.11568">
        <ele>976.40002441406</ele>
        <time>2019-02-23T12:49:44.000Z</time>
      </trkpt>
      <trkpt lat="43.79653" lon="7.11575">
        <ele>976.79998779297</ele>
        <time>2019-02-23T12:49:49.000Z</time>
      </trkpt>
      <trkpt lat="43.79654" lon="7.11577">
        <ele>977.20001220703</ele>
        <time>2019-02-23T12:49:50.000Z</time>
      </trkpt>
      <trkpt lat="43.79658" lon="7.11583">
        <ele>978.40002441406</ele>
        <time>2019-02-23T12:49:54.000Z</time>
      </trkpt>
      <trkpt lat="43.79659" lon="7.11586">
        <ele>978.79998779297</ele>
        <time>2019-02-23T12:49:56.000Z</time>
      </trkpt>
      <trkpt lat="43.7966" lon="7.1159">
        <ele>979.40002441406</ele>
        <time>2019-02-23T12:49:59.000Z</time>
      </trkpt>
      <trkpt lat="43.79661" lon="7.11595">
        <ele>980</ele>
        <time>2019-02-23T12:50:02.000Z</time>
      </trkpt>
      <trkpt lat="43.79664" lon="7.11599">
        <ele>980.59997558594</ele>
        <time>2019-02-23T12:50:05.000Z</time>
      </trkpt>
      <trkpt lat="43.79668" lon="7.11606">
        <ele>981.20001220703</ele>
        <time>2019-02-23T12:50:10.000Z</time>
      </trkpt>
      <trkpt lat="43.7967" lon="7.1161">
        <ele>981.59997558594</ele>
        <time>2019-02-23T12:50:13.000Z</time>
      </trkpt>
      <trkpt lat="43.79671" lon="7.11612">
        <ele>981.79998779297</ele>
        <time>2019-02-23T12:50:14.000Z</time>
      </trkpt>
      <trkpt lat="43.79672" lon="7.11615">
        <ele>982.20001220703</ele>
        <time>2019-02-23T12:50:16.000Z</time>
      </trkpt>
      <trkpt lat="43.79674" lon="7.11616">
        <ele>982.79998779297</ele>
        <time>2019-02-23T12:50:18.000Z</time>
      </trkpt>
      <trkpt lat="43.79678" lon="7.11623">
        <ele>983.40002441406</ele>
        <time>2019-02-23T12:50:23.000Z</time>
      </trkpt>
      <trkpt lat="43.79681" lon="7.11628">
        <ele>984</ele>
        <time>2019-02-23T12:50:27.000Z</time>
      </trkpt>
      <trkpt lat="43.79681" lon="7.11631">
        <ele>984.20001220703</ele>
        <time>2019-02-23T12:50:29.000Z</time>
      </trkpt>
      <trkpt lat="43.79686" lon="7.11641">
        <ele>985</ele>
        <time>2019-02-23T12:50:35.000Z</time>
      </trkpt>
      <trkpt lat="43.7969" lon="7.11648">
        <ele>986.40002441406</ele>
        <time>2019-02-23T12:50:39.000Z</time>
      </trkpt>
      <trkpt lat="43.79692" lon="7.11651">
        <ele>986.79998779297</ele>
        <time>2019-02-23T12:50:41.000Z</time>
      </trkpt>
      <trkpt lat="43.79694" lon="7.11654">
        <ele>987.59997558594</ele>
        <time>2019-02-23T12:50:43.000Z</time>
      </trkpt>
      <trkpt lat="43.79698" lon="7.11662">
        <ele>988.40002441406</ele>
        <time>2019-02-23T12:50:48.000Z</time>
      </trkpt>
      <trkpt lat="43.79701" lon="7.11667">
        <ele>988.59997558594</ele>
        <time>2019-02-23T12:50:51.000Z</time>
      </trkpt>
      <trkpt lat="43.79705" lon="7.11675">
        <ele>989.59997558594</ele>
        <time>2019-02-23T12:50:56.000Z</time>
      </trkpt>
      <trkpt lat="43.79706" lon="7.11676">
        <ele>989.79998779297</ele>
        <time>2019-02-23T12:50:57.000Z</time>
      </trkpt>
      <trkpt lat="43.79709" lon="7.11685">
        <ele>990.40002441406</ele>
        <time>2019-02-23T12:51:04.000Z</time>
      </trkpt>
      <trkpt lat="43.7971" lon="7.11698">
        <ele>990.59997558594</ele>
        <time>2019-02-23T12:51:12.000Z</time>
      </trkpt>
      <trkpt lat="43.79711" lon="7.11715">
        <ele>990.79998779297</ele>
        <time>2019-02-23T12:51:20.000Z</time>
      </trkpt>
      <trkpt lat="43.79712" lon="7.11717">
        <ele>990.79998779297</ele>
        <time>2019-02-23T12:51:21.000Z</time>
      </trkpt>
      <trkpt lat="43.7971" lon="7.11739">
        <ele>991</ele>
        <time>2019-02-23T12:51:30.000Z</time>
      </trkpt>
      <trkpt lat="43.79708" lon="7.11754">
        <ele>991.20001220703</ele>
        <time>2019-02-23T12:51:37.000Z</time>
      </trkpt>
      <trkpt lat="43.79707" lon="7.11768">
        <ele>991.59997558594</ele>
        <time>2019-02-23T12:51:44.000Z</time>
      </trkpt>
      <trkpt lat="43.79703" lon="7.11777">
        <ele>991.79998779297</ele>
        <time>2019-02-23T12:51:48.000Z</time>
      </trkpt>
      <trkpt lat="43.797" lon="7.11781">
        <ele>992.20001220703</ele>
        <time>2019-02-23T12:51:51.000Z</time>
      </trkpt>
      <trkpt lat="43.79691" lon="7.11794">
        <ele>992.79998779297</ele>
        <time>2019-02-23T12:51:58.000Z</time>
      </trkpt>
      <trkpt lat="43.79689" lon="7.11797">
        <ele>992.79998779297</ele>
        <time>2019-02-23T12:52:00.000Z</time>
      </trkpt>
      <trkpt lat="43.79683" lon="7.11806">
        <ele>993.40002441406</ele>
        <time>2019-02-23T12:52:05.000Z</time>
      </trkpt>
      <trkpt lat="43.79682" lon="7.11808">
        <ele>993.40002441406</ele>
        <time>2019-02-23T12:52:06.000Z</time>
      </trkpt>
      <trkpt lat="43.79681" lon="7.11813">
        <ele>994</ele>
        <time>2019-02-23T12:52:08.000Z</time>
      </trkpt>
      <trkpt lat="43.7968" lon="7.1182">
        <ele>994.59997558594</ele>
        <time>2019-02-23T12:52:11.000Z</time>
      </trkpt>
      <trkpt lat="43.7968" lon="7.11823">
        <ele>995.20001220703</ele>
        <time>2019-02-23T12:52:12.000Z</time>
      </trkpt>
      <trkpt lat="43.79681" lon="7.11832">
        <ele>996.20001220703</ele>
        <time>2019-02-23T12:52:16.000Z</time>
      </trkpt>
      <trkpt lat="43.79681" lon="7.11834">
        <ele>996.40002441406</ele>
        <time>2019-02-23T12:52:17.000Z</time>
      </trkpt>
      <trkpt lat="43.79681" lon="7.11845">
        <ele>997.20001220703</ele>
        <time>2019-02-23T12:52:22.000Z</time>
      </trkpt>
      <trkpt lat="43.79681" lon="7.11851">
        <ele>997.40002441406</ele>
        <time>2019-02-23T12:52:25.000Z</time>
      </trkpt>
      <trkpt lat="43.79679" lon="7.1186">
        <ele>998.20001220703</ele>
        <time>2019-02-23T12:52:29.000Z</time>
      </trkpt>
      <trkpt lat="43.79678" lon="7.11865">
        <ele>998.40002441406</ele>
        <time>2019-02-23T12:52:31.000Z</time>
      </trkpt>
      <trkpt lat="43.79673" lon="7.11887">
        <ele>999.20001220703</ele>
        <time>2019-02-23T12:52:40.000Z</time>
      </trkpt>
      <trkpt lat="43.79673" lon="7.11899">
        <ele>1000</ele>
        <time>2019-02-23T12:52:46.000Z</time>
      </trkpt>
      <trkpt lat="43.79673" lon="7.11904">
        <ele>1000.4000244141</ele>
        <time>2019-02-23T12:52:48.000Z</time>
      </trkpt>
      <trkpt lat="43.79671" lon="7.11918">
        <ele>1001.200012207</ele>
        <time>2019-02-23T12:52:54.000Z</time>
      </trkpt>
      <trkpt lat="43.79669" lon="7.11937">
        <ele>1001.200012207</ele>
        <time>2019-02-23T12:53:01.000Z</time>
      </trkpt>
      <trkpt lat="43.79665" lon="7.11946">
        <ele>1001.4000244141</ele>
        <time>2019-02-23T12:53:05.000Z</time>
      </trkpt>
      <trkpt lat="43.79661" lon="7.11957">
        <ele>1002</ele>
        <time>2019-02-23T12:53:10.000Z</time>
      </trkpt>
      <trkpt lat="43.79653" lon="7.1198">
        <ele>1002.200012207</ele>
        <time>2019-02-23T12:53:19.000Z</time>
      </trkpt>
      <trkpt lat="43.7965" lon="7.11988">
        <ele>1002.4000244141</ele>
        <time>2019-02-23T12:53:22.000Z</time>
      </trkpt>
      <trkpt lat="43.79649" lon="7.11996">
        <ele>1002.799987793</ele>
        <time>2019-02-23T12:53:25.000Z</time>
      </trkpt>
      <trkpt lat="43.79646" lon="7.12003">
        <ele>1003.5999755859</ele>
        <time>2019-02-23T12:53:28.000Z</time>
      </trkpt>
      <trkpt lat="43.79642" lon="7.12007">
        <ele>1004</ele>
        <time>2019-02-23T12:53:31.000Z</time>
      </trkpt>
      <trkpt lat="43.79629" lon="7.12012">
        <ele>1004.200012207</ele>
        <time>2019-02-23T12:53:38.000Z</time>
      </trkpt>
      <trkpt lat="43.79621" lon="7.12024">
        <ele>1004.5999755859</ele>
        <time>2019-02-23T12:53:44.000Z</time>
      </trkpt>
      <trkpt lat="43.79617" lon="7.12034">
        <ele>1004.5999755859</ele>
        <time>2019-02-23T12:53:48.000Z</time>
      </trkpt>
      <trkpt lat="43.79611" lon="7.12045">
        <ele>1005.200012207</ele>
        <time>2019-02-23T12:53:53.000Z</time>
      </trkpt>
      <trkpt lat="43.79606" lon="7.12054">
        <ele>1005.5999755859</ele>
        <time>2019-02-23T12:53:57.000Z</time>
      </trkpt>
      <trkpt lat="43.79605" lon="7.12058">
        <ele>1005.799987793</ele>
        <time>2019-02-23T12:53:59.000Z</time>
      </trkpt>
      <trkpt lat="43.79605" lon="7.12063">
        <ele>1006.200012207</ele>
        <time>2019-02-23T12:54:01.000Z</time>
      </trkpt>
      <trkpt lat="43.79603" lon="7.1207">
        <ele>1006.799987793</ele>
        <time>2019-02-23T12:54:04.000Z</time>
      </trkpt>
      <trkpt lat="43.79602" lon="7.12079">
        <ele>1007.4000244141</ele>
        <time>2019-02-23T12:54:08.000Z</time>
      </trkpt>
      <trkpt lat="43.796" lon="7.12091">
        <ele>1007.799987793</ele>
        <time>2019-02-23T12:54:14.000Z</time>
      </trkpt>
      <trkpt lat="43.796" lon="7.12093">
        <ele>1008</ele>
        <time>2019-02-23T12:54:15.000Z</time>
      </trkpt>
      <trkpt lat="43.79597" lon="7.12105">
        <ele>1008.799987793</ele>
        <time>2019-02-23T12:54:21.000Z</time>
      </trkpt>
      <trkpt lat="43.79596" lon="7.12107">
        <ele>1009</ele>
        <time>2019-02-23T12:54:22.000Z</time>
      </trkpt>
      <trkpt lat="43.79592" lon="7.1212">
        <ele>1009.4000244141</ele>
        <time>2019-02-23T12:54:28.000Z</time>
      </trkpt>
      <trkpt lat="43.79588" lon="7.1213">
        <ele>1010</ele>
        <time>2019-02-23T12:54:33.000Z</time>
      </trkpt>
      <trkpt lat="43.79587" lon="7.12132">
        <ele>1010.200012207</ele>
        <time>2019-02-23T12:54:34.000Z</time>
      </trkpt>
      <trkpt lat="43.79576" lon="7.12153">
        <ele>1010.4000244141</ele>
        <time>2019-02-23T12:54:43.000Z</time>
      </trkpt>
      <trkpt lat="43.7957" lon="7.12165">
        <ele>1011.200012207</ele>
        <time>2019-02-23T12:54:48.000Z</time>
      </trkpt>
      <trkpt lat="43.79567" lon="7.12171">
        <ele>1011.799987793</ele>
        <time>2019-02-23T12:54:51.000Z</time>
      </trkpt>
      <trkpt lat="43.79565" lon="7.12175">
        <ele>1012.200012207</ele>
        <time>2019-02-23T12:54:53.000Z</time>
      </trkpt>
      <trkpt lat="43.79563" lon="7.12181">
        <ele>1012.799987793</ele>
        <time>2019-02-23T12:54:57.000Z</time>
      </trkpt>
      <trkpt lat="43.79562" lon="7.12184">
        <ele>1013.200012207</ele>
        <time>2019-02-23T12:54:59.000Z</time>
      </trkpt>
      <trkpt lat="43.79558" lon="7.12199">
        <ele>1014.4000244141</ele>
        <time>2019-02-23T12:55:06.000Z</time>
      </trkpt>
      <trkpt lat="43.79557" lon="7.12211">
        <ele>1015.4000244141</ele>
        <time>2019-02-23T12:55:11.000Z</time>
      </trkpt>
      <trkpt lat="43.79558" lon="7.12217">
        <ele>1015.5999755859</ele>
        <time>2019-02-23T12:55:14.000Z</time>
      </trkpt>
      <trkpt lat="43.79563" lon="7.12232">
        <ele>1016</ele>
        <time>2019-02-23T12:55:21.000Z</time>
      </trkpt>
      <trkpt lat="43.79566" lon="7.12238">
        <ele>1016.4000244141</ele>
        <time>2019-02-23T12:55:24.000Z</time>
      </trkpt>
      <trkpt lat="43.79572" lon="7.12248">
        <ele>1017.200012207</ele>
        <time>2019-02-23T12:55:29.000Z</time>
      </trkpt>
      <trkpt lat="43.79576" lon="7.12259">
        <ele>1017.4000244141</ele>
        <time>2019-02-23T12:55:34.000Z</time>
      </trkpt>
      <trkpt lat="43.79579" lon="7.12266">
        <ele>1017.799987793</ele>
        <time>2019-02-23T12:55:37.000Z</time>
      </trkpt>
      <trkpt lat="43.7958" lon="7.12282">
        <ele>1018.200012207</ele>
        <time>2019-02-23T12:55:43.000Z</time>
      </trkpt>
      <trkpt lat="43.79579" lon="7.12294">
        <ele>1018</ele>
        <time>2019-02-23T12:55:48.000Z</time>
      </trkpt>
      <trkpt lat="43.79575" lon="7.1231">
        <ele>1018.5999755859</ele>
        <time>2019-02-23T12:55:55.000Z</time>
      </trkpt>
      <trkpt lat="43.79572" lon="7.12321">
        <ele>1019</ele>
        <time>2019-02-23T12:56:00.000Z</time>
      </trkpt>
      <trkpt lat="43.79569" lon="7.12329">
        <ele>1019.5999755859</ele>
        <time>2019-02-23T12:56:04.000Z</time>
      </trkpt>
      <trkpt lat="43.79568" lon="7.12338">
        <ele>1020.200012207</ele>
        <time>2019-02-23T12:56:07.000Z</time>
      </trkpt>
      <trkpt lat="43.79564" lon="7.12353">
        <ele>1020.799987793</ele>
        <time>2019-02-23T12:56:13.000Z</time>
      </trkpt>
      <trkpt lat="43.79563" lon="7.12354">
        <ele>1020.799987793</ele>
        <time>2019-02-23T12:56:14.000Z</time>
      </trkpt>
      <trkpt lat="43.79562" lon="7.12372">
        <ele>1021.200012207</ele>
        <time>2019-02-23T12:56:22.000Z</time>
      </trkpt>
      <trkpt lat="43.79564" lon="7.12392">
        <ele>1021</ele>
        <time>2019-02-23T12:56:29.000Z</time>
      </trkpt>
      <trkpt lat="43.79564" lon="7.12413">
        <ele>1020.799987793</ele>
        <time>2019-02-23T12:56:34.000Z</time>
      </trkpt>
      <trkpt lat="43.79556" lon="7.12431">
        <ele>1019.5999755859</ele>
        <time>2019-02-23T12:56:38.000Z</time>
      </trkpt>
      <trkpt lat="43.79547" lon="7.12437">
        <ele>1018.4000244141</ele>
        <time>2019-02-23T12:56:41.000Z</time>
      </trkpt>
      <trkpt lat="43.79543" lon="7.12438">
        <ele>1018.200012207</ele>
        <time>2019-02-23T12:56:42.000Z</time>
      </trkpt>
      <trkpt lat="43.79532" lon="7.12446">
        <ele>1017.200012207</ele>
        <time>2019-02-23T12:56:46.000Z</time>
      </trkpt>
      <trkpt lat="43.7953" lon="7.1245">
        <ele>1017</ele>
        <time>2019-02-23T12:56:47.000Z</time>
      </trkpt>
      <trkpt lat="43.79525" lon="7.12461">
        <ele>1016.4000244141</ele>
        <time>2019-02-23T12:56:49.000Z</time>
      </trkpt>
      <trkpt lat="43.79524" lon="7.12467">
        <ele>1016</ele>
        <time>2019-02-23T12:56:50.000Z</time>
      </trkpt>
      <trkpt lat="43.79521" lon="7.12477">
        <ele>1016</ele>
        <time>2019-02-23T12:56:52.000Z</time>
      </trkpt>
      <trkpt lat="43.79512" lon="7.12503">
        <ele>1015.200012207</ele>
        <time>2019-02-23T12:56:58.000Z</time>
      </trkpt>
      <trkpt lat="43.79511" lon="7.12506">
        <ele>1015</ele>
        <time>2019-02-23T12:56:59.000Z</time>
      </trkpt>
      <trkpt lat="43.79507" lon="7.12514">
        <ele>1014.5999755859</ele>
        <time>2019-02-23T12:57:02.000Z</time>
      </trkpt>
      <trkpt lat="43.79496" lon="7.12537">
        <ele>1015.799987793</ele>
        <time>2019-02-23T12:57:10.000Z</time>
      </trkpt>
      <trkpt lat="43.79495" lon="7.12539">
        <ele>1016</ele>
        <time>2019-02-23T12:57:11.000Z</time>
      </trkpt>
      <trkpt lat="43.79491" lon="7.12548">
        <ele>1017.200012207</ele>
        <time>2019-02-23T12:57:15.000Z</time>
      </trkpt>
      <trkpt lat="43.79491" lon="7.1255">
        <ele>1017.5999755859</ele>
        <time>2019-02-23T12:57:16.000Z</time>
      </trkpt>
      <trkpt lat="43.79489" lon="7.12557">
        <ele>1018.4000244141</ele>
        <time>2019-02-23T12:57:19.000Z</time>
      </trkpt>
      <trkpt lat="43.79489" lon="7.12567">
        <ele>1019.5999755859</ele>
        <time>2019-02-23T12:57:23.000Z</time>
      </trkpt>
      <trkpt lat="43.79489" lon="7.12574">
        <ele>1020.799987793</ele>
        <time>2019-02-23T12:57:26.000Z</time>
      </trkpt>
      <trkpt lat="43.79489" lon="7.12583">
        <ele>1021.799987793</ele>
        <time>2019-02-23T12:57:30.000Z</time>
      </trkpt>
      <trkpt lat="43.79483" lon="7.12596">
        <ele>1022.5999755859</ele>
        <time>2019-02-23T12:57:36.000Z</time>
      </trkpt>
      <trkpt lat="43.7948" lon="7.12598">
        <ele>1023</ele>
        <time>2019-02-23T12:57:38.000Z</time>
      </trkpt>
      <trkpt lat="43.79473" lon="7.12601">
        <ele>1023.799987793</ele>
        <time>2019-02-23T12:57:42.000Z</time>
      </trkpt>
      <trkpt lat="43.7947" lon="7.12602">
        <ele>1024.1999511719</ele>
        <time>2019-02-23T12:57:44.000Z</time>
      </trkpt>
      <trkpt lat="43.79463" lon="7.12602">
        <ele>1024.5999755859</ele>
        <time>2019-02-23T12:57:48.000Z</time>
      </trkpt>
      <trkpt lat="43.79457" lon="7.12603">
        <ele>1025.1999511719</ele>
        <time>2019-02-23T12:57:52.000Z</time>
      </trkpt>
      <trkpt lat="43.79452" lon="7.12606">
        <ele>1025.8000488281</ele>
        <time>2019-02-23T12:57:56.000Z</time>
      </trkpt>
      <trkpt lat="43.79445" lon="7.12614">
        <ele>1026.1999511719</ele>
        <time>2019-02-23T12:58:01.000Z</time>
      </trkpt>
      <trkpt lat="43.79443" lon="7.12617">
        <ele>1026.4000244141</ele>
        <time>2019-02-23T12:58:03.000Z</time>
      </trkpt>
      <trkpt lat="43.79431" lon="7.12624">
        <ele>1026.1999511719</ele>
        <time>2019-02-23T12:58:09.000Z</time>
      </trkpt>
      <trkpt lat="43.79413" lon="7.12631">
        <ele>1026.1999511719</ele>
        <time>2019-02-23T12:58:17.000Z</time>
      </trkpt>
      <trkpt lat="43.79401" lon="7.12637">
        <ele>1026.4000244141</ele>
        <time>2019-02-23T12:58:23.000Z</time>
      </trkpt>
      <trkpt lat="43.7939" lon="7.12644">
        <ele>1027.4000244141</ele>
        <time>2019-02-23T12:58:29.000Z</time>
      </trkpt>
      <trkpt lat="43.79379" lon="7.12656">
        <ele>1028.4000244141</ele>
        <time>2019-02-23T12:58:36.000Z</time>
      </trkpt>
      <trkpt lat="43.79373" lon="7.12671">
        <ele>1029.5999755859</ele>
        <time>2019-02-23T12:58:42.000Z</time>
      </trkpt>
      <trkpt lat="43.79367" lon="7.12682">
        <ele>1030.4000244141</ele>
        <time>2019-02-23T12:58:48.000Z</time>
      </trkpt>
      <trkpt lat="43.79366" lon="7.12683">
        <ele>1030.5999755859</ele>
        <time>2019-02-23T12:58:49.000Z</time>
      </trkpt>
      <trkpt lat="43.79359" lon="7.12698">
        <ele>1031.1999511719</ele>
        <time>2019-02-23T12:58:56.000Z</time>
      </trkpt>
      <trkpt lat="43.79355" lon="7.12709">
        <ele>1031.8000488281</ele>
        <time>2019-02-23T12:59:02.000Z</time>
      </trkpt>
      <trkpt lat="43.79348" lon="7.12715">
        <ele>1031.8000488281</ele>
        <time>2019-02-23T12:59:09.000Z</time>
      </trkpt>
      <trkpt lat="43.79348" lon="7.12715">
        <ele>1031.8000488281</ele>
        <time>2019-02-23T12:59:22.000Z</time>
      </trkpt>
      <trkpt lat="43.79348" lon="7.12716">
        <ele>1031.5999755859</ele>
        <time>2019-02-23T12:59:34.000Z</time>
      </trkpt>
      <trkpt lat="43.79349" lon="7.12716">
        <ele>1031.8000488281</ele>
        <time>2019-02-23T12:59:51.000Z</time>
      </trkpt>
      <trkpt lat="43.79349" lon="7.12717">
        <ele>1031.5999755859</ele>
        <time>2019-02-23T13:00:10.000Z</time>
      </trkpt>
      <trkpt lat="43.79349" lon="7.12718">
        <ele>1031.8000488281</ele>
        <time>2019-02-23T13:00:23.000Z</time>
      </trkpt>
      <trkpt lat="43.79349" lon="7.12719">
        <ele>1031.8000488281</ele>
        <time>2019-02-23T13:00:52.000Z</time>
      </trkpt>
      <trkpt lat="43.79349" lon="7.12719">
        <ele>1032</ele>
        <time>2019-02-23T13:01:01.000Z</time>
      </trkpt>
      <trkpt lat="43.79347" lon="7.12718">
        <ele>1031.5999755859</ele>
        <time>2019-02-23T13:01:04.000Z</time>
      </trkpt>
      <trkpt lat="43.79348" lon="7.12719">
        <ele>1031.5999755859</ele>
        <time>2019-02-23T13:01:05.000Z</time>
      </trkpt>
      <trkpt lat="43.79348" lon="7.12719">
        <ele>1031.1999511719</ele>
        <time>2019-02-23T13:01:18.000Z</time>
      </trkpt>
      <trkpt lat="43.79347" lon="7.1272">
        <ele>1031.5999755859</ele>
        <time>2019-02-23T13:01:38.000Z</time>
      </trkpt>
      <trkpt lat="43.79347" lon="7.1272">
        <ele>1031.8000488281</ele>
        <time>2019-02-23T13:01:49.000Z</time>
      </trkpt>
      <trkpt lat="43.79347" lon="7.1272">
        <ele>1031.5999755859</ele>
        <time>2019-02-23T13:01:55.000Z</time>
      </trkpt>
      <trkpt lat="43.79347" lon="7.12721">
        <ele>1031.4000244141</ele>
        <time>2019-02-23T13:02:11.000Z</time>
      </trkpt>
      <trkpt lat="43.79346" lon="7.12721">
        <ele>1031.4000244141</ele>
        <time>2019-02-23T13:02:26.000Z</time>
      </trkpt>
      <trkpt lat="43.79346" lon="7.12723">
        <ele>1031.4000244141</ele>
        <time>2019-02-23T13:03:01.000Z</time>
      </trkpt>
      <trkpt lat="43.79346" lon="7.12724">
        <ele>1031.4000244141</ele>
        <time>2019-02-23T13:03:21.000Z</time>
      </trkpt>
      <trkpt lat="43.79347" lon="7.12723">
        <ele>1031.5999755859</ele>
        <time>2019-02-23T13:03:43.000Z</time>
      </trkpt>
      <trkpt lat="43.79347" lon="7.12722">
        <ele>1031.4000244141</ele>
        <time>2019-02-23T13:03:59.000Z</time>
      </trkpt>
      <trkpt lat="43.79347" lon="7.12723">
        <ele>1031.4000244141</ele>
        <time>2019-02-23T13:04:16.000Z</time>
      </trkpt>
      <trkpt lat="43.79347" lon="7.12723">
        <ele>1031.4000244141</ele>
        <time>2019-02-23T13:04:46.000Z</time>
      </trkpt>
      <trkpt lat="43.79347" lon="7.12723">
        <ele>1030.8000488281</ele>
        <time>2019-02-23T13:05:07.000Z</time>
      </trkpt>
      <trkpt lat="43.79347" lon="7.12721">
        <ele>1031.5999755859</ele>
        <time>2019-02-23T13:05:21.000Z</time>
      </trkpt>
      <trkpt lat="43.79348" lon="7.1272">
        <ele>1031.5999755859</ele>
        <time>2019-02-23T13:05:37.000Z</time>
      </trkpt>
      <trkpt lat="43.79348" lon="7.12719">
        <ele>1031.4000244141</ele>
        <time>2019-02-23T13:05:49.000Z</time>
      </trkpt>
      <trkpt lat="43.79348" lon="7.12719">
        <ele>1031.8000488281</ele>
        <time>2019-02-23T13:05:52.000Z</time>
      </trkpt>
      <trkpt lat="43.79349" lon="7.1272">
        <ele>1032.1999511719</ele>
        <time>2019-02-23T13:06:05.000Z</time>
      </trkpt>
      <trkpt lat="43.79349" lon="7.1272">
        <ele>1031.5999755859</ele>
        <time>2019-02-23T13:06:12.000Z</time>
      </trkpt>
      <trkpt lat="43.79349" lon="7.12721">
        <ele>1031.8000488281</ele>
        <time>2019-02-23T13:06:27.000Z</time>
      </trkpt>
      <trkpt lat="43.79349" lon="7.12721">
        <ele>1031.8000488281</ele>
        <time>2019-02-23T13:06:41.000Z</time>
      </trkpt>
      <trkpt lat="43.79348" lon="7.12723">
        <ele>1031.8000488281</ele>
        <time>2019-02-23T13:06:58.000Z</time>
      </trkpt>
      <trkpt lat="43.79348" lon="7.12723">
        <ele>1031.8000488281</ele>
        <time>2019-02-23T13:07:15.000Z</time>
      </trkpt>
      <trkpt lat="43.79348" lon="7.12724">
        <ele>1032</ele>
        <time>2019-02-23T13:07:49.000Z</time>
      </trkpt>
      <trkpt lat="43.79349" lon="7.12723">
        <ele>1031.8000488281</ele>
        <time>2019-02-23T13:07:58.000Z</time>
      </trkpt>
      <trkpt lat="43.79349" lon="7.12721">
        <ele>1032.5999755859</ele>
        <time>2019-02-23T13:08:07.000Z</time>
      </trkpt>
      <trkpt lat="43.7935" lon="7.12722">
        <ele>1031.8000488281</ele>
        <time>2019-02-23T13:08:13.000Z</time>
      </trkpt>
      <trkpt lat="43.79352" lon="7.12721">
        <ele>1032.1999511719</ele>
        <time>2019-02-23T13:08:25.000Z</time>
      </trkpt>
      <trkpt lat="43.79353" lon="7.12721">
        <ele>1032</ele>
        <time>2019-02-23T13:08:39.000Z</time>
      </trkpt>
      <trkpt lat="43.79353" lon="7.1272">
        <ele>1031.8000488281</ele>
        <time>2019-02-23T13:08:51.000Z</time>
      </trkpt>
      <trkpt lat="43.79353" lon="7.12719">
        <ele>1031.5999755859</ele>
        <time>2019-02-23T13:09:02.000Z</time>
      </trkpt>
      <trkpt lat="43.79353" lon="7.12719">
        <ele>1032</ele>
        <time>2019-02-23T13:09:15.000Z</time>
      </trkpt>
      <trkpt lat="43.79354" lon="7.12718">
        <ele>1032.1999511719</ele>
        <time>2019-02-23T13:09:35.000Z</time>
      </trkpt>
      <trkpt lat="43.79354" lon="7.12717">
        <ele>1032.4000244141</ele>
        <time>2019-02-23T13:09:53.000Z</time>
      </trkpt>
      <trkpt lat="43.79354" lon="7.12717">
        <ele>1032.4000244141</ele>
        <time>2019-02-23T13:10:14.000Z</time>
      </trkpt>
      <trkpt lat="43.79353" lon="7.12715">
        <ele>1032.4000244141</ele>
        <time>2019-02-23T13:10:34.000Z</time>
      </trkpt>
      <trkpt lat="43.79353" lon="7.12715">
        <ele>1032.8000488281</ele>
        <time>2019-02-23T13:10:43.000Z</time>
      </trkpt>
      <trkpt lat="43.79354" lon="7.12715">
        <ele>1032.4000244141</ele>
        <time>2019-02-23T13:10:52.000Z</time>
      </trkpt>
      <trkpt lat="43.79353" lon="7.12715">
        <ele>1032.4000244141</ele>
        <time>2019-02-23T13:10:58.000Z</time>
      </trkpt>
      <trkpt lat="43.79354" lon="7.12715">
        <ele>1033</ele>
        <time>2019-02-23T13:11:02.000Z</time>
      </trkpt>
      <trkpt lat="43.79353" lon="7.12715">
        <ele>1033</ele>
        <time>2019-02-23T13:11:09.000Z</time>
      </trkpt>
      <trkpt lat="43.79354" lon="7.12715">
        <ele>1032.4000244141</ele>
        <time>2019-02-23T13:11:15.000Z</time>
      </trkpt>
      <trkpt lat="43.79353" lon="7.12715">
        <ele>1032.4000244141</ele>
        <time>2019-02-23T13:11:32.000Z</time>
      </trkpt>
      <trkpt lat="43.79353" lon="7.12714">
        <ele>1032.4000244141</ele>
        <time>2019-02-23T13:11:48.000Z</time>
      </trkpt>
      <trkpt lat="43.79353" lon="7.12714">
        <ele>1032.5999755859</ele>
        <time>2019-02-23T13:12:02.000Z</time>
      </trkpt>
      <trkpt lat="43.79352" lon="7.12714">
        <ele>1032.4000244141</ele>
        <time>2019-02-23T13:12:10.000Z</time>
      </trkpt>
      <trkpt lat="43.79352" lon="7.12714">
        <ele>1032</ele>
        <time>2019-02-23T13:12:15.000Z</time>
      </trkpt>
      <trkpt lat="43.79352" lon="7.12714">
        <ele>1032.5999755859</ele>
        <time>2019-02-23T13:12:23.000Z</time>
      </trkpt>
      <trkpt lat="43.79351" lon="7.12714">
        <ele>1033</ele>
        <time>2019-02-23T13:12:34.000Z</time>
      </trkpt>
      <trkpt lat="43.79351" lon="7.12714">
        <ele>1032.4000244141</ele>
        <time>2019-02-23T13:12:48.000Z</time>
      </trkpt>
      <trkpt lat="43.79349" lon="7.12714">
        <ele>1032.5999755859</ele>
        <time>2019-02-23T13:12:57.000Z</time>
      </trkpt>
      <trkpt lat="43.79349" lon="7.12715">
        <ele>1032.5999755859</ele>
        <time>2019-02-23T13:13:03.000Z</time>
      </trkpt>
      <trkpt lat="43.79351" lon="7.12715">
        <ele>1032.8000488281</ele>
        <time>2019-02-23T13:13:10.000Z</time>
      </trkpt>
      <trkpt lat="43.79353" lon="7.12714">
        <ele>1032.5999755859</ele>
        <time>2019-02-23T13:13:19.000Z</time>
      </trkpt>
      <trkpt lat="43.79358" lon="7.12708">
        <ele>1032.8000488281</ele>
        <time>2019-02-23T13:13:24.000Z</time>
      </trkpt>
      <trkpt lat="43.79363" lon="7.12694">
        <ele>1032.5999755859</ele>
        <time>2019-02-23T13:13:29.000Z</time>
      </trkpt>
      <trkpt lat="43.79374" lon="7.12673">
        <ele>1032</ele>
        <time>2019-02-23T13:13:36.000Z</time>
      </trkpt>
      <trkpt lat="43.79382" lon="7.12658">
        <ele>1030.8000488281</ele>
        <time>2019-02-23T13:13:41.000Z</time>
      </trkpt>
      <trkpt lat="43.79388" lon="7.1265">
        <ele>1030.1999511719</ele>
        <time>2019-02-23T13:13:44.000Z</time>
      </trkpt>
      <trkpt lat="43.79394" lon="7.12646">
        <ele>1029.8000488281</ele>
        <time>2019-02-23T13:13:46.000Z</time>
      </trkpt>
      <trkpt lat="43.79407" lon="7.12639">
        <ele>1028.8000488281</ele>
        <time>2019-02-23T13:13:51.000Z</time>
      </trkpt>
      <trkpt lat="43.79415" lon="7.12635">
        <ele>1027.8000488281</ele>
        <time>2019-02-23T13:13:54.000Z</time>
      </trkpt>
      <trkpt lat="43.79426" lon="7.12631">
        <ele>1027</ele>
        <time>2019-02-23T13:13:59.000Z</time>
      </trkpt>
      <trkpt lat="43.7944" lon="7.12626">
        <ele>1027</ele>
        <time>2019-02-23T13:14:06.000Z</time>
      </trkpt>
      <trkpt lat="43.79452" lon="7.12615">
        <ele>1027.1999511719</ele>
        <time>2019-02-23T13:14:13.000Z</time>
      </trkpt>
      <trkpt lat="43.79466" lon="7.1261">
        <ele>1027</ele>
        <time>2019-02-23T13:14:18.000Z</time>
      </trkpt>
      <trkpt lat="43.79469" lon="7.1261">
        <ele>1026.8000488281</ele>
        <time>2019-02-23T13:14:19.000Z</time>
      </trkpt>
      <trkpt lat="43.79484" lon="7.12608">
        <ele>1025.8000488281</ele>
        <time>2019-02-23T13:14:24.000Z</time>
      </trkpt>
      <trkpt lat="43.79487" lon="7.12607">
        <ele>1025.5999755859</ele>
        <time>2019-02-23T13:14:25.000Z</time>
      </trkpt>
      <trkpt lat="43.79493" lon="7.126">
        <ele>1024.5999755859</ele>
        <time>2019-02-23T13:14:28.000Z</time>
      </trkpt>
      <trkpt lat="43.79495" lon="7.12597">
        <ele>1024.4000244141</ele>
        <time>2019-02-23T13:14:29.000Z</time>
      </trkpt>
      <trkpt lat="43.79498" lon="7.12584">
        <ele>1023.200012207</ele>
        <time>2019-02-23T13:14:34.000Z</time>
      </trkpt>
      <trkpt lat="43.79498" lon="7.12564">
        <ele>1022.200012207</ele>
        <time>2019-02-23T13:14:40.000Z</time>
      </trkpt>
      <trkpt lat="43.79498" lon="7.1256">
        <ele>1021.799987793</ele>
        <time>2019-02-23T13:14:41.000Z</time>
      </trkpt>
      <trkpt lat="43.795" lon="7.12553">
        <ele>1020.799987793</ele>
        <time>2019-02-23T13:14:43.000Z</time>
      </trkpt>
      <trkpt lat="43.79502" lon="7.12548">
        <ele>1019.799987793</ele>
        <time>2019-02-23T13:14:45.000Z</time>
      </trkpt>
      <trkpt lat="43.79504" lon="7.12545">
        <ele>1019.200012207</ele>
        <time>2019-02-23T13:14:46.000Z</time>
      </trkpt>
      <trkpt lat="43.79507" lon="7.12539">
        <ele>1017.799987793</ele>
        <time>2019-02-23T13:14:48.000Z</time>
      </trkpt>
      <trkpt lat="43.79514" lon="7.12526">
        <ele>1016.5999755859</ele>
        <time>2019-02-23T13:14:52.000Z</time>
      </trkpt>
      <trkpt lat="43.79525" lon="7.125">
        <ele>1015.799987793</ele>
        <time>2019-02-23T13:14:58.000Z</time>
      </trkpt>
      <trkpt lat="43.79527" lon="7.12494">
        <ele>1015.5999755859</ele>
        <time>2019-02-23T13:15:00.000Z</time>
      </trkpt>
      <trkpt lat="43.79529" lon="7.1249">
        <ele>1015.5999755859</ele>
        <time>2019-02-23T13:15:02.000Z</time>
      </trkpt>
      <trkpt lat="43.79534" lon="7.12474">
        <ele>1015.799987793</ele>
        <time>2019-02-23T13:15:08.000Z</time>
      </trkpt>
      <trkpt lat="43.79542" lon="7.12455">
        <ele>1016.200012207</ele>
        <time>2019-02-23T13:15:15.000Z</time>
      </trkpt>
      <trkpt lat="43.79546" lon="7.12453">
        <ele>1016.5999755859</ele>
        <time>2019-02-23T13:15:17.000Z</time>
      </trkpt>
      <trkpt lat="43.79551" lon="7.12451">
        <ele>1017.200012207</ele>
        <time>2019-02-23T13:15:20.000Z</time>
      </trkpt>
      <trkpt lat="43.79556" lon="7.12449">
        <ele>1017.5999755859</ele>
        <time>2019-02-23T13:15:23.000Z</time>
      </trkpt>
      <trkpt lat="43.79564" lon="7.12443">
        <ele>1018.4000244141</ele>
        <time>2019-02-23T13:15:28.000Z</time>
      </trkpt>
      <trkpt lat="43.79568" lon="7.12439">
        <ele>1018.5999755859</ele>
        <time>2019-02-23T13:15:30.000Z</time>
      </trkpt>
      <trkpt lat="43.79572" lon="7.1243">
        <ele>1019.200012207</ele>
        <time>2019-02-23T13:15:34.000Z</time>
      </trkpt>
      <trkpt lat="43.79572" lon="7.12425">
        <ele>1019.5999755859</ele>
        <time>2019-02-23T13:15:36.000Z</time>
      </trkpt>
      <trkpt lat="43.79572" lon="7.12409">
        <ele>1020.799987793</ele>
        <time>2019-02-23T13:15:42.000Z</time>
      </trkpt>
      <trkpt lat="43.7957" lon="7.12392">
        <ele>1021.799987793</ele>
        <time>2019-02-23T13:15:48.000Z</time>
      </trkpt>
      <trkpt lat="43.7957" lon="7.12389">
        <ele>1022</ele>
        <time>2019-02-23T13:15:49.000Z</time>
      </trkpt>
      <trkpt lat="43.79571" lon="7.12366">
        <ele>1022.4000244141</ele>
        <time>2019-02-23T13:15:57.000Z</time>
      </trkpt>
      <trkpt lat="43.79573" lon="7.12352">
        <ele>1022</ele>
        <time>2019-02-23T13:16:02.000Z</time>
      </trkpt>
      <trkpt lat="43.79581" lon="7.12332">
        <ele>1021.200012207</ele>
        <time>2019-02-23T13:16:08.000Z</time>
      </trkpt>
      <trkpt lat="43.79583" lon="7.12324">
        <ele>1020.799987793</ele>
        <time>2019-02-23T13:16:10.000Z</time>
      </trkpt>
      <trkpt lat="43.79588" lon="7.12307">
        <ele>1020</ele>
        <time>2019-02-23T13:16:15.000Z</time>
      </trkpt>
      <trkpt lat="43.79589" lon="7.12302">
        <ele>1019.5999755859</ele>
        <time>2019-02-23T13:16:17.000Z</time>
      </trkpt>
      <trkpt lat="43.7959" lon="7.12298">
        <ele>1019.4000244141</ele>
        <time>2019-02-23T13:16:19.000Z</time>
      </trkpt>
      <trkpt lat="43.7959" lon="7.12295">
        <ele>1019.5999755859</ele>
        <time>2019-02-23T13:16:20.000Z</time>
      </trkpt>
      <trkpt lat="43.79587" lon="7.12284">
        <ele>1019.5999755859</ele>
        <time>2019-02-23T13:16:24.000Z</time>
      </trkpt>
      <trkpt lat="43.79585" lon="7.12278">
        <ele>1019.5999755859</ele>
        <time>2019-02-23T13:16:26.000Z</time>
      </trkpt>
      <trkpt lat="43.79577" lon="7.12258">
        <ele>1019.200012207</ele>
        <time>2019-02-23T13:16:33.000Z</time>
      </trkpt>
      <trkpt lat="43.79568" lon="7.12239">
        <ele>1018.5999755859</ele>
        <time>2019-02-23T13:16:38.000Z</time>
      </trkpt>
      <trkpt lat="43.79566" lon="7.12231">
        <ele>1018.4000244141</ele>
        <time>2019-02-23T13:16:40.000Z</time>
      </trkpt>
      <trkpt lat="43.79565" lon="7.12215">
        <ele>1017.4000244141</ele>
        <time>2019-02-23T13:16:44.000Z</time>
      </trkpt>
      <trkpt lat="43.79566" lon="7.12206">
        <ele>1017</ele>
        <time>2019-02-23T13:16:46.000Z</time>
      </trkpt>
      <trkpt lat="43.79568" lon="7.12198">
        <ele>1016.4000244141</ele>
        <time>2019-02-23T13:16:48.000Z</time>
      </trkpt>
      <trkpt lat="43.79573" lon="7.12187">
        <ele>1016</ele>
        <time>2019-02-23T13:16:51.000Z</time>
      </trkpt>
      <trkpt lat="43.79581" lon="7.12172">
        <ele>1014.799987793</ele>
        <time>2019-02-23T13:16:55.000Z</time>
      </trkpt>
      <trkpt lat="43.79585" lon="7.12164">
        <ele>1014</ele>
        <time>2019-02-23T13:16:57.000Z</time>
      </trkpt>
      <trkpt lat="43.79587" lon="7.1216">
        <ele>1013.5999755859</ele>
        <time>2019-02-23T13:16:58.000Z</time>
      </trkpt>
      <trkpt lat="43.79598" lon="7.12134">
        <ele>1012.5999755859</ele>
        <time>2019-02-23T13:17:04.000Z</time>
      </trkpt>
      <trkpt lat="43.79601" lon="7.12126">
        <ele>1012.200012207</ele>
        <time>2019-02-23T13:17:06.000Z</time>
      </trkpt>
      <trkpt lat="43.79605" lon="7.12112">
        <ele>1011.4000244141</ele>
        <time>2019-02-23T13:17:09.000Z</time>
      </trkpt>
      <trkpt lat="43.79609" lon="7.12092">
        <ele>1011</ele>
        <time>2019-02-23T13:17:13.000Z</time>
      </trkpt>
      <trkpt lat="43.7961" lon="7.12072">
        <ele>1010.200012207</ele>
        <time>2019-02-23T13:17:17.000Z</time>
      </trkpt>
      <trkpt lat="43.79611" lon="7.12067">
        <ele>1009.5999755859</ele>
        <time>2019-02-23T13:17:18.000Z</time>
      </trkpt>
      <trkpt lat="43.79611" lon="7.12063">
        <ele>1009.200012207</ele>
        <time>2019-02-23T13:17:19.000Z</time>
      </trkpt>
      <trkpt lat="43.79618" lon="7.12047">
        <ele>1008.4000244141</ele>
        <time>2019-02-23T13:17:23.000Z</time>
      </trkpt>
      <trkpt lat="43.79622" lon="7.12042">
        <ele>1008</ele>
        <time>2019-02-23T13:17:25.000Z</time>
      </trkpt>
      <trkpt lat="43.79626" lon="7.12035">
        <ele>1006.799987793</ele>
        <time>2019-02-23T13:17:28.000Z</time>
      </trkpt>
      <trkpt lat="43.79631" lon="7.12026">
        <ele>1006.5999755859</ele>
        <time>2019-02-23T13:17:34.000Z</time>
      </trkpt>
      <trkpt lat="43.79631" lon="7.12025">
        <ele>1006.4000244141</ele>
        <time>2019-02-23T13:17:41.000Z</time>
      </trkpt>
      <trkpt lat="43.79631" lon="7.12023">
        <ele>1006</ele>
        <time>2019-02-23T13:18:03.000Z</time>
      </trkpt>
      <trkpt lat="43.79631" lon="7.12022">
        <ele>1006</ele>
        <time>2019-02-23T13:18:16.000Z</time>
      </trkpt>
      <trkpt lat="43.79635" lon="7.12018">
        <ele>1005.799987793</ele>
        <time>2019-02-23T13:18:20.000Z</time>
      </trkpt>
      <trkpt lat="43.79637" lon="7.12018">
        <ele>1005.799987793</ele>
        <time>2019-02-23T13:18:24.000Z</time>
      </trkpt>
      <trkpt lat="43.79646" lon="7.12016">
        <ele>1006</ele>
        <time>2019-02-23T13:18:30.000Z</time>
      </trkpt>
      <trkpt lat="43.79654" lon="7.12008">
        <ele>1006</ele>
        <time>2019-02-23T13:18:35.000Z</time>
      </trkpt>
      <trkpt lat="43.7966" lon="7.11991">
        <ele>1005.799987793</ele>
        <time>2019-02-23T13:18:40.000Z</time>
      </trkpt>
      <trkpt lat="43.79669" lon="7.11969">
        <ele>1004.4000244141</ele>
        <time>2019-02-23T13:18:45.000Z</time>
      </trkpt>
      <trkpt lat="43.79678" lon="7.11945">
        <ele>1004.200012207</ele>
        <time>2019-02-23T13:18:51.000Z</time>
      </trkpt>
      <trkpt lat="43.79681" lon="7.11935">
        <ele>1003.5999755859</ele>
        <time>2019-02-23T13:18:57.000Z</time>
      </trkpt>
      <trkpt lat="43.79681" lon="7.11935">
        <ele>1003.4000244141</ele>
        <time>2019-02-23T13:18:59.000Z</time>
      </trkpt>
      <trkpt lat="43.79681" lon="7.11935">
        <ele>1003.4000244141</ele>
        <time>2019-02-23T13:19:10.000Z</time>
      </trkpt>
      <trkpt lat="43.7968" lon="7.11936">
        <ele>1003.4000244141</ele>
        <time>2019-02-23T13:19:18.000Z</time>
      </trkpt>
      <trkpt lat="43.79679" lon="7.11938">
        <ele>1003.5999755859</ele>
        <time>2019-02-23T13:19:25.000Z</time>
      </trkpt>
      <trkpt lat="43.79676" lon="7.11951">
        <ele>1003.5999755859</ele>
        <time>2019-02-23T13:19:31.000Z</time>
      </trkpt>
      <trkpt lat="43.79671" lon="7.11964">
        <ele>1004</ele>
        <time>2019-02-23T13:19:38.000Z</time>
      </trkpt>
      <trkpt lat="43.79666" lon="7.11974">
        <ele>1004.200012207</ele>
        <time>2019-02-23T13:19:43.000Z</time>
      </trkpt>
      <trkpt lat="43.79665" lon="7.11979">
        <ele>1004.5999755859</ele>
        <time>2019-02-23T13:19:45.000Z</time>
      </trkpt>
      <trkpt lat="43.79659" lon="7.11994">
        <ele>1005</ele>
        <time>2019-02-23T13:19:51.000Z</time>
      </trkpt>
      <trkpt lat="43.79655" lon="7.12007">
        <ele>1005.5999755859</ele>
        <time>2019-02-23T13:19:57.000Z</time>
      </trkpt>
      <trkpt lat="43.79653" lon="7.12008">
        <ele>1005.799987793</ele>
        <time>2019-02-23T13:19:58.000Z</time>
      </trkpt>
      <trkpt lat="43.79645" lon="7.12014">
        <ele>1006.4000244141</ele>
        <time>2019-02-23T13:20:03.000Z</time>
      </trkpt>
      <trkpt lat="43.79634" lon="7.12017">
        <ele>1006.4000244141</ele>
        <time>2019-02-23T13:20:09.000Z</time>
      </trkpt>
      <trkpt lat="43.79624" lon="7.12032">
        <ele>1006.5999755859</ele>
        <time>2019-02-23T13:20:16.000Z</time>
      </trkpt>
      <trkpt lat="43.79618" lon="7.12043">
        <ele>1006.799987793</ele>
        <time>2019-02-23T13:20:21.000Z</time>
      </trkpt>
      <trkpt lat="43.79615" lon="7.1205">
        <ele>1007.200012207</ele>
        <time>2019-02-23T13:20:24.000Z</time>
      </trkpt>
      <trkpt lat="43.79613" lon="7.12053">
        <ele>1007.200012207</ele>
        <time>2019-02-23T13:20:25.000Z</time>
      </trkpt>
      <trkpt lat="43.79609" lon="7.12068">
        <ele>1007.799987793</ele>
        <time>2019-02-23T13:20:31.000Z</time>
      </trkpt>
      <trkpt lat="43.79609" lon="7.12071">
        <ele>1008</ele>
        <time>2019-02-23T13:20:32.000Z</time>
      </trkpt>
      <trkpt lat="43.79607" lon="7.12083">
        <ele>1009.200012207</ele>
        <time>2019-02-23T13:20:37.000Z</time>
      </trkpt>
      <trkpt lat="43.79607" lon="7.12086">
        <ele>1009.4000244141</ele>
        <time>2019-02-23T13:20:38.000Z</time>
      </trkpt>
      <trkpt lat="43.79606" lon="7.121">
        <ele>1010.200012207</ele>
        <time>2019-02-23T13:20:43.000Z</time>
      </trkpt>
      <trkpt lat="43.79605" lon="7.12105">
        <ele>1010.4000244141</ele>
        <time>2019-02-23T13:20:45.000Z</time>
      </trkpt>
      <trkpt lat="43.796" lon="7.12117">
        <ele>1011.200012207</ele>
        <time>2019-02-23T13:20:50.000Z</time>
      </trkpt>
      <trkpt lat="43.79599" lon="7.12122">
        <ele>1011.799987793</ele>
        <time>2019-02-23T13:20:53.000Z</time>
      </trkpt>
      <trkpt lat="43.79597" lon="7.12126">
        <ele>1012.200012207</ele>
        <time>2019-02-23T13:20:55.000Z</time>
      </trkpt>
      <trkpt lat="43.79592" lon="7.12136">
        <ele>1012.4000244141</ele>
        <time>2019-02-23T13:20:59.000Z</time>
      </trkpt>
      <trkpt lat="43.79581" lon="7.12161">
        <ele>1012.5999755859</ele>
        <time>2019-02-23T13:21:08.000Z</time>
      </trkpt>
      <trkpt lat="43.79574" lon="7.12176">
        <ele>1013.4000244141</ele>
        <time>2019-02-23T13:21:14.000Z</time>
      </trkpt>
      <trkpt lat="43.79571" lon="7.12184">
        <ele>1014.5999755859</ele>
        <time>2019-02-23T13:21:18.000Z</time>
      </trkpt>
      <trkpt lat="43.79569" lon="7.12188">
        <ele>1015.200012207</ele>
        <time>2019-02-23T13:21:20.000Z</time>
      </trkpt>
      <trkpt lat="43.79567" lon="7.12196">
        <ele>1015.5999755859</ele>
        <time>2019-02-23T13:21:24.000Z</time>
      </trkpt>
      <trkpt lat="43.79566" lon="7.12203">
        <ele>1016</ele>
        <time>2019-02-23T13:21:27.000Z</time>
      </trkpt>
      <trkpt lat="43.79565" lon="7.12215">
        <ele>1016.799987793</ele>
        <time>2019-02-23T13:21:32.000Z</time>
      </trkpt>
      <trkpt lat="43.79565" lon="7.12219">
        <ele>1017.4000244141</ele>
        <time>2019-02-23T13:21:34.000Z</time>
      </trkpt>
      <trkpt lat="43.7957" lon="7.12236">
        <ele>1017.799987793</ele>
        <time>2019-02-23T13:21:41.000Z</time>
      </trkpt>
      <trkpt lat="43.79573" lon="7.12241">
        <ele>1017.799987793</ele>
        <time>2019-02-23T13:21:43.000Z</time>
      </trkpt>
      <trkpt lat="43.7958" lon="7.12255">
        <ele>1019</ele>
        <time>2019-02-23T13:21:50.000Z</time>
      </trkpt>
      <trkpt lat="43.79586" lon="7.1227">
        <ele>1019.5999755859</ele>
        <time>2019-02-23T13:21:57.000Z</time>
      </trkpt>
      <trkpt lat="43.79589" lon="7.12285">
        <ele>1019.799987793</ele>
        <time>2019-02-23T13:22:03.000Z</time>
      </trkpt>
      <trkpt lat="43.79586" lon="7.12299">
        <ele>1020</ele>
        <time>2019-02-23T13:22:08.000Z</time>
      </trkpt>
      <trkpt lat="43.79581" lon="7.1232">
        <ele>1020.4000244141</ele>
        <time>2019-02-23T13:22:16.000Z</time>
      </trkpt>
      <trkpt lat="43.79576" lon="7.1233">
        <ele>1021</ele>
        <time>2019-02-23T13:22:21.000Z</time>
      </trkpt>
      <trkpt lat="43.79575" lon="7.12333">
        <ele>1021.200012207</ele>
        <time>2019-02-23T13:22:22.000Z</time>
      </trkpt>
      <trkpt lat="43.79569" lon="7.12353">
        <ele>1022.200012207</ele>
        <time>2019-02-23T13:22:30.000Z</time>
      </trkpt>
      <trkpt lat="43.79569" lon="7.12356">
        <ele>1022.4000244141</ele>
        <time>2019-02-23T13:22:31.000Z</time>
      </trkpt>
      <trkpt lat="43.79568" lon="7.12374">
        <ele>1023</ele>
        <time>2019-02-23T13:22:38.000Z</time>
      </trkpt>
      <trkpt lat="43.79569" lon="7.12398">
        <ele>1022.799987793</ele>
        <time>2019-02-23T13:22:46.000Z</time>
      </trkpt>
      <trkpt lat="43.79565" lon="7.12424">
        <ele>1022</ele>
        <time>2019-02-23T13:22:53.000Z</time>
      </trkpt>
      <trkpt lat="43.79563" lon="7.12428">
        <ele>1021.5999755859</ele>
        <time>2019-02-23T13:22:54.000Z</time>
      </trkpt>
      <trkpt lat="43.7956" lon="7.12431">
        <ele>1021</ele>
        <time>2019-02-23T13:22:55.000Z</time>
      </trkpt>
      <trkpt lat="43.79551" lon="7.12437">
        <ele>1019.799987793</ele>
        <time>2019-02-23T13:22:58.000Z</time>
      </trkpt>
      <trkpt lat="43.79548" lon="7.12438">
        <ele>1019.5999755859</ele>
        <time>2019-02-23T13:22:59.000Z</time>
      </trkpt>
      <trkpt lat="43.79545" lon="7.12439">
        <ele>1019.4000244141</ele>
        <time>2019-02-23T13:23:00.000Z</time>
      </trkpt>
      <trkpt lat="43.79536" lon="7.12446">
        <ele>1019</ele>
        <time>2019-02-23T13:23:03.000Z</time>
      </trkpt>
      <trkpt lat="43.79533" lon="7.12452">
        <ele>1018.799987793</ele>
        <time>2019-02-23T13:23:04.000Z</time>
      </trkpt>
      <trkpt lat="43.79528" lon="7.12464">
        <ele>1018.200012207</ele>
        <time>2019-02-23T13:23:06.000Z</time>
      </trkpt>
      <trkpt lat="43.79525" lon="7.12476">
        <ele>1017.5999755859</ele>
        <time>2019-02-23T13:23:08.000Z</time>
      </trkpt>
      <trkpt lat="43.79524" lon="7.1248">
        <ele>1017.200012207</ele>
        <time>2019-02-23T13:23:09.000Z</time>
      </trkpt>
      <trkpt lat="43.79513" lon="7.12508">
        <ele>1016.799987793</ele>
        <time>2019-02-23T13:23:15.000Z</time>
      </trkpt>
      <trkpt lat="43.79508" lon="7.12519">
        <ele>1016.799987793</ele>
        <time>2019-02-23T13:23:19.000Z</time>
      </trkpt>
      <trkpt lat="43.79502" lon="7.12533">
        <ele>1016.799987793</ele>
        <time>2019-02-23T13:23:24.000Z</time>
      </trkpt>
      <trkpt lat="43.79496" lon="7.12545">
        <ele>1018.4000244141</ele>
        <time>2019-02-23T13:23:30.000Z</time>
      </trkpt>
      <trkpt lat="43.79495" lon="7.12547">
        <ele>1018.799987793</ele>
        <time>2019-02-23T13:23:31.000Z</time>
      </trkpt>
      <trkpt lat="43.79492" lon="7.12557">
        <ele>1020</ele>
        <time>2019-02-23T13:23:35.000Z</time>
      </trkpt>
      <trkpt lat="43.79492" lon="7.12562">
        <ele>1020.5999755859</ele>
        <time>2019-02-23T13:23:37.000Z</time>
      </trkpt>
      <trkpt lat="43.79492" lon="7.12566">
        <ele>1021</ele>
        <time>2019-02-23T13:23:39.000Z</time>
      </trkpt>
      <trkpt lat="43.79494" lon="7.12575">
        <ele>1022.200012207</ele>
        <time>2019-02-23T13:23:43.000Z</time>
      </trkpt>
      <trkpt lat="43.79492" lon="7.12584">
        <ele>1023.4000244141</ele>
        <time>2019-02-23T13:23:47.000Z</time>
      </trkpt>
      <trkpt lat="43.7949" lon="7.1259">
        <ele>1024</ele>
        <time>2019-02-23T13:23:50.000Z</time>
      </trkpt>
      <trkpt lat="43.79487" lon="7.12596">
        <ele>1024.4000244141</ele>
        <time>2019-02-23T13:23:53.000Z</time>
      </trkpt>
      <trkpt lat="43.79484" lon="7.12599">
        <ele>1024.8000488281</ele>
        <time>2019-02-23T13:23:55.000Z</time>
      </trkpt>
      <trkpt lat="43.79474" lon="7.12602">
        <ele>1025.5999755859</ele>
        <time>2019-02-23T13:24:01.000Z</time>
      </trkpt>
      <trkpt lat="43.79472" lon="7.12602">
        <ele>1025.8000488281</ele>
        <time>2019-02-23T13:24:02.000Z</time>
      </trkpt>
      <trkpt lat="43.79463" lon="7.12604">
        <ele>1026.8000488281</ele>
        <time>2019-02-23T13:24:07.000Z</time>
      </trkpt>
      <trkpt lat="43.79457" lon="7.12605">
        <ele>1027.4000244141</ele>
        <time>2019-02-23T13:24:11.000Z</time>
      </trkpt>
      <trkpt lat="43.79447" lon="7.12613">
        <ele>1027.8000488281</ele>
        <time>2019-02-23T13:24:17.000Z</time>
      </trkpt>
      <trkpt lat="43.79446" lon="7.12615">
        <ele>1027.8000488281</ele>
        <time>2019-02-23T13:24:18.000Z</time>
      </trkpt>
      <trkpt lat="43.7943" lon="7.12625">
        <ele>1028</ele>
        <time>2019-02-23T13:24:25.000Z</time>
      </trkpt>
      <trkpt lat="43.79411" lon="7.12633">
        <ele>1027.4000244141</ele>
        <time>2019-02-23T13:24:33.000Z</time>
      </trkpt>
      <trkpt lat="43.79396" lon="7.12641">
        <ele>1028.5999755859</ele>
        <time>2019-02-23T13:24:40.000Z</time>
      </trkpt>
      <trkpt lat="43.79391" lon="7.12644">
        <ele>1028.8000488281</ele>
        <time>2019-02-23T13:24:43.000Z</time>
      </trkpt>
      <trkpt lat="43.79383" lon="7.1265">
        <ele>1029.5999755859</ele>
        <time>2019-02-23T13:24:47.000Z</time>
      </trkpt>
      <trkpt lat="43.79379" lon="7.12657">
        <ele>1030</ele>
        <time>2019-02-23T13:24:50.000Z</time>
      </trkpt>
      <trkpt lat="43.79374" lon="7.12669">
        <ele>1030.8000488281</ele>
        <time>2019-02-23T13:24:54.000Z</time>
      </trkpt>
      <trkpt lat="43.79373" lon="7.12671">
        <ele>1031</ele>
        <time>2019-02-23T13:24:55.000Z</time>
      </trkpt>
      <trkpt lat="43.79366" lon="7.12685">
        <ele>1032</ele>
        <time>2019-02-23T13:25:01.000Z</time>
      </trkpt>
      <trkpt lat="43.79364" lon="7.12688">
        <ele>1032.1999511719</ele>
        <time>2019-02-23T13:25:02.000Z</time>
      </trkpt>
      <trkpt lat="43.79357" lon="7.12707">
        <ele>1033.1999511719</ele>
        <time>2019-02-23T13:25:09.000Z</time>
      </trkpt>
      <trkpt lat="43.79357" lon="7.12709">
        <ele>1033.1999511719</ele>
        <time>2019-02-23T13:25:10.000Z</time>
      </trkpt>
      <trkpt lat="43.7935" lon="7.12716">
        <ele>1033.8000488281</ele>
        <time>2019-02-23T13:25:16.000Z</time>
      </trkpt>
      <trkpt lat="43.79349" lon="7.12716">
        <ele>1033.5999755859</ele>
        <time>2019-02-23T13:25:21.000Z</time>
      </trkpt>
      <trkpt lat="43.79349" lon="7.12717">
        <ele>1033.5999755859</ele>
        <time>2019-02-23T13:25:32.000Z</time>
      </trkpt>
      <trkpt lat="43.79349" lon="7.12718">
        <ele>1033.4000244141</ele>
        <time>2019-02-23T13:26:01.000Z</time>
      </trkpt>
      <trkpt lat="43.79349" lon="7.12719">
        <ele>1033.1999511719</ele>
        <time>2019-02-23T13:26:31.000Z</time>
      </trkpt>
      <trkpt lat="43.79348" lon="7.12719">
        <ele>1033</ele>
        <time>2019-02-23T13:26:58.000Z</time>
      </trkpt>
      <trkpt lat="43.79348" lon="7.12719">
        <ele>1033</ele>
        <time>2019-02-23T13:27:23.000Z</time>
      </trkpt>
      <trkpt lat="43.79348" lon="7.12719">
        <ele>1033</ele>
        <time>2019-02-23T13:27:50.000Z</time>
      </trkpt>
      <trkpt lat="43.79348" lon="7.12719">
        <ele>1032.8000488281</ele>
        <time>2019-02-23T13:28:25.000Z</time>
      </trkpt>
      <trkpt lat="43.79348" lon="7.12719">
        <ele>1032.5999755859</ele>
        <time>2019-02-23T13:29:05.000Z</time>
      </trkpt>
      <trkpt lat="43.79349" lon="7.12719">
        <ele>1032.5999755859</ele>
        <time>2019-02-23T13:29:37.000Z</time>
      </trkpt>
      <trkpt lat="43.79345" lon="7.1272">
        <ele>1032.4000244141</ele>
        <time>2019-02-23T13:29:58.000Z</time>
      </trkpt>
      <trkpt lat="43.79335" lon="7.1272">
        <ele>1032.8000488281</ele>
        <time>2019-02-23T13:30:05.000Z</time>
      </trkpt>
      <trkpt lat="43.79322" lon="7.12725">
        <ele>1032.4000244141</ele>
        <time>2019-02-23T13:30:11.000Z</time>
      </trkpt>
      <trkpt lat="43.79308" lon="7.12739">
        <ele>1032.1999511719</ele>
        <time>2019-02-23T13:30:17.000Z</time>
      </trkpt>
      <trkpt lat="43.79305" lon="7.12742">
        <ele>1032.1999511719</ele>
        <time>2019-02-23T13:30:18.000Z</time>
      </trkpt>
      <trkpt lat="43.79297" lon="7.1276">
        <ele>1031.5999755859</ele>
        <time>2019-02-23T13:30:22.000Z</time>
      </trkpt>
      <trkpt lat="43.79296" lon="7.12766">
        <ele>1031.4000244141</ele>
        <time>2019-02-23T13:30:23.000Z</time>
      </trkpt>
      <trkpt lat="43.79295" lon="7.12773">
        <ele>1031.1999511719</ele>
        <time>2019-02-23T13:30:24.000Z</time>
      </trkpt>
      <trkpt lat="43.79294" lon="7.12785">
        <ele>1030</ele>
        <time>2019-02-23T13:30:26.000Z</time>
      </trkpt>
      <trkpt lat="43.79293" lon="7.12789">
        <ele>1028.8000488281</ele>
        <time>2019-02-23T13:30:28.000Z</time>
      </trkpt>
      <trkpt lat="43.79293" lon="7.12788">
        <ele>1028</ele>
        <time>2019-02-23T13:30:33.000Z</time>
      </trkpt>
      <trkpt lat="43.79294" lon="7.1279">
        <ele>1028.1999511719</ele>
        <time>2019-02-23T13:30:44.000Z</time>
      </trkpt>
      <trkpt lat="43.79294" lon="7.12795">
        <ele>1028.1999511719</ele>
        <time>2019-02-23T13:30:46.000Z</time>
      </trkpt>
      <trkpt lat="43.79293" lon="7.1281">
        <ele>1027.8000488281</ele>
        <time>2019-02-23T13:30:50.000Z</time>
      </trkpt>
      <trkpt lat="43.79292" lon="7.12819">
        <ele>1027.4000244141</ele>
        <time>2019-02-23T13:30:52.000Z</time>
      </trkpt>
      <trkpt lat="43.7929" lon="7.12828">
        <ele>1026.5999755859</ele>
        <time>2019-02-23T13:30:54.000Z</time>
      </trkpt>
      <trkpt lat="43.79288" lon="7.12844">
        <ele>1025</ele>
        <time>2019-02-23T13:30:57.000Z</time>
      </trkpt>
      <trkpt lat="43.79287" lon="7.12849">
        <ele>1024</ele>
        <time>2019-02-23T13:30:58.000Z</time>
      </trkpt>
      <trkpt lat="43.79286" lon="7.12855">
        <ele>1023.200012207</ele>
        <time>2019-02-23T13:30:59.000Z</time>
      </trkpt>
      <trkpt lat="43.79286" lon="7.12861">
        <ele>1022.4000244141</ele>
        <time>2019-02-23T13:31:00.000Z</time>
      </trkpt>
      <trkpt lat="43.79284" lon="7.12873">
        <ele>1021.4000244141</ele>
        <time>2019-02-23T13:31:02.000Z</time>
      </trkpt>
      <trkpt lat="43.79283" lon="7.12884">
        <ele>1020.4000244141</ele>
        <time>2019-02-23T13:31:04.000Z</time>
      </trkpt>
      <trkpt lat="43.79282" lon="7.12889">
        <ele>1019.5999755859</ele>
        <time>2019-02-23T13:31:05.000Z</time>
      </trkpt>
      <trkpt lat="43.7928" lon="7.12893">
        <ele>1018.5999755859</ele>
        <time>2019-02-23T13:31:06.000Z</time>
      </trkpt>
      <trkpt lat="43.79277" lon="7.12896">
        <ele>1018</ele>
        <time>2019-02-23T13:31:07.000Z</time>
      </trkpt>
      <trkpt lat="43.79274" lon="7.12897">
        <ele>1017.4000244141</ele>
        <time>2019-02-23T13:31:08.000Z</time>
      </trkpt>
      <trkpt lat="43.79268" lon="7.12894">
        <ele>1016.5999755859</ele>
        <time>2019-02-23T13:31:10.000Z</time>
      </trkpt>
      <trkpt lat="43.79264" lon="7.12891">
        <ele>1016.5999755859</ele>
        <time>2019-02-23T13:31:11.000Z</time>
      </trkpt>
      <trkpt lat="43.79253" lon="7.12889">
        <ele>1015.5999755859</ele>
        <time>2019-02-23T13:31:14.000Z</time>
      </trkpt>
      <trkpt lat="43.79249" lon="7.12889">
        <ele>1015.200012207</ele>
        <time>2019-02-23T13:31:15.000Z</time>
      </trkpt>
      <trkpt lat="43.79245" lon="7.12891">
        <ele>1014.5999755859</ele>
        <time>2019-02-23T13:31:16.000Z</time>
      </trkpt>
      <trkpt lat="43.79241" lon="7.12892">
        <ele>1013.200012207</ele>
        <time>2019-02-23T13:31:17.000Z</time>
      </trkpt>
      <trkpt lat="43.79237" lon="7.12893">
        <ele>1012</ele>
        <time>2019-02-23T13:31:18.000Z</time>
      </trkpt>
      <trkpt lat="43.79232" lon="7.12897">
        <ele>1009.799987793</ele>
        <time>2019-02-23T13:31:20.000Z</time>
      </trkpt>
      <trkpt lat="43.7923" lon="7.12904">
        <ele>1008.5999755859</ele>
        <time>2019-02-23T13:31:22.000Z</time>
      </trkpt>
      <trkpt lat="43.79231" lon="7.12907">
        <ele>1008</ele>
        <time>2019-02-23T13:31:23.000Z</time>
      </trkpt>
      <trkpt lat="43.79235" lon="7.12909">
        <ele>1007.4000244141</ele>
        <time>2019-02-23T13:31:24.000Z</time>
      </trkpt>
      <trkpt lat="43.79242" lon="7.12911">
        <ele>1006.200012207</ele>
        <time>2019-02-23T13:31:26.000Z</time>
      </trkpt>
      <trkpt lat="43.79249" lon="7.12921">
        <ele>1005</ele>
        <time>2019-02-23T13:31:29.000Z</time>
      </trkpt>
      <trkpt lat="43.79249" lon="7.12927">
        <ele>1004.5999755859</ele>
        <time>2019-02-23T13:31:30.000Z</time>
      </trkpt>
      <trkpt lat="43.79244" lon="7.12936">
        <ele>1003.5999755859</ele>
        <time>2019-02-23T13:31:33.000Z</time>
      </trkpt>
      <trkpt lat="43.79239" lon="7.12937">
        <ele>1002</ele>
        <time>2019-02-23T13:31:35.000Z</time>
      </trkpt>
      <trkpt lat="43.79233" lon="7.12941">
        <ele>1000.4000244141</ele>
        <time>2019-02-23T13:31:37.000Z</time>
      </trkpt>
      <trkpt lat="43.79231" lon="7.12943">
        <ele>1000</ele>
        <time>2019-02-23T13:31:38.000Z</time>
      </trkpt>
      <trkpt lat="43.7923" lon="7.12947">
        <ele>999.79998779297</ele>
        <time>2019-02-23T13:31:39.000Z</time>
      </trkpt>
      <trkpt lat="43.79229" lon="7.12951">
        <ele>999</ele>
        <time>2019-02-23T13:31:40.000Z</time>
      </trkpt>
      <trkpt lat="43.79229" lon="7.12957">
        <ele>997.79998779297</ele>
        <time>2019-02-23T13:31:41.000Z</time>
      </trkpt>
      <trkpt lat="43.79229" lon="7.1297">
        <ele>996.20001220703</ele>
        <time>2019-02-23T13:31:43.000Z</time>
      </trkpt>
      <trkpt lat="43.79229" lon="7.12977">
        <ele>995.59997558594</ele>
        <time>2019-02-23T13:31:44.000Z</time>
      </trkpt>
      <trkpt lat="43.79233" lon="7.1299">
        <ele>995</ele>
        <time>2019-02-23T13:31:46.000Z</time>
      </trkpt>
      <trkpt lat="43.79237" lon="7.13002">
        <ele>993.79998779297</ele>
        <time>2019-02-23T13:31:48.000Z</time>
      </trkpt>
      <trkpt lat="43.7924" lon="7.13017">
        <ele>992.40002441406</ele>
        <time>2019-02-23T13:31:51.000Z</time>
      </trkpt>
      <trkpt lat="43.79241" lon="7.13029">
        <ele>991.79998779297</ele>
        <time>2019-02-23T13:31:53.000Z</time>
      </trkpt>
      <trkpt lat="43.79241" lon="7.13035">
        <ele>991.40002441406</ele>
        <time>2019-02-23T13:31:54.000Z</time>
      </trkpt>
      <trkpt lat="43.79238" lon="7.13048">
        <ele>989.40002441406</ele>
        <time>2019-02-23T13:31:56.000Z</time>
      </trkpt>
      <trkpt lat="43.79236" lon="7.13053">
        <ele>988.40002441406</ele>
        <time>2019-02-23T13:31:57.000Z</time>
      </trkpt>
      <trkpt lat="43.79232" lon="7.13056">
        <ele>987.20001220703</ele>
        <time>2019-02-23T13:31:58.000Z</time>
      </trkpt>
      <trkpt lat="43.79227" lon="7.13059">
        <ele>986.59997558594</ele>
        <time>2019-02-23T13:31:59.000Z</time>
      </trkpt>
      <trkpt lat="43.79222" lon="7.13059">
        <ele>985.79998779297</ele>
        <time>2019-02-23T13:32:00.000Z</time>
      </trkpt>
      <trkpt lat="43.79217" lon="7.1306">
        <ele>985.40002441406</ele>
        <time>2019-02-23T13:32:01.000Z</time>
      </trkpt>
      <trkpt lat="43.79214" lon="7.1306">
        <ele>985</ele>
        <time>2019-02-23T13:32:02.000Z</time>
      </trkpt>
      <trkpt lat="43.7921" lon="7.13059">
        <ele>984.79998779297</ele>
        <time>2019-02-23T13:32:03.000Z</time>
      </trkpt>
      <trkpt lat="43.79207" lon="7.13059">
        <ele>983.40002441406</ele>
        <time>2019-02-23T13:32:04.000Z</time>
      </trkpt>
      <trkpt lat="43.79201" lon="7.13062">
        <ele>981.79998779297</ele>
        <time>2019-02-23T13:32:06.000Z</time>
      </trkpt>
      <trkpt lat="43.79194" lon="7.13063">
        <ele>980.59997558594</ele>
        <time>2019-02-23T13:32:08.000Z</time>
      </trkpt>
      <trkpt lat="43.79188" lon="7.13065">
        <ele>979.79998779297</ele>
        <time>2019-02-23T13:32:10.000Z</time>
      </trkpt>
      <trkpt lat="43.79185" lon="7.13067">
        <ele>979.20001220703</ele>
        <time>2019-02-23T13:32:11.000Z</time>
      </trkpt>
      <trkpt lat="43.79179" lon="7.13074">
        <ele>978</ele>
        <time>2019-02-23T13:32:13.000Z</time>
      </trkpt>
      <trkpt lat="43.79177" lon="7.13077">
        <ele>976.79998779297</ele>
        <time>2019-02-23T13:32:14.000Z</time>
      </trkpt>
      <trkpt lat="43.79174" lon="7.13079">
        <ele>975.79998779297</ele>
        <time>2019-02-23T13:32:15.000Z</time>
      </trkpt>
      <trkpt lat="43.79163" lon="7.13084">
        <ele>974</ele>
        <time>2019-02-23T13:32:18.000Z</time>
      </trkpt>
      <trkpt lat="43.79156" lon="7.13083">
        <ele>973</ele>
        <time>2019-02-23T13:32:20.000Z</time>
      </trkpt>
      <trkpt lat="43.79152" lon="7.13083">
        <ele>972</ele>
        <time>2019-02-23T13:32:21.000Z</time>
      </trkpt>
      <trkpt lat="43.79146" lon="7.13084">
        <ele>971</ele>
        <time>2019-02-23T13:32:23.000Z</time>
      </trkpt>
      <trkpt lat="43.79143" lon="7.13084">
        <ele>970.40002441406</ele>
        <time>2019-02-23T13:32:24.000Z</time>
      </trkpt>
      <trkpt lat="43.79138" lon="7.13086">
        <ele>969.20001220703</ele>
        <time>2019-02-23T13:32:26.000Z</time>
      </trkpt>
      <trkpt lat="43.79136" lon="7.13086">
        <ele>968.20001220703</ele>
        <time>2019-02-23T13:32:27.000Z</time>
      </trkpt>
      <trkpt lat="43.79133" lon="7.13086">
        <ele>967.20001220703</ele>
        <time>2019-02-23T13:32:29.000Z</time>
      </trkpt>
      <trkpt lat="43.79134" lon="7.13086">
        <ele>967</ele>
        <time>2019-02-23T13:32:30.000Z</time>
      </trkpt>
      <trkpt lat="43.79134" lon="7.13085">
        <ele>965.59997558594</ele>
        <time>2019-02-23T13:32:33.000Z</time>
      </trkpt>
      <trkpt lat="43.79134" lon="7.13085">
        <ele>966</ele>
        <time>2019-02-23T13:32:34.000Z</time>
      </trkpt>
      <trkpt lat="43.79133" lon="7.13084">
        <ele>965.40002441406</ele>
        <time>2019-02-23T13:32:55.000Z</time>
      </trkpt>
      <trkpt lat="43.79127" lon="7.13079">
        <ele>965.40002441406</ele>
        <time>2019-02-23T13:33:00.000Z</time>
      </trkpt>
      <trkpt lat="43.79117" lon="7.13073">
        <ele>964.59997558594</ele>
        <time>2019-02-23T13:33:03.000Z</time>
      </trkpt>
      <trkpt lat="43.79111" lon="7.13069">
        <ele>964</ele>
        <time>2019-02-23T13:33:05.000Z</time>
      </trkpt>
      <trkpt lat="43.79109" lon="7.13067">
        <ele>963.40002441406</ele>
        <time>2019-02-23T13:33:06.000Z</time>
      </trkpt>
      <trkpt lat="43.79101" lon="7.13063">
        <ele>962.20001220703</ele>
        <time>2019-02-23T13:33:09.000Z</time>
      </trkpt>
      <trkpt lat="43.79097" lon="7.13065">
        <ele>962</ele>
        <time>2019-02-23T13:33:10.000Z</time>
      </trkpt>
      <trkpt lat="43.79091" lon="7.13071">
        <ele>960.59997558594</ele>
        <time>2019-02-23T13:33:12.000Z</time>
      </trkpt>
      <trkpt lat="43.79088" lon="7.13072">
        <ele>959.40002441406</ele>
        <time>2019-02-23T13:33:13.000Z</time>
      </trkpt>
      <trkpt lat="43.79085" lon="7.13072">
        <ele>958.79998779297</ele>
        <time>2019-02-23T13:33:14.000Z</time>
      </trkpt>
      <trkpt lat="43.79079" lon="7.13069">
        <ele>957.79998779297</ele>
        <time>2019-02-23T13:33:16.000Z</time>
      </trkpt>
      <trkpt lat="43.79076" lon="7.13069">
        <ele>957.59997558594</ele>
        <time>2019-02-23T13:33:17.000Z</time>
      </trkpt>
      <trkpt lat="43.79073" lon="7.13069">
        <ele>957.79998779297</ele>
        <time>2019-02-23T13:33:18.000Z</time>
      </trkpt>
      <trkpt lat="43.79068" lon="7.13072">
        <ele>956.40002441406</ele>
        <time>2019-02-23T13:33:20.000Z</time>
      </trkpt>
      <trkpt lat="43.79066" lon="7.13073">
        <ele>956.79998779297</ele>
        <time>2019-02-23T13:33:21.000Z</time>
      </trkpt>
      <trkpt lat="43.79061" lon="7.13077">
        <ele>955.20001220703</ele>
        <time>2019-02-23T13:33:23.000Z</time>
      </trkpt>
      <trkpt lat="43.7905" lon="7.13085">
        <ele>953.20001220703</ele>
        <time>2019-02-23T13:33:26.000Z</time>
      </trkpt>
      <trkpt lat="43.79046" lon="7.13088">
        <ele>952.59997558594</ele>
        <time>2019-02-23T13:33:27.000Z</time>
      </trkpt>
      <trkpt lat="43.79039" lon="7.13093">
        <ele>951.59997558594</ele>
        <time>2019-02-23T13:33:29.000Z</time>
      </trkpt>
      <trkpt lat="43.79034" lon="7.131">
        <ele>950.59997558594</ele>
        <time>2019-02-23T13:33:31.000Z</time>
      </trkpt>
      <trkpt lat="43.79032" lon="7.1311">
        <ele>949</ele>
        <time>2019-02-23T13:33:33.000Z</time>
      </trkpt>
      <trkpt lat="43.79028" lon="7.13119">
        <ele>948.20001220703</ele>
        <time>2019-02-23T13:33:35.000Z</time>
      </trkpt>
      <trkpt lat="43.79026" lon="7.13122">
        <ele>947.59997558594</ele>
        <time>2019-02-23T13:33:36.000Z</time>
      </trkpt>
      <trkpt lat="43.79015" lon="7.13134">
        <ele>947.40002441406</ele>
        <time>2019-02-23T13:33:40.000Z</time>
      </trkpt>
      <trkpt lat="43.78996" lon="7.13145">
        <ele>947.59997558594</ele>
        <time>2019-02-23T13:33:47.000Z</time>
      </trkpt>
      <trkpt lat="43.78983" lon="7.1316">
        <ele>948.59997558594</ele>
        <time>2019-02-23T13:33:54.000Z</time>
      </trkpt>
      <trkpt lat="43.78981" lon="7.13162">
        <ele>949</ele>
        <time>2019-02-23T13:33:55.000Z</time>
      </trkpt>
      <trkpt lat="43.7897" lon="7.13171">
        <ele>949.79998779297</ele>
        <time>2019-02-23T13:34:00.000Z</time>
      </trkpt>
      <trkpt lat="43.78965" lon="7.13178">
        <ele>950.20001220703</ele>
        <time>2019-02-23T13:34:03.000Z</time>
      </trkpt>
      <trkpt lat="43.7895" lon="7.13202">
        <ele>950.59997558594</ele>
        <time>2019-02-23T13:34:11.000Z</time>
      </trkpt>
      <trkpt lat="43.78946" lon="7.13208">
        <ele>950.79998779297</ele>
        <time>2019-02-23T13:34:13.000Z</time>
      </trkpt>
      <trkpt lat="43.78939" lon="7.1322">
        <ele>951</ele>
        <time>2019-02-23T13:34:16.000Z</time>
      </trkpt>
      <trkpt lat="43.78936" lon="7.13223">
        <ele>950.79998779297</ele>
        <time>2019-02-23T13:34:17.000Z</time>
      </trkpt>
      <trkpt lat="43.78923" lon="7.13228">
        <ele>950.20001220703</ele>
        <time>2019-02-23T13:34:20.000Z</time>
      </trkpt>
      <trkpt lat="43.78914" lon="7.13232">
        <ele>949.59997558594</ele>
        <time>2019-02-23T13:34:22.000Z</time>
      </trkpt>
      <trkpt lat="43.7891" lon="7.13233">
        <ele>949.20001220703</ele>
        <time>2019-02-23T13:34:23.000Z</time>
      </trkpt>
      <trkpt lat="43.78901" lon="7.13236">
        <ele>948.79998779297</ele>
        <time>2019-02-23T13:34:25.000Z</time>
      </trkpt>
      <trkpt lat="43.78896" lon="7.13236">
        <ele>948.59997558594</ele>
        <time>2019-02-23T13:34:26.000Z</time>
      </trkpt>
      <trkpt lat="43.78892" lon="7.13238">
        <ele>948.20001220703</ele>
        <time>2019-02-23T13:34:27.000Z</time>
      </trkpt>
      <trkpt lat="43.78875" lon="7.13249">
        <ele>948</ele>
        <time>2019-02-23T13:34:32.000Z</time>
      </trkpt>
      <trkpt lat="43.78853" lon="7.13264">
        <ele>947.59997558594</ele>
        <time>2019-02-23T13:34:39.000Z</time>
      </trkpt>
      <trkpt lat="43.78846" lon="7.13268">
        <ele>947.40002441406</ele>
        <time>2019-02-23T13:34:42.000Z</time>
      </trkpt>
      <trkpt lat="43.78842" lon="7.13271">
        <ele>947.40002441406</ele>
        <time>2019-02-23T13:34:44.000Z</time>
      </trkpt>
      <trkpt lat="43.78836" lon="7.13283">
        <ele>947.79998779297</ele>
        <time>2019-02-23T13:34:48.000Z</time>
      </trkpt>
      <trkpt lat="43.78836" lon="7.13286">
        <ele>947.79998779297</ele>
        <time>2019-02-23T13:34:49.000Z</time>
      </trkpt>
      <trkpt lat="43.78834" lon="7.13295">
        <ele>948.40002441406</ele>
        <time>2019-02-23T13:34:53.000Z</time>
      </trkpt>
      <trkpt lat="43.78833" lon="7.13296">
        <ele>948.59997558594</ele>
        <time>2019-02-23T13:34:54.000Z</time>
      </trkpt>
      <trkpt lat="43.78825" lon="7.13306">
        <ele>948.59997558594</ele>
        <time>2019-02-23T13:34:58.000Z</time>
      </trkpt>
      <trkpt lat="43.78807" lon="7.13318">
        <ele>949.59997558594</ele>
        <time>2019-02-23T13:35:04.000Z</time>
      </trkpt>
      <trkpt lat="43.78775" lon="7.13332">
        <ele>948.20001220703</ele>
        <time>2019-02-23T13:35:12.000Z</time>
      </trkpt>
      <trkpt lat="43.78759" lon="7.13334">
        <ele>947.79998779297</ele>
        <time>2019-02-23T13:35:17.000Z</time>
      </trkpt>
      <trkpt lat="43.78755" lon="7.13334">
        <ele>947.20001220703</ele>
        <time>2019-02-23T13:35:18.000Z</time>
      </trkpt>
      <trkpt lat="43.78751" lon="7.13333">
        <ele>947</ele>
        <time>2019-02-23T13:35:19.000Z</time>
      </trkpt>
      <trkpt lat="43.78743" lon="7.13331">
        <ele>946.20001220703</ele>
        <time>2019-02-23T13:35:21.000Z</time>
      </trkpt>
      <trkpt lat="43.78733" lon="7.13324">
        <ele>945</ele>
        <time>2019-02-23T13:35:24.000Z</time>
      </trkpt>
      <trkpt lat="43.78729" lon="7.13321">
        <ele>944.59997558594</ele>
        <time>2019-02-23T13:35:25.000Z</time>
      </trkpt>
      <trkpt lat="43.78723" lon="7.13319">
        <ele>944.40002441406</ele>
        <time>2019-02-23T13:35:27.000Z</time>
      </trkpt>
      <trkpt lat="43.78721" lon="7.13321">
        <ele>944.20001220703</ele>
        <time>2019-02-23T13:35:28.000Z</time>
      </trkpt>
      <trkpt lat="43.78719" lon="7.13325">
        <ele>943.79998779297</ele>
        <time>2019-02-23T13:35:29.000Z</time>
      </trkpt>
      <trkpt lat="43.78713" lon="7.13331">
        <ele>942.59997558594</ele>
        <time>2019-02-23T13:35:31.000Z</time>
      </trkpt>
      <trkpt lat="43.78711" lon="7.13331">
        <ele>942.40002441406</ele>
        <time>2019-02-23T13:35:32.000Z</time>
      </trkpt>
      <trkpt lat="43.78706" lon="7.13327">
        <ele>942</ele>
        <time>2019-02-23T13:35:34.000Z</time>
      </trkpt>
      <trkpt lat="43.78702" lon="7.13326">
        <ele>941.59997558594</ele>
        <time>2019-02-23T13:35:36.000Z</time>
      </trkpt>
      <trkpt lat="43.78699" lon="7.13325">
        <ele>941.40002441406</ele>
        <time>2019-02-23T13:35:37.000Z</time>
      </trkpt>
      <trkpt lat="43.78688" lon="7.1332">
        <ele>941</ele>
        <time>2019-02-23T13:35:40.000Z</time>
      </trkpt>
      <trkpt lat="43.78685" lon="7.1332">
        <ele>940.79998779297</ele>
        <time>2019-02-23T13:35:41.000Z</time>
      </trkpt>
      <trkpt lat="43.78678" lon="7.13322">
        <ele>940.79998779297</ele>
        <time>2019-02-23T13:35:43.000Z</time>
      </trkpt>
      <trkpt lat="43.78668" lon="7.13319">
        <ele>941.20001220703</ele>
        <time>2019-02-23T13:35:46.000Z</time>
      </trkpt>
      <trkpt lat="43.78661" lon="7.13318">
        <ele>941.79998779297</ele>
        <time>2019-02-23T13:35:48.000Z</time>
      </trkpt>
      <trkpt lat="43.78643" lon="7.13318">
        <ele>942.20001220703</ele>
        <time>2019-02-23T13:35:54.000Z</time>
      </trkpt>
      <trkpt lat="43.78642" lon="7.13318">
        <ele>942.40002441406</ele>
        <time>2019-02-23T13:35:59.000Z</time>
      </trkpt>
      <trkpt lat="43.78642" lon="7.13318">
        <ele>942.40002441406</ele>
        <time>2019-02-23T13:36:01.000Z</time>
      </trkpt>
      <trkpt lat="43.78642" lon="7.13318">
        <ele>942.40002441406</ele>
        <time>2019-02-23T13:36:15.000Z</time>
      </trkpt>
      <trkpt lat="43.78641" lon="7.13318">
        <ele>942.20001220703</ele>
        <time>2019-02-23T13:36:26.000Z</time>
      </trkpt>
      <trkpt lat="43.78638" lon="7.13319">
        <ele>942.40002441406</ele>
        <time>2019-02-23T13:36:28.000Z</time>
      </trkpt>
      <trkpt lat="43.78626" lon="7.13323">
        <ele>942.40002441406</ele>
        <time>2019-02-23T13:36:32.000Z</time>
      </trkpt>
      <trkpt lat="43.78605" lon="7.13329">
        <ele>941.40002441406</ele>
        <time>2019-02-23T13:36:37.000Z</time>
      </trkpt>
      <trkpt lat="43.786" lon="7.13329">
        <ele>941.40002441406</ele>
        <time>2019-02-23T13:36:38.000Z</time>
      </trkpt>
      <trkpt lat="43.78596" lon="7.13329">
        <ele>941.20001220703</ele>
        <time>2019-02-23T13:36:39.000Z</time>
      </trkpt>
      <trkpt lat="43.78579" lon="7.13327">
        <ele>941</ele>
        <time>2019-02-23T13:36:43.000Z</time>
      </trkpt>
      <trkpt lat="43.78566" lon="7.1333">
        <ele>940.79998779297</ele>
        <time>2019-02-23T13:36:46.000Z</time>
      </trkpt>
      <trkpt lat="43.78557" lon="7.13331">
        <ele>941</ele>
        <time>2019-02-23T13:36:48.000Z</time>
      </trkpt>
      <trkpt lat="43.78544" lon="7.13334">
        <ele>940.79998779297</ele>
        <time>2019-02-23T13:36:51.000Z</time>
      </trkpt>
      <trkpt lat="43.78535" lon="7.13336">
        <ele>940.79998779297</ele>
        <time>2019-02-23T13:36:53.000Z</time>
      </trkpt>
      <trkpt lat="43.78531" lon="7.13336">
        <ele>940.79998779297</ele>
        <time>2019-02-23T13:36:54.000Z</time>
      </trkpt>
      <trkpt lat="43.78519" lon="7.1334">
        <ele>940.59997558594</ele>
        <time>2019-02-23T13:36:57.000Z</time>
      </trkpt>
      <trkpt lat="43.78515" lon="7.13341">
        <ele>940.40002441406</ele>
        <time>2019-02-23T13:36:58.000Z</time>
      </trkpt>
      <trkpt lat="43.78511" lon="7.13342">
        <ele>940.40002441406</ele>
        <time>2019-02-23T13:36:59.000Z</time>
      </trkpt>
      <trkpt lat="43.78507" lon="7.13343">
        <ele>940.40002441406</ele>
        <time>2019-02-23T13:37:00.000Z</time>
      </trkpt>
      <trkpt lat="43.78496" lon="7.13347">
        <ele>940.20001220703</ele>
        <time>2019-02-23T13:37:03.000Z</time>
      </trkpt>
      <trkpt lat="43.78488" lon="7.13348">
        <ele>939.79998779297</ele>
        <time>2019-02-23T13:37:05.000Z</time>
      </trkpt>
      <trkpt lat="43.78485" lon="7.13348">
        <ele>939.59997558594</ele>
        <time>2019-02-23T13:37:06.000Z</time>
      </trkpt>
      <trkpt lat="43.78482" lon="7.13347">
        <ele>939.40002441406</ele>
        <time>2019-02-23T13:37:07.000Z</time>
      </trkpt>
      <trkpt lat="43.78478" lon="7.13346">
        <ele>939.20001220703</ele>
        <time>2019-02-23T13:37:08.000Z</time>
      </trkpt>
      <trkpt lat="43.78465" lon="7.13342">
        <ele>938</ele>
        <time>2019-02-23T13:37:12.000Z</time>
      </trkpt>
      <trkpt lat="43.78462" lon="7.13341">
        <ele>937.79998779297</ele>
        <time>2019-02-23T13:37:13.000Z</time>
      </trkpt>
      <trkpt lat="43.7846" lon="7.13342">
        <ele>937.79998779297</ele>
        <time>2019-02-23T13:37:14.000Z</time>
      </trkpt>
      <trkpt lat="43.78454" lon="7.13345">
        <ele>937.79998779297</ele>
        <time>2019-02-23T13:37:16.000Z</time>
      </trkpt>
      <trkpt lat="43.78449" lon="7.13346">
        <ele>937.59997558594</ele>
        <time>2019-02-23T13:37:18.000Z</time>
      </trkpt>
      <trkpt lat="43.78444" lon="7.13346">
        <ele>937.40002441406</ele>
        <time>2019-02-23T13:37:20.000Z</time>
      </trkpt>
      <trkpt lat="43.78431" lon="7.13355">
        <ele>937.59997558594</ele>
        <time>2019-02-23T13:37:25.000Z</time>
      </trkpt>
      <trkpt lat="43.78421" lon="7.13369">
        <ele>936.79998779297</ele>
        <time>2019-02-23T13:37:30.000Z</time>
      </trkpt>
      <trkpt lat="43.7841" lon="7.13381">
        <ele>937</ele>
        <time>2019-02-23T13:37:35.000Z</time>
      </trkpt>
      <trkpt lat="43.78395" lon="7.1339">
        <ele>936.79998779297</ele>
        <time>2019-02-23T13:37:41.000Z</time>
      </trkpt>
      <trkpt lat="43.78385" lon="7.13394">
        <ele>937</ele>
        <time>2019-02-23T13:37:45.000Z</time>
      </trkpt>
      <trkpt lat="43.78376" lon="7.13399">
        <ele>936.40002441406</ele>
        <time>2019-02-23T13:37:49.000Z</time>
      </trkpt>
      <trkpt lat="43.78373" lon="7.13402">
        <ele>936.20001220703</ele>
        <time>2019-02-23T13:37:50.000Z</time>
      </trkpt>
      <trkpt lat="43.78364" lon="7.13405">
        <ele>935.59997558594</ele>
        <time>2019-02-23T13:37:53.000Z</time>
      </trkpt>
      <trkpt lat="43.78361" lon="7.13405">
        <ele>935.59997558594</ele>
        <time>2019-02-23T13:37:54.000Z</time>
      </trkpt>
      <trkpt lat="43.78357" lon="7.13406">
        <ele>935.40002441406</ele>
        <time>2019-02-23T13:37:55.000Z</time>
      </trkpt>
      <trkpt lat="43.78343" lon="7.13407">
        <ele>934</ele>
        <time>2019-02-23T13:37:59.000Z</time>
      </trkpt>
      <trkpt lat="43.78328" lon="7.13406">
        <ele>933.40002441406</ele>
        <time>2019-02-23T13:38:03.000Z</time>
      </trkpt>
      <trkpt lat="43.78323" lon="7.13405">
        <ele>933.20001220703</ele>
        <time>2019-02-23T13:38:04.000Z</time>
      </trkpt>
      <trkpt lat="43.78319" lon="7.13404">
        <ele>932.79998779297</ele>
        <time>2019-02-23T13:38:05.000Z</time>
      </trkpt>
      <trkpt lat="43.78301" lon="7.134">
        <ele>931.79998779297</ele>
        <time>2019-02-23T13:38:10.000Z</time>
      </trkpt>
      <trkpt lat="43.78282" lon="7.13397">
        <ele>931.59997558594</ele>
        <time>2019-02-23T13:38:15.000Z</time>
      </trkpt>
      <trkpt lat="43.78271" lon="7.13397">
        <ele>932.20001220703</ele>
        <time>2019-02-23T13:38:18.000Z</time>
      </trkpt>
      <trkpt lat="43.78259" lon="7.13396">
        <ele>930.59997558594</ele>
        <time>2019-02-23T13:38:22.000Z</time>
      </trkpt>
      <trkpt lat="43.78247" lon="7.13397">
        <ele>929.40002441406</ele>
        <time>2019-02-23T13:38:26.000Z</time>
      </trkpt>
      <trkpt lat="43.78232" lon="7.13401">
        <ele>928.20001220703</ele>
        <time>2019-02-23T13:38:31.000Z</time>
      </trkpt>
      <trkpt lat="43.78226" lon="7.13403">
        <ele>927.59997558594</ele>
        <time>2019-02-23T13:38:33.000Z</time>
      </trkpt>
      <trkpt lat="43.78219" lon="7.13404">
        <ele>927.40002441406</ele>
        <time>2019-02-23T13:38:35.000Z</time>
      </trkpt>
      <trkpt lat="43.78216" lon="7.13404">
        <ele>927</ele>
        <time>2019-02-23T13:38:36.000Z</time>
      </trkpt>
      <trkpt lat="43.78207" lon="7.13406">
        <ele>926.20001220703</ele>
        <time>2019-02-23T13:38:39.000Z</time>
      </trkpt>
      <trkpt lat="43.78205" lon="7.13408">
        <ele>926</ele>
        <time>2019-02-23T13:38:40.000Z</time>
      </trkpt>
      <trkpt lat="43.78195" lon="7.13417">
        <ele>924.40002441406</ele>
        <time>2019-02-23T13:38:44.000Z</time>
      </trkpt>
      <trkpt lat="43.78187" lon="7.13416">
        <ele>923.20001220703</ele>
        <time>2019-02-23T13:38:47.000Z</time>
      </trkpt>
      <trkpt lat="43.78184" lon="7.13416">
        <ele>922.79998779297</ele>
        <time>2019-02-23T13:38:48.000Z</time>
      </trkpt>
      <trkpt lat="43.78178" lon="7.13416">
        <ele>921.79998779297</ele>
        <time>2019-02-23T13:38:50.000Z</time>
      </trkpt>
      <trkpt lat="43.78175" lon="7.13417">
        <ele>921.40002441406</ele>
        <time>2019-02-23T13:38:51.000Z</time>
      </trkpt>
      <trkpt lat="43.78172" lon="7.13418">
        <ele>920.59997558594</ele>
        <time>2019-02-23T13:38:52.000Z</time>
      </trkpt>
      <trkpt lat="43.78168" lon="7.1342">
        <ele>920.20001220703</ele>
        <time>2019-02-23T13:38:53.000Z</time>
      </trkpt>
      <trkpt lat="43.78162" lon="7.13426">
        <ele>919</ele>
        <time>2019-02-23T13:38:55.000Z</time>
      </trkpt>
      <trkpt lat="43.78154" lon="7.13436">
        <ele>918.40002441406</ele>
        <time>2019-02-23T13:38:58.000Z</time>
      </trkpt>
      <trkpt lat="43.78148" lon="7.13441">
        <ele>918</ele>
        <time>2019-02-23T13:39:00.000Z</time>
      </trkpt>
      <trkpt lat="43.78144" lon="7.13447">
        <ele>916.59997558594</ele>
        <time>2019-02-23T13:39:02.000Z</time>
      </trkpt>
      <trkpt lat="43.78142" lon="7.13455">
        <ele>915.40002441406</ele>
        <time>2019-02-23T13:39:04.000Z</time>
      </trkpt>
      <trkpt lat="43.78142" lon="7.13461">
        <ele>914.40002441406</ele>
        <time>2019-02-23T13:39:06.000Z</time>
      </trkpt>
      <trkpt lat="43.78142" lon="7.13464">
        <ele>914.40002441406</ele>
        <time>2019-02-23T13:39:07.000Z</time>
      </trkpt>
      <trkpt lat="43.78141" lon="7.13465">
        <ele>914</ele>
        <time>2019-02-23T13:39:08.000Z</time>
      </trkpt>
      <trkpt lat="43.78136" lon="7.13463">
        <ele>913.20001220703</ele>
        <time>2019-02-23T13:39:11.000Z</time>
      </trkpt>
      <trkpt lat="43.78126" lon="7.13464">
        <ele>911.79998779297</ele>
        <time>2019-02-23T13:39:15.000Z</time>
      </trkpt>
      <trkpt lat="43.78125" lon="7.13465">
        <ele>911</ele>
        <time>2019-02-23T13:39:16.000Z</time>
      </trkpt>
      <trkpt lat="43.78124" lon="7.13466">
        <ele>910.40002441406</ele>
        <time>2019-02-23T13:39:17.000Z</time>
      </trkpt>
      <trkpt lat="43.78124" lon="7.13468">
        <ele>909.20001220703</ele>
        <time>2019-02-23T13:39:18.000Z</time>
      </trkpt>
      <trkpt lat="43.78123" lon="7.1347">
        <ele>908.79998779297</ele>
        <time>2019-02-23T13:39:19.000Z</time>
      </trkpt>
      <trkpt lat="43.78124" lon="7.13474">
        <ele>908.20001220703</ele>
        <time>2019-02-23T13:39:21.000Z</time>
      </trkpt>
      <trkpt lat="43.78124" lon="7.13477">
        <ele>907.79998779297</ele>
        <time>2019-02-23T13:39:22.000Z</time>
      </trkpt>
      <trkpt lat="43.78121" lon="7.13483">
        <ele>907.20001220703</ele>
        <time>2019-02-23T13:39:24.000Z</time>
      </trkpt>
      <trkpt lat="43.78118" lon="7.13486">
        <ele>906.79998779297</ele>
        <time>2019-02-23T13:39:25.000Z</time>
      </trkpt>
      <trkpt lat="43.78111" lon="7.1349">
        <ele>906</ele>
        <time>2019-02-23T13:39:27.000Z</time>
      </trkpt>
      <trkpt lat="43.78107" lon="7.13492">
        <ele>905.59997558594</ele>
        <time>2019-02-23T13:39:28.000Z</time>
      </trkpt>
      <trkpt lat="43.78094" lon="7.13498">
        <ele>904.40002441406</ele>
        <time>2019-02-23T13:39:32.000Z</time>
      </trkpt>
      <trkpt lat="43.78091" lon="7.135">
        <ele>904.40002441406</ele>
        <time>2019-02-23T13:39:33.000Z</time>
      </trkpt>
      <trkpt lat="43.78079" lon="7.1351">
        <ele>904.20001220703</ele>
        <time>2019-02-23T13:39:38.000Z</time>
      </trkpt>
      <trkpt lat="43.78068" lon="7.13514">
        <ele>904</ele>
        <time>2019-02-23T13:39:42.000Z</time>
      </trkpt>
      <trkpt lat="43.78055" lon="7.13517">
        <ele>903.40002441406</ele>
        <time>2019-02-23T13:39:46.000Z</time>
      </trkpt>
      <trkpt lat="43.78052" lon="7.13515">
        <ele>903.40002441406</ele>
        <time>2019-02-23T13:39:47.000Z</time>
      </trkpt>
      <trkpt lat="43.78035" lon="7.1351">
        <ele>902.79998779297</ele>
        <time>2019-02-23T13:39:52.000Z</time>
      </trkpt>
      <trkpt lat="43.7803" lon="7.13511">
        <ele>902.20001220703</ele>
        <time>2019-02-23T13:39:53.000Z</time>
      </trkpt>
      <trkpt lat="43.78018" lon="7.13513">
        <ele>901.20001220703</ele>
        <time>2019-02-23T13:39:56.000Z</time>
      </trkpt>
      <trkpt lat="43.78015" lon="7.13515">
        <ele>900.40002441406</ele>
        <time>2019-02-23T13:39:57.000Z</time>
      </trkpt>
      <trkpt lat="43.78005" lon="7.13524">
        <ele>900</ele>
        <time>2019-02-23T13:40:00.000Z</time>
      </trkpt>
      <trkpt lat="43.77995" lon="7.13533">
        <ele>899</ele>
        <time>2019-02-23T13:40:03.000Z</time>
      </trkpt>
      <trkpt lat="43.77992" lon="7.13535">
        <ele>898.59997558594</ele>
        <time>2019-02-23T13:40:04.000Z</time>
      </trkpt>
      <trkpt lat="43.77986" lon="7.13542">
        <ele>897.79998779297</ele>
        <time>2019-02-23T13:40:06.000Z</time>
      </trkpt>
      <trkpt lat="43.77985" lon="7.13546">
        <ele>897.59997558594</ele>
        <time>2019-02-23T13:40:07.000Z</time>
      </trkpt>
      <trkpt lat="43.77984" lon="7.13551">
        <ele>897.59997558594</ele>
        <time>2019-02-23T13:40:08.000Z</time>
      </trkpt>
      <trkpt lat="43.77981" lon="7.13555">
        <ele>897.20001220703</ele>
        <time>2019-02-23T13:40:10.000Z</time>
      </trkpt>
      <trkpt lat="43.77976" lon="7.13561">
        <ele>896.40002441406</ele>
        <time>2019-02-23T13:40:15.000Z</time>
      </trkpt>
      <trkpt lat="43.77971" lon="7.13568">
        <ele>896.20001220703</ele>
        <time>2019-02-23T13:40:19.000Z</time>
      </trkpt>
      <trkpt lat="43.77968" lon="7.13573">
        <ele>896</ele>
        <time>2019-02-23T13:40:21.000Z</time>
      </trkpt>
      <trkpt lat="43.77964" lon="7.13583">
        <ele>896</ele>
        <time>2019-02-23T13:40:24.000Z</time>
      </trkpt>
      <trkpt lat="43.77957" lon="7.13595">
        <ele>895.59997558594</ele>
        <time>2019-02-23T13:40:29.000Z</time>
      </trkpt>
      <trkpt lat="43.77956" lon="7.13606">
        <ele>895.40002441406</ele>
        <time>2019-02-23T13:40:32.000Z</time>
      </trkpt>
      <trkpt lat="43.77955" lon="7.1361">
        <ele>895.40002441406</ele>
        <time>2019-02-23T13:40:33.000Z</time>
      </trkpt>
      <trkpt lat="43.77955" lon="7.13624">
        <ele>894</ele>
        <time>2019-02-23T13:40:37.000Z</time>
      </trkpt>
      <trkpt lat="43.77956" lon="7.1363">
        <ele>894</ele>
        <time>2019-02-23T13:40:39.000Z</time>
      </trkpt>
      <trkpt lat="43.7796" lon="7.13641">
        <ele>893.20001220703</ele>
        <time>2019-02-23T13:40:42.000Z</time>
      </trkpt>
      <trkpt lat="43.7796" lon="7.13644">
        <ele>892.40002441406</ele>
        <time>2019-02-23T13:40:43.000Z</time>
      </trkpt>
      <trkpt lat="43.77954" lon="7.13655">
        <ele>891.40002441406</ele>
        <time>2019-02-23T13:40:47.000Z</time>
      </trkpt>
      <trkpt lat="43.77958" lon="7.13665">
        <ele>890.40002441406</ele>
        <time>2019-02-23T13:40:50.000Z</time>
      </trkpt>
      <trkpt lat="43.77959" lon="7.13669">
        <ele>889.79998779297</ele>
        <time>2019-02-23T13:40:51.000Z</time>
      </trkpt>
      <trkpt lat="43.77961" lon="7.13675">
        <ele>889</ele>
        <time>2019-02-23T13:40:53.000Z</time>
      </trkpt>
      <trkpt lat="43.77961" lon="7.13677">
        <ele>888.20001220703</ele>
        <time>2019-02-23T13:40:54.000Z</time>
      </trkpt>
      <trkpt lat="43.77958" lon="7.13681">
        <ele>887</ele>
        <time>2019-02-23T13:40:56.000Z</time>
      </trkpt>
      <trkpt lat="43.77953" lon="7.13684">
        <ele>885.59997558594</ele>
        <time>2019-02-23T13:40:58.000Z</time>
      </trkpt>
      <trkpt lat="43.77947" lon="7.13681">
        <ele>884.59997558594</ele>
        <time>2019-02-23T13:41:00.000Z</time>
      </trkpt>
      <trkpt lat="43.77944" lon="7.13679">
        <ele>883.79998779297</ele>
        <time>2019-02-23T13:41:01.000Z</time>
      </trkpt>
      <trkpt lat="43.7794" lon="7.13676">
        <ele>883.40002441406</ele>
        <time>2019-02-23T13:41:02.000Z</time>
      </trkpt>
      <trkpt lat="43.77934" lon="7.13671">
        <ele>882.79998779297</ele>
        <time>2019-02-23T13:41:04.000Z</time>
      </trkpt>
      <trkpt lat="43.77927" lon="7.1367">
        <ele>882.20001220703</ele>
        <time>2019-02-23T13:41:06.000Z</time>
      </trkpt>
      <trkpt lat="43.77917" lon="7.13669">
        <ele>881.59997558594</ele>
        <time>2019-02-23T13:41:09.000Z</time>
      </trkpt>
      <trkpt lat="43.77907" lon="7.13667">
        <ele>880.79998779297</ele>
        <time>2019-02-23T13:41:12.000Z</time>
      </trkpt>
      <trkpt lat="43.77903" lon="7.13667">
        <ele>880.40002441406</ele>
        <time>2019-02-23T13:41:13.000Z</time>
      </trkpt>
      <trkpt lat="43.77894" lon="7.13671">
        <ele>880.40002441406</ele>
        <time>2019-02-23T13:41:16.000Z</time>
      </trkpt>
      <trkpt lat="43.77882" lon="7.13674">
        <ele>880.59997558594</ele>
        <time>2019-02-23T13:41:20.000Z</time>
      </trkpt>
      <trkpt lat="43.77867" lon="7.13675">
        <ele>879.79998779297</ele>
        <time>2019-02-23T13:41:24.000Z</time>
      </trkpt>
      <trkpt lat="43.77862" lon="7.13675">
        <ele>879.59997558594</ele>
        <time>2019-02-23T13:41:25.000Z</time>
      </trkpt>
      <trkpt lat="43.77858" lon="7.13676">
        <ele>879.40002441406</ele>
        <time>2019-02-23T13:41:26.000Z</time>
      </trkpt>
      <trkpt lat="43.7785" lon="7.13679">
        <ele>879</ele>
        <time>2019-02-23T13:41:29.000Z</time>
      </trkpt>
      <trkpt lat="43.77846" lon="7.13678">
        <ele>878.79998779297</ele>
        <time>2019-02-23T13:41:31.000Z</time>
      </trkpt>
      <trkpt lat="43.77842" lon="7.13676">
        <ele>878.40002441406</ele>
        <time>2019-02-23T13:41:33.000Z</time>
      </trkpt>
      <trkpt lat="43.77837" lon="7.13673">
        <ele>877.59997558594</ele>
        <time>2019-02-23T13:41:35.000Z</time>
      </trkpt>
      <trkpt lat="43.77835" lon="7.13668">
        <ele>877.40002441406</ele>
        <time>2019-02-23T13:41:37.000Z</time>
      </trkpt>
      <trkpt lat="43.77834" lon="7.13665">
        <ele>877</ele>
        <time>2019-02-23T13:41:38.000Z</time>
      </trkpt>
      <trkpt lat="43.77831" lon="7.13656">
        <ele>876.59997558594</ele>
        <time>2019-02-23T13:41:41.000Z</time>
      </trkpt>
      <trkpt lat="43.77827" lon="7.13653">
        <ele>876.20001220703</ele>
        <time>2019-02-23T13:41:43.000Z</time>
      </trkpt>
      <trkpt lat="43.77825" lon="7.13653">
        <ele>875.59997558594</ele>
        <time>2019-02-23T13:41:44.000Z</time>
      </trkpt>
      <trkpt lat="43.77822" lon="7.13654">
        <ele>875.40002441406</ele>
        <time>2019-02-23T13:41:45.000Z</time>
      </trkpt>
      <trkpt lat="43.77816" lon="7.13657">
        <ele>874.59997558594</ele>
        <time>2019-02-23T13:41:47.000Z</time>
      </trkpt>
      <trkpt lat="43.77812" lon="7.13659">
        <ele>874</ele>
        <time>2019-02-23T13:41:49.000Z</time>
      </trkpt>
      <trkpt lat="43.7781" lon="7.1366">
        <ele>873.59997558594</ele>
        <time>2019-02-23T13:41:50.000Z</time>
      </trkpt>
      <trkpt lat="43.77808" lon="7.13661">
        <ele>873.20001220703</ele>
        <time>2019-02-23T13:41:51.000Z</time>
      </trkpt>
      <trkpt lat="43.778" lon="7.13666">
        <ele>872.79998779297</ele>
        <time>2019-02-23T13:41:54.000Z</time>
      </trkpt>
      <trkpt lat="43.77797" lon="7.13665">
        <ele>873</ele>
        <time>2019-02-23T13:41:55.000Z</time>
      </trkpt>
      <trkpt lat="43.77788" lon="7.13662">
        <ele>872.59997558594</ele>
        <time>2019-02-23T13:41:58.000Z</time>
      </trkpt>
      <trkpt lat="43.77783" lon="7.13662">
        <ele>872.40002441406</ele>
        <time>2019-02-23T13:42:00.000Z</time>
      </trkpt>
      <trkpt lat="43.77775" lon="7.13664">
        <ele>872</ele>
        <time>2019-02-23T13:42:03.000Z</time>
      </trkpt>
      <trkpt lat="43.77768" lon="7.13668">
        <ele>871.79998779297</ele>
        <time>2019-02-23T13:42:06.000Z</time>
      </trkpt>
      <trkpt lat="43.77766" lon="7.13671">
        <ele>871.59997558594</ele>
        <time>2019-02-23T13:42:07.000Z</time>
      </trkpt>
      <trkpt lat="43.77765" lon="7.13676">
        <ele>871</ele>
        <time>2019-02-23T13:42:09.000Z</time>
      </trkpt>
      <trkpt lat="43.7776" lon="7.13681">
        <ele>870</ele>
        <time>2019-02-23T13:42:11.000Z</time>
      </trkpt>
      <trkpt lat="43.77758" lon="7.13682">
        <ele>869.40002441406</ele>
        <time>2019-02-23T13:42:12.000Z</time>
      </trkpt>
      <trkpt lat="43.77756" lon="7.13685">
        <ele>869</ele>
        <time>2019-02-23T13:42:13.000Z</time>
      </trkpt>
      <trkpt lat="43.77753" lon="7.13687">
        <ele>868.20001220703</ele>
        <time>2019-02-23T13:42:14.000Z</time>
      </trkpt>
      <trkpt lat="43.7775" lon="7.13688">
        <ele>868.20001220703</ele>
        <time>2019-02-23T13:42:15.000Z</time>
      </trkpt>
      <trkpt lat="43.77741" lon="7.13692">
        <ele>867</ele>
        <time>2019-02-23T13:42:19.000Z</time>
      </trkpt>
      <trkpt lat="43.77739" lon="7.13699">
        <ele>866</ele>
        <time>2019-02-23T13:42:21.000Z</time>
      </trkpt>
      <trkpt lat="43.77739" lon="7.13709">
        <ele>865.20001220703</ele>
        <time>2019-02-23T13:42:23.000Z</time>
      </trkpt>
      <trkpt lat="43.77739" lon="7.13713">
        <ele>865</ele>
        <time>2019-02-23T13:42:24.000Z</time>
      </trkpt>
      <trkpt lat="43.77735" lon="7.13726">
        <ele>863.59997558594</ele>
        <time>2019-02-23T13:42:27.000Z</time>
      </trkpt>
      <trkpt lat="43.77731" lon="7.13733">
        <ele>862.79998779297</ele>
        <time>2019-02-23T13:42:29.000Z</time>
      </trkpt>
      <trkpt lat="43.77728" lon="7.13735">
        <ele>862.20001220703</ele>
        <time>2019-02-23T13:42:30.000Z</time>
      </trkpt>
      <trkpt lat="43.77725" lon="7.13737">
        <ele>861.59997558594</ele>
        <time>2019-02-23T13:42:31.000Z</time>
      </trkpt>
      <trkpt lat="43.77722" lon="7.13739">
        <ele>861.20001220703</ele>
        <time>2019-02-23T13:42:32.000Z</time>
      </trkpt>
      <trkpt lat="43.77715" lon="7.13748">
        <ele>860.79998779297</ele>
        <time>2019-02-23T13:42:35.000Z</time>
      </trkpt>
      <trkpt lat="43.77713" lon="7.13752">
        <ele>860.40002441406</ele>
        <time>2019-02-23T13:42:36.000Z</time>
      </trkpt>
      <trkpt lat="43.7771" lon="7.13756">
        <ele>860</ele>
        <time>2019-02-23T13:42:37.000Z</time>
      </trkpt>
      <trkpt lat="43.77707" lon="7.13759">
        <ele>859.40002441406</ele>
        <time>2019-02-23T13:42:38.000Z</time>
      </trkpt>
      <trkpt lat="43.77704" lon="7.13762">
        <ele>859</ele>
        <time>2019-02-23T13:42:39.000Z</time>
      </trkpt>
      <trkpt lat="43.77701" lon="7.13764">
        <ele>858</ele>
        <time>2019-02-23T13:42:40.000Z</time>
      </trkpt>
      <trkpt lat="43.77699" lon="7.13766">
        <ele>857.79998779297</ele>
        <time>2019-02-23T13:42:41.000Z</time>
      </trkpt>
      <trkpt lat="43.77689" lon="7.13771">
        <ele>858</ele>
        <time>2019-02-23T13:42:45.000Z</time>
      </trkpt>
      <trkpt lat="43.77674" lon="7.13781">
        <ele>857.59997558594</ele>
        <time>2019-02-23T13:42:49.000Z</time>
      </trkpt>
      <trkpt lat="43.77671" lon="7.13785">
        <ele>857</ele>
        <time>2019-02-23T13:42:50.000Z</time>
      </trkpt>
      <trkpt lat="43.77667" lon="7.13788">
        <ele>856.59997558594</ele>
        <time>2019-02-23T13:42:51.000Z</time>
      </trkpt>
      <trkpt lat="43.7766" lon="7.13792">
        <ele>855.59997558594</ele>
        <time>2019-02-23T13:42:53.000Z</time>
      </trkpt>
      <trkpt lat="43.77658" lon="7.13794">
        <ele>855.40002441406</ele>
        <time>2019-02-23T13:42:54.000Z</time>
      </trkpt>
      <trkpt lat="43.77652" lon="7.13803">
        <ele>854.79998779297</ele>
        <time>2019-02-23T13:42:57.000Z</time>
      </trkpt>
      <trkpt lat="43.77649" lon="7.13809">
        <ele>854.20001220703</ele>
        <time>2019-02-23T13:42:59.000Z</time>
      </trkpt>
      <trkpt lat="43.77646" lon="7.13815">
        <ele>853.79998779297</ele>
        <time>2019-02-23T13:43:01.000Z</time>
      </trkpt>
      <trkpt lat="43.77644" lon="7.13816">
        <ele>853</ele>
        <time>2019-02-23T13:43:02.000Z</time>
      </trkpt>
      <trkpt lat="43.77635" lon="7.13815">
        <ele>851.40002441406</ele>
        <time>2019-02-23T13:43:06.000Z</time>
      </trkpt>
      <trkpt lat="43.77633" lon="7.13814">
        <ele>851</ele>
        <time>2019-02-23T13:43:07.000Z</time>
      </trkpt>
      <trkpt lat="43.77628" lon="7.13816">
        <ele>849.79998779297</ele>
        <time>2019-02-23T13:43:09.000Z</time>
      </trkpt>
      <trkpt lat="43.77625" lon="7.13818">
        <ele>848.59997558594</ele>
        <time>2019-02-23T13:43:10.000Z</time>
      </trkpt>
      <trkpt lat="43.77622" lon="7.13821">
        <ele>847.59997558594</ele>
        <time>2019-02-23T13:43:11.000Z</time>
      </trkpt>
      <trkpt lat="43.7762" lon="7.13824">
        <ele>847.20001220703</ele>
        <time>2019-02-23T13:43:12.000Z</time>
      </trkpt>
      <trkpt lat="43.77614" lon="7.1383">
        <ele>845.59997558594</ele>
        <time>2019-02-23T13:43:15.000Z</time>
      </trkpt>
      <trkpt lat="43.77611" lon="7.13832">
        <ele>845</ele>
        <time>2019-02-23T13:43:16.000Z</time>
      </trkpt>
      <trkpt lat="43.77607" lon="7.13834">
        <ele>844.40002441406</ele>
        <time>2019-02-23T13:43:17.000Z</time>
      </trkpt>
      <trkpt lat="43.77603" lon="7.13836">
        <ele>843.79998779297</ele>
        <time>2019-02-23T13:43:18.000Z</time>
      </trkpt>
      <trkpt lat="43.77599" lon="7.13838">
        <ele>843</ele>
        <time>2019-02-23T13:43:19.000Z</time>
      </trkpt>
      <trkpt lat="43.77594" lon="7.13839">
        <ele>842</ele>
        <time>2019-02-23T13:43:20.000Z</time>
      </trkpt>
      <trkpt lat="43.77585" lon="7.13839">
        <ele>840.79998779297</ele>
        <time>2019-02-23T13:43:23.000Z</time>
      </trkpt>
      <trkpt lat="43.77584" lon="7.13838">
        <ele>840.40002441406</ele>
        <time>2019-02-23T13:43:24.000Z</time>
      </trkpt>
      <trkpt lat="43.77581" lon="7.13839">
        <ele>840.40002441406</ele>
        <time>2019-02-23T13:43:25.000Z</time>
      </trkpt>
      <trkpt lat="43.77578" lon="7.13839">
        <ele>839</ele>
        <time>2019-02-23T13:43:27.000Z</time>
      </trkpt>
      <trkpt lat="43.77579" lon="7.13839">
        <ele>838.40002441406</ele>
        <time>2019-02-23T13:43:28.000Z</time>
      </trkpt>
      <trkpt lat="43.77578" lon="7.13839">
        <ele>838</ele>
        <time>2019-02-23T13:43:29.000Z</time>
      </trkpt>
      <trkpt lat="43.77578" lon="7.1384">
        <ele>837.20001220703</ele>
        <time>2019-02-23T13:43:36.000Z</time>
      </trkpt>
      <trkpt lat="43.77578" lon="7.13838">
        <ele>836.79998779297</ele>
        <time>2019-02-23T13:43:40.000Z</time>
      </trkpt>
      <trkpt lat="43.77578" lon="7.13837">
        <ele>836.59997558594</ele>
        <time>2019-02-23T13:43:42.000Z</time>
      </trkpt>
      <trkpt lat="43.7758" lon="7.13832">
        <ele>836.79998779297</ele>
        <time>2019-02-23T13:43:47.000Z</time>
      </trkpt>
      <trkpt lat="43.77581" lon="7.1383">
        <ele>837</ele>
        <time>2019-02-23T13:43:50.000Z</time>
      </trkpt>
      <trkpt lat="43.7758" lon="7.13827">
        <ele>836.79998779297</ele>
        <time>2019-02-23T13:43:57.000Z</time>
      </trkpt>
      <trkpt lat="43.77578" lon="7.13826">
        <ele>836.20001220703</ele>
        <time>2019-02-23T13:44:05.000Z</time>
      </trkpt>
      <trkpt lat="43.77578" lon="7.13826">
        <ele>836.20001220703</ele>
        <time>2019-02-23T13:44:07.000Z</time>
      </trkpt>
      <trkpt lat="43.77578" lon="7.13826">
        <ele>835.79998779297</ele>
        <time>2019-02-23T13:44:09.000Z</time>
      </trkpt>
      <trkpt lat="43.7758" lon="7.13827">
        <ele>835.59997558594</ele>
        <time>2019-02-23T13:44:15.000Z</time>
      </trkpt>
      <trkpt lat="43.77582" lon="7.13825">
        <ele>836</ele>
        <time>2019-02-23T13:44:18.000Z</time>
      </trkpt>
      <trkpt lat="43.77584" lon="7.13824">
        <ele>836.40002441406</ele>
        <time>2019-02-23T13:44:20.000Z</time>
      </trkpt>
      <trkpt lat="43.77586" lon="7.13822">
        <ele>836.79998779297</ele>
        <time>2019-02-23T13:44:24.000Z</time>
      </trkpt>
      <trkpt lat="43.77587" lon="7.1382">
        <ele>837</ele>
        <time>2019-02-23T13:44:28.000Z</time>
      </trkpt>
      <trkpt lat="43.77587" lon="7.13818">
        <ele>836.59997558594</ele>
        <time>2019-02-23T13:44:34.000Z</time>
      </trkpt>
      <trkpt lat="43.77586" lon="7.1382">
        <ele>836.20001220703</ele>
        <time>2019-02-23T13:44:48.000Z</time>
      </trkpt>
      <trkpt lat="43.77586" lon="7.1382">
        <ele>836.20001220703</ele>
        <time>2019-02-23T13:44:55.000Z</time>
      </trkpt>
      <trkpt lat="43.77585" lon="7.1382">
        <ele>836</ele>
        <time>2019-02-23T13:45:03.000Z</time>
      </trkpt>
      <trkpt lat="43.77585" lon="7.1382">
        <ele>835.79998779297</ele>
        <time>2019-02-23T13:45:10.000Z</time>
      </trkpt>
      <trkpt lat="43.77585" lon="7.13819">
        <ele>835.79998779297</ele>
        <time>2019-02-23T13:45:15.000Z</time>
      </trkpt>
      <trkpt lat="43.77585" lon="7.13818">
        <ele>835.79998779297</ele>
        <time>2019-02-23T13:45:32.000Z</time>
      </trkpt>
      <trkpt lat="43.77585" lon="7.13817">
        <ele>835.79998779297</ele>
        <time>2019-02-23T13:45:47.000Z</time>
      </trkpt>
      <trkpt lat="43.77585" lon="7.13818">
        <ele>835.59997558594</ele>
        <time>2019-02-23T13:46:03.000Z</time>
      </trkpt>
      <trkpt lat="43.77584" lon="7.1382">
        <ele>835.59997558594</ele>
        <time>2019-02-23T13:46:14.000Z</time>
      </trkpt>
      <trkpt lat="43.77584" lon="7.13821">
        <ele>835.40002441406</ele>
        <time>2019-02-23T13:46:25.000Z</time>
      </trkpt>
      <trkpt lat="43.77582" lon="7.13821">
        <ele>835.40002441406</ele>
        <time>2019-02-23T13:46:36.000Z</time>
      </trkpt>
      <trkpt lat="43.77581" lon="7.13823">
        <ele>835.20001220703</ele>
        <time>2019-02-23T13:46:47.000Z</time>
      </trkpt>
      <trkpt lat="43.77581" lon="7.13822">
        <ele>835.20001220703</ele>
        <time>2019-02-23T13:46:56.000Z</time>
      </trkpt>
      <trkpt lat="43.77582" lon="7.13822">
        <ele>835.40002441406</ele>
        <time>2019-02-23T13:47:06.000Z</time>
      </trkpt>
      <trkpt lat="43.77582" lon="7.13823">
        <ele>836.20001220703</ele>
        <time>2019-02-23T13:47:14.000Z</time>
      </trkpt>
      <trkpt lat="43.77582" lon="7.13824">
        <ele>835.79998779297</ele>
        <time>2019-02-23T13:47:21.000Z</time>
      </trkpt>
      <trkpt lat="43.77582" lon="7.13824">
        <ele>836.20001220703</ele>
        <time>2019-02-23T13:47:31.000Z</time>
      </trkpt>
      <trkpt lat="43.77582" lon="7.13824">
        <ele>836</ele>
        <time>2019-02-23T13:47:38.000Z</time>
      </trkpt>
      <trkpt lat="43.77582" lon="7.13824">
        <ele>835.79998779297</ele>
        <time>2019-02-23T13:47:40.000Z</time>
      </trkpt>
      <trkpt lat="43.77582" lon="7.13824">
        <ele>835.59997558594</ele>
        <time>2019-02-23T13:47:49.000Z</time>
      </trkpt>
      <trkpt lat="43.77583" lon="7.13823">
        <ele>836.20001220703</ele>
        <time>2019-02-23T13:48:01.000Z</time>
      </trkpt>
      <trkpt lat="43.77583" lon="7.13823">
        <ele>836.40002441406</ele>
        <time>2019-02-23T13:48:07.000Z</time>
      </trkpt>
      <trkpt lat="43.77582" lon="7.13826">
        <ele>836.20001220703</ele>
        <time>2019-02-23T13:48:14.000Z</time>
      </trkpt>
      <trkpt lat="43.77577" lon="7.13831">
        <ele>836.79998779297</ele>
        <time>2019-02-23T13:48:21.000Z</time>
      </trkpt>
      <trkpt lat="43.77575" lon="7.13832">
        <ele>836.20001220703</ele>
        <time>2019-02-23T13:48:27.000Z</time>
      </trkpt>
      <trkpt lat="43.77575" lon="7.13829">
        <ele>835.59997558594</ele>
        <time>2019-02-23T13:48:36.000Z</time>
      </trkpt>
      <trkpt lat="43.77575" lon="7.13828">
        <ele>835.40002441406</ele>
        <time>2019-02-23T13:48:44.000Z</time>
      </trkpt>
      <trkpt lat="43.77576" lon="7.13829">
        <ele>835.20001220703</ele>
        <time>2019-02-23T13:48:54.000Z</time>
      </trkpt>
      <trkpt lat="43.77577" lon="7.13825">
        <ele>835.40002441406</ele>
        <time>2019-02-23T13:48:59.000Z</time>
      </trkpt>
      <trkpt lat="43.77577" lon="7.13823">
        <ele>835.40002441406</ele>
        <time>2019-02-23T13:49:05.000Z</time>
      </trkpt>
      <trkpt lat="43.77577" lon="7.13817">
        <ele>835.59997558594</ele>
        <time>2019-02-23T13:49:12.000Z</time>
      </trkpt>
      <trkpt lat="43.77574" lon="7.13809">
        <ele>836.20001220703</ele>
        <time>2019-02-23T13:49:18.000Z</time>
      </trkpt>
      <trkpt lat="43.77572" lon="7.13806">
        <ele>836.79998779297</ele>
        <time>2019-02-23T13:49:23.000Z</time>
      </trkpt>
      <trkpt lat="43.7757" lon="7.13805">
        <ele>837.20001220703</ele>
        <time>2019-02-23T13:49:25.000Z</time>
      </trkpt>
      <trkpt lat="43.7757" lon="7.13804">
        <ele>837.20001220703</ele>
        <time>2019-02-23T13:49:26.000Z</time>
      </trkpt>
      <trkpt lat="43.77569" lon="7.13801">
        <ele>837.59997558594</ele>
        <time>2019-02-23T13:49:28.000Z</time>
      </trkpt>
      <trkpt lat="43.77569" lon="7.13799">
        <ele>838</ele>
        <time>2019-02-23T13:49:31.000Z</time>
      </trkpt>
      <trkpt lat="43.77569" lon="7.13797">
        <ele>838.59997558594</ele>
        <time>2019-02-23T13:49:35.000Z</time>
      </trkpt>
      <trkpt lat="43.77569" lon="7.13794">
        <ele>839</ele>
        <time>2019-02-23T13:49:40.000Z</time>
      </trkpt>
      <trkpt lat="43.77569" lon="7.13787">
        <ele>840.20001220703</ele>
        <time>2019-02-23T13:49:47.000Z</time>
      </trkpt>
      <trkpt lat="43.77569" lon="7.13784">
        <ele>840.40002441406</ele>
        <time>2019-02-23T13:49:49.000Z</time>
      </trkpt>
      <trkpt lat="43.77571" lon="7.13777">
        <ele>841.40002441406</ele>
        <time>2019-02-23T13:49:56.000Z</time>
      </trkpt>
      <trkpt lat="43.77573" lon="7.13771">
        <ele>842</ele>
        <time>2019-02-23T13:50:02.000Z</time>
      </trkpt>
      <trkpt lat="43.77574" lon="7.1377">
        <ele>842.40002441406</ele>
        <time>2019-02-23T13:50:04.000Z</time>
      </trkpt>
      <trkpt lat="43.77576" lon="7.13765">
        <ele>843.40002441406</ele>
        <time>2019-02-23T13:50:11.000Z</time>
      </trkpt>
      <trkpt lat="43.77576" lon="7.1376">
        <ele>844.40002441406</ele>
        <time>2019-02-23T13:50:18.000Z</time>
      </trkpt>
      <trkpt lat="43.77573" lon="7.13758">
        <ele>845.40002441406</ele>
        <time>2019-02-23T13:50:24.000Z</time>
      </trkpt>
      <trkpt lat="43.77573" lon="7.13758">
        <ele>845.40002441406</ele>
        <time>2019-02-23T13:50:25.000Z</time>
      </trkpt>
      <trkpt lat="43.77571" lon="7.13755">
        <ele>845.79998779297</ele>
        <time>2019-02-23T13:50:28.000Z</time>
      </trkpt>
      <trkpt lat="43.77573" lon="7.13753">
        <ele>846</ele>
        <time>2019-02-23T13:50:30.000Z</time>
      </trkpt>
      <trkpt lat="43.77574" lon="7.13753">
        <ele>846.40002441406</ele>
        <time>2019-02-23T13:50:33.000Z</time>
      </trkpt>
      <trkpt lat="43.77577" lon="7.13752">
        <ele>847.20001220703</ele>
        <time>2019-02-23T13:50:39.000Z</time>
      </trkpt>
      <trkpt lat="43.77578" lon="7.1375">
        <ele>847.59997558594</ele>
        <time>2019-02-23T13:50:42.000Z</time>
      </trkpt>
      <trkpt lat="43.77579" lon="7.13747">
        <ele>848</ele>
        <time>2019-02-23T13:50:46.000Z</time>
      </trkpt>
      <trkpt lat="43.77577" lon="7.13743">
        <ele>848.59997558594</ele>
        <time>2019-02-23T13:50:52.000Z</time>
      </trkpt>
      <trkpt lat="43.77576" lon="7.13742">
        <ele>848.59997558594</ele>
        <time>2019-02-23T13:50:53.000Z</time>
      </trkpt>
      <trkpt lat="43.77575" lon="7.1374">
        <ele>849.20001220703</ele>
        <time>2019-02-23T13:51:00.000Z</time>
      </trkpt>
      <trkpt lat="43.77574" lon="7.13737">
        <ele>849.20001220703</ele>
        <time>2019-02-23T13:51:05.000Z</time>
      </trkpt>
      <trkpt lat="43.77573" lon="7.1373">
        <ele>849.40002441406</ele>
        <time>2019-02-23T13:51:10.000Z</time>
      </trkpt>
      <trkpt lat="43.77573" lon="7.13729">
        <ele>849.59997558594</ele>
        <time>2019-02-23T13:51:11.000Z</time>
      </trkpt>
      <trkpt lat="43.77572" lon="7.13729">
        <ele>849.79998779297</ele>
        <time>2019-02-23T13:51:12.000Z</time>
      </trkpt>
      <trkpt lat="43.77571" lon="7.13728">
        <ele>850.20001220703</ele>
        <time>2019-02-23T13:51:15.000Z</time>
      </trkpt>
      <trkpt lat="43.77569" lon="7.13724">
        <ele>850.79998779297</ele>
        <time>2019-02-23T13:51:21.000Z</time>
      </trkpt>
      <trkpt lat="43.77571" lon="7.13719">
        <ele>851.20001220703</ele>
        <time>2019-02-23T13:51:28.000Z</time>
      </trkpt>
      <trkpt lat="43.77574" lon="7.13711">
        <ele>851.79998779297</ele>
        <time>2019-02-23T13:51:33.000Z</time>
      </trkpt>
      <trkpt lat="43.77575" lon="7.1371">
        <ele>852</ele>
        <time>2019-02-23T13:51:34.000Z</time>
      </trkpt>
      <trkpt lat="43.77574" lon="7.13704">
        <ele>852.20001220703</ele>
        <time>2019-02-23T13:51:37.000Z</time>
      </trkpt>
      <trkpt lat="43.77576" lon="7.137">
        <ele>852.40002441406</ele>
        <time>2019-02-23T13:51:39.000Z</time>
      </trkpt>
      <trkpt lat="43.77578" lon="7.13695">
        <ele>852.40002441406</ele>
        <time>2019-02-23T13:51:41.000Z</time>
      </trkpt>
      <trkpt lat="43.77578" lon="7.13688">
        <ele>852.59997558594</ele>
        <time>2019-02-23T13:51:44.000Z</time>
      </trkpt>
      <trkpt lat="43.77579" lon="7.13685">
        <ele>852.79998779297</ele>
        <time>2019-02-23T13:51:45.000Z</time>
      </trkpt>
      <trkpt lat="43.7758" lon="7.13683">
        <ele>853</ele>
        <time>2019-02-23T13:51:46.000Z</time>
      </trkpt>
      <trkpt lat="43.77581" lon="7.1368">
        <ele>853.59997558594</ele>
        <time>2019-02-23T13:51:48.000Z</time>
      </trkpt>
      <trkpt lat="43.77581" lon="7.13678">
        <ele>854</ele>
        <time>2019-02-23T13:51:49.000Z</time>
      </trkpt>
      <trkpt lat="43.77581" lon="7.13677">
        <ele>854.40002441406</ele>
        <time>2019-02-23T13:51:50.000Z</time>
      </trkpt>
      <trkpt lat="43.7758" lon="7.13675">
        <ele>855.20001220703</ele>
        <time>2019-02-23T13:51:53.000Z</time>
      </trkpt>
      <trkpt lat="43.77579" lon="7.13673">
        <ele>855.40002441406</ele>
        <time>2019-02-23T13:51:55.000Z</time>
      </trkpt>
      <trkpt lat="43.77577" lon="7.1367">
        <ele>855.40002441406</ele>
        <time>2019-02-23T13:51:57.000Z</time>
      </trkpt>
      <trkpt lat="43.77576" lon="7.13665">
        <ele>855.59997558594</ele>
        <time>2019-02-23T13:51:59.000Z</time>
      </trkpt>
      <trkpt lat="43.77574" lon="7.13645">
        <ele>855.40002441406</ele>
        <time>2019-02-23T13:52:05.000Z</time>
      </trkpt>
      <trkpt lat="43.77571" lon="7.13627">
        <ele>855.40002441406</ele>
        <time>2019-02-23T13:52:10.000Z</time>
      </trkpt>
      <trkpt lat="43.77569" lon="7.13605">
        <ele>855.40002441406</ele>
        <time>2019-02-23T13:52:16.000Z</time>
      </trkpt>
      <trkpt lat="43.77565" lon="7.13584">
        <ele>855.40002441406</ele>
        <time>2019-02-23T13:52:22.000Z</time>
      </trkpt>
      <trkpt lat="43.77561" lon="7.13572">
        <ele>855.59997558594</ele>
        <time>2019-02-23T13:52:26.000Z</time>
      </trkpt>
      <trkpt lat="43.77561" lon="7.13569">
        <ele>855.59997558594</ele>
        <time>2019-02-23T13:52:27.000Z</time>
      </trkpt>
      <trkpt lat="43.77564" lon="7.13562">
        <ele>856</ele>
        <time>2019-02-23T13:52:32.000Z</time>
      </trkpt>
      <trkpt lat="43.77566" lon="7.13555">
        <ele>856</ele>
        <time>2019-02-23T13:52:39.000Z</time>
      </trkpt>
      <trkpt lat="43.77568" lon="7.13551">
        <ele>856</ele>
        <time>2019-02-23T13:52:45.000Z</time>
      </trkpt>
      <trkpt lat="43.77571" lon="7.13545">
        <ele>855.20001220703</ele>
        <time>2019-02-23T13:52:52.000Z</time>
      </trkpt>
      <trkpt lat="43.77575" lon="7.13539">
        <ele>855</ele>
        <time>2019-02-23T13:52:59.000Z</time>
      </trkpt>
      <trkpt lat="43.77573" lon="7.13528">
        <ele>854.40002441406</ele>
        <time>2019-02-23T13:53:06.000Z</time>
      </trkpt>
      <trkpt lat="43.77573" lon="7.13525">
        <ele>853.79998779297</ele>
        <time>2019-02-23T13:53:11.000Z</time>
      </trkpt>
      <trkpt lat="43.77577" lon="7.13517">
        <ele>853.79998779297</ele>
        <time>2019-02-23T13:53:15.000Z</time>
      </trkpt>
      <trkpt lat="43.77584" lon="7.13509">
        <ele>853.20001220703</ele>
        <time>2019-02-23T13:53:18.000Z</time>
      </trkpt>
      <trkpt lat="43.77587" lon="7.13506">
        <ele>852.79998779297</ele>
        <time>2019-02-23T13:53:19.000Z</time>
      </trkpt>
      <trkpt lat="43.77589" lon="7.13502">
        <ele>852.40002441406</ele>
        <time>2019-02-23T13:53:20.000Z</time>
      </trkpt>
      <trkpt lat="43.77593" lon="7.13493">
        <ele>851.79998779297</ele>
        <time>2019-02-23T13:53:22.000Z</time>
      </trkpt>
      <trkpt lat="43.77594" lon="7.13489">
        <ele>851.40002441406</ele>
        <time>2019-02-23T13:53:23.000Z</time>
      </trkpt>
      <trkpt lat="43.77597" lon="7.13481">
        <ele>850.79998779297</ele>
        <time>2019-02-23T13:53:25.000Z</time>
      </trkpt>
      <trkpt lat="43.77605" lon="7.13465">
        <ele>850.20001220703</ele>
        <time>2019-02-23T13:53:29.000Z</time>
      </trkpt>
      <trkpt lat="43.77607" lon="7.13459">
        <ele>849.59997558594</ele>
        <time>2019-02-23T13:53:32.000Z</time>
      </trkpt>
      <trkpt lat="43.77606" lon="7.13451">
        <ele>848.40002441406</ele>
        <time>2019-02-23T13:53:35.000Z</time>
      </trkpt>
      <trkpt lat="43.77604" lon="7.13449">
        <ele>847.79998779297</ele>
        <time>2019-02-23T13:53:36.000Z</time>
      </trkpt>
      <trkpt lat="43.77597" lon="7.13448">
        <ele>846.79998779297</ele>
        <time>2019-02-23T13:53:38.000Z</time>
      </trkpt>
      <trkpt lat="43.77594" lon="7.13446">
        <ele>846.40002441406</ele>
        <time>2019-02-23T13:53:39.000Z</time>
      </trkpt>
      <trkpt lat="43.77591" lon="7.13444">
        <ele>845.59997558594</ele>
        <time>2019-02-23T13:53:40.000Z</time>
      </trkpt>
      <trkpt lat="43.77588" lon="7.13436">
        <ele>844.20001220703</ele>
        <time>2019-02-23T13:53:42.000Z</time>
      </trkpt>
      <trkpt lat="43.77586" lon="7.13434">
        <ele>843.59997558594</ele>
        <time>2019-02-23T13:53:43.000Z</time>
      </trkpt>
      <trkpt lat="43.77584" lon="7.13431">
        <ele>843.20001220703</ele>
        <time>2019-02-23T13:53:44.000Z</time>
      </trkpt>
      <trkpt lat="43.7758" lon="7.13424">
        <ele>841.79998779297</ele>
        <time>2019-02-23T13:53:46.000Z</time>
      </trkpt>
      <trkpt lat="43.77578" lon="7.13421">
        <ele>841</ele>
        <time>2019-02-23T13:53:47.000Z</time>
      </trkpt>
      <trkpt lat="43.77576" lon="7.13419">
        <ele>840.20001220703</ele>
        <time>2019-02-23T13:53:48.000Z</time>
      </trkpt>
      <trkpt lat="43.77569" lon="7.13414">
        <ele>838.40002441406</ele>
        <time>2019-02-23T13:53:50.000Z</time>
      </trkpt>
      <trkpt lat="43.77566" lon="7.13411">
        <ele>837.20001220703</ele>
        <time>2019-02-23T13:53:51.000Z</time>
      </trkpt>
      <trkpt lat="43.77559" lon="7.13409">
        <ele>835.59997558594</ele>
        <time>2019-02-23T13:53:53.000Z</time>
      </trkpt>
      <trkpt lat="43.77555" lon="7.13409">
        <ele>834.40002441406</ele>
        <time>2019-02-23T13:53:54.000Z</time>
      </trkpt>
      <trkpt lat="43.77545" lon="7.13407">
        <ele>833.79998779297</ele>
        <time>2019-02-23T13:53:56.000Z</time>
      </trkpt>
      <trkpt lat="43.77541" lon="7.13404">
        <ele>833.20001220703</ele>
        <time>2019-02-23T13:53:57.000Z</time>
      </trkpt>
      <trkpt lat="43.77537" lon="7.134">
        <ele>832.79998779297</ele>
        <time>2019-02-23T13:53:58.000Z</time>
      </trkpt>
      <trkpt lat="43.77531" lon="7.13401">
        <ele>832.59997558594</ele>
        <time>2019-02-23T13:54:01.000Z</time>
      </trkpt>
      <trkpt lat="43.77529" lon="7.13402">
        <ele>832</ele>
        <time>2019-02-23T13:54:02.000Z</time>
      </trkpt>
      <trkpt lat="43.77523" lon="7.13399">
        <ele>831</ele>
        <time>2019-02-23T13:54:04.000Z</time>
      </trkpt>
      <trkpt lat="43.77519" lon="7.13398">
        <ele>830.40002441406</ele>
        <time>2019-02-23T13:54:05.000Z</time>
      </trkpt>
      <trkpt lat="43.77517" lon="7.13398">
        <ele>829.79998779297</ele>
        <time>2019-02-23T13:54:06.000Z</time>
      </trkpt>
      <trkpt lat="43.77512" lon="7.13399">
        <ele>829</ele>
        <time>2019-02-23T13:54:08.000Z</time>
      </trkpt>
      <trkpt lat="43.77509" lon="7.13398">
        <ele>827.79998779297</ele>
        <time>2019-02-23T13:54:09.000Z</time>
      </trkpt>
      <trkpt lat="43.77501" lon="7.13399">
        <ele>826.79998779297</ele>
        <time>2019-02-23T13:54:11.000Z</time>
      </trkpt>
      <trkpt lat="43.77497" lon="7.134">
        <ele>825.59997558594</ele>
        <time>2019-02-23T13:54:12.000Z</time>
      </trkpt>
      <trkpt lat="43.77487" lon="7.13396">
        <ele>823.79998779297</ele>
        <time>2019-02-23T13:54:15.000Z</time>
      </trkpt>
      <trkpt lat="43.77484" lon="7.13392">
        <ele>823</ele>
        <time>2019-02-23T13:54:16.000Z</time>
      </trkpt>
      <trkpt lat="43.77482" lon="7.13389">
        <ele>822.79998779297</ele>
        <time>2019-02-23T13:54:17.000Z</time>
      </trkpt>
      <trkpt lat="43.77474" lon="7.13386">
        <ele>821.79998779297</ele>
        <time>2019-02-23T13:54:20.000Z</time>
      </trkpt>
      <trkpt lat="43.77469" lon="7.1338">
        <ele>820.59997558594</ele>
        <time>2019-02-23T13:54:22.000Z</time>
      </trkpt>
      <trkpt lat="43.77462" lon="7.13375">
        <ele>819.40002441406</ele>
        <time>2019-02-23T13:54:24.000Z</time>
      </trkpt>
      <trkpt lat="43.77458" lon="7.13372">
        <ele>819</ele>
        <time>2019-02-23T13:54:25.000Z</time>
      </trkpt>
      <trkpt lat="43.77452" lon="7.13365">
        <ele>817.79998779297</ele>
        <time>2019-02-23T13:54:27.000Z</time>
      </trkpt>
      <trkpt lat="43.77445" lon="7.13361">
        <ele>817.59997558594</ele>
        <time>2019-02-23T13:54:29.000Z</time>
      </trkpt>
      <trkpt lat="43.77432" lon="7.13355">
        <ele>816</ele>
        <time>2019-02-23T13:54:33.000Z</time>
      </trkpt>
      <trkpt lat="43.77424" lon="7.13353">
        <ele>814.79998779297</ele>
        <time>2019-02-23T13:54:35.000Z</time>
      </trkpt>
      <trkpt lat="43.77419" lon="7.13348">
        <ele>813.79998779297</ele>
        <time>2019-02-23T13:54:37.000Z</time>
      </trkpt>
      <trkpt lat="43.77419" lon="7.13344">
        <ele>813.59997558594</ele>
        <time>2019-02-23T13:54:38.000Z</time>
      </trkpt>
      <trkpt lat="43.77417" lon="7.13331">
        <ele>812.79998779297</ele>
        <time>2019-02-23T13:54:41.000Z</time>
      </trkpt>
      <trkpt lat="43.77415" lon="7.13329">
        <ele>812.40002441406</ele>
        <time>2019-02-23T13:54:42.000Z</time>
      </trkpt>
      <trkpt lat="43.77411" lon="7.13328">
        <ele>811.40002441406</ele>
        <time>2019-02-23T13:54:44.000Z</time>
      </trkpt>
      <trkpt lat="43.77408" lon="7.13328">
        <ele>810.79998779297</ele>
        <time>2019-02-23T13:54:45.000Z</time>
      </trkpt>
      <trkpt lat="43.77403" lon="7.13328">
        <ele>810.20001220703</ele>
        <time>2019-02-23T13:54:47.000Z</time>
      </trkpt>
      <trkpt lat="43.77404" lon="7.13327">
        <ele>809.59997558594</ele>
        <time>2019-02-23T13:54:48.000Z</time>
      </trkpt>
      <trkpt lat="43.77403" lon="7.13327">
        <ele>809.20001220703</ele>
        <time>2019-02-23T13:54:49.000Z</time>
      </trkpt>
      <trkpt lat="43.77397" lon="7.1333">
        <ele>808.79998779297</ele>
        <time>2019-02-23T13:54:55.000Z</time>
      </trkpt>
      <trkpt lat="43.77387" lon="7.13332">
        <ele>808.79998779297</ele>
        <time>2019-02-23T13:54:59.000Z</time>
      </trkpt>
      <trkpt lat="43.77385" lon="7.13329">
        <ele>808.79998779297</ele>
        <time>2019-02-23T13:55:00.000Z</time>
      </trkpt>
      <trkpt lat="43.77387" lon="7.13324">
        <ele>808.20001220703</ele>
        <time>2019-02-23T13:55:02.000Z</time>
      </trkpt>
      <trkpt lat="43.77388" lon="7.13321">
        <ele>807.79998779297</ele>
        <time>2019-02-23T13:55:03.000Z</time>
      </trkpt>
      <trkpt lat="43.77389" lon="7.13317">
        <ele>807</ele>
        <time>2019-02-23T13:55:04.000Z</time>
      </trkpt>
      <trkpt lat="43.7739" lon="7.13307">
        <ele>806</ele>
        <time>2019-02-23T13:55:06.000Z</time>
      </trkpt>
      <trkpt lat="43.77389" lon="7.13305">
        <ele>805.59997558594</ele>
        <time>2019-02-23T13:55:07.000Z</time>
      </trkpt>
      <trkpt lat="43.77382" lon="7.13302">
        <ele>804.79998779297</ele>
        <time>2019-02-23T13:55:10.000Z</time>
      </trkpt>
      <trkpt lat="43.7738" lon="7.13302">
        <ele>804.59997558594</ele>
        <time>2019-02-23T13:55:11.000Z</time>
      </trkpt>
      <trkpt lat="43.77377" lon="7.13302">
        <ele>803.59997558594</ele>
        <time>2019-02-23T13:55:13.000Z</time>
      </trkpt>
      <trkpt lat="43.77373" lon="7.13302">
        <ele>802.40002441406</ele>
        <time>2019-02-23T13:55:15.000Z</time>
      </trkpt>
      <trkpt lat="43.77371" lon="7.13303">
        <ele>802</ele>
        <time>2019-02-23T13:55:16.000Z</time>
      </trkpt>
      <trkpt lat="43.77369" lon="7.13303">
        <ele>801.40002441406</ele>
        <time>2019-02-23T13:55:17.000Z</time>
      </trkpt>
      <trkpt lat="43.77366" lon="7.13305">
        <ele>800.20001220703</ele>
        <time>2019-02-23T13:55:19.000Z</time>
      </trkpt>
      <trkpt lat="43.77364" lon="7.13306">
        <ele>799.79998779297</ele>
        <time>2019-02-23T13:55:20.000Z</time>
      </trkpt>
      <trkpt lat="43.77359" lon="7.13309">
        <ele>799.20001220703</ele>
        <time>2019-02-23T13:55:22.000Z</time>
      </trkpt>
      <trkpt lat="43.77357" lon="7.13309">
        <ele>798.59997558594</ele>
        <time>2019-02-23T13:55:23.000Z</time>
      </trkpt>
      <trkpt lat="43.77355" lon="7.13308">
        <ele>798.40002441406</ele>
        <time>2019-02-23T13:55:24.000Z</time>
      </trkpt>
      <trkpt lat="43.77353" lon="7.13303">
        <ele>798</ele>
        <time>2019-02-23T13:55:26.000Z</time>
      </trkpt>
      <trkpt lat="43.77352" lon="7.13301">
        <ele>797.79998779297</ele>
        <time>2019-02-23T13:55:27.000Z</time>
      </trkpt>
      <trkpt lat="43.77348" lon="7.13302">
        <ele>797</ele>
        <time>2019-02-23T13:55:29.000Z</time>
      </trkpt>
      <trkpt lat="43.77343" lon="7.133">
        <ele>796</ele>
        <time>2019-02-23T13:55:31.000Z</time>
      </trkpt>
      <trkpt lat="43.77342" lon="7.13296">
        <ele>795</ele>
        <time>2019-02-23T13:55:33.000Z</time>
      </trkpt>
      <trkpt lat="43.77341" lon="7.13294">
        <ele>794.79998779297</ele>
        <time>2019-02-23T13:55:34.000Z</time>
      </trkpt>
      <trkpt lat="43.7734" lon="7.13292">
        <ele>794.59997558594</ele>
        <time>2019-02-23T13:55:35.000Z</time>
      </trkpt>
      <trkpt lat="43.77335" lon="7.13294">
        <ele>793.79998779297</ele>
        <time>2019-02-23T13:55:38.000Z</time>
      </trkpt>
      <trkpt lat="43.77334" lon="7.13294">
        <ele>793.40002441406</ele>
        <time>2019-02-23T13:55:39.000Z</time>
      </trkpt>
      <trkpt lat="43.7733" lon="7.13297">
        <ele>792.59997558594</ele>
        <time>2019-02-23T13:55:42.000Z</time>
      </trkpt>
      <trkpt lat="43.77326" lon="7.13299">
        <ele>792</ele>
        <time>2019-02-23T13:55:44.000Z</time>
      </trkpt>
      <trkpt lat="43.77324" lon="7.13294">
        <ele>791.40002441406</ele>
        <time>2019-02-23T13:55:46.000Z</time>
      </trkpt>
      <trkpt lat="43.77317" lon="7.13285">
        <ele>790.40002441406</ele>
        <time>2019-02-23T13:55:50.000Z</time>
      </trkpt>
      <trkpt lat="43.77311" lon="7.13277">
        <ele>789.59997558594</ele>
        <time>2019-02-23T13:55:54.000Z</time>
      </trkpt>
      <trkpt lat="43.77309" lon="7.13273">
        <ele>789.20001220703</ele>
        <time>2019-02-23T13:55:56.000Z</time>
      </trkpt>
      <trkpt lat="43.77309" lon="7.13273">
        <ele>789</ele>
        <time>2019-02-23T13:55:58.000Z</time>
      </trkpt>
      <trkpt lat="43.77308" lon="7.13273">
        <ele>788.79998779297</ele>
        <time>2019-02-23T13:55:59.000Z</time>
      </trkpt>
      <trkpt lat="43.77305" lon="7.13272">
        <ele>788.59997558594</ele>
        <time>2019-02-23T13:56:02.000Z</time>
      </trkpt>
      <trkpt lat="43.77304" lon="7.1327">
        <ele>788.40002441406</ele>
        <time>2019-02-23T13:56:04.000Z</time>
      </trkpt>
      <trkpt lat="43.77304" lon="7.13269">
        <ele>788.20001220703</ele>
        <time>2019-02-23T13:56:05.000Z</time>
      </trkpt>
      <trkpt lat="43.77301" lon="7.13265">
        <ele>787.79998779297</ele>
        <time>2019-02-23T13:56:07.000Z</time>
      </trkpt>
      <trkpt lat="43.77293" lon="7.13252">
        <ele>787.59997558594</ele>
        <time>2019-02-23T13:56:11.000Z</time>
      </trkpt>
      <trkpt lat="43.77286" lon="7.13246">
        <ele>787.40002441406</ele>
        <time>2019-02-23T13:56:14.000Z</time>
      </trkpt>
      <trkpt lat="43.77285" lon="7.13243">
        <ele>787.40002441406</ele>
        <time>2019-02-23T13:56:15.000Z</time>
      </trkpt>
      <trkpt lat="43.77281" lon="7.13238">
        <ele>787</ele>
        <time>2019-02-23T13:56:17.000Z</time>
      </trkpt>
      <trkpt lat="43.77277" lon="7.13235">
        <ele>787</ele>
        <time>2019-02-23T13:56:19.000Z</time>
      </trkpt>
      <trkpt lat="43.77267" lon="7.1323">
        <ele>786.79998779297</ele>
        <time>2019-02-23T13:56:23.000Z</time>
      </trkpt>
      <trkpt lat="43.77256" lon="7.13227">
        <ele>785.79998779297</ele>
        <time>2019-02-23T13:56:26.000Z</time>
      </trkpt>
      <trkpt lat="43.77253" lon="7.13225">
        <ele>785.79998779297</ele>
        <time>2019-02-23T13:56:27.000Z</time>
      </trkpt>
      <trkpt lat="43.77243" lon="7.13219">
        <ele>785.40002441406</ele>
        <time>2019-02-23T13:56:31.000Z</time>
      </trkpt>
      <trkpt lat="43.77229" lon="7.13216">
        <ele>785.59997558594</ele>
        <time>2019-02-23T13:56:35.000Z</time>
      </trkpt>
      <trkpt lat="43.77215" lon="7.13217">
        <ele>784.79998779297</ele>
        <time>2019-02-23T13:56:39.000Z</time>
      </trkpt>
      <trkpt lat="43.7721" lon="7.13217">
        <ele>784.59997558594</ele>
        <time>2019-02-23T13:56:40.000Z</time>
      </trkpt>
      <trkpt lat="43.77205" lon="7.13214">
        <ele>783.59997558594</ele>
        <time>2019-02-23T13:56:42.000Z</time>
      </trkpt>
      <trkpt lat="43.77199" lon="7.1321">
        <ele>782.79998779297</ele>
        <time>2019-02-23T13:56:44.000Z</time>
      </trkpt>
      <trkpt lat="43.77196" lon="7.13209">
        <ele>782.40002441406</ele>
        <time>2019-02-23T13:56:45.000Z</time>
      </trkpt>
      <trkpt lat="43.77186" lon="7.13204">
        <ele>781.59997558594</ele>
        <time>2019-02-23T13:56:48.000Z</time>
      </trkpt>
      <trkpt lat="43.77183" lon="7.13202">
        <ele>781.20001220703</ele>
        <time>2019-02-23T13:56:49.000Z</time>
      </trkpt>
      <trkpt lat="43.77178" lon="7.132">
        <ele>780.79998779297</ele>
        <time>2019-02-23T13:56:50.000Z</time>
      </trkpt>
      <trkpt lat="43.77167" lon="7.13198">
        <ele>779.59997558594</ele>
        <time>2019-02-23T13:56:52.000Z</time>
      </trkpt>
      <trkpt lat="43.77155" lon="7.13194">
        <ele>778.20001220703</ele>
        <time>2019-02-23T13:56:54.000Z</time>
      </trkpt>
      <trkpt lat="43.77145" lon="7.13191">
        <ele>776.40002441406</ele>
        <time>2019-02-23T13:56:56.000Z</time>
      </trkpt>
      <trkpt lat="43.77136" lon="7.13189">
        <ele>774.79998779297</ele>
        <time>2019-02-23T13:56:58.000Z</time>
      </trkpt>
      <trkpt lat="43.77127" lon="7.13185">
        <ele>773.20001220703</ele>
        <time>2019-02-23T13:57:00.000Z</time>
      </trkpt>
      <trkpt lat="43.77124" lon="7.13182">
        <ele>772.20001220703</ele>
        <time>2019-02-23T13:57:01.000Z</time>
      </trkpt>
      <trkpt lat="43.77117" lon="7.13178">
        <ele>770.40002441406</ele>
        <time>2019-02-23T13:57:03.000Z</time>
      </trkpt>
      <trkpt lat="43.7711" lon="7.13173">
        <ele>769</ele>
        <time>2019-02-23T13:57:05.000Z</time>
      </trkpt>
      <trkpt lat="43.77103" lon="7.13168">
        <ele>767.79998779297</ele>
        <time>2019-02-23T13:57:08.000Z</time>
      </trkpt>
      <trkpt lat="43.77101" lon="7.13166">
        <ele>767.20001220703</ele>
        <time>2019-02-23T13:57:09.000Z</time>
      </trkpt>
      <trkpt lat="43.77095" lon="7.13161">
        <ele>766.59997558594</ele>
        <time>2019-02-23T13:57:11.000Z</time>
      </trkpt>
      <trkpt lat="43.77088" lon="7.13154">
        <ele>765.20001220703</ele>
        <time>2019-02-23T13:57:14.000Z</time>
      </trkpt>
      <trkpt lat="43.77072" lon="7.13143">
        <ele>764.20001220703</ele>
        <time>2019-02-23T13:57:19.000Z</time>
      </trkpt>
      <trkpt lat="43.77055" lon="7.1313">
        <ele>762.79998779297</ele>
        <time>2019-02-23T13:57:23.000Z</time>
      </trkpt>
      <trkpt lat="43.77045" lon="7.13122">
        <ele>762.59997558594</ele>
        <time>2019-02-23T13:57:25.000Z</time>
      </trkpt>
      <trkpt lat="43.77036" lon="7.13115">
        <ele>761.59997558594</ele>
        <time>2019-02-23T13:57:27.000Z</time>
      </trkpt>
      <trkpt lat="43.77031" lon="7.13111">
        <ele>761</ele>
        <time>2019-02-23T13:57:28.000Z</time>
      </trkpt>
      <trkpt lat="43.77026" lon="7.13107">
        <ele>760.40002441406</ele>
        <time>2019-02-23T13:57:29.000Z</time>
      </trkpt>
      <trkpt lat="43.7702" lon="7.13103">
        <ele>759.40002441406</ele>
        <time>2019-02-23T13:57:30.000Z</time>
      </trkpt>
      <trkpt lat="43.77009" lon="7.13093">
        <ele>757.20001220703</ele>
        <time>2019-02-23T13:57:32.000Z</time>
      </trkpt>
      <trkpt lat="43.77004" lon="7.13089">
        <ele>756.59997558594</ele>
        <time>2019-02-23T13:57:33.000Z</time>
      </trkpt>
      <trkpt lat="43.76999" lon="7.13086">
        <ele>755.79998779297</ele>
        <time>2019-02-23T13:57:34.000Z</time>
      </trkpt>
      <trkpt lat="43.76986" lon="7.13079">
        <ele>754.59997558594</ele>
        <time>2019-02-23T13:57:36.000Z</time>
      </trkpt>
      <trkpt lat="43.7698" lon="7.13076">
        <ele>754.20001220703</ele>
        <time>2019-02-23T13:57:37.000Z</time>
      </trkpt>
      <trkpt lat="43.76974" lon="7.13072">
        <ele>753.40002441406</ele>
        <time>2019-02-23T13:57:38.000Z</time>
      </trkpt>
      <trkpt lat="43.76969" lon="7.13069">
        <ele>753.20001220703</ele>
        <time>2019-02-23T13:57:39.000Z</time>
      </trkpt>
      <trkpt lat="43.7696" lon="7.13062">
        <ele>752.20001220703</ele>
        <time>2019-02-23T13:57:41.000Z</time>
      </trkpt>
      <trkpt lat="43.76957" lon="7.13063">
        <ele>751.59997558594</ele>
        <time>2019-02-23T13:57:42.000Z</time>
      </trkpt>
      <trkpt lat="43.76955" lon="7.13064">
        <ele>751</ele>
        <time>2019-02-23T13:57:43.000Z</time>
      </trkpt>
      <trkpt lat="43.76952" lon="7.13066">
        <ele>750.40002441406</ele>
        <time>2019-02-23T13:57:44.000Z</time>
      </trkpt>
      <trkpt lat="43.76947" lon="7.13066">
        <ele>750</ele>
        <time>2019-02-23T13:57:45.000Z</time>
      </trkpt>
      <trkpt lat="43.76938" lon="7.13064">
        <ele>749.20001220703</ele>
        <time>2019-02-23T13:57:47.000Z</time>
      </trkpt>
      <trkpt lat="43.76929" lon="7.13062">
        <ele>748.40002441406</ele>
        <time>2019-02-23T13:57:49.000Z</time>
      </trkpt>
      <trkpt lat="43.76923" lon="7.13058">
        <ele>746.79998779297</ele>
        <time>2019-02-23T13:57:51.000Z</time>
      </trkpt>
      <trkpt lat="43.76915" lon="7.13055">
        <ele>746</ele>
        <time>2019-02-23T13:57:53.000Z</time>
      </trkpt>
      <trkpt lat="43.76911" lon="7.13053">
        <ele>745.59997558594</ele>
        <time>2019-02-23T13:57:54.000Z</time>
      </trkpt>
      <trkpt lat="43.76908" lon="7.13052">
        <ele>745.20001220703</ele>
        <time>2019-02-23T13:57:55.000Z</time>
      </trkpt>
      <trkpt lat="43.76901" lon="7.13049">
        <ele>744.40002441406</ele>
        <time>2019-02-23T13:57:57.000Z</time>
      </trkpt>
      <trkpt lat="43.76897" lon="7.13046">
        <ele>743.40002441406</ele>
        <time>2019-02-23T13:57:58.000Z</time>
      </trkpt>
      <trkpt lat="43.76894" lon="7.13043">
        <ele>743</ele>
        <time>2019-02-23T13:57:59.000Z</time>
      </trkpt>
      <trkpt lat="43.76885" lon="7.13039">
        <ele>742.20001220703</ele>
        <time>2019-02-23T13:58:01.000Z</time>
      </trkpt>
      <trkpt lat="43.76881" lon="7.13039">
        <ele>741.20001220703</ele>
        <time>2019-02-23T13:58:02.000Z</time>
      </trkpt>
      <trkpt lat="43.76877" lon="7.13042">
        <ele>741</ele>
        <time>2019-02-23T13:58:03.000Z</time>
      </trkpt>
      <trkpt lat="43.76869" lon="7.13043">
        <ele>740.59997558594</ele>
        <time>2019-02-23T13:58:05.000Z</time>
      </trkpt>
      <trkpt lat="43.76861" lon="7.13049">
        <ele>739.79998779297</ele>
        <time>2019-02-23T13:58:08.000Z</time>
      </trkpt>
      <trkpt lat="43.76859" lon="7.13049">
        <ele>739.59997558594</ele>
        <time>2019-02-23T13:58:09.000Z</time>
      </trkpt>
      <trkpt lat="43.76855" lon="7.13047">
        <ele>739.59997558594</ele>
        <time>2019-02-23T13:58:11.000Z</time>
      </trkpt>
      <trkpt lat="43.76854" lon="7.13045">
        <ele>740</ele>
        <time>2019-02-23T13:58:12.000Z</time>
      </trkpt>
      <trkpt lat="43.76841" lon="7.13038">
        <ele>739.59997558594</ele>
        <time>2019-02-23T13:58:17.000Z</time>
      </trkpt>
      <trkpt lat="43.76839" lon="7.13038">
        <ele>739.40002441406</ele>
        <time>2019-02-23T13:58:19.000Z</time>
      </trkpt>
      <trkpt lat="43.76838" lon="7.13038">
        <ele>739.79998779297</ele>
        <time>2019-02-23T13:58:21.000Z</time>
      </trkpt>
      <trkpt lat="43.76832" lon="7.13035">
        <ele>740</ele>
        <time>2019-02-23T13:58:27.000Z</time>
      </trkpt>
      <trkpt lat="43.76827" lon="7.13032">
        <ele>740</ele>
        <time>2019-02-23T13:58:29.000Z</time>
      </trkpt>
      <trkpt lat="43.76821" lon="7.13027">
        <ele>740</ele>
        <time>2019-02-23T13:58:31.000Z</time>
      </trkpt>
      <trkpt lat="43.76816" lon="7.13023">
        <ele>739.40002441406</ele>
        <time>2019-02-23T13:58:33.000Z</time>
      </trkpt>
      <trkpt lat="43.7681" lon="7.13021">
        <ele>738.59997558594</ele>
        <time>2019-02-23T13:58:35.000Z</time>
      </trkpt>
      <trkpt lat="43.76805" lon="7.1302">
        <ele>737.59997558594</ele>
        <time>2019-02-23T13:58:37.000Z</time>
      </trkpt>
      <trkpt lat="43.76805" lon="7.1302">
        <ele>736.79998779297</ele>
        <time>2019-02-23T13:58:38.000Z</time>
      </trkpt>
      <trkpt lat="43.76803" lon="7.1302">
        <ele>736.40002441406</ele>
        <time>2019-02-23T13:58:40.000Z</time>
      </trkpt>
      <trkpt lat="43.76799" lon="7.1302">
        <ele>736.20001220703</ele>
        <time>2019-02-23T13:58:42.000Z</time>
      </trkpt>
      <trkpt lat="43.7679" lon="7.13017">
        <ele>736.40002441406</ele>
        <time>2019-02-23T13:58:45.000Z</time>
      </trkpt>
      <trkpt lat="43.76783" lon="7.13014">
        <ele>736.20001220703</ele>
        <time>2019-02-23T13:58:47.000Z</time>
      </trkpt>
      <trkpt lat="43.76775" lon="7.13011">
        <ele>735.79998779297</ele>
        <time>2019-02-23T13:58:49.000Z</time>
      </trkpt>
      <trkpt lat="43.76769" lon="7.13006">
        <ele>735.40002441406</ele>
        <time>2019-02-23T13:58:51.000Z</time>
      </trkpt>
      <trkpt lat="43.76766" lon="7.13003">
        <ele>735.20001220703</ele>
        <time>2019-02-23T13:58:52.000Z</time>
      </trkpt>
      <trkpt lat="43.76757" lon="7.12993">
        <ele>734</ele>
        <time>2019-02-23T13:58:55.000Z</time>
      </trkpt>
      <trkpt lat="43.76754" lon="7.1299">
        <ele>733.59997558594</ele>
        <time>2019-02-23T13:58:56.000Z</time>
      </trkpt>
      <trkpt lat="43.7675" lon="7.12987">
        <ele>733</ele>
        <time>2019-02-23T13:58:57.000Z</time>
      </trkpt>
      <trkpt lat="43.76741" lon="7.12981">
        <ele>731.59997558594</ele>
        <time>2019-02-23T13:59:00.000Z</time>
      </trkpt>
      <trkpt lat="43.7674" lon="7.12981">
        <ele>731.40002441406</ele>
        <time>2019-02-23T13:59:01.000Z</time>
      </trkpt>
      <trkpt lat="43.7674" lon="7.1298">
        <ele>730.59997558594</ele>
        <time>2019-02-23T13:59:04.000Z</time>
      </trkpt>
      <trkpt lat="43.76739" lon="7.1298">
        <ele>730.59997558594</ele>
        <time>2019-02-23T13:59:05.000Z</time>
      </trkpt>
      <trkpt lat="43.76737" lon="7.1298">
        <ele>730.40002441406</ele>
        <time>2019-02-23T13:59:07.000Z</time>
      </trkpt>
      <trkpt lat="43.76734" lon="7.12981">
        <ele>730.79998779297</ele>
        <time>2019-02-23T13:59:11.000Z</time>
      </trkpt>
      <trkpt lat="43.76731" lon="7.1298">
        <ele>731.40002441406</ele>
        <time>2019-02-23T13:59:14.000Z</time>
      </trkpt>
      <trkpt lat="43.76729" lon="7.1298">
        <ele>731.59997558594</ele>
        <time>2019-02-23T13:59:16.000Z</time>
      </trkpt>
      <trkpt lat="43.76728" lon="7.12979">
        <ele>732</ele>
        <time>2019-02-23T13:59:20.000Z</time>
      </trkpt>
      <trkpt lat="43.76728" lon="7.12979">
        <ele>732</ele>
        <time>2019-02-23T13:59:29.000Z</time>
      </trkpt>
      <trkpt lat="43.76727" lon="7.1298">
        <ele>732.20001220703</ele>
        <time>2019-02-23T13:59:42.000Z</time>
      </trkpt>
      <trkpt lat="43.76727" lon="7.1298">
        <ele>732</ele>
        <time>2019-02-23T14:00:03.000Z</time>
      </trkpt>
      <trkpt lat="43.76726" lon="7.12979">
        <ele>731.79998779297</ele>
        <time>2019-02-23T14:00:26.000Z</time>
      </trkpt>
      <trkpt lat="43.76726" lon="7.12979">
        <ele>731.79998779297</ele>
        <time>2019-02-23T14:00:36.000Z</time>
      </trkpt>
      <trkpt lat="43.76723" lon="7.12976">
        <ele>731.79998779297</ele>
        <time>2019-02-23T14:00:44.000Z</time>
      </trkpt>
      <trkpt lat="43.76717" lon="7.12967">
        <ele>731</ele>
        <time>2019-02-23T14:00:49.000Z</time>
      </trkpt>
      <trkpt lat="43.76714" lon="7.12963">
        <ele>730.20001220703</ele>
        <time>2019-02-23T14:00:51.000Z</time>
      </trkpt>
      <trkpt lat="43.76709" lon="7.12962">
        <ele>728.59997558594</ele>
        <time>2019-02-23T14:00:53.000Z</time>
      </trkpt>
      <trkpt lat="43.767" lon="7.12956">
        <ele>727.40002441406</ele>
        <time>2019-02-23T14:00:56.000Z</time>
      </trkpt>
      <trkpt lat="43.76695" lon="7.12949">
        <ele>727.40002441406</ele>
        <time>2019-02-23T14:00:58.000Z</time>
      </trkpt>
      <trkpt lat="43.76684" lon="7.12939">
        <ele>726.59997558594</ele>
        <time>2019-02-23T14:01:02.000Z</time>
      </trkpt>
      <trkpt lat="43.76682" lon="7.12937">
        <ele>726.20001220703</ele>
        <time>2019-02-23T14:01:03.000Z</time>
      </trkpt>
      <trkpt lat="43.76679" lon="7.12931">
        <ele>726</ele>
        <time>2019-02-23T14:01:05.000Z</time>
      </trkpt>
      <trkpt lat="43.76678" lon="7.12926">
        <ele>726</ele>
        <time>2019-02-23T14:01:06.000Z</time>
      </trkpt>
      <trkpt lat="43.76675" lon="7.12922">
        <ele>725.20001220703</ele>
        <time>2019-02-23T14:01:08.000Z</time>
      </trkpt>
      <trkpt lat="43.76674" lon="7.12921">
        <ele>724.59997558594</ele>
        <time>2019-02-23T14:01:09.000Z</time>
      </trkpt>
      <trkpt lat="43.76667" lon="7.12917">
        <ele>723.20001220703</ele>
        <time>2019-02-23T14:01:11.000Z</time>
      </trkpt>
      <trkpt lat="43.7666" lon="7.12911">
        <ele>722.59997558594</ele>
        <time>2019-02-23T14:01:13.000Z</time>
      </trkpt>
      <trkpt lat="43.76649" lon="7.12901">
        <ele>722.40002441406</ele>
        <time>2019-02-23T14:01:16.000Z</time>
      </trkpt>
      <trkpt lat="43.76644" lon="7.12897">
        <ele>722.20001220703</ele>
        <time>2019-02-23T14:01:17.000Z</time>
      </trkpt>
      <trkpt lat="43.76639" lon="7.12892">
        <ele>722</ele>
        <time>2019-02-23T14:01:18.000Z</time>
      </trkpt>
      <trkpt lat="43.76626" lon="7.12878">
        <ele>720.59997558594</ele>
        <time>2019-02-23T14:01:21.000Z</time>
      </trkpt>
      <trkpt lat="43.76621" lon="7.12874">
        <ele>719.79998779297</ele>
        <time>2019-02-23T14:01:22.000Z</time>
      </trkpt>
      <trkpt lat="43.76617" lon="7.12872">
        <ele>719.20001220703</ele>
        <time>2019-02-23T14:01:23.000Z</time>
      </trkpt>
      <trkpt lat="43.76609" lon="7.12869">
        <ele>717.59997558594</ele>
        <time>2019-02-23T14:01:25.000Z</time>
      </trkpt>
      <trkpt lat="43.766" lon="7.12865">
        <ele>716.59997558594</ele>
        <time>2019-02-23T14:01:27.000Z</time>
      </trkpt>
      <trkpt lat="43.76593" lon="7.12862">
        <ele>716</ele>
        <time>2019-02-23T14:01:29.000Z</time>
      </trkpt>
      <trkpt lat="43.76589" lon="7.12861">
        <ele>715.40002441406</ele>
        <time>2019-02-23T14:01:30.000Z</time>
      </trkpt>
      <trkpt lat="43.76582" lon="7.12857">
        <ele>714.40002441406</ele>
        <time>2019-02-23T14:01:32.000Z</time>
      </trkpt>
      <trkpt lat="43.76578" lon="7.12855">
        <ele>714</ele>
        <time>2019-02-23T14:01:33.000Z</time>
      </trkpt>
      <trkpt lat="43.76574" lon="7.12854">
        <ele>713.40002441406</ele>
        <time>2019-02-23T14:01:34.000Z</time>
      </trkpt>
      <trkpt lat="43.76561" lon="7.1285">
        <ele>712.20001220703</ele>
        <time>2019-02-23T14:01:37.000Z</time>
      </trkpt>
      <trkpt lat="43.76555" lon="7.12849">
        <ele>711.40002441406</ele>
        <time>2019-02-23T14:01:39.000Z</time>
      </trkpt>
      <trkpt lat="43.76536" lon="7.12842">
        <ele>711.40002441406</ele>
        <time>2019-02-23T14:01:45.000Z</time>
      </trkpt>
      <trkpt lat="43.76533" lon="7.12842">
        <ele>711</ele>
        <time>2019-02-23T14:01:46.000Z</time>
      </trkpt>
      <trkpt lat="43.76528" lon="7.12836">
        <ele>710.20001220703</ele>
        <time>2019-02-23T14:01:49.000Z</time>
      </trkpt>
      <trkpt lat="43.76526" lon="7.12834">
        <ele>709.79998779297</ele>
        <time>2019-02-23T14:01:50.000Z</time>
      </trkpt>
      <trkpt lat="43.76521" lon="7.12832">
        <ele>709.20001220703</ele>
        <time>2019-02-23T14:01:52.000Z</time>
      </trkpt>
      <trkpt lat="43.76518" lon="7.12829">
        <ele>708.59997558594</ele>
        <time>2019-02-23T14:01:53.000Z</time>
      </trkpt>
      <trkpt lat="43.76514" lon="7.12826">
        <ele>707.20001220703</ele>
        <time>2019-02-23T14:01:55.000Z</time>
      </trkpt>
      <trkpt lat="43.76509" lon="7.12821">
        <ele>706</ele>
        <time>2019-02-23T14:01:57.000Z</time>
      </trkpt>
      <trkpt lat="43.76507" lon="7.12819">
        <ele>705.79998779297</ele>
        <time>2019-02-23T14:01:58.000Z</time>
      </trkpt>
      <trkpt lat="43.76501" lon="7.12815">
        <ele>705</ele>
        <time>2019-02-23T14:02:01.000Z</time>
      </trkpt>
      <trkpt lat="43.76494" lon="7.12812">
        <ele>704.20001220703</ele>
        <time>2019-02-23T14:02:03.000Z</time>
      </trkpt>
      <trkpt lat="43.76491" lon="7.1281">
        <ele>703.59997558594</ele>
        <time>2019-02-23T14:02:04.000Z</time>
      </trkpt>
      <trkpt lat="43.76485" lon="7.12805">
        <ele>702.79998779297</ele>
        <time>2019-02-23T14:02:07.000Z</time>
      </trkpt>
      <trkpt lat="43.76483" lon="7.12804">
        <ele>702.40002441406</ele>
        <time>2019-02-23T14:02:08.000Z</time>
      </trkpt>
      <trkpt lat="43.76478" lon="7.12797">
        <ele>700.79998779297</ele>
        <time>2019-02-23T14:02:11.000Z</time>
      </trkpt>
      <trkpt lat="43.76475" lon="7.12795">
        <ele>699.79998779297</ele>
        <time>2019-02-23T14:02:13.000Z</time>
      </trkpt>
      <trkpt lat="43.76474" lon="7.12793">
        <ele>699.20001220703</ele>
        <time>2019-02-23T14:02:14.000Z</time>
      </trkpt>
      <trkpt lat="43.76473" lon="7.12792">
        <ele>698.59997558594</ele>
        <time>2019-02-23T14:02:15.000Z</time>
      </trkpt>
      <trkpt lat="43.7647" lon="7.12788">
        <ele>697.59997558594</ele>
        <time>2019-02-23T14:02:17.000Z</time>
      </trkpt>
      <trkpt lat="43.76466" lon="7.12784">
        <ele>696</ele>
        <time>2019-02-23T14:02:19.000Z</time>
      </trkpt>
      <trkpt lat="43.76463" lon="7.12781">
        <ele>695.40002441406</ele>
        <time>2019-02-23T14:02:20.000Z</time>
      </trkpt>
      <trkpt lat="43.76461" lon="7.12779">
        <ele>694.59997558594</ele>
        <time>2019-02-23T14:02:21.000Z</time>
      </trkpt>
      <trkpt lat="43.76459" lon="7.12779">
        <ele>693.59997558594</ele>
        <time>2019-02-23T14:02:22.000Z</time>
      </trkpt>
      <trkpt lat="43.76457" lon="7.12777">
        <ele>692.40002441406</ele>
        <time>2019-02-23T14:02:23.000Z</time>
      </trkpt>
      <trkpt lat="43.76456" lon="7.12773">
        <ele>692</ele>
        <time>2019-02-23T14:02:24.000Z</time>
      </trkpt>
      <trkpt lat="43.76455" lon="7.12769">
        <ele>691.20001220703</ele>
        <time>2019-02-23T14:02:25.000Z</time>
      </trkpt>
      <trkpt lat="43.76453" lon="7.12769">
        <ele>690.59997558594</ele>
        <time>2019-02-23T14:02:26.000Z</time>
      </trkpt>
      <trkpt lat="43.7645" lon="7.12768">
        <ele>690.20001220703</ele>
        <time>2019-02-23T14:02:27.000Z</time>
      </trkpt>
      <trkpt lat="43.76447" lon="7.12766">
        <ele>690</ele>
        <time>2019-02-23T14:02:28.000Z</time>
      </trkpt>
      <trkpt lat="43.76439" lon="7.12762">
        <ele>689</ele>
        <time>2019-02-23T14:02:30.000Z</time>
      </trkpt>
      <trkpt lat="43.76435" lon="7.12758">
        <ele>688.79998779297</ele>
        <time>2019-02-23T14:02:31.000Z</time>
      </trkpt>
      <trkpt lat="43.76431" lon="7.12756">
        <ele>688.40002441406</ele>
        <time>2019-02-23T14:02:32.000Z</time>
      </trkpt>
      <trkpt lat="43.76422" lon="7.12752">
        <ele>687.79998779297</ele>
        <time>2019-02-23T14:02:34.000Z</time>
      </trkpt>
      <trkpt lat="43.76413" lon="7.12743">
        <ele>686.40002441406</ele>
        <time>2019-02-23T14:02:36.000Z</time>
      </trkpt>
      <trkpt lat="43.76404" lon="7.12736">
        <ele>685</ele>
        <time>2019-02-23T14:02:38.000Z</time>
      </trkpt>
      <trkpt lat="43.764" lon="7.12732">
        <ele>684</ele>
        <time>2019-02-23T14:02:39.000Z</time>
      </trkpt>
      <trkpt lat="43.76397" lon="7.12728">
        <ele>683.20001220703</ele>
        <time>2019-02-23T14:02:40.000Z</time>
      </trkpt>
      <trkpt lat="43.7639" lon="7.1272">
        <ele>682</ele>
        <time>2019-02-23T14:02:42.000Z</time>
      </trkpt>
      <trkpt lat="43.76385" lon="7.12712">
        <ele>680.40002441406</ele>
        <time>2019-02-23T14:02:44.000Z</time>
      </trkpt>
      <trkpt lat="43.76381" lon="7.1271">
        <ele>679.20001220703</ele>
        <time>2019-02-23T14:02:45.000Z</time>
      </trkpt>
      <trkpt lat="43.76377" lon="7.12709">
        <ele>678.20001220703</ele>
        <time>2019-02-23T14:02:46.000Z</time>
      </trkpt>
      <trkpt lat="43.76373" lon="7.12706">
        <ele>676.79998779297</ele>
        <time>2019-02-23T14:02:48.000Z</time>
      </trkpt>
      <trkpt lat="43.76372" lon="7.12706">
        <ele>675.79998779297</ele>
        <time>2019-02-23T14:02:50.000Z</time>
      </trkpt>
      <trkpt lat="43.76372" lon="7.12705">
        <ele>674.79998779297</ele>
        <time>2019-02-23T14:02:52.000Z</time>
      </trkpt>
      <trkpt lat="43.76372" lon="7.12704">
        <ele>674.40002441406</ele>
        <time>2019-02-23T14:03:03.000Z</time>
      </trkpt>
      <trkpt lat="43.76372" lon="7.12703">
        <ele>674</ele>
        <time>2019-02-23T14:03:12.000Z</time>
      </trkpt>
      <trkpt lat="43.76369" lon="7.12703">
        <ele>674</ele>
        <time>2019-02-23T14:03:17.000Z</time>
      </trkpt>
      <trkpt lat="43.76368" lon="7.12702">
        <ele>673.59997558594</ele>
        <time>2019-02-23T14:03:18.000Z</time>
      </trkpt>
      <trkpt lat="43.76367" lon="7.12701">
        <ele>672.79998779297</ele>
        <time>2019-02-23T14:03:22.000Z</time>
      </trkpt>
      <trkpt lat="43.76367" lon="7.12701">
        <ele>672.59997558594</ele>
        <time>2019-02-23T14:03:23.000Z</time>
      </trkpt>
      <trkpt lat="43.76365" lon="7.12701">
        <ele>671.79998779297</ele>
        <time>2019-02-23T14:03:33.000Z</time>
      </trkpt>
      <trkpt lat="43.76365" lon="7.12701">
        <ele>671.40002441406</ele>
        <time>2019-02-23T14:03:38.000Z</time>
      </trkpt>
      <trkpt lat="43.76363" lon="7.12701">
        <ele>671.20001220703</ele>
        <time>2019-02-23T14:03:46.000Z</time>
      </trkpt>
      <trkpt lat="43.76351" lon="7.12693">
        <ele>670.59997558594</ele>
        <time>2019-02-23T14:03:52.000Z</time>
      </trkpt>
      <trkpt lat="43.76349" lon="7.12691">
        <ele>670.20001220703</ele>
        <time>2019-02-23T14:03:53.000Z</time>
      </trkpt>
      <trkpt lat="43.76342" lon="7.12687">
        <ele>668.79998779297</ele>
        <time>2019-02-23T14:03:56.000Z</time>
      </trkpt>
      <trkpt lat="43.76336" lon="7.12684">
        <ele>667.40002441406</ele>
        <time>2019-02-23T14:03:59.000Z</time>
      </trkpt>
      <trkpt lat="43.76335" lon="7.12683">
        <ele>666.79998779297</ele>
        <time>2019-02-23T14:04:00.000Z</time>
      </trkpt>
      <trkpt lat="43.76334" lon="7.12683">
        <ele>666.20001220703</ele>
        <time>2019-02-23T14:04:01.000Z</time>
      </trkpt>
      <trkpt lat="43.76334" lon="7.12683">
        <ele>664.79998779297</ele>
        <time>2019-02-23T14:04:04.000Z</time>
      </trkpt>
      <trkpt lat="43.76334" lon="7.12683">
        <ele>664.59997558594</ele>
        <time>2019-02-23T14:04:06.000Z</time>
      </trkpt>
      <trkpt lat="43.76333" lon="7.12682">
        <ele>664.79998779297</ele>
        <time>2019-02-23T14:04:14.000Z</time>
      </trkpt>
      <trkpt lat="43.76331" lon="7.12682">
        <ele>663.59997558594</ele>
        <time>2019-02-23T14:04:20.000Z</time>
      </trkpt>
      <trkpt lat="43.76331" lon="7.12682">
        <ele>663.59997558594</ele>
        <time>2019-02-23T14:04:21.000Z</time>
      </trkpt>
      <trkpt lat="43.76327" lon="7.12682">
        <ele>663.79998779297</ele>
        <time>2019-02-23T14:04:30.000Z</time>
      </trkpt>
      <trkpt lat="43.76325" lon="7.12682">
        <ele>663.59997558594</ele>
        <time>2019-02-23T14:04:35.000Z</time>
      </trkpt>
      <trkpt lat="43.76324" lon="7.12682">
        <ele>663.59997558594</ele>
        <time>2019-02-23T14:04:36.000Z</time>
      </trkpt>
      <trkpt lat="43.76315" lon="7.12676">
        <ele>663</ele>
        <time>2019-02-23T14:04:41.000Z</time>
      </trkpt>
      <trkpt lat="43.76313" lon="7.12676">
        <ele>662.40002441406</ele>
        <time>2019-02-23T14:04:42.000Z</time>
      </trkpt>
      <trkpt lat="43.76308" lon="7.12675">
        <ele>661.40002441406</ele>
        <time>2019-02-23T14:04:44.000Z</time>
      </trkpt>
      <trkpt lat="43.76305" lon="7.12675">
        <ele>660.79998779297</ele>
        <time>2019-02-23T14:04:45.000Z</time>
      </trkpt>
      <trkpt lat="43.76302" lon="7.12674">
        <ele>660.20001220703</ele>
        <time>2019-02-23T14:04:46.000Z</time>
      </trkpt>
      <trkpt lat="43.76299" lon="7.12674">
        <ele>659.79998779297</ele>
        <time>2019-02-23T14:04:47.000Z</time>
      </trkpt>
      <trkpt lat="43.76293" lon="7.1267">
        <ele>659</ele>
        <time>2019-02-23T14:04:49.000Z</time>
      </trkpt>
      <trkpt lat="43.76283" lon="7.12667">
        <ele>657.20001220703</ele>
        <time>2019-02-23T14:04:52.000Z</time>
      </trkpt>
      <trkpt lat="43.7628" lon="7.12666">
        <ele>656.59997558594</ele>
        <time>2019-02-23T14:04:53.000Z</time>
      </trkpt>
      <trkpt lat="43.76278" lon="7.12665">
        <ele>655.79998779297</ele>
        <time>2019-02-23T14:04:54.000Z</time>
      </trkpt>
      <trkpt lat="43.76274" lon="7.12664">
        <ele>653.79998779297</ele>
        <time>2019-02-23T14:04:56.000Z</time>
      </trkpt>
      <trkpt lat="43.76272" lon="7.12665">
        <ele>653.20001220703</ele>
        <time>2019-02-23T14:04:57.000Z</time>
      </trkpt>
      <trkpt lat="43.7627" lon="7.12666">
        <ele>652.20001220703</ele>
        <time>2019-02-23T14:04:58.000Z</time>
      </trkpt>
      <trkpt lat="43.76266" lon="7.12668">
        <ele>651.20001220703</ele>
        <time>2019-02-23T14:05:00.000Z</time>
      </trkpt>
      <trkpt lat="43.76266" lon="7.12668">
        <ele>650.40002441406</ele>
        <time>2019-02-23T14:05:02.000Z</time>
      </trkpt>
      <trkpt lat="43.76266" lon="7.12668">
        <ele>650</ele>
        <time>2019-02-23T14:05:04.000Z</time>
      </trkpt>
      <trkpt lat="43.76266" lon="7.12668">
        <ele>649.59997558594</ele>
        <time>2019-02-23T14:05:10.000Z</time>
      </trkpt>
      <trkpt lat="43.76265" lon="7.12667">
        <ele>649.59997558594</ele>
        <time>2019-02-23T14:05:20.000Z</time>
      </trkpt>
      <trkpt lat="43.76263" lon="7.12665">
        <ele>649.79998779297</ele>
        <time>2019-02-23T14:05:27.000Z</time>
      </trkpt>
      <trkpt lat="43.76263" lon="7.12665">
        <ele>648.59997558594</ele>
        <time>2019-02-23T14:05:31.000Z</time>
      </trkpt>
      <trkpt lat="43.76263" lon="7.12667">
        <ele>648.20001220703</ele>
        <time>2019-02-23T14:05:33.000Z</time>
      </trkpt>
      <trkpt lat="43.76262" lon="7.12667">
        <ele>647.79998779297</ele>
        <time>2019-02-23T14:05:40.000Z</time>
      </trkpt>
      <trkpt lat="43.76261" lon="7.12667">
        <ele>648</ele>
        <time>2019-02-23T14:05:45.000Z</time>
      </trkpt>
      <trkpt lat="43.7626" lon="7.12666">
        <ele>647.79998779297</ele>
        <time>2019-02-23T14:05:46.000Z</time>
      </trkpt>
      <trkpt lat="43.76258" lon="7.12666">
        <ele>647.59997558594</ele>
        <time>2019-02-23T14:05:47.000Z</time>
      </trkpt>
      <trkpt lat="43.76255" lon="7.12666">
        <ele>647.20001220703</ele>
        <time>2019-02-23T14:05:49.000Z</time>
      </trkpt>
      <trkpt lat="43.76252" lon="7.12666">
        <ele>646.79998779297</ele>
        <time>2019-02-23T14:05:51.000Z</time>
      </trkpt>
      <trkpt lat="43.7625" lon="7.12666">
        <ele>646.40002441406</ele>
        <time>2019-02-23T14:05:52.000Z</time>
      </trkpt>
      <trkpt lat="43.76248" lon="7.12665">
        <ele>645.79998779297</ele>
        <time>2019-02-23T14:05:54.000Z</time>
      </trkpt>
      <trkpt lat="43.76244" lon="7.12664">
        <ele>645.20001220703</ele>
        <time>2019-02-23T14:05:56.000Z</time>
      </trkpt>
      <trkpt lat="43.76236" lon="7.12661">
        <ele>644.40002441406</ele>
        <time>2019-02-23T14:05:59.000Z</time>
      </trkpt>
      <trkpt lat="43.76232" lon="7.1266">
        <ele>644</ele>
        <time>2019-02-23T14:06:00.000Z</time>
      </trkpt>
      <trkpt lat="43.7623" lon="7.1266">
        <ele>643.40002441406</ele>
        <time>2019-02-23T14:06:01.000Z</time>
      </trkpt>
      <trkpt lat="43.76226" lon="7.1266">
        <ele>642.79998779297</ele>
        <time>2019-02-23T14:06:02.000Z</time>
      </trkpt>
      <trkpt lat="43.76223" lon="7.12658">
        <ele>642</ele>
        <time>2019-02-23T14:06:03.000Z</time>
      </trkpt>
      <trkpt lat="43.76219" lon="7.12657">
        <ele>641.20001220703</ele>
        <time>2019-02-23T14:06:04.000Z</time>
      </trkpt>
      <trkpt lat="43.76215" lon="7.12656">
        <ele>640.59997558594</ele>
        <time>2019-02-23T14:06:05.000Z</time>
      </trkpt>
      <trkpt lat="43.76209" lon="7.12653">
        <ele>640.20001220703</ele>
        <time>2019-02-23T14:06:07.000Z</time>
      </trkpt>
      <trkpt lat="43.76206" lon="7.12652">
        <ele>639</ele>
        <time>2019-02-23T14:06:09.000Z</time>
      </trkpt>
      <trkpt lat="43.76206" lon="7.12652">
        <ele>638.40002441406</ele>
        <time>2019-02-23T14:06:10.000Z</time>
      </trkpt>
      <trkpt lat="43.76205" lon="7.12653">
        <ele>637.79998779297</ele>
        <time>2019-02-23T14:06:11.000Z</time>
      </trkpt>
      <trkpt lat="43.76201" lon="7.12654">
        <ele>636.59997558594</ele>
        <time>2019-02-23T14:06:13.000Z</time>
      </trkpt>
      <trkpt lat="43.76199" lon="7.12653">
        <ele>636.59997558594</ele>
        <time>2019-02-23T14:06:14.000Z</time>
      </trkpt>
      <trkpt lat="43.76194" lon="7.12651">
        <ele>636</ele>
        <time>2019-02-23T14:06:17.000Z</time>
      </trkpt>
      <trkpt lat="43.76193" lon="7.12651">
        <ele>635.59997558594</ele>
        <time>2019-02-23T14:06:18.000Z</time>
      </trkpt>
      <trkpt lat="43.76191" lon="7.12651">
        <ele>635.20001220703</ele>
        <time>2019-02-23T14:06:19.000Z</time>
      </trkpt>
      <trkpt lat="43.7619" lon="7.1265">
        <ele>634</ele>
        <time>2019-02-23T14:06:21.000Z</time>
      </trkpt>
      <trkpt lat="43.76187" lon="7.12651">
        <ele>633</ele>
        <time>2019-02-23T14:06:23.000Z</time>
      </trkpt>
      <trkpt lat="43.76186" lon="7.1265">
        <ele>632.40002441406</ele>
        <time>2019-02-23T14:06:24.000Z</time>
      </trkpt>
      <trkpt lat="43.76183" lon="7.12646">
        <ele>631.79998779297</ele>
        <time>2019-02-23T14:06:27.000Z</time>
      </trkpt>
      <trkpt lat="43.76181" lon="7.12645">
        <ele>631.40002441406</ele>
        <time>2019-02-23T14:06:29.000Z</time>
      </trkpt>
      <trkpt lat="43.7618" lon="7.12645">
        <ele>630.40002441406</ele>
        <time>2019-02-23T14:06:31.000Z</time>
      </trkpt>
      <trkpt lat="43.7618" lon="7.12645">
        <ele>630</ele>
        <time>2019-02-23T14:06:32.000Z</time>
      </trkpt>
      <trkpt lat="43.7618" lon="7.12645">
        <ele>629.20001220703</ele>
        <time>2019-02-23T14:06:35.000Z</time>
      </trkpt>
      <trkpt lat="43.76179" lon="7.12644">
        <ele>629.20001220703</ele>
        <time>2019-02-23T14:06:39.000Z</time>
      </trkpt>
      <trkpt lat="43.76177" lon="7.12642">
        <ele>628.59997558594</ele>
        <time>2019-02-23T14:06:46.000Z</time>
      </trkpt>
      <trkpt lat="43.76177" lon="7.12642">
        <ele>628.20001220703</ele>
        <time>2019-02-23T14:06:48.000Z</time>
      </trkpt>
      <trkpt lat="43.76176" lon="7.12641">
        <ele>627.79998779297</ele>
        <time>2019-02-23T14:06:54.000Z</time>
      </trkpt>
      <trkpt lat="43.76176" lon="7.12639">
        <ele>627.20001220703</ele>
        <time>2019-02-23T14:07:02.000Z</time>
      </trkpt>
      <trkpt lat="43.76176" lon="7.12639">
        <ele>627.20001220703</ele>
        <time>2019-02-23T14:07:03.000Z</time>
      </trkpt>
      <trkpt lat="43.76176" lon="7.1264">
        <ele>627.20001220703</ele>
        <time>2019-02-23T14:07:13.000Z</time>
      </trkpt>
      <trkpt lat="43.76175" lon="7.12639">
        <ele>627.20001220703</ele>
        <time>2019-02-23T14:07:16.000Z</time>
      </trkpt>
      <trkpt lat="43.76171" lon="7.12639">
        <ele>626.59997558594</ele>
        <time>2019-02-23T14:07:20.000Z</time>
      </trkpt>
      <trkpt lat="43.76167" lon="7.12639">
        <ele>626.20001220703</ele>
        <time>2019-02-23T14:07:22.000Z</time>
      </trkpt>
      <trkpt lat="43.76165" lon="7.12638">
        <ele>625.79998779297</ele>
        <time>2019-02-23T14:07:24.000Z</time>
      </trkpt>
      <trkpt lat="43.76164" lon="7.12639">
        <ele>625.79998779297</ele>
        <time>2019-02-23T14:07:25.000Z</time>
      </trkpt>
      <trkpt lat="43.7616" lon="7.12636">
        <ele>625.20001220703</ele>
        <time>2019-02-23T14:07:27.000Z</time>
      </trkpt>
      <trkpt lat="43.7616" lon="7.12634">
        <ele>624.79998779297</ele>
        <time>2019-02-23T14:07:28.000Z</time>
      </trkpt>
      <trkpt lat="43.7616" lon="7.12629">
        <ele>624</ele>
        <time>2019-02-23T14:07:30.000Z</time>
      </trkpt>
      <trkpt lat="43.76159" lon="7.12625">
        <ele>622.79998779297</ele>
        <time>2019-02-23T14:07:32.000Z</time>
      </trkpt>
      <trkpt lat="43.76158" lon="7.12623">
        <ele>621.79998779297</ele>
        <time>2019-02-23T14:07:33.000Z</time>
      </trkpt>
      <trkpt lat="43.76156" lon="7.12622">
        <ele>621.20001220703</ele>
        <time>2019-02-23T14:07:34.000Z</time>
      </trkpt>
      <trkpt lat="43.76152" lon="7.12621">
        <ele>619.79998779297</ele>
        <time>2019-02-23T14:07:36.000Z</time>
      </trkpt>
      <trkpt lat="43.76146" lon="7.12623">
        <ele>618.59997558594</ele>
        <time>2019-02-23T14:07:38.000Z</time>
      </trkpt>
      <trkpt lat="43.76144" lon="7.12624">
        <ele>618</ele>
        <time>2019-02-23T14:07:39.000Z</time>
      </trkpt>
      <trkpt lat="43.76142" lon="7.12624">
        <ele>617.59997558594</ele>
        <time>2019-02-23T14:07:40.000Z</time>
      </trkpt>
      <trkpt lat="43.76139" lon="7.12622">
        <ele>616.59997558594</ele>
        <time>2019-02-23T14:07:42.000Z</time>
      </trkpt>
      <trkpt lat="43.76137" lon="7.12621">
        <ele>616.40002441406</ele>
        <time>2019-02-23T14:07:43.000Z</time>
      </trkpt>
      <trkpt lat="43.7613" lon="7.1262">
        <ele>614.79998779297</ele>
        <time>2019-02-23T14:07:46.000Z</time>
      </trkpt>
      <trkpt lat="43.76127" lon="7.12619">
        <ele>614.20001220703</ele>
        <time>2019-02-23T14:07:47.000Z</time>
      </trkpt>
      <trkpt lat="43.76124" lon="7.12619">
        <ele>613.40002441406</ele>
        <time>2019-02-23T14:07:48.000Z</time>
      </trkpt>
      <trkpt lat="43.76122" lon="7.1262">
        <ele>613</ele>
        <time>2019-02-23T14:07:49.000Z</time>
      </trkpt>
      <trkpt lat="43.76121" lon="7.12622">
        <ele>612.40002441406</ele>
        <time>2019-02-23T14:07:50.000Z</time>
      </trkpt>
      <trkpt lat="43.76119" lon="7.12625">
        <ele>611.59997558594</ele>
        <time>2019-02-23T14:07:51.000Z</time>
      </trkpt>
      <trkpt lat="43.76116" lon="7.12627">
        <ele>611.20001220703</ele>
        <time>2019-02-23T14:07:52.000Z</time>
      </trkpt>
      <trkpt lat="43.76113" lon="7.12627">
        <ele>610.79998779297</ele>
        <time>2019-02-23T14:07:53.000Z</time>
      </trkpt>
      <trkpt lat="43.7611" lon="7.12627">
        <ele>610.59997558594</ele>
        <time>2019-02-23T14:07:54.000Z</time>
      </trkpt>
      <trkpt lat="43.76107" lon="7.12628">
        <ele>609.79998779297</ele>
        <time>2019-02-23T14:07:56.000Z</time>
      </trkpt>
      <trkpt lat="43.76106" lon="7.12628">
        <ele>609.40002441406</ele>
        <time>2019-02-23T14:07:57.000Z</time>
      </trkpt>
      <trkpt lat="43.76106" lon="7.12628">
        <ele>608.79998779297</ele>
        <time>2019-02-23T14:07:58.000Z</time>
      </trkpt>
      <trkpt lat="43.76106" lon="7.12628">
        <ele>608.20001220703</ele>
        <time>2019-02-23T14:07:59.000Z</time>
      </trkpt>
      <trkpt lat="43.76105" lon="7.12629">
        <ele>607.20001220703</ele>
        <time>2019-02-23T14:08:01.000Z</time>
      </trkpt>
      <trkpt lat="43.76103" lon="7.12631">
        <ele>606.20001220703</ele>
        <time>2019-02-23T14:08:05.000Z</time>
      </trkpt>
      <trkpt lat="43.76103" lon="7.12632">
        <ele>606</ele>
        <time>2019-02-23T14:08:06.000Z</time>
      </trkpt>
      <trkpt lat="43.76104" lon="7.12637">
        <ele>605.40002441406</ele>
        <time>2019-02-23T14:08:08.000Z</time>
      </trkpt>
      <trkpt lat="43.76106" lon="7.12644">
        <ele>605</ele>
        <time>2019-02-23T14:08:10.000Z</time>
      </trkpt>
      <trkpt lat="43.76107" lon="7.12646">
        <ele>604.79998779297</ele>
        <time>2019-02-23T14:08:11.000Z</time>
      </trkpt>
      <trkpt lat="43.76108" lon="7.1265">
        <ele>604.40002441406</ele>
        <time>2019-02-23T14:08:12.000Z</time>
      </trkpt>
      <trkpt lat="43.7611" lon="7.12661">
        <ele>603.59997558594</ele>
        <time>2019-02-23T14:08:14.000Z</time>
      </trkpt>
      <trkpt lat="43.76108" lon="7.12679">
        <ele>603.20001220703</ele>
        <time>2019-02-23T14:08:17.000Z</time>
      </trkpt>
      <trkpt lat="43.76107" lon="7.12686">
        <ele>602.59997558594</ele>
        <time>2019-02-23T14:08:18.000Z</time>
      </trkpt>
      <trkpt lat="43.76103" lon="7.12695">
        <ele>601</ele>
        <time>2019-02-23T14:08:20.000Z</time>
      </trkpt>
      <trkpt lat="43.76099" lon="7.12706">
        <ele>599.59997558594</ele>
        <time>2019-02-23T14:08:22.000Z</time>
      </trkpt>
      <trkpt lat="43.761" lon="7.12715">
        <ele>598.59997558594</ele>
        <time>2019-02-23T14:08:24.000Z</time>
      </trkpt>
      <trkpt lat="43.76093" lon="7.12726">
        <ele>599.20001220703</ele>
        <time>2019-02-23T14:08:28.000Z</time>
      </trkpt>
      <trkpt lat="43.76078" lon="7.12733">
        <ele>598.79998779297</ele>
        <time>2019-02-23T14:08:31.000Z</time>
      </trkpt>
      <trkpt lat="43.76074" lon="7.12736">
        <ele>598.40002441406</ele>
        <time>2019-02-23T14:08:32.000Z</time>
      </trkpt>
      <trkpt lat="43.76071" lon="7.12739">
        <ele>597.40002441406</ele>
        <time>2019-02-23T14:08:33.000Z</time>
      </trkpt>
      <trkpt lat="43.76067" lon="7.12745">
        <ele>596</ele>
        <time>2019-02-23T14:08:35.000Z</time>
      </trkpt>
      <trkpt lat="43.76065" lon="7.12745">
        <ele>595.40002441406</ele>
        <time>2019-02-23T14:08:36.000Z</time>
      </trkpt>
      <trkpt lat="43.76064" lon="7.12743">
        <ele>594.59997558594</ele>
        <time>2019-02-23T14:08:37.000Z</time>
      </trkpt>
      <trkpt lat="43.76064" lon="7.12742">
        <ele>593.59997558594</ele>
        <time>2019-02-23T14:08:39.000Z</time>
      </trkpt>
      <trkpt lat="43.76062" lon="7.12741">
        <ele>593</ele>
        <time>2019-02-23T14:08:40.000Z</time>
      </trkpt>
      <trkpt lat="43.7606" lon="7.12742">
        <ele>592.40002441406</ele>
        <time>2019-02-23T14:08:41.000Z</time>
      </trkpt>
      <trkpt lat="43.76054" lon="7.12745">
        <ele>591.20001220703</ele>
        <time>2019-02-23T14:08:43.000Z</time>
      </trkpt>
      <trkpt lat="43.76048" lon="7.12748">
        <ele>589.59997558594</ele>
        <time>2019-02-23T14:08:45.000Z</time>
      </trkpt>
      <trkpt lat="43.76041" lon="7.12751">
        <ele>588.40002441406</ele>
        <time>2019-02-23T14:08:47.000Z</time>
      </trkpt>
      <trkpt lat="43.76034" lon="7.12751">
        <ele>586.20001220703</ele>
        <time>2019-02-23T14:08:50.000Z</time>
      </trkpt>
      <trkpt lat="43.76034" lon="7.12749">
        <ele>585.59997558594</ele>
        <time>2019-02-23T14:08:51.000Z</time>
      </trkpt>
      <trkpt lat="43.76036" lon="7.12747">
        <ele>584.59997558594</ele>
        <time>2019-02-23T14:08:52.000Z</time>
      </trkpt>
      <trkpt lat="43.76039" lon="7.12743">
        <ele>583.20001220703</ele>
        <time>2019-02-23T14:08:54.000Z</time>
      </trkpt>
      <trkpt lat="43.76044" lon="7.12735">
        <ele>582</ele>
        <time>2019-02-23T14:08:57.000Z</time>
      </trkpt>
      <trkpt lat="43.76044" lon="7.12734">
        <ele>581.40002441406</ele>
        <time>2019-02-23T14:08:58.000Z</time>
      </trkpt>
      <trkpt lat="43.76044" lon="7.12733">
        <ele>580.79998779297</ele>
        <time>2019-02-23T14:08:59.000Z</time>
      </trkpt>
      <trkpt lat="43.76042" lon="7.12734">
        <ele>579.59997558594</ele>
        <time>2019-02-23T14:09:02.000Z</time>
      </trkpt>
      <trkpt lat="43.76035" lon="7.12733">
        <ele>578.79998779297</ele>
        <time>2019-02-23T14:09:05.000Z</time>
      </trkpt>
      <trkpt lat="43.76034" lon="7.12731">
        <ele>578.20001220703</ele>
        <time>2019-02-23T14:09:06.000Z</time>
      </trkpt>
      <trkpt lat="43.76035" lon="7.12725">
        <ele>577.40002441406</ele>
        <time>2019-02-23T14:09:08.000Z</time>
      </trkpt>
      <trkpt lat="43.76036" lon="7.12722">
        <ele>577</ele>
        <time>2019-02-23T14:09:09.000Z</time>
      </trkpt>
      <trkpt lat="43.7604" lon="7.12714">
        <ele>575.79998779297</ele>
        <time>2019-02-23T14:09:12.000Z</time>
      </trkpt>
      <trkpt lat="43.7604" lon="7.12713">
        <ele>575.20001220703</ele>
        <time>2019-02-23T14:09:13.000Z</time>
      </trkpt>
      <trkpt lat="43.7604" lon="7.12711">
        <ele>574.20001220703</ele>
        <time>2019-02-23T14:09:14.000Z</time>
      </trkpt>
      <trkpt lat="43.76037" lon="7.12706">
        <ele>572.79998779297</ele>
        <time>2019-02-23T14:09:16.000Z</time>
      </trkpt>
      <trkpt lat="43.76035" lon="7.12706">
        <ele>572</ele>
        <time>2019-02-23T14:09:17.000Z</time>
      </trkpt>
      <trkpt lat="43.76033" lon="7.12709">
        <ele>571.79998779297</ele>
        <time>2019-02-23T14:09:18.000Z</time>
      </trkpt>
      <trkpt lat="43.7603" lon="7.12711">
        <ele>570</ele>
        <time>2019-02-23T14:09:21.000Z</time>
      </trkpt>
      <trkpt lat="43.76028" lon="7.12709">
        <ele>568.79998779297</ele>
        <time>2019-02-23T14:09:23.000Z</time>
      </trkpt>
      <trkpt lat="43.76022" lon="7.12706">
        <ele>567.59997558594</ele>
        <time>2019-02-23T14:09:26.000Z</time>
      </trkpt>
      <trkpt lat="43.76015" lon="7.12709">
        <ele>566.20001220703</ele>
        <time>2019-02-23T14:09:28.000Z</time>
      </trkpt>
      <trkpt lat="43.76011" lon="7.1271">
        <ele>565.20001220703</ele>
        <time>2019-02-23T14:09:29.000Z</time>
      </trkpt>
      <trkpt lat="43.76008" lon="7.12712">
        <ele>564.40002441406</ele>
        <time>2019-02-23T14:09:30.000Z</time>
      </trkpt>
      <trkpt lat="43.76003" lon="7.12718">
        <ele>562.79998779297</ele>
        <time>2019-02-23T14:09:32.000Z</time>
      </trkpt>
      <trkpt lat="43.76001" lon="7.12717">
        <ele>562.40002441406</ele>
        <time>2019-02-23T14:09:33.000Z</time>
      </trkpt>
      <trkpt lat="43.75999" lon="7.12716">
        <ele>561.79998779297</ele>
        <time>2019-02-23T14:09:34.000Z</time>
      </trkpt>
      <trkpt lat="43.75999" lon="7.12713">
        <ele>560.40002441406</ele>
        <time>2019-02-23T14:09:36.000Z</time>
      </trkpt>
      <trkpt lat="43.76004" lon="7.12705">
        <ele>559.20001220703</ele>
        <time>2019-02-23T14:09:39.000Z</time>
      </trkpt>
      <trkpt lat="43.76003" lon="7.12703">
        <ele>558.59997558594</ele>
        <time>2019-02-23T14:09:40.000Z</time>
      </trkpt>
      <trkpt lat="43.76001" lon="7.12703">
        <ele>558</ele>
        <time>2019-02-23T14:09:41.000Z</time>
      </trkpt>
      <trkpt lat="43.75997" lon="7.12707">
        <ele>557.40002441406</ele>
        <time>2019-02-23T14:09:43.000Z</time>
      </trkpt>
      <trkpt lat="43.75995" lon="7.12709">
        <ele>556.59997558594</ele>
        <time>2019-02-23T14:09:44.000Z</time>
      </trkpt>
      <trkpt lat="43.75993" lon="7.12711">
        <ele>555.40002441406</ele>
        <time>2019-02-23T14:09:47.000Z</time>
      </trkpt>
      <trkpt lat="43.75992" lon="7.12711">
        <ele>554.40002441406</ele>
        <time>2019-02-23T14:09:49.000Z</time>
      </trkpt>
      <trkpt lat="43.75993" lon="7.12711">
        <ele>553.59997558594</ele>
        <time>2019-02-23T14:09:53.000Z</time>
      </trkpt>
      <trkpt lat="43.75992" lon="7.12711">
        <ele>553.20001220703</ele>
        <time>2019-02-23T14:09:59.000Z</time>
      </trkpt>
      <trkpt lat="43.75992" lon="7.12711">
        <ele>553.20001220703</ele>
        <time>2019-02-23T14:10:00.000Z</time>
      </trkpt>
      <trkpt lat="43.75992" lon="7.12707">
        <ele>552.40002441406</ele>
        <time>2019-02-23T14:10:06.000Z</time>
      </trkpt>
      <trkpt lat="43.75992" lon="7.12707">
        <ele>552.20001220703</ele>
        <time>2019-02-23T14:10:08.000Z</time>
      </trkpt>
      <trkpt lat="43.75991" lon="7.12705">
        <ele>551.79998779297</ele>
        <time>2019-02-23T14:10:12.000Z</time>
      </trkpt>
      <trkpt lat="43.75988" lon="7.12705">
        <ele>551.79998779297</ele>
        <time>2019-02-23T14:10:21.000Z</time>
      </trkpt>
      <trkpt lat="43.75983" lon="7.12709">
        <ele>551.40002441406</ele>
        <time>2019-02-23T14:10:24.000Z</time>
      </trkpt>
      <trkpt lat="43.75982" lon="7.12708">
        <ele>551.20001220703</ele>
        <time>2019-02-23T14:10:25.000Z</time>
      </trkpt>
      <trkpt lat="43.75978" lon="7.12706">
        <ele>549.79998779297</ele>
        <time>2019-02-23T14:10:28.000Z</time>
      </trkpt>
      <trkpt lat="43.75976" lon="7.12706">
        <ele>549.40002441406</ele>
        <time>2019-02-23T14:10:29.000Z</time>
      </trkpt>
      <trkpt lat="43.75974" lon="7.12705">
        <ele>549</ele>
        <time>2019-02-23T14:10:30.000Z</time>
      </trkpt>
      <trkpt lat="43.75972" lon="7.12704">
        <ele>548.40002441406</ele>
        <time>2019-02-23T14:10:31.000Z</time>
      </trkpt>
      <trkpt lat="43.75969" lon="7.12701">
        <ele>546.59997558594</ele>
        <time>2019-02-23T14:10:34.000Z</time>
      </trkpt>
      <trkpt lat="43.7597" lon="7.12699">
        <ele>546.40002441406</ele>
        <time>2019-02-23T14:10:35.000Z</time>
      </trkpt>
      <trkpt lat="43.75972" lon="7.12695">
        <ele>545.59997558594</ele>
        <time>2019-02-23T14:10:37.000Z</time>
      </trkpt>
      <trkpt lat="43.75975" lon="7.1269">
        <ele>544.20001220703</ele>
        <time>2019-02-23T14:10:40.000Z</time>
      </trkpt>
      <trkpt lat="43.75974" lon="7.12687">
        <ele>543</ele>
        <time>2019-02-23T14:10:42.000Z</time>
      </trkpt>
      <trkpt lat="43.75974" lon="7.12683">
        <ele>541.59997558594</ele>
        <time>2019-02-23T14:10:44.000Z</time>
      </trkpt>
      <trkpt lat="43.75971" lon="7.1268">
        <ele>540.59997558594</ele>
        <time>2019-02-23T14:10:46.000Z</time>
      </trkpt>
      <trkpt lat="43.75967" lon="7.12682">
        <ele>540</ele>
        <time>2019-02-23T14:10:48.000Z</time>
      </trkpt>
      <trkpt lat="43.75966" lon="7.12683">
        <ele>539.40002441406</ele>
        <time>2019-02-23T14:10:49.000Z</time>
      </trkpt>
      <trkpt lat="43.7596" lon="7.12685">
        <ele>538.20001220703</ele>
        <time>2019-02-23T14:10:52.000Z</time>
      </trkpt>
      <trkpt lat="43.75959" lon="7.12685">
        <ele>537.79998779297</ele>
        <time>2019-02-23T14:10:53.000Z</time>
      </trkpt>
      <trkpt lat="43.75958" lon="7.12684">
        <ele>537.40002441406</ele>
        <time>2019-02-23T14:10:54.000Z</time>
      </trkpt>
      <trkpt lat="43.75957" lon="7.12682">
        <ele>537</ele>
        <time>2019-02-23T14:10:55.000Z</time>
      </trkpt>
      <trkpt lat="43.75957" lon="7.12682">
        <ele>536.40002441406</ele>
        <time>2019-02-23T14:10:57.000Z</time>
      </trkpt>
      <trkpt lat="43.75957" lon="7.12681">
        <ele>535.79998779297</ele>
        <time>2019-02-23T14:11:01.000Z</time>
      </trkpt>
      <trkpt lat="43.75957" lon="7.12681">
        <ele>535.79998779297</ele>
        <time>2019-02-23T14:11:04.000Z</time>
      </trkpt>
      <trkpt lat="43.75959" lon="7.12677">
        <ele>535.40002441406</ele>
        <time>2019-02-23T14:11:11.000Z</time>
      </trkpt>
      <trkpt lat="43.75965" lon="7.12669">
        <ele>534.79998779297</ele>
        <time>2019-02-23T14:11:15.000Z</time>
      </trkpt>
      <trkpt lat="43.75965" lon="7.12668">
        <ele>534.59997558594</ele>
        <time>2019-02-23T14:11:16.000Z</time>
      </trkpt>
      <trkpt lat="43.75961" lon="7.12668">
        <ele>533.40002441406</ele>
        <time>2019-02-23T14:11:19.000Z</time>
      </trkpt>
      <trkpt lat="43.75958" lon="7.12668">
        <ele>533</ele>
        <time>2019-02-23T14:11:20.000Z</time>
      </trkpt>
      <trkpt lat="43.75953" lon="7.12669">
        <ele>531.79998779297</ele>
        <time>2019-02-23T14:11:23.000Z</time>
      </trkpt>
      <trkpt lat="43.75946" lon="7.12669">
        <ele>530.59997558594</ele>
        <time>2019-02-23T14:11:26.000Z</time>
      </trkpt>
      <trkpt lat="43.75944" lon="7.12669">
        <ele>529.79998779297</ele>
        <time>2019-02-23T14:11:27.000Z</time>
      </trkpt>
      <trkpt lat="43.75942" lon="7.12669">
        <ele>529.40002441406</ele>
        <time>2019-02-23T14:11:28.000Z</time>
      </trkpt>
      <trkpt lat="43.75937" lon="7.12667">
        <ele>528.40002441406</ele>
        <time>2019-02-23T14:11:30.000Z</time>
      </trkpt>
      <trkpt lat="43.75935" lon="7.12665">
        <ele>527.79998779297</ele>
        <time>2019-02-23T14:11:31.000Z</time>
      </trkpt>
      <trkpt lat="43.75934" lon="7.12662">
        <ele>526.40002441406</ele>
        <time>2019-02-23T14:11:32.000Z</time>
      </trkpt>
      <trkpt lat="43.75934" lon="7.12659">
        <ele>525.40002441406</ele>
        <time>2019-02-23T14:11:33.000Z</time>
      </trkpt>
      <trkpt lat="43.75933" lon="7.12657">
        <ele>524.59997558594</ele>
        <time>2019-02-23T14:11:34.000Z</time>
      </trkpt>
      <trkpt lat="43.75933" lon="7.12655">
        <ele>523.40002441406</ele>
        <time>2019-02-23T14:11:35.000Z</time>
      </trkpt>
      <trkpt lat="43.75931" lon="7.12654">
        <ele>522.79998779297</ele>
        <time>2019-02-23T14:11:36.000Z</time>
      </trkpt>
      <trkpt lat="43.75929" lon="7.12653">
        <ele>522</ele>
        <time>2019-02-23T14:11:37.000Z</time>
      </trkpt>
      <trkpt lat="43.75926" lon="7.12651">
        <ele>521</ele>
        <time>2019-02-23T14:11:39.000Z</time>
      </trkpt>
      <trkpt lat="43.75925" lon="7.12646">
        <ele>519.79998779297</ele>
        <time>2019-02-23T14:11:41.000Z</time>
      </trkpt>
      <trkpt lat="43.75928" lon="7.12641">
        <ele>518.40002441406</ele>
        <time>2019-02-23T14:11:43.000Z</time>
      </trkpt>
      <trkpt lat="43.7593" lon="7.12636">
        <ele>517.20001220703</ele>
        <time>2019-02-23T14:11:45.000Z</time>
      </trkpt>
      <trkpt lat="43.75928" lon="7.12634">
        <ele>516.20001220703</ele>
        <time>2019-02-23T14:11:47.000Z</time>
      </trkpt>
      <trkpt lat="43.75923" lon="7.12635">
        <ele>514.59997558594</ele>
        <time>2019-02-23T14:11:50.000Z</time>
      </trkpt>
      <trkpt lat="43.75923" lon="7.12635">
        <ele>514</ele>
        <time>2019-02-23T14:11:51.000Z</time>
      </trkpt>
      <trkpt lat="43.75921" lon="7.12632">
        <ele>513.40002441406</ele>
        <time>2019-02-23T14:11:52.000Z</time>
      </trkpt>
      <trkpt lat="43.75921" lon="7.12626">
        <ele>512.59997558594</ele>
        <time>2019-02-23T14:11:54.000Z</time>
      </trkpt>
      <trkpt lat="43.75921" lon="7.12623">
        <ele>512</ele>
        <time>2019-02-23T14:11:55.000Z</time>
      </trkpt>
      <trkpt lat="43.75916" lon="7.12619">
        <ele>510.79998779297</ele>
        <time>2019-02-23T14:11:58.000Z</time>
      </trkpt>
      <trkpt lat="43.75911" lon="7.1262">
        <ele>509.79998779297</ele>
        <time>2019-02-23T14:12:00.000Z</time>
      </trkpt>
      <trkpt lat="43.75907" lon="7.12621">
        <ele>508.79998779297</ele>
        <time>2019-02-23T14:12:02.000Z</time>
      </trkpt>
      <trkpt lat="43.75901" lon="7.12621">
        <ele>507.60000610352</ele>
        <time>2019-02-23T14:12:04.000Z</time>
      </trkpt>
      <trkpt lat="43.75893" lon="7.1262">
        <ele>506.60000610352</ele>
        <time>2019-02-23T14:12:06.000Z</time>
      </trkpt>
      <trkpt lat="43.75889" lon="7.12621">
        <ele>505.39999389648</ele>
        <time>2019-02-23T14:12:07.000Z</time>
      </trkpt>
      <trkpt lat="43.75885" lon="7.12622">
        <ele>504</ele>
        <time>2019-02-23T14:12:09.000Z</time>
      </trkpt>
      <trkpt lat="43.75883" lon="7.12621">
        <ele>503</ele>
        <time>2019-02-23T14:12:10.000Z</time>
      </trkpt>
      <trkpt lat="43.75876" lon="7.12619">
        <ele>501.79998779297</ele>
        <time>2019-02-23T14:12:13.000Z</time>
      </trkpt>
      <trkpt lat="43.7587" lon="7.12618">
        <ele>500.39999389648</ele>
        <time>2019-02-23T14:12:16.000Z</time>
      </trkpt>
      <trkpt lat="43.75868" lon="7.12618">
        <ele>499.79998779297</ele>
        <time>2019-02-23T14:12:17.000Z</time>
      </trkpt>
      <trkpt lat="43.75867" lon="7.12618">
        <ele>499.20001220703</ele>
        <time>2019-02-23T14:12:18.000Z</time>
      </trkpt>
      <trkpt lat="43.7586" lon="7.12618">
        <ele>498</ele>
        <time>2019-02-23T14:12:21.000Z</time>
      </trkpt>
      <trkpt lat="43.75854" lon="7.12619">
        <ele>497.60000610352</ele>
        <time>2019-02-23T14:12:23.000Z</time>
      </trkpt>
      <trkpt lat="43.75851" lon="7.12618">
        <ele>497</ele>
        <time>2019-02-23T14:12:24.000Z</time>
      </trkpt>
      <trkpt lat="43.75846" lon="7.1262">
        <ele>495.79998779297</ele>
        <time>2019-02-23T14:12:26.000Z</time>
      </trkpt>
      <trkpt lat="43.75844" lon="7.12621">
        <ele>494.79998779297</ele>
        <time>2019-02-23T14:12:27.000Z</time>
      </trkpt>
      <trkpt lat="43.75841" lon="7.12623">
        <ele>494.39999389648</ele>
        <time>2019-02-23T14:12:28.000Z</time>
      </trkpt>
      <trkpt lat="43.75838" lon="7.12625">
        <ele>493</ele>
        <time>2019-02-23T14:12:30.000Z</time>
      </trkpt>
      <trkpt lat="43.75833" lon="7.12628">
        <ele>491.60000610352</ele>
        <time>2019-02-23T14:12:32.000Z</time>
      </trkpt>
      <trkpt lat="43.75831" lon="7.1263">
        <ele>491.39999389648</ele>
        <time>2019-02-23T14:12:33.000Z</time>
      </trkpt>
      <trkpt lat="43.75827" lon="7.12636">
        <ele>490.20001220703</ele>
        <time>2019-02-23T14:12:35.000Z</time>
      </trkpt>
      <trkpt lat="43.75826" lon="7.1264">
        <ele>490</ele>
        <time>2019-02-23T14:12:36.000Z</time>
      </trkpt>
      <trkpt lat="43.75821" lon="7.12644">
        <ele>488.79998779297</ele>
        <time>2019-02-23T14:12:38.000Z</time>
      </trkpt>
      <trkpt lat="43.75819" lon="7.12643">
        <ele>488.20001220703</ele>
        <time>2019-02-23T14:12:39.000Z</time>
      </trkpt>
      <trkpt lat="43.75813" lon="7.12641">
        <ele>487.39999389648</ele>
        <time>2019-02-23T14:12:41.000Z</time>
      </trkpt>
      <trkpt lat="43.75808" lon="7.12641">
        <ele>486.39999389648</ele>
        <time>2019-02-23T14:12:43.000Z</time>
      </trkpt>
      <trkpt lat="43.75806" lon="7.12641">
        <ele>486</ele>
        <time>2019-02-23T14:12:44.000Z</time>
      </trkpt>
      <trkpt lat="43.75801" lon="7.12642">
        <ele>485</ele>
        <time>2019-02-23T14:12:46.000Z</time>
      </trkpt>
      <trkpt lat="43.75794" lon="7.1264">
        <ele>483.79998779297</ele>
        <time>2019-02-23T14:12:48.000Z</time>
      </trkpt>
      <trkpt lat="43.75786" lon="7.12638">
        <ele>482.39999389648</ele>
        <time>2019-02-23T14:12:50.000Z</time>
      </trkpt>
      <trkpt lat="43.75781" lon="7.12639">
        <ele>480.79998779297</ele>
        <time>2019-02-23T14:12:52.000Z</time>
      </trkpt>
      <trkpt lat="43.75775" lon="7.12636">
        <ele>479.20001220703</ele>
        <time>2019-02-23T14:12:54.000Z</time>
      </trkpt>
      <trkpt lat="43.75771" lon="7.12636">
        <ele>478.39999389648</ele>
        <time>2019-02-23T14:12:55.000Z</time>
      </trkpt>
      <trkpt lat="43.75767" lon="7.12635">
        <ele>477.39999389648</ele>
        <time>2019-02-23T14:12:56.000Z</time>
      </trkpt>
      <trkpt lat="43.75763" lon="7.12636">
        <ele>476.20001220703</ele>
        <time>2019-02-23T14:12:58.000Z</time>
      </trkpt>
      <trkpt lat="43.75762" lon="7.12636">
        <ele>475.39999389648</ele>
        <time>2019-02-23T14:12:59.000Z</time>
      </trkpt>
      <trkpt lat="43.7576" lon="7.12635">
        <ele>474.60000610352</ele>
        <time>2019-02-23T14:13:00.000Z</time>
      </trkpt>
      <trkpt lat="43.75761" lon="7.12631">
        <ele>473.60000610352</ele>
        <time>2019-02-23T14:13:02.000Z</time>
      </trkpt>
      <trkpt lat="43.75764" lon="7.12624">
        <ele>472.39999389648</ele>
        <time>2019-02-23T14:13:05.000Z</time>
      </trkpt>
      <trkpt lat="43.75764" lon="7.12622">
        <ele>471.39999389648</ele>
        <time>2019-02-23T14:13:07.000Z</time>
      </trkpt>
      <trkpt lat="43.75762" lon="7.12621">
        <ele>470.20001220703</ele>
        <time>2019-02-23T14:13:09.000Z</time>
      </trkpt>
      <trkpt lat="43.75757" lon="7.12621">
        <ele>469.39999389648</ele>
        <time>2019-02-23T14:13:11.000Z</time>
      </trkpt>
      <trkpt lat="43.75756" lon="7.12621">
        <ele>469</ele>
        <time>2019-02-23T14:13:12.000Z</time>
      </trkpt>
      <trkpt lat="43.7575" lon="7.12619">
        <ele>468</ele>
        <time>2019-02-23T14:13:15.000Z</time>
      </trkpt>
      <trkpt lat="43.75751" lon="7.12618">
        <ele>467.79998779297</ele>
        <time>2019-02-23T14:13:16.000Z</time>
      </trkpt>
      <trkpt lat="43.75757" lon="7.12612">
        <ele>466.60000610352</ele>
        <time>2019-02-23T14:13:19.000Z</time>
      </trkpt>
      <trkpt lat="43.75763" lon="7.12606">
        <ele>465.39999389648</ele>
        <time>2019-02-23T14:13:21.000Z</time>
      </trkpt>
      <trkpt lat="43.75767" lon="7.12603">
        <ele>464.39999389648</ele>
        <time>2019-02-23T14:13:23.000Z</time>
      </trkpt>
      <trkpt lat="43.75768" lon="7.12601">
        <ele>463.79998779297</ele>
        <time>2019-02-23T14:13:24.000Z</time>
      </trkpt>
      <trkpt lat="43.75769" lon="7.12599">
        <ele>463.39999389648</ele>
        <time>2019-02-23T14:13:25.000Z</time>
      </trkpt>
      <trkpt lat="43.75772" lon="7.12596">
        <ele>462.79998779297</ele>
        <time>2019-02-23T14:13:26.000Z</time>
      </trkpt>
      <trkpt lat="43.75775" lon="7.12593">
        <ele>461.79998779297</ele>
        <time>2019-02-23T14:13:28.000Z</time>
      </trkpt>
      <trkpt lat="43.75777" lon="7.12589">
        <ele>460.79998779297</ele>
        <time>2019-02-23T14:13:30.000Z</time>
      </trkpt>
      <trkpt lat="43.75782" lon="7.12584">
        <ele>460</ele>
        <time>2019-02-23T14:13:32.000Z</time>
      </trkpt>
      <trkpt lat="43.75781" lon="7.12582">
        <ele>459.60000610352</ele>
        <time>2019-02-23T14:13:33.000Z</time>
      </trkpt>
      <trkpt lat="43.75779" lon="7.12582">
        <ele>458.60000610352</ele>
        <time>2019-02-23T14:13:35.000Z</time>
      </trkpt>
      <trkpt lat="43.75776" lon="7.12581">
        <ele>457.20001220703</ele>
        <time>2019-02-23T14:13:37.000Z</time>
      </trkpt>
      <trkpt lat="43.75776" lon="7.1258">
        <ele>456.79998779297</ele>
        <time>2019-02-23T14:13:38.000Z</time>
      </trkpt>
      <trkpt lat="43.75777" lon="7.12579">
        <ele>456.79998779297</ele>
        <time>2019-02-23T14:13:39.000Z</time>
      </trkpt>
      <trkpt lat="43.75777" lon="7.12578">
        <ele>456.20001220703</ele>
        <time>2019-02-23T14:13:40.000Z</time>
      </trkpt>
      <trkpt lat="43.75777" lon="7.12574">
        <ele>455.60000610352</ele>
        <time>2019-02-23T14:13:42.000Z</time>
      </trkpt>
      <trkpt lat="43.75776" lon="7.12573">
        <ele>455</ele>
        <time>2019-02-23T14:13:44.000Z</time>
      </trkpt>
      <trkpt lat="43.75775" lon="7.12572">
        <ele>453.79998779297</ele>
        <time>2019-02-23T14:13:47.000Z</time>
      </trkpt>
      <trkpt lat="43.75773" lon="7.12572">
        <ele>452.79998779297</ele>
        <time>2019-02-23T14:13:53.000Z</time>
      </trkpt>
      <trkpt lat="43.75771" lon="7.12572">
        <ele>452.79998779297</ele>
        <time>2019-02-23T14:13:54.000Z</time>
      </trkpt>
      <trkpt lat="43.75768" lon="7.1257">
        <ele>452</ele>
        <time>2019-02-23T14:14:01.000Z</time>
      </trkpt>
      <trkpt lat="43.75767" lon="7.12569">
        <ele>451.60000610352</ele>
        <time>2019-02-23T14:14:02.000Z</time>
      </trkpt>
      <trkpt lat="43.75768" lon="7.12569">
        <ele>450.60000610352</ele>
        <time>2019-02-23T14:14:06.000Z</time>
      </trkpt>
      <trkpt lat="43.75768" lon="7.12569">
        <ele>450.79998779297</ele>
        <time>2019-02-23T14:14:07.000Z</time>
      </trkpt>
      <trkpt lat="43.75765" lon="7.12571">
        <ele>450.60000610352</ele>
        <time>2019-02-23T14:14:17.000Z</time>
      </trkpt>
      <trkpt lat="43.75763" lon="7.12567">
        <ele>449.79998779297</ele>
        <time>2019-02-23T14:14:24.000Z</time>
      </trkpt>
      <trkpt lat="43.75763" lon="7.12566">
        <ele>449.39999389648</ele>
        <time>2019-02-23T14:14:26.000Z</time>
      </trkpt>
      <trkpt lat="43.75761" lon="7.12565">
        <ele>448.39999389648</ele>
        <time>2019-02-23T14:14:31.000Z</time>
      </trkpt>
      <trkpt lat="43.7576" lon="7.12567">
        <ele>448.39999389648</ele>
        <time>2019-02-23T14:14:34.000Z</time>
      </trkpt>
      <trkpt lat="43.75757" lon="7.12573">
        <ele>448.20001220703</ele>
        <time>2019-02-23T14:14:37.000Z</time>
      </trkpt>
      <trkpt lat="43.75756" lon="7.12575">
        <ele>448</ele>
        <time>2019-02-23T14:14:38.000Z</time>
      </trkpt>
      <trkpt lat="43.75754" lon="7.12578">
        <ele>447.79998779297</ele>
        <time>2019-02-23T14:14:39.000Z</time>
      </trkpt>
      <trkpt lat="43.75747" lon="7.12584">
        <ele>447.39999389648</ele>
        <time>2019-02-23T14:14:41.000Z</time>
      </trkpt>
      <trkpt lat="43.75743" lon="7.12587">
        <ele>446.79998779297</ele>
        <time>2019-02-23T14:14:42.000Z</time>
      </trkpt>
      <trkpt lat="43.75738" lon="7.1259">
        <ele>445.20001220703</ele>
        <time>2019-02-23T14:14:44.000Z</time>
      </trkpt>
      <trkpt lat="43.75737" lon="7.1259">
        <ele>444.20001220703</ele>
        <time>2019-02-23T14:14:45.000Z</time>
      </trkpt>
      <trkpt lat="43.75735" lon="7.12587">
        <ele>443.20001220703</ele>
        <time>2019-02-23T14:14:47.000Z</time>
      </trkpt>
      <trkpt lat="43.75735" lon="7.12585">
        <ele>442.79998779297</ele>
        <time>2019-02-23T14:14:48.000Z</time>
      </trkpt>
      <trkpt lat="43.75733" lon="7.1258">
        <ele>442</ele>
        <time>2019-02-23T14:14:50.000Z</time>
      </trkpt>
      <trkpt lat="43.7573" lon="7.1258">
        <ele>440.79998779297</ele>
        <time>2019-02-23T14:14:52.000Z</time>
      </trkpt>
      <trkpt lat="43.75725" lon="7.12579">
        <ele>439.79998779297</ele>
        <time>2019-02-23T14:14:54.000Z</time>
      </trkpt>
      <trkpt lat="43.75721" lon="7.12578">
        <ele>439.20001220703</ele>
        <time>2019-02-23T14:14:55.000Z</time>
      </trkpt>
      <trkpt lat="43.75716" lon="7.12577">
        <ele>438.60000610352</ele>
        <time>2019-02-23T14:14:56.000Z</time>
      </trkpt>
      <trkpt lat="43.75704" lon="7.12576">
        <ele>437.60000610352</ele>
        <time>2019-02-23T14:14:58.000Z</time>
      </trkpt>
      <trkpt lat="43.75701" lon="7.12577">
        <ele>437.20001220703</ele>
        <time>2019-02-23T14:14:59.000Z</time>
      </trkpt>
      <trkpt lat="43.75695" lon="7.12577">
        <ele>435.60000610352</ele>
        <time>2019-02-23T14:15:01.000Z</time>
      </trkpt>
      <trkpt lat="43.75687" lon="7.12574">
        <ele>434.39999389648</ele>
        <time>2019-02-23T14:15:03.000Z</time>
      </trkpt>
      <trkpt lat="43.75678" lon="7.12571">
        <ele>433.60000610352</ele>
        <time>2019-02-23T14:15:05.000Z</time>
      </trkpt>
      <trkpt lat="43.75674" lon="7.12573">
        <ele>433.20001220703</ele>
        <time>2019-02-23T14:15:06.000Z</time>
      </trkpt>
      <trkpt lat="43.75669" lon="7.12577">
        <ele>432</ele>
        <time>2019-02-23T14:15:08.000Z</time>
      </trkpt>
      <trkpt lat="43.75665" lon="7.12579">
        <ele>431.79998779297</ele>
        <time>2019-02-23T14:15:12.000Z</time>
      </trkpt>
      <trkpt lat="43.75653" lon="7.12587">
        <ele>432.79998779297</ele>
        <time>2019-02-23T14:15:20.000Z</time>
      </trkpt>
      <trkpt lat="43.75653" lon="7.12587">
        <ele>433.20001220703</ele>
        <time>2019-02-23T14:15:22.000Z</time>
      </trkpt>
      <trkpt lat="43.75652" lon="7.12587">
        <ele>433.39999389648</ele>
        <time>2019-02-23T14:15:24.000Z</time>
      </trkpt>
      <trkpt lat="43.75645" lon="7.12588">
        <ele>433.39999389648</ele>
        <time>2019-02-23T14:15:31.000Z</time>
      </trkpt>
      <trkpt lat="43.75632" lon="7.12592">
        <ele>432</ele>
        <time>2019-02-23T14:15:36.000Z</time>
      </trkpt>
      <trkpt lat="43.75628" lon="7.12594">
        <ele>431</ele>
        <time>2019-02-23T14:15:38.000Z</time>
      </trkpt>
      <trkpt lat="43.75626" lon="7.12594">
        <ele>430.39999389648</ele>
        <time>2019-02-23T14:15:39.000Z</time>
      </trkpt>
      <trkpt lat="43.75623" lon="7.12593">
        <ele>429.79998779297</ele>
        <time>2019-02-23T14:15:40.000Z</time>
      </trkpt>
      <trkpt lat="43.75613" lon="7.12593">
        <ele>428.39999389648</ele>
        <time>2019-02-23T14:15:43.000Z</time>
      </trkpt>
      <trkpt lat="43.75609" lon="7.12593">
        <ele>427.79998779297</ele>
        <time>2019-02-23T14:15:44.000Z</time>
      </trkpt>
      <trkpt lat="43.75606" lon="7.12592">
        <ele>427.39999389648</ele>
        <time>2019-02-23T14:15:45.000Z</time>
      </trkpt>
      <trkpt lat="43.75601" lon="7.12592">
        <ele>425.20001220703</ele>
        <time>2019-02-23T14:15:47.000Z</time>
      </trkpt>
      <trkpt lat="43.75599" lon="7.1259">
        <ele>424.20001220703</ele>
        <time>2019-02-23T14:15:48.000Z</time>
      </trkpt>
      <trkpt lat="43.75594" lon="7.12586">
        <ele>422.60000610352</ele>
        <time>2019-02-23T14:15:50.000Z</time>
      </trkpt>
      <trkpt lat="43.75585" lon="7.12582">
        <ele>420.79998779297</ele>
        <time>2019-02-23T14:15:53.000Z</time>
      </trkpt>
      <trkpt lat="43.75578" lon="7.12577">
        <ele>419.20001220703</ele>
        <time>2019-02-23T14:15:55.000Z</time>
      </trkpt>
      <trkpt lat="43.75574" lon="7.12577">
        <ele>418</ele>
        <time>2019-02-23T14:15:56.000Z</time>
      </trkpt>
      <trkpt lat="43.75566" lon="7.1258">
        <ele>416.79998779297</ele>
        <time>2019-02-23T14:15:58.000Z</time>
      </trkpt>
      <trkpt lat="43.7556" lon="7.12588">
        <ele>415</ele>
        <time>2019-02-23T14:16:00.000Z</time>
      </trkpt>
      <trkpt lat="43.75558" lon="7.12593">
        <ele>414.39999389648</ele>
        <time>2019-02-23T14:16:01.000Z</time>
      </trkpt>
      <trkpt lat="43.75557" lon="7.12597">
        <ele>413.20001220703</ele>
        <time>2019-02-23T14:16:02.000Z</time>
      </trkpt>
      <trkpt lat="43.75555" lon="7.12601">
        <ele>412.60000610352</ele>
        <time>2019-02-23T14:16:03.000Z</time>
      </trkpt>
      <trkpt lat="43.75554" lon="7.12602">
        <ele>412.39999389648</ele>
        <time>2019-02-23T14:16:04.000Z</time>
      </trkpt>
      <trkpt lat="43.75553" lon="7.12602">
        <ele>411.79998779297</ele>
        <time>2019-02-23T14:16:05.000Z</time>
      </trkpt>
      <trkpt lat="43.75548" lon="7.12597">
        <ele>411</ele>
        <time>2019-02-23T14:16:09.000Z</time>
      </trkpt>
      <trkpt lat="43.75548" lon="7.12595">
        <ele>410.20001220703</ele>
        <time>2019-02-23T14:16:10.000Z</time>
      </trkpt>
      <trkpt lat="43.75548" lon="7.12591">
        <ele>408.39999389648</ele>
        <time>2019-02-23T14:16:12.000Z</time>
      </trkpt>
      <trkpt lat="43.75547" lon="7.12587">
        <ele>407.60000610352</ele>
        <time>2019-02-23T14:16:13.000Z</time>
      </trkpt>
      <trkpt lat="43.75547" lon="7.12584">
        <ele>406.79998779297</ele>
        <time>2019-02-23T14:16:14.000Z</time>
      </trkpt>
      <trkpt lat="43.75548" lon="7.12581">
        <ele>406.20001220703</ele>
        <time>2019-02-23T14:16:15.000Z</time>
      </trkpt>
      <trkpt lat="43.75551" lon="7.12574">
        <ele>405.39999389648</ele>
        <time>2019-02-23T14:16:17.000Z</time>
      </trkpt>
      <trkpt lat="43.75556" lon="7.12567">
        <ele>404.20001220703</ele>
        <time>2019-02-23T14:16:19.000Z</time>
      </trkpt>
      <trkpt lat="43.75561" lon="7.12563">
        <ele>402.79998779297</ele>
        <time>2019-02-23T14:16:21.000Z</time>
      </trkpt>
      <trkpt lat="43.75565" lon="7.12561">
        <ele>401.79998779297</ele>
        <time>2019-02-23T14:16:23.000Z</time>
      </trkpt>
      <trkpt lat="43.7557" lon="7.12558">
        <ele>401.20001220703</ele>
        <time>2019-02-23T14:16:25.000Z</time>
      </trkpt>
      <trkpt lat="43.75573" lon="7.12556">
        <ele>400.60000610352</ele>
        <time>2019-02-23T14:16:27.000Z</time>
      </trkpt>
      <trkpt lat="43.75575" lon="7.12553">
        <ele>399.39999389648</ele>
        <time>2019-02-23T14:16:29.000Z</time>
      </trkpt>
      <trkpt lat="43.75577" lon="7.12549">
        <ele>397.60000610352</ele>
        <time>2019-02-23T14:16:31.000Z</time>
      </trkpt>
      <trkpt lat="43.75579" lon="7.12544">
        <ele>396.60000610352</ele>
        <time>2019-02-23T14:16:33.000Z</time>
      </trkpt>
      <trkpt lat="43.75585" lon="7.1253">
        <ele>395</ele>
        <time>2019-02-23T14:16:37.000Z</time>
      </trkpt>
      <trkpt lat="43.75584" lon="7.12527">
        <ele>393.20001220703</ele>
        <time>2019-02-23T14:16:39.000Z</time>
      </trkpt>
      <trkpt lat="43.75585" lon="7.12523">
        <ele>392</ele>
        <time>2019-02-23T14:16:40.000Z</time>
      </trkpt>
      <trkpt lat="43.75585" lon="7.12518">
        <ele>390.79998779297</ele>
        <time>2019-02-23T14:16:42.000Z</time>
      </trkpt>
      <trkpt lat="43.75585" lon="7.12513">
        <ele>389.79998779297</ele>
        <time>2019-02-23T14:16:44.000Z</time>
      </trkpt>
      <trkpt lat="43.75586" lon="7.1251">
        <ele>389.39999389648</ele>
        <time>2019-02-23T14:16:45.000Z</time>
      </trkpt>
      <trkpt lat="43.75586" lon="7.12508">
        <ele>388.20001220703</ele>
        <time>2019-02-23T14:16:47.000Z</time>
      </trkpt>
      <trkpt lat="43.75585" lon="7.12508">
        <ele>387.60000610352</ele>
        <time>2019-02-23T14:16:48.000Z</time>
      </trkpt>
      <trkpt lat="43.75584" lon="7.12508">
        <ele>386.79998779297</ele>
        <time>2019-02-23T14:16:49.000Z</time>
      </trkpt>
      <trkpt lat="43.75584" lon="7.12503">
        <ele>385.39999389648</ele>
        <time>2019-02-23T14:16:51.000Z</time>
      </trkpt>
      <trkpt lat="43.75586" lon="7.12502">
        <ele>384.79998779297</ele>
        <time>2019-02-23T14:16:52.000Z</time>
      </trkpt>
      <trkpt lat="43.75589" lon="7.125">
        <ele>384</ele>
        <time>2019-02-23T14:16:54.000Z</time>
      </trkpt>
      <trkpt lat="43.75588" lon="7.12499">
        <ele>382.79998779297</ele>
        <time>2019-02-23T14:16:56.000Z</time>
      </trkpt>
      <trkpt lat="43.75585" lon="7.12498">
        <ele>381.79998779297</ele>
        <time>2019-02-23T14:16:58.000Z</time>
      </trkpt>
      <trkpt lat="43.75583" lon="7.12499">
        <ele>380.39999389648</ele>
        <time>2019-02-23T14:17:00.000Z</time>
      </trkpt>
      <trkpt lat="43.75581" lon="7.12499">
        <ele>380.20001220703</ele>
        <time>2019-02-23T14:17:01.000Z</time>
      </trkpt>
      <trkpt lat="43.75582" lon="7.12494">
        <ele>379.39999389648</ele>
        <time>2019-02-23T14:17:03.000Z</time>
      </trkpt>
      <trkpt lat="43.75582" lon="7.12495">
        <ele>379.20001220703</ele>
        <time>2019-02-23T14:17:04.000Z</time>
      </trkpt>
      <trkpt lat="43.75584" lon="7.12492">
        <ele>379</ele>
        <time>2019-02-23T14:17:05.000Z</time>
      </trkpt>
      <trkpt lat="43.75585" lon="7.12491">
        <ele>378.39999389648</ele>
        <time>2019-02-23T14:17:06.000Z</time>
      </trkpt>
      <trkpt lat="43.75585" lon="7.12489">
        <ele>378</ele>
        <time>2019-02-23T14:17:07.000Z</time>
      </trkpt>
      <trkpt lat="43.75583" lon="7.12489">
        <ele>377</ele>
        <time>2019-02-23T14:17:09.000Z</time>
      </trkpt>
      <trkpt lat="43.75579" lon="7.12488">
        <ele>376.20001220703</ele>
        <time>2019-02-23T14:17:11.000Z</time>
      </trkpt>
      <trkpt lat="43.75579" lon="7.12486">
        <ele>375.79998779297</ele>
        <time>2019-02-23T14:17:12.000Z</time>
      </trkpt>
      <trkpt lat="43.75583" lon="7.12482">
        <ele>375.20001220703</ele>
        <time>2019-02-23T14:17:14.000Z</time>
      </trkpt>
      <trkpt lat="43.75585" lon="7.12479">
        <ele>374.60000610352</ele>
        <time>2019-02-23T14:17:15.000Z</time>
      </trkpt>
      <trkpt lat="43.75585" lon="7.12476">
        <ele>373.60000610352</ele>
        <time>2019-02-23T14:17:17.000Z</time>
      </trkpt>
      <trkpt lat="43.75584" lon="7.12476">
        <ele>373</ele>
        <time>2019-02-23T14:17:18.000Z</time>
      </trkpt>
      <trkpt lat="43.75582" lon="7.12477">
        <ele>372.60000610352</ele>
        <time>2019-02-23T14:17:19.000Z</time>
      </trkpt>
      <trkpt lat="43.75577" lon="7.12476">
        <ele>371.39999389648</ele>
        <time>2019-02-23T14:17:21.000Z</time>
      </trkpt>
      <trkpt lat="43.75575" lon="7.12477">
        <ele>370.79998779297</ele>
        <time>2019-02-23T14:17:22.000Z</time>
      </trkpt>
      <trkpt lat="43.75574" lon="7.12475">
        <ele>370.20001220703</ele>
        <time>2019-02-23T14:17:23.000Z</time>
      </trkpt>
      <trkpt lat="43.75576" lon="7.12471">
        <ele>368.39999389648</ele>
        <time>2019-02-23T14:17:25.000Z</time>
      </trkpt>
      <trkpt lat="43.75576" lon="7.12468">
        <ele>367</ele>
        <time>2019-02-23T14:17:27.000Z</time>
      </trkpt>
      <trkpt lat="43.75576" lon="7.12468">
        <ele>366.20001220703</ele>
        <time>2019-02-23T14:17:28.000Z</time>
      </trkpt>
      <trkpt lat="43.75574" lon="7.12469">
        <ele>365.60000610352</ele>
        <time>2019-02-23T14:17:29.000Z</time>
      </trkpt>
      <trkpt lat="43.7557" lon="7.12469">
        <ele>364.39999389648</ele>
        <time>2019-02-23T14:17:31.000Z</time>
      </trkpt>
      <trkpt lat="43.75565" lon="7.1247">
        <ele>363</ele>
        <time>2019-02-23T14:17:33.000Z</time>
      </trkpt>
      <trkpt lat="43.75562" lon="7.12471">
        <ele>361.39999389648</ele>
        <time>2019-02-23T14:17:35.000Z</time>
      </trkpt>
      <trkpt lat="43.75562" lon="7.12471">
        <ele>360.39999389648</ele>
        <time>2019-02-23T14:17:37.000Z</time>
      </trkpt>
      <trkpt lat="43.75562" lon="7.12471">
        <ele>360.39999389648</ele>
        <time>2019-02-23T14:17:39.000Z</time>
      </trkpt>
      <trkpt lat="43.75564" lon="7.12471">
        <ele>360.20001220703</ele>
        <time>2019-02-23T14:17:47.000Z</time>
      </trkpt>
      <trkpt lat="43.75565" lon="7.12471">
        <ele>360.39999389648</ele>
        <time>2019-02-23T14:17:53.000Z</time>
      </trkpt>
      <trkpt lat="43.75566" lon="7.12471">
        <ele>360.20001220703</ele>
        <time>2019-02-23T14:18:05.000Z</time>
      </trkpt>
      <trkpt lat="43.75568" lon="7.12471">
        <ele>360</ele>
        <time>2019-02-23T14:18:33.000Z</time>
      </trkpt>
      <trkpt lat="43.75568" lon="7.1247">
        <ele>360</ele>
        <time>2019-02-23T14:18:58.000Z</time>
      </trkpt>
      <trkpt lat="43.75569" lon="7.12469">
        <ele>360.20001220703</ele>
        <time>2019-02-23T14:19:21.000Z</time>
      </trkpt>
      <trkpt lat="43.75569" lon="7.12471">
        <ele>360.20001220703</ele>
        <time>2019-02-23T14:19:31.000Z</time>
      </trkpt>
      <trkpt lat="43.75569" lon="7.12472">
        <ele>360</ele>
        <time>2019-02-23T14:20:03.000Z</time>
      </trkpt>
      <trkpt lat="43.75569" lon="7.12472">
        <ele>360.20001220703</ele>
        <time>2019-02-23T14:20:28.000Z</time>
      </trkpt>
      <trkpt lat="43.7557" lon="7.12473">
        <ele>360.39999389648</ele>
        <time>2019-02-23T14:20:34.000Z</time>
      </trkpt>
      <trkpt lat="43.7557" lon="7.12472">
        <ele>360.60000610352</ele>
        <time>2019-02-23T14:20:50.000Z</time>
      </trkpt>
      <trkpt lat="43.75569" lon="7.12473">
        <ele>360.39999389648</ele>
        <time>2019-02-23T14:21:01.000Z</time>
      </trkpt>
      <trkpt lat="43.75569" lon="7.12473">
        <ele>360.79998779297</ele>
        <time>2019-02-23T14:21:16.000Z</time>
      </trkpt>
      <trkpt lat="43.75569" lon="7.12473">
        <ele>360.60000610352</ele>
        <time>2019-02-23T14:21:29.000Z</time>
      </trkpt>
      <trkpt lat="43.75566" lon="7.1247">
        <ele>360.79998779297</ele>
        <time>2019-02-23T14:21:58.000Z</time>
      </trkpt>
      <trkpt lat="43.75566" lon="7.1247">
        <ele>360.79998779297</ele>
        <time>2019-02-23T14:22:15.000Z</time>
      </trkpt>
      <trkpt lat="43.75567" lon="7.12468">
        <ele>360.60000610352</ele>
        <time>2019-02-23T14:22:23.000Z</time>
      </trkpt>
      <trkpt lat="43.75568" lon="7.12463">
        <ele>360.39999389648</ele>
        <time>2019-02-23T14:22:30.000Z</time>
      </trkpt>
      <trkpt lat="43.75569" lon="7.12463">
        <ele>360.79998779297</ele>
        <time>2019-02-23T14:22:47.000Z</time>
      </trkpt>
      <trkpt lat="43.75569" lon="7.12463">
        <ele>360.60000610352</ele>
        <time>2019-02-23T14:22:55.000Z</time>
      </trkpt>
      <trkpt lat="43.75573" lon="7.12461">
        <ele>360.60000610352</ele>
        <time>2019-02-23T14:23:08.000Z</time>
      </trkpt>
      <trkpt lat="43.75575" lon="7.12459">
        <ele>360.60000610352</ele>
        <time>2019-02-23T14:23:17.000Z</time>
      </trkpt>
      <trkpt lat="43.75575" lon="7.12459">
        <ele>360.79998779297</ele>
        <time>2019-02-23T14:23:33.000Z</time>
      </trkpt>
      <trkpt lat="43.75573" lon="7.1246">
        <ele>360.79998779297</ele>
        <time>2019-02-23T14:23:38.000Z</time>
      </trkpt>
      <trkpt lat="43.75575" lon="7.1246">
        <ele>361.20001220703</ele>
        <time>2019-02-23T14:23:49.000Z</time>
      </trkpt>
      <trkpt lat="43.75576" lon="7.1246">
        <ele>361</ele>
        <time>2019-02-23T14:24:00.000Z</time>
      </trkpt>
      <trkpt lat="43.75575" lon="7.1246">
        <ele>361</ele>
        <time>2019-02-23T14:24:02.000Z</time>
      </trkpt>
      <trkpt lat="43.75575" lon="7.1246">
        <ele>361</ele>
        <time>2019-02-23T14:24:17.000Z</time>
      </trkpt>
      <trkpt lat="43.75576" lon="7.1246">
        <ele>361</ele>
        <time>2019-02-23T14:24:30.000Z</time>
      </trkpt>
      <trkpt lat="43.75575" lon="7.12461">
        <ele>360.79998779297</ele>
        <time>2019-02-23T14:24:48.000Z</time>
      </trkpt>
      <trkpt lat="43.75576" lon="7.12461">
        <ele>361.39999389648</ele>
        <time>2019-02-23T14:24:55.000Z</time>
      </trkpt>
      <trkpt lat="43.75576" lon="7.1246">
        <ele>361.39999389648</ele>
        <time>2019-02-23T14:24:56.000Z</time>
      </trkpt>
      <trkpt lat="43.75577" lon="7.12459">
        <ele>361.20001220703</ele>
        <time>2019-02-23T14:25:03.000Z</time>
      </trkpt>
      <trkpt lat="43.75574" lon="7.1246">
        <ele>361.39999389648</ele>
        <time>2019-02-23T14:25:11.000Z</time>
      </trkpt>
      <trkpt lat="43.75576" lon="7.12461">
        <ele>361.20001220703</ele>
        <time>2019-02-23T14:25:21.000Z</time>
      </trkpt>
      <trkpt lat="43.75578" lon="7.12462">
        <ele>360.79998779297</ele>
        <time>2019-02-23T14:25:41.000Z</time>
      </trkpt>
      <trkpt lat="43.75579" lon="7.12461">
        <ele>361</ele>
        <time>2019-02-23T14:25:51.000Z</time>
      </trkpt>
      <trkpt lat="43.7558" lon="7.1246">
        <ele>361</ele>
        <time>2019-02-23T14:25:59.000Z</time>
      </trkpt>
      <trkpt lat="43.7558" lon="7.1246">
        <ele>361</ele>
        <time>2019-02-23T14:26:02.000Z</time>
      </trkpt>
      <trkpt lat="43.7558" lon="7.12461">
        <ele>361.20001220703</ele>
        <time>2019-02-23T14:26:07.000Z</time>
      </trkpt>
      <trkpt lat="43.75579" lon="7.12465">
        <ele>361.20001220703</ele>
        <time>2019-02-23T14:26:10.000Z</time>
      </trkpt>
      <trkpt lat="43.75576" lon="7.12468">
        <ele>361.20001220703</ele>
        <time>2019-02-23T14:26:12.000Z</time>
      </trkpt>
      <trkpt lat="43.75564" lon="7.12475">
        <ele>360.79998779297</ele>
        <time>2019-02-23T14:26:18.000Z</time>
      </trkpt>
      <trkpt lat="43.75553" lon="7.12486">
        <ele>360.60000610352</ele>
        <time>2019-02-23T14:26:23.000Z</time>
      </trkpt>
      <trkpt lat="43.75545" lon="7.12497">
        <ele>360.20001220703</ele>
        <time>2019-02-23T14:26:28.000Z</time>
      </trkpt>
      <trkpt lat="43.75542" lon="7.12501">
        <ele>360.39999389648</ele>
        <time>2019-02-23T14:26:30.000Z</time>
      </trkpt>
      <trkpt lat="43.75532" lon="7.1251">
        <ele>360.39999389648</ele>
        <time>2019-02-23T14:26:36.000Z</time>
      </trkpt>
      <trkpt lat="43.75515" lon="7.12519">
        <ele>360.60000610352</ele>
        <time>2019-02-23T14:26:44.000Z</time>
      </trkpt>
      <trkpt lat="43.75502" lon="7.12521">
        <ele>360.79998779297</ele>
        <time>2019-02-23T14:26:49.000Z</time>
      </trkpt>
      <trkpt lat="43.75485" lon="7.12519">
        <ele>360.60000610352</ele>
        <time>2019-02-23T14:26:55.000Z</time>
      </trkpt>
      <trkpt lat="43.75483" lon="7.12521">
        <ele>360.60000610352</ele>
        <time>2019-02-23T14:26:56.000Z</time>
      </trkpt>
      <trkpt lat="43.75479" lon="7.12525">
        <ele>360.60000610352</ele>
        <time>2019-02-23T14:26:58.000Z</time>
      </trkpt>
      <trkpt lat="43.75472" lon="7.12537">
        <ele>360.39999389648</ele>
        <time>2019-02-23T14:27:02.000Z</time>
      </trkpt>
      <trkpt lat="43.75468" lon="7.1256">
        <ele>360.60000610352</ele>
        <time>2019-02-23T14:27:08.000Z</time>
      </trkpt>
      <trkpt lat="43.75459" lon="7.12588">
        <ele>360.20001220703</ele>
        <time>2019-02-23T14:27:15.000Z</time>
      </trkpt>
      <trkpt lat="43.75449" lon="7.12601">
        <ele>360.39999389648</ele>
        <time>2019-02-23T14:27:20.000Z</time>
      </trkpt>
      <trkpt lat="43.75436" lon="7.12617">
        <ele>360</ele>
        <time>2019-02-23T14:27:26.000Z</time>
      </trkpt>
      <trkpt lat="43.75426" lon="7.12634">
        <ele>360</ele>
        <time>2019-02-23T14:27:32.000Z</time>
      </trkpt>
      <trkpt lat="43.75421" lon="7.12662">
        <ele>360</ele>
        <time>2019-02-23T14:27:39.000Z</time>
      </trkpt>
      <trkpt lat="43.75414" lon="7.12692">
        <ele>359.79998779297</ele>
        <time>2019-02-23T14:27:46.000Z</time>
      </trkpt>
      <trkpt lat="43.75408" lon="7.12719">
        <ele>359.79998779297</ele>
        <time>2019-02-23T14:27:52.000Z</time>
      </trkpt>
      <trkpt lat="43.75408" lon="7.12725">
        <ele>359.60000610352</ele>
        <time>2019-02-23T14:27:53.000Z</time>
      </trkpt>
      <trkpt lat="43.75407" lon="7.12738">
        <ele>359.39999389648</ele>
        <time>2019-02-23T14:27:55.000Z</time>
      </trkpt>
      <trkpt lat="43.75405" lon="7.12745">
        <ele>359.20001220703</ele>
        <time>2019-02-23T14:27:56.000Z</time>
      </trkpt>
      <trkpt lat="43.75394" lon="7.12762">
        <ele>358.39999389648</ele>
        <time>2019-02-23T14:28:00.000Z</time>
      </trkpt>
      <trkpt lat="43.75384" lon="7.12786">
        <ele>358</ele>
        <time>2019-02-23T14:28:05.000Z</time>
      </trkpt>
      <trkpt lat="43.75381" lon="7.12792">
        <ele>358</ele>
        <time>2019-02-23T14:28:06.000Z</time>
      </trkpt>
      <trkpt lat="43.7537" lon="7.12815">
        <ele>356.79998779297</ele>
        <time>2019-02-23T14:28:10.000Z</time>
      </trkpt>
      <trkpt lat="43.75367" lon="7.1282">
        <ele>356.60000610352</ele>
        <time>2019-02-23T14:28:11.000Z</time>
      </trkpt>
      <trkpt lat="43.75353" lon="7.12834">
        <ele>356.60000610352</ele>
        <time>2019-02-23T14:28:15.000Z</time>
      </trkpt>
      <trkpt lat="43.75336" lon="7.12851">
        <ele>355.79998779297</ele>
        <time>2019-02-23T14:28:20.000Z</time>
      </trkpt>
      <trkpt lat="43.75334" lon="7.12855">
        <ele>355.60000610352</ele>
        <time>2019-02-23T14:28:21.000Z</time>
      </trkpt>
      <trkpt lat="43.75333" lon="7.12862">
        <ele>356</ele>
        <time>2019-02-23T14:28:25.000Z</time>
      </trkpt>
      <trkpt lat="43.75331" lon="7.12869">
        <ele>356.20001220703</ele>
        <time>2019-02-23T14:28:32.000Z</time>
      </trkpt>
      <trkpt lat="43.7533" lon="7.1287">
        <ele>356.20001220703</ele>
        <time>2019-02-23T14:28:33.000Z</time>
      </trkpt>
      <trkpt lat="43.75328" lon="7.12881">
        <ele>356.39999389648</ele>
        <time>2019-02-23T14:28:36.000Z</time>
      </trkpt>
      <trkpt lat="43.75322" lon="7.12911">
        <ele>356.20001220703</ele>
        <time>2019-02-23T14:28:43.000Z</time>
      </trkpt>
      <trkpt lat="43.75318" lon="7.1292">
        <ele>356</ele>
        <time>2019-02-23T14:28:45.000Z</time>
      </trkpt>
      <trkpt lat="43.75312" lon="7.12926">
        <ele>356</ele>
        <time>2019-02-23T14:28:47.000Z</time>
      </trkpt>
      <trkpt lat="43.75302" lon="7.12941">
        <ele>355.60000610352</ele>
        <time>2019-02-23T14:28:51.000Z</time>
      </trkpt>
      <trkpt lat="43.75297" lon="7.12952">
        <ele>355.39999389648</ele>
        <time>2019-02-23T14:28:53.000Z</time>
      </trkpt>
      <trkpt lat="43.75285" lon="7.1296">
        <ele>354.79998779297</ele>
        <time>2019-02-23T14:28:56.000Z</time>
      </trkpt>
      <trkpt lat="43.7528" lon="7.12959">
        <ele>354.60000610352</ele>
        <time>2019-02-23T14:28:57.000Z</time>
      </trkpt>
      <trkpt lat="43.75269" lon="7.12957">
        <ele>354.20001220703</ele>
        <time>2019-02-23T14:28:59.000Z</time>
      </trkpt>
      <trkpt lat="43.75264" lon="7.12955">
        <ele>354</ele>
        <time>2019-02-23T14:29:00.000Z</time>
      </trkpt>
      <trkpt lat="43.7526" lon="7.12952">
        <ele>353.39999389648</ele>
        <time>2019-02-23T14:29:01.000Z</time>
      </trkpt>
      <trkpt lat="43.75249" lon="7.12948">
        <ele>352.60000610352</ele>
        <time>2019-02-23T14:29:03.000Z</time>
      </trkpt>
      <trkpt lat="43.75242" lon="7.12947">
        <ele>352</ele>
        <time>2019-02-23T14:29:04.000Z</time>
      </trkpt>
      <trkpt lat="43.75235" lon="7.12945">
        <ele>351.39999389648</ele>
        <time>2019-02-23T14:29:05.000Z</time>
      </trkpt>
      <trkpt lat="43.75229" lon="7.1294">
        <ele>351</ele>
        <time>2019-02-23T14:29:06.000Z</time>
      </trkpt>
      <trkpt lat="43.75217" lon="7.12931">
        <ele>349.39999389648</ele>
        <time>2019-02-23T14:29:08.000Z</time>
      </trkpt>
      <trkpt lat="43.75202" lon="7.12928">
        <ele>348.79998779297</ele>
        <time>2019-02-23T14:29:10.000Z</time>
      </trkpt>
      <trkpt lat="43.75195" lon="7.12929">
        <ele>348.20001220703</ele>
        <time>2019-02-23T14:29:11.000Z</time>
      </trkpt>
      <trkpt lat="43.75182" lon="7.12934">
        <ele>347.60000610352</ele>
        <time>2019-02-23T14:29:13.000Z</time>
      </trkpt>
      <trkpt lat="43.75177" lon="7.12939">
        <ele>347.20001220703</ele>
        <time>2019-02-23T14:29:14.000Z</time>
      </trkpt>
      <trkpt lat="43.75171" lon="7.12944">
        <ele>345.79998779297</ele>
        <time>2019-02-23T14:29:15.000Z</time>
      </trkpt>
      <trkpt lat="43.75161" lon="7.12959">
        <ele>344.60000610352</ele>
        <time>2019-02-23T14:29:17.000Z</time>
      </trkpt>
      <trkpt lat="43.75151" lon="7.12974">
        <ele>343.39999389648</ele>
        <time>2019-02-23T14:29:19.000Z</time>
      </trkpt>
      <trkpt lat="43.75146" lon="7.12981">
        <ele>342.79998779297</ele>
        <time>2019-02-23T14:29:20.000Z</time>
      </trkpt>
      <trkpt lat="43.7514" lon="7.12985">
        <ele>342</ele>
        <time>2019-02-23T14:29:21.000Z</time>
      </trkpt>
      <trkpt lat="43.75133" lon="7.12986">
        <ele>341.39999389648</ele>
        <time>2019-02-23T14:29:22.000Z</time>
      </trkpt>
      <trkpt lat="43.75121" lon="7.12983">
        <ele>340.60000610352</ele>
        <time>2019-02-23T14:29:24.000Z</time>
      </trkpt>
      <trkpt lat="43.75107" lon="7.12976">
        <ele>339.39999389648</ele>
        <time>2019-02-23T14:29:26.000Z</time>
      </trkpt>
      <trkpt lat="43.75101" lon="7.12974">
        <ele>338.79998779297</ele>
        <time>2019-02-23T14:29:27.000Z</time>
      </trkpt>
      <trkpt lat="43.75094" lon="7.12974">
        <ele>338.20001220703</ele>
        <time>2019-02-23T14:29:28.000Z</time>
      </trkpt>
      <trkpt lat="43.75087" lon="7.12977">
        <ele>337.79998779297</ele>
        <time>2019-02-23T14:29:29.000Z</time>
      </trkpt>
      <trkpt lat="43.75074" lon="7.12986">
        <ele>337</ele>
        <time>2019-02-23T14:29:31.000Z</time>
      </trkpt>
      <trkpt lat="43.75061" lon="7.12996">
        <ele>336.20001220703</ele>
        <time>2019-02-23T14:29:33.000Z</time>
      </trkpt>
      <trkpt lat="43.75055" lon="7.13">
        <ele>335.79998779297</ele>
        <time>2019-02-23T14:29:34.000Z</time>
      </trkpt>
      <trkpt lat="43.75037" lon="7.13005">
        <ele>334.39999389648</ele>
        <time>2019-02-23T14:29:37.000Z</time>
      </trkpt>
      <trkpt lat="43.75025" lon="7.13006">
        <ele>333.60000610352</ele>
        <time>2019-02-23T14:29:39.000Z</time>
      </trkpt>
      <trkpt lat="43.75018" lon="7.13006">
        <ele>333.20001220703</ele>
        <time>2019-02-23T14:29:40.000Z</time>
      </trkpt>
      <trkpt lat="43.75012" lon="7.13004">
        <ele>332.79998779297</ele>
        <time>2019-02-23T14:29:41.000Z</time>
      </trkpt>
      <trkpt lat="43.74999" lon="7.13004">
        <ele>332.20001220703</ele>
        <time>2019-02-23T14:29:43.000Z</time>
      </trkpt>
      <trkpt lat="43.74992" lon="7.13006">
        <ele>331.20001220703</ele>
        <time>2019-02-23T14:29:44.000Z</time>
      </trkpt>
      <trkpt lat="43.74977" lon="7.13017">
        <ele>329.60000610352</ele>
        <time>2019-02-23T14:29:46.000Z</time>
      </trkpt>
      <trkpt lat="43.74962" lon="7.13029">
        <ele>328.20001220703</ele>
        <time>2019-02-23T14:29:48.000Z</time>
      </trkpt>
      <trkpt lat="43.74953" lon="7.13034">
        <ele>327.39999389648</ele>
        <time>2019-02-23T14:29:49.000Z</time>
      </trkpt>
      <trkpt lat="43.74944" lon="7.13038">
        <ele>326.79998779297</ele>
        <time>2019-02-23T14:29:50.000Z</time>
      </trkpt>
      <trkpt lat="43.74936" lon="7.13043">
        <ele>325.60000610352</ele>
        <time>2019-02-23T14:29:51.000Z</time>
      </trkpt>
      <trkpt lat="43.7493" lon="7.13048">
        <ele>324</ele>
        <time>2019-02-23T14:29:52.000Z</time>
      </trkpt>
      <trkpt lat="43.7492" lon="7.13056">
        <ele>322.60000610352</ele>
        <time>2019-02-23T14:29:54.000Z</time>
      </trkpt>
      <trkpt lat="43.74918" lon="7.13058">
        <ele>322</ele>
        <time>2019-02-23T14:29:55.000Z</time>
      </trkpt>
      <trkpt lat="43.74913" lon="7.13072">
        <ele>321.79998779297</ele>
        <time>2019-02-23T14:29:59.000Z</time>
      </trkpt>
      <trkpt lat="43.74906" lon="7.13104">
        <ele>321.79998779297</ele>
        <time>2019-02-23T14:30:05.000Z</time>
      </trkpt>
      <trkpt lat="43.74901" lon="7.13113">
        <ele>321.79998779297</ele>
        <time>2019-02-23T14:30:07.000Z</time>
      </trkpt>
      <trkpt lat="43.74895" lon="7.13119">
        <ele>322</ele>
        <time>2019-02-23T14:30:09.000Z</time>
      </trkpt>
      <trkpt lat="43.74883" lon="7.13125">
        <ele>322</ele>
        <time>2019-02-23T14:30:12.000Z</time>
      </trkpt>
      <trkpt lat="43.74875" lon="7.13127">
        <ele>322.20001220703</ele>
        <time>2019-02-23T14:30:14.000Z</time>
      </trkpt>
      <trkpt lat="43.74848" lon="7.13132">
        <ele>322.60000610352</ele>
        <time>2019-02-23T14:30:21.000Z</time>
      </trkpt>
      <trkpt lat="43.74826" lon="7.13146">
        <ele>323</ele>
        <time>2019-02-23T14:30:27.000Z</time>
      </trkpt>
      <trkpt lat="43.74798" lon="7.13184">
        <ele>323</ele>
        <time>2019-02-23T14:30:36.000Z</time>
      </trkpt>
      <trkpt lat="43.74766" lon="7.13226">
        <ele>323.20001220703</ele>
        <time>2019-02-23T14:30:46.000Z</time>
      </trkpt>
      <trkpt lat="43.7475" lon="7.1326">
        <ele>323.20001220703</ele>
        <time>2019-02-23T14:30:52.000Z</time>
      </trkpt>
      <trkpt lat="43.74722" lon="7.13325">
        <ele>322.60000610352</ele>
        <time>2019-02-23T14:31:03.000Z</time>
      </trkpt>
      <trkpt lat="43.74706" lon="7.13386">
        <ele>322.39999389648</ele>
        <time>2019-02-23T14:31:12.000Z</time>
      </trkpt>
      <trkpt lat="43.74685" lon="7.1343">
        <ele>322</ele>
        <time>2019-02-23T14:31:19.000Z</time>
      </trkpt>
      <trkpt lat="43.74665" lon="7.13452">
        <ele>321.79998779297</ele>
        <time>2019-02-23T14:31:24.000Z</time>
      </trkpt>
      <trkpt lat="43.74652" lon="7.13469">
        <ele>321.79998779297</ele>
        <time>2019-02-23T14:31:27.000Z</time>
      </trkpt>
      <trkpt lat="43.74647" lon="7.13474">
        <ele>321.60000610352</ele>
        <time>2019-02-23T14:31:28.000Z</time>
      </trkpt>
      <trkpt lat="43.74619" lon="7.13503">
        <ele>321.60000610352</ele>
        <time>2019-02-23T14:31:34.000Z</time>
      </trkpt>
      <trkpt lat="43.74614" lon="7.13506">
        <ele>321.39999389648</ele>
        <time>2019-02-23T14:31:35.000Z</time>
      </trkpt>
      <trkpt lat="43.74598" lon="7.13518">
        <ele>321.20001220703</ele>
        <time>2019-02-23T14:31:38.000Z</time>
      </trkpt>
      <trkpt lat="43.74585" lon="7.13535">
        <ele>321.20001220703</ele>
        <time>2019-02-23T14:31:41.000Z</time>
      </trkpt>
      <trkpt lat="43.74559" lon="7.1359">
        <ele>320.79998779297</ele>
        <time>2019-02-23T14:31:49.000Z</time>
      </trkpt>
      <trkpt lat="43.74548" lon="7.13618">
        <ele>320.60000610352</ele>
        <time>2019-02-23T14:31:53.000Z</time>
      </trkpt>
      <trkpt lat="43.74537" lon="7.13638">
        <ele>320.39999389648</ele>
        <time>2019-02-23T14:31:57.000Z</time>
      </trkpt>
      <trkpt lat="43.74518" lon="7.13676">
        <ele>320.20001220703</ele>
        <time>2019-02-23T14:32:04.000Z</time>
      </trkpt>
      <trkpt lat="43.74492" lon="7.1373">
        <ele>319.79998779297</ele>
        <time>2019-02-23T14:32:12.000Z</time>
      </trkpt>
      <trkpt lat="43.74468" lon="7.13762">
        <ele>319.79998779297</ele>
        <time>2019-02-23T14:32:18.000Z</time>
      </trkpt>
      <trkpt lat="43.74455" lon="7.13777">
        <ele>319.60000610352</ele>
        <time>2019-02-23T14:32:21.000Z</time>
      </trkpt>
      <trkpt lat="43.74451" lon="7.13781">
        <ele>319.60000610352</ele>
        <time>2019-02-23T14:32:22.000Z</time>
      </trkpt>
      <trkpt lat="43.74442" lon="7.13791">
        <ele>319.39999389648</ele>
        <time>2019-02-23T14:32:24.000Z</time>
      </trkpt>
      <trkpt lat="43.74425" lon="7.13812">
        <ele>319.20001220703</ele>
        <time>2019-02-23T14:32:28.000Z</time>
      </trkpt>
      <trkpt lat="43.74414" lon="7.13829">
        <ele>319.20001220703</ele>
        <time>2019-02-23T14:32:31.000Z</time>
      </trkpt>
      <trkpt lat="43.74385" lon="7.13878">
        <ele>319</ele>
        <time>2019-02-23T14:32:39.000Z</time>
      </trkpt>
      <trkpt lat="43.74383" lon="7.13885">
        <ele>318.79998779297</ele>
        <time>2019-02-23T14:32:40.000Z</time>
      </trkpt>
      <trkpt lat="43.74377" lon="7.13917">
        <ele>318.60000610352</ele>
        <time>2019-02-23T14:32:44.000Z</time>
      </trkpt>
      <trkpt lat="43.74375" lon="7.13933">
        <ele>318.60000610352</ele>
        <time>2019-02-23T14:32:46.000Z</time>
      </trkpt>
      <trkpt lat="43.7437" lon="7.13982">
        <ele>318.20001220703</ele>
        <time>2019-02-23T14:32:52.000Z</time>
      </trkpt>
      <trkpt lat="43.74362" lon="7.1406">
        <ele>318</ele>
        <time>2019-02-23T14:33:02.000Z</time>
      </trkpt>
      <trkpt lat="43.74361" lon="7.14068">
        <ele>317.79998779297</ele>
        <time>2019-02-23T14:33:03.000Z</time>
      </trkpt>
      <trkpt lat="43.74364" lon="7.14123">
        <ele>317.79998779297</ele>
        <time>2019-02-23T14:33:10.000Z</time>
      </trkpt>
      <trkpt lat="43.7437" lon="7.14164">
        <ele>317.60000610352</ele>
        <time>2019-02-23T14:33:15.000Z</time>
      </trkpt>
      <trkpt lat="43.74371" lon="7.1419">
        <ele>317.39999389648</ele>
        <time>2019-02-23T14:33:18.000Z</time>
      </trkpt>
      <trkpt lat="43.74362" lon="7.14229">
        <ele>317</ele>
        <time>2019-02-23T14:33:23.000Z</time>
      </trkpt>
      <trkpt lat="43.74356" lon="7.14252">
        <ele>316.79998779297</ele>
        <time>2019-02-23T14:33:26.000Z</time>
      </trkpt>
      <trkpt lat="43.74352" lon="7.14266">
        <ele>317</ele>
        <time>2019-02-23T14:33:28.000Z</time>
      </trkpt>
      <trkpt lat="43.7435" lon="7.14282">
        <ele>317</ele>
        <time>2019-02-23T14:33:30.000Z</time>
      </trkpt>
      <trkpt lat="43.74349" lon="7.1429">
        <ele>316.79998779297</ele>
        <time>2019-02-23T14:33:31.000Z</time>
      </trkpt>
      <trkpt lat="43.74348" lon="7.14314">
        <ele>316.79998779297</ele>
        <time>2019-02-23T14:33:34.000Z</time>
      </trkpt>
      <trkpt lat="43.74348" lon="7.14371">
        <ele>316.39999389648</ele>
        <time>2019-02-23T14:33:41.000Z</time>
      </trkpt>
      <trkpt lat="43.7434" lon="7.14416">
        <ele>316</ele>
        <time>2019-02-23T14:33:47.000Z</time>
      </trkpt>
      <trkpt lat="43.74332" lon="7.14436">
        <ele>316</ele>
        <time>2019-02-23T14:33:50.000Z</time>
      </trkpt>
      <trkpt lat="43.74323" lon="7.14445">
        <ele>316</ele>
        <time>2019-02-23T14:33:52.000Z</time>
      </trkpt>
      <trkpt lat="43.74305" lon="7.14456">
        <ele>315.79998779297</ele>
        <time>2019-02-23T14:33:55.000Z</time>
      </trkpt>
      <trkpt lat="43.74292" lon="7.14461">
        <ele>315</ele>
        <time>2019-02-23T14:33:57.000Z</time>
      </trkpt>
      <trkpt lat="43.74284" lon="7.14466">
        <ele>314</ele>
        <time>2019-02-23T14:33:59.000Z</time>
      </trkpt>
      <trkpt lat="43.7428" lon="7.1447">
        <ele>313.60000610352</ele>
        <time>2019-02-23T14:34:00.000Z</time>
      </trkpt>
      <trkpt lat="43.74275" lon="7.14474">
        <ele>313</ele>
        <time>2019-02-23T14:34:01.000Z</time>
      </trkpt>
      <trkpt lat="43.74268" lon="7.14483">
        <ele>312.39999389648</ele>
        <time>2019-02-23T14:34:03.000Z</time>
      </trkpt>
      <trkpt lat="43.74258" lon="7.145">
        <ele>311.79998779297</ele>
        <time>2019-02-23T14:34:06.000Z</time>
      </trkpt>
      <trkpt lat="43.74251" lon="7.14511">
        <ele>311.20001220703</ele>
        <time>2019-02-23T14:34:08.000Z</time>
      </trkpt>
      <trkpt lat="43.74244" lon="7.14519">
        <ele>311</ele>
        <time>2019-02-23T14:34:10.000Z</time>
      </trkpt>
      <trkpt lat="43.74241" lon="7.14523">
        <ele>311</ele>
        <time>2019-02-23T14:34:11.000Z</time>
      </trkpt>
      <trkpt lat="43.74243" lon="7.14534">
        <ele>310.39999389648</ele>
        <time>2019-02-23T14:34:14.000Z</time>
      </trkpt>
      <trkpt lat="43.74245" lon="7.14535">
        <ele>310</ele>
        <time>2019-02-23T14:34:15.000Z</time>
      </trkpt>
      <trkpt lat="43.74251" lon="7.14536">
        <ele>309</ele>
        <time>2019-02-23T14:34:17.000Z</time>
      </trkpt>
      <trkpt lat="43.74255" lon="7.14536">
        <ele>308.60000610352</ele>
        <time>2019-02-23T14:34:18.000Z</time>
      </trkpt>
      <trkpt lat="43.74259" lon="7.14535">
        <ele>308</ele>
        <time>2019-02-23T14:34:19.000Z</time>
      </trkpt>
      <trkpt lat="43.74263" lon="7.14534">
        <ele>307.79998779297</ele>
        <time>2019-02-23T14:34:20.000Z</time>
      </trkpt>
      <trkpt lat="43.74267" lon="7.14531">
        <ele>307.39999389648</ele>
        <time>2019-02-23T14:34:22.000Z</time>
      </trkpt>
      <trkpt lat="43.7427" lon="7.1453">
        <ele>307</ele>
        <time>2019-02-23T14:34:24.000Z</time>
      </trkpt>
      <trkpt lat="43.74274" lon="7.14533">
        <ele>307.20001220703</ele>
        <time>2019-02-23T14:34:27.000Z</time>
      </trkpt>
      <trkpt lat="43.74269" lon="7.14537">
        <ele>307.39999389648</ele>
        <time>2019-02-23T14:34:30.000Z</time>
      </trkpt>
      <trkpt lat="43.74265" lon="7.14534">
        <ele>307.39999389648</ele>
        <time>2019-02-23T14:34:32.000Z</time>
      </trkpt>
      <trkpt lat="43.74261" lon="7.14532">
        <ele>307.20001220703</ele>
        <time>2019-02-23T14:34:34.000Z</time>
      </trkpt>
      <trkpt lat="43.74257" lon="7.14532">
        <ele>306.79998779297</ele>
        <time>2019-02-23T14:34:36.000Z</time>
      </trkpt>
      <trkpt lat="43.74251" lon="7.14532">
        <ele>306.60000610352</ele>
        <time>2019-02-23T14:34:40.000Z</time>
      </trkpt>
      <trkpt lat="43.74242" lon="7.14528">
        <ele>307.39999389648</ele>
        <time>2019-02-23T14:34:46.000Z</time>
      </trkpt>
      <trkpt lat="43.7424" lon="7.14524">
        <ele>307.79998779297</ele>
        <time>2019-02-23T14:34:49.000Z</time>
      </trkpt>
      <trkpt lat="43.7424" lon="7.14524">
        <ele>308</ele>
        <time>2019-02-23T14:34:51.000Z</time>
      </trkpt>
      <trkpt lat="43.7424" lon="7.14524">
        <ele>308.79998779297</ele>
        <time>2019-02-23T14:34:59.000Z</time>
      </trkpt>
      <trkpt lat="43.7424" lon="7.14524">
        <ele>308.79998779297</ele>
        <time>2019-02-23T14:35:08.000Z</time>
      </trkpt>
    </trkseg>
  </trk>
</gpx>